<?xml version="1.0" encoding="UTF-8" standalone="no" ?>
<gpx xmlns="http://www.topografix.com/GPX/1/1" xmlns:xsi="http://www.w3.org/2001/XMLSchema-instance" xsi:schemaLocation="http://www.topografix.com/GPX/1/1 http://www.topografix.com/GPX/1/1/gpx.xsd" version="1.1" creator="VisuGPX - https://www.visugpx.com">
  <metadata>
    <name>Rando Marsaneix 2021</name>
  </metadata>
  <trk>
    <name><![CDATA[Rando Marsaneix 2021_1]]></name>
    <trkseg>
      <trkpt lat="45.09857" lon="0.78362">
        <ele>212.7</ele>
        <time>2022-05-01T07:10:55Z</time>
      </trkpt>
      <trkpt lat="45.09863" lon="0.78367">
        <ele>212.7</ele>
        <time>2022-05-01T07:10:57Z</time>
      </trkpt>
      <trkpt lat="45.09866" lon="0.7837">
        <ele>212.7</ele>
        <time>2022-05-01T07:10:59Z</time>
      </trkpt>
      <trkpt lat="45.09877" lon="0.78376">
        <ele>212.6</ele>
        <time>2022-05-01T07:11:01Z</time>
      </trkpt>
      <trkpt lat="45.09881" lon="0.78385">
        <ele>212.7</ele>
        <time>2022-05-01T07:11:03Z</time>
      </trkpt>
      <trkpt lat="45.09885" lon="0.7839">
        <ele>212.6</ele>
        <time>2022-05-01T07:11:05Z</time>
      </trkpt>
      <trkpt lat="45.09887" lon="0.78393">
        <ele>212.6</ele>
        <time>2022-05-01T07:11:07Z</time>
      </trkpt>
      <trkpt lat="45.09891" lon="0.78398">
        <ele>212.5</ele>
        <time>2022-05-01T07:11:09Z</time>
      </trkpt>
      <trkpt lat="45.09897" lon="0.78402">
        <ele>212.3</ele>
        <time>2022-05-01T07:11:11Z</time>
      </trkpt>
      <trkpt lat="45.099" lon="0.78402">
        <ele>212.3</ele>
        <time>2022-05-01T07:11:12Z</time>
      </trkpt>
      <trkpt lat="45.09903" lon="0.78402">
        <ele>212.2</ele>
        <time>2022-05-01T07:11:13Z</time>
      </trkpt>
      <trkpt lat="45.09909" lon="0.78399">
        <ele>212</ele>
        <time>2022-05-01T07:11:15Z</time>
      </trkpt>
      <trkpt lat="45.09915" lon="0.78394">
        <ele>211.9</ele>
        <time>2022-05-01T07:11:17Z</time>
      </trkpt>
      <trkpt lat="45.0992" lon="0.78389">
        <ele>211.7</ele>
        <time>2022-05-01T07:11:19Z</time>
      </trkpt>
      <trkpt lat="45.09926" lon="0.78384">
        <ele>211.5</ele>
        <time>2022-05-01T07:11:21Z</time>
      </trkpt>
      <trkpt lat="45.09931" lon="0.7838">
        <ele>211.3</ele>
        <time>2022-05-01T07:11:23Z</time>
      </trkpt>
      <trkpt lat="45.09934" lon="0.78377">
        <ele>211.2</ele>
        <time>2022-05-01T07:11:25Z</time>
      </trkpt>
      <trkpt lat="45.09935" lon="0.78376">
        <ele>211.2</ele>
        <time>2022-05-01T07:11:26Z</time>
      </trkpt>
      <trkpt lat="45.09937" lon="0.78375">
        <ele>211.2</ele>
        <time>2022-05-01T07:11:27Z</time>
      </trkpt>
      <trkpt lat="45.09938" lon="0.78374">
        <ele>211.1</ele>
        <time>2022-05-01T07:11:28Z</time>
      </trkpt>
      <trkpt lat="45.09939" lon="0.78373">
        <ele>211.1</ele>
        <time>2022-05-01T07:11:29Z</time>
      </trkpt>
      <trkpt lat="45.0994" lon="0.78372">
        <ele>211.1</ele>
        <time>2022-05-01T07:11:31Z</time>
      </trkpt>
      <trkpt lat="45.09938" lon="0.78374">
        <ele>211.1</ele>
        <time>2022-05-01T07:13:14Z</time>
      </trkpt>
      <trkpt lat="45.09938" lon="0.78374">
        <ele>211.1</ele>
        <time>2022-05-01T07:13:15Z</time>
      </trkpt>
      <trkpt lat="45.09934" lon="0.78377">
        <ele>211.2</ele>
        <time>2022-05-01T07:13:17Z</time>
      </trkpt>
      <trkpt lat="45.09931" lon="0.7838">
        <ele>211.4</ele>
        <time>2022-05-01T07:13:19Z</time>
      </trkpt>
      <trkpt lat="45.09928" lon="0.78382">
        <ele>211.4</ele>
        <time>2022-05-01T07:13:21Z</time>
      </trkpt>
      <trkpt lat="45.09924" lon="0.78386">
        <ele>211.6</ele>
        <time>2022-05-01T07:13:23Z</time>
      </trkpt>
      <trkpt lat="45.0992" lon="0.78389">
        <ele>211.7</ele>
        <time>2022-05-01T07:13:25Z</time>
      </trkpt>
      <trkpt lat="45.09917" lon="0.78392">
        <ele>211.8</ele>
        <time>2022-05-01T07:13:27Z</time>
      </trkpt>
      <trkpt lat="45.09913" lon="0.78395">
        <ele>211.9</ele>
        <time>2022-05-01T07:13:29Z</time>
      </trkpt>
      <trkpt lat="45.09909" lon="0.78399">
        <ele>212</ele>
        <time>2022-05-01T07:13:31Z</time>
      </trkpt>
      <trkpt lat="45.09904" lon="0.78402">
        <ele>212.2</ele>
        <time>2022-05-01T07:13:33Z</time>
      </trkpt>
      <trkpt lat="45.09898" lon="0.78402">
        <ele>212.3</ele>
        <time>2022-05-01T07:13:35Z</time>
      </trkpt>
      <trkpt lat="45.09891" lon="0.78399">
        <ele>212.5</ele>
        <time>2022-05-01T07:13:37Z</time>
      </trkpt>
      <trkpt lat="45.09887" lon="0.78392">
        <ele>212.6</ele>
        <time>2022-05-01T07:13:39Z</time>
      </trkpt>
      <trkpt lat="45.09882" lon="0.78386">
        <ele>212.6</ele>
        <time>2022-05-01T07:13:41Z</time>
      </trkpt>
      <trkpt lat="45.09878" lon="0.78377">
        <ele>212.6</ele>
        <time>2022-05-01T07:13:43Z</time>
      </trkpt>
      <trkpt lat="45.09876" lon="0.78374">
        <ele>212.6</ele>
        <time>2022-05-01T07:13:44Z</time>
      </trkpt>
      <trkpt lat="45.09872" lon="0.78368">
        <ele>212.6</ele>
        <time>2022-05-01T07:13:45Z</time>
      </trkpt>
      <trkpt lat="45.09865" lon="0.78371">
        <ele>212.7</ele>
        <time>2022-05-01T07:13:47Z</time>
      </trkpt>
      <trkpt lat="45.09862" lon="0.78374">
        <ele>212.7</ele>
        <time>2022-05-01T07:13:48Z</time>
      </trkpt>
      <trkpt lat="45.09859" lon="0.78376">
        <ele>212.7</ele>
        <time>2022-05-01T07:13:49Z</time>
      </trkpt>
      <trkpt lat="45.09853" lon="0.78382">
        <ele>212.8</ele>
        <time>2022-05-01T07:13:51Z</time>
      </trkpt>
      <trkpt lat="45.09847" lon="0.78388">
        <ele>212.8</ele>
        <time>2022-05-01T07:13:53Z</time>
      </trkpt>
      <trkpt lat="45.09841" lon="0.78394">
        <ele>212.9</ele>
        <time>2022-05-01T07:13:55Z</time>
      </trkpt>
      <trkpt lat="45.09834" lon="0.784">
        <ele>212.9</ele>
        <time>2022-05-01T07:13:57Z</time>
      </trkpt>
      <trkpt lat="45.09828" lon="0.78406">
        <ele>213</ele>
        <time>2022-05-01T07:13:59Z</time>
      </trkpt>
      <trkpt lat="45.09823" lon="0.78411">
        <ele>213</ele>
        <time>2022-05-01T07:14:01Z</time>
      </trkpt>
      <trkpt lat="45.09818" lon="0.78416">
        <ele>213.1</ele>
        <time>2022-05-01T07:14:03Z</time>
      </trkpt>
      <trkpt lat="45.09816" lon="0.78429">
        <ele>213</ele>
        <time>2022-05-01T07:14:05Z</time>
      </trkpt>
      <trkpt lat="45.0982" lon="0.78437">
        <ele>212.8</ele>
        <time>2022-05-01T07:14:07Z</time>
      </trkpt>
      <trkpt lat="45.09824" lon="0.78445">
        <ele>212.6</ele>
        <time>2022-05-01T07:14:09Z</time>
      </trkpt>
      <trkpt lat="45.09828" lon="0.78453">
        <ele>212.4</ele>
        <time>2022-05-01T07:14:11Z</time>
      </trkpt>
      <trkpt lat="45.09832" lon="0.78463">
        <ele>212</ele>
        <time>2022-05-01T07:14:13Z</time>
      </trkpt>
      <trkpt lat="45.09835" lon="0.78468">
        <ele>211.7</ele>
        <time>2022-05-01T07:14:14Z</time>
      </trkpt>
      <trkpt lat="45.09837" lon="0.78474">
        <ele>211.5</ele>
        <time>2022-05-01T07:14:15Z</time>
      </trkpt>
      <trkpt lat="45.09843" lon="0.78486">
        <ele>210.9</ele>
        <time>2022-05-01T07:14:17Z</time>
      </trkpt>
      <trkpt lat="45.0985" lon="0.785">
        <ele>210.3</ele>
        <time>2022-05-01T07:14:19Z</time>
      </trkpt>
      <trkpt lat="45.09853" lon="0.78507">
        <ele>210</ele>
        <time>2022-05-01T07:14:20Z</time>
      </trkpt>
      <trkpt lat="45.09856" lon="0.78514">
        <ele>209.9</ele>
        <time>2022-05-01T07:14:21Z</time>
      </trkpt>
      <trkpt lat="45.09863" lon="0.78528">
        <ele>209.6</ele>
        <time>2022-05-01T07:14:23Z</time>
      </trkpt>
      <trkpt lat="45.09869" lon="0.78541">
        <ele>209.4</ele>
        <time>2022-05-01T07:14:25Z</time>
      </trkpt>
      <trkpt lat="45.09874" lon="0.78554">
        <ele>209.2</ele>
        <time>2022-05-01T07:14:27Z</time>
      </trkpt>
      <trkpt lat="45.09879" lon="0.78565">
        <ele>209</ele>
        <time>2022-05-01T07:14:29Z</time>
      </trkpt>
      <trkpt lat="45.09882" lon="0.78577">
        <ele>208.8</ele>
        <time>2022-05-01T07:14:31Z</time>
      </trkpt>
      <trkpt lat="45.09886" lon="0.78589">
        <ele>208.5</ele>
        <time>2022-05-01T07:14:33Z</time>
      </trkpt>
      <trkpt lat="45.0989" lon="0.78601">
        <ele>208.2</ele>
        <time>2022-05-01T07:14:35Z</time>
      </trkpt>
      <trkpt lat="45.09894" lon="0.78613">
        <ele>207.9</ele>
        <time>2022-05-01T07:14:37Z</time>
      </trkpt>
      <trkpt lat="45.09898" lon="0.78625">
        <ele>207.5</ele>
        <time>2022-05-01T07:14:39Z</time>
      </trkpt>
      <trkpt lat="45.09902" lon="0.78638">
        <ele>207</ele>
        <time>2022-05-01T07:14:41Z</time>
      </trkpt>
      <trkpt lat="45.09905" lon="0.7865">
        <ele>206.4</ele>
        <time>2022-05-01T07:14:43Z</time>
      </trkpt>
      <trkpt lat="45.09909" lon="0.78664">
        <ele>205.7</ele>
        <time>2022-05-01T07:14:45Z</time>
      </trkpt>
      <trkpt lat="45.09912" lon="0.78679">
        <ele>204.9</ele>
        <time>2022-05-01T07:14:47Z</time>
      </trkpt>
      <trkpt lat="45.09916" lon="0.78694">
        <ele>204.2</ele>
        <time>2022-05-01T07:14:49Z</time>
      </trkpt>
      <trkpt lat="45.0992" lon="0.7871">
        <ele>203.6</ele>
        <time>2022-05-01T07:14:51Z</time>
      </trkpt>
      <trkpt lat="45.09924" lon="0.78727">
        <ele>203.1</ele>
        <time>2022-05-01T07:14:53Z</time>
      </trkpt>
      <trkpt lat="45.09928" lon="0.78743">
        <ele>202.6</ele>
        <time>2022-05-01T07:14:55Z</time>
      </trkpt>
      <trkpt lat="45.09931" lon="0.78757">
        <ele>202.3</ele>
        <time>2022-05-01T07:14:57Z</time>
      </trkpt>
      <trkpt lat="45.09932" lon="0.78764">
        <ele>202.1</ele>
        <time>2022-05-01T07:14:58Z</time>
      </trkpt>
      <trkpt lat="45.09934" lon="0.78771">
        <ele>201.9</ele>
        <time>2022-05-01T07:14:59Z</time>
      </trkpt>
      <trkpt lat="45.09937" lon="0.78785">
        <ele>201.5</ele>
        <time>2022-05-01T07:15:01Z</time>
      </trkpt>
      <trkpt lat="45.09938" lon="0.78792">
        <ele>201.2</ele>
        <time>2022-05-01T07:15:02Z</time>
      </trkpt>
      <trkpt lat="45.0994" lon="0.78799">
        <ele>200.9</ele>
        <time>2022-05-01T07:15:03Z</time>
      </trkpt>
      <trkpt lat="45.09942" lon="0.78808">
        <ele>200.5</ele>
        <time>2022-05-01T07:15:04Z</time>
      </trkpt>
      <trkpt lat="45.09944" lon="0.78818">
        <ele>200.2</ele>
        <time>2022-05-01T07:15:05Z</time>
      </trkpt>
      <trkpt lat="45.09948" lon="0.78837">
        <ele>199.8</ele>
        <time>2022-05-01T07:15:07Z</time>
      </trkpt>
      <trkpt lat="45.0995" lon="0.78846">
        <ele>199.8</ele>
        <time>2022-05-01T07:15:08Z</time>
      </trkpt>
      <trkpt lat="45.09952" lon="0.78854">
        <ele>199.9</ele>
        <time>2022-05-01T07:15:09Z</time>
      </trkpt>
      <trkpt lat="45.09956" lon="0.7887">
        <ele>200.2</ele>
        <time>2022-05-01T07:15:11Z</time>
      </trkpt>
      <trkpt lat="45.09959" lon="0.78883">
        <ele>200.8</ele>
        <time>2022-05-01T07:15:13Z</time>
      </trkpt>
      <trkpt lat="45.09961" lon="0.78894">
        <ele>201.4</ele>
        <time>2022-05-01T07:15:15Z</time>
      </trkpt>
      <trkpt lat="45.09963" lon="0.78902">
        <ele>202</ele>
        <time>2022-05-01T07:15:17Z</time>
      </trkpt>
      <trkpt lat="45.09963" lon="0.78905">
        <ele>202.2</ele>
        <time>2022-05-01T07:15:18Z</time>
      </trkpt>
      <trkpt lat="45.09964" lon="0.78908">
        <ele>202.5</ele>
        <time>2022-05-01T07:15:19Z</time>
      </trkpt>
      <trkpt lat="45.09966" lon="0.78915">
        <ele>203</ele>
        <time>2022-05-01T07:15:21Z</time>
      </trkpt>
      <trkpt lat="45.09966" lon="0.78917">
        <ele>203.2</ele>
        <time>2022-05-01T07:15:22Z</time>
      </trkpt>
      <trkpt lat="45.09967" lon="0.7892">
        <ele>203.3</ele>
        <time>2022-05-01T07:15:23Z</time>
      </trkpt>
      <trkpt lat="45.09968" lon="0.78926">
        <ele>203.8</ele>
        <time>2022-05-01T07:15:25Z</time>
      </trkpt>
      <trkpt lat="45.09969" lon="0.78929">
        <ele>204</ele>
        <time>2022-05-01T07:15:26Z</time>
      </trkpt>
      <trkpt lat="45.09969" lon="0.78932">
        <ele>204.3</ele>
        <time>2022-05-01T07:15:27Z</time>
      </trkpt>
      <trkpt lat="45.09971" lon="0.78939">
        <ele>204.8</ele>
        <time>2022-05-01T07:15:29Z</time>
      </trkpt>
      <trkpt lat="45.09972" lon="0.78946">
        <ele>205.1</ele>
        <time>2022-05-01T07:15:31Z</time>
      </trkpt>
      <trkpt lat="45.09973" lon="0.78948">
        <ele>205.3</ele>
        <time>2022-05-01T07:15:32Z</time>
      </trkpt>
      <trkpt lat="45.09973" lon="0.78951">
        <ele>205.2</ele>
        <time>2022-05-01T07:15:33Z</time>
      </trkpt>
      <trkpt lat="45.09974" lon="0.78955">
        <ele>205</ele>
        <time>2022-05-01T07:15:35Z</time>
      </trkpt>
      <trkpt lat="45.09974" lon="0.7896">
        <ele>204.9</ele>
        <time>2022-05-01T07:15:37Z</time>
      </trkpt>
      <trkpt lat="45.09974" lon="0.7896">
        <ele>204.9</ele>
        <time>2022-05-01T07:15:38Z</time>
      </trkpt>
      <trkpt lat="45.09974" lon="0.7896">
        <ele>204.9</ele>
        <time>2022-05-01T07:15:39Z</time>
      </trkpt>
      <trkpt lat="45.09974" lon="0.7896">
        <ele>204.9</ele>
        <time>2022-05-01T07:15:40Z</time>
      </trkpt>
      <trkpt lat="45.09975" lon="0.78965">
        <ele>204.6</ele>
        <time>2022-05-01T07:15:41Z</time>
      </trkpt>
      <trkpt lat="45.09974" lon="0.78959">
        <ele>204.4</ele>
        <time>2022-05-01T07:15:42Z</time>
      </trkpt>
      <trkpt lat="45.09974" lon="0.78951">
        <ele>204</ele>
        <time>2022-05-01T07:15:43Z</time>
      </trkpt>
      <trkpt lat="45.09974" lon="0.78951">
        <ele>204</ele>
        <time>2022-05-01T07:15:44Z</time>
      </trkpt>
      <trkpt lat="45.09974" lon="0.7896">
        <ele>203.7</ele>
        <time>2022-05-01T07:15:45Z</time>
      </trkpt>
      <trkpt lat="45.09974" lon="0.78951">
        <ele>203.3</ele>
        <time>2022-05-01T07:15:47Z</time>
      </trkpt>
      <trkpt lat="45.09972" lon="0.78942">
        <ele>202.8</ele>
        <time>2022-05-01T07:15:49Z</time>
      </trkpt>
      <trkpt lat="45.0997" lon="0.78936">
        <ele>202.5</ele>
        <time>2022-05-01T07:15:50Z</time>
      </trkpt>
      <trkpt lat="45.09969" lon="0.78929">
        <ele>202.1</ele>
        <time>2022-05-01T07:15:51Z</time>
      </trkpt>
      <trkpt lat="45.09965" lon="0.78912">
        <ele>201.3</ele>
        <time>2022-05-01T07:15:53Z</time>
      </trkpt>
      <trkpt lat="45.09963" lon="0.78902">
        <ele>200.9</ele>
        <time>2022-05-01T07:15:54Z</time>
      </trkpt>
      <trkpt lat="45.0996" lon="0.78891">
        <ele>200.6</ele>
        <time>2022-05-01T07:15:55Z</time>
      </trkpt>
      <trkpt lat="45.09956" lon="0.78871">
        <ele>200.1</ele>
        <time>2022-05-01T07:15:57Z</time>
      </trkpt>
      <trkpt lat="45.09953" lon="0.7886">
        <ele>199.9</ele>
        <time>2022-05-01T07:15:59Z</time>
      </trkpt>
      <trkpt lat="45.09952" lon="0.78855">
        <ele>199.9</ele>
        <time>2022-05-01T07:16:01Z</time>
      </trkpt>
      <trkpt lat="45.0995" lon="0.78854">
        <ele>199.9</ele>
        <time>2022-05-01T07:16:03Z</time>
      </trkpt>
      <trkpt lat="45.09948" lon="0.78856">
        <ele>199.9</ele>
        <time>2022-05-01T07:16:04Z</time>
      </trkpt>
      <trkpt lat="45.09947" lon="0.78858">
        <ele>199.9</ele>
        <time>2022-05-01T07:16:05Z</time>
      </trkpt>
      <trkpt lat="45.09948" lon="0.78862">
        <ele>200.5</ele>
        <time>2022-05-01T07:16:07Z</time>
      </trkpt>
      <trkpt lat="45.09943" lon="0.78867">
        <ele>201.2</ele>
        <time>2022-05-01T07:16:08Z</time>
      </trkpt>
      <trkpt lat="45.09938" lon="0.78871">
        <ele>201.2</ele>
        <time>2022-05-01T07:16:09Z</time>
      </trkpt>
      <trkpt lat="45.09933" lon="0.78876">
        <ele>201.9</ele>
        <time>2022-05-01T07:16:11Z</time>
      </trkpt>
      <trkpt lat="45.09928" lon="0.78883">
        <ele>202.2</ele>
        <time>2022-05-01T07:16:13Z</time>
      </trkpt>
      <trkpt lat="45.09923" lon="0.78889">
        <ele>202.2</ele>
        <time>2022-05-01T07:16:15Z</time>
      </trkpt>
      <trkpt lat="45.0992" lon="0.78892">
        <ele>203.1</ele>
        <time>2022-05-01T07:16:16Z</time>
      </trkpt>
      <trkpt lat="45.09918" lon="0.78895">
        <ele>203.1</ele>
        <time>2022-05-01T07:16:17Z</time>
      </trkpt>
      <trkpt lat="45.09911" lon="0.78898">
        <ele>203.4</ele>
        <time>2022-05-01T07:16:19Z</time>
      </trkpt>
      <trkpt lat="45.09908" lon="0.78898">
        <ele>204</ele>
        <time>2022-05-01T07:16:20Z</time>
      </trkpt>
      <trkpt lat="45.09904" lon="0.78897">
        <ele>204</ele>
        <time>2022-05-01T07:16:21Z</time>
      </trkpt>
      <trkpt lat="45.09898" lon="0.78898">
        <ele>204</ele>
        <time>2022-05-01T07:16:23Z</time>
      </trkpt>
      <trkpt lat="45.09893" lon="0.78898">
        <ele>204.2</ele>
        <time>2022-05-01T07:16:25Z</time>
      </trkpt>
      <trkpt lat="45.09888" lon="0.78898">
        <ele>204.2</ele>
        <time>2022-05-01T07:16:27Z</time>
      </trkpt>
      <trkpt lat="45.09883" lon="0.78899">
        <ele>204.5</ele>
        <time>2022-05-01T07:16:29Z</time>
      </trkpt>
      <trkpt lat="45.09878" lon="0.789">
        <ele>204.5</ele>
        <time>2022-05-01T07:16:31Z</time>
      </trkpt>
      <trkpt lat="45.09874" lon="0.78904">
        <ele>204.5</ele>
        <time>2022-05-01T07:16:33Z</time>
      </trkpt>
      <trkpt lat="45.09871" lon="0.78905">
        <ele>205</ele>
        <time>2022-05-01T07:16:34Z</time>
      </trkpt>
      <trkpt lat="45.09867" lon="0.78907">
        <ele>205</ele>
        <time>2022-05-01T07:16:35Z</time>
      </trkpt>
      <trkpt lat="45.0986" lon="0.78908">
        <ele>206</ele>
        <time>2022-05-01T07:16:37Z</time>
      </trkpt>
      <trkpt lat="45.09855" lon="0.78911">
        <ele>206</ele>
        <time>2022-05-01T07:16:39Z</time>
      </trkpt>
      <trkpt lat="45.09849" lon="0.78913">
        <ele>206.2</ele>
        <time>2022-05-01T07:16:41Z</time>
      </trkpt>
      <trkpt lat="45.09844" lon="0.78914">
        <ele>207.2</ele>
        <time>2022-05-01T07:16:43Z</time>
      </trkpt>
      <trkpt lat="45.09837" lon="0.78915">
        <ele>207.2</ele>
        <time>2022-05-01T07:16:45Z</time>
      </trkpt>
      <trkpt lat="45.09829" lon="0.78917">
        <ele>208.2</ele>
        <time>2022-05-01T07:16:47Z</time>
      </trkpt>
      <trkpt lat="45.09826" lon="0.78918">
        <ele>208.2</ele>
        <time>2022-05-01T07:16:48Z</time>
      </trkpt>
      <trkpt lat="45.09823" lon="0.78918">
        <ele>209.2</ele>
        <time>2022-05-01T07:16:49Z</time>
      </trkpt>
      <trkpt lat="45.09816" lon="0.78921">
        <ele>209.2</ele>
        <time>2022-05-01T07:16:51Z</time>
      </trkpt>
      <trkpt lat="45.09812" lon="0.78922">
        <ele>210.2</ele>
        <time>2022-05-01T07:16:52Z</time>
      </trkpt>
      <trkpt lat="45.09808" lon="0.78923">
        <ele>210.2</ele>
        <time>2022-05-01T07:16:53Z</time>
      </trkpt>
      <trkpt lat="45.09799" lon="0.78925">
        <ele>211.1</ele>
        <time>2022-05-01T07:16:55Z</time>
      </trkpt>
      <trkpt lat="45.09795" lon="0.78925">
        <ele>211.1</ele>
        <time>2022-05-01T07:16:56Z</time>
      </trkpt>
      <trkpt lat="45.09791" lon="0.78924">
        <ele>211.1</ele>
        <time>2022-05-01T07:16:57Z</time>
      </trkpt>
      <trkpt lat="45.09782" lon="0.78924">
        <ele>211.8</ele>
        <time>2022-05-01T07:16:59Z</time>
      </trkpt>
      <trkpt lat="45.09778" lon="0.78922">
        <ele>211.8</ele>
        <time>2022-05-01T07:17:00Z</time>
      </trkpt>
      <trkpt lat="45.09774" lon="0.78922">
        <ele>212.4</ele>
        <time>2022-05-01T07:17:01Z</time>
      </trkpt>
      <trkpt lat="45.09765" lon="0.78922">
        <ele>212.4</ele>
        <time>2022-05-01T07:17:03Z</time>
      </trkpt>
      <trkpt lat="45.09757" lon="0.78921">
        <ele>212.8</ele>
        <time>2022-05-01T07:17:05Z</time>
      </trkpt>
      <trkpt lat="45.09752" lon="0.78921">
        <ele>213</ele>
        <time>2022-05-01T07:17:07Z</time>
      </trkpt>
      <trkpt lat="45.09748" lon="0.78921">
        <ele>213.1</ele>
        <time>2022-05-01T07:17:08Z</time>
      </trkpt>
      <trkpt lat="45.09745" lon="0.78921">
        <ele>213.1</ele>
        <time>2022-05-01T07:17:09Z</time>
      </trkpt>
      <trkpt lat="45.0974" lon="0.78921">
        <ele>213.1</ele>
        <time>2022-05-01T07:17:11Z</time>
      </trkpt>
      <trkpt lat="45.09738" lon="0.78921">
        <ele>213.2</ele>
        <time>2022-05-01T07:17:12Z</time>
      </trkpt>
      <trkpt lat="45.09735" lon="0.78921">
        <ele>213.2</ele>
        <time>2022-05-01T07:17:13Z</time>
      </trkpt>
      <trkpt lat="45.09728" lon="0.78921">
        <ele>213.2</ele>
        <time>2022-05-01T07:17:15Z</time>
      </trkpt>
      <trkpt lat="45.09725" lon="0.78922">
        <ele>213.2</ele>
        <time>2022-05-01T07:17:16Z</time>
      </trkpt>
      <trkpt lat="45.09722" lon="0.78923">
        <ele>213.2</ele>
        <time>2022-05-01T07:17:17Z</time>
      </trkpt>
      <trkpt lat="45.09716" lon="0.78925">
        <ele>213.3</ele>
        <time>2022-05-01T07:17:19Z</time>
      </trkpt>
      <trkpt lat="45.09711" lon="0.78925">
        <ele>213.2</ele>
        <time>2022-05-01T07:17:21Z</time>
      </trkpt>
      <trkpt lat="45.09706" lon="0.78925">
        <ele>213.2</ele>
        <time>2022-05-01T07:17:23Z</time>
      </trkpt>
      <trkpt lat="45.097" lon="0.78926">
        <ele>213.1</ele>
        <time>2022-05-01T07:17:25Z</time>
      </trkpt>
      <trkpt lat="45.09695" lon="0.78928">
        <ele>213.1</ele>
        <time>2022-05-01T07:17:27Z</time>
      </trkpt>
      <trkpt lat="45.09693" lon="0.7893">
        <ele>213.2</ele>
        <time>2022-05-01T07:17:28Z</time>
      </trkpt>
      <trkpt lat="45.0969" lon="0.78931">
        <ele>213.1</ele>
        <time>2022-05-01T07:17:29Z</time>
      </trkpt>
      <trkpt lat="45.09683" lon="0.78935">
        <ele>213.1</ele>
        <time>2022-05-01T07:17:31Z</time>
      </trkpt>
      <trkpt lat="45.09676" lon="0.78938">
        <ele>213</ele>
        <time>2022-05-01T07:17:33Z</time>
      </trkpt>
      <trkpt lat="45.0967" lon="0.78942">
        <ele>213</ele>
        <time>2022-05-01T07:17:35Z</time>
      </trkpt>
      <trkpt lat="45.09667" lon="0.78944">
        <ele>213.2</ele>
        <time>2022-05-01T07:17:36Z</time>
      </trkpt>
      <trkpt lat="45.09665" lon="0.78945">
        <ele>213.2</ele>
        <time>2022-05-01T07:17:37Z</time>
      </trkpt>
      <trkpt lat="45.0966" lon="0.78948">
        <ele>213.5</ele>
        <time>2022-05-01T07:17:39Z</time>
      </trkpt>
      <trkpt lat="45.09658" lon="0.78948">
        <ele>213.5</ele>
        <time>2022-05-01T07:17:40Z</time>
      </trkpt>
      <trkpt lat="45.09657" lon="0.7895">
        <ele>213.5</ele>
        <time>2022-05-01T07:17:41Z</time>
      </trkpt>
      <trkpt lat="45.09652" lon="0.78952">
        <ele>213.8</ele>
        <time>2022-05-01T07:17:43Z</time>
      </trkpt>
      <trkpt lat="45.09649" lon="0.78954">
        <ele>213.9</ele>
        <time>2022-05-01T07:17:44Z</time>
      </trkpt>
      <trkpt lat="45.09645" lon="0.78955">
        <ele>213.9</ele>
        <time>2022-05-01T07:17:45Z</time>
      </trkpt>
      <trkpt lat="45.09639" lon="0.78956">
        <ele>214.5</ele>
        <time>2022-05-01T07:17:47Z</time>
      </trkpt>
      <trkpt lat="45.09633" lon="0.78956">
        <ele>214.5</ele>
        <time>2022-05-01T07:17:49Z</time>
      </trkpt>
      <trkpt lat="45.09626" lon="0.78956">
        <ele>215.2</ele>
        <time>2022-05-01T07:17:51Z</time>
      </trkpt>
      <trkpt lat="45.09623" lon="0.78957">
        <ele>215.2</ele>
        <time>2022-05-01T07:17:52Z</time>
      </trkpt>
      <trkpt lat="45.0962" lon="0.78958">
        <ele>215.2</ele>
        <time>2022-05-01T07:17:53Z</time>
      </trkpt>
      <trkpt lat="45.09616" lon="0.78959">
        <ele>216</ele>
        <time>2022-05-01T07:17:55Z</time>
      </trkpt>
      <trkpt lat="45.09614" lon="0.7896">
        <ele>216</ele>
        <time>2022-05-01T07:17:56Z</time>
      </trkpt>
      <trkpt lat="45.09613" lon="0.7896">
        <ele>216</ele>
        <time>2022-05-01T07:17:57Z</time>
      </trkpt>
      <trkpt lat="45.09609" lon="0.78961">
        <ele>216</ele>
        <time>2022-05-01T07:17:59Z</time>
      </trkpt>
      <trkpt lat="45.09607" lon="0.78962">
        <ele>216</ele>
        <time>2022-05-01T07:18:00Z</time>
      </trkpt>
      <trkpt lat="45.09606" lon="0.78962">
        <ele>216.8</ele>
        <time>2022-05-01T07:18:01Z</time>
      </trkpt>
      <trkpt lat="45.09602" lon="0.78962">
        <ele>216.8</ele>
        <time>2022-05-01T07:18:03Z</time>
      </trkpt>
      <trkpt lat="45.09593" lon="0.78964">
        <ele>217.5</ele>
        <time>2022-05-01T07:18:05Z</time>
      </trkpt>
      <trkpt lat="45.0959" lon="0.78965">
        <ele>217.5</ele>
        <time>2022-05-01T07:18:06Z</time>
      </trkpt>
      <trkpt lat="45.09587" lon="0.78966">
        <ele>217.5</ele>
        <time>2022-05-01T07:18:07Z</time>
      </trkpt>
      <trkpt lat="45.09584" lon="0.78966">
        <ele>217.5</ele>
        <time>2022-05-01T07:18:08Z</time>
      </trkpt>
      <trkpt lat="45.09583" lon="0.78967">
        <ele>217.5</ele>
        <time>2022-05-01T07:18:09Z</time>
      </trkpt>
      <trkpt lat="45.09579" lon="0.78967">
        <ele>218</ele>
        <time>2022-05-01T07:18:11Z</time>
      </trkpt>
      <trkpt lat="45.09574" lon="0.78965">
        <ele>218.1</ele>
        <time>2022-05-01T07:18:13Z</time>
      </trkpt>
      <trkpt lat="45.0955" lon="0.78964">
        <ele>218.8</ele>
        <time>2022-05-01T07:18:20Z</time>
      </trkpt>
      <trkpt lat="45.09548" lon="0.78964">
        <ele>218.8</ele>
        <time>2022-05-01T07:18:21Z</time>
      </trkpt>
      <trkpt lat="45.09544" lon="0.78964">
        <ele>219.2</ele>
        <time>2022-05-01T07:18:23Z</time>
      </trkpt>
      <trkpt lat="45.09536" lon="0.78964">
        <ele>219.2</ele>
        <time>2022-05-01T07:18:25Z</time>
      </trkpt>
      <trkpt lat="45.09526" lon="0.78964">
        <ele>219.7</ele>
        <time>2022-05-01T07:18:27Z</time>
      </trkpt>
      <trkpt lat="45.09519" lon="0.78964">
        <ele>220.1</ele>
        <time>2022-05-01T07:18:28Z</time>
      </trkpt>
      <trkpt lat="45.09513" lon="0.78963">
        <ele>220.1</ele>
        <time>2022-05-01T07:18:29Z</time>
      </trkpt>
      <trkpt lat="45.09502" lon="0.78962">
        <ele>220.5</ele>
        <time>2022-05-01T07:18:31Z</time>
      </trkpt>
      <trkpt lat="45.09493" lon="0.78962">
        <ele>220.7</ele>
        <time>2022-05-01T07:18:33Z</time>
      </trkpt>
      <trkpt lat="45.09482" lon="0.78962">
        <ele>220.9</ele>
        <time>2022-05-01T07:18:35Z</time>
      </trkpt>
      <trkpt lat="45.09472" lon="0.78963">
        <ele>221</ele>
        <time>2022-05-01T07:18:37Z</time>
      </trkpt>
      <trkpt lat="45.09463" lon="0.78964">
        <ele>221</ele>
        <time>2022-05-01T07:18:39Z</time>
      </trkpt>
      <trkpt lat="45.09459" lon="0.78965">
        <ele>220.7</ele>
        <time>2022-05-01T07:18:40Z</time>
      </trkpt>
      <trkpt lat="45.09457" lon="0.78967">
        <ele>220.7</ele>
        <time>2022-05-01T07:18:41Z</time>
      </trkpt>
      <trkpt lat="45.09453" lon="0.78968">
        <ele>220.7</ele>
        <time>2022-05-01T07:18:42Z</time>
      </trkpt>
      <trkpt lat="45.0945" lon="0.78968">
        <ele>220.7</ele>
        <time>2022-05-01T07:18:43Z</time>
      </trkpt>
      <trkpt lat="45.09443" lon="0.7897">
        <ele>220.7</ele>
        <time>2022-05-01T07:18:45Z</time>
      </trkpt>
      <trkpt lat="45.09436" lon="0.78973">
        <ele>220.8</ele>
        <time>2022-05-01T07:18:47Z</time>
      </trkpt>
      <trkpt lat="45.0943" lon="0.78973">
        <ele>220.8</ele>
        <time>2022-05-01T07:18:49Z</time>
      </trkpt>
      <trkpt lat="45.09425" lon="0.78976">
        <ele>220.8</ele>
        <time>2022-05-01T07:18:51Z</time>
      </trkpt>
      <trkpt lat="45.09419" lon="0.78978">
        <ele>221</ele>
        <time>2022-05-01T07:18:53Z</time>
      </trkpt>
      <trkpt lat="45.09414" lon="0.78979">
        <ele>221</ele>
        <time>2022-05-01T07:18:54Z</time>
      </trkpt>
      <trkpt lat="45.09409" lon="0.7898">
        <ele>221.4</ele>
        <time>2022-05-01T07:18:55Z</time>
      </trkpt>
      <trkpt lat="45.09406" lon="0.78984">
        <ele>222</ele>
        <time>2022-05-01T07:18:57Z</time>
      </trkpt>
      <trkpt lat="45.09399" lon="0.78985">
        <ele>222.5</ele>
        <time>2022-05-01T07:18:59Z</time>
      </trkpt>
      <trkpt lat="45.09396" lon="0.78986">
        <ele>222.6</ele>
        <time>2022-05-01T07:19:00Z</time>
      </trkpt>
      <trkpt lat="45.09391" lon="0.78987">
        <ele>222.6</ele>
        <time>2022-05-01T07:19:01Z</time>
      </trkpt>
      <trkpt lat="45.09386" lon="0.7899">
        <ele>223.3</ele>
        <time>2022-05-01T07:19:03Z</time>
      </trkpt>
      <trkpt lat="45.09379" lon="0.78992">
        <ele>223.3</ele>
        <time>2022-05-01T07:19:05Z</time>
      </trkpt>
      <trkpt lat="45.09376" lon="0.78997">
        <ele>223.3</ele>
        <time>2022-05-01T07:19:07Z</time>
      </trkpt>
      <trkpt lat="45.09368" lon="0.78999">
        <ele>225</ele>
        <time>2022-05-01T07:19:09Z</time>
      </trkpt>
      <trkpt lat="45.0936" lon="0.79002">
        <ele>225.8</ele>
        <time>2022-05-01T07:19:11Z</time>
      </trkpt>
      <trkpt lat="45.09357" lon="0.79005">
        <ele>225.8</ele>
        <time>2022-05-01T07:19:13Z</time>
      </trkpt>
      <trkpt lat="45.09356" lon="0.79008">
        <ele>225.8</ele>
        <time>2022-05-01T07:19:14Z</time>
      </trkpt>
      <trkpt lat="45.09352" lon="0.79009">
        <ele>225.9</ele>
        <time>2022-05-01T07:19:15Z</time>
      </trkpt>
      <trkpt lat="45.09347" lon="0.7901">
        <ele>226.7</ele>
        <time>2022-05-01T07:19:17Z</time>
      </trkpt>
      <trkpt lat="45.09343" lon="0.79014">
        <ele>226.7</ele>
        <time>2022-05-01T07:19:19Z</time>
      </trkpt>
      <trkpt lat="45.0934" lon="0.79014">
        <ele>226.7</ele>
        <time>2022-05-01T07:19:21Z</time>
      </trkpt>
      <trkpt lat="45.09335" lon="0.79012">
        <ele>227.6</ele>
        <time>2022-05-01T07:19:23Z</time>
      </trkpt>
      <trkpt lat="45.09328" lon="0.79013">
        <ele>227.6</ele>
        <time>2022-05-01T07:19:25Z</time>
      </trkpt>
      <trkpt lat="45.09324" lon="0.79013">
        <ele>228.3</ele>
        <time>2022-05-01T07:19:26Z</time>
      </trkpt>
      <trkpt lat="45.09321" lon="0.79015">
        <ele>228.3</ele>
        <time>2022-05-01T07:19:27Z</time>
      </trkpt>
      <trkpt lat="45.09317" lon="0.79016">
        <ele>228.3</ele>
        <time>2022-05-01T07:19:28Z</time>
      </trkpt>
      <trkpt lat="45.09313" lon="0.79017">
        <ele>229</ele>
        <time>2022-05-01T07:19:29Z</time>
      </trkpt>
      <trkpt lat="45.09303" lon="0.7902">
        <ele>229.3</ele>
        <time>2022-05-01T07:19:31Z</time>
      </trkpt>
      <trkpt lat="45.09297" lon="0.79023">
        <ele>229.3</ele>
        <time>2022-05-01T07:19:33Z</time>
      </trkpt>
      <trkpt lat="45.09293" lon="0.79026">
        <ele>229.3</ele>
        <time>2022-05-01T07:19:35Z</time>
      </trkpt>
      <trkpt lat="45.09287" lon="0.79029">
        <ele>229.7</ele>
        <time>2022-05-01T07:19:37Z</time>
      </trkpt>
      <trkpt lat="45.09283" lon="0.7903">
        <ele>229.8</ele>
        <time>2022-05-01T07:19:38Z</time>
      </trkpt>
      <trkpt lat="45.0928" lon="0.79032">
        <ele>229.8</ele>
        <time>2022-05-01T07:19:39Z</time>
      </trkpt>
      <trkpt lat="45.09275" lon="0.79035">
        <ele>231.8</ele>
        <time>2022-05-01T07:19:41Z</time>
      </trkpt>
      <trkpt lat="45.09273" lon="0.79039">
        <ele>231.8</ele>
        <time>2022-05-01T07:19:43Z</time>
      </trkpt>
      <trkpt lat="45.09274" lon="0.79041">
        <ele>231.8</ele>
        <time>2022-05-01T07:19:44Z</time>
      </trkpt>
      <trkpt lat="45.09272" lon="0.79043">
        <ele>231.9</ele>
        <time>2022-05-01T07:19:45Z</time>
      </trkpt>
      <trkpt lat="45.09272" lon="0.79047">
        <ele>231.9</ele>
        <time>2022-05-01T07:19:46Z</time>
      </trkpt>
      <trkpt lat="45.09269" lon="0.79048">
        <ele>231.9</ele>
        <time>2022-05-01T07:19:47Z</time>
      </trkpt>
      <trkpt lat="45.09267" lon="0.79053">
        <ele>233.7</ele>
        <time>2022-05-01T07:19:49Z</time>
      </trkpt>
      <trkpt lat="45.09266" lon="0.79055">
        <ele>233.7</ele>
        <time>2022-05-01T07:19:50Z</time>
      </trkpt>
      <trkpt lat="45.09266" lon="0.79057">
        <ele>233.7</ele>
        <time>2022-05-01T07:19:51Z</time>
      </trkpt>
      <trkpt lat="45.09265" lon="0.7906">
        <ele>233.7</ele>
        <time>2022-05-01T07:19:52Z</time>
      </trkpt>
      <trkpt lat="45.09261" lon="0.79061">
        <ele>233.7</ele>
        <time>2022-05-01T07:19:53Z</time>
      </trkpt>
      <trkpt lat="45.09253" lon="0.79064">
        <ele>234.4</ele>
        <time>2022-05-01T07:19:55Z</time>
      </trkpt>
      <trkpt lat="45.09246" lon="0.79066">
        <ele>234.5</ele>
        <time>2022-05-01T07:19:57Z</time>
      </trkpt>
      <trkpt lat="45.09244" lon="0.79068">
        <ele>235.3</ele>
        <time>2022-05-01T07:19:58Z</time>
      </trkpt>
      <trkpt lat="45.09242" lon="0.79071">
        <ele>235.7</ele>
        <time>2022-05-01T07:19:59Z</time>
      </trkpt>
      <trkpt lat="45.09235" lon="0.79074">
        <ele>235.7</ele>
        <time>2022-05-01T07:20:01Z</time>
      </trkpt>
      <trkpt lat="45.09233" lon="0.79076">
        <ele>235.7</ele>
        <time>2022-05-01T07:20:02Z</time>
      </trkpt>
      <trkpt lat="45.09229" lon="0.79078">
        <ele>236</ele>
        <time>2022-05-01T07:20:03Z</time>
      </trkpt>
      <trkpt lat="45.09222" lon="0.79082">
        <ele>236</ele>
        <time>2022-05-01T07:20:05Z</time>
      </trkpt>
      <trkpt lat="45.0922" lon="0.79084">
        <ele>236</ele>
        <time>2022-05-01T07:20:06Z</time>
      </trkpt>
      <trkpt lat="45.0922" lon="0.79086">
        <ele>237.2</ele>
        <time>2022-05-01T07:20:07Z</time>
      </trkpt>
      <trkpt lat="45.0922" lon="0.79088">
        <ele>237.2</ele>
        <time>2022-05-01T07:20:08Z</time>
      </trkpt>
      <trkpt lat="45.09218" lon="0.7909">
        <ele>237.2</ele>
        <time>2022-05-01T07:20:09Z</time>
      </trkpt>
      <trkpt lat="45.09216" lon="0.79092">
        <ele>237.2</ele>
        <time>2022-05-01T07:20:10Z</time>
      </trkpt>
      <trkpt lat="45.09213" lon="0.79093">
        <ele>237.2</ele>
        <time>2022-05-01T07:20:11Z</time>
      </trkpt>
      <trkpt lat="45.09207" lon="0.79095">
        <ele>237.2</ele>
        <time>2022-05-01T07:20:13Z</time>
      </trkpt>
      <trkpt lat="45.09198" lon="0.79096">
        <ele>237.3</ele>
        <time>2022-05-01T07:20:15Z</time>
      </trkpt>
      <trkpt lat="45.09194" lon="0.79098">
        <ele>237.6</ele>
        <time>2022-05-01T07:20:17Z</time>
      </trkpt>
      <trkpt lat="45.09188" lon="0.79101">
        <ele>237.6</ele>
        <time>2022-05-01T07:20:19Z</time>
      </trkpt>
      <trkpt lat="45.09186" lon="0.79101">
        <ele>237.6</ele>
        <time>2022-05-01T07:20:20Z</time>
      </trkpt>
      <trkpt lat="45.09183" lon="0.79101">
        <ele>237.6</ele>
        <time>2022-05-01T07:20:21Z</time>
      </trkpt>
      <trkpt lat="45.09175" lon="0.79102">
        <ele>238.7</ele>
        <time>2022-05-01T07:20:23Z</time>
      </trkpt>
      <trkpt lat="45.09172" lon="0.79102">
        <ele>238.7</ele>
        <time>2022-05-01T07:20:24Z</time>
      </trkpt>
      <trkpt lat="45.09169" lon="0.79103">
        <ele>238.6</ele>
        <time>2022-05-01T07:20:25Z</time>
      </trkpt>
      <trkpt lat="45.09162" lon="0.79104">
        <ele>238.6</ele>
        <time>2022-05-01T07:20:27Z</time>
      </trkpt>
      <trkpt lat="45.09158" lon="0.79105">
        <ele>238.6</ele>
        <time>2022-05-01T07:20:29Z</time>
      </trkpt>
      <trkpt lat="45.09155" lon="0.79107">
        <ele>238.7</ele>
        <time>2022-05-01T07:20:31Z</time>
      </trkpt>
      <trkpt lat="45.09154" lon="0.79111">
        <ele>238.7</ele>
        <time>2022-05-01T07:20:33Z</time>
      </trkpt>
      <trkpt lat="45.0915" lon="0.79114">
        <ele>238.7</ele>
        <time>2022-05-01T07:20:35Z</time>
      </trkpt>
      <trkpt lat="45.09148" lon="0.79115">
        <ele>238.7</ele>
        <time>2022-05-01T07:20:37Z</time>
      </trkpt>
      <trkpt lat="45.09145" lon="0.79116">
        <ele>238.8</ele>
        <time>2022-05-01T07:20:38Z</time>
      </trkpt>
      <trkpt lat="45.09142" lon="0.79115">
        <ele>238.8</ele>
        <time>2022-05-01T07:20:39Z</time>
      </trkpt>
      <trkpt lat="45.09138" lon="0.79116">
        <ele>238.8</ele>
        <time>2022-05-01T07:20:41Z</time>
      </trkpt>
      <trkpt lat="45.09137" lon="0.79118">
        <ele>238.8</ele>
        <time>2022-05-01T07:20:43Z</time>
      </trkpt>
      <trkpt lat="45.09137" lon="0.79119">
        <ele>239.7</ele>
        <time>2022-05-01T07:20:44Z</time>
      </trkpt>
      <trkpt lat="45.09137" lon="0.7912">
        <ele>239.7</ele>
        <time>2022-05-01T07:20:45Z</time>
      </trkpt>
      <trkpt lat="45.09136" lon="0.79121">
        <ele>239.7</ele>
        <time>2022-05-01T07:20:47Z</time>
      </trkpt>
      <trkpt lat="45.09132" lon="0.79121">
        <ele>239.8</ele>
        <time>2022-05-01T07:20:49Z</time>
      </trkpt>
      <trkpt lat="45.09129" lon="0.79122">
        <ele>239.8</ele>
        <time>2022-05-01T07:20:51Z</time>
      </trkpt>
      <trkpt lat="45.09126" lon="0.79123">
        <ele>239.8</ele>
        <time>2022-05-01T07:20:53Z</time>
      </trkpt>
      <trkpt lat="45.09122" lon="0.79125">
        <ele>239.8</ele>
        <time>2022-05-01T07:20:55Z</time>
      </trkpt>
      <trkpt lat="45.09115" lon="0.79125">
        <ele>240</ele>
        <time>2022-05-01T07:20:57Z</time>
      </trkpt>
      <trkpt lat="45.09112" lon="0.79128">
        <ele>240</ele>
        <time>2022-05-01T07:20:59Z</time>
      </trkpt>
      <trkpt lat="45.09106" lon="0.79128">
        <ele>240.2</ele>
        <time>2022-05-01T07:21:01Z</time>
      </trkpt>
      <trkpt lat="45.09103" lon="0.79129">
        <ele>240.2</ele>
        <time>2022-05-01T07:21:03Z</time>
      </trkpt>
      <trkpt lat="45.09102" lon="0.79129">
        <ele>240.2</ele>
        <time>2022-05-01T07:21:04Z</time>
      </trkpt>
      <trkpt lat="45.09101" lon="0.7913">
        <ele>240.2</ele>
        <time>2022-05-01T07:21:05Z</time>
      </trkpt>
      <trkpt lat="45.09097" lon="0.79131">
        <ele>240.4</ele>
        <time>2022-05-01T07:21:07Z</time>
      </trkpt>
      <trkpt lat="45.09087" lon="0.79132">
        <ele>240.4</ele>
        <time>2022-05-01T07:21:09Z</time>
      </trkpt>
      <trkpt lat="45.0908" lon="0.79135">
        <ele>240.6</ele>
        <time>2022-05-01T07:21:11Z</time>
      </trkpt>
      <trkpt lat="45.09074" lon="0.79138">
        <ele>241.3</ele>
        <time>2022-05-01T07:21:13Z</time>
      </trkpt>
      <trkpt lat="45.09068" lon="0.79143">
        <ele>241.5</ele>
        <time>2022-05-01T07:21:15Z</time>
      </trkpt>
      <trkpt lat="45.09064" lon="0.79145">
        <ele>241.5</ele>
        <time>2022-05-01T07:21:16Z</time>
      </trkpt>
      <trkpt lat="45.09061" lon="0.79146">
        <ele>241.5</ele>
        <time>2022-05-01T07:21:17Z</time>
      </trkpt>
      <trkpt lat="45.09055" lon="0.7915">
        <ele>241.5</ele>
        <time>2022-05-01T07:21:19Z</time>
      </trkpt>
      <trkpt lat="45.09048" lon="0.79153">
        <ele>241.5</ele>
        <time>2022-05-01T07:21:21Z</time>
      </trkpt>
      <trkpt lat="45.0904" lon="0.79155">
        <ele>242.2</ele>
        <time>2022-05-01T07:21:23Z</time>
      </trkpt>
      <trkpt lat="45.09037" lon="0.79157">
        <ele>242.1</ele>
        <time>2022-05-01T07:21:24Z</time>
      </trkpt>
      <trkpt lat="45.09034" lon="0.79159">
        <ele>242.1</ele>
        <time>2022-05-01T07:21:25Z</time>
      </trkpt>
      <trkpt lat="45.09028" lon="0.79163">
        <ele>242.1</ele>
        <time>2022-05-01T07:21:27Z</time>
      </trkpt>
      <trkpt lat="45.09022" lon="0.79168">
        <ele>242</ele>
        <time>2022-05-01T07:21:29Z</time>
      </trkpt>
      <trkpt lat="45.0902" lon="0.79171">
        <ele>243</ele>
        <time>2022-05-01T07:21:30Z</time>
      </trkpt>
      <trkpt lat="45.09017" lon="0.79174">
        <ele>243</ele>
        <time>2022-05-01T07:21:31Z</time>
      </trkpt>
      <trkpt lat="45.09012" lon="0.79178">
        <ele>243</ele>
        <time>2022-05-01T07:21:33Z</time>
      </trkpt>
      <trkpt lat="45.09008" lon="0.79181">
        <ele>243</ele>
        <time>2022-05-01T07:21:35Z</time>
      </trkpt>
      <trkpt lat="45.09006" lon="0.79183">
        <ele>243</ele>
        <time>2022-05-01T07:21:36Z</time>
      </trkpt>
      <trkpt lat="45.09004" lon="0.79184">
        <ele>243</ele>
        <time>2022-05-01T07:21:37Z</time>
      </trkpt>
      <trkpt lat="45.09001" lon="0.79187">
        <ele>243</ele>
        <time>2022-05-01T07:21:39Z</time>
      </trkpt>
      <trkpt lat="45.08998" lon="0.79191">
        <ele>244</ele>
        <time>2022-05-01T07:21:41Z</time>
      </trkpt>
      <trkpt lat="45.08997" lon="0.79192">
        <ele>244</ele>
        <time>2022-05-01T07:21:42Z</time>
      </trkpt>
      <trkpt lat="45.08995" lon="0.79193">
        <ele>244</ele>
        <time>2022-05-01T07:21:43Z</time>
      </trkpt>
      <trkpt lat="45.08993" lon="0.79195">
        <ele>244</ele>
        <time>2022-05-01T07:21:45Z</time>
      </trkpt>
      <trkpt lat="45.08992" lon="0.7922">
        <ele>244.9</ele>
        <time>2022-05-01T07:21:47Z</time>
      </trkpt>
      <trkpt lat="45.08988" lon="0.7922">
        <ele>245</ele>
        <time>2022-05-01T07:21:49Z</time>
      </trkpt>
      <trkpt lat="45.08984" lon="0.7922">
        <ele>245</ele>
        <time>2022-05-01T07:21:51Z</time>
      </trkpt>
      <trkpt lat="45.08984" lon="0.7922">
        <ele>245</ele>
        <time>2022-05-01T07:21:53Z</time>
      </trkpt>
      <trkpt lat="45.08977" lon="0.79217">
        <ele>245</ele>
        <time>2022-05-01T07:21:55Z</time>
      </trkpt>
      <trkpt lat="45.08971" lon="0.79215">
        <ele>245.1</ele>
        <time>2022-05-01T07:21:57Z</time>
      </trkpt>
      <trkpt lat="45.0897" lon="0.79215">
        <ele>245.1</ele>
        <time>2022-05-01T07:21:58Z</time>
      </trkpt>
      <trkpt lat="45.08968" lon="0.79214">
        <ele>245.2</ele>
        <time>2022-05-01T07:21:59Z</time>
      </trkpt>
      <trkpt lat="45.08955" lon="0.79214">
        <ele>245.3</ele>
        <time>2022-05-01T07:22:01Z</time>
      </trkpt>
      <trkpt lat="45.08955" lon="0.79216">
        <ele>245.3</ele>
        <time>2022-05-01T07:22:02Z</time>
      </trkpt>
      <trkpt lat="45.08954" lon="0.79217">
        <ele>245.4</ele>
        <time>2022-05-01T07:22:03Z</time>
      </trkpt>
      <trkpt lat="45.08954" lon="0.79217">
        <ele>245.4</ele>
        <time>2022-05-01T07:22:04Z</time>
      </trkpt>
      <trkpt lat="45.08962" lon="0.79212">
        <ele>245.5</ele>
        <time>2022-05-01T07:22:05Z</time>
      </trkpt>
      <trkpt lat="45.0896" lon="0.79211">
        <ele>245.5</ele>
        <time>2022-05-01T07:22:07Z</time>
      </trkpt>
      <trkpt lat="45.08958" lon="0.7921">
        <ele>245.5</ele>
        <time>2022-05-01T07:22:09Z</time>
      </trkpt>
      <trkpt lat="45.08956" lon="0.79209">
        <ele>245.5</ele>
        <time>2022-05-01T07:22:11Z</time>
      </trkpt>
      <trkpt lat="45.08954" lon="0.79207">
        <ele>245.5</ele>
        <time>2022-05-01T07:22:13Z</time>
      </trkpt>
      <trkpt lat="45.08952" lon="0.79206">
        <ele>245.6</ele>
        <time>2022-05-01T07:22:14Z</time>
      </trkpt>
      <trkpt lat="45.08951" lon="0.79205">
        <ele>245.6</ele>
        <time>2022-05-01T07:22:15Z</time>
      </trkpt>
      <trkpt lat="45.08949" lon="0.79204">
        <ele>245.6</ele>
        <time>2022-05-01T07:22:17Z</time>
      </trkpt>
      <trkpt lat="45.08945" lon="0.79201">
        <ele>245.6</ele>
        <time>2022-05-01T07:22:19Z</time>
      </trkpt>
      <trkpt lat="45.08941" lon="0.79199">
        <ele>245.6</ele>
        <time>2022-05-01T07:22:21Z</time>
      </trkpt>
      <trkpt lat="45.08936" lon="0.79196">
        <ele>245.7</ele>
        <time>2022-05-01T07:22:23Z</time>
      </trkpt>
      <trkpt lat="45.08932" lon="0.79194">
        <ele>245.8</ele>
        <time>2022-05-01T07:22:25Z</time>
      </trkpt>
      <trkpt lat="45.08928" lon="0.79193">
        <ele>245.9</ele>
        <time>2022-05-01T07:22:27Z</time>
      </trkpt>
      <trkpt lat="45.08923" lon="0.79191">
        <ele>246</ele>
        <time>2022-05-01T07:22:29Z</time>
      </trkpt>
      <trkpt lat="45.08919" lon="0.79189">
        <ele>246.1</ele>
        <time>2022-05-01T07:22:31Z</time>
      </trkpt>
      <trkpt lat="45.08917" lon="0.79188">
        <ele>246.2</ele>
        <time>2022-05-01T07:22:32Z</time>
      </trkpt>
      <trkpt lat="45.08915" lon="0.79188">
        <ele>246.2</ele>
        <time>2022-05-01T07:22:33Z</time>
      </trkpt>
      <trkpt lat="45.08913" lon="0.79187">
        <ele>246.3</ele>
        <time>2022-05-01T07:22:35Z</time>
      </trkpt>
      <trkpt lat="45.08911" lon="0.79186">
        <ele>246.4</ele>
        <time>2022-05-01T07:22:36Z</time>
      </trkpt>
      <trkpt lat="45.0891" lon="0.79186">
        <ele>246.4</ele>
        <time>2022-05-01T07:22:37Z</time>
      </trkpt>
      <trkpt lat="45.08906" lon="0.79184">
        <ele>246.5</ele>
        <time>2022-05-01T07:22:39Z</time>
      </trkpt>
      <trkpt lat="45.08904" lon="0.79183">
        <ele>246.6</ele>
        <time>2022-05-01T07:22:40Z</time>
      </trkpt>
      <trkpt lat="45.08901" lon="0.79182">
        <ele>246.7</ele>
        <time>2022-05-01T07:22:41Z</time>
      </trkpt>
      <trkpt lat="45.08896" lon="0.7918">
        <ele>246.8</ele>
        <time>2022-05-01T07:22:43Z</time>
      </trkpt>
      <trkpt lat="45.08894" lon="0.7918">
        <ele>246.9</ele>
        <time>2022-05-01T07:22:44Z</time>
      </trkpt>
      <trkpt lat="45.08892" lon="0.79179">
        <ele>247</ele>
        <time>2022-05-01T07:22:45Z</time>
      </trkpt>
      <trkpt lat="45.0889" lon="0.79179">
        <ele>247</ele>
        <time>2022-05-01T07:22:46Z</time>
      </trkpt>
      <trkpt lat="45.08889" lon="0.79178">
        <ele>247.1</ele>
        <time>2022-05-01T07:22:47Z</time>
      </trkpt>
      <trkpt lat="45.08884" lon="0.79177">
        <ele>247.2</ele>
        <time>2022-05-01T07:22:49Z</time>
      </trkpt>
      <trkpt lat="45.08878" lon="0.79176">
        <ele>247.4</ele>
        <time>2022-05-01T07:22:51Z</time>
      </trkpt>
      <trkpt lat="45.08875" lon="0.79176">
        <ele>247.4</ele>
        <time>2022-05-01T07:22:53Z</time>
      </trkpt>
      <trkpt lat="45.08875" lon="0.79176">
        <ele>247.5</ele>
        <time>2022-05-01T07:22:54Z</time>
      </trkpt>
      <trkpt lat="45.08875" lon="0.79176">
        <ele>247.5</ele>
        <time>2022-05-01T07:22:55Z</time>
      </trkpt>
      <trkpt lat="45.08872" lon="0.79167">
        <ele>247.6</ele>
        <time>2022-05-01T07:22:57Z</time>
      </trkpt>
      <trkpt lat="45.0887" lon="0.79156">
        <ele>247.6</ele>
        <time>2022-05-01T07:22:59Z</time>
      </trkpt>
      <trkpt lat="45.08867" lon="0.79149">
        <ele>247.6</ele>
        <time>2022-05-01T07:23:00Z</time>
      </trkpt>
      <trkpt lat="45.08865" lon="0.79142">
        <ele>247.6</ele>
        <time>2022-05-01T07:23:01Z</time>
      </trkpt>
      <trkpt lat="45.08863" lon="0.79135">
        <ele>246.8</ele>
        <time>2022-05-01T07:23:02Z</time>
      </trkpt>
      <trkpt lat="45.08862" lon="0.79128">
        <ele>246.8</ele>
        <time>2022-05-01T07:23:03Z</time>
      </trkpt>
      <trkpt lat="45.08861" lon="0.7912">
        <ele>246.8</ele>
        <time>2022-05-01T07:23:04Z</time>
      </trkpt>
      <trkpt lat="45.08859" lon="0.79111">
        <ele>245.8</ele>
        <time>2022-05-01T07:23:05Z</time>
      </trkpt>
      <trkpt lat="45.08856" lon="0.79093">
        <ele>244.8</ele>
        <time>2022-05-01T07:23:07Z</time>
      </trkpt>
      <trkpt lat="45.08855" lon="0.79083">
        <ele>244.5</ele>
        <time>2022-05-01T07:23:08Z</time>
      </trkpt>
      <trkpt lat="45.08854" lon="0.79074">
        <ele>244.5</ele>
        <time>2022-05-01T07:23:09Z</time>
      </trkpt>
      <trkpt lat="45.08851" lon="0.79054">
        <ele>243.6</ele>
        <time>2022-05-01T07:23:11Z</time>
      </trkpt>
      <trkpt lat="45.08846" lon="0.79034">
        <ele>242.6</ele>
        <time>2022-05-01T07:23:13Z</time>
      </trkpt>
      <trkpt lat="45.08838" lon="0.79018">
        <ele>242.4</ele>
        <time>2022-05-01T07:23:15Z</time>
      </trkpt>
      <trkpt lat="45.08835" lon="0.79011">
        <ele>242.2</ele>
        <time>2022-05-01T07:23:16Z</time>
      </trkpt>
      <trkpt lat="45.08832" lon="0.79003">
        <ele>242.2</ele>
        <time>2022-05-01T07:23:17Z</time>
      </trkpt>
      <trkpt lat="45.0883" lon="0.78996">
        <ele>243.1</ele>
        <time>2022-05-01T07:23:18Z</time>
      </trkpt>
      <trkpt lat="45.08828" lon="0.78988">
        <ele>243.1</ele>
        <time>2022-05-01T07:23:19Z</time>
      </trkpt>
      <trkpt lat="45.08827" lon="0.78979">
        <ele>243.8</ele>
        <time>2022-05-01T07:23:20Z</time>
      </trkpt>
      <trkpt lat="45.08827" lon="0.78972">
        <ele>243.8</ele>
        <time>2022-05-01T07:23:21Z</time>
      </trkpt>
      <trkpt lat="45.0883" lon="0.78956">
        <ele>244.5</ele>
        <time>2022-05-01T07:23:23Z</time>
      </trkpt>
      <trkpt lat="45.08831" lon="0.78949">
        <ele>244.5</ele>
        <time>2022-05-01T07:23:24Z</time>
      </trkpt>
      <trkpt lat="45.08831" lon="0.78943">
        <ele>244.8</ele>
        <time>2022-05-01T07:23:25Z</time>
      </trkpt>
      <trkpt lat="45.08832" lon="0.78931">
        <ele>244.8</ele>
        <time>2022-05-01T07:23:27Z</time>
      </trkpt>
      <trkpt lat="45.08833" lon="0.7892">
        <ele>245.7</ele>
        <time>2022-05-01T07:23:29Z</time>
      </trkpt>
      <trkpt lat="45.08833" lon="0.78915">
        <ele>245.7</ele>
        <time>2022-05-01T07:23:30Z</time>
      </trkpt>
      <trkpt lat="45.08834" lon="0.7891">
        <ele>246.8</ele>
        <time>2022-05-01T07:23:31Z</time>
      </trkpt>
      <trkpt lat="45.08836" lon="0.78907">
        <ele>246.8</ele>
        <time>2022-05-01T07:23:32Z</time>
      </trkpt>
      <trkpt lat="45.08838" lon="0.78904">
        <ele>246.8</ele>
        <time>2022-05-01T07:23:33Z</time>
      </trkpt>
      <trkpt lat="45.0884" lon="0.78903">
        <ele>246.8</ele>
        <time>2022-05-01T07:23:34Z</time>
      </trkpt>
      <trkpt lat="45.08842" lon="0.78902">
        <ele>246.8</ele>
        <time>2022-05-01T07:23:35Z</time>
      </trkpt>
      <trkpt lat="45.08845" lon="0.78902">
        <ele>246.2</ele>
        <time>2022-05-01T07:23:36Z</time>
      </trkpt>
      <trkpt lat="45.08848" lon="0.78902">
        <ele>246.2</ele>
        <time>2022-05-01T07:23:37Z</time>
      </trkpt>
      <trkpt lat="45.08853" lon="0.78902">
        <ele>246.2</ele>
        <time>2022-05-01T07:23:39Z</time>
      </trkpt>
      <trkpt lat="45.08859" lon="0.78902">
        <ele>245.5</ele>
        <time>2022-05-01T07:23:41Z</time>
      </trkpt>
      <trkpt lat="45.08867" lon="0.78901">
        <ele>245.5</ele>
        <time>2022-05-01T07:23:43Z</time>
      </trkpt>
      <trkpt lat="45.08874" lon="0.78901">
        <ele>244.8</ele>
        <time>2022-05-01T07:23:45Z</time>
      </trkpt>
      <trkpt lat="45.08881" lon="0.789">
        <ele>243.9</ele>
        <time>2022-05-01T07:23:47Z</time>
      </trkpt>
      <trkpt lat="45.08888" lon="0.789">
        <ele>243.9</ele>
        <time>2022-05-01T07:23:49Z</time>
      </trkpt>
      <trkpt lat="45.08895" lon="0.78901">
        <ele>243</ele>
        <time>2022-05-01T07:23:51Z</time>
      </trkpt>
      <trkpt lat="45.08902" lon="0.78902">
        <ele>243</ele>
        <time>2022-05-01T07:23:53Z</time>
      </trkpt>
      <trkpt lat="45.08909" lon="0.78905">
        <ele>242.3</ele>
        <time>2022-05-01T07:23:55Z</time>
      </trkpt>
      <trkpt lat="45.08915" lon="0.78906">
        <ele>242.3</ele>
        <time>2022-05-01T07:23:57Z</time>
      </trkpt>
      <trkpt lat="45.0892" lon="0.78905">
        <ele>241.8</ele>
        <time>2022-05-01T07:23:59Z</time>
      </trkpt>
      <trkpt lat="45.08922" lon="0.78898">
        <ele>241.8</ele>
        <time>2022-05-01T07:24:01Z</time>
      </trkpt>
      <trkpt lat="45.08923" lon="0.7889">
        <ele>242.3</ele>
        <time>2022-05-01T07:24:03Z</time>
      </trkpt>
      <trkpt lat="45.08923" lon="0.78882">
        <ele>242.3</ele>
        <time>2022-05-01T07:24:05Z</time>
      </trkpt>
      <trkpt lat="45.08923" lon="0.78878">
        <ele>242.7</ele>
        <time>2022-05-01T07:24:06Z</time>
      </trkpt>
      <trkpt lat="45.08924" lon="0.78875">
        <ele>242.7</ele>
        <time>2022-05-01T07:24:07Z</time>
      </trkpt>
      <trkpt lat="45.08925" lon="0.78866">
        <ele>242.7</ele>
        <time>2022-05-01T07:24:09Z</time>
      </trkpt>
      <trkpt lat="45.08926" lon="0.78861">
        <ele>242.6</ele>
        <time>2022-05-01T07:24:10Z</time>
      </trkpt>
      <trkpt lat="45.08926" lon="0.78857">
        <ele>243</ele>
        <time>2022-05-01T07:24:11Z</time>
      </trkpt>
      <trkpt lat="45.08927" lon="0.78847">
        <ele>243</ele>
        <time>2022-05-01T07:24:13Z</time>
      </trkpt>
      <trkpt lat="45.08927" lon="0.78835">
        <ele>243.4</ele>
        <time>2022-05-01T07:24:15Z</time>
      </trkpt>
      <trkpt lat="45.08928" lon="0.78824">
        <ele>242.4</ele>
        <time>2022-05-01T07:24:17Z</time>
      </trkpt>
      <trkpt lat="45.08929" lon="0.78812">
        <ele>242.3</ele>
        <time>2022-05-01T07:24:19Z</time>
      </trkpt>
      <trkpt lat="45.08927" lon="0.78801">
        <ele>244.4</ele>
        <time>2022-05-01T07:24:21Z</time>
      </trkpt>
      <trkpt lat="45.08926" lon="0.78795">
        <ele>244.4</ele>
        <time>2022-05-01T07:24:22Z</time>
      </trkpt>
      <trkpt lat="45.08923" lon="0.78791">
        <ele>244.9</ele>
        <time>2022-05-01T07:24:23Z</time>
      </trkpt>
      <trkpt lat="45.08921" lon="0.78787">
        <ele>244.9</ele>
        <time>2022-05-01T07:24:24Z</time>
      </trkpt>
      <trkpt lat="45.08919" lon="0.78783">
        <ele>244.9</ele>
        <time>2022-05-01T07:24:25Z</time>
      </trkpt>
      <trkpt lat="45.08916" lon="0.78774">
        <ele>247.2</ele>
        <time>2022-05-01T07:24:27Z</time>
      </trkpt>
      <trkpt lat="45.08914" lon="0.7877">
        <ele>247.1</ele>
        <time>2022-05-01T07:24:28Z</time>
      </trkpt>
      <trkpt lat="45.08913" lon="0.78765">
        <ele>247.1</ele>
        <time>2022-05-01T07:24:29Z</time>
      </trkpt>
      <trkpt lat="45.08911" lon="0.7876">
        <ele>247.1</ele>
        <time>2022-05-01T07:24:30Z</time>
      </trkpt>
      <trkpt lat="45.08909" lon="0.78756">
        <ele>247.6</ele>
        <time>2022-05-01T07:24:31Z</time>
      </trkpt>
      <trkpt lat="45.08907" lon="0.78751">
        <ele>247.6</ele>
        <time>2022-05-01T07:24:32Z</time>
      </trkpt>
      <trkpt lat="45.08905" lon="0.78745">
        <ele>247.6</ele>
        <time>2022-05-01T07:24:33Z</time>
      </trkpt>
      <trkpt lat="45.08902" lon="0.78734">
        <ele>248.9</ele>
        <time>2022-05-01T07:24:35Z</time>
      </trkpt>
      <trkpt lat="45.08899" lon="0.78724">
        <ele>248.9</ele>
        <time>2022-05-01T07:24:37Z</time>
      </trkpt>
      <trkpt lat="45.08894" lon="0.78714">
        <ele>248.8</ele>
        <time>2022-05-01T07:24:39Z</time>
      </trkpt>
      <trkpt lat="45.08888" lon="0.78703">
        <ele>249.5</ele>
        <time>2022-05-01T07:24:41Z</time>
      </trkpt>
      <trkpt lat="45.08887" lon="0.78696">
        <ele>249.4</ele>
        <time>2022-05-01T07:24:42Z</time>
      </trkpt>
      <trkpt lat="45.08886" lon="0.78688">
        <ele>249.2</ele>
        <time>2022-05-01T07:24:43Z</time>
      </trkpt>
      <trkpt lat="45.08889" lon="0.78674">
        <ele>249.2</ele>
        <time>2022-05-01T07:24:45Z</time>
      </trkpt>
      <trkpt lat="45.08895" lon="0.78664">
        <ele>248.3</ele>
        <time>2022-05-01T07:24:47Z</time>
      </trkpt>
      <trkpt lat="45.089" lon="0.78662">
        <ele>248.3</ele>
        <time>2022-05-01T07:24:48Z</time>
      </trkpt>
      <trkpt lat="45.08905" lon="0.78661">
        <ele>247.6</ele>
        <time>2022-05-01T07:24:49Z</time>
      </trkpt>
      <trkpt lat="45.08914" lon="0.78659">
        <ele>247.6</ele>
        <time>2022-05-01T07:24:51Z</time>
      </trkpt>
      <trkpt lat="45.08924" lon="0.78654">
        <ele>246.5</ele>
        <time>2022-05-01T07:24:53Z</time>
      </trkpt>
      <trkpt lat="45.08929" lon="0.78649">
        <ele>245.2</ele>
        <time>2022-05-01T07:24:54Z</time>
      </trkpt>
      <trkpt lat="45.08933" lon="0.78644">
        <ele>245.2</ele>
        <time>2022-05-01T07:24:55Z</time>
      </trkpt>
      <trkpt lat="45.08941" lon="0.78634">
        <ele>243.5</ele>
        <time>2022-05-01T07:24:57Z</time>
      </trkpt>
      <trkpt lat="45.08946" lon="0.7863">
        <ele>243.5</ele>
        <time>2022-05-01T07:24:58Z</time>
      </trkpt>
      <trkpt lat="45.08951" lon="0.78625">
        <ele>243.5</ele>
        <time>2022-05-01T07:24:59Z</time>
      </trkpt>
      <trkpt lat="45.08956" lon="0.7862">
        <ele>242</ele>
        <time>2022-05-01T07:25:00Z</time>
      </trkpt>
      <trkpt lat="45.08962" lon="0.78617">
        <ele>242</ele>
        <time>2022-05-01T07:25:01Z</time>
      </trkpt>
      <trkpt lat="45.08974" lon="0.78612">
        <ele>240.9</ele>
        <time>2022-05-01T07:25:03Z</time>
      </trkpt>
      <trkpt lat="45.08987" lon="0.78608">
        <ele>239.9</ele>
        <time>2022-05-01T07:25:05Z</time>
      </trkpt>
      <trkpt lat="45.09" lon="0.78603">
        <ele>239.1</ele>
        <time>2022-05-01T07:25:07Z</time>
      </trkpt>
      <trkpt lat="45.09006" lon="0.78599">
        <ele>238.5</ele>
        <time>2022-05-01T07:25:08Z</time>
      </trkpt>
      <trkpt lat="45.09011" lon="0.78594">
        <ele>238.5</ele>
        <time>2022-05-01T07:25:09Z</time>
      </trkpt>
      <trkpt lat="45.09021" lon="0.78582">
        <ele>237.9</ele>
        <time>2022-05-01T07:25:11Z</time>
      </trkpt>
      <trkpt lat="45.09033" lon="0.78575">
        <ele>237.4</ele>
        <time>2022-05-01T07:25:13Z</time>
      </trkpt>
      <trkpt lat="45.09037" lon="0.78571">
        <ele>237</ele>
        <time>2022-05-01T07:25:14Z</time>
      </trkpt>
      <trkpt lat="45.09042" lon="0.78567">
        <ele>236.8</ele>
        <time>2022-05-01T07:25:15Z</time>
      </trkpt>
      <trkpt lat="45.09046" lon="0.78562">
        <ele>236.8</ele>
        <time>2022-05-01T07:25:16Z</time>
      </trkpt>
      <trkpt lat="45.09048" lon="0.78556">
        <ele>236.8</ele>
        <time>2022-05-01T07:25:17Z</time>
      </trkpt>
      <trkpt lat="45.09049" lon="0.78549">
        <ele>236.1</ele>
        <time>2022-05-01T07:25:18Z</time>
      </trkpt>
      <trkpt lat="45.09057" lon="0.78548">
        <ele>236.1</ele>
        <time>2022-05-01T07:25:19Z</time>
      </trkpt>
      <trkpt lat="45.09055" lon="0.78537">
        <ele>236</ele>
        <time>2022-05-01T07:25:21Z</time>
      </trkpt>
      <trkpt lat="45.09054" lon="0.78532">
        <ele>236</ele>
        <time>2022-05-01T07:25:22Z</time>
      </trkpt>
      <trkpt lat="45.09054" lon="0.78526">
        <ele>236</ele>
        <time>2022-05-01T07:25:23Z</time>
      </trkpt>
      <trkpt lat="45.09053" lon="0.78521">
        <ele>236</ele>
        <time>2022-05-01T07:25:24Z</time>
      </trkpt>
      <trkpt lat="45.09052" lon="0.78516">
        <ele>236</ele>
        <time>2022-05-01T07:25:25Z</time>
      </trkpt>
      <trkpt lat="45.09052" lon="0.78512">
        <ele>236</ele>
        <time>2022-05-01T07:25:26Z</time>
      </trkpt>
      <trkpt lat="45.09051" lon="0.78507">
        <ele>236</ele>
        <time>2022-05-01T07:25:27Z</time>
      </trkpt>
      <trkpt lat="45.0905" lon="0.78497">
        <ele>236.1</ele>
        <time>2022-05-01T07:25:29Z</time>
      </trkpt>
      <trkpt lat="45.09048" lon="0.78488">
        <ele>236.1</ele>
        <time>2022-05-01T07:25:31Z</time>
      </trkpt>
      <trkpt lat="45.09048" lon="0.78483">
        <ele>236.1</ele>
        <time>2022-05-01T07:25:32Z</time>
      </trkpt>
      <trkpt lat="45.09047" lon="0.78478">
        <ele>236.2</ele>
        <time>2022-05-01T07:25:33Z</time>
      </trkpt>
      <trkpt lat="45.09045" lon="0.78469">
        <ele>236.2</ele>
        <time>2022-05-01T07:25:35Z</time>
      </trkpt>
      <trkpt lat="45.09044" lon="0.7846">
        <ele>236.3</ele>
        <time>2022-05-01T07:25:37Z</time>
      </trkpt>
      <trkpt lat="45.09043" lon="0.78456">
        <ele>236.4</ele>
        <time>2022-05-01T07:25:38Z</time>
      </trkpt>
      <trkpt lat="45.09042" lon="0.78451">
        <ele>236.5</ele>
        <time>2022-05-01T07:25:39Z</time>
      </trkpt>
      <trkpt lat="45.0904" lon="0.78441">
        <ele>236.6</ele>
        <time>2022-05-01T07:25:41Z</time>
      </trkpt>
      <trkpt lat="45.09038" lon="0.78431">
        <ele>236.8</ele>
        <time>2022-05-01T07:25:43Z</time>
      </trkpt>
      <trkpt lat="45.09036" lon="0.78421">
        <ele>236.9</ele>
        <time>2022-05-01T07:25:45Z</time>
      </trkpt>
      <trkpt lat="45.09034" lon="0.78412">
        <ele>237.1</ele>
        <time>2022-05-01T07:25:47Z</time>
      </trkpt>
      <trkpt lat="45.09033" lon="0.78407">
        <ele>237.1</ele>
        <time>2022-05-01T07:25:48Z</time>
      </trkpt>
      <trkpt lat="45.09032" lon="0.78403">
        <ele>237.2</ele>
        <time>2022-05-01T07:25:49Z</time>
      </trkpt>
      <trkpt lat="45.09031" lon="0.78396">
        <ele>237.3</ele>
        <time>2022-05-01T07:25:51Z</time>
      </trkpt>
      <trkpt lat="45.09031" lon="0.78393">
        <ele>237.4</ele>
        <time>2022-05-01T07:25:52Z</time>
      </trkpt>
      <trkpt lat="45.0903" lon="0.7839">
        <ele>237.5</ele>
        <time>2022-05-01T07:25:53Z</time>
      </trkpt>
      <trkpt lat="45.09035" lon="0.78374">
        <ele>237.4</ele>
        <time>2022-05-01T07:25:55Z</time>
      </trkpt>
      <trkpt lat="45.09037" lon="0.78374">
        <ele>237.3</ele>
        <time>2022-05-01T07:25:56Z</time>
      </trkpt>
      <trkpt lat="45.09038" lon="0.78373">
        <ele>237.2</ele>
        <time>2022-05-01T07:25:57Z</time>
      </trkpt>
      <trkpt lat="45.09043" lon="0.78372">
        <ele>237</ele>
        <time>2022-05-01T07:25:59Z</time>
      </trkpt>
      <trkpt lat="45.09048" lon="0.78371">
        <ele>236.6</ele>
        <time>2022-05-01T07:26:01Z</time>
      </trkpt>
      <trkpt lat="45.09053" lon="0.78369">
        <ele>236.4</ele>
        <time>2022-05-01T07:26:03Z</time>
      </trkpt>
      <trkpt lat="45.09055" lon="0.78369">
        <ele>236.2</ele>
        <time>2022-05-01T07:26:04Z</time>
      </trkpt>
      <trkpt lat="45.09057" lon="0.78368">
        <ele>236.1</ele>
        <time>2022-05-01T07:26:05Z</time>
      </trkpt>
      <trkpt lat="45.09058" lon="0.78349">
        <ele>235.6</ele>
        <time>2022-05-01T07:26:07Z</time>
      </trkpt>
      <trkpt lat="45.09054" lon="0.78342">
        <ele>235.8</ele>
        <time>2022-05-01T07:26:09Z</time>
      </trkpt>
      <trkpt lat="45.09051" lon="0.78339">
        <ele>236</ele>
        <time>2022-05-01T07:26:10Z</time>
      </trkpt>
      <trkpt lat="45.09049" lon="0.78336">
        <ele>236.1</ele>
        <time>2022-05-01T07:26:11Z</time>
      </trkpt>
      <trkpt lat="45.09046" lon="0.7833">
        <ele>236.4</ele>
        <time>2022-05-01T07:26:13Z</time>
      </trkpt>
      <trkpt lat="45.09042" lon="0.78323">
        <ele>236.7</ele>
        <time>2022-05-01T07:26:15Z</time>
      </trkpt>
      <trkpt lat="45.09039" lon="0.78319">
        <ele>237</ele>
        <time>2022-05-01T07:26:16Z</time>
      </trkpt>
      <trkpt lat="45.09037" lon="0.78316">
        <ele>237.2</ele>
        <time>2022-05-01T07:26:17Z</time>
      </trkpt>
      <trkpt lat="45.09034" lon="0.78309">
        <ele>237.6</ele>
        <time>2022-05-01T07:26:19Z</time>
      </trkpt>
      <trkpt lat="45.09029" lon="0.78301">
        <ele>238.2</ele>
        <time>2022-05-01T07:26:21Z</time>
      </trkpt>
      <trkpt lat="45.09027" lon="0.78297">
        <ele>238.5</ele>
        <time>2022-05-01T07:26:22Z</time>
      </trkpt>
      <trkpt lat="45.09025" lon="0.78294">
        <ele>238.8</ele>
        <time>2022-05-01T07:26:23Z</time>
      </trkpt>
      <trkpt lat="45.09022" lon="0.78288">
        <ele>239.3</ele>
        <time>2022-05-01T07:26:25Z</time>
      </trkpt>
      <trkpt lat="45.0902" lon="0.78284">
        <ele>239.6</ele>
        <time>2022-05-01T07:26:26Z</time>
      </trkpt>
      <trkpt lat="45.09018" lon="0.78281">
        <ele>239.9</ele>
        <time>2022-05-01T07:26:27Z</time>
      </trkpt>
      <trkpt lat="45.09015" lon="0.78272">
        <ele>240.6</ele>
        <time>2022-05-01T07:26:29Z</time>
      </trkpt>
      <trkpt lat="45.09013" lon="0.78263">
        <ele>241.2</ele>
        <time>2022-05-01T07:26:31Z</time>
      </trkpt>
      <trkpt lat="45.09012" lon="0.78259">
        <ele>241.6</ele>
        <time>2022-05-01T07:26:32Z</time>
      </trkpt>
      <trkpt lat="45.09012" lon="0.78254">
        <ele>241.9</ele>
        <time>2022-05-01T07:26:33Z</time>
      </trkpt>
      <trkpt lat="45.09011" lon="0.78245">
        <ele>242.6</ele>
        <time>2022-05-01T07:26:35Z</time>
      </trkpt>
      <trkpt lat="45.09009" lon="0.78237">
        <ele>243.2</ele>
        <time>2022-05-01T07:26:37Z</time>
      </trkpt>
      <trkpt lat="45.09007" lon="0.78229">
        <ele>243.8</ele>
        <time>2022-05-01T07:26:39Z</time>
      </trkpt>
      <trkpt lat="45.09006" lon="0.78226">
        <ele>244.1</ele>
        <time>2022-05-01T07:26:40Z</time>
      </trkpt>
      <trkpt lat="45.09006" lon="0.78223">
        <ele>244.3</ele>
        <time>2022-05-01T07:26:41Z</time>
      </trkpt>
      <trkpt lat="45.09004" lon="0.78217">
        <ele>244.4</ele>
        <time>2022-05-01T07:26:43Z</time>
      </trkpt>
      <trkpt lat="45.09002" lon="0.7821">
        <ele>244.6</ele>
        <time>2022-05-01T07:26:45Z</time>
      </trkpt>
      <trkpt lat="45.09002" lon="0.78208">
        <ele>244.7</ele>
        <time>2022-05-01T07:26:46Z</time>
      </trkpt>
      <trkpt lat="45.09001" lon="0.78206">
        <ele>244.7</ele>
        <time>2022-05-01T07:26:47Z</time>
      </trkpt>
      <trkpt lat="45.09" lon="0.78205">
        <ele>244.7</ele>
        <time>2022-05-01T07:26:48Z</time>
      </trkpt>
      <trkpt lat="45.09" lon="0.78203">
        <ele>244.8</ele>
        <time>2022-05-01T07:26:49Z</time>
      </trkpt>
      <trkpt lat="45.08999" lon="0.78201">
        <ele>244.9</ele>
        <time>2022-05-01T07:26:51Z</time>
      </trkpt>
      <trkpt lat="45.08999" lon="0.78201">
        <ele>244.9</ele>
        <time>2022-05-01T07:26:52Z</time>
      </trkpt>
      <trkpt lat="45.08998" lon="0.782">
        <ele>244.9</ele>
        <time>2022-05-01T07:27:23Z</time>
      </trkpt>
      <trkpt lat="45.08996" lon="0.78196">
        <ele>245.1</ele>
        <time>2022-05-01T07:27:25Z</time>
      </trkpt>
      <trkpt lat="45.08993" lon="0.78191">
        <ele>245.3</ele>
        <time>2022-05-01T07:27:27Z</time>
      </trkpt>
      <trkpt lat="45.0899" lon="0.78186">
        <ele>245.4</ele>
        <time>2022-05-01T07:27:29Z</time>
      </trkpt>
      <trkpt lat="45.08987" lon="0.7818">
        <ele>245.6</ele>
        <time>2022-05-01T07:27:31Z</time>
      </trkpt>
      <trkpt lat="45.08985" lon="0.78175">
        <ele>245.8</ele>
        <time>2022-05-01T07:27:33Z</time>
      </trkpt>
      <trkpt lat="45.08983" lon="0.78172">
        <ele>245.9</ele>
        <time>2022-05-01T07:27:35Z</time>
      </trkpt>
      <trkpt lat="45.08981" lon="0.78166">
        <ele>246</ele>
        <time>2022-05-01T07:27:37Z</time>
      </trkpt>
      <trkpt lat="45.0898" lon="0.78164">
        <ele>246.1</ele>
        <time>2022-05-01T07:27:38Z</time>
      </trkpt>
      <trkpt lat="45.08979" lon="0.78161">
        <ele>246.2</ele>
        <time>2022-05-01T07:27:39Z</time>
      </trkpt>
      <trkpt lat="45.08977" lon="0.78156">
        <ele>246.3</ele>
        <time>2022-05-01T07:27:41Z</time>
      </trkpt>
      <trkpt lat="45.08974" lon="0.7815">
        <ele>246.4</ele>
        <time>2022-05-01T07:27:43Z</time>
      </trkpt>
      <trkpt lat="45.08972" lon="0.78145">
        <ele>246.6</ele>
        <time>2022-05-01T07:27:45Z</time>
      </trkpt>
      <trkpt lat="45.0897" lon="0.7814">
        <ele>246.7</ele>
        <time>2022-05-01T07:27:47Z</time>
      </trkpt>
      <trkpt lat="45.08968" lon="0.78134">
        <ele>246.8</ele>
        <time>2022-05-01T07:27:49Z</time>
      </trkpt>
      <trkpt lat="45.08966" lon="0.78129">
        <ele>246.8</ele>
        <time>2022-05-01T07:27:51Z</time>
      </trkpt>
      <trkpt lat="45.08963" lon="0.78122">
        <ele>246.9</ele>
        <time>2022-05-01T07:27:53Z</time>
      </trkpt>
      <trkpt lat="45.0896" lon="0.78116">
        <ele>247</ele>
        <time>2022-05-01T07:27:55Z</time>
      </trkpt>
      <trkpt lat="45.08958" lon="0.7811">
        <ele>247</ele>
        <time>2022-05-01T07:27:57Z</time>
      </trkpt>
      <trkpt lat="45.08956" lon="0.78104">
        <ele>247.1</ele>
        <time>2022-05-01T07:27:59Z</time>
      </trkpt>
      <trkpt lat="45.08953" lon="0.78098">
        <ele>247.1</ele>
        <time>2022-05-01T07:28:01Z</time>
      </trkpt>
      <trkpt lat="45.08952" lon="0.78095">
        <ele>247</ele>
        <time>2022-05-01T07:28:02Z</time>
      </trkpt>
      <trkpt lat="45.08951" lon="0.78092">
        <ele>247</ele>
        <time>2022-05-01T07:28:03Z</time>
      </trkpt>
      <trkpt lat="45.08949" lon="0.78086">
        <ele>247</ele>
        <time>2022-05-01T07:28:05Z</time>
      </trkpt>
      <trkpt lat="45.08946" lon="0.78081">
        <ele>246.9</ele>
        <time>2022-05-01T07:28:07Z</time>
      </trkpt>
      <trkpt lat="45.08945" lon="0.78078">
        <ele>246.9</ele>
        <time>2022-05-01T07:28:08Z</time>
      </trkpt>
      <trkpt lat="45.08944" lon="0.78075">
        <ele>246.8</ele>
        <time>2022-05-01T07:28:09Z</time>
      </trkpt>
      <trkpt lat="45.08943" lon="0.78072">
        <ele>246.8</ele>
        <time>2022-05-01T07:28:10Z</time>
      </trkpt>
      <trkpt lat="45.08941" lon="0.78067">
        <ele>246.7</ele>
        <time>2022-05-01T07:28:11Z</time>
      </trkpt>
      <trkpt lat="45.08937" lon="0.78058">
        <ele>246.5</ele>
        <time>2022-05-01T07:28:13Z</time>
      </trkpt>
      <trkpt lat="45.08934" lon="0.7805">
        <ele>246.3</ele>
        <time>2022-05-01T07:28:15Z</time>
      </trkpt>
      <trkpt lat="45.0893" lon="0.78041">
        <ele>246.1</ele>
        <time>2022-05-01T07:28:17Z</time>
      </trkpt>
      <trkpt lat="45.08927" lon="0.78032">
        <ele>245.8</ele>
        <time>2022-05-01T07:28:19Z</time>
      </trkpt>
      <trkpt lat="45.08923" lon="0.78022">
        <ele>245.4</ele>
        <time>2022-05-01T07:28:21Z</time>
      </trkpt>
      <trkpt lat="45.08918" lon="0.78012">
        <ele>245</ele>
        <time>2022-05-01T07:28:23Z</time>
      </trkpt>
      <trkpt lat="45.08916" lon="0.78006">
        <ele>244.8</ele>
        <time>2022-05-01T07:28:24Z</time>
      </trkpt>
      <trkpt lat="45.08914" lon="0.78">
        <ele>244.6</ele>
        <time>2022-05-01T07:28:25Z</time>
      </trkpt>
      <trkpt lat="45.08909" lon="0.77989">
        <ele>244.3</ele>
        <time>2022-05-01T07:28:27Z</time>
      </trkpt>
      <trkpt lat="45.08904" lon="0.77979">
        <ele>244.1</ele>
        <time>2022-05-01T07:28:29Z</time>
      </trkpt>
      <trkpt lat="45.08899" lon="0.77968">
        <ele>244</ele>
        <time>2022-05-01T07:28:31Z</time>
      </trkpt>
      <trkpt lat="45.08897" lon="0.77962">
        <ele>244</ele>
        <time>2022-05-01T07:28:32Z</time>
      </trkpt>
      <trkpt lat="45.08894" lon="0.77957">
        <ele>243.9</ele>
        <time>2022-05-01T07:28:33Z</time>
      </trkpt>
      <trkpt lat="45.0889" lon="0.77947">
        <ele>243.9</ele>
        <time>2022-05-01T07:28:35Z</time>
      </trkpt>
      <trkpt lat="45.08885" lon="0.77938">
        <ele>243.9</ele>
        <time>2022-05-01T07:28:37Z</time>
      </trkpt>
      <trkpt lat="45.08883" lon="0.77933">
        <ele>243.9</ele>
        <time>2022-05-01T07:28:38Z</time>
      </trkpt>
      <trkpt lat="45.08881" lon="0.77928">
        <ele>244</ele>
        <time>2022-05-01T07:28:39Z</time>
      </trkpt>
      <trkpt lat="45.08876" lon="0.77918">
        <ele>244.2</ele>
        <time>2022-05-01T07:28:41Z</time>
      </trkpt>
      <trkpt lat="45.08873" lon="0.77908">
        <ele>244.4</ele>
        <time>2022-05-01T07:28:43Z</time>
      </trkpt>
      <trkpt lat="45.0887" lon="0.77899">
        <ele>244.7</ele>
        <time>2022-05-01T07:28:45Z</time>
      </trkpt>
      <trkpt lat="45.08867" lon="0.77889">
        <ele>244.9</ele>
        <time>2022-05-01T07:28:47Z</time>
      </trkpt>
      <trkpt lat="45.08864" lon="0.77878">
        <ele>245.1</ele>
        <time>2022-05-01T07:28:49Z</time>
      </trkpt>
      <trkpt lat="45.08862" lon="0.77868">
        <ele>245.3</ele>
        <time>2022-05-01T07:28:51Z</time>
      </trkpt>
      <trkpt lat="45.0886" lon="0.7786">
        <ele>245.6</ele>
        <time>2022-05-01T07:28:53Z</time>
      </trkpt>
      <trkpt lat="45.08859" lon="0.77849">
        <ele>245.9</ele>
        <time>2022-05-01T07:28:55Z</time>
      </trkpt>
      <trkpt lat="45.08858" lon="0.77838">
        <ele>246.3</ele>
        <time>2022-05-01T07:28:57Z</time>
      </trkpt>
      <trkpt lat="45.08857" lon="0.77826">
        <ele>246.7</ele>
        <time>2022-05-01T07:28:59Z</time>
      </trkpt>
      <trkpt lat="45.08857" lon="0.7782">
        <ele>246.9</ele>
        <time>2022-05-01T07:29:00Z</time>
      </trkpt>
      <trkpt lat="45.08857" lon="0.77814">
        <ele>247.1</ele>
        <time>2022-05-01T07:29:01Z</time>
      </trkpt>
      <trkpt lat="45.08856" lon="0.77804">
        <ele>247.5</ele>
        <time>2022-05-01T07:29:03Z</time>
      </trkpt>
      <trkpt lat="45.08855" lon="0.77793">
        <ele>247.9</ele>
        <time>2022-05-01T07:29:05Z</time>
      </trkpt>
      <trkpt lat="45.08854" lon="0.77788">
        <ele>248</ele>
        <time>2022-05-01T07:29:06Z</time>
      </trkpt>
      <trkpt lat="45.08854" lon="0.77783">
        <ele>248.2</ele>
        <time>2022-05-01T07:29:07Z</time>
      </trkpt>
      <trkpt lat="45.08852" lon="0.77771">
        <ele>248.5</ele>
        <time>2022-05-01T07:29:09Z</time>
      </trkpt>
      <trkpt lat="45.0885" lon="0.77761">
        <ele>248.8</ele>
        <time>2022-05-01T07:29:11Z</time>
      </trkpt>
      <trkpt lat="45.08846" lon="0.77751">
        <ele>249.2</ele>
        <time>2022-05-01T07:29:13Z</time>
      </trkpt>
      <trkpt lat="45.08843" lon="0.77746">
        <ele>249.3</ele>
        <time>2022-05-01T07:29:14Z</time>
      </trkpt>
      <trkpt lat="45.08841" lon="0.77743">
        <ele>249.5</ele>
        <time>2022-05-01T07:29:15Z</time>
      </trkpt>
      <trkpt lat="45.08834" lon="0.77742">
        <ele>249.7</ele>
        <time>2022-05-01T07:29:16Z</time>
      </trkpt>
      <trkpt lat="45.08833" lon="0.77745">
        <ele>249.8</ele>
        <time>2022-05-01T07:29:17Z</time>
      </trkpt>
      <trkpt lat="45.0883" lon="0.77751">
        <ele>249.8</ele>
        <time>2022-05-01T07:29:19Z</time>
      </trkpt>
      <trkpt lat="45.08826" lon="0.7776">
        <ele>249.8</ele>
        <time>2022-05-01T07:29:21Z</time>
      </trkpt>
      <trkpt lat="45.08822" lon="0.77769">
        <ele>249.7</ele>
        <time>2022-05-01T07:29:23Z</time>
      </trkpt>
      <trkpt lat="45.08818" lon="0.77777">
        <ele>249.6</ele>
        <time>2022-05-01T07:29:25Z</time>
      </trkpt>
      <trkpt lat="45.08814" lon="0.77785">
        <ele>249.6</ele>
        <time>2022-05-01T07:29:27Z</time>
      </trkpt>
      <trkpt lat="45.0881" lon="0.77795">
        <ele>249.6</ele>
        <time>2022-05-01T07:29:29Z</time>
      </trkpt>
      <trkpt lat="45.08806" lon="0.77804">
        <ele>249.6</ele>
        <time>2022-05-01T07:29:31Z</time>
      </trkpt>
      <trkpt lat="45.08805" lon="0.77809">
        <ele>249.5</ele>
        <time>2022-05-01T07:29:32Z</time>
      </trkpt>
      <trkpt lat="45.08803" lon="0.77813">
        <ele>249.5</ele>
        <time>2022-05-01T07:29:33Z</time>
      </trkpt>
      <trkpt lat="45.08801" lon="0.77822">
        <ele>249.5</ele>
        <time>2022-05-01T07:29:35Z</time>
      </trkpt>
      <trkpt lat="45.088" lon="0.77833">
        <ele>249.5</ele>
        <time>2022-05-01T07:29:37Z</time>
      </trkpt>
      <trkpt lat="45.08799" lon="0.77846">
        <ele>249.5</ele>
        <time>2022-05-01T07:29:39Z</time>
      </trkpt>
      <trkpt lat="45.08798" lon="0.77859">
        <ele>249.5</ele>
        <time>2022-05-01T07:29:41Z</time>
      </trkpt>
      <trkpt lat="45.08798" lon="0.77866">
        <ele>249.5</ele>
        <time>2022-05-01T07:29:42Z</time>
      </trkpt>
      <trkpt lat="45.08798" lon="0.77872">
        <ele>249.5</ele>
        <time>2022-05-01T07:29:43Z</time>
      </trkpt>
      <trkpt lat="45.08798" lon="0.77878">
        <ele>249.4</ele>
        <time>2022-05-01T07:29:44Z</time>
      </trkpt>
      <trkpt lat="45.08797" lon="0.77885">
        <ele>249.4</ele>
        <time>2022-05-01T07:29:45Z</time>
      </trkpt>
      <trkpt lat="45.08797" lon="0.77897">
        <ele>249.4</ele>
        <time>2022-05-01T07:29:47Z</time>
      </trkpt>
      <trkpt lat="45.08796" lon="0.7791">
        <ele>249.6</ele>
        <time>2022-05-01T07:29:49Z</time>
      </trkpt>
      <trkpt lat="45.08796" lon="0.77921">
        <ele>249.7</ele>
        <time>2022-05-01T07:29:51Z</time>
      </trkpt>
      <trkpt lat="45.08796" lon="0.77933">
        <ele>249.7</ele>
        <time>2022-05-01T07:29:53Z</time>
      </trkpt>
      <trkpt lat="45.08796" lon="0.77939">
        <ele>249.7</ele>
        <time>2022-05-01T07:29:54Z</time>
      </trkpt>
      <trkpt lat="45.08796" lon="0.77946">
        <ele>249.7</ele>
        <time>2022-05-01T07:29:55Z</time>
      </trkpt>
      <trkpt lat="45.08796" lon="0.77952">
        <ele>249.7</ele>
        <time>2022-05-01T07:29:56Z</time>
      </trkpt>
      <trkpt lat="45.08796" lon="0.77958">
        <ele>249.7</ele>
        <time>2022-05-01T07:29:57Z</time>
      </trkpt>
      <trkpt lat="45.08796" lon="0.77965">
        <ele>249.7</ele>
        <time>2022-05-01T07:29:58Z</time>
      </trkpt>
      <trkpt lat="45.08796" lon="0.77972">
        <ele>249.8</ele>
        <time>2022-05-01T07:29:59Z</time>
      </trkpt>
      <trkpt lat="45.08797" lon="0.77984">
        <ele>249.9</ele>
        <time>2022-05-01T07:30:01Z</time>
      </trkpt>
      <trkpt lat="45.08798" lon="0.77997">
        <ele>250.1</ele>
        <time>2022-05-01T07:30:03Z</time>
      </trkpt>
      <trkpt lat="45.08798" lon="0.78003">
        <ele>250.1</ele>
        <time>2022-05-01T07:30:04Z</time>
      </trkpt>
      <trkpt lat="45.08799" lon="0.78009">
        <ele>250.2</ele>
        <time>2022-05-01T07:30:05Z</time>
      </trkpt>
      <trkpt lat="45.088" lon="0.7802">
        <ele>250.4</ele>
        <time>2022-05-01T07:30:07Z</time>
      </trkpt>
      <trkpt lat="45.08801" lon="0.78032">
        <ele>250.6</ele>
        <time>2022-05-01T07:30:09Z</time>
      </trkpt>
      <trkpt lat="45.08802" lon="0.78038">
        <ele>250.7</ele>
        <time>2022-05-01T07:30:10Z</time>
      </trkpt>
      <trkpt lat="45.08803" lon="0.78044">
        <ele>250.8</ele>
        <time>2022-05-01T07:30:11Z</time>
      </trkpt>
      <trkpt lat="45.08806" lon="0.78055">
        <ele>251.2</ele>
        <time>2022-05-01T07:30:13Z</time>
      </trkpt>
      <trkpt lat="45.08809" lon="0.78065">
        <ele>251.5</ele>
        <time>2022-05-01T07:30:15Z</time>
      </trkpt>
      <trkpt lat="45.08812" lon="0.78075">
        <ele>251.7</ele>
        <time>2022-05-01T07:30:17Z</time>
      </trkpt>
      <trkpt lat="45.08813" lon="0.78079">
        <ele>251.8</ele>
        <time>2022-05-01T07:30:18Z</time>
      </trkpt>
      <trkpt lat="45.08814" lon="0.78084">
        <ele>251.9</ele>
        <time>2022-05-01T07:30:19Z</time>
      </trkpt>
      <trkpt lat="45.08815" lon="0.78093">
        <ele>252.1</ele>
        <time>2022-05-01T07:30:21Z</time>
      </trkpt>
      <trkpt lat="45.08815" lon="0.78102">
        <ele>252.2</ele>
        <time>2022-05-01T07:30:23Z</time>
      </trkpt>
      <trkpt lat="45.08814" lon="0.7811">
        <ele>252.5</ele>
        <time>2022-05-01T07:30:25Z</time>
      </trkpt>
      <trkpt lat="45.08808" lon="0.78116">
        <ele>252.6</ele>
        <time>2022-05-01T07:30:26Z</time>
      </trkpt>
      <trkpt lat="45.08806" lon="0.78115">
        <ele>252.6</ele>
        <time>2022-05-01T07:30:27Z</time>
      </trkpt>
      <trkpt lat="45.088" lon="0.78111">
        <ele>252.6</ele>
        <time>2022-05-01T07:30:29Z</time>
      </trkpt>
      <trkpt lat="45.08792" lon="0.7811">
        <ele>252.5</ele>
        <time>2022-05-01T07:30:31Z</time>
      </trkpt>
      <trkpt lat="45.08784" lon="0.78109">
        <ele>252.4</ele>
        <time>2022-05-01T07:30:33Z</time>
      </trkpt>
      <trkpt lat="45.0878" lon="0.78108">
        <ele>252.3</ele>
        <time>2022-05-01T07:30:34Z</time>
      </trkpt>
      <trkpt lat="45.08776" lon="0.78109">
        <ele>252.3</ele>
        <time>2022-05-01T07:30:35Z</time>
      </trkpt>
      <trkpt lat="45.08771" lon="0.7811">
        <ele>252.2</ele>
        <time>2022-05-01T07:30:36Z</time>
      </trkpt>
      <trkpt lat="45.08767" lon="0.78111">
        <ele>252.2</ele>
        <time>2022-05-01T07:30:37Z</time>
      </trkpt>
      <trkpt lat="45.0876" lon="0.78115">
        <ele>252.1</ele>
        <time>2022-05-01T07:30:39Z</time>
      </trkpt>
      <trkpt lat="45.08756" lon="0.78118">
        <ele>252.1</ele>
        <time>2022-05-01T07:30:40Z</time>
      </trkpt>
      <trkpt lat="45.08753" lon="0.78121">
        <ele>252</ele>
        <time>2022-05-01T07:30:41Z</time>
      </trkpt>
      <trkpt lat="45.08747" lon="0.78129">
        <ele>252</ele>
        <time>2022-05-01T07:30:43Z</time>
      </trkpt>
      <trkpt lat="45.08743" lon="0.78137">
        <ele>251.9</ele>
        <time>2022-05-01T07:30:45Z</time>
      </trkpt>
      <trkpt lat="45.08738" lon="0.78145">
        <ele>251.9</ele>
        <time>2022-05-01T07:30:47Z</time>
      </trkpt>
      <trkpt lat="45.08736" lon="0.78149">
        <ele>251.8</ele>
        <time>2022-05-01T07:30:48Z</time>
      </trkpt>
      <trkpt lat="45.08733" lon="0.78153">
        <ele>251.8</ele>
        <time>2022-05-01T07:30:49Z</time>
      </trkpt>
      <trkpt lat="45.08728" lon="0.78158">
        <ele>251.8</ele>
        <time>2022-05-01T07:30:51Z</time>
      </trkpt>
      <trkpt lat="45.08722" lon="0.78162">
        <ele>251.8</ele>
        <time>2022-05-01T07:30:53Z</time>
      </trkpt>
      <trkpt lat="45.08716" lon="0.78165">
        <ele>251.8</ele>
        <time>2022-05-01T07:30:55Z</time>
      </trkpt>
      <trkpt lat="45.08709" lon="0.78167">
        <ele>251.7</ele>
        <time>2022-05-01T07:30:57Z</time>
      </trkpt>
      <trkpt lat="45.08702" lon="0.78167">
        <ele>251.6</ele>
        <time>2022-05-01T07:30:59Z</time>
      </trkpt>
      <trkpt lat="45.08695" lon="0.78168">
        <ele>251.5</ele>
        <time>2022-05-01T07:31:01Z</time>
      </trkpt>
      <trkpt lat="45.08691" lon="0.78167">
        <ele>251.4</ele>
        <time>2022-05-01T07:31:02Z</time>
      </trkpt>
      <trkpt lat="45.08687" lon="0.78167">
        <ele>251.3</ele>
        <time>2022-05-01T07:31:03Z</time>
      </trkpt>
      <trkpt lat="45.08679" lon="0.78165">
        <ele>251.1</ele>
        <time>2022-05-01T07:31:05Z</time>
      </trkpt>
      <trkpt lat="45.08674" lon="0.78164">
        <ele>251</ele>
        <time>2022-05-01T07:31:06Z</time>
      </trkpt>
      <trkpt lat="45.08669" lon="0.78163">
        <ele>250.9</ele>
        <time>2022-05-01T07:31:07Z</time>
      </trkpt>
      <trkpt lat="45.08661" lon="0.78162">
        <ele>250.7</ele>
        <time>2022-05-01T07:31:09Z</time>
      </trkpt>
      <trkpt lat="45.08652" lon="0.78161">
        <ele>250.5</ele>
        <time>2022-05-01T07:31:11Z</time>
      </trkpt>
      <trkpt lat="45.08643" lon="0.7816">
        <ele>250.4</ele>
        <time>2022-05-01T07:31:13Z</time>
      </trkpt>
      <trkpt lat="45.08634" lon="0.78159">
        <ele>250.3</ele>
        <time>2022-05-01T07:31:15Z</time>
      </trkpt>
      <trkpt lat="45.08624" lon="0.78158">
        <ele>250.2</ele>
        <time>2022-05-01T07:31:17Z</time>
      </trkpt>
      <trkpt lat="45.0862" lon="0.78157">
        <ele>250.1</ele>
        <time>2022-05-01T07:31:18Z</time>
      </trkpt>
      <trkpt lat="45.08615" lon="0.78157">
        <ele>250.1</ele>
        <time>2022-05-01T07:31:19Z</time>
      </trkpt>
      <trkpt lat="45.08606" lon="0.78156">
        <ele>250</ele>
        <time>2022-05-01T07:31:21Z</time>
      </trkpt>
      <trkpt lat="45.08597" lon="0.78155">
        <ele>249.9</ele>
        <time>2022-05-01T07:31:23Z</time>
      </trkpt>
      <trkpt lat="45.08588" lon="0.78154">
        <ele>249.8</ele>
        <time>2022-05-01T07:31:25Z</time>
      </trkpt>
      <trkpt lat="45.08583" lon="0.78153">
        <ele>249.7</ele>
        <time>2022-05-01T07:31:26Z</time>
      </trkpt>
      <trkpt lat="45.08579" lon="0.78153">
        <ele>249.6</ele>
        <time>2022-05-01T07:31:27Z</time>
      </trkpt>
      <trkpt lat="45.08569" lon="0.78152">
        <ele>249.4</ele>
        <time>2022-05-01T07:31:29Z</time>
      </trkpt>
      <trkpt lat="45.0856" lon="0.78151">
        <ele>249.2</ele>
        <time>2022-05-01T07:31:31Z</time>
      </trkpt>
      <trkpt lat="45.08556" lon="0.7815">
        <ele>249.2</ele>
        <time>2022-05-01T07:31:32Z</time>
      </trkpt>
      <trkpt lat="45.08551" lon="0.7815">
        <ele>249.1</ele>
        <time>2022-05-01T07:31:33Z</time>
      </trkpt>
      <trkpt lat="45.08542" lon="0.78149">
        <ele>248.9</ele>
        <time>2022-05-01T07:31:35Z</time>
      </trkpt>
      <trkpt lat="45.08533" lon="0.78148">
        <ele>248.8</ele>
        <time>2022-05-01T07:31:37Z</time>
      </trkpt>
      <trkpt lat="45.08523" lon="0.78147">
        <ele>248.6</ele>
        <time>2022-05-01T07:31:39Z</time>
      </trkpt>
      <trkpt lat="45.08519" lon="0.78147">
        <ele>248.5</ele>
        <time>2022-05-01T07:31:40Z</time>
      </trkpt>
      <trkpt lat="45.08514" lon="0.78147">
        <ele>248.5</ele>
        <time>2022-05-01T07:31:41Z</time>
      </trkpt>
      <trkpt lat="45.08505" lon="0.78147">
        <ele>248.3</ele>
        <time>2022-05-01T07:31:43Z</time>
      </trkpt>
      <trkpt lat="45.08496" lon="0.78145">
        <ele>248.1</ele>
        <time>2022-05-01T07:31:45Z</time>
      </trkpt>
      <trkpt lat="45.08488" lon="0.78144">
        <ele>247.9</ele>
        <time>2022-05-01T07:31:47Z</time>
      </trkpt>
      <trkpt lat="45.08484" lon="0.78143">
        <ele>247.8</ele>
        <time>2022-05-01T07:31:48Z</time>
      </trkpt>
      <trkpt lat="45.08479" lon="0.78143">
        <ele>247.7</ele>
        <time>2022-05-01T07:31:49Z</time>
      </trkpt>
      <trkpt lat="45.08471" lon="0.78145">
        <ele>247.5</ele>
        <time>2022-05-01T07:31:51Z</time>
      </trkpt>
      <trkpt lat="45.08467" lon="0.78149">
        <ele>247.4</ele>
        <time>2022-05-01T07:31:52Z</time>
      </trkpt>
      <trkpt lat="45.08465" lon="0.78153">
        <ele>247.4</ele>
        <time>2022-05-01T07:31:53Z</time>
      </trkpt>
      <trkpt lat="45.08463" lon="0.78155">
        <ele>247.3</ele>
        <time>2022-05-01T07:31:54Z</time>
      </trkpt>
      <trkpt lat="45.08459" lon="0.78158">
        <ele>247.2</ele>
        <time>2022-05-01T07:31:55Z</time>
      </trkpt>
      <trkpt lat="45.08456" lon="0.78161">
        <ele>247.1</ele>
        <time>2022-05-01T07:31:56Z</time>
      </trkpt>
      <trkpt lat="45.08453" lon="0.78164">
        <ele>247</ele>
        <time>2022-05-01T07:31:57Z</time>
      </trkpt>
      <trkpt lat="45.08446" lon="0.78168">
        <ele>246.8</ele>
        <time>2022-05-01T07:31:59Z</time>
      </trkpt>
      <trkpt lat="45.08443" lon="0.78169">
        <ele>246.7</ele>
        <time>2022-05-01T07:32:00Z</time>
      </trkpt>
      <trkpt lat="45.08439" lon="0.7817">
        <ele>246.6</ele>
        <time>2022-05-01T07:32:01Z</time>
      </trkpt>
      <trkpt lat="45.08435" lon="0.78172">
        <ele>246.4</ele>
        <time>2022-05-01T07:32:02Z</time>
      </trkpt>
      <trkpt lat="45.08431" lon="0.78173">
        <ele>246.2</ele>
        <time>2022-05-01T07:32:03Z</time>
      </trkpt>
      <trkpt lat="45.08426" lon="0.78174">
        <ele>246</ele>
        <time>2022-05-01T07:32:04Z</time>
      </trkpt>
      <trkpt lat="45.08422" lon="0.78175">
        <ele>245.8</ele>
        <time>2022-05-01T07:32:05Z</time>
      </trkpt>
      <trkpt lat="45.08417" lon="0.78175">
        <ele>245.5</ele>
        <time>2022-05-01T07:32:06Z</time>
      </trkpt>
      <trkpt lat="45.08412" lon="0.78176">
        <ele>245.2</ele>
        <time>2022-05-01T07:32:07Z</time>
      </trkpt>
      <trkpt lat="45.08407" lon="0.78178">
        <ele>245</ele>
        <time>2022-05-01T07:32:08Z</time>
      </trkpt>
      <trkpt lat="45.08403" lon="0.78181">
        <ele>244.7</ele>
        <time>2022-05-01T07:32:09Z</time>
      </trkpt>
      <trkpt lat="45.08399" lon="0.78183">
        <ele>244.5</ele>
        <time>2022-05-01T07:32:10Z</time>
      </trkpt>
      <trkpt lat="45.08395" lon="0.78186">
        <ele>244.3</ele>
        <time>2022-05-01T07:32:11Z</time>
      </trkpt>
      <trkpt lat="45.0839" lon="0.78189">
        <ele>244</ele>
        <time>2022-05-01T07:32:12Z</time>
      </trkpt>
      <trkpt lat="45.08384" lon="0.78192">
        <ele>243.6</ele>
        <time>2022-05-01T07:32:13Z</time>
      </trkpt>
      <trkpt lat="45.08378" lon="0.78196">
        <ele>243.3</ele>
        <time>2022-05-01T07:32:14Z</time>
      </trkpt>
      <trkpt lat="45.08372" lon="0.782">
        <ele>242.8</ele>
        <time>2022-05-01T07:32:15Z</time>
      </trkpt>
      <trkpt lat="45.08365" lon="0.78204">
        <ele>242.3</ele>
        <time>2022-05-01T07:32:16Z</time>
      </trkpt>
      <trkpt lat="45.08358" lon="0.78209">
        <ele>241.7</ele>
        <time>2022-05-01T07:32:17Z</time>
      </trkpt>
      <trkpt lat="45.08345" lon="0.78217">
        <ele>240.6</ele>
        <time>2022-05-01T07:32:19Z</time>
      </trkpt>
      <trkpt lat="45.08338" lon="0.78221">
        <ele>240.1</ele>
        <time>2022-05-01T07:32:20Z</time>
      </trkpt>
      <trkpt lat="45.08332" lon="0.78225">
        <ele>239.7</ele>
        <time>2022-05-01T07:32:21Z</time>
      </trkpt>
      <trkpt lat="45.08319" lon="0.78234">
        <ele>239</ele>
        <time>2022-05-01T07:32:23Z</time>
      </trkpt>
      <trkpt lat="45.08313" lon="0.78238">
        <ele>238.7</ele>
        <time>2022-05-01T07:32:24Z</time>
      </trkpt>
      <trkpt lat="45.08307" lon="0.78242">
        <ele>238.4</ele>
        <time>2022-05-01T07:32:25Z</time>
      </trkpt>
      <trkpt lat="45.08301" lon="0.78246">
        <ele>238.1</ele>
        <time>2022-05-01T07:32:26Z</time>
      </trkpt>
      <trkpt lat="45.08294" lon="0.78251">
        <ele>237.7</ele>
        <time>2022-05-01T07:32:27Z</time>
      </trkpt>
      <trkpt lat="45.08288" lon="0.78255">
        <ele>237.4</ele>
        <time>2022-05-01T07:32:28Z</time>
      </trkpt>
      <trkpt lat="45.08282" lon="0.7826">
        <ele>237.1</ele>
        <time>2022-05-01T07:32:29Z</time>
      </trkpt>
      <trkpt lat="45.08269" lon="0.78268">
        <ele>236.4</ele>
        <time>2022-05-01T07:32:31Z</time>
      </trkpt>
      <trkpt lat="45.08262" lon="0.78273">
        <ele>236</ele>
        <time>2022-05-01T07:32:32Z</time>
      </trkpt>
      <trkpt lat="45.08255" lon="0.78278">
        <ele>235.6</ele>
        <time>2022-05-01T07:32:33Z</time>
      </trkpt>
      <trkpt lat="45.0824" lon="0.78288">
        <ele>235</ele>
        <time>2022-05-01T07:32:35Z</time>
      </trkpt>
      <trkpt lat="45.08226" lon="0.78298">
        <ele>234.4</ele>
        <time>2022-05-01T07:32:37Z</time>
      </trkpt>
      <trkpt lat="45.08213" lon="0.78303">
        <ele>233.7</ele>
        <time>2022-05-01T07:32:39Z</time>
      </trkpt>
      <trkpt lat="45.08209" lon="0.78304">
        <ele>233.5</ele>
        <time>2022-05-01T07:32:40Z</time>
      </trkpt>
      <trkpt lat="45.08203" lon="0.78306">
        <ele>233.2</ele>
        <time>2022-05-01T07:32:41Z</time>
      </trkpt>
      <trkpt lat="45.08186" lon="0.78305">
        <ele>232.2</ele>
        <time>2022-05-01T07:32:43Z</time>
      </trkpt>
      <trkpt lat="45.08174" lon="0.783">
        <ele>231.3</ele>
        <time>2022-05-01T07:32:45Z</time>
      </trkpt>
      <trkpt lat="45.08167" lon="0.78296">
        <ele>230.6</ele>
        <time>2022-05-01T07:32:46Z</time>
      </trkpt>
      <trkpt lat="45.08161" lon="0.78293">
        <ele>229.9</ele>
        <time>2022-05-01T07:32:47Z</time>
      </trkpt>
      <trkpt lat="45.0815" lon="0.78285">
        <ele>228.5</ele>
        <time>2022-05-01T07:32:49Z</time>
      </trkpt>
      <trkpt lat="45.08141" lon="0.78279">
        <ele>227.4</ele>
        <time>2022-05-01T07:32:51Z</time>
      </trkpt>
      <trkpt lat="45.08132" lon="0.78273">
        <ele>226.4</ele>
        <time>2022-05-01T07:32:53Z</time>
      </trkpt>
      <trkpt lat="45.08127" lon="0.7827">
        <ele>226</ele>
        <time>2022-05-01T07:32:54Z</time>
      </trkpt>
      <trkpt lat="45.08122" lon="0.78267">
        <ele>225.5</ele>
        <time>2022-05-01T07:32:55Z</time>
      </trkpt>
      <trkpt lat="45.0811" lon="0.7826">
        <ele>224.4</ele>
        <time>2022-05-01T07:32:57Z</time>
      </trkpt>
      <trkpt lat="45.08104" lon="0.78257">
        <ele>223.8</ele>
        <time>2022-05-01T07:32:58Z</time>
      </trkpt>
      <trkpt lat="45.08098" lon="0.78253">
        <ele>223.3</ele>
        <time>2022-05-01T07:32:59Z</time>
      </trkpt>
      <trkpt lat="45.08086" lon="0.78246">
        <ele>222.3</ele>
        <time>2022-05-01T07:33:01Z</time>
      </trkpt>
      <trkpt lat="45.0808" lon="0.78242">
        <ele>222</ele>
        <time>2022-05-01T07:33:02Z</time>
      </trkpt>
      <trkpt lat="45.08076" lon="0.7824">
        <ele>221.8</ele>
        <time>2022-05-01T07:33:03Z</time>
      </trkpt>
      <trkpt lat="45.08065" lon="0.78233">
        <ele>221.4</ele>
        <time>2022-05-01T07:33:05Z</time>
      </trkpt>
      <trkpt lat="45.0806" lon="0.7823">
        <ele>221.2</ele>
        <time>2022-05-01T07:33:06Z</time>
      </trkpt>
      <trkpt lat="45.08054" lon="0.78227">
        <ele>221</ele>
        <time>2022-05-01T07:33:07Z</time>
      </trkpt>
      <trkpt lat="45.08044" lon="0.7822">
        <ele>220.7</ele>
        <time>2022-05-01T07:33:09Z</time>
      </trkpt>
      <trkpt lat="45.08039" lon="0.78217">
        <ele>220.6</ele>
        <time>2022-05-01T07:33:10Z</time>
      </trkpt>
      <trkpt lat="45.08034" lon="0.78214">
        <ele>220.4</ele>
        <time>2022-05-01T07:33:11Z</time>
      </trkpt>
      <trkpt lat="45.08021" lon="0.78209">
        <ele>219.9</ele>
        <time>2022-05-01T07:33:13Z</time>
      </trkpt>
      <trkpt lat="45.08017" lon="0.78209">
        <ele>219.7</ele>
        <time>2022-05-01T07:33:14Z</time>
      </trkpt>
      <trkpt lat="45.08012" lon="0.78209">
        <ele>219.5</ele>
        <time>2022-05-01T07:33:15Z</time>
      </trkpt>
      <trkpt lat="45.08005" lon="0.7821">
        <ele>219.3</ele>
        <time>2022-05-01T07:33:16Z</time>
      </trkpt>
      <trkpt lat="45.08003" lon="0.78211">
        <ele>219.2</ele>
        <time>2022-05-01T07:33:17Z</time>
      </trkpt>
      <trkpt lat="45.08" lon="0.78225">
        <ele>218.9</ele>
        <time>2022-05-01T07:33:19Z</time>
      </trkpt>
      <trkpt lat="45.07996" lon="0.78226">
        <ele>218.8</ele>
        <time>2022-05-01T07:33:20Z</time>
      </trkpt>
      <trkpt lat="45.07992" lon="0.78226">
        <ele>218.6</ele>
        <time>2022-05-01T07:33:21Z</time>
      </trkpt>
      <trkpt lat="45.07987" lon="0.78217">
        <ele>218.4</ele>
        <time>2022-05-01T07:33:23Z</time>
      </trkpt>
      <trkpt lat="45.07984" lon="0.78225">
        <ele>218.2</ele>
        <time>2022-05-01T07:33:24Z</time>
      </trkpt>
      <trkpt lat="45.07981" lon="0.78223">
        <ele>218.2</ele>
        <time>2022-05-01T07:33:25Z</time>
      </trkpt>
      <trkpt lat="45.07977" lon="0.78219">
        <ele>218.2</ele>
        <time>2022-05-01T07:33:27Z</time>
      </trkpt>
      <trkpt lat="45.07965" lon="0.78218">
        <ele>218.2</ele>
        <time>2022-05-01T07:33:29Z</time>
      </trkpt>
      <trkpt lat="45.07967" lon="0.78213">
        <ele>218.3</ele>
        <time>2022-05-01T07:33:30Z</time>
      </trkpt>
      <trkpt lat="45.07967" lon="0.78207">
        <ele>218.4</ele>
        <time>2022-05-01T07:33:31Z</time>
      </trkpt>
      <trkpt lat="45.0796" lon="0.7821">
        <ele>218.6</ele>
        <time>2022-05-01T07:33:33Z</time>
      </trkpt>
      <trkpt lat="45.07958" lon="0.78207">
        <ele>218.7</ele>
        <time>2022-05-01T07:33:34Z</time>
      </trkpt>
      <trkpt lat="45.07955" lon="0.78203">
        <ele>218.9</ele>
        <time>2022-05-01T07:33:35Z</time>
      </trkpt>
      <trkpt lat="45.07953" lon="0.782">
        <ele>219.1</ele>
        <time>2022-05-01T07:33:36Z</time>
      </trkpt>
      <trkpt lat="45.07951" lon="0.78197">
        <ele>219.2</ele>
        <time>2022-05-01T07:33:37Z</time>
      </trkpt>
      <trkpt lat="45.07949" lon="0.78195">
        <ele>219.3</ele>
        <time>2022-05-01T07:33:39Z</time>
      </trkpt>
      <trkpt lat="45.07948" lon="0.78192">
        <ele>219.5</ele>
        <time>2022-05-01T07:33:40Z</time>
      </trkpt>
      <trkpt lat="45.07946" lon="0.7819">
        <ele>219.6</ele>
        <time>2022-05-01T07:33:41Z</time>
      </trkpt>
      <trkpt lat="45.07944" lon="0.78189">
        <ele>219.8</ele>
        <time>2022-05-01T07:33:43Z</time>
      </trkpt>
      <trkpt lat="45.07943" lon="0.78188">
        <ele>219.9</ele>
        <time>2022-05-01T07:33:44Z</time>
      </trkpt>
      <trkpt lat="45.07942" lon="0.78187">
        <ele>220</ele>
        <time>2022-05-01T07:33:45Z</time>
      </trkpt>
      <trkpt lat="45.07937" lon="0.78184">
        <ele>220.5</ele>
        <time>2022-05-01T07:33:47Z</time>
      </trkpt>
      <trkpt lat="45.07934" lon="0.78182">
        <ele>220.8</ele>
        <time>2022-05-01T07:33:49Z</time>
      </trkpt>
      <trkpt lat="45.07932" lon="0.78181">
        <ele>221.2</ele>
        <time>2022-05-01T07:33:51Z</time>
      </trkpt>
      <trkpt lat="45.0793" lon="0.7818">
        <ele>221.4</ele>
        <time>2022-05-01T07:33:52Z</time>
      </trkpt>
      <trkpt lat="45.07929" lon="0.7818">
        <ele>221.5</ele>
        <time>2022-05-01T07:33:53Z</time>
      </trkpt>
      <trkpt lat="45.07926" lon="0.78179">
        <ele>222</ele>
        <time>2022-05-01T07:33:55Z</time>
      </trkpt>
      <trkpt lat="45.07922" lon="0.78177">
        <ele>222.7</ele>
        <time>2022-05-01T07:33:57Z</time>
      </trkpt>
      <trkpt lat="45.07918" lon="0.78177">
        <ele>223.1</ele>
        <time>2022-05-01T07:33:59Z</time>
      </trkpt>
      <trkpt lat="45.07915" lon="0.78177">
        <ele>223.5</ele>
        <time>2022-05-01T07:34:01Z</time>
      </trkpt>
      <trkpt lat="45.07912" lon="0.78177">
        <ele>224</ele>
        <time>2022-05-01T07:34:03Z</time>
      </trkpt>
      <trkpt lat="45.07908" lon="0.78177">
        <ele>224.5</ele>
        <time>2022-05-01T07:34:05Z</time>
      </trkpt>
      <trkpt lat="45.07905" lon="0.78177">
        <ele>224.8</ele>
        <time>2022-05-01T07:34:07Z</time>
      </trkpt>
      <trkpt lat="45.07904" lon="0.78177">
        <ele>225</ele>
        <time>2022-05-01T07:34:08Z</time>
      </trkpt>
      <trkpt lat="45.07903" lon="0.78177">
        <ele>225.1</ele>
        <time>2022-05-01T07:34:09Z</time>
      </trkpt>
      <trkpt lat="45.079" lon="0.78176">
        <ele>225.5</ele>
        <time>2022-05-01T07:34:11Z</time>
      </trkpt>
      <trkpt lat="45.07896" lon="0.78175">
        <ele>225.8</ele>
        <time>2022-05-01T07:34:13Z</time>
      </trkpt>
      <trkpt lat="45.07893" lon="0.78174">
        <ele>226.2</ele>
        <time>2022-05-01T07:34:15Z</time>
      </trkpt>
      <trkpt lat="45.07889" lon="0.78173">
        <ele>226.6</ele>
        <time>2022-05-01T07:34:17Z</time>
      </trkpt>
      <trkpt lat="45.07886" lon="0.78172">
        <ele>226.9</ele>
        <time>2022-05-01T07:34:19Z</time>
      </trkpt>
      <trkpt lat="45.07881" lon="0.78172">
        <ele>227.3</ele>
        <time>2022-05-01T07:34:21Z</time>
      </trkpt>
      <trkpt lat="45.07879" lon="0.78171">
        <ele>227.6</ele>
        <time>2022-05-01T07:34:23Z</time>
      </trkpt>
      <trkpt lat="45.07877" lon="0.7817">
        <ele>227.8</ele>
        <time>2022-05-01T07:34:24Z</time>
      </trkpt>
      <trkpt lat="45.07875" lon="0.7817">
        <ele>228</ele>
        <time>2022-05-01T07:34:25Z</time>
      </trkpt>
      <trkpt lat="45.0787" lon="0.78169">
        <ele>228.4</ele>
        <time>2022-05-01T07:34:27Z</time>
      </trkpt>
      <trkpt lat="45.07863" lon="0.78164">
        <ele>229.1</ele>
        <time>2022-05-01T07:34:29Z</time>
      </trkpt>
      <trkpt lat="45.07855" lon="0.78155">
        <ele>230</ele>
        <time>2022-05-01T07:34:31Z</time>
      </trkpt>
      <trkpt lat="45.07853" lon="0.78152">
        <ele>230.3</ele>
        <time>2022-05-01T07:34:32Z</time>
      </trkpt>
      <trkpt lat="45.07849" lon="0.78148">
        <ele>230.7</ele>
        <time>2022-05-01T07:34:33Z</time>
      </trkpt>
      <trkpt lat="45.07839" lon="0.78138">
        <ele>231.6</ele>
        <time>2022-05-01T07:34:35Z</time>
      </trkpt>
      <trkpt lat="45.07834" lon="0.78133">
        <ele>232.1</ele>
        <time>2022-05-01T07:34:36Z</time>
      </trkpt>
      <trkpt lat="45.0783" lon="0.78128">
        <ele>232.4</ele>
        <time>2022-05-01T07:34:37Z</time>
      </trkpt>
      <trkpt lat="45.07827" lon="0.78124">
        <ele>232.7</ele>
        <time>2022-05-01T07:34:38Z</time>
      </trkpt>
      <trkpt lat="45.07823" lon="0.78121">
        <ele>232.9</ele>
        <time>2022-05-01T07:34:39Z</time>
      </trkpt>
      <trkpt lat="45.0782" lon="0.78117">
        <ele>233.2</ele>
        <time>2022-05-01T07:34:40Z</time>
      </trkpt>
      <trkpt lat="45.07816" lon="0.78112">
        <ele>233.4</ele>
        <time>2022-05-01T07:34:41Z</time>
      </trkpt>
      <trkpt lat="45.07808" lon="0.78104">
        <ele>233.7</ele>
        <time>2022-05-01T07:34:43Z</time>
      </trkpt>
      <trkpt lat="45.07804" lon="0.781">
        <ele>233.7</ele>
        <time>2022-05-01T07:34:44Z</time>
      </trkpt>
      <trkpt lat="45.07804" lon="0.78094">
        <ele>233.6</ele>
        <time>2022-05-01T07:34:45Z</time>
      </trkpt>
      <trkpt lat="45.07806" lon="0.78089">
        <ele>233.5</ele>
        <time>2022-05-01T07:34:46Z</time>
      </trkpt>
      <trkpt lat="45.07807" lon="0.78084">
        <ele>233.2</ele>
        <time>2022-05-01T07:34:47Z</time>
      </trkpt>
      <trkpt lat="45.07809" lon="0.7808">
        <ele>233.1</ele>
        <time>2022-05-01T07:34:49Z</time>
      </trkpt>
      <trkpt lat="45.07811" lon="0.78075">
        <ele>233</ele>
        <time>2022-05-01T07:34:50Z</time>
      </trkpt>
      <trkpt lat="45.07812" lon="0.7807">
        <ele>232.8</ele>
        <time>2022-05-01T07:34:51Z</time>
      </trkpt>
      <trkpt lat="45.07814" lon="0.78065">
        <ele>232.5</ele>
        <time>2022-05-01T07:34:52Z</time>
      </trkpt>
      <trkpt lat="45.07815" lon="0.78061">
        <ele>232.4</ele>
        <time>2022-05-01T07:34:53Z</time>
      </trkpt>
      <trkpt lat="45.07817" lon="0.78056">
        <ele>232.3</ele>
        <time>2022-05-01T07:34:54Z</time>
      </trkpt>
      <trkpt lat="45.07818" lon="0.78051">
        <ele>231.8</ele>
        <time>2022-05-01T07:34:55Z</time>
      </trkpt>
      <trkpt lat="45.0782" lon="0.78047">
        <ele>231.7</ele>
        <time>2022-05-01T07:34:57Z</time>
      </trkpt>
      <trkpt lat="45.07822" lon="0.78042">
        <ele>231.7</ele>
        <time>2022-05-01T07:34:58Z</time>
      </trkpt>
      <trkpt lat="45.07823" lon="0.78037">
        <ele>231.1</ele>
        <time>2022-05-01T07:34:59Z</time>
      </trkpt>
      <trkpt lat="45.07825" lon="0.78032">
        <ele>231</ele>
        <time>2022-05-01T07:35:00Z</time>
      </trkpt>
      <trkpt lat="45.07826" lon="0.78028">
        <ele>230.3</ele>
        <time>2022-05-01T07:35:01Z</time>
      </trkpt>
      <trkpt lat="45.07828" lon="0.78023">
        <ele>230.2</ele>
        <time>2022-05-01T07:35:03Z</time>
      </trkpt>
      <trkpt lat="45.07829" lon="0.78018">
        <ele>229.3</ele>
        <time>2022-05-01T07:35:04Z</time>
      </trkpt>
      <trkpt lat="45.07861" lon="0.77941">
        <ele>222.4</ele>
        <time>2022-05-01T07:35:05Z</time>
      </trkpt>
      <trkpt lat="45.07874" lon="0.77927">
        <ele>219.4</ele>
        <time>2022-05-01T07:35:07Z</time>
      </trkpt>
      <trkpt lat="45.07885" lon="0.77909">
        <ele>218.3</ele>
        <time>2022-05-01T07:35:09Z</time>
      </trkpt>
      <trkpt lat="45.07889" lon="0.77897">
        <ele>216.6</ele>
        <time>2022-05-01T07:35:10Z</time>
      </trkpt>
      <trkpt lat="45.0789" lon="0.77886">
        <ele>216.5</ele>
        <time>2022-05-01T07:35:11Z</time>
      </trkpt>
      <trkpt lat="45.0789" lon="0.77878">
        <ele>216</ele>
        <time>2022-05-01T07:35:12Z</time>
      </trkpt>
      <trkpt lat="45.07891" lon="0.77871">
        <ele>216</ele>
        <time>2022-05-01T07:35:13Z</time>
      </trkpt>
      <trkpt lat="45.07894" lon="0.77861">
        <ele>215.6</ele>
        <time>2022-05-01T07:35:15Z</time>
      </trkpt>
      <trkpt lat="45.07897" lon="0.77852">
        <ele>215.6</ele>
        <time>2022-05-01T07:35:17Z</time>
      </trkpt>
      <trkpt lat="45.07901" lon="0.77847">
        <ele>215.5</ele>
        <time>2022-05-01T07:35:19Z</time>
      </trkpt>
      <trkpt lat="45.07903" lon="0.77844">
        <ele>215.4</ele>
        <time>2022-05-01T07:35:20Z</time>
      </trkpt>
      <trkpt lat="45.07904" lon="0.77842">
        <ele>215.4</ele>
        <time>2022-05-01T07:35:21Z</time>
      </trkpt>
      <trkpt lat="45.07906" lon="0.77836">
        <ele>215.3</ele>
        <time>2022-05-01T07:35:23Z</time>
      </trkpt>
      <trkpt lat="45.07915" lon="0.7783">
        <ele>216</ele>
        <time>2022-05-01T07:35:25Z</time>
      </trkpt>
      <trkpt lat="45.07917" lon="0.77827">
        <ele>215.9</ele>
        <time>2022-05-01T07:35:26Z</time>
      </trkpt>
      <trkpt lat="45.0792" lon="0.77824">
        <ele>215.8</ele>
        <time>2022-05-01T07:35:27Z</time>
      </trkpt>
      <trkpt lat="45.07926" lon="0.77819">
        <ele>216.5</ele>
        <time>2022-05-01T07:35:29Z</time>
      </trkpt>
      <trkpt lat="45.0793" lon="0.77816">
        <ele>216.4</ele>
        <time>2022-05-01T07:35:31Z</time>
      </trkpt>
      <trkpt lat="45.07934" lon="0.77814">
        <ele>217.2</ele>
        <time>2022-05-01T07:35:33Z</time>
      </trkpt>
      <trkpt lat="45.07936" lon="0.77812">
        <ele>217.1</ele>
        <time>2022-05-01T07:35:35Z</time>
      </trkpt>
      <trkpt lat="45.07938" lon="0.77813">
        <ele>217.1</ele>
        <time>2022-05-01T07:35:37Z</time>
      </trkpt>
      <trkpt lat="45.07941" lon="0.77813">
        <ele>217</ele>
        <time>2022-05-01T07:35:39Z</time>
      </trkpt>
      <trkpt lat="45.07942" lon="0.77811">
        <ele>216.9</ele>
        <time>2022-05-01T07:35:41Z</time>
      </trkpt>
      <trkpt lat="45.07945" lon="0.77809">
        <ele>216.9</ele>
        <time>2022-05-01T07:35:43Z</time>
      </trkpt>
      <trkpt lat="45.07947" lon="0.77807">
        <ele>217.5</ele>
        <time>2022-05-01T07:35:45Z</time>
      </trkpt>
      <trkpt lat="45.0795" lon="0.77806">
        <ele>217.5</ele>
        <time>2022-05-01T07:35:47Z</time>
      </trkpt>
      <trkpt lat="45.07952" lon="0.77804">
        <ele>217.4</ele>
        <time>2022-05-01T07:35:49Z</time>
      </trkpt>
      <trkpt lat="45.07953" lon="0.77804">
        <ele>217.3</ele>
        <time>2022-05-01T07:35:51Z</time>
      </trkpt>
      <trkpt lat="45.07955" lon="0.77802">
        <ele>217.3</ele>
        <time>2022-05-01T07:35:52Z</time>
      </trkpt>
      <trkpt lat="45.07956" lon="0.778">
        <ele>217.2</ele>
        <time>2022-05-01T07:35:53Z</time>
      </trkpt>
      <trkpt lat="45.07959" lon="0.77796">
        <ele>218.3</ele>
        <time>2022-05-01T07:35:55Z</time>
      </trkpt>
      <trkpt lat="45.07962" lon="0.77792">
        <ele>218.3</ele>
        <time>2022-05-01T07:35:57Z</time>
      </trkpt>
      <trkpt lat="45.07965" lon="0.77789">
        <ele>218.2</ele>
        <time>2022-05-01T07:35:59Z</time>
      </trkpt>
      <trkpt lat="45.07968" lon="0.77785">
        <ele>218.1</ele>
        <time>2022-05-01T07:36:01Z</time>
      </trkpt>
      <trkpt lat="45.07969" lon="0.77783">
        <ele>218.1</ele>
        <time>2022-05-01T07:36:02Z</time>
      </trkpt>
      <trkpt lat="45.07971" lon="0.77782">
        <ele>219.3</ele>
        <time>2022-05-01T07:36:03Z</time>
      </trkpt>
      <trkpt lat="45.07974" lon="0.77778">
        <ele>219.5</ele>
        <time>2022-05-01T07:36:05Z</time>
      </trkpt>
      <trkpt lat="45.07977" lon="0.77775">
        <ele>219.5</ele>
        <time>2022-05-01T07:36:07Z</time>
      </trkpt>
      <trkpt lat="45.0798" lon="0.77773">
        <ele>219.4</ele>
        <time>2022-05-01T07:36:09Z</time>
      </trkpt>
      <trkpt lat="45.07982" lon="0.77773">
        <ele>219.3</ele>
        <time>2022-05-01T07:36:10Z</time>
      </trkpt>
      <trkpt lat="45.07984" lon="0.77772">
        <ele>220.3</ele>
        <time>2022-05-01T07:36:11Z</time>
      </trkpt>
      <trkpt lat="45.07987" lon="0.7777">
        <ele>220.2</ele>
        <time>2022-05-01T07:36:13Z</time>
      </trkpt>
      <trkpt lat="45.07989" lon="0.77769">
        <ele>220.2</ele>
        <time>2022-05-01T07:36:14Z</time>
      </trkpt>
      <trkpt lat="45.07991" lon="0.77768">
        <ele>220.1</ele>
        <time>2022-05-01T07:36:15Z</time>
      </trkpt>
      <trkpt lat="45.07993" lon="0.77767">
        <ele>220</ele>
        <time>2022-05-01T07:36:17Z</time>
      </trkpt>
      <trkpt lat="45.07996" lon="0.77766">
        <ele>220.8</ele>
        <time>2022-05-01T07:36:19Z</time>
      </trkpt>
      <trkpt lat="45.07998" lon="0.77765">
        <ele>220.8</ele>
        <time>2022-05-01T07:36:20Z</time>
      </trkpt>
      <trkpt lat="45.08" lon="0.77764">
        <ele>220.7</ele>
        <time>2022-05-01T07:36:21Z</time>
      </trkpt>
      <trkpt lat="45.08004" lon="0.77761">
        <ele>220.9</ele>
        <time>2022-05-01T07:36:23Z</time>
      </trkpt>
      <trkpt lat="45.08008" lon="0.77759">
        <ele>221.3</ele>
        <time>2022-05-01T07:36:25Z</time>
      </trkpt>
      <trkpt lat="45.08011" lon="0.77757">
        <ele>221.3</ele>
        <time>2022-05-01T07:36:27Z</time>
      </trkpt>
      <trkpt lat="45.08015" lon="0.77755">
        <ele>221.2</ele>
        <time>2022-05-01T07:36:29Z</time>
      </trkpt>
      <trkpt lat="45.08016" lon="0.77753">
        <ele>221.1</ele>
        <time>2022-05-01T07:36:30Z</time>
      </trkpt>
      <trkpt lat="45.08018" lon="0.77752">
        <ele>221</ele>
        <time>2022-05-01T07:36:31Z</time>
      </trkpt>
      <trkpt lat="45.08022" lon="0.7775">
        <ele>221.6</ele>
        <time>2022-05-01T07:36:33Z</time>
      </trkpt>
      <trkpt lat="45.08028" lon="0.77748">
        <ele>221.5</ele>
        <time>2022-05-01T07:36:35Z</time>
      </trkpt>
      <trkpt lat="45.08031" lon="0.77746">
        <ele>222.6</ele>
        <time>2022-05-01T07:36:37Z</time>
      </trkpt>
      <trkpt lat="45.08035" lon="0.77745">
        <ele>222.9</ele>
        <time>2022-05-01T07:36:39Z</time>
      </trkpt>
      <trkpt lat="45.08041" lon="0.77743">
        <ele>222.8</ele>
        <time>2022-05-01T07:36:41Z</time>
      </trkpt>
      <trkpt lat="45.08045" lon="0.77742">
        <ele>224.1</ele>
        <time>2022-05-01T07:36:43Z</time>
      </trkpt>
      <trkpt lat="45.08049" lon="0.77739">
        <ele>224</ele>
        <time>2022-05-01T07:36:45Z</time>
      </trkpt>
      <trkpt lat="45.08052" lon="0.77737">
        <ele>224</ele>
        <time>2022-05-01T07:36:47Z</time>
      </trkpt>
      <trkpt lat="45.08058" lon="0.77735">
        <ele>225.6</ele>
        <time>2022-05-01T07:36:49Z</time>
      </trkpt>
      <trkpt lat="45.08062" lon="0.77734">
        <ele>225.5</ele>
        <time>2022-05-01T07:36:51Z</time>
      </trkpt>
      <trkpt lat="45.08064" lon="0.77733">
        <ele>225.4</ele>
        <time>2022-05-01T07:36:52Z</time>
      </trkpt>
      <trkpt lat="45.08065" lon="0.77733">
        <ele>225.4</ele>
        <time>2022-05-01T07:36:53Z</time>
      </trkpt>
      <trkpt lat="45.0807" lon="0.77733">
        <ele>226.7</ele>
        <time>2022-05-01T07:36:55Z</time>
      </trkpt>
      <trkpt lat="45.08074" lon="0.77731">
        <ele>226.6</ele>
        <time>2022-05-01T07:36:57Z</time>
      </trkpt>
      <trkpt lat="45.08078" lon="0.7773">
        <ele>226.6</ele>
        <time>2022-05-01T07:36:59Z</time>
      </trkpt>
      <trkpt lat="45.08081" lon="0.7773">
        <ele>227.7</ele>
        <time>2022-05-01T07:37:01Z</time>
      </trkpt>
      <trkpt lat="45.08085" lon="0.77729">
        <ele>227.6</ele>
        <time>2022-05-01T07:37:03Z</time>
      </trkpt>
      <trkpt lat="45.08088" lon="0.77728">
        <ele>227.5</ele>
        <time>2022-05-01T07:37:05Z</time>
      </trkpt>
      <trkpt lat="45.08092" lon="0.77727">
        <ele>228.3</ele>
        <time>2022-05-01T07:37:07Z</time>
      </trkpt>
      <trkpt lat="45.08096" lon="0.77727">
        <ele>228.3</ele>
        <time>2022-05-01T07:37:09Z</time>
      </trkpt>
      <trkpt lat="45.08099" lon="0.77726">
        <ele>228.2</ele>
        <time>2022-05-01T07:37:11Z</time>
      </trkpt>
      <trkpt lat="45.08103" lon="0.77726">
        <ele>228.1</ele>
        <time>2022-05-01T07:37:13Z</time>
      </trkpt>
      <trkpt lat="45.08105" lon="0.77726">
        <ele>228.8</ele>
        <time>2022-05-01T07:37:15Z</time>
      </trkpt>
      <trkpt lat="45.08108" lon="0.77726">
        <ele>228.8</ele>
        <time>2022-05-01T07:37:16Z</time>
      </trkpt>
      <trkpt lat="45.08108" lon="0.77724">
        <ele>228.7</ele>
        <time>2022-05-01T07:37:17Z</time>
      </trkpt>
      <trkpt lat="45.0811" lon="0.77723">
        <ele>228.6</ele>
        <time>2022-05-01T07:37:19Z</time>
      </trkpt>
      <trkpt lat="45.08111" lon="0.77722">
        <ele>228.6</ele>
        <time>2022-05-01T07:37:20Z</time>
      </trkpt>
      <trkpt lat="45.08123" lon="0.77707">
        <ele>229.5</ele>
        <time>2022-05-01T07:37:29Z</time>
      </trkpt>
      <trkpt lat="45.08127" lon="0.77702">
        <ele>229.4</ele>
        <time>2022-05-01T07:37:31Z</time>
      </trkpt>
      <trkpt lat="45.08129" lon="0.77696">
        <ele>230</ele>
        <time>2022-05-01T07:37:33Z</time>
      </trkpt>
      <trkpt lat="45.08131" lon="0.77691">
        <ele>230.5</ele>
        <time>2022-05-01T07:37:35Z</time>
      </trkpt>
      <trkpt lat="45.08133" lon="0.77685">
        <ele>230.4</ele>
        <time>2022-05-01T07:37:37Z</time>
      </trkpt>
      <trkpt lat="45.08134" lon="0.7768">
        <ele>230.3</ele>
        <time>2022-05-01T07:37:39Z</time>
      </trkpt>
      <trkpt lat="45.08135" lon="0.77677">
        <ele>230.3</ele>
        <time>2022-05-01T07:37:40Z</time>
      </trkpt>
      <trkpt lat="45.08135" lon="0.77674">
        <ele>230.6</ele>
        <time>2022-05-01T07:37:41Z</time>
      </trkpt>
      <trkpt lat="45.08135" lon="0.7767">
        <ele>230.5</ele>
        <time>2022-05-01T07:37:42Z</time>
      </trkpt>
      <trkpt lat="45.08136" lon="0.77667">
        <ele>230.5</ele>
        <time>2022-05-01T07:37:43Z</time>
      </trkpt>
      <trkpt lat="45.08138" lon="0.77661">
        <ele>230.4</ele>
        <time>2022-05-01T07:37:45Z</time>
      </trkpt>
      <trkpt lat="45.08139" lon="0.77653">
        <ele>230.7</ele>
        <time>2022-05-01T07:37:47Z</time>
      </trkpt>
      <trkpt lat="45.08142" lon="0.77646">
        <ele>231.2</ele>
        <time>2022-05-01T07:37:49Z</time>
      </trkpt>
      <trkpt lat="45.08146" lon="0.7764">
        <ele>231.5</ele>
        <time>2022-05-01T07:37:51Z</time>
      </trkpt>
      <trkpt lat="45.0815" lon="0.77636">
        <ele>231.5</ele>
        <time>2022-05-01T07:37:53Z</time>
      </trkpt>
      <trkpt lat="45.08153" lon="0.77631">
        <ele>231.8</ele>
        <time>2022-05-01T07:37:55Z</time>
      </trkpt>
      <trkpt lat="45.08153" lon="0.77628">
        <ele>231.7</ele>
        <time>2022-05-01T07:37:56Z</time>
      </trkpt>
      <trkpt lat="45.08154" lon="0.77625">
        <ele>231.6</ele>
        <time>2022-05-01T07:37:57Z</time>
      </trkpt>
      <trkpt lat="45.08156" lon="0.77623">
        <ele>231.7</ele>
        <time>2022-05-01T07:37:58Z</time>
      </trkpt>
      <trkpt lat="45.08158" lon="0.77622">
        <ele>231.6</ele>
        <time>2022-05-01T07:37:59Z</time>
      </trkpt>
      <trkpt lat="45.0816" lon="0.77621">
        <ele>231.6</ele>
        <time>2022-05-01T07:38:00Z</time>
      </trkpt>
      <trkpt lat="45.08161" lon="0.77621">
        <ele>231.5</ele>
        <time>2022-05-01T07:38:01Z</time>
      </trkpt>
      <trkpt lat="45.08161" lon="0.77618">
        <ele>231.4</ele>
        <time>2022-05-01T07:38:02Z</time>
      </trkpt>
      <trkpt lat="45.08163" lon="0.77616">
        <ele>231.4</ele>
        <time>2022-05-01T07:38:03Z</time>
      </trkpt>
      <trkpt lat="45.08166" lon="0.77613">
        <ele>231.7</ele>
        <time>2022-05-01T07:38:05Z</time>
      </trkpt>
      <trkpt lat="45.08167" lon="0.77612">
        <ele>231.6</ele>
        <time>2022-05-01T07:38:06Z</time>
      </trkpt>
      <trkpt lat="45.08168" lon="0.77611">
        <ele>231.5</ele>
        <time>2022-05-01T07:38:07Z</time>
      </trkpt>
      <trkpt lat="45.08173" lon="0.77599">
        <ele>231.3</ele>
        <time>2022-05-01T07:38:09Z</time>
      </trkpt>
      <trkpt lat="45.08177" lon="0.77601">
        <ele>231.5</ele>
        <time>2022-05-01T07:38:11Z</time>
      </trkpt>
      <trkpt lat="45.0818" lon="0.77603">
        <ele>231.6</ele>
        <time>2022-05-01T07:38:13Z</time>
      </trkpt>
      <trkpt lat="45.08185" lon="0.77606">
        <ele>231.7</ele>
        <time>2022-05-01T07:38:15Z</time>
      </trkpt>
      <trkpt lat="45.08189" lon="0.77607">
        <ele>231.8</ele>
        <time>2022-05-01T07:38:17Z</time>
      </trkpt>
      <trkpt lat="45.08194" lon="0.77609">
        <ele>232</ele>
        <time>2022-05-01T07:38:19Z</time>
      </trkpt>
      <trkpt lat="45.08197" lon="0.77609">
        <ele>232</ele>
        <time>2022-05-01T07:38:20Z</time>
      </trkpt>
      <trkpt lat="45.08198" lon="0.7761">
        <ele>232.1</ele>
        <time>2022-05-01T07:38:21Z</time>
      </trkpt>
      <trkpt lat="45.08202" lon="0.77611">
        <ele>232.2</ele>
        <time>2022-05-01T07:38:23Z</time>
      </trkpt>
      <trkpt lat="45.08204" lon="0.77612">
        <ele>232.2</ele>
        <time>2022-05-01T07:38:24Z</time>
      </trkpt>
      <trkpt lat="45.08206" lon="0.77613">
        <ele>232.3</ele>
        <time>2022-05-01T07:38:25Z</time>
      </trkpt>
      <trkpt lat="45.0821" lon="0.77614">
        <ele>232.4</ele>
        <time>2022-05-01T07:38:27Z</time>
      </trkpt>
      <trkpt lat="45.08212" lon="0.77614">
        <ele>232.5</ele>
        <time>2022-05-01T07:38:28Z</time>
      </trkpt>
      <trkpt lat="45.08214" lon="0.77615">
        <ele>232.5</ele>
        <time>2022-05-01T07:38:29Z</time>
      </trkpt>
      <trkpt lat="45.0822" lon="0.77617">
        <ele>232.7</ele>
        <time>2022-05-01T07:38:31Z</time>
      </trkpt>
      <trkpt lat="45.08225" lon="0.77616">
        <ele>232.8</ele>
        <time>2022-05-01T07:38:33Z</time>
      </trkpt>
      <trkpt lat="45.0823" lon="0.77616">
        <ele>233</ele>
        <time>2022-05-01T07:38:35Z</time>
      </trkpt>
      <trkpt lat="45.08231" lon="0.77616">
        <ele>233</ele>
        <time>2022-05-01T07:38:36Z</time>
      </trkpt>
      <trkpt lat="45.08233" lon="0.77616">
        <ele>233</ele>
        <time>2022-05-01T07:38:37Z</time>
      </trkpt>
      <trkpt lat="45.08236" lon="0.77616">
        <ele>233.1</ele>
        <time>2022-05-01T07:38:38Z</time>
      </trkpt>
      <trkpt lat="45.08239" lon="0.77616">
        <ele>233.2</ele>
        <time>2022-05-01T07:38:39Z</time>
      </trkpt>
      <trkpt lat="45.08246" lon="0.77615">
        <ele>233.4</ele>
        <time>2022-05-01T07:38:41Z</time>
      </trkpt>
      <trkpt lat="45.08252" lon="0.77615">
        <ele>233.6</ele>
        <time>2022-05-01T07:38:43Z</time>
      </trkpt>
      <trkpt lat="45.08259" lon="0.77614">
        <ele>233.8</ele>
        <time>2022-05-01T07:38:45Z</time>
      </trkpt>
      <trkpt lat="45.08265" lon="0.77612">
        <ele>233.9</ele>
        <time>2022-05-01T07:38:47Z</time>
      </trkpt>
      <trkpt lat="45.08272" lon="0.7761">
        <ele>234.1</ele>
        <time>2022-05-01T07:38:49Z</time>
      </trkpt>
      <trkpt lat="45.08278" lon="0.77608">
        <ele>234.3</ele>
        <time>2022-05-01T07:38:51Z</time>
      </trkpt>
      <trkpt lat="45.08286" lon="0.77606">
        <ele>234.5</ele>
        <time>2022-05-01T07:38:53Z</time>
      </trkpt>
      <trkpt lat="45.0829" lon="0.77605">
        <ele>234.6</ele>
        <time>2022-05-01T07:38:54Z</time>
      </trkpt>
      <trkpt lat="45.08294" lon="0.77603">
        <ele>234.7</ele>
        <time>2022-05-01T07:38:55Z</time>
      </trkpt>
      <trkpt lat="45.08301" lon="0.77601">
        <ele>234.9</ele>
        <time>2022-05-01T07:38:57Z</time>
      </trkpt>
      <trkpt lat="45.08308" lon="0.77599">
        <ele>235.1</ele>
        <time>2022-05-01T07:38:59Z</time>
      </trkpt>
      <trkpt lat="45.08316" lon="0.77596">
        <ele>235.4</ele>
        <time>2022-05-01T07:39:01Z</time>
      </trkpt>
      <trkpt lat="45.08325" lon="0.77594">
        <ele>235.6</ele>
        <time>2022-05-01T07:39:03Z</time>
      </trkpt>
      <trkpt lat="45.08329" lon="0.77592">
        <ele>235.7</ele>
        <time>2022-05-01T07:39:04Z</time>
      </trkpt>
      <trkpt lat="45.08333" lon="0.77591">
        <ele>235.9</ele>
        <time>2022-05-01T07:39:05Z</time>
      </trkpt>
      <trkpt lat="45.08341" lon="0.77587">
        <ele>236.1</ele>
        <time>2022-05-01T07:39:07Z</time>
      </trkpt>
      <trkpt lat="45.08349" lon="0.77582">
        <ele>236.3</ele>
        <time>2022-05-01T07:39:09Z</time>
      </trkpt>
      <trkpt lat="45.08352" lon="0.7758">
        <ele>236.4</ele>
        <time>2022-05-01T07:39:10Z</time>
      </trkpt>
      <trkpt lat="45.08356" lon="0.77578">
        <ele>236.5</ele>
        <time>2022-05-01T07:39:11Z</time>
      </trkpt>
      <trkpt lat="45.08362" lon="0.77572">
        <ele>236.7</ele>
        <time>2022-05-01T07:39:13Z</time>
      </trkpt>
      <trkpt lat="45.08369" lon="0.77566">
        <ele>236.9</ele>
        <time>2022-05-01T07:39:15Z</time>
      </trkpt>
      <trkpt lat="45.08375" lon="0.77561">
        <ele>237.1</ele>
        <time>2022-05-01T07:39:17Z</time>
      </trkpt>
      <trkpt lat="45.08381" lon="0.77555">
        <ele>237.3</ele>
        <time>2022-05-01T07:39:19Z</time>
      </trkpt>
      <trkpt lat="45.08387" lon="0.77551">
        <ele>237.5</ele>
        <time>2022-05-01T07:39:21Z</time>
      </trkpt>
      <trkpt lat="45.08394" lon="0.77547">
        <ele>237.7</ele>
        <time>2022-05-01T07:39:23Z</time>
      </trkpt>
      <trkpt lat="45.084" lon="0.77543">
        <ele>237.9</ele>
        <time>2022-05-01T07:39:25Z</time>
      </trkpt>
      <trkpt lat="45.08406" lon="0.7754">
        <ele>238.1</ele>
        <time>2022-05-01T07:39:27Z</time>
      </trkpt>
      <trkpt lat="45.08412" lon="0.77538">
        <ele>238.3</ele>
        <time>2022-05-01T07:39:29Z</time>
      </trkpt>
      <trkpt lat="45.08418" lon="0.77535">
        <ele>238.4</ele>
        <time>2022-05-01T07:39:31Z</time>
      </trkpt>
      <trkpt lat="45.08424" lon="0.77534">
        <ele>238.6</ele>
        <time>2022-05-01T07:39:33Z</time>
      </trkpt>
      <trkpt lat="45.0843" lon="0.77534">
        <ele>238.8</ele>
        <time>2022-05-01T07:39:35Z</time>
      </trkpt>
      <trkpt lat="45.08436" lon="0.77533">
        <ele>238.9</ele>
        <time>2022-05-01T07:39:37Z</time>
      </trkpt>
      <trkpt lat="45.08439" lon="0.77534">
        <ele>239</ele>
        <time>2022-05-01T07:39:38Z</time>
      </trkpt>
      <trkpt lat="45.08441" lon="0.77534">
        <ele>239.1</ele>
        <time>2022-05-01T07:39:39Z</time>
      </trkpt>
      <trkpt lat="45.08447" lon="0.77535">
        <ele>239.2</ele>
        <time>2022-05-01T07:39:41Z</time>
      </trkpt>
      <trkpt lat="45.08452" lon="0.77537">
        <ele>239.5</ele>
        <time>2022-05-01T07:39:43Z</time>
      </trkpt>
      <trkpt lat="45.08457" lon="0.7754">
        <ele>239.8</ele>
        <time>2022-05-01T07:39:45Z</time>
      </trkpt>
      <trkpt lat="45.0846" lon="0.77542">
        <ele>239.9</ele>
        <time>2022-05-01T07:39:46Z</time>
      </trkpt>
      <trkpt lat="45.08463" lon="0.77544">
        <ele>240.1</ele>
        <time>2022-05-01T07:39:47Z</time>
      </trkpt>
      <trkpt lat="45.08468" lon="0.77548">
        <ele>240.4</ele>
        <time>2022-05-01T07:39:49Z</time>
      </trkpt>
      <trkpt lat="45.08473" lon="0.77551">
        <ele>240.7</ele>
        <time>2022-05-01T07:39:51Z</time>
      </trkpt>
      <trkpt lat="45.08478" lon="0.77554">
        <ele>240.9</ele>
        <time>2022-05-01T07:39:53Z</time>
      </trkpt>
      <trkpt lat="45.08483" lon="0.77558">
        <ele>241.2</ele>
        <time>2022-05-01T07:39:55Z</time>
      </trkpt>
      <trkpt lat="45.08489" lon="0.77562">
        <ele>241.5</ele>
        <time>2022-05-01T07:39:57Z</time>
      </trkpt>
      <trkpt lat="45.08494" lon="0.77565">
        <ele>241.7</ele>
        <time>2022-05-01T07:39:59Z</time>
      </trkpt>
      <trkpt lat="45.085" lon="0.77568">
        <ele>242</ele>
        <time>2022-05-01T07:40:01Z</time>
      </trkpt>
      <trkpt lat="45.08506" lon="0.7757">
        <ele>242.2</ele>
        <time>2022-05-01T07:40:03Z</time>
      </trkpt>
      <trkpt lat="45.08512" lon="0.77571">
        <ele>242.3</ele>
        <time>2022-05-01T07:40:05Z</time>
      </trkpt>
      <trkpt lat="45.08518" lon="0.77573">
        <ele>242.5</ele>
        <time>2022-05-01T07:40:07Z</time>
      </trkpt>
      <trkpt lat="45.08524" lon="0.77575">
        <ele>242.6</ele>
        <time>2022-05-01T07:40:09Z</time>
      </trkpt>
      <trkpt lat="45.08531" lon="0.77577">
        <ele>242.7</ele>
        <time>2022-05-01T07:40:11Z</time>
      </trkpt>
      <trkpt lat="45.08537" lon="0.77578">
        <ele>242.8</ele>
        <time>2022-05-01T07:40:13Z</time>
      </trkpt>
      <trkpt lat="45.08544" lon="0.77578">
        <ele>242.9</ele>
        <time>2022-05-01T07:40:15Z</time>
      </trkpt>
      <trkpt lat="45.0855" lon="0.77577">
        <ele>243</ele>
        <time>2022-05-01T07:40:17Z</time>
      </trkpt>
      <trkpt lat="45.08552" lon="0.77577">
        <ele>243</ele>
        <time>2022-05-01T07:40:18Z</time>
      </trkpt>
      <trkpt lat="45.08556" lon="0.77576">
        <ele>243.1</ele>
        <time>2022-05-01T07:40:19Z</time>
      </trkpt>
      <trkpt lat="45.08561" lon="0.77574">
        <ele>243.2</ele>
        <time>2022-05-01T07:40:21Z</time>
      </trkpt>
      <trkpt lat="45.08564" lon="0.77573">
        <ele>243.2</ele>
        <time>2022-05-01T07:40:22Z</time>
      </trkpt>
      <trkpt lat="45.08566" lon="0.77572">
        <ele>243.3</ele>
        <time>2022-05-01T07:40:23Z</time>
      </trkpt>
      <trkpt lat="45.08567" lon="0.77571">
        <ele>243.3</ele>
        <time>2022-05-01T07:40:24Z</time>
      </trkpt>
      <trkpt lat="45.08569" lon="0.7757">
        <ele>243.3</ele>
        <time>2022-05-01T07:40:25Z</time>
      </trkpt>
      <trkpt lat="45.08572" lon="0.77568">
        <ele>243.4</ele>
        <time>2022-05-01T07:40:27Z</time>
      </trkpt>
      <trkpt lat="45.08575" lon="0.77566">
        <ele>243.5</ele>
        <time>2022-05-01T07:40:29Z</time>
      </trkpt>
      <trkpt lat="45.08578" lon="0.77564">
        <ele>243.6</ele>
        <time>2022-05-01T07:40:30Z</time>
      </trkpt>
      <trkpt lat="45.08581" lon="0.77563">
        <ele>243.6</ele>
        <time>2022-05-01T07:40:31Z</time>
      </trkpt>
      <trkpt lat="45.08587" lon="0.77559">
        <ele>243.7</ele>
        <time>2022-05-01T07:40:33Z</time>
      </trkpt>
      <trkpt lat="45.0859" lon="0.77558">
        <ele>243.8</ele>
        <time>2022-05-01T07:40:34Z</time>
      </trkpt>
      <trkpt lat="45.08593" lon="0.77556">
        <ele>243.8</ele>
        <time>2022-05-01T07:40:35Z</time>
      </trkpt>
      <trkpt lat="45.086" lon="0.77552">
        <ele>243.9</ele>
        <time>2022-05-01T07:40:37Z</time>
      </trkpt>
      <trkpt lat="45.08606" lon="0.77548">
        <ele>243.9</ele>
        <time>2022-05-01T07:40:39Z</time>
      </trkpt>
      <trkpt lat="45.0861" lon="0.77546">
        <ele>244</ele>
        <time>2022-05-01T07:40:41Z</time>
      </trkpt>
      <trkpt lat="45.08616" lon="0.77543">
        <ele>244</ele>
        <time>2022-05-01T07:40:43Z</time>
      </trkpt>
      <trkpt lat="45.08621" lon="0.77539">
        <ele>244.1</ele>
        <time>2022-05-01T07:40:45Z</time>
      </trkpt>
      <trkpt lat="45.08622" lon="0.77539">
        <ele>244.1</ele>
        <time>2022-05-01T07:40:46Z</time>
      </trkpt>
      <trkpt lat="45.08624" lon="0.77537">
        <ele>244.1</ele>
        <time>2022-05-01T07:40:47Z</time>
      </trkpt>
      <trkpt lat="45.0863" lon="0.77534">
        <ele>244.2</ele>
        <time>2022-05-01T07:40:49Z</time>
      </trkpt>
      <trkpt lat="45.08633" lon="0.77532">
        <ele>244.3</ele>
        <time>2022-05-01T07:40:50Z</time>
      </trkpt>
      <trkpt lat="45.08636" lon="0.7753">
        <ele>244.3</ele>
        <time>2022-05-01T07:40:51Z</time>
      </trkpt>
      <trkpt lat="45.08643" lon="0.77527">
        <ele>244.5</ele>
        <time>2022-05-01T07:40:53Z</time>
      </trkpt>
      <trkpt lat="45.0865" lon="0.77523">
        <ele>244.6</ele>
        <time>2022-05-01T07:40:55Z</time>
      </trkpt>
      <trkpt lat="45.08653" lon="0.77521">
        <ele>244.7</ele>
        <time>2022-05-01T07:40:56Z</time>
      </trkpt>
      <trkpt lat="45.08656" lon="0.77519">
        <ele>244.7</ele>
        <time>2022-05-01T07:40:57Z</time>
      </trkpt>
      <trkpt lat="45.08661" lon="0.77514">
        <ele>244.9</ele>
        <time>2022-05-01T07:40:59Z</time>
      </trkpt>
      <trkpt lat="45.08663" lon="0.77507">
        <ele>245</ele>
        <time>2022-05-01T07:41:00Z</time>
      </trkpt>
      <trkpt lat="45.08663" lon="0.77501">
        <ele>244.8</ele>
        <time>2022-05-01T07:41:01Z</time>
      </trkpt>
      <trkpt lat="45.0866" lon="0.77498">
        <ele>244.6</ele>
        <time>2022-05-01T07:41:03Z</time>
      </trkpt>
      <trkpt lat="45.08657" lon="0.77496">
        <ele>244.5</ele>
        <time>2022-05-01T07:41:04Z</time>
      </trkpt>
      <trkpt lat="45.08655" lon="0.77493">
        <ele>244.4</ele>
        <time>2022-05-01T07:41:05Z</time>
      </trkpt>
      <trkpt lat="45.08649" lon="0.77487">
        <ele>244</ele>
        <time>2022-05-01T07:41:07Z</time>
      </trkpt>
      <trkpt lat="45.08646" lon="0.77483">
        <ele>243.9</ele>
        <time>2022-05-01T07:41:08Z</time>
      </trkpt>
      <trkpt lat="45.08643" lon="0.77479">
        <ele>243.7</ele>
        <time>2022-05-01T07:41:09Z</time>
      </trkpt>
      <trkpt lat="45.08637" lon="0.7747">
        <ele>243.4</ele>
        <time>2022-05-01T07:41:11Z</time>
      </trkpt>
      <trkpt lat="45.08635" lon="0.77465">
        <ele>243.2</ele>
        <time>2022-05-01T07:41:12Z</time>
      </trkpt>
      <trkpt lat="45.08631" lon="0.7746">
        <ele>243</ele>
        <time>2022-05-01T07:41:13Z</time>
      </trkpt>
      <trkpt lat="45.08628" lon="0.77454">
        <ele>242.7</ele>
        <time>2022-05-01T07:41:14Z</time>
      </trkpt>
      <trkpt lat="45.08627" lon="0.77449">
        <ele>242.6</ele>
        <time>2022-05-01T07:41:15Z</time>
      </trkpt>
      <trkpt lat="45.08623" lon="0.77436">
        <ele>242.1</ele>
        <time>2022-05-01T07:41:17Z</time>
      </trkpt>
      <trkpt lat="45.08621" lon="0.7743">
        <ele>241.8</ele>
        <time>2022-05-01T07:41:18Z</time>
      </trkpt>
      <trkpt lat="45.08618" lon="0.77423">
        <ele>241.4</ele>
        <time>2022-05-01T07:41:19Z</time>
      </trkpt>
      <trkpt lat="45.08614" lon="0.77408">
        <ele>240.5</ele>
        <time>2022-05-01T07:41:21Z</time>
      </trkpt>
      <trkpt lat="45.08609" lon="0.77392">
        <ele>239.5</ele>
        <time>2022-05-01T07:41:23Z</time>
      </trkpt>
      <trkpt lat="45.08602" lon="0.77374">
        <ele>238.6</ele>
        <time>2022-05-01T07:41:25Z</time>
      </trkpt>
      <trkpt lat="45.08596" lon="0.7737">
        <ele>238.3</ele>
        <time>2022-05-01T07:41:26Z</time>
      </trkpt>
      <trkpt lat="45.0859" lon="0.77367">
        <ele>238</ele>
        <time>2022-05-01T07:41:27Z</time>
      </trkpt>
      <trkpt lat="45.08578" lon="0.77364">
        <ele>237.6</ele>
        <time>2022-05-01T07:41:29Z</time>
      </trkpt>
      <trkpt lat="45.08564" lon="0.77361">
        <ele>237.2</ele>
        <time>2022-05-01T07:41:31Z</time>
      </trkpt>
      <trkpt lat="45.08551" lon="0.77358">
        <ele>236.9</ele>
        <time>2022-05-01T07:41:33Z</time>
      </trkpt>
      <trkpt lat="45.08544" lon="0.77356">
        <ele>236.8</ele>
        <time>2022-05-01T07:41:34Z</time>
      </trkpt>
      <trkpt lat="45.08538" lon="0.77355">
        <ele>236.7</ele>
        <time>2022-05-01T07:41:35Z</time>
      </trkpt>
      <trkpt lat="45.08531" lon="0.77353">
        <ele>236.6</ele>
        <time>2022-05-01T07:41:36Z</time>
      </trkpt>
      <trkpt lat="45.08526" lon="0.7735">
        <ele>236.6</ele>
        <time>2022-05-01T07:41:37Z</time>
      </trkpt>
      <trkpt lat="45.08515" lon="0.77342">
        <ele>236.6</ele>
        <time>2022-05-01T07:41:39Z</time>
      </trkpt>
      <trkpt lat="45.08509" lon="0.77332">
        <ele>236.6</ele>
        <time>2022-05-01T07:41:41Z</time>
      </trkpt>
      <trkpt lat="45.0851" lon="0.77318">
        <ele>236.7</ele>
        <time>2022-05-01T07:41:42Z</time>
      </trkpt>
      <trkpt lat="45.08512" lon="0.77313">
        <ele>236.7</ele>
        <time>2022-05-01T07:41:43Z</time>
      </trkpt>
      <trkpt lat="45.08518" lon="0.77304">
        <ele>236.8</ele>
        <time>2022-05-01T07:41:45Z</time>
      </trkpt>
      <trkpt lat="45.08522" lon="0.77296">
        <ele>236.9</ele>
        <time>2022-05-01T07:41:47Z</time>
      </trkpt>
      <trkpt lat="45.08524" lon="0.77292">
        <ele>237</ele>
        <time>2022-05-01T07:41:48Z</time>
      </trkpt>
      <trkpt lat="45.08526" lon="0.77287">
        <ele>237</ele>
        <time>2022-05-01T07:41:49Z</time>
      </trkpt>
      <trkpt lat="45.08529" lon="0.77277">
        <ele>237.3</ele>
        <time>2022-05-01T07:41:51Z</time>
      </trkpt>
      <trkpt lat="45.08531" lon="0.77268">
        <ele>237.6</ele>
        <time>2022-05-01T07:41:53Z</time>
      </trkpt>
      <trkpt lat="45.08532" lon="0.77263">
        <ele>237.8</ele>
        <time>2022-05-01T07:41:54Z</time>
      </trkpt>
      <trkpt lat="45.08533" lon="0.77258">
        <ele>238</ele>
        <time>2022-05-01T07:41:55Z</time>
      </trkpt>
      <trkpt lat="45.08535" lon="0.77248">
        <ele>238.4</ele>
        <time>2022-05-01T07:41:57Z</time>
      </trkpt>
      <trkpt lat="45.08537" lon="0.77238">
        <ele>238.9</ele>
        <time>2022-05-01T07:41:59Z</time>
      </trkpt>
      <trkpt lat="45.08539" lon="0.77229">
        <ele>239.4</ele>
        <time>2022-05-01T07:42:01Z</time>
      </trkpt>
      <trkpt lat="45.0854" lon="0.77224">
        <ele>239.6</ele>
        <time>2022-05-01T07:42:02Z</time>
      </trkpt>
      <trkpt lat="45.08541" lon="0.77219">
        <ele>239.9</ele>
        <time>2022-05-01T07:42:03Z</time>
      </trkpt>
      <trkpt lat="45.08543" lon="0.7721">
        <ele>240.2</ele>
        <time>2022-05-01T07:42:05Z</time>
      </trkpt>
      <trkpt lat="45.08543" lon="0.77205">
        <ele>240.4</ele>
        <time>2022-05-01T07:42:06Z</time>
      </trkpt>
      <trkpt lat="45.08544" lon="0.77201">
        <ele>240.5</ele>
        <time>2022-05-01T07:42:07Z</time>
      </trkpt>
      <trkpt lat="45.08546" lon="0.77191">
        <ele>240.6</ele>
        <time>2022-05-01T07:42:09Z</time>
      </trkpt>
      <trkpt lat="45.08548" lon="0.77182">
        <ele>240.8</ele>
        <time>2022-05-01T07:42:11Z</time>
      </trkpt>
      <trkpt lat="45.0855" lon="0.77173">
        <ele>240.8</ele>
        <time>2022-05-01T07:42:13Z</time>
      </trkpt>
      <trkpt lat="45.08552" lon="0.77165">
        <ele>240.8</ele>
        <time>2022-05-01T07:42:15Z</time>
      </trkpt>
      <trkpt lat="45.08552" lon="0.77161">
        <ele>240.8</ele>
        <time>2022-05-01T07:42:16Z</time>
      </trkpt>
      <trkpt lat="45.0855" lon="0.77156">
        <ele>240.7</ele>
        <time>2022-05-01T07:42:17Z</time>
      </trkpt>
      <trkpt lat="45.08543" lon="0.77154">
        <ele>240.5</ele>
        <time>2022-05-01T07:42:19Z</time>
      </trkpt>
      <trkpt lat="45.0854" lon="0.77153">
        <ele>240.4</ele>
        <time>2022-05-01T07:42:20Z</time>
      </trkpt>
      <trkpt lat="45.08536" lon="0.77152">
        <ele>240.3</ele>
        <time>2022-05-01T07:42:21Z</time>
      </trkpt>
      <trkpt lat="45.08529" lon="0.77149">
        <ele>240.1</ele>
        <time>2022-05-01T07:42:23Z</time>
      </trkpt>
      <trkpt lat="45.08521" lon="0.77147">
        <ele>240</ele>
        <time>2022-05-01T07:42:25Z</time>
      </trkpt>
      <trkpt lat="45.08513" lon="0.77145">
        <ele>239.9</ele>
        <time>2022-05-01T07:42:27Z</time>
      </trkpt>
      <trkpt lat="45.08506" lon="0.77142">
        <ele>239.8</ele>
        <time>2022-05-01T07:42:29Z</time>
      </trkpt>
      <trkpt lat="45.08498" lon="0.7714">
        <ele>239.8</ele>
        <time>2022-05-01T07:42:31Z</time>
      </trkpt>
      <trkpt lat="45.0849" lon="0.77138">
        <ele>239.8</ele>
        <time>2022-05-01T07:42:33Z</time>
      </trkpt>
      <trkpt lat="45.08482" lon="0.77137">
        <ele>239.8</ele>
        <time>2022-05-01T07:42:35Z</time>
      </trkpt>
      <trkpt lat="45.08473" lon="0.77136">
        <ele>239.8</ele>
        <time>2022-05-01T07:42:37Z</time>
      </trkpt>
      <trkpt lat="45.08465" lon="0.77134">
        <ele>239.8</ele>
        <time>2022-05-01T07:42:39Z</time>
      </trkpt>
      <trkpt lat="45.08456" lon="0.77133">
        <ele>239.9</ele>
        <time>2022-05-01T07:42:41Z</time>
      </trkpt>
      <trkpt lat="45.08448" lon="0.77132">
        <ele>239.9</ele>
        <time>2022-05-01T07:42:43Z</time>
      </trkpt>
      <trkpt lat="45.08444" lon="0.77131">
        <ele>240</ele>
        <time>2022-05-01T07:42:44Z</time>
      </trkpt>
      <trkpt lat="45.0844" lon="0.77131">
        <ele>240</ele>
        <time>2022-05-01T07:42:45Z</time>
      </trkpt>
      <trkpt lat="45.08432" lon="0.7713">
        <ele>240.1</ele>
        <time>2022-05-01T07:42:47Z</time>
      </trkpt>
      <trkpt lat="45.08425" lon="0.7713">
        <ele>240.2</ele>
        <time>2022-05-01T07:42:49Z</time>
      </trkpt>
      <trkpt lat="45.08421" lon="0.77131">
        <ele>240.3</ele>
        <time>2022-05-01T07:42:50Z</time>
      </trkpt>
      <trkpt lat="45.08417" lon="0.77131">
        <ele>240.3</ele>
        <time>2022-05-01T07:42:51Z</time>
      </trkpt>
      <trkpt lat="45.0841" lon="0.77131">
        <ele>240.4</ele>
        <time>2022-05-01T07:42:53Z</time>
      </trkpt>
      <trkpt lat="45.08402" lon="0.7713">
        <ele>240.5</ele>
        <time>2022-05-01T07:42:55Z</time>
      </trkpt>
      <trkpt lat="45.08399" lon="0.77138">
        <ele>240.5</ele>
        <time>2022-05-01T07:42:56Z</time>
      </trkpt>
      <trkpt lat="45.08396" lon="0.7714">
        <ele>240.5</ele>
        <time>2022-05-01T07:42:57Z</time>
      </trkpt>
      <trkpt lat="45.08389" lon="0.77143">
        <ele>240.4</ele>
        <time>2022-05-01T07:42:59Z</time>
      </trkpt>
      <trkpt lat="45.08382" lon="0.77146">
        <ele>240.2</ele>
        <time>2022-05-01T07:43:01Z</time>
      </trkpt>
      <trkpt lat="45.08379" lon="0.77148">
        <ele>240.1</ele>
        <time>2022-05-01T07:43:02Z</time>
      </trkpt>
      <trkpt lat="45.08376" lon="0.7715">
        <ele>240</ele>
        <time>2022-05-01T07:43:03Z</time>
      </trkpt>
      <trkpt lat="45.0837" lon="0.77153">
        <ele>239.7</ele>
        <time>2022-05-01T07:43:05Z</time>
      </trkpt>
      <trkpt lat="45.08368" lon="0.77153">
        <ele>239.6</ele>
        <time>2022-05-01T07:43:06Z</time>
      </trkpt>
      <trkpt lat="45.08368" lon="0.77154">
        <ele>239.6</ele>
        <time>2022-05-01T07:43:07Z</time>
      </trkpt>
      <trkpt lat="45.08367" lon="0.77154">
        <ele>239.6</ele>
        <time>2022-05-01T07:43:09Z</time>
      </trkpt>
      <trkpt lat="45.08367" lon="0.77154">
        <ele>239.6</ele>
        <time>2022-05-01T07:43:11Z</time>
      </trkpt>
      <trkpt lat="45.08367" lon="0.77154">
        <ele>239.6</ele>
        <time>2022-05-01T07:43:13Z</time>
      </trkpt>
      <trkpt lat="45.08366" lon="0.77154">
        <ele>239.5</ele>
        <time>2022-05-01T07:43:14Z</time>
      </trkpt>
      <trkpt lat="45.08366" lon="0.77155">
        <ele>239.5</ele>
        <time>2022-05-01T07:43:15Z</time>
      </trkpt>
      <trkpt lat="45.0837" lon="0.77153">
        <ele>239.3</ele>
        <time>2022-05-01T07:43:17Z</time>
      </trkpt>
      <trkpt lat="45.08375" lon="0.7715">
        <ele>239</ele>
        <time>2022-05-01T07:43:19Z</time>
      </trkpt>
      <trkpt lat="45.08378" lon="0.77149">
        <ele>238.9</ele>
        <time>2022-05-01T07:43:20Z</time>
      </trkpt>
      <trkpt lat="45.08381" lon="0.77143">
        <ele>238.6</ele>
        <time>2022-05-01T07:43:21Z</time>
      </trkpt>
      <trkpt lat="45.08382" lon="0.7714">
        <ele>238.5</ele>
        <time>2022-05-01T07:43:22Z</time>
      </trkpt>
      <trkpt lat="45.08382" lon="0.77136">
        <ele>238.3</ele>
        <time>2022-05-01T07:43:23Z</time>
      </trkpt>
      <trkpt lat="45.08382" lon="0.77125">
        <ele>238</ele>
        <time>2022-05-01T07:43:24Z</time>
      </trkpt>
      <trkpt lat="45.08381" lon="0.77125">
        <ele>237.9</ele>
        <time>2022-05-01T07:43:25Z</time>
      </trkpt>
      <trkpt lat="45.08376" lon="0.77123">
        <ele>237.7</ele>
        <time>2022-05-01T07:43:27Z</time>
      </trkpt>
      <trkpt lat="45.08372" lon="0.77121">
        <ele>237.5</ele>
        <time>2022-05-01T07:43:28Z</time>
      </trkpt>
      <trkpt lat="45.0837" lon="0.7712">
        <ele>237.4</ele>
        <time>2022-05-01T07:43:29Z</time>
      </trkpt>
      <trkpt lat="45.08367" lon="0.77118">
        <ele>237.2</ele>
        <time>2022-05-01T07:43:30Z</time>
      </trkpt>
      <trkpt lat="45.08364" lon="0.77117">
        <ele>237.1</ele>
        <time>2022-05-01T07:43:31Z</time>
      </trkpt>
      <trkpt lat="45.08357" lon="0.77114">
        <ele>236.8</ele>
        <time>2022-05-01T07:43:33Z</time>
      </trkpt>
      <trkpt lat="45.0835" lon="0.7711">
        <ele>236.4</ele>
        <time>2022-05-01T07:43:35Z</time>
      </trkpt>
      <trkpt lat="45.08346" lon="0.77108">
        <ele>236.2</ele>
        <time>2022-05-01T07:43:36Z</time>
      </trkpt>
      <trkpt lat="45.08341" lon="0.77106">
        <ele>236</ele>
        <time>2022-05-01T07:43:37Z</time>
      </trkpt>
      <trkpt lat="45.08338" lon="0.77104">
        <ele>235.8</ele>
        <time>2022-05-01T07:43:38Z</time>
      </trkpt>
      <trkpt lat="45.08333" lon="0.77102">
        <ele>235.5</ele>
        <time>2022-05-01T07:43:39Z</time>
      </trkpt>
      <trkpt lat="45.08325" lon="0.77098">
        <ele>235</ele>
        <time>2022-05-01T07:43:41Z</time>
      </trkpt>
      <trkpt lat="45.08317" lon="0.77094">
        <ele>234.7</ele>
        <time>2022-05-01T07:43:43Z</time>
      </trkpt>
      <trkpt lat="45.08311" lon="0.77091">
        <ele>234.4</ele>
        <time>2022-05-01T07:43:45Z</time>
      </trkpt>
      <trkpt lat="45.08308" lon="0.7709">
        <ele>234.3</ele>
        <time>2022-05-01T07:43:46Z</time>
      </trkpt>
      <trkpt lat="45.08304" lon="0.77087">
        <ele>234.1</ele>
        <time>2022-05-01T07:43:47Z</time>
      </trkpt>
      <trkpt lat="45.08294" lon="0.77082">
        <ele>233.7</ele>
        <time>2022-05-01T07:43:49Z</time>
      </trkpt>
      <trkpt lat="45.08283" lon="0.77077">
        <ele>233.2</ele>
        <time>2022-05-01T07:43:51Z</time>
      </trkpt>
      <trkpt lat="45.08277" lon="0.77074">
        <ele>233</ele>
        <time>2022-05-01T07:43:52Z</time>
      </trkpt>
      <trkpt lat="45.0827" lon="0.77071">
        <ele>232.7</ele>
        <time>2022-05-01T07:43:53Z</time>
      </trkpt>
      <trkpt lat="45.08255" lon="0.77065">
        <ele>232.2</ele>
        <time>2022-05-01T07:43:55Z</time>
      </trkpt>
      <trkpt lat="45.08242" lon="0.77058">
        <ele>231.7</ele>
        <time>2022-05-01T07:43:57Z</time>
      </trkpt>
      <trkpt lat="45.0823" lon="0.77051">
        <ele>231.4</ele>
        <time>2022-05-01T07:43:59Z</time>
      </trkpt>
      <trkpt lat="45.08223" lon="0.77046">
        <ele>231.2</ele>
        <time>2022-05-01T07:44:00Z</time>
      </trkpt>
      <trkpt lat="45.08217" lon="0.77042">
        <ele>231.1</ele>
        <time>2022-05-01T07:44:01Z</time>
      </trkpt>
      <trkpt lat="45.08207" lon="0.77036">
        <ele>230.8</ele>
        <time>2022-05-01T07:44:03Z</time>
      </trkpt>
      <trkpt lat="45.082" lon="0.77029">
        <ele>230.6</ele>
        <time>2022-05-01T07:44:04Z</time>
      </trkpt>
      <trkpt lat="45.08196" lon="0.77024">
        <ele>230.5</ele>
        <time>2022-05-01T07:44:05Z</time>
      </trkpt>
      <trkpt lat="45.08188" lon="0.77014">
        <ele>230.1</ele>
        <time>2022-05-01T07:44:07Z</time>
      </trkpt>
      <trkpt lat="45.0818" lon="0.77004">
        <ele>229.6</ele>
        <time>2022-05-01T07:44:09Z</time>
      </trkpt>
      <trkpt lat="45.08168" lon="0.76997">
        <ele>229</ele>
        <time>2022-05-01T07:44:11Z</time>
      </trkpt>
      <trkpt lat="45.0816" lon="0.76997">
        <ele>228.5</ele>
        <time>2022-05-01T07:44:12Z</time>
      </trkpt>
      <trkpt lat="45.08156" lon="0.76995">
        <ele>228.2</ele>
        <time>2022-05-01T07:44:13Z</time>
      </trkpt>
      <trkpt lat="45.0815" lon="0.76991">
        <ele>227.7</ele>
        <time>2022-05-01T07:44:14Z</time>
      </trkpt>
      <trkpt lat="45.08144" lon="0.76986">
        <ele>227.2</ele>
        <time>2022-05-01T07:44:15Z</time>
      </trkpt>
      <trkpt lat="45.0813" lon="0.76976">
        <ele>225.7</ele>
        <time>2022-05-01T07:44:17Z</time>
      </trkpt>
      <trkpt lat="45.08122" lon="0.76971">
        <ele>224.8</ele>
        <time>2022-05-01T07:44:18Z</time>
      </trkpt>
      <trkpt lat="45.08116" lon="0.76967">
        <ele>224.1</ele>
        <time>2022-05-01T07:44:19Z</time>
      </trkpt>
      <trkpt lat="45.08108" lon="0.76962">
        <ele>223.1</ele>
        <time>2022-05-01T07:44:20Z</time>
      </trkpt>
      <trkpt lat="45.08099" lon="0.76958">
        <ele>222</ele>
        <time>2022-05-01T07:44:21Z</time>
      </trkpt>
      <trkpt lat="45.08076" lon="0.76954">
        <ele>219.4</ele>
        <time>2022-05-01T07:44:23Z</time>
      </trkpt>
      <trkpt lat="45.08064" lon="0.76953">
        <ele>218.1</ele>
        <time>2022-05-01T07:44:24Z</time>
      </trkpt>
      <trkpt lat="45.08053" lon="0.76952">
        <ele>216.7</ele>
        <time>2022-05-01T07:44:25Z</time>
      </trkpt>
      <trkpt lat="45.08042" lon="0.7695">
        <ele>215.4</ele>
        <time>2022-05-01T07:44:26Z</time>
      </trkpt>
      <trkpt lat="45.0803" lon="0.76947">
        <ele>214.2</ele>
        <time>2022-05-01T07:44:27Z</time>
      </trkpt>
      <trkpt lat="45.08006" lon="0.7694">
        <ele>212.4</ele>
        <time>2022-05-01T07:44:29Z</time>
      </trkpt>
      <trkpt lat="45.07986" lon="0.76926">
        <ele>210.9</ele>
        <time>2022-05-01T07:44:31Z</time>
      </trkpt>
      <trkpt lat="45.07976" lon="0.76919">
        <ele>210.1</ele>
        <time>2022-05-01T07:44:32Z</time>
      </trkpt>
      <trkpt lat="45.07966" lon="0.76913">
        <ele>209.2</ele>
        <time>2022-05-01T07:44:33Z</time>
      </trkpt>
      <trkpt lat="45.07956" lon="0.76907">
        <ele>208.3</ele>
        <time>2022-05-01T07:44:34Z</time>
      </trkpt>
      <trkpt lat="45.07946" lon="0.76899">
        <ele>207.2</ele>
        <time>2022-05-01T07:44:35Z</time>
      </trkpt>
      <trkpt lat="45.07927" lon="0.7688">
        <ele>205.1</ele>
        <time>2022-05-01T07:44:37Z</time>
      </trkpt>
      <trkpt lat="45.07919" lon="0.7687">
        <ele>204.3</ele>
        <time>2022-05-01T07:44:38Z</time>
      </trkpt>
      <trkpt lat="45.07911" lon="0.76861">
        <ele>203.6</ele>
        <time>2022-05-01T07:44:39Z</time>
      </trkpt>
      <trkpt lat="45.07893" lon="0.76843">
        <ele>202.1</ele>
        <time>2022-05-01T07:44:41Z</time>
      </trkpt>
      <trkpt lat="45.07876" lon="0.76826">
        <ele>200.2</ele>
        <time>2022-05-01T07:44:43Z</time>
      </trkpt>
      <trkpt lat="45.07867" lon="0.76818">
        <ele>198.7</ele>
        <time>2022-05-01T07:44:44Z</time>
      </trkpt>
      <trkpt lat="45.07857" lon="0.76811">
        <ele>197.2</ele>
        <time>2022-05-01T07:44:45Z</time>
      </trkpt>
      <trkpt lat="45.07837" lon="0.76796">
        <ele>194.1</ele>
        <time>2022-05-01T07:44:47Z</time>
      </trkpt>
      <trkpt lat="45.07826" lon="0.76789">
        <ele>192.8</ele>
        <time>2022-05-01T07:44:48Z</time>
      </trkpt>
      <trkpt lat="45.07816" lon="0.76783">
        <ele>191.7</ele>
        <time>2022-05-01T07:44:49Z</time>
      </trkpt>
      <trkpt lat="45.07797" lon="0.76768">
        <ele>190.5</ele>
        <time>2022-05-01T07:44:51Z</time>
      </trkpt>
      <trkpt lat="45.07787" lon="0.76761">
        <ele>190.1</ele>
        <time>2022-05-01T07:44:52Z</time>
      </trkpt>
      <trkpt lat="45.07779" lon="0.76754">
        <ele>189.9</ele>
        <time>2022-05-01T07:44:53Z</time>
      </trkpt>
      <trkpt lat="45.0777" lon="0.76749">
        <ele>189.7</ele>
        <time>2022-05-01T07:44:54Z</time>
      </trkpt>
      <trkpt lat="45.07763" lon="0.76746">
        <ele>189.6</ele>
        <time>2022-05-01T07:44:55Z</time>
      </trkpt>
      <trkpt lat="45.07755" lon="0.76743">
        <ele>189.5</ele>
        <time>2022-05-01T07:44:56Z</time>
      </trkpt>
      <trkpt lat="45.07748" lon="0.76739">
        <ele>189.4</ele>
        <time>2022-05-01T07:44:57Z</time>
      </trkpt>
      <trkpt lat="45.07742" lon="0.76736">
        <ele>189.3</ele>
        <time>2022-05-01T07:44:58Z</time>
      </trkpt>
      <trkpt lat="45.07735" lon="0.76732">
        <ele>189.2</ele>
        <time>2022-05-01T07:44:59Z</time>
      </trkpt>
      <trkpt lat="45.07728" lon="0.76729">
        <ele>189.1</ele>
        <time>2022-05-01T07:45:00Z</time>
      </trkpt>
      <trkpt lat="45.07722" lon="0.76726">
        <ele>189</ele>
        <time>2022-05-01T07:45:01Z</time>
      </trkpt>
      <trkpt lat="45.0771" lon="0.7672">
        <ele>188.8</ele>
        <time>2022-05-01T07:45:03Z</time>
      </trkpt>
      <trkpt lat="45.07697" lon="0.76714">
        <ele>188.5</ele>
        <time>2022-05-01T07:45:05Z</time>
      </trkpt>
      <trkpt lat="45.07685" lon="0.76708">
        <ele>188.4</ele>
        <time>2022-05-01T07:45:07Z</time>
      </trkpt>
      <trkpt lat="45.0768" lon="0.76706">
        <ele>188.4</ele>
        <time>2022-05-01T07:45:08Z</time>
      </trkpt>
      <trkpt lat="45.07676" lon="0.76706">
        <ele>188.4</ele>
        <time>2022-05-01T07:45:09Z</time>
      </trkpt>
      <trkpt lat="45.07669" lon="0.76704">
        <ele>188.5</ele>
        <time>2022-05-01T07:45:11Z</time>
      </trkpt>
      <trkpt lat="45.07666" lon="0.76704">
        <ele>188.6</ele>
        <time>2022-05-01T07:45:12Z</time>
      </trkpt>
      <trkpt lat="45.07663" lon="0.76703">
        <ele>188.7</ele>
        <time>2022-05-01T07:45:13Z</time>
      </trkpt>
      <trkpt lat="45.07655" lon="0.76701">
        <ele>188.9</ele>
        <time>2022-05-01T07:45:15Z</time>
      </trkpt>
      <trkpt lat="45.07648" lon="0.76696">
        <ele>189.1</ele>
        <time>2022-05-01T07:45:17Z</time>
      </trkpt>
      <trkpt lat="45.07641" lon="0.76691">
        <ele>189.4</ele>
        <time>2022-05-01T07:45:19Z</time>
      </trkpt>
      <trkpt lat="45.07637" lon="0.76688">
        <ele>189.5</ele>
        <time>2022-05-01T07:45:20Z</time>
      </trkpt>
      <trkpt lat="45.07633" lon="0.76686">
        <ele>189.7</ele>
        <time>2022-05-01T07:45:21Z</time>
      </trkpt>
      <trkpt lat="45.07626" lon="0.76681">
        <ele>189.9</ele>
        <time>2022-05-01T07:45:23Z</time>
      </trkpt>
      <trkpt lat="45.07618" lon="0.76677">
        <ele>190</ele>
        <time>2022-05-01T07:45:25Z</time>
      </trkpt>
      <trkpt lat="45.07614" lon="0.76675">
        <ele>190</ele>
        <time>2022-05-01T07:45:26Z</time>
      </trkpt>
      <trkpt lat="45.07611" lon="0.76673">
        <ele>190.1</ele>
        <time>2022-05-01T07:45:27Z</time>
      </trkpt>
      <trkpt lat="45.07604" lon="0.76668">
        <ele>190.1</ele>
        <time>2022-05-01T07:45:29Z</time>
      </trkpt>
      <trkpt lat="45.076" lon="0.76667">
        <ele>190.1</ele>
        <time>2022-05-01T07:45:30Z</time>
      </trkpt>
      <trkpt lat="45.07598" lon="0.76665">
        <ele>190</ele>
        <time>2022-05-01T07:45:31Z</time>
      </trkpt>
      <trkpt lat="45.07593" lon="0.76662">
        <ele>190</ele>
        <time>2022-05-01T07:45:33Z</time>
      </trkpt>
      <trkpt lat="45.0759" lon="0.7666">
        <ele>189.9</ele>
        <time>2022-05-01T07:45:34Z</time>
      </trkpt>
      <trkpt lat="45.07589" lon="0.76658">
        <ele>190</ele>
        <time>2022-05-01T07:45:35Z</time>
      </trkpt>
      <trkpt lat="45.07586" lon="0.76652">
        <ele>190</ele>
        <time>2022-05-01T07:45:37Z</time>
      </trkpt>
      <trkpt lat="45.07584" lon="0.76647">
        <ele>190</ele>
        <time>2022-05-01T07:45:39Z</time>
      </trkpt>
      <trkpt lat="45.07582" lon="0.76641">
        <ele>190</ele>
        <time>2022-05-01T07:45:41Z</time>
      </trkpt>
      <trkpt lat="45.07581" lon="0.76639">
        <ele>190</ele>
        <time>2022-05-01T07:45:42Z</time>
      </trkpt>
      <trkpt lat="45.07582" lon="0.76637">
        <ele>190</ele>
        <time>2022-05-01T07:45:43Z</time>
      </trkpt>
      <trkpt lat="45.07583" lon="0.76634">
        <ele>190</ele>
        <time>2022-05-01T07:45:45Z</time>
      </trkpt>
      <trkpt lat="45.07585" lon="0.7663">
        <ele>190</ele>
        <time>2022-05-01T07:45:47Z</time>
      </trkpt>
      <trkpt lat="45.07586" lon="0.76628">
        <ele>189.9</ele>
        <time>2022-05-01T07:45:48Z</time>
      </trkpt>
      <trkpt lat="45.07587" lon="0.76626">
        <ele>189.9</ele>
        <time>2022-05-01T07:45:49Z</time>
      </trkpt>
      <trkpt lat="45.07591" lon="0.76619">
        <ele>189.7</ele>
        <time>2022-05-01T07:45:51Z</time>
      </trkpt>
      <trkpt lat="45.07595" lon="0.76611">
        <ele>189.4</ele>
        <time>2022-05-01T07:45:53Z</time>
      </trkpt>
      <trkpt lat="45.07597" lon="0.76608">
        <ele>189.3</ele>
        <time>2022-05-01T07:45:55Z</time>
      </trkpt>
      <trkpt lat="45.07599" lon="0.76605">
        <ele>189.2</ele>
        <time>2022-05-01T07:45:56Z</time>
      </trkpt>
      <trkpt lat="45.076" lon="0.76602">
        <ele>189.1</ele>
        <time>2022-05-01T07:45:57Z</time>
      </trkpt>
      <trkpt lat="45.07604" lon="0.76594">
        <ele>188.7</ele>
        <time>2022-05-01T07:45:59Z</time>
      </trkpt>
      <trkpt lat="45.07607" lon="0.7659">
        <ele>188.6</ele>
        <time>2022-05-01T07:46:00Z</time>
      </trkpt>
      <trkpt lat="45.07609" lon="0.76585">
        <ele>188.4</ele>
        <time>2022-05-01T07:46:01Z</time>
      </trkpt>
      <trkpt lat="45.07613" lon="0.76578">
        <ele>188.2</ele>
        <time>2022-05-01T07:46:03Z</time>
      </trkpt>
      <trkpt lat="45.07615" lon="0.76575">
        <ele>188.1</ele>
        <time>2022-05-01T07:46:04Z</time>
      </trkpt>
      <trkpt lat="45.07615" lon="0.76566">
        <ele>188.1</ele>
        <time>2022-05-01T07:46:05Z</time>
      </trkpt>
      <trkpt lat="45.07613" lon="0.76563">
        <ele>188</ele>
        <time>2022-05-01T07:46:07Z</time>
      </trkpt>
      <trkpt lat="45.07612" lon="0.7656">
        <ele>188</ele>
        <time>2022-05-01T07:46:08Z</time>
      </trkpt>
      <trkpt lat="45.07611" lon="0.76559">
        <ele>188</ele>
        <time>2022-05-01T07:46:09Z</time>
      </trkpt>
      <trkpt lat="45.07608" lon="0.76555">
        <ele>188.1</ele>
        <time>2022-05-01T07:46:11Z</time>
      </trkpt>
      <trkpt lat="45.07605" lon="0.7655">
        <ele>188.2</ele>
        <time>2022-05-01T07:46:13Z</time>
      </trkpt>
      <trkpt lat="45.07602" lon="0.76545">
        <ele>188.2</ele>
        <time>2022-05-01T07:46:15Z</time>
      </trkpt>
      <trkpt lat="45.076" lon="0.76542">
        <ele>188.3</ele>
        <time>2022-05-01T07:46:17Z</time>
      </trkpt>
      <trkpt lat="45.07597" lon="0.76537">
        <ele>188.4</ele>
        <time>2022-05-01T07:46:19Z</time>
      </trkpt>
      <trkpt lat="45.07594" lon="0.76533">
        <ele>188.6</ele>
        <time>2022-05-01T07:46:21Z</time>
      </trkpt>
      <trkpt lat="45.07592" lon="0.76531">
        <ele>188.6</ele>
        <time>2022-05-01T07:46:22Z</time>
      </trkpt>
      <trkpt lat="45.07594" lon="0.76533">
        <ele>188.7</ele>
        <time>2022-05-01T07:46:23Z</time>
      </trkpt>
      <trkpt lat="45.07587" lon="0.76526">
        <ele>188.9</ele>
        <time>2022-05-01T07:46:25Z</time>
      </trkpt>
      <trkpt lat="45.07581" lon="0.76517">
        <ele>189</ele>
        <time>2022-05-01T07:46:27Z</time>
      </trkpt>
      <trkpt lat="45.07577" lon="0.76506">
        <ele>189</ele>
        <time>2022-05-01T07:46:29Z</time>
      </trkpt>
      <trkpt lat="45.07575" lon="0.76497">
        <ele>189</ele>
        <time>2022-05-01T07:46:31Z</time>
      </trkpt>
      <trkpt lat="45.07572" lon="0.76487">
        <ele>188.8</ele>
        <time>2022-05-01T07:46:33Z</time>
      </trkpt>
      <trkpt lat="45.0757" lon="0.76482">
        <ele>188.7</ele>
        <time>2022-05-01T07:46:34Z</time>
      </trkpt>
      <trkpt lat="45.07567" lon="0.76476">
        <ele>188.5</ele>
        <time>2022-05-01T07:46:35Z</time>
      </trkpt>
      <trkpt lat="45.07564" lon="0.76472">
        <ele>188.4</ele>
        <time>2022-05-01T07:46:36Z</time>
      </trkpt>
      <trkpt lat="45.07561" lon="0.76468">
        <ele>188.2</ele>
        <time>2022-05-01T07:46:37Z</time>
      </trkpt>
      <trkpt lat="45.07555" lon="0.76459">
        <ele>187.8</ele>
        <time>2022-05-01T07:46:39Z</time>
      </trkpt>
      <trkpt lat="45.07552" lon="0.76455">
        <ele>187.7</ele>
        <time>2022-05-01T07:46:40Z</time>
      </trkpt>
      <trkpt lat="45.07549" lon="0.76451">
        <ele>187.5</ele>
        <time>2022-05-01T07:46:41Z</time>
      </trkpt>
      <trkpt lat="45.07542" lon="0.76442">
        <ele>187.4</ele>
        <time>2022-05-01T07:46:43Z</time>
      </trkpt>
      <trkpt lat="45.07536" lon="0.76433">
        <ele>187.3</ele>
        <time>2022-05-01T07:46:45Z</time>
      </trkpt>
      <trkpt lat="45.07532" lon="0.76429">
        <ele>187.3</ele>
        <time>2022-05-01T07:46:46Z</time>
      </trkpt>
      <trkpt lat="45.07529" lon="0.76424">
        <ele>187.3</ele>
        <time>2022-05-01T07:46:47Z</time>
      </trkpt>
      <trkpt lat="45.07526" lon="0.7642">
        <ele>187.4</ele>
        <time>2022-05-01T07:46:48Z</time>
      </trkpt>
      <trkpt lat="45.07524" lon="0.76417">
        <ele>187.4</ele>
        <time>2022-05-01T07:46:49Z</time>
      </trkpt>
      <trkpt lat="45.07519" lon="0.76409">
        <ele>187.4</ele>
        <time>2022-05-01T07:46:51Z</time>
      </trkpt>
      <trkpt lat="45.07516" lon="0.76406">
        <ele>187.4</ele>
        <time>2022-05-01T07:46:52Z</time>
      </trkpt>
      <trkpt lat="45.07514" lon="0.76403">
        <ele>187.4</ele>
        <time>2022-05-01T07:46:53Z</time>
      </trkpt>
      <trkpt lat="45.07509" lon="0.76395">
        <ele>187.5</ele>
        <time>2022-05-01T07:46:55Z</time>
      </trkpt>
      <trkpt lat="45.07505" lon="0.76389">
        <ele>187.5</ele>
        <time>2022-05-01T07:46:57Z</time>
      </trkpt>
      <trkpt lat="45.07501" lon="0.76382">
        <ele>187.5</ele>
        <time>2022-05-01T07:46:59Z</time>
      </trkpt>
      <trkpt lat="45.07497" lon="0.76375">
        <ele>187.5</ele>
        <time>2022-05-01T07:47:01Z</time>
      </trkpt>
      <trkpt lat="45.07494" lon="0.76371">
        <ele>187.5</ele>
        <time>2022-05-01T07:47:02Z</time>
      </trkpt>
      <trkpt lat="45.07492" lon="0.76367">
        <ele>187.6</ele>
        <time>2022-05-01T07:47:03Z</time>
      </trkpt>
      <trkpt lat="45.07487" lon="0.76359">
        <ele>187.6</ele>
        <time>2022-05-01T07:47:05Z</time>
      </trkpt>
      <trkpt lat="45.07483" lon="0.76352">
        <ele>187.6</ele>
        <time>2022-05-01T07:47:07Z</time>
      </trkpt>
      <trkpt lat="45.07478" lon="0.76344">
        <ele>187.6</ele>
        <time>2022-05-01T07:47:09Z</time>
      </trkpt>
      <trkpt lat="45.07475" lon="0.76339">
        <ele>187.6</ele>
        <time>2022-05-01T07:47:10Z</time>
      </trkpt>
      <trkpt lat="45.07473" lon="0.76335">
        <ele>187.6</ele>
        <time>2022-05-01T07:47:11Z</time>
      </trkpt>
      <trkpt lat="45.07467" lon="0.76325">
        <ele>187.5</ele>
        <time>2022-05-01T07:47:13Z</time>
      </trkpt>
      <trkpt lat="45.07461" lon="0.76315">
        <ele>187.5</ele>
        <time>2022-05-01T07:47:15Z</time>
      </trkpt>
      <trkpt lat="45.07456" lon="0.76307">
        <ele>187.6</ele>
        <time>2022-05-01T07:47:17Z</time>
      </trkpt>
      <trkpt lat="45.07451" lon="0.76299">
        <ele>187.8</ele>
        <time>2022-05-01T07:47:19Z</time>
      </trkpt>
      <trkpt lat="45.0745" lon="0.76297">
        <ele>187.8</ele>
        <time>2022-05-01T07:47:20Z</time>
      </trkpt>
      <trkpt lat="45.0745" lon="0.76297">
        <ele>187.8</ele>
        <time>2022-05-01T07:47:21Z</time>
      </trkpt>
      <trkpt lat="45.0744" lon="0.76289">
        <ele>188</ele>
        <time>2022-05-01T07:47:23Z</time>
      </trkpt>
      <trkpt lat="45.07435" lon="0.76282">
        <ele>188</ele>
        <time>2022-05-01T07:47:25Z</time>
      </trkpt>
      <trkpt lat="45.07431" lon="0.76273">
        <ele>187.9</ele>
        <time>2022-05-01T07:47:27Z</time>
      </trkpt>
      <trkpt lat="45.07428" lon="0.76269">
        <ele>187.9</ele>
        <time>2022-05-01T07:47:28Z</time>
      </trkpt>
      <trkpt lat="45.07426" lon="0.76264">
        <ele>187.8</ele>
        <time>2022-05-01T07:47:29Z</time>
      </trkpt>
      <trkpt lat="45.07421" lon="0.76255">
        <ele>187.6</ele>
        <time>2022-05-01T07:47:31Z</time>
      </trkpt>
      <trkpt lat="45.07416" lon="0.76246">
        <ele>187.4</ele>
        <time>2022-05-01T07:47:33Z</time>
      </trkpt>
      <trkpt lat="45.07412" lon="0.76237">
        <ele>187.3</ele>
        <time>2022-05-01T07:47:35Z</time>
      </trkpt>
      <trkpt lat="45.07407" lon="0.76228">
        <ele>187.2</ele>
        <time>2022-05-01T07:47:37Z</time>
      </trkpt>
      <trkpt lat="45.07402" lon="0.76219">
        <ele>187.1</ele>
        <time>2022-05-01T07:47:39Z</time>
      </trkpt>
      <trkpt lat="45.074" lon="0.76215">
        <ele>187</ele>
        <time>2022-05-01T07:47:40Z</time>
      </trkpt>
      <trkpt lat="45.07397" lon="0.7621">
        <ele>186.9</ele>
        <time>2022-05-01T07:47:41Z</time>
      </trkpt>
      <trkpt lat="45.07393" lon="0.76201">
        <ele>186.6</ele>
        <time>2022-05-01T07:47:43Z</time>
      </trkpt>
      <trkpt lat="45.07388" lon="0.76193">
        <ele>186.4</ele>
        <time>2022-05-01T07:47:45Z</time>
      </trkpt>
      <trkpt lat="45.07386" lon="0.76189">
        <ele>186.3</ele>
        <time>2022-05-01T07:47:46Z</time>
      </trkpt>
      <trkpt lat="45.07384" lon="0.76186">
        <ele>186.2</ele>
        <time>2022-05-01T07:47:47Z</time>
      </trkpt>
      <trkpt lat="45.07378" lon="0.76177">
        <ele>186</ele>
        <time>2022-05-01T07:47:49Z</time>
      </trkpt>
      <trkpt lat="45.07372" lon="0.76168">
        <ele>185.6</ele>
        <time>2022-05-01T07:47:51Z</time>
      </trkpt>
      <trkpt lat="45.07366" lon="0.76158">
        <ele>185.2</ele>
        <time>2022-05-01T07:47:53Z</time>
      </trkpt>
      <trkpt lat="45.07356" lon="0.76149">
        <ele>184.7</ele>
        <time>2022-05-01T07:47:55Z</time>
      </trkpt>
      <trkpt lat="45.07352" lon="0.76146">
        <ele>184.5</ele>
        <time>2022-05-01T07:47:56Z</time>
      </trkpt>
      <trkpt lat="45.07348" lon="0.76143">
        <ele>184.3</ele>
        <time>2022-05-01T07:47:57Z</time>
      </trkpt>
      <trkpt lat="45.07339" lon="0.76136">
        <ele>183.9</ele>
        <time>2022-05-01T07:47:59Z</time>
      </trkpt>
      <trkpt lat="45.07329" lon="0.76129">
        <ele>183.5</ele>
        <time>2022-05-01T07:48:01Z</time>
      </trkpt>
      <trkpt lat="45.07323" lon="0.76125">
        <ele>183.3</ele>
        <time>2022-05-01T07:48:02Z</time>
      </trkpt>
      <trkpt lat="45.07318" lon="0.76121">
        <ele>183.1</ele>
        <time>2022-05-01T07:48:03Z</time>
      </trkpt>
      <trkpt lat="45.07307" lon="0.76115">
        <ele>182.8</ele>
        <time>2022-05-01T07:48:05Z</time>
      </trkpt>
      <trkpt lat="45.07296" lon="0.76109">
        <ele>182.5</ele>
        <time>2022-05-01T07:48:07Z</time>
      </trkpt>
      <trkpt lat="45.07291" lon="0.76106">
        <ele>182.3</ele>
        <time>2022-05-01T07:48:08Z</time>
      </trkpt>
      <trkpt lat="45.07286" lon="0.76103">
        <ele>182.2</ele>
        <time>2022-05-01T07:48:09Z</time>
      </trkpt>
      <trkpt lat="45.07277" lon="0.76096">
        <ele>182</ele>
        <time>2022-05-01T07:48:11Z</time>
      </trkpt>
      <trkpt lat="45.07273" lon="0.76092">
        <ele>181.9</ele>
        <time>2022-05-01T07:48:12Z</time>
      </trkpt>
      <trkpt lat="45.07269" lon="0.76087">
        <ele>181.8</ele>
        <time>2022-05-01T07:48:13Z</time>
      </trkpt>
      <trkpt lat="45.07261" lon="0.76079">
        <ele>181.7</ele>
        <time>2022-05-01T07:48:15Z</time>
      </trkpt>
      <trkpt lat="45.07255" lon="0.76069">
        <ele>181.5</ele>
        <time>2022-05-01T07:48:17Z</time>
      </trkpt>
      <trkpt lat="45.07251" lon="0.76064">
        <ele>181.5</ele>
        <time>2022-05-01T07:48:18Z</time>
      </trkpt>
      <trkpt lat="45.07248" lon="0.76059">
        <ele>181.4</ele>
        <time>2022-05-01T07:48:19Z</time>
      </trkpt>
      <trkpt lat="45.07241" lon="0.76049">
        <ele>181.2</ele>
        <time>2022-05-01T07:48:21Z</time>
      </trkpt>
      <trkpt lat="45.07235" lon="0.76039">
        <ele>181.1</ele>
        <time>2022-05-01T07:48:23Z</time>
      </trkpt>
      <trkpt lat="45.07228" lon="0.76029">
        <ele>181</ele>
        <time>2022-05-01T07:48:25Z</time>
      </trkpt>
      <trkpt lat="45.07222" lon="0.76019">
        <ele>181</ele>
        <time>2022-05-01T07:48:27Z</time>
      </trkpt>
      <trkpt lat="45.07218" lon="0.76014">
        <ele>181</ele>
        <time>2022-05-01T07:48:28Z</time>
      </trkpt>
      <trkpt lat="45.07214" lon="0.76008">
        <ele>181</ele>
        <time>2022-05-01T07:48:29Z</time>
      </trkpt>
      <trkpt lat="45.07208" lon="0.75998">
        <ele>181</ele>
        <time>2022-05-01T07:48:31Z</time>
      </trkpt>
      <trkpt lat="45.072" lon="0.75989">
        <ele>180.9</ele>
        <time>2022-05-01T07:48:33Z</time>
      </trkpt>
      <trkpt lat="45.07192" lon="0.75981">
        <ele>181</ele>
        <time>2022-05-01T07:48:35Z</time>
      </trkpt>
      <trkpt lat="45.07186" lon="0.75979">
        <ele>181</ele>
        <time>2022-05-01T07:48:37Z</time>
      </trkpt>
      <trkpt lat="45.07179" lon="0.75977">
        <ele>181.1</ele>
        <time>2022-05-01T07:48:39Z</time>
      </trkpt>
      <trkpt lat="45.07176" lon="0.75976">
        <ele>181.2</ele>
        <time>2022-05-01T07:48:40Z</time>
      </trkpt>
      <trkpt lat="45.07174" lon="0.75976">
        <ele>181.2</ele>
        <time>2022-05-01T07:48:41Z</time>
      </trkpt>
      <trkpt lat="45.07167" lon="0.75976">
        <ele>181.5</ele>
        <time>2022-05-01T07:48:43Z</time>
      </trkpt>
      <trkpt lat="45.07163" lon="0.75976">
        <ele>181.7</ele>
        <time>2022-05-01T07:48:44Z</time>
      </trkpt>
      <trkpt lat="45.07159" lon="0.75977">
        <ele>181.9</ele>
        <time>2022-05-01T07:48:45Z</time>
      </trkpt>
      <trkpt lat="45.07149" lon="0.75976">
        <ele>182.4</ele>
        <time>2022-05-01T07:48:47Z</time>
      </trkpt>
      <trkpt lat="45.07142" lon="0.75976">
        <ele>182.1</ele>
        <time>2022-05-01T07:48:48Z</time>
      </trkpt>
      <trkpt lat="45.0714" lon="0.75971">
        <ele>182</ele>
        <time>2022-05-01T07:48:49Z</time>
      </trkpt>
      <trkpt lat="45.07134" lon="0.7596">
        <ele>181.6</ele>
        <time>2022-05-01T07:48:51Z</time>
      </trkpt>
      <trkpt lat="45.0713" lon="0.75954">
        <ele>181.4</ele>
        <time>2022-05-01T07:48:52Z</time>
      </trkpt>
      <trkpt lat="45.07127" lon="0.75948">
        <ele>181.3</ele>
        <time>2022-05-01T07:48:53Z</time>
      </trkpt>
      <trkpt lat="45.07124" lon="0.75942">
        <ele>181.1</ele>
        <time>2022-05-01T07:48:54Z</time>
      </trkpt>
      <trkpt lat="45.07121" lon="0.75935">
        <ele>181</ele>
        <time>2022-05-01T07:48:55Z</time>
      </trkpt>
      <trkpt lat="45.07118" lon="0.75922">
        <ele>180.8</ele>
        <time>2022-05-01T07:48:57Z</time>
      </trkpt>
      <trkpt lat="45.07115" lon="0.75909">
        <ele>180.7</ele>
        <time>2022-05-01T07:48:59Z</time>
      </trkpt>
      <trkpt lat="45.07114" lon="0.75903">
        <ele>180.7</ele>
        <time>2022-05-01T07:49:00Z</time>
      </trkpt>
      <trkpt lat="45.07114" lon="0.75898">
        <ele>180.7</ele>
        <time>2022-05-01T07:49:01Z</time>
      </trkpt>
      <trkpt lat="45.07112" lon="0.75887">
        <ele>180.8</ele>
        <time>2022-05-01T07:49:03Z</time>
      </trkpt>
      <trkpt lat="45.07111" lon="0.75875">
        <ele>180.9</ele>
        <time>2022-05-01T07:49:05Z</time>
      </trkpt>
      <trkpt lat="45.0711" lon="0.7587">
        <ele>181</ele>
        <time>2022-05-01T07:49:06Z</time>
      </trkpt>
      <trkpt lat="45.07107" lon="0.75863">
        <ele>181.1</ele>
        <time>2022-05-01T07:49:07Z</time>
      </trkpt>
      <trkpt lat="45.07105" lon="0.7586">
        <ele>181.2</ele>
        <time>2022-05-01T07:49:08Z</time>
      </trkpt>
      <trkpt lat="45.07109" lon="0.75866">
        <ele>181.3</ele>
        <time>2022-05-01T07:49:09Z</time>
      </trkpt>
      <trkpt lat="45.07106" lon="0.75849">
        <ele>182.7</ele>
        <time>2022-05-01T07:49:10Z</time>
      </trkpt>
      <trkpt lat="45.07108" lon="0.75848">
        <ele>183</ele>
        <time>2022-05-01T07:49:11Z</time>
      </trkpt>
      <trkpt lat="45.0711" lon="0.75846">
        <ele>183.3</ele>
        <time>2022-05-01T07:49:12Z</time>
      </trkpt>
      <trkpt lat="45.07113" lon="0.75845">
        <ele>183.5</ele>
        <time>2022-05-01T07:49:13Z</time>
      </trkpt>
      <trkpt lat="45.07117" lon="0.75843">
        <ele>184.1</ele>
        <time>2022-05-01T07:49:15Z</time>
      </trkpt>
      <trkpt lat="45.0712" lon="0.75841">
        <ele>184.6</ele>
        <time>2022-05-01T07:49:17Z</time>
      </trkpt>
      <trkpt lat="45.07122" lon="0.7584">
        <ele>184.9</ele>
        <time>2022-05-01T07:49:18Z</time>
      </trkpt>
      <trkpt lat="45.07124" lon="0.75839">
        <ele>185.2</ele>
        <time>2022-05-01T07:49:19Z</time>
      </trkpt>
      <trkpt lat="45.07127" lon="0.75837">
        <ele>185.8</ele>
        <time>2022-05-01T07:49:21Z</time>
      </trkpt>
      <trkpt lat="45.07132" lon="0.75835">
        <ele>186.5</ele>
        <time>2022-05-01T07:49:23Z</time>
      </trkpt>
      <trkpt lat="45.07135" lon="0.75833">
        <ele>187.2</ele>
        <time>2022-05-01T07:49:25Z</time>
      </trkpt>
      <trkpt lat="45.07139" lon="0.75831">
        <ele>187.8</ele>
        <time>2022-05-01T07:49:27Z</time>
      </trkpt>
      <trkpt lat="45.07142" lon="0.75828">
        <ele>188.4</ele>
        <time>2022-05-01T07:49:29Z</time>
      </trkpt>
      <trkpt lat="45.07146" lon="0.75826">
        <ele>189</ele>
        <time>2022-05-01T07:49:31Z</time>
      </trkpt>
      <trkpt lat="45.07147" lon="0.75825">
        <ele>189.3</ele>
        <time>2022-05-01T07:49:32Z</time>
      </trkpt>
      <trkpt lat="45.07149" lon="0.75823">
        <ele>189.6</ele>
        <time>2022-05-01T07:49:33Z</time>
      </trkpt>
      <trkpt lat="45.07152" lon="0.75821">
        <ele>190.2</ele>
        <time>2022-05-01T07:49:35Z</time>
      </trkpt>
      <trkpt lat="45.07156" lon="0.75818">
        <ele>190.8</ele>
        <time>2022-05-01T07:49:37Z</time>
      </trkpt>
      <trkpt lat="45.07159" lon="0.75816">
        <ele>191.3</ele>
        <time>2022-05-01T07:49:39Z</time>
      </trkpt>
      <trkpt lat="45.07165" lon="0.75812">
        <ele>192.2</ele>
        <time>2022-05-01T07:49:41Z</time>
      </trkpt>
      <trkpt lat="45.07167" lon="0.7581">
        <ele>192.5</ele>
        <time>2022-05-01T07:49:43Z</time>
      </trkpt>
      <trkpt lat="45.0717" lon="0.75807">
        <ele>193.1</ele>
        <time>2022-05-01T07:49:45Z</time>
      </trkpt>
      <trkpt lat="45.07172" lon="0.75806">
        <ele>193.4</ele>
        <time>2022-05-01T07:49:46Z</time>
      </trkpt>
      <trkpt lat="45.07173" lon="0.75804">
        <ele>193.6</ele>
        <time>2022-05-01T07:49:47Z</time>
      </trkpt>
      <trkpt lat="45.07177" lon="0.75801">
        <ele>194.1</ele>
        <time>2022-05-01T07:49:49Z</time>
      </trkpt>
      <trkpt lat="45.0718" lon="0.75798">
        <ele>194.7</ele>
        <time>2022-05-01T07:49:51Z</time>
      </trkpt>
      <trkpt lat="45.07182" lon="0.75796">
        <ele>195</ele>
        <time>2022-05-01T07:49:52Z</time>
      </trkpt>
      <trkpt lat="45.07184" lon="0.75795">
        <ele>195.2</ele>
        <time>2022-05-01T07:49:53Z</time>
      </trkpt>
      <trkpt lat="45.07187" lon="0.75792">
        <ele>195.7</ele>
        <time>2022-05-01T07:49:55Z</time>
      </trkpt>
      <trkpt lat="45.0719" lon="0.75789">
        <ele>196.2</ele>
        <time>2022-05-01T07:49:57Z</time>
      </trkpt>
      <trkpt lat="45.07191" lon="0.75788">
        <ele>196.4</ele>
        <time>2022-05-01T07:49:58Z</time>
      </trkpt>
      <trkpt lat="45.07192" lon="0.75787">
        <ele>196.6</ele>
        <time>2022-05-01T07:49:59Z</time>
      </trkpt>
      <trkpt lat="45.07195" lon="0.75784">
        <ele>197.1</ele>
        <time>2022-05-01T07:50:01Z</time>
      </trkpt>
      <trkpt lat="45.07198" lon="0.75781">
        <ele>197.6</ele>
        <time>2022-05-01T07:50:03Z</time>
      </trkpt>
      <trkpt lat="45.07201" lon="0.75778">
        <ele>198</ele>
        <time>2022-05-01T07:50:05Z</time>
      </trkpt>
      <trkpt lat="45.07204" lon="0.75776">
        <ele>198.4</ele>
        <time>2022-05-01T07:50:07Z</time>
      </trkpt>
      <trkpt lat="45.07207" lon="0.75773">
        <ele>198.8</ele>
        <time>2022-05-01T07:50:09Z</time>
      </trkpt>
      <trkpt lat="45.0721" lon="0.7577">
        <ele>199.3</ele>
        <time>2022-05-01T07:50:11Z</time>
      </trkpt>
      <trkpt lat="45.07213" lon="0.75767">
        <ele>199.6</ele>
        <time>2022-05-01T07:50:13Z</time>
      </trkpt>
      <trkpt lat="45.07216" lon="0.75765">
        <ele>200</ele>
        <time>2022-05-01T07:50:15Z</time>
      </trkpt>
      <trkpt lat="45.07219" lon="0.75762">
        <ele>200.4</ele>
        <time>2022-05-01T07:50:17Z</time>
      </trkpt>
      <trkpt lat="45.07222" lon="0.7576">
        <ele>200.7</ele>
        <time>2022-05-01T07:50:19Z</time>
      </trkpt>
      <trkpt lat="45.07225" lon="0.75758">
        <ele>201</ele>
        <time>2022-05-01T07:50:21Z</time>
      </trkpt>
      <trkpt lat="45.07226" lon="0.75757">
        <ele>201.2</ele>
        <time>2022-05-01T07:50:22Z</time>
      </trkpt>
      <trkpt lat="45.07228" lon="0.75756">
        <ele>201.3</ele>
        <time>2022-05-01T07:50:23Z</time>
      </trkpt>
      <trkpt lat="45.0723" lon="0.75755">
        <ele>201.6</ele>
        <time>2022-05-01T07:50:25Z</time>
      </trkpt>
      <trkpt lat="45.07232" lon="0.75754">
        <ele>201.7</ele>
        <time>2022-05-01T07:50:26Z</time>
      </trkpt>
      <trkpt lat="45.07232" lon="0.75754">
        <ele>201.8</ele>
        <time>2022-05-01T07:50:27Z</time>
      </trkpt>
      <trkpt lat="45.07233" lon="0.75753">
        <ele>201.9</ele>
        <time>2022-05-01T07:50:28Z</time>
      </trkpt>
      <trkpt lat="45.07234" lon="0.75753">
        <ele>202</ele>
        <time>2022-05-01T07:50:29Z</time>
      </trkpt>
      <trkpt lat="45.07236" lon="0.75752">
        <ele>202.1</ele>
        <time>2022-05-01T07:50:31Z</time>
      </trkpt>
      <trkpt lat="45.07237" lon="0.75751">
        <ele>202.3</ele>
        <time>2022-05-01T07:50:33Z</time>
      </trkpt>
      <trkpt lat="45.0724" lon="0.75744">
        <ele>202.4</ele>
        <time>2022-05-01T07:50:35Z</time>
      </trkpt>
      <trkpt lat="45.0724" lon="0.75739">
        <ele>202.4</ele>
        <time>2022-05-01T07:50:37Z</time>
      </trkpt>
      <trkpt lat="45.07241" lon="0.75734">
        <ele>203.4</ele>
        <time>2022-05-01T07:50:39Z</time>
      </trkpt>
      <trkpt lat="45.07241" lon="0.75729">
        <ele>203.5</ele>
        <time>2022-05-01T07:50:41Z</time>
      </trkpt>
      <trkpt lat="45.07242" lon="0.75723">
        <ele>203.5</ele>
        <time>2022-05-01T07:50:42Z</time>
      </trkpt>
      <trkpt lat="45.07242" lon="0.75718">
        <ele>204.5</ele>
        <time>2022-05-01T07:50:43Z</time>
      </trkpt>
      <trkpt lat="45.07243" lon="0.75713">
        <ele>204.6</ele>
        <time>2022-05-01T07:50:45Z</time>
      </trkpt>
      <trkpt lat="45.07242" lon="0.7571">
        <ele>204.6</ele>
        <time>2022-05-01T07:50:46Z</time>
      </trkpt>
      <trkpt lat="45.07242" lon="0.75708">
        <ele>204.7</ele>
        <time>2022-05-01T07:50:47Z</time>
      </trkpt>
      <trkpt lat="45.07242" lon="0.75703">
        <ele>204.7</ele>
        <time>2022-05-01T07:50:49Z</time>
      </trkpt>
      <trkpt lat="45.07242" lon="0.75699">
        <ele>205.6</ele>
        <time>2022-05-01T07:50:51Z</time>
      </trkpt>
      <trkpt lat="45.07242" lon="0.75695">
        <ele>205.7</ele>
        <time>2022-05-01T07:50:53Z</time>
      </trkpt>
      <trkpt lat="45.07241" lon="0.75691">
        <ele>205.8</ele>
        <time>2022-05-01T07:50:55Z</time>
      </trkpt>
      <trkpt lat="45.07241" lon="0.75689">
        <ele>205.8</ele>
        <time>2022-05-01T07:50:56Z</time>
      </trkpt>
      <trkpt lat="45.07241" lon="0.75686">
        <ele>205.9</ele>
        <time>2022-05-01T07:50:57Z</time>
      </trkpt>
      <trkpt lat="45.0724" lon="0.75681">
        <ele>206.7</ele>
        <time>2022-05-01T07:50:59Z</time>
      </trkpt>
      <trkpt lat="45.07241" lon="0.75677">
        <ele>206.8</ele>
        <time>2022-05-01T07:51:01Z</time>
      </trkpt>
      <trkpt lat="45.07242" lon="0.75672">
        <ele>206.9</ele>
        <time>2022-05-01T07:51:03Z</time>
      </trkpt>
      <trkpt lat="45.07243" lon="0.75667">
        <ele>207.8</ele>
        <time>2022-05-01T07:51:05Z</time>
      </trkpt>
      <trkpt lat="45.07242" lon="0.75662">
        <ele>207.8</ele>
        <time>2022-05-01T07:51:07Z</time>
      </trkpt>
      <trkpt lat="45.07241" lon="0.75657">
        <ele>207.9</ele>
        <time>2022-05-01T07:51:09Z</time>
      </trkpt>
      <trkpt lat="45.07241" lon="0.75652">
        <ele>208</ele>
        <time>2022-05-01T07:51:11Z</time>
      </trkpt>
      <trkpt lat="45.07241" lon="0.75649">
        <ele>208.9</ele>
        <time>2022-05-01T07:51:12Z</time>
      </trkpt>
      <trkpt lat="45.07242" lon="0.75646">
        <ele>209</ele>
        <time>2022-05-01T07:51:13Z</time>
      </trkpt>
      <trkpt lat="45.07243" lon="0.75641">
        <ele>209</ele>
        <time>2022-05-01T07:51:15Z</time>
      </trkpt>
      <trkpt lat="45.07243" lon="0.75638">
        <ele>208.9</ele>
        <time>2022-05-01T07:51:16Z</time>
      </trkpt>
      <trkpt lat="45.07244" lon="0.75636">
        <ele>208.9</ele>
        <time>2022-05-01T07:51:17Z</time>
      </trkpt>
      <trkpt lat="45.07244" lon="0.75634">
        <ele>210</ele>
        <time>2022-05-01T07:51:18Z</time>
      </trkpt>
      <trkpt lat="45.07245" lon="0.75631">
        <ele>210</ele>
        <time>2022-05-01T07:51:19Z</time>
      </trkpt>
      <trkpt lat="45.07245" lon="0.75625">
        <ele>210.1</ele>
        <time>2022-05-01T07:51:21Z</time>
      </trkpt>
      <trkpt lat="45.07246" lon="0.75622">
        <ele>210.1</ele>
        <time>2022-05-01T07:51:22Z</time>
      </trkpt>
      <trkpt lat="45.07246" lon="0.7562">
        <ele>210.2</ele>
        <time>2022-05-01T07:51:23Z</time>
      </trkpt>
      <trkpt lat="45.07247" lon="0.75615">
        <ele>211.2</ele>
        <time>2022-05-01T07:51:25Z</time>
      </trkpt>
      <trkpt lat="45.07248" lon="0.75612">
        <ele>211.3</ele>
        <time>2022-05-01T07:51:26Z</time>
      </trkpt>
      <trkpt lat="45.07248" lon="0.7561">
        <ele>211.3</ele>
        <time>2022-05-01T07:51:27Z</time>
      </trkpt>
      <trkpt lat="45.07249" lon="0.75606">
        <ele>211.4</ele>
        <time>2022-05-01T07:51:29Z</time>
      </trkpt>
      <trkpt lat="45.07249" lon="0.75603">
        <ele>211.4</ele>
        <time>2022-05-01T07:51:30Z</time>
      </trkpt>
      <trkpt lat="45.07249" lon="0.75601">
        <ele>211.5</ele>
        <time>2022-05-01T07:51:31Z</time>
      </trkpt>
      <trkpt lat="45.0725" lon="0.75596">
        <ele>212.4</ele>
        <time>2022-05-01T07:51:33Z</time>
      </trkpt>
      <trkpt lat="45.07249" lon="0.7559">
        <ele>212.5</ele>
        <time>2022-05-01T07:51:35Z</time>
      </trkpt>
      <trkpt lat="45.07249" lon="0.75583">
        <ele>212.5</ele>
        <time>2022-05-01T07:51:37Z</time>
      </trkpt>
      <trkpt lat="45.0725" lon="0.75578">
        <ele>213.5</ele>
        <time>2022-05-01T07:51:39Z</time>
      </trkpt>
      <trkpt lat="45.0725" lon="0.75571">
        <ele>213.6</ele>
        <time>2022-05-01T07:51:41Z</time>
      </trkpt>
      <trkpt lat="45.07252" lon="0.75566">
        <ele>213.6</ele>
        <time>2022-05-01T07:51:43Z</time>
      </trkpt>
      <trkpt lat="45.07252" lon="0.75557">
        <ele>214.5</ele>
        <time>2022-05-01T07:51:45Z</time>
      </trkpt>
      <trkpt lat="45.07252" lon="0.75553">
        <ele>214.5</ele>
        <time>2022-05-01T07:51:46Z</time>
      </trkpt>
      <trkpt lat="45.07252" lon="0.7555">
        <ele>214.6</ele>
        <time>2022-05-01T07:51:47Z</time>
      </trkpt>
      <trkpt lat="45.07252" lon="0.75547">
        <ele>215.4</ele>
        <time>2022-05-01T07:51:48Z</time>
      </trkpt>
      <trkpt lat="45.07252" lon="0.75544">
        <ele>215.4</ele>
        <time>2022-05-01T07:51:49Z</time>
      </trkpt>
      <trkpt lat="45.07252" lon="0.7554">
        <ele>215.5</ele>
        <time>2022-05-01T07:51:50Z</time>
      </trkpt>
      <trkpt lat="45.07252" lon="0.75537">
        <ele>215.5</ele>
        <time>2022-05-01T07:51:51Z</time>
      </trkpt>
      <trkpt lat="45.07252" lon="0.7553">
        <ele>216.4</ele>
        <time>2022-05-01T07:51:53Z</time>
      </trkpt>
      <trkpt lat="45.07252" lon="0.75527">
        <ele>216.4</ele>
        <time>2022-05-01T07:51:54Z</time>
      </trkpt>
      <trkpt lat="45.07252" lon="0.75524">
        <ele>216.5</ele>
        <time>2022-05-01T07:51:55Z</time>
      </trkpt>
      <trkpt lat="45.07252" lon="0.7552">
        <ele>216.5</ele>
        <time>2022-05-01T07:51:56Z</time>
      </trkpt>
      <trkpt lat="45.07252" lon="0.75517">
        <ele>216.6</ele>
        <time>2022-05-01T07:51:57Z</time>
      </trkpt>
      <trkpt lat="45.07252" lon="0.75514">
        <ele>216.7</ele>
        <time>2022-05-01T07:51:58Z</time>
      </trkpt>
      <trkpt lat="45.07249" lon="0.75512">
        <ele>217.3</ele>
        <time>2022-05-01T07:51:59Z</time>
      </trkpt>
      <trkpt lat="45.07246" lon="0.75509">
        <ele>217.3</ele>
        <time>2022-05-01T07:52:01Z</time>
      </trkpt>
      <trkpt lat="45.07248" lon="0.75503">
        <ele>217.4</ele>
        <time>2022-05-01T07:52:03Z</time>
      </trkpt>
      <trkpt lat="45.07253" lon="0.75499">
        <ele>217.5</ele>
        <time>2022-05-01T07:52:05Z</time>
      </trkpt>
      <trkpt lat="45.07258" lon="0.75497">
        <ele>217.2</ele>
        <time>2022-05-01T07:52:06Z</time>
      </trkpt>
      <trkpt lat="45.07259" lon="0.75494">
        <ele>217.8</ele>
        <time>2022-05-01T07:52:07Z</time>
      </trkpt>
      <trkpt lat="45.07262" lon="0.75489">
        <ele>217.9</ele>
        <time>2022-05-01T07:52:09Z</time>
      </trkpt>
      <trkpt lat="45.07264" lon="0.75486">
        <ele>217.9</ele>
        <time>2022-05-01T07:52:10Z</time>
      </trkpt>
      <trkpt lat="45.07267" lon="0.75483">
        <ele>218</ele>
        <time>2022-05-01T07:52:11Z</time>
      </trkpt>
      <trkpt lat="45.07266" lon="0.75481">
        <ele>218</ele>
        <time>2022-05-01T07:52:12Z</time>
      </trkpt>
      <trkpt lat="45.07264" lon="0.75479">
        <ele>218.4</ele>
        <time>2022-05-01T07:52:13Z</time>
      </trkpt>
      <trkpt lat="45.07264" lon="0.75476">
        <ele>218.5</ele>
        <time>2022-05-01T07:52:14Z</time>
      </trkpt>
      <trkpt lat="45.07267" lon="0.75473">
        <ele>218.6</ele>
        <time>2022-05-01T07:52:15Z</time>
      </trkpt>
      <trkpt lat="45.07268" lon="0.75469">
        <ele>218.2</ele>
        <time>2022-05-01T07:52:16Z</time>
      </trkpt>
      <trkpt lat="45.0727" lon="0.75465">
        <ele>218.2</ele>
        <time>2022-05-01T07:52:17Z</time>
      </trkpt>
      <trkpt lat="45.07271" lon="0.75462">
        <ele>218.5</ele>
        <time>2022-05-01T07:52:18Z</time>
      </trkpt>
      <trkpt lat="45.07273" lon="0.75459">
        <ele>218.6</ele>
        <time>2022-05-01T07:52:19Z</time>
      </trkpt>
      <trkpt lat="45.07273" lon="0.75456">
        <ele>218.6</ele>
        <time>2022-05-01T07:52:20Z</time>
      </trkpt>
      <trkpt lat="45.07274" lon="0.75454">
        <ele>218.7</ele>
        <time>2022-05-01T07:52:21Z</time>
      </trkpt>
      <trkpt lat="45.07275" lon="0.75448">
        <ele>218.7</ele>
        <time>2022-05-01T07:52:23Z</time>
      </trkpt>
      <trkpt lat="45.07275" lon="0.75444">
        <ele>219</ele>
        <time>2022-05-01T07:52:24Z</time>
      </trkpt>
      <trkpt lat="45.07277" lon="0.75441">
        <ele>219</ele>
        <time>2022-05-01T07:52:25Z</time>
      </trkpt>
      <trkpt lat="45.07277" lon="0.75438">
        <ele>219.1</ele>
        <time>2022-05-01T07:52:26Z</time>
      </trkpt>
      <trkpt lat="45.07278" lon="0.75435">
        <ele>219.1</ele>
        <time>2022-05-01T07:52:27Z</time>
      </trkpt>
      <trkpt lat="45.07278" lon="0.75433">
        <ele>219.2</ele>
        <time>2022-05-01T07:52:28Z</time>
      </trkpt>
      <trkpt lat="45.07278" lon="0.75429">
        <ele>219.2</ele>
        <time>2022-05-01T07:52:29Z</time>
      </trkpt>
      <trkpt lat="45.07277" lon="0.75422">
        <ele>219.5</ele>
        <time>2022-05-01T07:52:31Z</time>
      </trkpt>
      <trkpt lat="45.07276" lon="0.75417">
        <ele>219.5</ele>
        <time>2022-05-01T07:52:32Z</time>
      </trkpt>
      <trkpt lat="45.07277" lon="0.75412">
        <ele>219.6</ele>
        <time>2022-05-01T07:52:33Z</time>
      </trkpt>
      <trkpt lat="45.07277" lon="0.75402">
        <ele>219.8</ele>
        <time>2022-05-01T07:52:35Z</time>
      </trkpt>
      <trkpt lat="45.07277" lon="0.75396">
        <ele>219.8</ele>
        <time>2022-05-01T07:52:36Z</time>
      </trkpt>
      <trkpt lat="45.07276" lon="0.75391">
        <ele>219.8</ele>
        <time>2022-05-01T07:52:37Z</time>
      </trkpt>
      <trkpt lat="45.07276" lon="0.75379">
        <ele>219.9</ele>
        <time>2022-05-01T07:52:39Z</time>
      </trkpt>
      <trkpt lat="45.07275" lon="0.75368">
        <ele>219.8</ele>
        <time>2022-05-01T07:52:41Z</time>
      </trkpt>
      <trkpt lat="45.07275" lon="0.75363">
        <ele>219.9</ele>
        <time>2022-05-01T07:52:42Z</time>
      </trkpt>
      <trkpt lat="45.07273" lon="0.75358">
        <ele>219.8</ele>
        <time>2022-05-01T07:52:43Z</time>
      </trkpt>
      <trkpt lat="45.0727" lon="0.75349">
        <ele>219.8</ele>
        <time>2022-05-01T07:52:45Z</time>
      </trkpt>
      <trkpt lat="45.07267" lon="0.7534">
        <ele>220.2</ele>
        <time>2022-05-01T07:52:47Z</time>
      </trkpt>
      <trkpt lat="45.07263" lon="0.75331">
        <ele>220.2</ele>
        <time>2022-05-01T07:52:49Z</time>
      </trkpt>
      <trkpt lat="45.07259" lon="0.75322">
        <ele>220.4</ele>
        <time>2022-05-01T07:52:51Z</time>
      </trkpt>
      <trkpt lat="45.07256" lon="0.75312">
        <ele>220.4</ele>
        <time>2022-05-01T07:52:53Z</time>
      </trkpt>
      <trkpt lat="45.07254" lon="0.75303">
        <ele>220.8</ele>
        <time>2022-05-01T07:52:55Z</time>
      </trkpt>
      <trkpt lat="45.07253" lon="0.75295">
        <ele>220.8</ele>
        <time>2022-05-01T07:52:57Z</time>
      </trkpt>
      <trkpt lat="45.07252" lon="0.7529">
        <ele>221</ele>
        <time>2022-05-01T07:52:58Z</time>
      </trkpt>
      <trkpt lat="45.07252" lon="0.75287">
        <ele>221.1</ele>
        <time>2022-05-01T07:52:59Z</time>
      </trkpt>
      <trkpt lat="45.07251" lon="0.75283">
        <ele>221.1</ele>
        <time>2022-05-01T07:53:00Z</time>
      </trkpt>
      <trkpt lat="45.07251" lon="0.75278">
        <ele>221.2</ele>
        <time>2022-05-01T07:53:01Z</time>
      </trkpt>
      <trkpt lat="45.07254" lon="0.75269">
        <ele>221.3</ele>
        <time>2022-05-01T07:53:03Z</time>
      </trkpt>
      <trkpt lat="45.07257" lon="0.75261">
        <ele>221.3</ele>
        <time>2022-05-01T07:53:05Z</time>
      </trkpt>
      <trkpt lat="45.07258" lon="0.75256">
        <ele>221.4</ele>
        <time>2022-05-01T07:53:06Z</time>
      </trkpt>
      <trkpt lat="45.07259" lon="0.75253">
        <ele>221.4</ele>
        <time>2022-05-01T07:53:07Z</time>
      </trkpt>
      <trkpt lat="45.0726" lon="0.75244">
        <ele>221.5</ele>
        <time>2022-05-01T07:53:09Z</time>
      </trkpt>
      <trkpt lat="45.07264" lon="0.75235">
        <ele>221.4</ele>
        <time>2022-05-01T07:53:11Z</time>
      </trkpt>
      <trkpt lat="45.07269" lon="0.75228">
        <ele>221.5</ele>
        <time>2022-05-01T07:53:13Z</time>
      </trkpt>
      <trkpt lat="45.0727" lon="0.75224">
        <ele>221.5</ele>
        <time>2022-05-01T07:53:14Z</time>
      </trkpt>
      <trkpt lat="45.0727" lon="0.7522">
        <ele>221.4</ele>
        <time>2022-05-01T07:53:15Z</time>
      </trkpt>
      <trkpt lat="45.0727" lon="0.75215">
        <ele>221.5</ele>
        <time>2022-05-01T07:53:16Z</time>
      </trkpt>
      <trkpt lat="45.07269" lon="0.75209">
        <ele>221.6</ele>
        <time>2022-05-01T07:53:17Z</time>
      </trkpt>
      <trkpt lat="45.07268" lon="0.75198">
        <ele>221.5</ele>
        <time>2022-05-01T07:53:19Z</time>
      </trkpt>
      <trkpt lat="45.07266" lon="0.75193">
        <ele>221.5</ele>
        <time>2022-05-01T07:53:20Z</time>
      </trkpt>
      <trkpt lat="45.07264" lon="0.75187">
        <ele>221.4</ele>
        <time>2022-05-01T07:53:21Z</time>
      </trkpt>
      <trkpt lat="45.07263" lon="0.7518">
        <ele>221.5</ele>
        <time>2022-05-01T07:53:22Z</time>
      </trkpt>
      <trkpt lat="45.07263" lon="0.75174">
        <ele>221.5</ele>
        <time>2022-05-01T07:53:23Z</time>
      </trkpt>
      <trkpt lat="45.0726" lon="0.75161">
        <ele>221.4</ele>
        <time>2022-05-01T07:53:25Z</time>
      </trkpt>
      <trkpt lat="45.07257" lon="0.75146">
        <ele>221.2</ele>
        <time>2022-05-01T07:53:27Z</time>
      </trkpt>
      <trkpt lat="45.07255" lon="0.75132">
        <ele>221.1</ele>
        <time>2022-05-01T07:53:29Z</time>
      </trkpt>
      <trkpt lat="45.07257" lon="0.75121">
        <ele>221.1</ele>
        <time>2022-05-01T07:53:31Z</time>
      </trkpt>
      <trkpt lat="45.0726" lon="0.75119">
        <ele>221.1</ele>
        <time>2022-05-01T07:53:32Z</time>
      </trkpt>
      <trkpt lat="45.0726" lon="0.75114">
        <ele>221.2</ele>
        <time>2022-05-01T07:53:33Z</time>
      </trkpt>
      <trkpt lat="45.07265" lon="0.75116">
        <ele>221.3</ele>
        <time>2022-05-01T07:53:35Z</time>
      </trkpt>
      <trkpt lat="45.0727" lon="0.75118">
        <ele>221.5</ele>
        <time>2022-05-01T07:53:37Z</time>
      </trkpt>
      <trkpt lat="45.07277" lon="0.75123">
        <ele>221.8</ele>
        <time>2022-05-01T07:53:39Z</time>
      </trkpt>
      <trkpt lat="45.07283" lon="0.75127">
        <ele>222.1</ele>
        <time>2022-05-01T07:53:41Z</time>
      </trkpt>
      <trkpt lat="45.07289" lon="0.75131">
        <ele>222.4</ele>
        <time>2022-05-01T07:53:43Z</time>
      </trkpt>
      <trkpt lat="45.07291" lon="0.75132">
        <ele>222.5</ele>
        <time>2022-05-01T07:53:44Z</time>
      </trkpt>
      <trkpt lat="45.07293" lon="0.75134">
        <ele>222.6</ele>
        <time>2022-05-01T07:53:45Z</time>
      </trkpt>
      <trkpt lat="45.07297" lon="0.75136">
        <ele>222.9</ele>
        <time>2022-05-01T07:53:47Z</time>
      </trkpt>
      <trkpt lat="45.07302" lon="0.7514">
        <ele>223.2</ele>
        <time>2022-05-01T07:53:49Z</time>
      </trkpt>
      <trkpt lat="45.07311" lon="0.75134">
        <ele>223.7</ele>
        <time>2022-05-01T07:53:50Z</time>
      </trkpt>
      <trkpt lat="45.07316" lon="0.75125">
        <ele>223.7</ele>
        <time>2022-05-01T07:53:51Z</time>
      </trkpt>
      <trkpt lat="45.07322" lon="0.75117">
        <ele>223.5</ele>
        <time>2022-05-01T07:53:53Z</time>
      </trkpt>
      <trkpt lat="45.07329" lon="0.75115">
        <ele>223.1</ele>
        <time>2022-05-01T07:53:55Z</time>
      </trkpt>
      <trkpt lat="45.07333" lon="0.75113">
        <ele>222.8</ele>
        <time>2022-05-01T07:53:56Z</time>
      </trkpt>
      <trkpt lat="45.07337" lon="0.75112">
        <ele>222.4</ele>
        <time>2022-05-01T07:53:57Z</time>
      </trkpt>
      <trkpt lat="45.07346" lon="0.7511">
        <ele>221.4</ele>
        <time>2022-05-01T07:53:59Z</time>
      </trkpt>
      <trkpt lat="45.07352" lon="0.75111">
        <ele>220.7</ele>
        <time>2022-05-01T07:54:00Z</time>
      </trkpt>
      <trkpt lat="45.07359" lon="0.75112">
        <ele>219.7</ele>
        <time>2022-05-01T07:54:01Z</time>
      </trkpt>
      <trkpt lat="45.07374" lon="0.75114">
        <ele>217.5</ele>
        <time>2022-05-01T07:54:03Z</time>
      </trkpt>
      <trkpt lat="45.07383" lon="0.75118">
        <ele>216.5</ele>
        <time>2022-05-01T07:54:04Z</time>
      </trkpt>
      <trkpt lat="45.0739" lon="0.75123">
        <ele>215.5</ele>
        <time>2022-05-01T07:54:05Z</time>
      </trkpt>
      <trkpt lat="45.07405" lon="0.75134">
        <ele>213.1</ele>
        <time>2022-05-01T07:54:07Z</time>
      </trkpt>
      <trkpt lat="45.07414" lon="0.7514">
        <ele>211.7</ele>
        <time>2022-05-01T07:54:08Z</time>
      </trkpt>
      <trkpt lat="45.07422" lon="0.75146">
        <ele>210.5</ele>
        <time>2022-05-01T07:54:09Z</time>
      </trkpt>
      <trkpt lat="45.07428" lon="0.75156">
        <ele>209.4</ele>
        <time>2022-05-01T07:54:11Z</time>
      </trkpt>
      <trkpt lat="45.07433" lon="0.75154">
        <ele>209</ele>
        <time>2022-05-01T07:54:12Z</time>
      </trkpt>
      <trkpt lat="45.07437" lon="0.75153">
        <ele>208.8</ele>
        <time>2022-05-01T07:54:13Z</time>
      </trkpt>
      <trkpt lat="45.07447" lon="0.75145">
        <ele>208.2</ele>
        <time>2022-05-01T07:54:15Z</time>
      </trkpt>
      <trkpt lat="45.07447" lon="0.75141">
        <ele>207.7</ele>
        <time>2022-05-01T07:54:16Z</time>
      </trkpt>
      <trkpt lat="45.07446" lon="0.75138">
        <ele>207.5</ele>
        <time>2022-05-01T07:54:17Z</time>
      </trkpt>
      <trkpt lat="45.07445" lon="0.75135">
        <ele>207.4</ele>
        <time>2022-05-01T07:54:18Z</time>
      </trkpt>
      <trkpt lat="45.07445" lon="0.75131">
        <ele>207.2</ele>
        <time>2022-05-01T07:54:19Z</time>
      </trkpt>
      <trkpt lat="45.07444" lon="0.75125">
        <ele>207</ele>
        <time>2022-05-01T07:54:20Z</time>
      </trkpt>
      <trkpt lat="45.07443" lon="0.7512">
        <ele>206.8</ele>
        <time>2022-05-01T07:54:21Z</time>
      </trkpt>
      <trkpt lat="45.07442" lon="0.75114">
        <ele>206.7</ele>
        <time>2022-05-01T07:54:22Z</time>
      </trkpt>
      <trkpt lat="45.0744" lon="0.75108">
        <ele>206.6</ele>
        <time>2022-05-01T07:54:23Z</time>
      </trkpt>
      <trkpt lat="45.07438" lon="0.75097">
        <ele>206.5</ele>
        <time>2022-05-01T07:54:25Z</time>
      </trkpt>
      <trkpt lat="45.07437" lon="0.75091">
        <ele>206.4</ele>
        <time>2022-05-01T07:54:26Z</time>
      </trkpt>
      <trkpt lat="45.07436" lon="0.75085">
        <ele>206.5</ele>
        <time>2022-05-01T07:54:27Z</time>
      </trkpt>
      <trkpt lat="45.07435" lon="0.7508">
        <ele>206.5</ele>
        <time>2022-05-01T07:54:28Z</time>
      </trkpt>
      <trkpt lat="45.07434" lon="0.75075">
        <ele>206.6</ele>
        <time>2022-05-01T07:54:29Z</time>
      </trkpt>
      <trkpt lat="45.07432" lon="0.75063">
        <ele>206.7</ele>
        <time>2022-05-01T07:54:31Z</time>
      </trkpt>
      <trkpt lat="45.0743" lon="0.75052">
        <ele>206.9</ele>
        <time>2022-05-01T07:54:33Z</time>
      </trkpt>
      <trkpt lat="45.07428" lon="0.75042">
        <ele>207.1</ele>
        <time>2022-05-01T07:54:35Z</time>
      </trkpt>
      <trkpt lat="45.07427" lon="0.75031">
        <ele>207.2</ele>
        <time>2022-05-01T07:54:37Z</time>
      </trkpt>
      <trkpt lat="45.07425" lon="0.75019">
        <ele>207.3</ele>
        <time>2022-05-01T07:54:39Z</time>
      </trkpt>
      <trkpt lat="45.07424" lon="0.75009">
        <ele>207.4</ele>
        <time>2022-05-01T07:54:41Z</time>
      </trkpt>
      <trkpt lat="45.07422" lon="0.74997">
        <ele>207.6</ele>
        <time>2022-05-01T07:54:43Z</time>
      </trkpt>
      <trkpt lat="45.07421" lon="0.74991">
        <ele>207.7</ele>
        <time>2022-05-01T07:54:44Z</time>
      </trkpt>
      <trkpt lat="45.0742" lon="0.74986">
        <ele>207.8</ele>
        <time>2022-05-01T07:54:45Z</time>
      </trkpt>
      <trkpt lat="45.07419" lon="0.7498">
        <ele>207.9</ele>
        <time>2022-05-01T07:54:46Z</time>
      </trkpt>
      <trkpt lat="45.07418" lon="0.74974">
        <ele>207.9</ele>
        <time>2022-05-01T07:54:47Z</time>
      </trkpt>
      <trkpt lat="45.07417" lon="0.74962">
        <ele>208</ele>
        <time>2022-05-01T07:54:49Z</time>
      </trkpt>
      <trkpt lat="45.07415" lon="0.7495">
        <ele>208.1</ele>
        <time>2022-05-01T07:54:51Z</time>
      </trkpt>
      <trkpt lat="45.07413" lon="0.74937">
        <ele>208.1</ele>
        <time>2022-05-01T07:54:53Z</time>
      </trkpt>
      <trkpt lat="45.07409" lon="0.74925">
        <ele>208.2</ele>
        <time>2022-05-01T07:54:55Z</time>
      </trkpt>
      <trkpt lat="45.07406" lon="0.74914">
        <ele>208.4</ele>
        <time>2022-05-01T07:54:57Z</time>
      </trkpt>
      <trkpt lat="45.07403" lon="0.74903">
        <ele>208.7</ele>
        <time>2022-05-01T07:54:59Z</time>
      </trkpt>
      <trkpt lat="45.074" lon="0.74892">
        <ele>209</ele>
        <time>2022-05-01T07:55:01Z</time>
      </trkpt>
      <trkpt lat="45.07397" lon="0.74881">
        <ele>209.3</ele>
        <time>2022-05-01T07:55:03Z</time>
      </trkpt>
      <trkpt lat="45.07393" lon="0.7487">
        <ele>209.5</ele>
        <time>2022-05-01T07:55:05Z</time>
      </trkpt>
      <trkpt lat="45.07389" lon="0.74859">
        <ele>209.6</ele>
        <time>2022-05-01T07:55:07Z</time>
      </trkpt>
      <trkpt lat="45.07384" lon="0.74848">
        <ele>209.8</ele>
        <time>2022-05-01T07:55:09Z</time>
      </trkpt>
      <trkpt lat="45.07379" lon="0.74837">
        <ele>209.9</ele>
        <time>2022-05-01T07:55:11Z</time>
      </trkpt>
      <trkpt lat="45.07373" lon="0.74827">
        <ele>210</ele>
        <time>2022-05-01T07:55:13Z</time>
      </trkpt>
      <trkpt lat="45.07371" lon="0.74821">
        <ele>210.1</ele>
        <time>2022-05-01T07:55:14Z</time>
      </trkpt>
      <trkpt lat="45.07369" lon="0.74815">
        <ele>210.2</ele>
        <time>2022-05-01T07:55:15Z</time>
      </trkpt>
      <trkpt lat="45.07366" lon="0.74803">
        <ele>210.6</ele>
        <time>2022-05-01T07:55:17Z</time>
      </trkpt>
      <trkpt lat="45.07363" lon="0.74792">
        <ele>211.1</ele>
        <time>2022-05-01T07:55:19Z</time>
      </trkpt>
      <trkpt lat="45.07361" lon="0.74786">
        <ele>211.3</ele>
        <time>2022-05-01T07:55:20Z</time>
      </trkpt>
      <trkpt lat="45.0736" lon="0.74781">
        <ele>211.5</ele>
        <time>2022-05-01T07:55:21Z</time>
      </trkpt>
      <trkpt lat="45.07357" lon="0.7477">
        <ele>211.8</ele>
        <time>2022-05-01T07:55:23Z</time>
      </trkpt>
      <trkpt lat="45.07354" lon="0.74758">
        <ele>212.1</ele>
        <time>2022-05-01T07:55:25Z</time>
      </trkpt>
      <trkpt lat="45.07351" lon="0.74747">
        <ele>212.3</ele>
        <time>2022-05-01T07:55:27Z</time>
      </trkpt>
      <trkpt lat="45.07348" lon="0.74736">
        <ele>212.6</ele>
        <time>2022-05-01T07:55:29Z</time>
      </trkpt>
      <trkpt lat="45.07346" lon="0.7473">
        <ele>212.7</ele>
        <time>2022-05-01T07:55:30Z</time>
      </trkpt>
      <trkpt lat="45.07345" lon="0.74724">
        <ele>212.8</ele>
        <time>2022-05-01T07:55:31Z</time>
      </trkpt>
      <trkpt lat="45.07343" lon="0.74718">
        <ele>212.9</ele>
        <time>2022-05-01T07:55:32Z</time>
      </trkpt>
      <trkpt lat="45.07342" lon="0.74713">
        <ele>213.1</ele>
        <time>2022-05-01T07:55:33Z</time>
      </trkpt>
      <trkpt lat="45.07338" lon="0.74701">
        <ele>213.5</ele>
        <time>2022-05-01T07:55:35Z</time>
      </trkpt>
      <trkpt lat="45.07337" lon="0.74695">
        <ele>213.8</ele>
        <time>2022-05-01T07:55:36Z</time>
      </trkpt>
      <trkpt lat="45.07335" lon="0.7469">
        <ele>214.1</ele>
        <time>2022-05-01T07:55:37Z</time>
      </trkpt>
      <trkpt lat="45.07332" lon="0.74678">
        <ele>214.6</ele>
        <time>2022-05-01T07:55:39Z</time>
      </trkpt>
      <trkpt lat="45.07329" lon="0.74667">
        <ele>214.9</ele>
        <time>2022-05-01T07:55:41Z</time>
      </trkpt>
      <trkpt lat="45.07326" lon="0.74655">
        <ele>215.2</ele>
        <time>2022-05-01T07:55:43Z</time>
      </trkpt>
      <trkpt lat="45.07324" lon="0.74643">
        <ele>215.4</ele>
        <time>2022-05-01T07:55:45Z</time>
      </trkpt>
      <trkpt lat="45.07323" lon="0.74631">
        <ele>215.5</ele>
        <time>2022-05-01T07:55:47Z</time>
      </trkpt>
      <trkpt lat="45.07321" lon="0.74618">
        <ele>215.7</ele>
        <time>2022-05-01T07:55:49Z</time>
      </trkpt>
      <trkpt lat="45.0732" lon="0.74605">
        <ele>215.9</ele>
        <time>2022-05-01T07:55:51Z</time>
      </trkpt>
      <trkpt lat="45.0732" lon="0.74599">
        <ele>216</ele>
        <time>2022-05-01T07:55:52Z</time>
      </trkpt>
      <trkpt lat="45.07319" lon="0.74592">
        <ele>216.2</ele>
        <time>2022-05-01T07:55:53Z</time>
      </trkpt>
      <trkpt lat="45.07318" lon="0.7458">
        <ele>216.5</ele>
        <time>2022-05-01T07:55:55Z</time>
      </trkpt>
      <trkpt lat="45.07317" lon="0.74568">
        <ele>216.8</ele>
        <time>2022-05-01T07:55:57Z</time>
      </trkpt>
      <trkpt lat="45.07317" lon="0.74555">
        <ele>217</ele>
        <time>2022-05-01T07:55:59Z</time>
      </trkpt>
      <trkpt lat="45.07316" lon="0.74543">
        <ele>217.3</ele>
        <time>2022-05-01T07:56:01Z</time>
      </trkpt>
      <trkpt lat="45.07316" lon="0.74531">
        <ele>217.5</ele>
        <time>2022-05-01T07:56:03Z</time>
      </trkpt>
      <trkpt lat="45.07315" lon="0.74519">
        <ele>217.7</ele>
        <time>2022-05-01T07:56:05Z</time>
      </trkpt>
      <trkpt lat="45.07315" lon="0.74507">
        <ele>217.9</ele>
        <time>2022-05-01T07:56:07Z</time>
      </trkpt>
      <trkpt lat="45.07315" lon="0.74495">
        <ele>218.1</ele>
        <time>2022-05-01T07:56:09Z</time>
      </trkpt>
      <trkpt lat="45.07315" lon="0.74483">
        <ele>218.4</ele>
        <time>2022-05-01T07:56:11Z</time>
      </trkpt>
      <trkpt lat="45.07316" lon="0.74472">
        <ele>218.8</ele>
        <time>2022-05-01T07:56:13Z</time>
      </trkpt>
      <trkpt lat="45.07317" lon="0.74461">
        <ele>219.1</ele>
        <time>2022-05-01T07:56:15Z</time>
      </trkpt>
      <trkpt lat="45.07321" lon="0.7445">
        <ele>219.4</ele>
        <time>2022-05-01T07:56:17Z</time>
      </trkpt>
      <trkpt lat="45.07325" lon="0.7444">
        <ele>219.7</ele>
        <time>2022-05-01T07:56:19Z</time>
      </trkpt>
      <trkpt lat="45.07329" lon="0.7443">
        <ele>219.9</ele>
        <time>2022-05-01T07:56:21Z</time>
      </trkpt>
      <trkpt lat="45.07333" lon="0.74421">
        <ele>220.1</ele>
        <time>2022-05-01T07:56:23Z</time>
      </trkpt>
      <trkpt lat="45.07336" lon="0.74416">
        <ele>220.1</ele>
        <time>2022-05-01T07:56:24Z</time>
      </trkpt>
      <trkpt lat="45.07338" lon="0.74412">
        <ele>220.2</ele>
        <time>2022-05-01T07:56:25Z</time>
      </trkpt>
      <trkpt lat="45.07344" lon="0.74405">
        <ele>220.3</ele>
        <time>2022-05-01T07:56:27Z</time>
      </trkpt>
      <trkpt lat="45.07349" lon="0.74399">
        <ele>220.5</ele>
        <time>2022-05-01T07:56:29Z</time>
      </trkpt>
      <trkpt lat="45.07352" lon="0.74396">
        <ele>220.6</ele>
        <time>2022-05-01T07:56:30Z</time>
      </trkpt>
      <trkpt lat="45.07355" lon="0.74393">
        <ele>220.6</ele>
        <time>2022-05-01T07:56:31Z</time>
      </trkpt>
      <trkpt lat="45.07362" lon="0.74387">
        <ele>220.7</ele>
        <time>2022-05-01T07:56:33Z</time>
      </trkpt>
      <trkpt lat="45.07367" lon="0.74382">
        <ele>220.8</ele>
        <time>2022-05-01T07:56:35Z</time>
      </trkpt>
      <trkpt lat="45.07375" lon="0.74375">
        <ele>221</ele>
        <time>2022-05-01T07:56:37Z</time>
      </trkpt>
      <trkpt lat="45.07382" lon="0.74369">
        <ele>221.2</ele>
        <time>2022-05-01T07:56:39Z</time>
      </trkpt>
      <trkpt lat="45.07388" lon="0.74363">
        <ele>221.3</ele>
        <time>2022-05-01T07:56:41Z</time>
      </trkpt>
      <trkpt lat="45.07391" lon="0.74361">
        <ele>221.4</ele>
        <time>2022-05-01T07:56:42Z</time>
      </trkpt>
      <trkpt lat="45.07394" lon="0.74358">
        <ele>221.5</ele>
        <time>2022-05-01T07:56:43Z</time>
      </trkpt>
      <trkpt lat="45.074" lon="0.74353">
        <ele>221.6</ele>
        <time>2022-05-01T07:56:45Z</time>
      </trkpt>
      <trkpt lat="45.07407" lon="0.74348">
        <ele>221.7</ele>
        <time>2022-05-01T07:56:47Z</time>
      </trkpt>
      <trkpt lat="45.07414" lon="0.74342">
        <ele>221.9</ele>
        <time>2022-05-01T07:56:49Z</time>
      </trkpt>
      <trkpt lat="45.07422" lon="0.74335">
        <ele>222.2</ele>
        <time>2022-05-01T07:56:51Z</time>
      </trkpt>
      <trkpt lat="45.07429" lon="0.7433">
        <ele>222.7</ele>
        <time>2022-05-01T07:56:53Z</time>
      </trkpt>
      <trkpt lat="45.07433" lon="0.74327">
        <ele>223</ele>
        <time>2022-05-01T07:56:54Z</time>
      </trkpt>
      <trkpt lat="45.07436" lon="0.74324">
        <ele>223.3</ele>
        <time>2022-05-01T07:56:55Z</time>
      </trkpt>
      <trkpt lat="45.07443" lon="0.74315">
        <ele>224.1</ele>
        <time>2022-05-01T07:56:57Z</time>
      </trkpt>
      <trkpt lat="45.07449" lon="0.74307">
        <ele>224.7</ele>
        <time>2022-05-01T07:56:59Z</time>
      </trkpt>
      <trkpt lat="45.07453" lon="0.74298">
        <ele>225.3</ele>
        <time>2022-05-01T07:57:01Z</time>
      </trkpt>
      <trkpt lat="45.07455" lon="0.74292">
        <ele>225.6</ele>
        <time>2022-05-01T07:57:02Z</time>
      </trkpt>
      <trkpt lat="45.07457" lon="0.74287">
        <ele>225.8</ele>
        <time>2022-05-01T07:57:03Z</time>
      </trkpt>
      <trkpt lat="45.0746" lon="0.74277">
        <ele>226.3</ele>
        <time>2022-05-01T07:57:05Z</time>
      </trkpt>
      <trkpt lat="45.07463" lon="0.74267">
        <ele>226.7</ele>
        <time>2022-05-01T07:57:07Z</time>
      </trkpt>
      <trkpt lat="45.07466" lon="0.74258">
        <ele>227</ele>
        <time>2022-05-01T07:57:09Z</time>
      </trkpt>
      <trkpt lat="45.07469" lon="0.74247">
        <ele>227.4</ele>
        <time>2022-05-01T07:57:11Z</time>
      </trkpt>
      <trkpt lat="45.07471" lon="0.74242">
        <ele>227.6</ele>
        <time>2022-05-01T07:57:12Z</time>
      </trkpt>
      <trkpt lat="45.07473" lon="0.74237">
        <ele>227.7</ele>
        <time>2022-05-01T07:57:13Z</time>
      </trkpt>
      <trkpt lat="45.07476" lon="0.74227">
        <ele>228.1</ele>
        <time>2022-05-01T07:57:15Z</time>
      </trkpt>
      <trkpt lat="45.07477" lon="0.74222">
        <ele>228.2</ele>
        <time>2022-05-01T07:57:16Z</time>
      </trkpt>
      <trkpt lat="45.07479" lon="0.74216">
        <ele>228.3</ele>
        <time>2022-05-01T07:57:17Z</time>
      </trkpt>
      <trkpt lat="45.0748" lon="0.74205">
        <ele>228.6</ele>
        <time>2022-05-01T07:57:19Z</time>
      </trkpt>
      <trkpt lat="45.07481" lon="0.74196">
        <ele>228.8</ele>
        <time>2022-05-01T07:57:21Z</time>
      </trkpt>
      <trkpt lat="45.07482" lon="0.74186">
        <ele>228.9</ele>
        <time>2022-05-01T07:57:23Z</time>
      </trkpt>
      <trkpt lat="45.07483" lon="0.74176">
        <ele>229.1</ele>
        <time>2022-05-01T07:57:25Z</time>
      </trkpt>
      <trkpt lat="45.07483" lon="0.74166">
        <ele>229.3</ele>
        <time>2022-05-01T07:57:27Z</time>
      </trkpt>
      <trkpt lat="45.07484" lon="0.74156">
        <ele>229.4</ele>
        <time>2022-05-01T07:57:29Z</time>
      </trkpt>
      <trkpt lat="45.07485" lon="0.74145">
        <ele>229.7</ele>
        <time>2022-05-01T07:57:31Z</time>
      </trkpt>
      <trkpt lat="45.07486" lon="0.74135">
        <ele>229.9</ele>
        <time>2022-05-01T07:57:33Z</time>
      </trkpt>
      <trkpt lat="45.07487" lon="0.74124">
        <ele>230.2</ele>
        <time>2022-05-01T07:57:35Z</time>
      </trkpt>
      <trkpt lat="45.07488" lon="0.74115">
        <ele>230.4</ele>
        <time>2022-05-01T07:57:37Z</time>
      </trkpt>
      <trkpt lat="45.07488" lon="0.7411">
        <ele>230.5</ele>
        <time>2022-05-01T07:57:38Z</time>
      </trkpt>
      <trkpt lat="45.07489" lon="0.74105">
        <ele>230.6</ele>
        <time>2022-05-01T07:57:39Z</time>
      </trkpt>
      <trkpt lat="45.07491" lon="0.74094">
        <ele>230.9</ele>
        <time>2022-05-01T07:57:41Z</time>
      </trkpt>
      <trkpt lat="45.07493" lon="0.74083">
        <ele>231.1</ele>
        <time>2022-05-01T07:57:43Z</time>
      </trkpt>
      <trkpt lat="45.07494" lon="0.74077">
        <ele>231.2</ele>
        <time>2022-05-01T07:57:44Z</time>
      </trkpt>
      <trkpt lat="45.07495" lon="0.74072">
        <ele>231.3</ele>
        <time>2022-05-01T07:57:45Z</time>
      </trkpt>
      <trkpt lat="45.07497" lon="0.74062">
        <ele>231.5</ele>
        <time>2022-05-01T07:57:47Z</time>
      </trkpt>
      <trkpt lat="45.07501" lon="0.74052">
        <ele>231.8</ele>
        <time>2022-05-01T07:57:49Z</time>
      </trkpt>
      <trkpt lat="45.07504" lon="0.74043">
        <ele>232.1</ele>
        <time>2022-05-01T07:57:51Z</time>
      </trkpt>
      <trkpt lat="45.07507" lon="0.74034">
        <ele>232.4</ele>
        <time>2022-05-01T07:57:53Z</time>
      </trkpt>
      <trkpt lat="45.0751" lon="0.74026">
        <ele>232.6</ele>
        <time>2022-05-01T07:57:55Z</time>
      </trkpt>
      <trkpt lat="45.07511" lon="0.74021">
        <ele>232.6</ele>
        <time>2022-05-01T07:57:56Z</time>
      </trkpt>
      <trkpt lat="45.07512" lon="0.74017">
        <ele>232.7</ele>
        <time>2022-05-01T07:57:57Z</time>
      </trkpt>
      <trkpt lat="45.07515" lon="0.74008">
        <ele>232.7</ele>
        <time>2022-05-01T07:57:59Z</time>
      </trkpt>
      <trkpt lat="45.07518" lon="0.73999">
        <ele>232.7</ele>
        <time>2022-05-01T07:58:01Z</time>
      </trkpt>
      <trkpt lat="45.07519" lon="0.73994">
        <ele>232.7</ele>
        <time>2022-05-01T07:58:02Z</time>
      </trkpt>
      <trkpt lat="45.07521" lon="0.73989">
        <ele>232.7</ele>
        <time>2022-05-01T07:58:03Z</time>
      </trkpt>
      <trkpt lat="45.07523" lon="0.7398">
        <ele>232.7</ele>
        <time>2022-05-01T07:58:05Z</time>
      </trkpt>
      <trkpt lat="45.07526" lon="0.7397">
        <ele>232.9</ele>
        <time>2022-05-01T07:58:07Z</time>
      </trkpt>
      <trkpt lat="45.07529" lon="0.73962">
        <ele>233.1</ele>
        <time>2022-05-01T07:58:09Z</time>
      </trkpt>
      <trkpt lat="45.07531" lon="0.73954">
        <ele>233.2</ele>
        <time>2022-05-01T07:58:11Z</time>
      </trkpt>
      <trkpt lat="45.07532" lon="0.7395">
        <ele>233.3</ele>
        <time>2022-05-01T07:58:12Z</time>
      </trkpt>
      <trkpt lat="45.07534" lon="0.73946">
        <ele>233.4</ele>
        <time>2022-05-01T07:58:13Z</time>
      </trkpt>
      <trkpt lat="45.07536" lon="0.73938">
        <ele>233.6</ele>
        <time>2022-05-01T07:58:15Z</time>
      </trkpt>
      <trkpt lat="45.07539" lon="0.7393">
        <ele>233.8</ele>
        <time>2022-05-01T07:58:17Z</time>
      </trkpt>
      <trkpt lat="45.0754" lon="0.73926">
        <ele>233.9</ele>
        <time>2022-05-01T07:58:18Z</time>
      </trkpt>
      <trkpt lat="45.07541" lon="0.73923">
        <ele>234</ele>
        <time>2022-05-01T07:58:19Z</time>
      </trkpt>
      <trkpt lat="45.07544" lon="0.73915">
        <ele>234.2</ele>
        <time>2022-05-01T07:58:21Z</time>
      </trkpt>
      <trkpt lat="45.07547" lon="0.73906">
        <ele>234.5</ele>
        <time>2022-05-01T07:58:23Z</time>
      </trkpt>
      <trkpt lat="45.07548" lon="0.73903">
        <ele>234.7</ele>
        <time>2022-05-01T07:58:24Z</time>
      </trkpt>
      <trkpt lat="45.07549" lon="0.73899">
        <ele>234.9</ele>
        <time>2022-05-01T07:58:25Z</time>
      </trkpt>
      <trkpt lat="45.07551" lon="0.73892">
        <ele>235.2</ele>
        <time>2022-05-01T07:58:27Z</time>
      </trkpt>
      <trkpt lat="45.07553" lon="0.73885">
        <ele>235.5</ele>
        <time>2022-05-01T07:58:29Z</time>
      </trkpt>
      <trkpt lat="45.07556" lon="0.73878">
        <ele>235.7</ele>
        <time>2022-05-01T07:58:31Z</time>
      </trkpt>
      <trkpt lat="45.07558" lon="0.7387">
        <ele>235.9</ele>
        <time>2022-05-01T07:58:33Z</time>
      </trkpt>
      <trkpt lat="45.07561" lon="0.73862">
        <ele>236</ele>
        <time>2022-05-01T07:58:35Z</time>
      </trkpt>
      <trkpt lat="45.07563" lon="0.73855">
        <ele>236.1</ele>
        <time>2022-05-01T07:58:37Z</time>
      </trkpt>
      <trkpt lat="45.07566" lon="0.73847">
        <ele>236.2</ele>
        <time>2022-05-01T07:58:39Z</time>
      </trkpt>
      <trkpt lat="45.07569" lon="0.73839">
        <ele>236.3</ele>
        <time>2022-05-01T07:58:41Z</time>
      </trkpt>
      <trkpt lat="45.0757" lon="0.73835">
        <ele>236.4</ele>
        <time>2022-05-01T07:58:42Z</time>
      </trkpt>
      <trkpt lat="45.07572" lon="0.73831">
        <ele>236.5</ele>
        <time>2022-05-01T07:58:43Z</time>
      </trkpt>
      <trkpt lat="45.07575" lon="0.73824">
        <ele>236.7</ele>
        <time>2022-05-01T07:58:45Z</time>
      </trkpt>
      <trkpt lat="45.07577" lon="0.73817">
        <ele>237</ele>
        <time>2022-05-01T07:58:47Z</time>
      </trkpt>
      <trkpt lat="45.07579" lon="0.73814">
        <ele>237.2</ele>
        <time>2022-05-01T07:58:48Z</time>
      </trkpt>
      <trkpt lat="45.0758" lon="0.73812">
        <ele>237.3</ele>
        <time>2022-05-01T07:58:49Z</time>
      </trkpt>
      <trkpt lat="45.0758" lon="0.7381">
        <ele>237.4</ele>
        <time>2022-05-01T07:58:50Z</time>
      </trkpt>
      <trkpt lat="45.07582" lon="0.73807">
        <ele>237.5</ele>
        <time>2022-05-01T07:58:51Z</time>
      </trkpt>
      <trkpt lat="45.07584" lon="0.73802">
        <ele>237.7</ele>
        <time>2022-05-01T07:58:53Z</time>
      </trkpt>
      <trkpt lat="45.07586" lon="0.73797">
        <ele>238</ele>
        <time>2022-05-01T07:58:55Z</time>
      </trkpt>
      <trkpt lat="45.07588" lon="0.73791">
        <ele>238.3</ele>
        <time>2022-05-01T07:58:57Z</time>
      </trkpt>
      <trkpt lat="45.07589" lon="0.73789">
        <ele>238.5</ele>
        <time>2022-05-01T07:58:58Z</time>
      </trkpt>
      <trkpt lat="45.0759" lon="0.73786">
        <ele>238.7</ele>
        <time>2022-05-01T07:58:59Z</time>
      </trkpt>
      <trkpt lat="45.07592" lon="0.73781">
        <ele>239.1</ele>
        <time>2022-05-01T07:59:01Z</time>
      </trkpt>
      <trkpt lat="45.07593" lon="0.73778">
        <ele>240.4</ele>
        <time>2022-05-01T07:59:03Z</time>
      </trkpt>
      <trkpt lat="45.07594" lon="0.73776">
        <ele>240.5</ele>
        <time>2022-05-01T07:59:04Z</time>
      </trkpt>
      <trkpt lat="45.07594" lon="0.73776">
        <ele>240.5</ele>
        <time>2022-05-01T07:59:05Z</time>
      </trkpt>
      <trkpt lat="45.07594" lon="0.73776">
        <ele>240.5</ele>
        <time>2022-05-01T07:59:06Z</time>
      </trkpt>
      <trkpt lat="45.07594" lon="0.73776">
        <ele>240.5</ele>
        <time>2022-05-01T07:59:07Z</time>
      </trkpt>
      <trkpt lat="45.07594" lon="0.73776">
        <ele>240.6</ele>
        <time>2022-05-01T07:59:09Z</time>
      </trkpt>
      <trkpt lat="45.07611" lon="0.7377">
        <ele>243.1</ele>
        <time>2022-05-01T08:03:47Z</time>
      </trkpt>
      <trkpt lat="45.07615" lon="0.73769">
        <ele>243.1</ele>
        <time>2022-05-01T08:03:49Z</time>
      </trkpt>
      <trkpt lat="45.07618" lon="0.73769">
        <ele>243.1</ele>
        <time>2022-05-01T08:03:50Z</time>
      </trkpt>
      <trkpt lat="45.0762" lon="0.73769">
        <ele>244.6</ele>
        <time>2022-05-01T08:03:51Z</time>
      </trkpt>
      <trkpt lat="45.07623" lon="0.73769">
        <ele>244.6</ele>
        <time>2022-05-01T08:03:53Z</time>
      </trkpt>
      <trkpt lat="45.07628" lon="0.73769">
        <ele>244.7</ele>
        <time>2022-05-01T08:03:55Z</time>
      </trkpt>
      <trkpt lat="45.07633" lon="0.73768">
        <ele>245.9</ele>
        <time>2022-05-01T08:03:57Z</time>
      </trkpt>
      <trkpt lat="45.07638" lon="0.73768">
        <ele>245.9</ele>
        <time>2022-05-01T08:03:59Z</time>
      </trkpt>
      <trkpt lat="45.07643" lon="0.73767">
        <ele>246.6</ele>
        <time>2022-05-01T08:04:01Z</time>
      </trkpt>
      <trkpt lat="45.07646" lon="0.73765">
        <ele>246.7</ele>
        <time>2022-05-01T08:04:03Z</time>
      </trkpt>
      <trkpt lat="45.0765" lon="0.73764">
        <ele>246.7</ele>
        <time>2022-05-01T08:04:05Z</time>
      </trkpt>
      <trkpt lat="45.07652" lon="0.73763">
        <ele>246.5</ele>
        <time>2022-05-01T08:04:06Z</time>
      </trkpt>
      <trkpt lat="45.07653" lon="0.73762">
        <ele>246.5</ele>
        <time>2022-05-01T08:04:07Z</time>
      </trkpt>
      <trkpt lat="45.07657" lon="0.7376">
        <ele>246.6</ele>
        <time>2022-05-01T08:04:09Z</time>
      </trkpt>
      <trkpt lat="45.07659" lon="0.73758">
        <ele>246.6</ele>
        <time>2022-05-01T08:04:10Z</time>
      </trkpt>
      <trkpt lat="45.0766" lon="0.73757">
        <ele>246.6</ele>
        <time>2022-05-01T08:04:11Z</time>
      </trkpt>
      <trkpt lat="45.07662" lon="0.73755">
        <ele>246.6</ele>
        <time>2022-05-01T08:04:12Z</time>
      </trkpt>
      <trkpt lat="45.07678" lon="0.73742">
        <ele>245.8</ele>
        <time>2022-05-01T08:04:22Z</time>
      </trkpt>
      <trkpt lat="45.07679" lon="0.7374">
        <ele>245.8</ele>
        <time>2022-05-01T08:04:23Z</time>
      </trkpt>
      <trkpt lat="45.07682" lon="0.73737">
        <ele>245.7</ele>
        <time>2022-05-01T08:04:25Z</time>
      </trkpt>
      <trkpt lat="45.07685" lon="0.73734">
        <ele>245.7</ele>
        <time>2022-05-01T08:04:26Z</time>
      </trkpt>
      <trkpt lat="45.0769" lon="0.73732">
        <ele>245.7</ele>
        <time>2022-05-01T08:04:27Z</time>
      </trkpt>
      <trkpt lat="45.07699" lon="0.7373">
        <ele>245.8</ele>
        <time>2022-05-01T08:04:29Z</time>
      </trkpt>
      <trkpt lat="45.077" lon="0.73725">
        <ele>246</ele>
        <time>2022-05-01T08:04:31Z</time>
      </trkpt>
      <trkpt lat="45.07702" lon="0.73719">
        <ele>246</ele>
        <time>2022-05-01T08:04:33Z</time>
      </trkpt>
      <trkpt lat="45.07706" lon="0.73715">
        <ele>246.2</ele>
        <time>2022-05-01T08:04:35Z</time>
      </trkpt>
      <trkpt lat="45.0771" lon="0.7371">
        <ele>246.3</ele>
        <time>2022-05-01T08:04:37Z</time>
      </trkpt>
      <trkpt lat="45.07714" lon="0.73706">
        <ele>246.3</ele>
        <time>2022-05-01T08:04:39Z</time>
      </trkpt>
      <trkpt lat="45.07718" lon="0.73701">
        <ele>246.4</ele>
        <time>2022-05-01T08:04:41Z</time>
      </trkpt>
      <trkpt lat="45.0772" lon="0.73699">
        <ele>246.5</ele>
        <time>2022-05-01T08:04:42Z</time>
      </trkpt>
      <trkpt lat="45.07722" lon="0.73697">
        <ele>246.5</ele>
        <time>2022-05-01T08:04:43Z</time>
      </trkpt>
      <trkpt lat="45.07726" lon="0.73693">
        <ele>246.5</ele>
        <time>2022-05-01T08:04:45Z</time>
      </trkpt>
      <trkpt lat="45.0773" lon="0.73688">
        <ele>246.7</ele>
        <time>2022-05-01T08:04:47Z</time>
      </trkpt>
      <trkpt lat="45.07734" lon="0.73683">
        <ele>246.7</ele>
        <time>2022-05-01T08:04:49Z</time>
      </trkpt>
      <trkpt lat="45.07737" lon="0.73681">
        <ele>246.7</ele>
        <time>2022-05-01T08:04:50Z</time>
      </trkpt>
      <trkpt lat="45.07738" lon="0.73679">
        <ele>246.8</ele>
        <time>2022-05-01T08:04:51Z</time>
      </trkpt>
      <trkpt lat="45.07742" lon="0.73675">
        <ele>246.7</ele>
        <time>2022-05-01T08:04:53Z</time>
      </trkpt>
      <trkpt lat="45.07746" lon="0.73671">
        <ele>246.7</ele>
        <time>2022-05-01T08:04:55Z</time>
      </trkpt>
      <trkpt lat="45.0775" lon="0.73666">
        <ele>246.7</ele>
        <time>2022-05-01T08:04:57Z</time>
      </trkpt>
      <trkpt lat="45.07754" lon="0.73662">
        <ele>246.8</ele>
        <time>2022-05-01T08:04:59Z</time>
      </trkpt>
      <trkpt lat="45.07758" lon="0.73657">
        <ele>246.6</ele>
        <time>2022-05-01T08:05:01Z</time>
      </trkpt>
      <trkpt lat="45.07762" lon="0.73653">
        <ele>246.6</ele>
        <time>2022-05-01T08:05:03Z</time>
      </trkpt>
      <trkpt lat="45.07765" lon="0.7365">
        <ele>246.8</ele>
        <time>2022-05-01T08:05:05Z</time>
      </trkpt>
      <trkpt lat="45.07768" lon="0.73647">
        <ele>246.9</ele>
        <time>2022-05-01T08:05:06Z</time>
      </trkpt>
      <trkpt lat="45.0777" lon="0.73646">
        <ele>246.9</ele>
        <time>2022-05-01T08:05:07Z</time>
      </trkpt>
      <trkpt lat="45.07772" lon="0.73646">
        <ele>246.9</ele>
        <time>2022-05-01T08:05:08Z</time>
      </trkpt>
      <trkpt lat="45.07774" lon="0.73645">
        <ele>246.9</ele>
        <time>2022-05-01T08:05:09Z</time>
      </trkpt>
      <trkpt lat="45.07777" lon="0.73643">
        <ele>247.1</ele>
        <time>2022-05-01T08:05:10Z</time>
      </trkpt>
      <trkpt lat="45.07778" lon="0.7364">
        <ele>246.7</ele>
        <time>2022-05-01T08:05:11Z</time>
      </trkpt>
      <trkpt lat="45.07778" lon="0.73636">
        <ele>246.7</ele>
        <time>2022-05-01T08:05:12Z</time>
      </trkpt>
      <trkpt lat="45.07779" lon="0.73633">
        <ele>246.7</ele>
        <time>2022-05-01T08:05:13Z</time>
      </trkpt>
      <trkpt lat="45.0778" lon="0.7363">
        <ele>246.8</ele>
        <time>2022-05-01T08:05:15Z</time>
      </trkpt>
      <trkpt lat="45.0778" lon="0.73626">
        <ele>246.8</ele>
        <time>2022-05-01T08:05:16Z</time>
      </trkpt>
      <trkpt lat="45.07781" lon="0.73623">
        <ele>246.3</ele>
        <time>2022-05-01T08:05:17Z</time>
      </trkpt>
      <trkpt lat="45.07781" lon="0.73619">
        <ele>246.3</ele>
        <time>2022-05-01T08:05:18Z</time>
      </trkpt>
      <trkpt lat="45.07795" lon="0.73598">
        <ele>245.4</ele>
        <time>2022-05-01T08:05:19Z</time>
      </trkpt>
      <trkpt lat="45.07802" lon="0.73589">
        <ele>244.4</ele>
        <time>2022-05-01T08:05:21Z</time>
      </trkpt>
      <trkpt lat="45.07805" lon="0.73587">
        <ele>244.4</ele>
        <time>2022-05-01T08:05:22Z</time>
      </trkpt>
      <trkpt lat="45.07809" lon="0.73583">
        <ele>244.4</ele>
        <time>2022-05-01T08:05:23Z</time>
      </trkpt>
      <trkpt lat="45.07814" lon="0.73573">
        <ele>243.4</ele>
        <time>2022-05-01T08:05:25Z</time>
      </trkpt>
      <trkpt lat="45.07817" lon="0.73561">
        <ele>243.4</ele>
        <time>2022-05-01T08:05:27Z</time>
      </trkpt>
      <trkpt lat="45.07819" lon="0.73549">
        <ele>242.8</ele>
        <time>2022-05-01T08:05:29Z</time>
      </trkpt>
      <trkpt lat="45.07823" lon="0.73541">
        <ele>242.8</ele>
        <time>2022-05-01T08:05:31Z</time>
      </trkpt>
      <trkpt lat="45.07825" lon="0.73538">
        <ele>241.9</ele>
        <time>2022-05-01T08:05:32Z</time>
      </trkpt>
      <trkpt lat="45.07827" lon="0.73535">
        <ele>242</ele>
        <time>2022-05-01T08:05:33Z</time>
      </trkpt>
      <trkpt lat="45.07828" lon="0.73532">
        <ele>242</ele>
        <time>2022-05-01T08:05:34Z</time>
      </trkpt>
      <trkpt lat="45.07829" lon="0.73529">
        <ele>242</ele>
        <time>2022-05-01T08:05:35Z</time>
      </trkpt>
      <trkpt lat="45.07831" lon="0.73524">
        <ele>242.1</ele>
        <time>2022-05-01T08:05:37Z</time>
      </trkpt>
      <trkpt lat="45.07834" lon="0.73525">
        <ele>242.1</ele>
        <time>2022-05-01T08:05:39Z</time>
      </trkpt>
      <trkpt lat="45.07835" lon="0.73522">
        <ele>241.6</ele>
        <time>2022-05-01T08:05:41Z</time>
      </trkpt>
      <trkpt lat="45.07837" lon="0.73518">
        <ele>241.7</ele>
        <time>2022-05-01T08:05:42Z</time>
      </trkpt>
      <trkpt lat="45.07838" lon="0.73516">
        <ele>241.2</ele>
        <time>2022-05-01T08:05:43Z</time>
      </trkpt>
      <trkpt lat="45.0784" lon="0.73512">
        <ele>241.2</ele>
        <time>2022-05-01T08:05:44Z</time>
      </trkpt>
      <trkpt lat="45.07841" lon="0.73509">
        <ele>241.3</ele>
        <time>2022-05-01T08:05:45Z</time>
      </trkpt>
      <trkpt lat="45.07841" lon="0.73502">
        <ele>240.9</ele>
        <time>2022-05-01T08:05:47Z</time>
      </trkpt>
      <trkpt lat="45.07842" lon="0.735">
        <ele>240.9</ele>
        <time>2022-05-01T08:05:48Z</time>
      </trkpt>
      <trkpt lat="45.07842" lon="0.73492">
        <ele>240.9</ele>
        <time>2022-05-01T08:05:49Z</time>
      </trkpt>
      <trkpt lat="45.07845" lon="0.73491">
        <ele>241</ele>
        <time>2022-05-01T08:05:51Z</time>
      </trkpt>
      <trkpt lat="45.07847" lon="0.73491">
        <ele>241</ele>
        <time>2022-05-01T08:05:52Z</time>
      </trkpt>
      <trkpt lat="45.07849" lon="0.73491">
        <ele>240.9</ele>
        <time>2022-05-01T08:05:53Z</time>
      </trkpt>
      <trkpt lat="45.07854" lon="0.7349">
        <ele>240.7</ele>
        <time>2022-05-01T08:05:55Z</time>
      </trkpt>
      <trkpt lat="45.07856" lon="0.7349">
        <ele>240.5</ele>
        <time>2022-05-01T08:05:57Z</time>
      </trkpt>
      <trkpt lat="45.07859" lon="0.73489">
        <ele>240.4</ele>
        <time>2022-05-01T08:05:59Z</time>
      </trkpt>
      <trkpt lat="45.07863" lon="0.73489">
        <ele>240.2</ele>
        <time>2022-05-01T08:06:01Z</time>
      </trkpt>
      <trkpt lat="45.07867" lon="0.73488">
        <ele>240.1</ele>
        <time>2022-05-01T08:06:02Z</time>
      </trkpt>
      <trkpt lat="45.0787" lon="0.73488">
        <ele>239.9</ele>
        <time>2022-05-01T08:06:03Z</time>
      </trkpt>
      <trkpt lat="45.07876" lon="0.73487">
        <ele>239.7</ele>
        <time>2022-05-01T08:06:05Z</time>
      </trkpt>
      <trkpt lat="45.07883" lon="0.73486">
        <ele>239.5</ele>
        <time>2022-05-01T08:06:07Z</time>
      </trkpt>
      <trkpt lat="45.07891" lon="0.73485">
        <ele>239.3</ele>
        <time>2022-05-01T08:06:09Z</time>
      </trkpt>
      <trkpt lat="45.079" lon="0.73483">
        <ele>239.1</ele>
        <time>2022-05-01T08:06:11Z</time>
      </trkpt>
      <trkpt lat="45.07908" lon="0.73482">
        <ele>239</ele>
        <time>2022-05-01T08:06:13Z</time>
      </trkpt>
      <trkpt lat="45.07915" lon="0.73481">
        <ele>238.9</ele>
        <time>2022-05-01T08:06:15Z</time>
      </trkpt>
      <trkpt lat="45.07921" lon="0.7348">
        <ele>238.9</ele>
        <time>2022-05-01T08:06:17Z</time>
      </trkpt>
      <trkpt lat="45.07924" lon="0.7348">
        <ele>238.8</ele>
        <time>2022-05-01T08:06:18Z</time>
      </trkpt>
      <trkpt lat="45.07928" lon="0.73479">
        <ele>238.8</ele>
        <time>2022-05-01T08:06:19Z</time>
      </trkpt>
      <trkpt lat="45.07935" lon="0.73477">
        <ele>238.7</ele>
        <time>2022-05-01T08:06:21Z</time>
      </trkpt>
      <trkpt lat="45.07938" lon="0.73475">
        <ele>238.7</ele>
        <time>2022-05-01T08:06:22Z</time>
      </trkpt>
      <trkpt lat="45.07941" lon="0.73474">
        <ele>238.7</ele>
        <time>2022-05-01T08:06:23Z</time>
      </trkpt>
      <trkpt lat="45.07948" lon="0.73471">
        <ele>238.6</ele>
        <time>2022-05-01T08:06:25Z</time>
      </trkpt>
      <trkpt lat="45.07958" lon="0.73466">
        <ele>238.4</ele>
        <time>2022-05-01T08:06:27Z</time>
      </trkpt>
      <trkpt lat="45.07966" lon="0.73462">
        <ele>238.2</ele>
        <time>2022-05-01T08:06:29Z</time>
      </trkpt>
      <trkpt lat="45.07974" lon="0.73456">
        <ele>238</ele>
        <time>2022-05-01T08:06:31Z</time>
      </trkpt>
      <trkpt lat="45.07982" lon="0.73451">
        <ele>237.8</ele>
        <time>2022-05-01T08:06:33Z</time>
      </trkpt>
      <trkpt lat="45.0799" lon="0.73445">
        <ele>237.5</ele>
        <time>2022-05-01T08:06:35Z</time>
      </trkpt>
      <trkpt lat="45.07994" lon="0.73442">
        <ele>237.4</ele>
        <time>2022-05-01T08:06:36Z</time>
      </trkpt>
      <trkpt lat="45.07998" lon="0.73439">
        <ele>237.3</ele>
        <time>2022-05-01T08:06:37Z</time>
      </trkpt>
      <trkpt lat="45.08006" lon="0.73433">
        <ele>237.1</ele>
        <time>2022-05-01T08:06:39Z</time>
      </trkpt>
      <trkpt lat="45.08014" lon="0.73428">
        <ele>237</ele>
        <time>2022-05-01T08:06:41Z</time>
      </trkpt>
      <trkpt lat="45.08021" lon="0.7342">
        <ele>236.9</ele>
        <time>2022-05-01T08:06:43Z</time>
      </trkpt>
      <trkpt lat="45.08026" lon="0.73411">
        <ele>236.8</ele>
        <time>2022-05-01T08:06:45Z</time>
      </trkpt>
      <trkpt lat="45.08029" lon="0.73401">
        <ele>236.6</ele>
        <time>2022-05-01T08:06:47Z</time>
      </trkpt>
      <trkpt lat="45.0803" lon="0.73393">
        <ele>236.5</ele>
        <time>2022-05-01T08:06:49Z</time>
      </trkpt>
      <trkpt lat="45.08039" lon="0.73383">
        <ele>236.3</ele>
        <time>2022-05-01T08:06:50Z</time>
      </trkpt>
      <trkpt lat="45.08042" lon="0.73383">
        <ele>236.2</ele>
        <time>2022-05-01T08:06:51Z</time>
      </trkpt>
      <trkpt lat="45.08048" lon="0.73383">
        <ele>236.2</ele>
        <time>2022-05-01T08:06:53Z</time>
      </trkpt>
      <trkpt lat="45.08055" lon="0.73378">
        <ele>236.1</ele>
        <time>2022-05-01T08:06:55Z</time>
      </trkpt>
      <trkpt lat="45.08054" lon="0.73367">
        <ele>235.2</ele>
        <time>2022-05-01T08:06:57Z</time>
      </trkpt>
      <trkpt lat="45.08049" lon="0.73349">
        <ele>234.2</ele>
        <time>2022-05-01T08:06:59Z</time>
      </trkpt>
      <trkpt lat="45.08047" lon="0.73339">
        <ele>233.7</ele>
        <time>2022-05-01T08:07:00Z</time>
      </trkpt>
      <trkpt lat="45.08044" lon="0.73328">
        <ele>233.2</ele>
        <time>2022-05-01T08:07:01Z</time>
      </trkpt>
      <trkpt lat="45.08042" lon="0.73316">
        <ele>232.7</ele>
        <time>2022-05-01T08:07:02Z</time>
      </trkpt>
      <trkpt lat="45.08044" lon="0.73304">
        <ele>232.2</ele>
        <time>2022-05-01T08:07:03Z</time>
      </trkpt>
      <trkpt lat="45.08047" lon="0.73294">
        <ele>231.9</ele>
        <time>2022-05-01T08:07:04Z</time>
      </trkpt>
      <trkpt lat="45.08051" lon="0.73287">
        <ele>231.6</ele>
        <time>2022-05-01T08:07:05Z</time>
      </trkpt>
      <trkpt lat="45.08057" lon="0.7328">
        <ele>231.6</ele>
        <time>2022-05-01T08:07:06Z</time>
      </trkpt>
      <trkpt lat="45.08063" lon="0.73274">
        <ele>231.6</ele>
        <time>2022-05-01T08:07:07Z</time>
      </trkpt>
      <trkpt lat="45.08074" lon="0.73263">
        <ele>231.6</ele>
        <time>2022-05-01T08:07:09Z</time>
      </trkpt>
      <trkpt lat="45.08079" lon="0.73257">
        <ele>231.8</ele>
        <time>2022-05-01T08:07:10Z</time>
      </trkpt>
      <trkpt lat="45.08083" lon="0.73253">
        <ele>231.9</ele>
        <time>2022-05-01T08:07:11Z</time>
      </trkpt>
      <trkpt lat="45.08092" lon="0.73243">
        <ele>232.1</ele>
        <time>2022-05-01T08:07:13Z</time>
      </trkpt>
      <trkpt lat="45.081" lon="0.73235">
        <ele>232.3</ele>
        <time>2022-05-01T08:07:15Z</time>
      </trkpt>
      <trkpt lat="45.08108" lon="0.73227">
        <ele>232.3</ele>
        <time>2022-05-01T08:07:17Z</time>
      </trkpt>
      <trkpt lat="45.08115" lon="0.73219">
        <ele>232.2</ele>
        <time>2022-05-01T08:07:19Z</time>
      </trkpt>
      <trkpt lat="45.08122" lon="0.73211">
        <ele>232</ele>
        <time>2022-05-01T08:07:21Z</time>
      </trkpt>
      <trkpt lat="45.08131" lon="0.73203">
        <ele>231.7</ele>
        <time>2022-05-01T08:07:23Z</time>
      </trkpt>
      <trkpt lat="45.08139" lon="0.73195">
        <ele>231.3</ele>
        <time>2022-05-01T08:07:25Z</time>
      </trkpt>
      <trkpt lat="45.08149" lon="0.73187">
        <ele>230.8</ele>
        <time>2022-05-01T08:07:27Z</time>
      </trkpt>
      <trkpt lat="45.08158" lon="0.73179">
        <ele>230.1</ele>
        <time>2022-05-01T08:07:29Z</time>
      </trkpt>
      <trkpt lat="45.08163" lon="0.73175">
        <ele>229.7</ele>
        <time>2022-05-01T08:07:30Z</time>
      </trkpt>
      <trkpt lat="45.08167" lon="0.73171">
        <ele>229.3</ele>
        <time>2022-05-01T08:07:31Z</time>
      </trkpt>
      <trkpt lat="45.08178" lon="0.73162">
        <ele>228.5</ele>
        <time>2022-05-01T08:07:33Z</time>
      </trkpt>
      <trkpt lat="45.08183" lon="0.73158">
        <ele>228.3</ele>
        <time>2022-05-01T08:07:34Z</time>
      </trkpt>
      <trkpt lat="45.08187" lon="0.73154">
        <ele>228.1</ele>
        <time>2022-05-01T08:07:35Z</time>
      </trkpt>
      <trkpt lat="45.08195" lon="0.73142">
        <ele>227.6</ele>
        <time>2022-05-01T08:07:37Z</time>
      </trkpt>
      <trkpt lat="45.08199" lon="0.73129">
        <ele>227.3</ele>
        <time>2022-05-01T08:07:39Z</time>
      </trkpt>
      <trkpt lat="45.08203" lon="0.73116">
        <ele>227</ele>
        <time>2022-05-01T08:07:41Z</time>
      </trkpt>
      <trkpt lat="45.08199" lon="0.7311">
        <ele>227.1</ele>
        <time>2022-05-01T08:07:42Z</time>
      </trkpt>
      <trkpt lat="45.08195" lon="0.73105">
        <ele>227.4</ele>
        <time>2022-05-01T08:07:43Z</time>
      </trkpt>
      <trkpt lat="45.08187" lon="0.73095">
        <ele>228.1</ele>
        <time>2022-05-01T08:07:45Z</time>
      </trkpt>
      <trkpt lat="45.0818" lon="0.73086">
        <ele>228.8</ele>
        <time>2022-05-01T08:07:47Z</time>
      </trkpt>
      <trkpt lat="45.08173" lon="0.73077">
        <ele>229.5</ele>
        <time>2022-05-01T08:07:49Z</time>
      </trkpt>
      <trkpt lat="45.08166" lon="0.73069">
        <ele>230.2</ele>
        <time>2022-05-01T08:07:51Z</time>
      </trkpt>
      <trkpt lat="45.0816" lon="0.73065">
        <ele>230.9</ele>
        <time>2022-05-01T08:07:53Z</time>
      </trkpt>
      <trkpt lat="45.08156" lon="0.73057">
        <ele>231.5</ele>
        <time>2022-05-01T08:07:55Z</time>
      </trkpt>
      <trkpt lat="45.08154" lon="0.73048">
        <ele>232.2</ele>
        <time>2022-05-01T08:07:57Z</time>
      </trkpt>
      <trkpt lat="45.08153" lon="0.73043">
        <ele>232.5</ele>
        <time>2022-05-01T08:07:58Z</time>
      </trkpt>
      <trkpt lat="45.08152" lon="0.73039">
        <ele>232.8</ele>
        <time>2022-05-01T08:07:59Z</time>
      </trkpt>
      <trkpt lat="45.0815" lon="0.7303">
        <ele>233.4</ele>
        <time>2022-05-01T08:08:01Z</time>
      </trkpt>
      <trkpt lat="45.08148" lon="0.73021">
        <ele>234</ele>
        <time>2022-05-01T08:08:03Z</time>
      </trkpt>
      <trkpt lat="45.08146" lon="0.73011">
        <ele>234.4</ele>
        <time>2022-05-01T08:08:05Z</time>
      </trkpt>
      <trkpt lat="45.08143" lon="0.73002">
        <ele>234.8</ele>
        <time>2022-05-01T08:08:07Z</time>
      </trkpt>
      <trkpt lat="45.0814" lon="0.72996">
        <ele>235</ele>
        <time>2022-05-01T08:08:09Z</time>
      </trkpt>
      <trkpt lat="45.08138" lon="0.72986">
        <ele>235.1</ele>
        <time>2022-05-01T08:08:11Z</time>
      </trkpt>
      <trkpt lat="45.08139" lon="0.72981">
        <ele>235.1</ele>
        <time>2022-05-01T08:08:12Z</time>
      </trkpt>
      <trkpt lat="45.0814" lon="0.72977">
        <ele>235.2</ele>
        <time>2022-05-01T08:08:13Z</time>
      </trkpt>
      <trkpt lat="45.08141" lon="0.72967">
        <ele>235.2</ele>
        <time>2022-05-01T08:08:15Z</time>
      </trkpt>
      <trkpt lat="45.08141" lon="0.72963">
        <ele>235.2</ele>
        <time>2022-05-01T08:08:16Z</time>
      </trkpt>
      <trkpt lat="45.08138" lon="0.7296">
        <ele>235.2</ele>
        <time>2022-05-01T08:08:17Z</time>
      </trkpt>
      <trkpt lat="45.08134" lon="0.72956">
        <ele>235.1</ele>
        <time>2022-05-01T08:08:19Z</time>
      </trkpt>
      <trkpt lat="45.08129" lon="0.7295">
        <ele>235</ele>
        <time>2022-05-01T08:08:21Z</time>
      </trkpt>
      <trkpt lat="45.08122" lon="0.72944">
        <ele>234.8</ele>
        <time>2022-05-01T08:08:23Z</time>
      </trkpt>
      <trkpt lat="45.08115" lon="0.72937">
        <ele>234.5</ele>
        <time>2022-05-01T08:08:25Z</time>
      </trkpt>
      <trkpt lat="45.08108" lon="0.7293">
        <ele>234</ele>
        <time>2022-05-01T08:08:27Z</time>
      </trkpt>
      <trkpt lat="45.08106" lon="0.72926">
        <ele>233.7</ele>
        <time>2022-05-01T08:08:28Z</time>
      </trkpt>
      <trkpt lat="45.08105" lon="0.72922">
        <ele>233.5</ele>
        <time>2022-05-01T08:08:29Z</time>
      </trkpt>
      <trkpt lat="45.08105" lon="0.72916">
        <ele>233.1</ele>
        <time>2022-05-01T08:08:30Z</time>
      </trkpt>
      <trkpt lat="45.08104" lon="0.72909">
        <ele>232.5</ele>
        <time>2022-05-01T08:08:31Z</time>
      </trkpt>
      <trkpt lat="45.08104" lon="0.72901">
        <ele>231.9</ele>
        <time>2022-05-01T08:08:32Z</time>
      </trkpt>
      <trkpt lat="45.08104" lon="0.72892">
        <ele>231.2</ele>
        <time>2022-05-01T08:08:33Z</time>
      </trkpt>
      <trkpt lat="45.08104" lon="0.72871">
        <ele>229.8</ele>
        <time>2022-05-01T08:08:35Z</time>
      </trkpt>
      <trkpt lat="45.08104" lon="0.7286">
        <ele>229.1</ele>
        <time>2022-05-01T08:08:36Z</time>
      </trkpt>
      <trkpt lat="45.08103" lon="0.72848">
        <ele>228.5</ele>
        <time>2022-05-01T08:08:37Z</time>
      </trkpt>
      <trkpt lat="45.08103" lon="0.72827">
        <ele>227.5</ele>
        <time>2022-05-01T08:08:39Z</time>
      </trkpt>
      <trkpt lat="45.08103" lon="0.72813">
        <ele>226.7</ele>
        <time>2022-05-01T08:08:41Z</time>
      </trkpt>
      <trkpt lat="45.08103" lon="0.72809">
        <ele>226.4</ele>
        <time>2022-05-01T08:08:42Z</time>
      </trkpt>
      <trkpt lat="45.08103" lon="0.72806">
        <ele>226.2</ele>
        <time>2022-05-01T08:08:43Z</time>
      </trkpt>
      <trkpt lat="45.081" lon="0.728">
        <ele>225.9</ele>
        <time>2022-05-01T08:08:45Z</time>
      </trkpt>
      <trkpt lat="45.08093" lon="0.72795">
        <ele>225.7</ele>
        <time>2022-05-01T08:08:47Z</time>
      </trkpt>
      <trkpt lat="45.0809" lon="0.72793">
        <ele>225.8</ele>
        <time>2022-05-01T08:08:48Z</time>
      </trkpt>
      <trkpt lat="45.08087" lon="0.72791">
        <ele>225.8</ele>
        <time>2022-05-01T08:08:49Z</time>
      </trkpt>
      <trkpt lat="45.0808" lon="0.72786">
        <ele>226.2</ele>
        <time>2022-05-01T08:08:51Z</time>
      </trkpt>
      <trkpt lat="45.08076" lon="0.72783">
        <ele>226.4</ele>
        <time>2022-05-01T08:08:52Z</time>
      </trkpt>
      <trkpt lat="45.08073" lon="0.72781">
        <ele>226.8</ele>
        <time>2022-05-01T08:08:53Z</time>
      </trkpt>
      <trkpt lat="45.08067" lon="0.72776">
        <ele>227.4</ele>
        <time>2022-05-01T08:08:55Z</time>
      </trkpt>
      <trkpt lat="45.08064" lon="0.72775">
        <ele>227.7</ele>
        <time>2022-05-01T08:08:56Z</time>
      </trkpt>
      <trkpt lat="45.08062" lon="0.72774">
        <ele>228</ele>
        <time>2022-05-01T08:08:57Z</time>
      </trkpt>
      <trkpt lat="45.0806" lon="0.72773">
        <ele>228.2</ele>
        <time>2022-05-01T08:08:58Z</time>
      </trkpt>
      <trkpt lat="45.08059" lon="0.72772">
        <ele>228.3</ele>
        <time>2022-05-01T08:08:59Z</time>
      </trkpt>
      <trkpt lat="45.08056" lon="0.72769">
        <ele>228.7</ele>
        <time>2022-05-01T08:09:00Z</time>
      </trkpt>
      <trkpt lat="45.08054" lon="0.72765">
        <ele>229</ele>
        <time>2022-05-01T08:09:01Z</time>
      </trkpt>
      <trkpt lat="45.08049" lon="0.72756">
        <ele>229.6</ele>
        <time>2022-05-01T08:09:03Z</time>
      </trkpt>
      <trkpt lat="45.08047" lon="0.72752">
        <ele>229.8</ele>
        <time>2022-05-01T08:09:04Z</time>
      </trkpt>
      <trkpt lat="45.08045" lon="0.72748">
        <ele>229.9</ele>
        <time>2022-05-01T08:09:05Z</time>
      </trkpt>
      <trkpt lat="45.0804" lon="0.72738">
        <ele>230</ele>
        <time>2022-05-01T08:09:07Z</time>
      </trkpt>
      <trkpt lat="45.08038" lon="0.72734">
        <ele>230</ele>
        <time>2022-05-01T08:09:08Z</time>
      </trkpt>
      <trkpt lat="45.08035" lon="0.72729">
        <ele>229.9</ele>
        <time>2022-05-01T08:09:09Z</time>
      </trkpt>
      <trkpt lat="45.0803" lon="0.7272">
        <ele>229.8</ele>
        <time>2022-05-01T08:09:11Z</time>
      </trkpt>
      <trkpt lat="45.08025" lon="0.72712">
        <ele>229.7</ele>
        <time>2022-05-01T08:09:13Z</time>
      </trkpt>
      <trkpt lat="45.08018" lon="0.72706">
        <ele>229.5</ele>
        <time>2022-05-01T08:09:15Z</time>
      </trkpt>
      <trkpt lat="45.08011" lon="0.72701">
        <ele>229.2</ele>
        <time>2022-05-01T08:09:17Z</time>
      </trkpt>
      <trkpt lat="45.08008" lon="0.72699">
        <ele>229.1</ele>
        <time>2022-05-01T08:09:18Z</time>
      </trkpt>
      <trkpt lat="45.08006" lon="0.72697">
        <ele>229</ele>
        <time>2022-05-01T08:09:19Z</time>
      </trkpt>
      <trkpt lat="45.07998" lon="0.72692">
        <ele>228.8</ele>
        <time>2022-05-01T08:09:21Z</time>
      </trkpt>
      <trkpt lat="45.07994" lon="0.72689">
        <ele>228.6</ele>
        <time>2022-05-01T08:09:22Z</time>
      </trkpt>
      <trkpt lat="45.07989" lon="0.72686">
        <ele>228.5</ele>
        <time>2022-05-01T08:09:23Z</time>
      </trkpt>
      <trkpt lat="45.07983" lon="0.72681">
        <ele>228.4</ele>
        <time>2022-05-01T08:09:25Z</time>
      </trkpt>
      <trkpt lat="45.07977" lon="0.72676">
        <ele>228.5</ele>
        <time>2022-05-01T08:09:27Z</time>
      </trkpt>
      <trkpt lat="45.07971" lon="0.7267">
        <ele>228.7</ele>
        <time>2022-05-01T08:09:29Z</time>
      </trkpt>
      <trkpt lat="45.07964" lon="0.72663">
        <ele>229</ele>
        <time>2022-05-01T08:09:31Z</time>
      </trkpt>
      <trkpt lat="45.07961" lon="0.7266">
        <ele>229.2</ele>
        <time>2022-05-01T08:09:32Z</time>
      </trkpt>
      <trkpt lat="45.07959" lon="0.72658">
        <ele>229.4</ele>
        <time>2022-05-01T08:09:33Z</time>
      </trkpt>
      <trkpt lat="45.07958" lon="0.72658">
        <ele>229.5</ele>
        <time>2022-05-01T08:09:34Z</time>
      </trkpt>
      <trkpt lat="45.07957" lon="0.72656">
        <ele>229.7</ele>
        <time>2022-05-01T08:09:35Z</time>
      </trkpt>
      <trkpt lat="45.07952" lon="0.7265">
        <ele>230.2</ele>
        <time>2022-05-01T08:09:36Z</time>
      </trkpt>
      <trkpt lat="45.07948" lon="0.72646">
        <ele>230.7</ele>
        <time>2022-05-01T08:09:37Z</time>
      </trkpt>
      <trkpt lat="45.07944" lon="0.7264">
        <ele>231.3</ele>
        <time>2022-05-01T08:09:39Z</time>
      </trkpt>
      <trkpt lat="45.07941" lon="0.72636">
        <ele>231.9</ele>
        <time>2022-05-01T08:09:41Z</time>
      </trkpt>
      <trkpt lat="45.07938" lon="0.72631">
        <ele>232.4</ele>
        <time>2022-05-01T08:09:43Z</time>
      </trkpt>
      <trkpt lat="45.07936" lon="0.72627">
        <ele>232.8</ele>
        <time>2022-05-01T08:09:45Z</time>
      </trkpt>
      <trkpt lat="45.07932" lon="0.72621">
        <ele>233.4</ele>
        <time>2022-05-01T08:09:47Z</time>
      </trkpt>
      <trkpt lat="45.0793" lon="0.72618">
        <ele>233.7</ele>
        <time>2022-05-01T08:09:48Z</time>
      </trkpt>
      <trkpt lat="45.07929" lon="0.72615">
        <ele>233.9</ele>
        <time>2022-05-01T08:09:49Z</time>
      </trkpt>
      <trkpt lat="45.07928" lon="0.72612">
        <ele>234.2</ele>
        <time>2022-05-01T08:09:50Z</time>
      </trkpt>
      <trkpt lat="45.07927" lon="0.72609">
        <ele>234.4</ele>
        <time>2022-05-01T08:09:51Z</time>
      </trkpt>
      <trkpt lat="45.07925" lon="0.72605">
        <ele>234.7</ele>
        <time>2022-05-01T08:09:53Z</time>
      </trkpt>
      <trkpt lat="45.07925" lon="0.72605">
        <ele>234.7</ele>
        <time>2022-05-01T08:09:54Z</time>
      </trkpt>
      <trkpt lat="45.07925" lon="0.72605">
        <ele>234.7</ele>
        <time>2022-05-01T08:09:55Z</time>
      </trkpt>
      <trkpt lat="45.07922" lon="0.72596">
        <ele>235.3</ele>
        <time>2022-05-01T08:09:57Z</time>
      </trkpt>
      <trkpt lat="45.0792" lon="0.72591">
        <ele>235.7</ele>
        <time>2022-05-01T08:09:58Z</time>
      </trkpt>
      <trkpt lat="45.07918" lon="0.72588">
        <ele>235.9</ele>
        <time>2022-05-01T08:09:59Z</time>
      </trkpt>
      <trkpt lat="45.07915" lon="0.72584">
        <ele>236.3</ele>
        <time>2022-05-01T08:10:01Z</time>
      </trkpt>
      <trkpt lat="45.07911" lon="0.7258">
        <ele>236.6</ele>
        <time>2022-05-01T08:10:03Z</time>
      </trkpt>
      <trkpt lat="45.07907" lon="0.72575">
        <ele>237</ele>
        <time>2022-05-01T08:10:05Z</time>
      </trkpt>
      <trkpt lat="45.07902" lon="0.7257">
        <ele>237.5</ele>
        <time>2022-05-01T08:10:07Z</time>
      </trkpt>
      <trkpt lat="45.07897" lon="0.72564">
        <ele>237.9</ele>
        <time>2022-05-01T08:10:09Z</time>
      </trkpt>
      <trkpt lat="45.07892" lon="0.72559">
        <ele>238.2</ele>
        <time>2022-05-01T08:10:11Z</time>
      </trkpt>
      <trkpt lat="45.07889" lon="0.72555">
        <ele>238.5</ele>
        <time>2022-05-01T08:10:13Z</time>
      </trkpt>
      <trkpt lat="45.07885" lon="0.72551">
        <ele>238.8</ele>
        <time>2022-05-01T08:10:15Z</time>
      </trkpt>
      <trkpt lat="45.07881" lon="0.72547">
        <ele>239</ele>
        <time>2022-05-01T08:10:17Z</time>
      </trkpt>
      <trkpt lat="45.07877" lon="0.72543">
        <ele>239.3</ele>
        <time>2022-05-01T08:10:19Z</time>
      </trkpt>
      <trkpt lat="45.07873" lon="0.72538">
        <ele>239.6</ele>
        <time>2022-05-01T08:10:21Z</time>
      </trkpt>
      <trkpt lat="45.07871" lon="0.7253">
        <ele>239.7</ele>
        <time>2022-05-01T08:10:23Z</time>
      </trkpt>
      <trkpt lat="45.07871" lon="0.72527">
        <ele>239.7</ele>
        <time>2022-05-01T08:10:24Z</time>
      </trkpt>
      <trkpt lat="45.07871" lon="0.72525">
        <ele>239.7</ele>
        <time>2022-05-01T08:10:25Z</time>
      </trkpt>
      <trkpt lat="45.0787" lon="0.72522">
        <ele>239.8</ele>
        <time>2022-05-01T08:10:26Z</time>
      </trkpt>
      <trkpt lat="45.07871" lon="0.72525">
        <ele>239.8</ele>
        <time>2022-05-01T08:10:27Z</time>
      </trkpt>
      <trkpt lat="45.0787" lon="0.72516">
        <ele>240</ele>
        <time>2022-05-01T08:10:29Z</time>
      </trkpt>
      <trkpt lat="45.07869" lon="0.72508">
        <ele>240.2</ele>
        <time>2022-05-01T08:10:31Z</time>
      </trkpt>
      <trkpt lat="45.07869" lon="0.72504">
        <ele>240.2</ele>
        <time>2022-05-01T08:10:32Z</time>
      </trkpt>
      <trkpt lat="45.07868" lon="0.72499">
        <ele>240.3</ele>
        <time>2022-05-01T08:10:33Z</time>
      </trkpt>
      <trkpt lat="45.07868" lon="0.72498">
        <ele>240.3</ele>
        <time>2022-05-01T08:10:34Z</time>
      </trkpt>
      <trkpt lat="45.07868" lon="0.72496">
        <ele>240.3</ele>
        <time>2022-05-01T08:10:35Z</time>
      </trkpt>
      <trkpt lat="45.07867" lon="0.72491">
        <ele>240.3</ele>
        <time>2022-05-01T08:10:36Z</time>
      </trkpt>
      <trkpt lat="45.07866" lon="0.72485">
        <ele>240.2</ele>
        <time>2022-05-01T08:10:37Z</time>
      </trkpt>
      <trkpt lat="45.07864" lon="0.72476">
        <ele>240.1</ele>
        <time>2022-05-01T08:10:39Z</time>
      </trkpt>
      <trkpt lat="45.07863" lon="0.72472">
        <ele>240</ele>
        <time>2022-05-01T08:10:40Z</time>
      </trkpt>
      <trkpt lat="45.07863" lon="0.72467">
        <ele>239.9</ele>
        <time>2022-05-01T08:10:41Z</time>
      </trkpt>
      <trkpt lat="45.07861" lon="0.72458">
        <ele>239.7</ele>
        <time>2022-05-01T08:10:43Z</time>
      </trkpt>
      <trkpt lat="45.07861" lon="0.72454">
        <ele>239.6</ele>
        <time>2022-05-01T08:10:44Z</time>
      </trkpt>
      <trkpt lat="45.0786" lon="0.72449">
        <ele>239.4</ele>
        <time>2022-05-01T08:10:45Z</time>
      </trkpt>
      <trkpt lat="45.0786" lon="0.72439">
        <ele>239.1</ele>
        <time>2022-05-01T08:10:47Z</time>
      </trkpt>
      <trkpt lat="45.0786" lon="0.7243">
        <ele>238.8</ele>
        <time>2022-05-01T08:10:49Z</time>
      </trkpt>
      <trkpt lat="45.0786" lon="0.72419">
        <ele>238.4</ele>
        <time>2022-05-01T08:10:51Z</time>
      </trkpt>
      <trkpt lat="45.0786" lon="0.72407">
        <ele>237.8</ele>
        <time>2022-05-01T08:10:53Z</time>
      </trkpt>
      <trkpt lat="45.07859" lon="0.72401">
        <ele>237.5</ele>
        <time>2022-05-01T08:10:54Z</time>
      </trkpt>
      <trkpt lat="45.07858" lon="0.72394">
        <ele>237.2</ele>
        <time>2022-05-01T08:10:55Z</time>
      </trkpt>
      <trkpt lat="45.07855" lon="0.72378">
        <ele>236.3</ele>
        <time>2022-05-01T08:10:57Z</time>
      </trkpt>
      <trkpt lat="45.07853" lon="0.72371">
        <ele>235.8</ele>
        <time>2022-05-01T08:10:58Z</time>
      </trkpt>
      <trkpt lat="45.07852" lon="0.72365">
        <ele>235.4</ele>
        <time>2022-05-01T08:10:59Z</time>
      </trkpt>
      <trkpt lat="45.07848" lon="0.72352">
        <ele>234.6</ele>
        <time>2022-05-01T08:11:01Z</time>
      </trkpt>
      <trkpt lat="45.07845" lon="0.72338">
        <ele>233.8</ele>
        <time>2022-05-01T08:11:03Z</time>
      </trkpt>
      <trkpt lat="45.07842" lon="0.72322">
        <ele>232.9</ele>
        <time>2022-05-01T08:11:05Z</time>
      </trkpt>
      <trkpt lat="45.0784" lon="0.72304">
        <ele>232.2</ele>
        <time>2022-05-01T08:11:07Z</time>
      </trkpt>
      <trkpt lat="45.07838" lon="0.72287">
        <ele>231.9</ele>
        <time>2022-05-01T08:11:09Z</time>
      </trkpt>
      <trkpt lat="45.07836" lon="0.72269">
        <ele>231.8</ele>
        <time>2022-05-01T08:11:11Z</time>
      </trkpt>
      <trkpt lat="45.07836" lon="0.72261">
        <ele>231.8</ele>
        <time>2022-05-01T08:11:12Z</time>
      </trkpt>
      <trkpt lat="45.07836" lon="0.72254">
        <ele>231.8</ele>
        <time>2022-05-01T08:11:13Z</time>
      </trkpt>
      <trkpt lat="45.07837" lon="0.72241">
        <ele>231.9</ele>
        <time>2022-05-01T08:11:15Z</time>
      </trkpt>
      <trkpt lat="45.0784" lon="0.72224">
        <ele>232</ele>
        <time>2022-05-01T08:11:17Z</time>
      </trkpt>
      <trkpt lat="45.07841" lon="0.72218">
        <ele>232</ele>
        <time>2022-05-01T08:11:18Z</time>
      </trkpt>
      <trkpt lat="45.07843" lon="0.72212">
        <ele>232</ele>
        <time>2022-05-01T08:11:19Z</time>
      </trkpt>
      <trkpt lat="45.07846" lon="0.72199">
        <ele>231.9</ele>
        <time>2022-05-01T08:11:21Z</time>
      </trkpt>
      <trkpt lat="45.07849" lon="0.72186">
        <ele>231.9</ele>
        <time>2022-05-01T08:11:23Z</time>
      </trkpt>
      <trkpt lat="45.07852" lon="0.72172">
        <ele>231.7</ele>
        <time>2022-05-01T08:11:25Z</time>
      </trkpt>
      <trkpt lat="45.07856" lon="0.72157">
        <ele>231.5</ele>
        <time>2022-05-01T08:11:27Z</time>
      </trkpt>
      <trkpt lat="45.0786" lon="0.72143">
        <ele>231.2</ele>
        <time>2022-05-01T08:11:29Z</time>
      </trkpt>
      <trkpt lat="45.07865" lon="0.72129">
        <ele>231</ele>
        <time>2022-05-01T08:11:31Z</time>
      </trkpt>
      <trkpt lat="45.07867" lon="0.72122">
        <ele>230.9</ele>
        <time>2022-05-01T08:11:32Z</time>
      </trkpt>
      <trkpt lat="45.07869" lon="0.72115">
        <ele>230.9</ele>
        <time>2022-05-01T08:11:33Z</time>
      </trkpt>
      <trkpt lat="45.07872" lon="0.72108">
        <ele>230.8</ele>
        <time>2022-05-01T08:11:34Z</time>
      </trkpt>
      <trkpt lat="45.07874" lon="0.721">
        <ele>230.8</ele>
        <time>2022-05-01T08:11:35Z</time>
      </trkpt>
      <trkpt lat="45.07878" lon="0.72085">
        <ele>230.8</ele>
        <time>2022-05-01T08:11:37Z</time>
      </trkpt>
      <trkpt lat="45.07881" lon="0.7207">
        <ele>230.9</ele>
        <time>2022-05-01T08:11:39Z</time>
      </trkpt>
      <trkpt lat="45.07884" lon="0.72056">
        <ele>231</ele>
        <time>2022-05-01T08:11:41Z</time>
      </trkpt>
      <trkpt lat="45.07885" lon="0.7205">
        <ele>231</ele>
        <time>2022-05-01T08:11:42Z</time>
      </trkpt>
      <trkpt lat="45.07886" lon="0.72043">
        <ele>231.1</ele>
        <time>2022-05-01T08:11:43Z</time>
      </trkpt>
      <trkpt lat="45.07887" lon="0.72031">
        <ele>231.2</ele>
        <time>2022-05-01T08:11:45Z</time>
      </trkpt>
      <trkpt lat="45.07888" lon="0.72025">
        <ele>231.2</ele>
        <time>2022-05-01T08:11:46Z</time>
      </trkpt>
      <trkpt lat="45.07889" lon="0.72018">
        <ele>231.2</ele>
        <time>2022-05-01T08:11:47Z</time>
      </trkpt>
      <trkpt lat="45.07892" lon="0.72003">
        <ele>231.1</ele>
        <time>2022-05-01T08:11:49Z</time>
      </trkpt>
      <trkpt lat="45.07894" lon="0.71988">
        <ele>231</ele>
        <time>2022-05-01T08:11:51Z</time>
      </trkpt>
      <trkpt lat="45.07898" lon="0.71974">
        <ele>230.9</ele>
        <time>2022-05-01T08:11:53Z</time>
      </trkpt>
      <trkpt lat="45.079" lon="0.71968">
        <ele>230.9</ele>
        <time>2022-05-01T08:11:54Z</time>
      </trkpt>
      <trkpt lat="45.07903" lon="0.71961">
        <ele>231</ele>
        <time>2022-05-01T08:11:55Z</time>
      </trkpt>
      <trkpt lat="45.07905" lon="0.71955">
        <ele>231</ele>
        <time>2022-05-01T08:11:56Z</time>
      </trkpt>
      <trkpt lat="45.07907" lon="0.71949">
        <ele>231.1</ele>
        <time>2022-05-01T08:11:57Z</time>
      </trkpt>
      <trkpt lat="45.07911" lon="0.71939">
        <ele>231.3</ele>
        <time>2022-05-01T08:11:59Z</time>
      </trkpt>
      <trkpt lat="45.07914" lon="0.71935">
        <ele>231.4</ele>
        <time>2022-05-01T08:12:00Z</time>
      </trkpt>
      <trkpt lat="45.07917" lon="0.71931">
        <ele>231.5</ele>
        <time>2022-05-01T08:12:01Z</time>
      </trkpt>
      <trkpt lat="45.0792" lon="0.71926">
        <ele>231.6</ele>
        <time>2022-05-01T08:12:02Z</time>
      </trkpt>
      <trkpt lat="45.07924" lon="0.71922">
        <ele>231.7</ele>
        <time>2022-05-01T08:12:03Z</time>
      </trkpt>
      <trkpt lat="45.0793" lon="0.71913">
        <ele>232</ele>
        <time>2022-05-01T08:12:05Z</time>
      </trkpt>
      <trkpt lat="45.07935" lon="0.71905">
        <ele>232.3</ele>
        <time>2022-05-01T08:12:07Z</time>
      </trkpt>
      <trkpt lat="45.07938" lon="0.71901">
        <ele>232.4</ele>
        <time>2022-05-01T08:12:08Z</time>
      </trkpt>
      <trkpt lat="45.07941" lon="0.71897">
        <ele>232.6</ele>
        <time>2022-05-01T08:12:09Z</time>
      </trkpt>
      <trkpt lat="45.07948" lon="0.71888">
        <ele>232.8</ele>
        <time>2022-05-01T08:12:11Z</time>
      </trkpt>
      <trkpt lat="45.07955" lon="0.71879">
        <ele>233.1</ele>
        <time>2022-05-01T08:12:13Z</time>
      </trkpt>
      <trkpt lat="45.07961" lon="0.7187">
        <ele>233.3</ele>
        <time>2022-05-01T08:12:15Z</time>
      </trkpt>
      <trkpt lat="45.07969" lon="0.7186">
        <ele>233.4</ele>
        <time>2022-05-01T08:12:17Z</time>
      </trkpt>
      <trkpt lat="45.07972" lon="0.71855">
        <ele>233.5</ele>
        <time>2022-05-01T08:12:18Z</time>
      </trkpt>
      <trkpt lat="45.07976" lon="0.7185">
        <ele>233.6</ele>
        <time>2022-05-01T08:12:19Z</time>
      </trkpt>
      <trkpt lat="45.07981" lon="0.71843">
        <ele>233.7</ele>
        <time>2022-05-01T08:12:21Z</time>
      </trkpt>
      <trkpt lat="45.07984" lon="0.71839">
        <ele>233.8</ele>
        <time>2022-05-01T08:12:22Z</time>
      </trkpt>
      <trkpt lat="45.07987" lon="0.71835">
        <ele>234</ele>
        <time>2022-05-01T08:12:23Z</time>
      </trkpt>
      <trkpt lat="45.07994" lon="0.71824">
        <ele>234.4</ele>
        <time>2022-05-01T08:12:25Z</time>
      </trkpt>
      <trkpt lat="45.07997" lon="0.71816">
        <ele>234.7</ele>
        <time>2022-05-01T08:12:27Z</time>
      </trkpt>
      <trkpt lat="45.07996" lon="0.7181">
        <ele>234.9</ele>
        <time>2022-05-01T08:12:28Z</time>
      </trkpt>
      <trkpt lat="45.07995" lon="0.71805">
        <ele>235.1</ele>
        <time>2022-05-01T08:12:29Z</time>
      </trkpt>
      <trkpt lat="45.07992" lon="0.71793">
        <ele>235.6</ele>
        <time>2022-05-01T08:12:31Z</time>
      </trkpt>
      <trkpt lat="45.07989" lon="0.71781">
        <ele>236.1</ele>
        <time>2022-05-01T08:12:33Z</time>
      </trkpt>
      <trkpt lat="45.07987" lon="0.7177">
        <ele>236.5</ele>
        <time>2022-05-01T08:12:35Z</time>
      </trkpt>
      <trkpt lat="45.07985" lon="0.71764">
        <ele>236.7</ele>
        <time>2022-05-01T08:12:36Z</time>
      </trkpt>
      <trkpt lat="45.07984" lon="0.71758">
        <ele>236.9</ele>
        <time>2022-05-01T08:12:37Z</time>
      </trkpt>
      <trkpt lat="45.07978" lon="0.71753">
        <ele>237.2</ele>
        <time>2022-05-01T08:12:38Z</time>
      </trkpt>
      <trkpt lat="45.07978" lon="0.71751">
        <ele>237.2</ele>
        <time>2022-05-01T08:12:39Z</time>
      </trkpt>
      <trkpt lat="45.0798" lon="0.71749">
        <ele>237.3</ele>
        <time>2022-05-01T08:12:40Z</time>
      </trkpt>
      <trkpt lat="45.0798" lon="0.71749">
        <ele>237.3</ele>
        <time>2022-05-01T08:12:41Z</time>
      </trkpt>
      <trkpt lat="45.07974" lon="0.71753">
        <ele>237.4</ele>
        <time>2022-05-01T08:12:43Z</time>
      </trkpt>
      <trkpt lat="45.07957" lon="0.71755">
        <ele>237.6</ele>
        <time>2022-05-01T08:12:45Z</time>
      </trkpt>
      <trkpt lat="45.07947" lon="0.71756">
        <ele>237.5</ele>
        <time>2022-05-01T08:12:47Z</time>
      </trkpt>
      <trkpt lat="45.07943" lon="0.71757">
        <ele>237.5</ele>
        <time>2022-05-01T08:12:48Z</time>
      </trkpt>
      <trkpt lat="45.0794" lon="0.71758">
        <ele>237.4</ele>
        <time>2022-05-01T08:12:49Z</time>
      </trkpt>
      <trkpt lat="45.07935" lon="0.71759">
        <ele>237.4</ele>
        <time>2022-05-01T08:12:51Z</time>
      </trkpt>
      <trkpt lat="45.0793" lon="0.7176">
        <ele>237.3</ele>
        <time>2022-05-01T08:12:52Z</time>
      </trkpt>
      <trkpt lat="45.07926" lon="0.71761">
        <ele>237.2</ele>
        <time>2022-05-01T08:12:53Z</time>
      </trkpt>
      <trkpt lat="45.07918" lon="0.71763">
        <ele>237.1</ele>
        <time>2022-05-01T08:12:55Z</time>
      </trkpt>
      <trkpt lat="45.0791" lon="0.71765">
        <ele>237</ele>
        <time>2022-05-01T08:12:57Z</time>
      </trkpt>
      <trkpt lat="45.07902" lon="0.71768">
        <ele>236.9</ele>
        <time>2022-05-01T08:12:59Z</time>
      </trkpt>
      <trkpt lat="45.07893" lon="0.71772">
        <ele>236.7</ele>
        <time>2022-05-01T08:13:01Z</time>
      </trkpt>
      <trkpt lat="45.07884" lon="0.71775">
        <ele>236.5</ele>
        <time>2022-05-01T08:13:03Z</time>
      </trkpt>
      <trkpt lat="45.07876" lon="0.71779">
        <ele>236.3</ele>
        <time>2022-05-01T08:13:05Z</time>
      </trkpt>
      <trkpt lat="45.07867" lon="0.71783">
        <ele>236</ele>
        <time>2022-05-01T08:13:07Z</time>
      </trkpt>
      <trkpt lat="45.07859" lon="0.71786">
        <ele>235.6</ele>
        <time>2022-05-01T08:13:09Z</time>
      </trkpt>
      <trkpt lat="45.0785" lon="0.7179">
        <ele>235.1</ele>
        <time>2022-05-01T08:13:11Z</time>
      </trkpt>
      <trkpt lat="45.07839" lon="0.71795">
        <ele>234.6</ele>
        <time>2022-05-01T08:13:13Z</time>
      </trkpt>
      <trkpt lat="45.07833" lon="0.71798">
        <ele>234.4</ele>
        <time>2022-05-01T08:13:14Z</time>
      </trkpt>
      <trkpt lat="45.07827" lon="0.718">
        <ele>234.2</ele>
        <time>2022-05-01T08:13:15Z</time>
      </trkpt>
      <trkpt lat="45.07814" lon="0.71806">
        <ele>233.8</ele>
        <time>2022-05-01T08:13:17Z</time>
      </trkpt>
      <trkpt lat="45.07802" lon="0.71812">
        <ele>233.7</ele>
        <time>2022-05-01T08:13:19Z</time>
      </trkpt>
      <trkpt lat="45.07788" lon="0.71819">
        <ele>233.8</ele>
        <time>2022-05-01T08:13:21Z</time>
      </trkpt>
      <trkpt lat="45.07775" lon="0.71826">
        <ele>234.1</ele>
        <time>2022-05-01T08:13:23Z</time>
      </trkpt>
      <trkpt lat="45.07763" lon="0.71832">
        <ele>234.6</ele>
        <time>2022-05-01T08:13:25Z</time>
      </trkpt>
      <trkpt lat="45.07752" lon="0.71837">
        <ele>235.1</ele>
        <time>2022-05-01T08:13:27Z</time>
      </trkpt>
      <trkpt lat="45.07747" lon="0.71839">
        <ele>235.3</ele>
        <time>2022-05-01T08:13:28Z</time>
      </trkpt>
      <trkpt lat="45.07742" lon="0.71842">
        <ele>235.5</ele>
        <time>2022-05-01T08:13:29Z</time>
      </trkpt>
      <trkpt lat="45.07733" lon="0.71846">
        <ele>235.8</ele>
        <time>2022-05-01T08:13:31Z</time>
      </trkpt>
      <trkpt lat="45.07724" lon="0.71851">
        <ele>235.9</ele>
        <time>2022-05-01T08:13:33Z</time>
      </trkpt>
      <trkpt lat="45.07715" lon="0.71855">
        <ele>236</ele>
        <time>2022-05-01T08:13:35Z</time>
      </trkpt>
      <trkpt lat="45.07711" lon="0.71857">
        <ele>236</ele>
        <time>2022-05-01T08:13:36Z</time>
      </trkpt>
      <trkpt lat="45.07707" lon="0.71859">
        <ele>235.9</ele>
        <time>2022-05-01T08:13:37Z</time>
      </trkpt>
      <trkpt lat="45.07698" lon="0.71864">
        <ele>235.8</ele>
        <time>2022-05-01T08:13:39Z</time>
      </trkpt>
      <trkpt lat="45.07689" lon="0.71868">
        <ele>235.5</ele>
        <time>2022-05-01T08:13:41Z</time>
      </trkpt>
      <trkpt lat="45.0768" lon="0.71872">
        <ele>235.2</ele>
        <time>2022-05-01T08:13:43Z</time>
      </trkpt>
      <trkpt lat="45.07675" lon="0.71873">
        <ele>234.9</ele>
        <time>2022-05-01T08:13:44Z</time>
      </trkpt>
      <trkpt lat="45.0767" lon="0.71873">
        <ele>234.6</ele>
        <time>2022-05-01T08:13:45Z</time>
      </trkpt>
      <trkpt lat="45.07659" lon="0.71874">
        <ele>233.9</ele>
        <time>2022-05-01T08:13:47Z</time>
      </trkpt>
      <trkpt lat="45.07646" lon="0.71875">
        <ele>232.8</ele>
        <time>2022-05-01T08:13:49Z</time>
      </trkpt>
      <trkpt lat="45.07631" lon="0.71876">
        <ele>231.2</ele>
        <time>2022-05-01T08:13:51Z</time>
      </trkpt>
      <trkpt lat="45.07616" lon="0.71877">
        <ele>229.5</ele>
        <time>2022-05-01T08:13:53Z</time>
      </trkpt>
      <trkpt lat="45.07608" lon="0.71878">
        <ele>228.9</ele>
        <time>2022-05-01T08:13:54Z</time>
      </trkpt>
      <trkpt lat="45.07601" lon="0.71878">
        <ele>228.2</ele>
        <time>2022-05-01T08:13:55Z</time>
      </trkpt>
      <trkpt lat="45.07585" lon="0.71878">
        <ele>226.9</ele>
        <time>2022-05-01T08:13:57Z</time>
      </trkpt>
      <trkpt lat="45.07571" lon="0.71874">
        <ele>225.7</ele>
        <time>2022-05-01T08:13:59Z</time>
      </trkpt>
      <trkpt lat="45.07564" lon="0.71873">
        <ele>225.3</ele>
        <time>2022-05-01T08:14:00Z</time>
      </trkpt>
      <trkpt lat="45.07558" lon="0.71871">
        <ele>225.1</ele>
        <time>2022-05-01T08:14:01Z</time>
      </trkpt>
      <trkpt lat="45.07544" lon="0.71868">
        <ele>225</ele>
        <time>2022-05-01T08:14:03Z</time>
      </trkpt>
      <trkpt lat="45.07532" lon="0.71865">
        <ele>224.9</ele>
        <time>2022-05-01T08:14:05Z</time>
      </trkpt>
      <trkpt lat="45.07526" lon="0.71864">
        <ele>224.9</ele>
        <time>2022-05-01T08:14:06Z</time>
      </trkpt>
      <trkpt lat="45.07521" lon="0.71862">
        <ele>224.9</ele>
        <time>2022-05-01T08:14:07Z</time>
      </trkpt>
      <trkpt lat="45.07511" lon="0.7186">
        <ele>224.8</ele>
        <time>2022-05-01T08:14:09Z</time>
      </trkpt>
      <trkpt lat="45.07502" lon="0.71858">
        <ele>224.8</ele>
        <time>2022-05-01T08:14:11Z</time>
      </trkpt>
      <trkpt lat="45.07492" lon="0.71865">
        <ele>225.1</ele>
        <time>2022-05-01T08:14:13Z</time>
      </trkpt>
      <trkpt lat="45.07489" lon="0.71868">
        <ele>225.2</ele>
        <time>2022-05-01T08:14:14Z</time>
      </trkpt>
      <trkpt lat="45.07486" lon="0.71877">
        <ele>225.6</ele>
        <time>2022-05-01T08:14:15Z</time>
      </trkpt>
      <trkpt lat="45.07484" lon="0.71889">
        <ele>226.2</ele>
        <time>2022-05-01T08:14:17Z</time>
      </trkpt>
      <trkpt lat="45.07482" lon="0.71901">
        <ele>226.8</ele>
        <time>2022-05-01T08:14:19Z</time>
      </trkpt>
      <trkpt lat="45.0748" lon="0.71912">
        <ele>227.2</ele>
        <time>2022-05-01T08:14:21Z</time>
      </trkpt>
      <trkpt lat="45.07478" lon="0.71923">
        <ele>227.7</ele>
        <time>2022-05-01T08:14:23Z</time>
      </trkpt>
      <trkpt lat="45.07477" lon="0.71927">
        <ele>228</ele>
        <time>2022-05-01T08:14:24Z</time>
      </trkpt>
      <trkpt lat="45.07476" lon="0.71933">
        <ele>228.3</ele>
        <time>2022-05-01T08:14:25Z</time>
      </trkpt>
      <trkpt lat="45.07475" lon="0.71943">
        <ele>228.8</ele>
        <time>2022-05-01T08:14:27Z</time>
      </trkpt>
      <trkpt lat="45.07473" lon="0.71953">
        <ele>229.2</ele>
        <time>2022-05-01T08:14:29Z</time>
      </trkpt>
      <trkpt lat="45.07471" lon="0.71962">
        <ele>229.6</ele>
        <time>2022-05-01T08:14:31Z</time>
      </trkpt>
      <trkpt lat="45.0747" lon="0.71973">
        <ele>230</ele>
        <time>2022-05-01T08:14:33Z</time>
      </trkpt>
      <trkpt lat="45.07469" lon="0.71979">
        <ele>230.2</ele>
        <time>2022-05-01T08:14:34Z</time>
      </trkpt>
      <trkpt lat="45.07468" lon="0.71984">
        <ele>230.3</ele>
        <time>2022-05-01T08:14:35Z</time>
      </trkpt>
      <trkpt lat="45.07466" lon="0.71994">
        <ele>230.5</ele>
        <time>2022-05-01T08:14:37Z</time>
      </trkpt>
      <trkpt lat="45.07465" lon="0.72002">
        <ele>230.4</ele>
        <time>2022-05-01T08:14:39Z</time>
      </trkpt>
      <trkpt lat="45.07464" lon="0.72006">
        <ele>230.3</ele>
        <time>2022-05-01T08:14:40Z</time>
      </trkpt>
      <trkpt lat="45.07464" lon="0.72006">
        <ele>230.3</ele>
        <time>2022-05-01T08:14:41Z</time>
      </trkpt>
      <trkpt lat="45.07464" lon="0.72005">
        <ele>230.3</ele>
        <time>2022-05-01T08:14:54Z</time>
      </trkpt>
      <trkpt lat="45.07465" lon="0.72">
        <ele>230.1</ele>
        <time>2022-05-01T08:14:55Z</time>
      </trkpt>
      <trkpt lat="45.07467" lon="0.7199">
        <ele>229.8</ele>
        <time>2022-05-01T08:14:57Z</time>
      </trkpt>
      <trkpt lat="45.07469" lon="0.7198">
        <ele>229.5</ele>
        <time>2022-05-01T08:14:59Z</time>
      </trkpt>
      <trkpt lat="45.0747" lon="0.71974">
        <ele>229.3</ele>
        <time>2022-05-01T08:15:00Z</time>
      </trkpt>
      <trkpt lat="45.07471" lon="0.71968">
        <ele>229.1</ele>
        <time>2022-05-01T08:15:01Z</time>
      </trkpt>
      <trkpt lat="45.07473" lon="0.71954">
        <ele>228.6</ele>
        <time>2022-05-01T08:15:03Z</time>
      </trkpt>
      <trkpt lat="45.07474" lon="0.71947">
        <ele>228.3</ele>
        <time>2022-05-01T08:15:04Z</time>
      </trkpt>
      <trkpt lat="45.07475" lon="0.7194">
        <ele>228</ele>
        <time>2022-05-01T08:15:05Z</time>
      </trkpt>
      <trkpt lat="45.07476" lon="0.71934">
        <ele>227.7</ele>
        <time>2022-05-01T08:15:06Z</time>
      </trkpt>
      <trkpt lat="45.07477" lon="0.71928">
        <ele>227.4</ele>
        <time>2022-05-01T08:15:07Z</time>
      </trkpt>
      <trkpt lat="45.07478" lon="0.71922">
        <ele>227.2</ele>
        <time>2022-05-01T08:15:08Z</time>
      </trkpt>
      <trkpt lat="45.07479" lon="0.71916">
        <ele>227</ele>
        <time>2022-05-01T08:15:09Z</time>
      </trkpt>
      <trkpt lat="45.07481" lon="0.71903">
        <ele>226.5</ele>
        <time>2022-05-01T08:15:11Z</time>
      </trkpt>
      <trkpt lat="45.07482" lon="0.71895">
        <ele>226.2</ele>
        <time>2022-05-01T08:15:12Z</time>
      </trkpt>
      <trkpt lat="45.07484" lon="0.71888">
        <ele>225.9</ele>
        <time>2022-05-01T08:15:13Z</time>
      </trkpt>
      <trkpt lat="45.07485" lon="0.71882">
        <ele>225.6</ele>
        <time>2022-05-01T08:15:14Z</time>
      </trkpt>
      <trkpt lat="45.07486" lon="0.71875">
        <ele>225.4</ele>
        <time>2022-05-01T08:15:15Z</time>
      </trkpt>
      <trkpt lat="45.07491" lon="0.71866">
        <ele>225</ele>
        <time>2022-05-01T08:15:17Z</time>
      </trkpt>
      <trkpt lat="45.07494" lon="0.71863">
        <ele>224.9</ele>
        <time>2022-05-01T08:15:19Z</time>
      </trkpt>
      <trkpt lat="45.07495" lon="0.71862">
        <ele>224.9</ele>
        <time>2022-05-01T08:15:21Z</time>
      </trkpt>
      <trkpt lat="45.07498" lon="0.71859">
        <ele>224.8</ele>
        <time>2022-05-01T08:15:36Z</time>
      </trkpt>
      <trkpt lat="45.07501" lon="0.71858">
        <ele>224.8</ele>
        <time>2022-05-01T08:15:37Z</time>
      </trkpt>
      <trkpt lat="45.07506" lon="0.71859">
        <ele>224.8</ele>
        <time>2022-05-01T08:15:39Z</time>
      </trkpt>
      <trkpt lat="45.07511" lon="0.7186">
        <ele>224.8</ele>
        <time>2022-05-01T08:15:41Z</time>
      </trkpt>
      <trkpt lat="45.07518" lon="0.71862">
        <ele>224.9</ele>
        <time>2022-05-01T08:15:43Z</time>
      </trkpt>
      <trkpt lat="45.07527" lon="0.71864">
        <ele>224.9</ele>
        <time>2022-05-01T08:15:45Z</time>
      </trkpt>
      <trkpt lat="45.07535" lon="0.71866">
        <ele>224.9</ele>
        <time>2022-05-01T08:15:47Z</time>
      </trkpt>
      <trkpt lat="45.07545" lon="0.71868">
        <ele>225</ele>
        <time>2022-05-01T08:15:49Z</time>
      </trkpt>
      <trkpt lat="45.07555" lon="0.7187">
        <ele>225.1</ele>
        <time>2022-05-01T08:15:51Z</time>
      </trkpt>
      <trkpt lat="45.0756" lon="0.71871">
        <ele>225.2</ele>
        <time>2022-05-01T08:15:52Z</time>
      </trkpt>
      <trkpt lat="45.07565" lon="0.71873">
        <ele>225.3</ele>
        <time>2022-05-01T08:15:53Z</time>
      </trkpt>
      <trkpt lat="45.07575" lon="0.71875">
        <ele>225.9</ele>
        <time>2022-05-01T08:15:55Z</time>
      </trkpt>
      <trkpt lat="45.07585" lon="0.71877">
        <ele>226.8</ele>
        <time>2022-05-01T08:15:57Z</time>
      </trkpt>
      <trkpt lat="45.07589" lon="0.71878">
        <ele>227.2</ele>
        <time>2022-05-01T08:15:58Z</time>
      </trkpt>
      <trkpt lat="45.07591" lon="0.71879">
        <ele>227.4</ele>
        <time>2022-05-01T08:15:59Z</time>
      </trkpt>
      <trkpt lat="45.07594" lon="0.71879">
        <ele>227.6</ele>
        <time>2022-05-01T08:16:01Z</time>
      </trkpt>
      <trkpt lat="45.07591" lon="0.71877">
        <ele>227.6</ele>
        <time>2022-05-01T08:16:02Z</time>
      </trkpt>
      <trkpt lat="45.07591" lon="0.71877">
        <ele>227.6</ele>
        <time>2022-05-01T08:16:03Z</time>
      </trkpt>
      <trkpt lat="45.07591" lon="0.71876">
        <ele>227.5</ele>
        <time>2022-05-01T08:16:05Z</time>
      </trkpt>
      <trkpt lat="45.07588" lon="0.71869">
        <ele>227.5</ele>
        <time>2022-05-01T08:16:12Z</time>
      </trkpt>
      <trkpt lat="45.07587" lon="0.71867">
        <ele>227.4</ele>
        <time>2022-05-01T08:16:13Z</time>
      </trkpt>
      <trkpt lat="45.07587" lon="0.71865">
        <ele>227.4</ele>
        <time>2022-05-01T08:16:15Z</time>
      </trkpt>
      <trkpt lat="45.07585" lon="0.71861">
        <ele>227.4</ele>
        <time>2022-05-01T08:16:18Z</time>
      </trkpt>
      <trkpt lat="45.07584" lon="0.71857">
        <ele>227.3</ele>
        <time>2022-05-01T08:16:19Z</time>
      </trkpt>
      <trkpt lat="45.07583" lon="0.71854">
        <ele>227.3</ele>
        <time>2022-05-01T08:16:21Z</time>
      </trkpt>
      <trkpt lat="45.07585" lon="0.71852">
        <ele>227.2</ele>
        <time>2022-05-01T08:16:47Z</time>
      </trkpt>
      <trkpt lat="45.07586" lon="0.71854">
        <ele>227.2</ele>
        <time>2022-05-01T08:16:48Z</time>
      </trkpt>
      <trkpt lat="45.07587" lon="0.71858">
        <ele>227.2</ele>
        <time>2022-05-01T08:16:49Z</time>
      </trkpt>
      <trkpt lat="45.07589" lon="0.71864">
        <ele>227.3</ele>
        <time>2022-05-01T08:16:51Z</time>
      </trkpt>
      <trkpt lat="45.07588" lon="0.71868">
        <ele>227.4</ele>
        <time>2022-05-01T08:16:53Z</time>
      </trkpt>
      <trkpt lat="45.0759" lon="0.71872">
        <ele>227.5</ele>
        <time>2022-05-01T08:16:54Z</time>
      </trkpt>
      <trkpt lat="45.0759" lon="0.71879">
        <ele>227.3</ele>
        <time>2022-05-01T08:16:55Z</time>
      </trkpt>
      <trkpt lat="45.0759" lon="0.71878">
        <ele>227.3</ele>
        <time>2022-05-01T08:16:56Z</time>
      </trkpt>
      <trkpt lat="45.07588" lon="0.71878">
        <ele>227.2</ele>
        <time>2022-05-01T08:16:57Z</time>
      </trkpt>
      <trkpt lat="45.07588" lon="0.71869">
        <ele>226.6</ele>
        <time>2022-05-01T08:16:59Z</time>
      </trkpt>
      <trkpt lat="45.07586" lon="0.71862">
        <ele>226.2</ele>
        <time>2022-05-01T08:17:01Z</time>
      </trkpt>
      <trkpt lat="45.0757" lon="0.71874">
        <ele>225.3</ele>
        <time>2022-05-01T08:17:03Z</time>
      </trkpt>
      <trkpt lat="45.07563" lon="0.71872">
        <ele>225.1</ele>
        <time>2022-05-01T08:17:05Z</time>
      </trkpt>
      <trkpt lat="45.07556" lon="0.71871">
        <ele>225</ele>
        <time>2022-05-01T08:17:07Z</time>
      </trkpt>
      <trkpt lat="45.07549" lon="0.71869">
        <ele>225</ele>
        <time>2022-05-01T08:17:09Z</time>
      </trkpt>
      <trkpt lat="45.07542" lon="0.71867">
        <ele>224.9</ele>
        <time>2022-05-01T08:17:11Z</time>
      </trkpt>
      <trkpt lat="45.07534" lon="0.71866">
        <ele>224.9</ele>
        <time>2022-05-01T08:17:13Z</time>
      </trkpt>
      <trkpt lat="45.07531" lon="0.71865">
        <ele>224.9</ele>
        <time>2022-05-01T08:17:14Z</time>
      </trkpt>
      <trkpt lat="45.07528" lon="0.71864">
        <ele>224.9</ele>
        <time>2022-05-01T08:17:15Z</time>
      </trkpt>
      <trkpt lat="45.07525" lon="0.71863">
        <ele>224.9</ele>
        <time>2022-05-01T08:17:16Z</time>
      </trkpt>
      <trkpt lat="45.07521" lon="0.71862">
        <ele>224.9</ele>
        <time>2022-05-01T08:17:17Z</time>
      </trkpt>
      <trkpt lat="45.07512" lon="0.7186">
        <ele>224.8</ele>
        <time>2022-05-01T08:17:19Z</time>
      </trkpt>
      <trkpt lat="45.07505" lon="0.71859">
        <ele>224.8</ele>
        <time>2022-05-01T08:17:21Z</time>
      </trkpt>
      <trkpt lat="45.07502" lon="0.71858">
        <ele>224.8</ele>
        <time>2022-05-01T08:17:22Z</time>
      </trkpt>
      <trkpt lat="45.07499" lon="0.71857">
        <ele>224.8</ele>
        <time>2022-05-01T08:17:23Z</time>
      </trkpt>
      <trkpt lat="45.07497" lon="0.71857">
        <ele>224.8</ele>
        <time>2022-05-01T08:17:24Z</time>
      </trkpt>
      <trkpt lat="45.07494" lon="0.71856">
        <ele>224.9</ele>
        <time>2022-05-01T08:17:25Z</time>
      </trkpt>
      <trkpt lat="45.07489" lon="0.71855">
        <ele>225</ele>
        <time>2022-05-01T08:17:27Z</time>
      </trkpt>
      <trkpt lat="45.07487" lon="0.71854">
        <ele>225.1</ele>
        <time>2022-05-01T08:17:28Z</time>
      </trkpt>
      <trkpt lat="45.07484" lon="0.71853">
        <ele>225.1</ele>
        <time>2022-05-01T08:17:29Z</time>
      </trkpt>
      <trkpt lat="45.07478" lon="0.71851">
        <ele>225.3</ele>
        <time>2022-05-01T08:17:31Z</time>
      </trkpt>
      <trkpt lat="45.07475" lon="0.7185">
        <ele>225.4</ele>
        <time>2022-05-01T08:17:32Z</time>
      </trkpt>
      <trkpt lat="45.07472" lon="0.7185">
        <ele>225.5</ele>
        <time>2022-05-01T08:17:33Z</time>
      </trkpt>
      <trkpt lat="45.07465" lon="0.71849">
        <ele>225.7</ele>
        <time>2022-05-01T08:17:35Z</time>
      </trkpt>
      <trkpt lat="45.07462" lon="0.7185">
        <ele>225.8</ele>
        <time>2022-05-01T08:17:36Z</time>
      </trkpt>
      <trkpt lat="45.07459" lon="0.7185">
        <ele>225.9</ele>
        <time>2022-05-01T08:17:37Z</time>
      </trkpt>
      <trkpt lat="45.07452" lon="0.7185">
        <ele>226</ele>
        <time>2022-05-01T08:17:39Z</time>
      </trkpt>
      <trkpt lat="45.07448" lon="0.71851">
        <ele>226.1</ele>
        <time>2022-05-01T08:17:40Z</time>
      </trkpt>
      <trkpt lat="45.07444" lon="0.71851">
        <ele>226.3</ele>
        <time>2022-05-01T08:17:41Z</time>
      </trkpt>
      <trkpt lat="45.07437" lon="0.71852">
        <ele>226.5</ele>
        <time>2022-05-01T08:17:43Z</time>
      </trkpt>
      <trkpt lat="45.07434" lon="0.71852">
        <ele>226.7</ele>
        <time>2022-05-01T08:17:44Z</time>
      </trkpt>
      <trkpt lat="45.07431" lon="0.71852">
        <ele>226.8</ele>
        <time>2022-05-01T08:17:45Z</time>
      </trkpt>
      <trkpt lat="45.07427" lon="0.71853">
        <ele>227</ele>
        <time>2022-05-01T08:17:46Z</time>
      </trkpt>
      <trkpt lat="45.07425" lon="0.71853">
        <ele>227.1</ele>
        <time>2022-05-01T08:17:47Z</time>
      </trkpt>
      <trkpt lat="45.07422" lon="0.71853">
        <ele>227.3</ele>
        <time>2022-05-01T08:17:48Z</time>
      </trkpt>
      <trkpt lat="45.07418" lon="0.71854">
        <ele>227.4</ele>
        <time>2022-05-01T08:17:49Z</time>
      </trkpt>
      <trkpt lat="45.07412" lon="0.71854">
        <ele>227.8</ele>
        <time>2022-05-01T08:17:51Z</time>
      </trkpt>
      <trkpt lat="45.07409" lon="0.71855">
        <ele>228</ele>
        <time>2022-05-01T08:17:52Z</time>
      </trkpt>
      <trkpt lat="45.07406" lon="0.71855">
        <ele>228.2</ele>
        <time>2022-05-01T08:17:53Z</time>
      </trkpt>
      <trkpt lat="45.07398" lon="0.71857">
        <ele>228.7</ele>
        <time>2022-05-01T08:17:55Z</time>
      </trkpt>
      <trkpt lat="45.07393" lon="0.71858">
        <ele>229.1</ele>
        <time>2022-05-01T08:17:57Z</time>
      </trkpt>
      <trkpt lat="45.07386" lon="0.7186">
        <ele>229.5</ele>
        <time>2022-05-01T08:17:59Z</time>
      </trkpt>
      <trkpt lat="45.07381" lon="0.71861">
        <ele>229.8</ele>
        <time>2022-05-01T08:18:01Z</time>
      </trkpt>
      <trkpt lat="45.07379" lon="0.71862">
        <ele>230</ele>
        <time>2022-05-01T08:18:02Z</time>
      </trkpt>
      <trkpt lat="45.07376" lon="0.71863">
        <ele>230.1</ele>
        <time>2022-05-01T08:18:03Z</time>
      </trkpt>
      <trkpt lat="45.0737" lon="0.71864">
        <ele>230.4</ele>
        <time>2022-05-01T08:18:05Z</time>
      </trkpt>
      <trkpt lat="45.07365" lon="0.71866">
        <ele>230.7</ele>
        <time>2022-05-01T08:18:07Z</time>
      </trkpt>
      <trkpt lat="45.07359" lon="0.71867">
        <ele>231</ele>
        <time>2022-05-01T08:18:09Z</time>
      </trkpt>
      <trkpt lat="45.07354" lon="0.71869">
        <ele>231.2</ele>
        <time>2022-05-01T08:18:11Z</time>
      </trkpt>
      <trkpt lat="45.07353" lon="0.71869">
        <ele>231.3</ele>
        <time>2022-05-01T08:18:12Z</time>
      </trkpt>
      <trkpt lat="45.07351" lon="0.71869">
        <ele>231.3</ele>
        <time>2022-05-01T08:18:13Z</time>
      </trkpt>
      <trkpt lat="45.07346" lon="0.71871">
        <ele>231.5</ele>
        <time>2022-05-01T08:18:15Z</time>
      </trkpt>
      <trkpt lat="45.0734" lon="0.71872">
        <ele>231.7</ele>
        <time>2022-05-01T08:18:17Z</time>
      </trkpt>
      <trkpt lat="45.07334" lon="0.71874">
        <ele>231.9</ele>
        <time>2022-05-01T08:18:19Z</time>
      </trkpt>
      <trkpt lat="45.07329" lon="0.71875">
        <ele>232.1</ele>
        <time>2022-05-01T08:18:21Z</time>
      </trkpt>
      <trkpt lat="45.07324" lon="0.71876">
        <ele>232.3</ele>
        <time>2022-05-01T08:18:23Z</time>
      </trkpt>
      <trkpt lat="45.07319" lon="0.71877">
        <ele>232.4</ele>
        <time>2022-05-01T08:18:25Z</time>
      </trkpt>
      <trkpt lat="45.07314" lon="0.71878">
        <ele>232.5</ele>
        <time>2022-05-01T08:18:27Z</time>
      </trkpt>
      <trkpt lat="45.07308" lon="0.71879">
        <ele>232.6</ele>
        <time>2022-05-01T08:18:29Z</time>
      </trkpt>
      <trkpt lat="45.07301" lon="0.7188">
        <ele>232.7</ele>
        <time>2022-05-01T08:18:31Z</time>
      </trkpt>
      <trkpt lat="45.07294" lon="0.71881">
        <ele>232.7</ele>
        <time>2022-05-01T08:18:33Z</time>
      </trkpt>
      <trkpt lat="45.07286" lon="0.71881">
        <ele>232.7</ele>
        <time>2022-05-01T08:18:35Z</time>
      </trkpt>
      <trkpt lat="45.07282" lon="0.71881">
        <ele>232.7</ele>
        <time>2022-05-01T08:18:36Z</time>
      </trkpt>
      <trkpt lat="45.07277" lon="0.71881">
        <ele>232.7</ele>
        <time>2022-05-01T08:18:37Z</time>
      </trkpt>
      <trkpt lat="45.07266" lon="0.71881">
        <ele>232.5</ele>
        <time>2022-05-01T08:18:39Z</time>
      </trkpt>
      <trkpt lat="45.07256" lon="0.71881">
        <ele>232.4</ele>
        <time>2022-05-01T08:18:41Z</time>
      </trkpt>
      <trkpt lat="45.07246" lon="0.71881">
        <ele>232.4</ele>
        <time>2022-05-01T08:18:43Z</time>
      </trkpt>
      <trkpt lat="45.07242" lon="0.71881">
        <ele>232.3</ele>
        <time>2022-05-01T08:18:44Z</time>
      </trkpt>
      <trkpt lat="45.07237" lon="0.71881">
        <ele>232.3</ele>
        <time>2022-05-01T08:18:45Z</time>
      </trkpt>
      <trkpt lat="45.07227" lon="0.7188">
        <ele>232.3</ele>
        <time>2022-05-01T08:18:47Z</time>
      </trkpt>
      <trkpt lat="45.07217" lon="0.71878">
        <ele>232.2</ele>
        <time>2022-05-01T08:18:49Z</time>
      </trkpt>
      <trkpt lat="45.07208" lon="0.71875">
        <ele>232.3</ele>
        <time>2022-05-01T08:18:51Z</time>
      </trkpt>
      <trkpt lat="45.07204" lon="0.71873">
        <ele>232.3</ele>
        <time>2022-05-01T08:18:52Z</time>
      </trkpt>
      <trkpt lat="45.07199" lon="0.71872">
        <ele>232.4</ele>
        <time>2022-05-01T08:18:53Z</time>
      </trkpt>
      <trkpt lat="45.0719" lon="0.71868">
        <ele>232.5</ele>
        <time>2022-05-01T08:18:55Z</time>
      </trkpt>
      <trkpt lat="45.07181" lon="0.71863">
        <ele>232.7</ele>
        <time>2022-05-01T08:18:57Z</time>
      </trkpt>
      <trkpt lat="45.07172" lon="0.71859">
        <ele>232.8</ele>
        <time>2022-05-01T08:18:59Z</time>
      </trkpt>
      <trkpt lat="45.07165" lon="0.71855">
        <ele>232.9</ele>
        <time>2022-05-01T08:19:01Z</time>
      </trkpt>
      <trkpt lat="45.07155" lon="0.7185">
        <ele>233</ele>
        <time>2022-05-01T08:19:03Z</time>
      </trkpt>
      <trkpt lat="45.07145" lon="0.71841">
        <ele>233</ele>
        <time>2022-05-01T08:19:05Z</time>
      </trkpt>
      <trkpt lat="45.07136" lon="0.71833">
        <ele>232.8</ele>
        <time>2022-05-01T08:19:07Z</time>
      </trkpt>
      <trkpt lat="45.07131" lon="0.71829">
        <ele>232.7</ele>
        <time>2022-05-01T08:19:08Z</time>
      </trkpt>
      <trkpt lat="45.07127" lon="0.71825">
        <ele>232.6</ele>
        <time>2022-05-01T08:19:09Z</time>
      </trkpt>
      <trkpt lat="45.07118" lon="0.71818">
        <ele>232.4</ele>
        <time>2022-05-01T08:19:11Z</time>
      </trkpt>
      <trkpt lat="45.0711" lon="0.71813">
        <ele>232.3</ele>
        <time>2022-05-01T08:19:13Z</time>
      </trkpt>
      <trkpt lat="45.07107" lon="0.7181">
        <ele>232.2</ele>
        <time>2022-05-01T08:19:14Z</time>
      </trkpt>
      <trkpt lat="45.07103" lon="0.71807">
        <ele>232.1</ele>
        <time>2022-05-01T08:19:15Z</time>
      </trkpt>
      <trkpt lat="45.07095" lon="0.71801">
        <ele>231.8</ele>
        <time>2022-05-01T08:19:17Z</time>
      </trkpt>
      <trkpt lat="45.07086" lon="0.71795">
        <ele>231.6</ele>
        <time>2022-05-01T08:19:19Z</time>
      </trkpt>
      <trkpt lat="45.07082" lon="0.71792">
        <ele>231.6</ele>
        <time>2022-05-01T08:19:20Z</time>
      </trkpt>
      <trkpt lat="45.07078" lon="0.71789">
        <ele>231.5</ele>
        <time>2022-05-01T08:19:21Z</time>
      </trkpt>
      <trkpt lat="45.0707" lon="0.71784">
        <ele>231.4</ele>
        <time>2022-05-01T08:19:23Z</time>
      </trkpt>
      <trkpt lat="45.07062" lon="0.71779">
        <ele>231.4</ele>
        <time>2022-05-01T08:19:25Z</time>
      </trkpt>
      <trkpt lat="45.07053" lon="0.71773">
        <ele>231.4</ele>
        <time>2022-05-01T08:19:27Z</time>
      </trkpt>
      <trkpt lat="45.07045" lon="0.71768">
        <ele>231.6</ele>
        <time>2022-05-01T08:19:29Z</time>
      </trkpt>
      <trkpt lat="45.07037" lon="0.71762">
        <ele>231.8</ele>
        <time>2022-05-01T08:19:31Z</time>
      </trkpt>
      <trkpt lat="45.07028" lon="0.71757">
        <ele>232.2</ele>
        <time>2022-05-01T08:19:33Z</time>
      </trkpt>
      <trkpt lat="45.07024" lon="0.71754">
        <ele>232.5</ele>
        <time>2022-05-01T08:19:34Z</time>
      </trkpt>
      <trkpt lat="45.07019" lon="0.71751">
        <ele>232.8</ele>
        <time>2022-05-01T08:19:35Z</time>
      </trkpt>
      <trkpt lat="45.07011" lon="0.71746">
        <ele>233.3</ele>
        <time>2022-05-01T08:19:37Z</time>
      </trkpt>
      <trkpt lat="45.07004" lon="0.71741">
        <ele>233.8</ele>
        <time>2022-05-01T08:19:39Z</time>
      </trkpt>
      <trkpt lat="45.06996" lon="0.71736">
        <ele>234.2</ele>
        <time>2022-05-01T08:19:41Z</time>
      </trkpt>
      <trkpt lat="45.06987" lon="0.71731">
        <ele>234.6</ele>
        <time>2022-05-01T08:19:43Z</time>
      </trkpt>
      <trkpt lat="45.06979" lon="0.71726">
        <ele>234.8</ele>
        <time>2022-05-01T08:19:45Z</time>
      </trkpt>
      <trkpt lat="45.06971" lon="0.71722">
        <ele>234.9</ele>
        <time>2022-05-01T08:19:47Z</time>
      </trkpt>
      <trkpt lat="45.06962" lon="0.71717">
        <ele>234.9</ele>
        <time>2022-05-01T08:19:49Z</time>
      </trkpt>
      <trkpt lat="45.06954" lon="0.71713">
        <ele>234.9</ele>
        <time>2022-05-01T08:19:51Z</time>
      </trkpt>
      <trkpt lat="45.06946" lon="0.71709">
        <ele>234.9</ele>
        <time>2022-05-01T08:19:53Z</time>
      </trkpt>
      <trkpt lat="45.06938" lon="0.71706">
        <ele>234.9</ele>
        <time>2022-05-01T08:19:55Z</time>
      </trkpt>
      <trkpt lat="45.06935" lon="0.71705">
        <ele>234.9</ele>
        <time>2022-05-01T08:19:56Z</time>
      </trkpt>
      <trkpt lat="45.06933" lon="0.71704">
        <ele>234.9</ele>
        <time>2022-05-01T08:19:57Z</time>
      </trkpt>
      <trkpt lat="45.06933" lon="0.71714">
        <ele>234.7</ele>
        <time>2022-05-01T08:19:59Z</time>
      </trkpt>
      <trkpt lat="45.06935" lon="0.71721">
        <ele>234.5</ele>
        <time>2022-05-01T08:20:01Z</time>
      </trkpt>
      <trkpt lat="45.06938" lon="0.71729">
        <ele>234.4</ele>
        <time>2022-05-01T08:20:03Z</time>
      </trkpt>
      <trkpt lat="45.06942" lon="0.71739">
        <ele>234.2</ele>
        <time>2022-05-01T08:20:05Z</time>
      </trkpt>
      <trkpt lat="45.06946" lon="0.71749">
        <ele>234</ele>
        <time>2022-05-01T08:20:07Z</time>
      </trkpt>
      <trkpt lat="45.06949" lon="0.71759">
        <ele>233.8</ele>
        <time>2022-05-01T08:20:09Z</time>
      </trkpt>
      <trkpt lat="45.06953" lon="0.7177">
        <ele>233.6</ele>
        <time>2022-05-01T08:20:11Z</time>
      </trkpt>
      <trkpt lat="45.06957" lon="0.7178">
        <ele>233.4</ele>
        <time>2022-05-01T08:20:13Z</time>
      </trkpt>
      <trkpt lat="45.0696" lon="0.71789">
        <ele>233.3</ele>
        <time>2022-05-01T08:20:15Z</time>
      </trkpt>
      <trkpt lat="45.06963" lon="0.71798">
        <ele>233.1</ele>
        <time>2022-05-01T08:20:17Z</time>
      </trkpt>
      <trkpt lat="45.06967" lon="0.71807">
        <ele>232.9</ele>
        <time>2022-05-01T08:20:19Z</time>
      </trkpt>
      <trkpt lat="45.06969" lon="0.71813">
        <ele>232.7</ele>
        <time>2022-05-01T08:20:20Z</time>
      </trkpt>
      <trkpt lat="45.06971" lon="0.71818">
        <ele>232.6</ele>
        <time>2022-05-01T08:20:21Z</time>
      </trkpt>
      <trkpt lat="45.06976" lon="0.71832">
        <ele>232.2</ele>
        <time>2022-05-01T08:20:23Z</time>
      </trkpt>
      <trkpt lat="45.06981" lon="0.71846">
        <ele>231.8</ele>
        <time>2022-05-01T08:20:25Z</time>
      </trkpt>
      <trkpt lat="45.06986" lon="0.71861">
        <ele>231.5</ele>
        <time>2022-05-01T08:20:27Z</time>
      </trkpt>
      <trkpt lat="45.0699" lon="0.71877">
        <ele>231.1</ele>
        <time>2022-05-01T08:20:29Z</time>
      </trkpt>
      <trkpt lat="45.06991" lon="0.71885">
        <ele>230.9</ele>
        <time>2022-05-01T08:20:30Z</time>
      </trkpt>
      <trkpt lat="45.06993" lon="0.71894">
        <ele>230.7</ele>
        <time>2022-05-01T08:20:31Z</time>
      </trkpt>
      <trkpt lat="45.06991" lon="0.71913">
        <ele>230.2</ele>
        <time>2022-05-01T08:20:33Z</time>
      </trkpt>
      <trkpt lat="45.06991" lon="0.71924">
        <ele>229.9</ele>
        <time>2022-05-01T08:20:34Z</time>
      </trkpt>
      <trkpt lat="45.06992" lon="0.71935">
        <ele>229.5</ele>
        <time>2022-05-01T08:20:35Z</time>
      </trkpt>
      <trkpt lat="45.06994" lon="0.71958">
        <ele>228.7</ele>
        <time>2022-05-01T08:20:37Z</time>
      </trkpt>
      <trkpt lat="45.06995" lon="0.71982">
        <ele>227.8</ele>
        <time>2022-05-01T08:20:39Z</time>
      </trkpt>
      <trkpt lat="45.06997" lon="0.72007">
        <ele>226.9</ele>
        <time>2022-05-01T08:20:41Z</time>
      </trkpt>
      <trkpt lat="45.06998" lon="0.7203">
        <ele>226.2</ele>
        <time>2022-05-01T08:20:43Z</time>
      </trkpt>
      <trkpt lat="45.07" lon="0.72052">
        <ele>225.6</ele>
        <time>2022-05-01T08:20:45Z</time>
      </trkpt>
      <trkpt lat="45.07001" lon="0.72063">
        <ele>225.3</ele>
        <time>2022-05-01T08:20:46Z</time>
      </trkpt>
      <trkpt lat="45.07002" lon="0.72073">
        <ele>225</ele>
        <time>2022-05-01T08:20:47Z</time>
      </trkpt>
      <trkpt lat="45.07005" lon="0.72093">
        <ele>224.4</ele>
        <time>2022-05-01T08:20:49Z</time>
      </trkpt>
      <trkpt lat="45.07007" lon="0.72103">
        <ele>224.1</ele>
        <time>2022-05-01T08:20:50Z</time>
      </trkpt>
      <trkpt lat="45.07011" lon="0.72112">
        <ele>223.8</ele>
        <time>2022-05-01T08:20:51Z</time>
      </trkpt>
      <trkpt lat="45.07012" lon="0.7212">
        <ele>223.6</ele>
        <time>2022-05-01T08:20:52Z</time>
      </trkpt>
      <trkpt lat="45.0701" lon="0.72127">
        <ele>223.4</ele>
        <time>2022-05-01T08:20:53Z</time>
      </trkpt>
      <trkpt lat="45.07003" lon="0.72139">
        <ele>223.1</ele>
        <time>2022-05-01T08:20:55Z</time>
      </trkpt>
      <trkpt lat="45.06999" lon="0.72144">
        <ele>222.9</ele>
        <time>2022-05-01T08:20:56Z</time>
      </trkpt>
      <trkpt lat="45.06995" lon="0.72149">
        <ele>222.8</ele>
        <time>2022-05-01T08:20:57Z</time>
      </trkpt>
      <trkpt lat="45.06988" lon="0.72159">
        <ele>222.5</ele>
        <time>2022-05-01T08:20:59Z</time>
      </trkpt>
      <trkpt lat="45.0698" lon="0.72169">
        <ele>222.3</ele>
        <time>2022-05-01T08:21:01Z</time>
      </trkpt>
      <trkpt lat="45.06976" lon="0.72174">
        <ele>222.3</ele>
        <time>2022-05-01T08:21:02Z</time>
      </trkpt>
      <trkpt lat="45.06973" lon="0.72181">
        <ele>222.2</ele>
        <time>2022-05-01T08:21:03Z</time>
      </trkpt>
      <trkpt lat="45.06967" lon="0.72192">
        <ele>222.2</ele>
        <time>2022-05-01T08:21:05Z</time>
      </trkpt>
      <trkpt lat="45.06961" lon="0.72204">
        <ele>222.3</ele>
        <time>2022-05-01T08:21:07Z</time>
      </trkpt>
      <trkpt lat="45.06955" lon="0.72214">
        <ele>222.4</ele>
        <time>2022-05-01T08:21:09Z</time>
      </trkpt>
      <trkpt lat="45.06952" lon="0.72218">
        <ele>222.4</ele>
        <time>2022-05-01T08:21:10Z</time>
      </trkpt>
      <trkpt lat="45.06949" lon="0.72222">
        <ele>222.4</ele>
        <time>2022-05-01T08:21:11Z</time>
      </trkpt>
      <trkpt lat="45.06945" lon="0.72225">
        <ele>222.5</ele>
        <time>2022-05-01T08:21:12Z</time>
      </trkpt>
      <trkpt lat="45.06941" lon="0.72226">
        <ele>222.5</ele>
        <time>2022-05-01T08:21:13Z</time>
      </trkpt>
      <trkpt lat="45.06937" lon="0.72227">
        <ele>222.5</ele>
        <time>2022-05-01T08:21:14Z</time>
      </trkpt>
      <trkpt lat="45.06933" lon="0.72229">
        <ele>222.5</ele>
        <time>2022-05-01T08:21:15Z</time>
      </trkpt>
      <trkpt lat="45.06925" lon="0.72231">
        <ele>222.4</ele>
        <time>2022-05-01T08:21:17Z</time>
      </trkpt>
      <trkpt lat="45.06916" lon="0.72232">
        <ele>222.3</ele>
        <time>2022-05-01T08:21:19Z</time>
      </trkpt>
      <trkpt lat="45.06911" lon="0.72231">
        <ele>222.3</ele>
        <time>2022-05-01T08:21:20Z</time>
      </trkpt>
      <trkpt lat="45.06907" lon="0.7223">
        <ele>222.2</ele>
        <time>2022-05-01T08:21:21Z</time>
      </trkpt>
      <trkpt lat="45.06898" lon="0.72227">
        <ele>222.1</ele>
        <time>2022-05-01T08:21:23Z</time>
      </trkpt>
      <trkpt lat="45.06893" lon="0.72226">
        <ele>222</ele>
        <time>2022-05-01T08:21:24Z</time>
      </trkpt>
      <trkpt lat="45.06889" lon="0.72225">
        <ele>222</ele>
        <time>2022-05-01T08:21:25Z</time>
      </trkpt>
      <trkpt lat="45.06884" lon="0.72225">
        <ele>222</ele>
        <time>2022-05-01T08:21:26Z</time>
      </trkpt>
      <trkpt lat="45.0688" lon="0.72226">
        <ele>221.9</ele>
        <time>2022-05-01T08:21:27Z</time>
      </trkpt>
      <trkpt lat="45.06871" lon="0.72225">
        <ele>221.9</ele>
        <time>2022-05-01T08:21:29Z</time>
      </trkpt>
      <trkpt lat="45.06868" lon="0.72223">
        <ele>221.9</ele>
        <time>2022-05-01T08:21:30Z</time>
      </trkpt>
      <trkpt lat="45.06864" lon="0.72219">
        <ele>221.9</ele>
        <time>2022-05-01T08:21:31Z</time>
      </trkpt>
      <trkpt lat="45.06858" lon="0.72211">
        <ele>221.9</ele>
        <time>2022-05-01T08:21:33Z</time>
      </trkpt>
      <trkpt lat="45.06857" lon="0.72209">
        <ele>221.9</ele>
        <time>2022-05-01T08:21:34Z</time>
      </trkpt>
      <trkpt lat="45.06856" lon="0.72207">
        <ele>221.9</ele>
        <time>2022-05-01T08:21:35Z</time>
      </trkpt>
      <trkpt lat="45.06856" lon="0.72206">
        <ele>221.9</ele>
        <time>2022-05-01T08:21:37Z</time>
      </trkpt>
      <trkpt lat="45.06853" lon="0.722">
        <ele>221.9</ele>
        <time>2022-05-01T08:21:43Z</time>
      </trkpt>
      <trkpt lat="45.06851" lon="0.72197">
        <ele>222</ele>
        <time>2022-05-01T08:21:44Z</time>
      </trkpt>
      <trkpt lat="45.06849" lon="0.72194">
        <ele>222</ele>
        <time>2022-05-01T08:21:45Z</time>
      </trkpt>
      <trkpt lat="45.06847" lon="0.72194">
        <ele>222</ele>
        <time>2022-05-01T08:21:46Z</time>
      </trkpt>
      <trkpt lat="45.06845" lon="0.72194">
        <ele>222</ele>
        <time>2022-05-01T08:21:47Z</time>
      </trkpt>
      <trkpt lat="45.06841" lon="0.72192">
        <ele>221.9</ele>
        <time>2022-05-01T08:21:48Z</time>
      </trkpt>
      <trkpt lat="45.06837" lon="0.72189">
        <ele>221.9</ele>
        <time>2022-05-01T08:21:49Z</time>
      </trkpt>
      <trkpt lat="45.06832" lon="0.72187">
        <ele>221.9</ele>
        <time>2022-05-01T08:21:50Z</time>
      </trkpt>
      <trkpt lat="45.06828" lon="0.72184">
        <ele>221.6</ele>
        <time>2022-05-01T08:21:51Z</time>
      </trkpt>
      <trkpt lat="45.06795" lon="0.72163">
        <ele>220.8</ele>
        <time>2022-05-01T08:21:53Z</time>
      </trkpt>
      <trkpt lat="45.06789" lon="0.7216">
        <ele>220.9</ele>
        <time>2022-05-01T08:21:54Z</time>
      </trkpt>
      <trkpt lat="45.06783" lon="0.72157">
        <ele>220.9</ele>
        <time>2022-05-01T08:21:55Z</time>
      </trkpt>
      <trkpt lat="45.06774" lon="0.72152">
        <ele>221</ele>
        <time>2022-05-01T08:21:57Z</time>
      </trkpt>
      <trkpt lat="45.06771" lon="0.7215">
        <ele>221</ele>
        <time>2022-05-01T08:21:58Z</time>
      </trkpt>
      <trkpt lat="45.06767" lon="0.72147">
        <ele>221.9</ele>
        <time>2022-05-01T08:21:59Z</time>
      </trkpt>
      <trkpt lat="45.0676" lon="0.72142">
        <ele>221.9</ele>
        <time>2022-05-01T08:22:01Z</time>
      </trkpt>
      <trkpt lat="45.06756" lon="0.72137">
        <ele>221.8</ele>
        <time>2022-05-01T08:22:02Z</time>
      </trkpt>
      <trkpt lat="45.06753" lon="0.72132">
        <ele>221.8</ele>
        <time>2022-05-01T08:22:03Z</time>
      </trkpt>
      <trkpt lat="45.06748" lon="0.72123">
        <ele>222.9</ele>
        <time>2022-05-01T08:22:05Z</time>
      </trkpt>
      <trkpt lat="45.06746" lon="0.72118">
        <ele>222.9</ele>
        <time>2022-05-01T08:22:06Z</time>
      </trkpt>
      <trkpt lat="45.06743" lon="0.72113">
        <ele>223.8</ele>
        <time>2022-05-01T08:22:07Z</time>
      </trkpt>
      <trkpt lat="45.06738" lon="0.72103">
        <ele>223.8</ele>
        <time>2022-05-01T08:22:09Z</time>
      </trkpt>
      <trkpt lat="45.06733" lon="0.72092">
        <ele>224.5</ele>
        <time>2022-05-01T08:22:11Z</time>
      </trkpt>
      <trkpt lat="45.0673" lon="0.72087">
        <ele>224.5</ele>
        <time>2022-05-01T08:22:12Z</time>
      </trkpt>
      <trkpt lat="45.06728" lon="0.72081">
        <ele>224.5</ele>
        <time>2022-05-01T08:22:13Z</time>
      </trkpt>
      <trkpt lat="45.06723" lon="0.72071">
        <ele>225.4</ele>
        <time>2022-05-01T08:22:15Z</time>
      </trkpt>
      <trkpt lat="45.06716" lon="0.72061">
        <ele>225.6</ele>
        <time>2022-05-01T08:22:17Z</time>
      </trkpt>
      <trkpt lat="45.06713" lon="0.72057">
        <ele>225.6</ele>
        <time>2022-05-01T08:22:18Z</time>
      </trkpt>
      <trkpt lat="45.06709" lon="0.72053">
        <ele>225.1</ele>
        <time>2022-05-01T08:22:19Z</time>
      </trkpt>
      <trkpt lat="45.06703" lon="0.72044">
        <ele>225.5</ele>
        <time>2022-05-01T08:22:21Z</time>
      </trkpt>
      <trkpt lat="45.067" lon="0.7204">
        <ele>225.5</ele>
        <time>2022-05-01T08:22:22Z</time>
      </trkpt>
      <trkpt lat="45.06698" lon="0.72036">
        <ele>225.5</ele>
        <time>2022-05-01T08:22:23Z</time>
      </trkpt>
      <trkpt lat="45.06692" lon="0.72028">
        <ele>225.6</ele>
        <time>2022-05-01T08:22:25Z</time>
      </trkpt>
      <trkpt lat="45.0669" lon="0.72024">
        <ele>225.6</ele>
        <time>2022-05-01T08:22:26Z</time>
      </trkpt>
      <trkpt lat="45.06687" lon="0.7202">
        <ele>225.6</ele>
        <time>2022-05-01T08:22:27Z</time>
      </trkpt>
      <trkpt lat="45.06681" lon="0.72012">
        <ele>224.8</ele>
        <time>2022-05-01T08:22:29Z</time>
      </trkpt>
      <trkpt lat="45.06675" lon="0.72005">
        <ele>225.4</ele>
        <time>2022-05-01T08:22:31Z</time>
      </trkpt>
      <trkpt lat="45.06671" lon="0.72002">
        <ele>224.6</ele>
        <time>2022-05-01T08:22:32Z</time>
      </trkpt>
      <trkpt lat="45.06668" lon="0.71998">
        <ele>224.6</ele>
        <time>2022-05-01T08:22:33Z</time>
      </trkpt>
      <trkpt lat="45.06662" lon="0.7199">
        <ele>225.2</ele>
        <time>2022-05-01T08:22:35Z</time>
      </trkpt>
      <trkpt lat="45.06658" lon="0.71986">
        <ele>224.4</ele>
        <time>2022-05-01T08:22:36Z</time>
      </trkpt>
      <trkpt lat="45.06654" lon="0.71983">
        <ele>224.4</ele>
        <time>2022-05-01T08:22:37Z</time>
      </trkpt>
      <trkpt lat="45.06644" lon="0.71978">
        <ele>223.8</ele>
        <time>2022-05-01T08:22:39Z</time>
      </trkpt>
      <trkpt lat="45.06637" lon="0.71975">
        <ele>224.5</ele>
        <time>2022-05-01T08:22:40Z</time>
      </trkpt>
      <trkpt lat="45.06631" lon="0.71971">
        <ele>223.9</ele>
        <time>2022-05-01T08:22:41Z</time>
      </trkpt>
      <trkpt lat="45.0662" lon="0.71961">
        <ele>223.3</ele>
        <time>2022-05-01T08:22:43Z</time>
      </trkpt>
      <trkpt lat="45.06615" lon="0.71956">
        <ele>224.2</ele>
        <time>2022-05-01T08:22:44Z</time>
      </trkpt>
      <trkpt lat="45.06609" lon="0.71952">
        <ele>223.4</ele>
        <time>2022-05-01T08:22:45Z</time>
      </trkpt>
      <trkpt lat="45.06599" lon="0.71947">
        <ele>222.7</ele>
        <time>2022-05-01T08:22:47Z</time>
      </trkpt>
      <trkpt lat="45.06595" lon="0.71946">
        <ele>222.7</ele>
        <time>2022-05-01T08:22:48Z</time>
      </trkpt>
      <trkpt lat="45.0659" lon="0.71946">
        <ele>222.7</ele>
        <time>2022-05-01T08:22:49Z</time>
      </trkpt>
      <trkpt lat="45.0658" lon="0.71944">
        <ele>222.1</ele>
        <time>2022-05-01T08:22:51Z</time>
      </trkpt>
      <trkpt lat="45.06572" lon="0.71944">
        <ele>221.6</ele>
        <time>2022-05-01T08:22:53Z</time>
      </trkpt>
      <trkpt lat="45.06568" lon="0.71943">
        <ele>222.5</ele>
        <time>2022-05-01T08:22:54Z</time>
      </trkpt>
      <trkpt lat="45.06563" lon="0.71943">
        <ele>222</ele>
        <time>2022-05-01T08:22:55Z</time>
      </trkpt>
      <trkpt lat="45.06555" lon="0.71942">
        <ele>222</ele>
        <time>2022-05-01T08:22:57Z</time>
      </trkpt>
      <trkpt lat="45.06547" lon="0.7194">
        <ele>221.6</ele>
        <time>2022-05-01T08:22:59Z</time>
      </trkpt>
      <trkpt lat="45.06539" lon="0.71939">
        <ele>221.3</ele>
        <time>2022-05-01T08:23:01Z</time>
      </trkpt>
      <trkpt lat="45.06531" lon="0.71937">
        <ele>221.3</ele>
        <time>2022-05-01T08:23:03Z</time>
      </trkpt>
      <trkpt lat="45.06527" lon="0.71936">
        <ele>220.9</ele>
        <time>2022-05-01T08:23:04Z</time>
      </trkpt>
      <trkpt lat="45.06522" lon="0.71934">
        <ele>220.9</ele>
        <time>2022-05-01T08:23:05Z</time>
      </trkpt>
      <trkpt lat="45.06513" lon="0.7193">
        <ele>220.6</ele>
        <time>2022-05-01T08:23:07Z</time>
      </trkpt>
      <trkpt lat="45.06504" lon="0.71927">
        <ele>220.6</ele>
        <time>2022-05-01T08:23:09Z</time>
      </trkpt>
      <trkpt lat="45.065" lon="0.71926">
        <ele>221</ele>
        <time>2022-05-01T08:23:10Z</time>
      </trkpt>
      <trkpt lat="45.06496" lon="0.71924">
        <ele>221</ele>
        <time>2022-05-01T08:23:11Z</time>
      </trkpt>
      <trkpt lat="45.06487" lon="0.71921">
        <ele>220.9</ele>
        <time>2022-05-01T08:23:13Z</time>
      </trkpt>
      <trkpt lat="45.0648" lon="0.71919">
        <ele>220.9</ele>
        <time>2022-05-01T08:23:15Z</time>
      </trkpt>
      <trkpt lat="45.06472" lon="0.71912">
        <ele>220.8</ele>
        <time>2022-05-01T08:23:17Z</time>
      </trkpt>
      <trkpt lat="45.06462" lon="0.71907">
        <ele>221.3</ele>
        <time>2022-05-01T08:23:19Z</time>
      </trkpt>
      <trkpt lat="45.06453" lon="0.71902">
        <ele>221.3</ele>
        <time>2022-05-01T08:23:21Z</time>
      </trkpt>
      <trkpt lat="45.06443" lon="0.71898">
        <ele>221.3</ele>
        <time>2022-05-01T08:23:23Z</time>
      </trkpt>
      <trkpt lat="45.06434" lon="0.71895">
        <ele>221.3</ele>
        <time>2022-05-01T08:23:25Z</time>
      </trkpt>
      <trkpt lat="45.06424" lon="0.71893">
        <ele>221.3</ele>
        <time>2022-05-01T08:23:27Z</time>
      </trkpt>
      <trkpt lat="45.06416" lon="0.71889">
        <ele>221.4</ele>
        <time>2022-05-01T08:23:29Z</time>
      </trkpt>
      <trkpt lat="45.06411" lon="0.71886">
        <ele>221.4</ele>
        <time>2022-05-01T08:23:30Z</time>
      </trkpt>
      <trkpt lat="45.06406" lon="0.71882">
        <ele>221.3</ele>
        <time>2022-05-01T08:23:31Z</time>
      </trkpt>
      <trkpt lat="45.06397" lon="0.71873">
        <ele>221.3</ele>
        <time>2022-05-01T08:23:33Z</time>
      </trkpt>
      <trkpt lat="45.06387" lon="0.71866">
        <ele>221.2</ele>
        <time>2022-05-01T08:23:35Z</time>
      </trkpt>
      <trkpt lat="45.06381" lon="0.71862">
        <ele>221.1</ele>
        <time>2022-05-01T08:23:36Z</time>
      </trkpt>
      <trkpt lat="45.06376" lon="0.71858">
        <ele>221.1</ele>
        <time>2022-05-01T08:23:37Z</time>
      </trkpt>
      <trkpt lat="45.06365" lon="0.71849">
        <ele>221</ele>
        <time>2022-05-01T08:23:39Z</time>
      </trkpt>
      <trkpt lat="45.06359" lon="0.71846">
        <ele>221</ele>
        <time>2022-05-01T08:23:40Z</time>
      </trkpt>
      <trkpt lat="45.06352" lon="0.71842">
        <ele>220.9</ele>
        <time>2022-05-01T08:23:41Z</time>
      </trkpt>
      <trkpt lat="45.06346" lon="0.71839">
        <ele>220.8</ele>
        <time>2022-05-01T08:23:42Z</time>
      </trkpt>
      <trkpt lat="45.06339" lon="0.71834">
        <ele>220.8</ele>
        <time>2022-05-01T08:23:43Z</time>
      </trkpt>
      <trkpt lat="45.06326" lon="0.71826">
        <ele>220.5</ele>
        <time>2022-05-01T08:23:45Z</time>
      </trkpt>
      <trkpt lat="45.06316" lon="0.7182">
        <ele>219.8</ele>
        <time>2022-05-01T08:23:47Z</time>
      </trkpt>
      <trkpt lat="45.06308" lon="0.71814">
        <ele>219.3</ele>
        <time>2022-05-01T08:23:49Z</time>
      </trkpt>
      <trkpt lat="45.063" lon="0.71806">
        <ele>219.3</ele>
        <time>2022-05-01T08:23:51Z</time>
      </trkpt>
      <trkpt lat="45.06291" lon="0.71798">
        <ele>218.5</ele>
        <time>2022-05-01T08:23:53Z</time>
      </trkpt>
      <trkpt lat="45.06282" lon="0.71791">
        <ele>218.1</ele>
        <time>2022-05-01T08:23:55Z</time>
      </trkpt>
      <trkpt lat="45.06275" lon="0.71783">
        <ele>217.8</ele>
        <time>2022-05-01T08:23:57Z</time>
      </trkpt>
      <trkpt lat="45.0627" lon="0.7178">
        <ele>217.4</ele>
        <time>2022-05-01T08:23:58Z</time>
      </trkpt>
      <trkpt lat="45.06266" lon="0.71777">
        <ele>217.4</ele>
        <time>2022-05-01T08:23:59Z</time>
      </trkpt>
      <trkpt lat="45.06257" lon="0.71772">
        <ele>217.1</ele>
        <time>2022-05-01T08:24:01Z</time>
      </trkpt>
      <trkpt lat="45.06253" lon="0.71771">
        <ele>216.8</ele>
        <time>2022-05-01T08:24:02Z</time>
      </trkpt>
      <trkpt lat="45.06249" lon="0.71769">
        <ele>216.8</ele>
        <time>2022-05-01T08:24:03Z</time>
      </trkpt>
      <trkpt lat="45.06245" lon="0.71767">
        <ele>216.4</ele>
        <time>2022-05-01T08:24:05Z</time>
      </trkpt>
      <trkpt lat="45.06244" lon="0.71765">
        <ele>216.4</ele>
        <time>2022-05-01T08:24:06Z</time>
      </trkpt>
      <trkpt lat="45.06243" lon="0.71764">
        <ele>216.4</ele>
        <time>2022-05-01T08:24:07Z</time>
      </trkpt>
      <trkpt lat="45.06231" lon="0.71761">
        <ele>216.1</ele>
        <time>2022-05-01T08:24:13Z</time>
      </trkpt>
      <trkpt lat="45.06229" lon="0.71767">
        <ele>216.1</ele>
        <time>2022-05-01T08:24:14Z</time>
      </trkpt>
      <trkpt lat="45.06229" lon="0.71767">
        <ele>216.1</ele>
        <time>2022-05-01T08:24:15Z</time>
      </trkpt>
      <trkpt lat="45.06226" lon="0.71766">
        <ele>215.9</ele>
        <time>2022-05-01T08:24:17Z</time>
      </trkpt>
      <trkpt lat="45.06219" lon="0.71763">
        <ele>215.7</ele>
        <time>2022-05-01T08:24:19Z</time>
      </trkpt>
      <trkpt lat="45.06211" lon="0.71761">
        <ele>215.5</ele>
        <time>2022-05-01T08:24:21Z</time>
      </trkpt>
      <trkpt lat="45.06205" lon="0.71759">
        <ele>215.3</ele>
        <time>2022-05-01T08:24:23Z</time>
      </trkpt>
      <trkpt lat="45.06197" lon="0.71758">
        <ele>215.2</ele>
        <time>2022-05-01T08:24:25Z</time>
      </trkpt>
      <trkpt lat="45.06189" lon="0.71756">
        <ele>215</ele>
        <time>2022-05-01T08:24:27Z</time>
      </trkpt>
      <trkpt lat="45.0618" lon="0.71754">
        <ele>214.9</ele>
        <time>2022-05-01T08:24:29Z</time>
      </trkpt>
      <trkpt lat="45.06172" lon="0.71752">
        <ele>214.9</ele>
        <time>2022-05-01T08:24:31Z</time>
      </trkpt>
      <trkpt lat="45.06167" lon="0.71751">
        <ele>214.9</ele>
        <time>2022-05-01T08:24:32Z</time>
      </trkpt>
      <trkpt lat="45.06163" lon="0.7175">
        <ele>214.9</ele>
        <time>2022-05-01T08:24:33Z</time>
      </trkpt>
      <trkpt lat="45.06155" lon="0.71748">
        <ele>214.9</ele>
        <time>2022-05-01T08:24:35Z</time>
      </trkpt>
      <trkpt lat="45.06146" lon="0.71746">
        <ele>215</ele>
        <time>2022-05-01T08:24:37Z</time>
      </trkpt>
      <trkpt lat="45.06142" lon="0.71745">
        <ele>215.1</ele>
        <time>2022-05-01T08:24:38Z</time>
      </trkpt>
      <trkpt lat="45.06138" lon="0.71744">
        <ele>215.2</ele>
        <time>2022-05-01T08:24:39Z</time>
      </trkpt>
      <trkpt lat="45.0613" lon="0.71742">
        <ele>215.4</ele>
        <time>2022-05-01T08:24:41Z</time>
      </trkpt>
      <trkpt lat="45.06126" lon="0.71741">
        <ele>215.6</ele>
        <time>2022-05-01T08:24:42Z</time>
      </trkpt>
      <trkpt lat="45.06122" lon="0.7174">
        <ele>215.7</ele>
        <time>2022-05-01T08:24:43Z</time>
      </trkpt>
      <trkpt lat="45.06113" lon="0.71738">
        <ele>216.1</ele>
        <time>2022-05-01T08:24:45Z</time>
      </trkpt>
      <trkpt lat="45.06106" lon="0.71737">
        <ele>216.5</ele>
        <time>2022-05-01T08:24:47Z</time>
      </trkpt>
      <trkpt lat="45.06097" lon="0.71735">
        <ele>217</ele>
        <time>2022-05-01T08:24:49Z</time>
      </trkpt>
      <trkpt lat="45.0609" lon="0.71733">
        <ele>217.3</ele>
        <time>2022-05-01T08:24:51Z</time>
      </trkpt>
      <trkpt lat="45.06088" lon="0.71733">
        <ele>217.4</ele>
        <time>2022-05-01T08:24:52Z</time>
      </trkpt>
      <trkpt lat="45.06085" lon="0.71732">
        <ele>217.6</ele>
        <time>2022-05-01T08:24:53Z</time>
      </trkpt>
      <trkpt lat="45.06077" lon="0.71731">
        <ele>218</ele>
        <time>2022-05-01T08:24:55Z</time>
      </trkpt>
      <trkpt lat="45.06072" lon="0.7173">
        <ele>218.1</ele>
        <time>2022-05-01T08:24:56Z</time>
      </trkpt>
      <trkpt lat="45.06066" lon="0.71728">
        <ele>218.3</ele>
        <time>2022-05-01T08:24:57Z</time>
      </trkpt>
      <trkpt lat="45.06055" lon="0.71726">
        <ele>218.4</ele>
        <time>2022-05-01T08:24:59Z</time>
      </trkpt>
      <trkpt lat="45.06044" lon="0.71724">
        <ele>218.3</ele>
        <time>2022-05-01T08:25:01Z</time>
      </trkpt>
      <trkpt lat="45.06034" lon="0.71722">
        <ele>218.3</ele>
        <time>2022-05-01T08:25:03Z</time>
      </trkpt>
      <trkpt lat="45.06023" lon="0.71721">
        <ele>218.2</ele>
        <time>2022-05-01T08:25:05Z</time>
      </trkpt>
      <trkpt lat="45.06013" lon="0.7173">
        <ele>218.2</ele>
        <time>2022-05-01T08:25:07Z</time>
      </trkpt>
      <trkpt lat="45.06008" lon="0.71741">
        <ele>218.2</ele>
        <time>2022-05-01T08:25:09Z</time>
      </trkpt>
      <trkpt lat="45.06005" lon="0.71745">
        <ele>218.2</ele>
        <time>2022-05-01T08:25:10Z</time>
      </trkpt>
      <trkpt lat="45.06002" lon="0.71749">
        <ele>218.2</ele>
        <time>2022-05-01T08:25:11Z</time>
      </trkpt>
      <trkpt lat="45.05996" lon="0.71755">
        <ele>218.3</ele>
        <time>2022-05-01T08:25:13Z</time>
      </trkpt>
      <trkpt lat="45.05989" lon="0.7176">
        <ele>218.4</ele>
        <time>2022-05-01T08:25:15Z</time>
      </trkpt>
      <trkpt lat="45.05985" lon="0.71762">
        <ele>218.4</ele>
        <time>2022-05-01T08:25:16Z</time>
      </trkpt>
      <trkpt lat="45.05981" lon="0.71764">
        <ele>218.5</ele>
        <time>2022-05-01T08:25:17Z</time>
      </trkpt>
      <trkpt lat="45.05973" lon="0.71767">
        <ele>218.7</ele>
        <time>2022-05-01T08:25:19Z</time>
      </trkpt>
      <trkpt lat="45.05964" lon="0.71771">
        <ele>218.9</ele>
        <time>2022-05-01T08:25:21Z</time>
      </trkpt>
      <trkpt lat="45.05956" lon="0.71776">
        <ele>219.1</ele>
        <time>2022-05-01T08:25:23Z</time>
      </trkpt>
      <trkpt lat="45.05953" lon="0.7178">
        <ele>219.3</ele>
        <time>2022-05-01T08:25:24Z</time>
      </trkpt>
      <trkpt lat="45.05949" lon="0.71784">
        <ele>219.4</ele>
        <time>2022-05-01T08:25:25Z</time>
      </trkpt>
      <trkpt lat="45.05943" lon="0.71793">
        <ele>219.7</ele>
        <time>2022-05-01T08:25:27Z</time>
      </trkpt>
      <trkpt lat="45.0594" lon="0.71798">
        <ele>219.8</ele>
        <time>2022-05-01T08:25:28Z</time>
      </trkpt>
      <trkpt lat="45.05937" lon="0.71802">
        <ele>220</ele>
        <time>2022-05-01T08:25:29Z</time>
      </trkpt>
      <trkpt lat="45.05931" lon="0.7181">
        <ele>220.2</ele>
        <time>2022-05-01T08:25:31Z</time>
      </trkpt>
      <trkpt lat="45.05927" lon="0.71819">
        <ele>220.5</ele>
        <time>2022-05-01T08:25:33Z</time>
      </trkpt>
      <trkpt lat="45.05924" lon="0.71826">
        <ele>220.7</ele>
        <time>2022-05-01T08:25:35Z</time>
      </trkpt>
      <trkpt lat="45.05922" lon="0.71829">
        <ele>220.7</ele>
        <time>2022-05-01T08:25:36Z</time>
      </trkpt>
      <trkpt lat="45.05921" lon="0.71832">
        <ele>220.8</ele>
        <time>2022-05-01T08:25:37Z</time>
      </trkpt>
      <trkpt lat="45.05911" lon="0.71838">
        <ele>221.2</ele>
        <time>2022-05-01T08:25:39Z</time>
      </trkpt>
      <trkpt lat="45.05904" lon="0.71836">
        <ele>221.4</ele>
        <time>2022-05-01T08:25:41Z</time>
      </trkpt>
      <trkpt lat="45.059" lon="0.71835">
        <ele>221.6</ele>
        <time>2022-05-01T08:25:42Z</time>
      </trkpt>
      <trkpt lat="45.05897" lon="0.71834">
        <ele>221.7</ele>
        <time>2022-05-01T08:25:43Z</time>
      </trkpt>
      <trkpt lat="45.05891" lon="0.71835">
        <ele>222</ele>
        <time>2022-05-01T08:25:45Z</time>
      </trkpt>
      <trkpt lat="45.05885" lon="0.71836">
        <ele>222.2</ele>
        <time>2022-05-01T08:25:47Z</time>
      </trkpt>
      <trkpt lat="45.05881" lon="0.71837">
        <ele>222.4</ele>
        <time>2022-05-01T08:25:49Z</time>
      </trkpt>
      <trkpt lat="45.05873" lon="0.71833">
        <ele>222.7</ele>
        <time>2022-05-01T08:25:51Z</time>
      </trkpt>
      <trkpt lat="45.05868" lon="0.71829">
        <ele>223</ele>
        <time>2022-05-01T08:25:52Z</time>
      </trkpt>
      <trkpt lat="45.05857" lon="0.71821">
        <ele>223.7</ele>
        <time>2022-05-01T08:25:53Z</time>
      </trkpt>
      <trkpt lat="45.05855" lon="0.71814">
        <ele>223.8</ele>
        <time>2022-05-01T08:25:55Z</time>
      </trkpt>
      <trkpt lat="45.05852" lon="0.71807">
        <ele>224</ele>
        <time>2022-05-01T08:25:57Z</time>
      </trkpt>
      <trkpt lat="45.05851" lon="0.71804">
        <ele>224.1</ele>
        <time>2022-05-01T08:25:58Z</time>
      </trkpt>
      <trkpt lat="45.0585" lon="0.71801">
        <ele>224.2</ele>
        <time>2022-05-01T08:25:59Z</time>
      </trkpt>
      <trkpt lat="45.05844" lon="0.71795">
        <ele>224.4</ele>
        <time>2022-05-01T08:26:01Z</time>
      </trkpt>
      <trkpt lat="45.05839" lon="0.71791">
        <ele>224.7</ele>
        <time>2022-05-01T08:26:03Z</time>
      </trkpt>
      <trkpt lat="45.05833" lon="0.71785">
        <ele>224.9</ele>
        <time>2022-05-01T08:26:05Z</time>
      </trkpt>
      <trkpt lat="45.05827" lon="0.71781">
        <ele>225.1</ele>
        <time>2022-05-01T08:26:07Z</time>
      </trkpt>
      <trkpt lat="45.05824" lon="0.71779">
        <ele>225.2</ele>
        <time>2022-05-01T08:26:08Z</time>
      </trkpt>
      <trkpt lat="45.05822" lon="0.71774">
        <ele>225.3</ele>
        <time>2022-05-01T08:26:09Z</time>
      </trkpt>
      <trkpt lat="45.0582" lon="0.71767">
        <ele>225.5</ele>
        <time>2022-05-01T08:26:11Z</time>
      </trkpt>
      <trkpt lat="45.05816" lon="0.71757">
        <ele>225.7</ele>
        <time>2022-05-01T08:26:13Z</time>
      </trkpt>
      <trkpt lat="45.05815" lon="0.71753">
        <ele>225.9</ele>
        <time>2022-05-01T08:26:14Z</time>
      </trkpt>
      <trkpt lat="45.05813" lon="0.71747">
        <ele>226</ele>
        <time>2022-05-01T08:26:15Z</time>
      </trkpt>
      <trkpt lat="45.05809" lon="0.71737">
        <ele>226.2</ele>
        <time>2022-05-01T08:26:17Z</time>
      </trkpt>
      <trkpt lat="45.05808" lon="0.71732">
        <ele>226.3</ele>
        <time>2022-05-01T08:26:18Z</time>
      </trkpt>
      <trkpt lat="45.05806" lon="0.71728">
        <ele>226.3</ele>
        <time>2022-05-01T08:26:19Z</time>
      </trkpt>
      <trkpt lat="45.05803" lon="0.71718">
        <ele>226.4</ele>
        <time>2022-05-01T08:26:21Z</time>
      </trkpt>
      <trkpt lat="45.05799" lon="0.71709">
        <ele>226.3</ele>
        <time>2022-05-01T08:26:23Z</time>
      </trkpt>
      <trkpt lat="45.05796" lon="0.717">
        <ele>226</ele>
        <time>2022-05-01T08:26:25Z</time>
      </trkpt>
      <trkpt lat="45.05793" lon="0.7169">
        <ele>225.6</ele>
        <time>2022-05-01T08:26:27Z</time>
      </trkpt>
      <trkpt lat="45.0579" lon="0.71679">
        <ele>225.1</ele>
        <time>2022-05-01T08:26:29Z</time>
      </trkpt>
      <trkpt lat="45.05787" lon="0.71665">
        <ele>224.5</ele>
        <time>2022-05-01T08:26:31Z</time>
      </trkpt>
      <trkpt lat="45.05787" lon="0.71656">
        <ele>224.1</ele>
        <time>2022-05-01T08:26:32Z</time>
      </trkpt>
      <trkpt lat="45.05787" lon="0.71647">
        <ele>223.8</ele>
        <time>2022-05-01T08:26:33Z</time>
      </trkpt>
      <trkpt lat="45.05787" lon="0.71631">
        <ele>223.1</ele>
        <time>2022-05-01T08:26:35Z</time>
      </trkpt>
      <trkpt lat="45.05787" lon="0.71623">
        <ele>222.8</ele>
        <time>2022-05-01T08:26:36Z</time>
      </trkpt>
      <trkpt lat="45.05787" lon="0.71616">
        <ele>222.6</ele>
        <time>2022-05-01T08:26:37Z</time>
      </trkpt>
      <trkpt lat="45.05783" lon="0.71601">
        <ele>222.3</ele>
        <time>2022-05-01T08:26:39Z</time>
      </trkpt>
      <trkpt lat="45.0578" lon="0.7159">
        <ele>222.2</ele>
        <time>2022-05-01T08:26:41Z</time>
      </trkpt>
      <trkpt lat="45.05774" lon="0.71578">
        <ele>222.2</ele>
        <time>2022-05-01T08:26:43Z</time>
      </trkpt>
      <trkpt lat="45.05768" lon="0.71574">
        <ele>222.3</ele>
        <time>2022-05-01T08:26:44Z</time>
      </trkpt>
      <trkpt lat="45.05763" lon="0.71571">
        <ele>222.4</ele>
        <time>2022-05-01T08:26:45Z</time>
      </trkpt>
      <trkpt lat="45.05755" lon="0.71567">
        <ele>222.6</ele>
        <time>2022-05-01T08:26:47Z</time>
      </trkpt>
      <trkpt lat="45.05751" lon="0.71566">
        <ele>222.6</ele>
        <time>2022-05-01T08:26:48Z</time>
      </trkpt>
      <trkpt lat="45.05747" lon="0.71565">
        <ele>222.7</ele>
        <time>2022-05-01T08:26:49Z</time>
      </trkpt>
      <trkpt lat="45.05739" lon="0.71564">
        <ele>222.9</ele>
        <time>2022-05-01T08:26:51Z</time>
      </trkpt>
      <trkpt lat="45.05731" lon="0.71562">
        <ele>223.1</ele>
        <time>2022-05-01T08:26:53Z</time>
      </trkpt>
      <trkpt lat="45.05722" lon="0.7156">
        <ele>223.3</ele>
        <time>2022-05-01T08:26:55Z</time>
      </trkpt>
      <trkpt lat="45.05714" lon="0.71558">
        <ele>223.5</ele>
        <time>2022-05-01T08:26:57Z</time>
      </trkpt>
      <trkpt lat="45.0571" lon="0.71557">
        <ele>223.6</ele>
        <time>2022-05-01T08:26:58Z</time>
      </trkpt>
      <trkpt lat="45.05705" lon="0.71556">
        <ele>223.7</ele>
        <time>2022-05-01T08:26:59Z</time>
      </trkpt>
      <trkpt lat="45.05697" lon="0.71556">
        <ele>223.9</ele>
        <time>2022-05-01T08:27:01Z</time>
      </trkpt>
      <trkpt lat="45.05693" lon="0.71557">
        <ele>224</ele>
        <time>2022-05-01T08:27:02Z</time>
      </trkpt>
      <trkpt lat="45.05689" lon="0.71558">
        <ele>224.1</ele>
        <time>2022-05-01T08:27:03Z</time>
      </trkpt>
      <trkpt lat="45.05685" lon="0.71559">
        <ele>224.3</ele>
        <time>2022-05-01T08:27:04Z</time>
      </trkpt>
      <trkpt lat="45.05681" lon="0.7156">
        <ele>224.4</ele>
        <time>2022-05-01T08:27:05Z</time>
      </trkpt>
      <trkpt lat="45.05677" lon="0.7156">
        <ele>224.5</ele>
        <time>2022-05-01T08:27:06Z</time>
      </trkpt>
      <trkpt lat="45.05673" lon="0.71561">
        <ele>224.6</ele>
        <time>2022-05-01T08:27:07Z</time>
      </trkpt>
      <trkpt lat="45.05664" lon="0.71563">
        <ele>224.8</ele>
        <time>2022-05-01T08:27:09Z</time>
      </trkpt>
      <trkpt lat="45.05659" lon="0.71564">
        <ele>224.8</ele>
        <time>2022-05-01T08:27:10Z</time>
      </trkpt>
      <trkpt lat="45.05655" lon="0.71565">
        <ele>224.8</ele>
        <time>2022-05-01T08:27:11Z</time>
      </trkpt>
      <trkpt lat="45.05651" lon="0.71566">
        <ele>224.8</ele>
        <time>2022-05-01T08:27:12Z</time>
      </trkpt>
      <trkpt lat="45.05646" lon="0.71567">
        <ele>224.7</ele>
        <time>2022-05-01T08:27:13Z</time>
      </trkpt>
      <trkpt lat="45.05637" lon="0.71568">
        <ele>224.5</ele>
        <time>2022-05-01T08:27:15Z</time>
      </trkpt>
      <trkpt lat="45.05629" lon="0.71569">
        <ele>224.3</ele>
        <time>2022-05-01T08:27:17Z</time>
      </trkpt>
      <trkpt lat="45.05625" lon="0.7157">
        <ele>224.1</ele>
        <time>2022-05-01T08:27:18Z</time>
      </trkpt>
      <trkpt lat="45.05621" lon="0.71571">
        <ele>223.9</ele>
        <time>2022-05-01T08:27:19Z</time>
      </trkpt>
      <trkpt lat="45.05612" lon="0.71573">
        <ele>223.5</ele>
        <time>2022-05-01T08:27:21Z</time>
      </trkpt>
      <trkpt lat="45.05601" lon="0.71574">
        <ele>222.8</ele>
        <time>2022-05-01T08:27:23Z</time>
      </trkpt>
      <trkpt lat="45.05595" lon="0.71575">
        <ele>222.3</ele>
        <time>2022-05-01T08:27:24Z</time>
      </trkpt>
      <trkpt lat="45.05589" lon="0.71575">
        <ele>221.8</ele>
        <time>2022-05-01T08:27:25Z</time>
      </trkpt>
      <trkpt lat="45.05575" lon="0.71576">
        <ele>220.6</ele>
        <time>2022-05-01T08:27:27Z</time>
      </trkpt>
      <trkpt lat="45.05568" lon="0.71576">
        <ele>220</ele>
        <time>2022-05-01T08:27:28Z</time>
      </trkpt>
      <trkpt lat="45.0556" lon="0.71576">
        <ele>219.4</ele>
        <time>2022-05-01T08:27:29Z</time>
      </trkpt>
      <trkpt lat="45.05542" lon="0.71575">
        <ele>218.1</ele>
        <time>2022-05-01T08:27:31Z</time>
      </trkpt>
      <trkpt lat="45.05525" lon="0.71574">
        <ele>217.1</ele>
        <time>2022-05-01T08:27:33Z</time>
      </trkpt>
      <trkpt lat="45.0551" lon="0.71576">
        <ele>216.4</ele>
        <time>2022-05-01T08:27:35Z</time>
      </trkpt>
      <trkpt lat="45.05495" lon="0.71576">
        <ele>215.7</ele>
        <time>2022-05-01T08:27:37Z</time>
      </trkpt>
      <trkpt lat="45.05488" lon="0.71576">
        <ele>215.5</ele>
        <time>2022-05-01T08:27:38Z</time>
      </trkpt>
      <trkpt lat="45.05482" lon="0.71574">
        <ele>215.3</ele>
        <time>2022-05-01T08:27:39Z</time>
      </trkpt>
      <trkpt lat="45.05475" lon="0.71571">
        <ele>215.1</ele>
        <time>2022-05-01T08:27:40Z</time>
      </trkpt>
      <trkpt lat="45.05469" lon="0.71569">
        <ele>214.9</ele>
        <time>2022-05-01T08:27:41Z</time>
      </trkpt>
      <trkpt lat="45.05464" lon="0.71568">
        <ele>214.7</ele>
        <time>2022-05-01T08:27:42Z</time>
      </trkpt>
      <trkpt lat="45.05458" lon="0.71567">
        <ele>214.5</ele>
        <time>2022-05-01T08:27:43Z</time>
      </trkpt>
      <trkpt lat="45.05452" lon="0.71567">
        <ele>214.3</ele>
        <time>2022-05-01T08:27:44Z</time>
      </trkpt>
      <trkpt lat="45.05445" lon="0.71566">
        <ele>214.1</ele>
        <time>2022-05-01T08:27:45Z</time>
      </trkpt>
      <trkpt lat="45.05432" lon="0.71566">
        <ele>213.8</ele>
        <time>2022-05-01T08:27:47Z</time>
      </trkpt>
      <trkpt lat="45.05426" lon="0.71567">
        <ele>213.6</ele>
        <time>2022-05-01T08:27:48Z</time>
      </trkpt>
      <trkpt lat="45.05419" lon="0.71568">
        <ele>213.5</ele>
        <time>2022-05-01T08:27:49Z</time>
      </trkpt>
      <trkpt lat="45.05406" lon="0.71568">
        <ele>213.3</ele>
        <time>2022-05-01T08:27:51Z</time>
      </trkpt>
      <trkpt lat="45.05397" lon="0.71568">
        <ele>213.3</ele>
        <time>2022-05-01T08:27:53Z</time>
      </trkpt>
      <trkpt lat="45.05387" lon="0.71565">
        <ele>213.1</ele>
        <time>2022-05-01T08:27:54Z</time>
      </trkpt>
      <trkpt lat="45.05382" lon="0.71566">
        <ele>213.1</ele>
        <time>2022-05-01T08:27:55Z</time>
      </trkpt>
      <trkpt lat="45.05376" lon="0.71566">
        <ele>213.1</ele>
        <time>2022-05-01T08:27:56Z</time>
      </trkpt>
      <trkpt lat="45.05369" lon="0.71566">
        <ele>213</ele>
        <time>2022-05-01T08:27:57Z</time>
      </trkpt>
      <trkpt lat="45.05361" lon="0.71557">
        <ele>212.8</ele>
        <time>2022-05-01T08:27:59Z</time>
      </trkpt>
      <trkpt lat="45.05357" lon="0.71553">
        <ele>212.7</ele>
        <time>2022-05-01T08:28:00Z</time>
      </trkpt>
      <trkpt lat="45.05354" lon="0.71549">
        <ele>212.7</ele>
        <time>2022-05-01T08:28:01Z</time>
      </trkpt>
      <trkpt lat="45.05348" lon="0.71543">
        <ele>212.6</ele>
        <time>2022-05-01T08:28:03Z</time>
      </trkpt>
      <trkpt lat="45.05341" lon="0.71537">
        <ele>212.5</ele>
        <time>2022-05-01T08:28:05Z</time>
      </trkpt>
      <trkpt lat="45.05335" lon="0.71532">
        <ele>212.4</ele>
        <time>2022-05-01T08:28:07Z</time>
      </trkpt>
      <trkpt lat="45.05332" lon="0.7153">
        <ele>212.3</ele>
        <time>2022-05-01T08:28:08Z</time>
      </trkpt>
      <trkpt lat="45.05329" lon="0.71528">
        <ele>212.2</ele>
        <time>2022-05-01T08:28:09Z</time>
      </trkpt>
      <trkpt lat="45.05324" lon="0.71519">
        <ele>212</ele>
        <time>2022-05-01T08:28:11Z</time>
      </trkpt>
      <trkpt lat="45.05321" lon="0.71514">
        <ele>211.8</ele>
        <time>2022-05-01T08:28:12Z</time>
      </trkpt>
      <trkpt lat="45.05319" lon="0.71509">
        <ele>211.6</ele>
        <time>2022-05-01T08:28:13Z</time>
      </trkpt>
      <trkpt lat="45.05316" lon="0.71503">
        <ele>211.4</ele>
        <time>2022-05-01T08:28:14Z</time>
      </trkpt>
      <trkpt lat="45.05313" lon="0.71496">
        <ele>211.1</ele>
        <time>2022-05-01T08:28:15Z</time>
      </trkpt>
      <trkpt lat="45.05307" lon="0.7149">
        <ele>210.7</ele>
        <time>2022-05-01T08:28:16Z</time>
      </trkpt>
      <trkpt lat="45.05301" lon="0.71487">
        <ele>210.3</ele>
        <time>2022-05-01T08:28:17Z</time>
      </trkpt>
      <trkpt lat="45.05294" lon="0.71486">
        <ele>209.9</ele>
        <time>2022-05-01T08:28:18Z</time>
      </trkpt>
      <trkpt lat="45.05288" lon="0.71484">
        <ele>209.6</ele>
        <time>2022-05-01T08:28:19Z</time>
      </trkpt>
      <trkpt lat="45.05275" lon="0.71482">
        <ele>209</ele>
        <time>2022-05-01T08:28:21Z</time>
      </trkpt>
      <trkpt lat="45.05268" lon="0.71481">
        <ele>208.7</ele>
        <time>2022-05-01T08:28:22Z</time>
      </trkpt>
      <trkpt lat="45.05262" lon="0.71479">
        <ele>208.4</ele>
        <time>2022-05-01T08:28:23Z</time>
      </trkpt>
      <trkpt lat="45.05248" lon="0.71474">
        <ele>207.9</ele>
        <time>2022-05-01T08:28:25Z</time>
      </trkpt>
      <trkpt lat="45.05237" lon="0.71466">
        <ele>207.6</ele>
        <time>2022-05-01T08:28:27Z</time>
      </trkpt>
      <trkpt lat="45.05231" lon="0.7146">
        <ele>207.4</ele>
        <time>2022-05-01T08:28:28Z</time>
      </trkpt>
      <trkpt lat="45.05226" lon="0.71455">
        <ele>207.2</ele>
        <time>2022-05-01T08:28:29Z</time>
      </trkpt>
      <trkpt lat="45.05215" lon="0.71444">
        <ele>206.8</ele>
        <time>2022-05-01T08:28:31Z</time>
      </trkpt>
      <trkpt lat="45.05204" lon="0.71434">
        <ele>206.4</ele>
        <time>2022-05-01T08:28:33Z</time>
      </trkpt>
      <trkpt lat="45.05195" lon="0.71421">
        <ele>205.9</ele>
        <time>2022-05-01T08:28:35Z</time>
      </trkpt>
      <trkpt lat="45.05191" lon="0.71413">
        <ele>205.6</ele>
        <time>2022-05-01T08:28:36Z</time>
      </trkpt>
      <trkpt lat="45.05188" lon="0.71404">
        <ele>205.3</ele>
        <time>2022-05-01T08:28:37Z</time>
      </trkpt>
      <trkpt lat="45.05186" lon="0.71388">
        <ele>204.6</ele>
        <time>2022-05-01T08:28:39Z</time>
      </trkpt>
      <trkpt lat="45.05185" lon="0.7138">
        <ele>204.3</ele>
        <time>2022-05-01T08:28:40Z</time>
      </trkpt>
      <trkpt lat="45.05185" lon="0.71372">
        <ele>204</ele>
        <time>2022-05-01T08:28:41Z</time>
      </trkpt>
      <trkpt lat="45.05181" lon="0.71363">
        <ele>203.4</ele>
        <time>2022-05-01T08:28:42Z</time>
      </trkpt>
      <trkpt lat="45.05176" lon="0.71356">
        <ele>202.7</ele>
        <time>2022-05-01T08:28:43Z</time>
      </trkpt>
      <trkpt lat="45.05161" lon="0.71348">
        <ele>200.9</ele>
        <time>2022-05-01T08:28:45Z</time>
      </trkpt>
      <trkpt lat="45.05147" lon="0.71341">
        <ele>199.1</ele>
        <time>2022-05-01T08:28:47Z</time>
      </trkpt>
      <trkpt lat="45.05135" lon="0.71332">
        <ele>197.6</ele>
        <time>2022-05-01T08:28:49Z</time>
      </trkpt>
      <trkpt lat="45.05122" lon="0.71321">
        <ele>196.5</ele>
        <time>2022-05-01T08:28:51Z</time>
      </trkpt>
      <trkpt lat="45.05109" lon="0.7131">
        <ele>195.6</ele>
        <time>2022-05-01T08:28:53Z</time>
      </trkpt>
      <trkpt lat="45.05096" lon="0.71298">
        <ele>194.7</ele>
        <time>2022-05-01T08:28:55Z</time>
      </trkpt>
      <trkpt lat="45.05089" lon="0.71292">
        <ele>194.4</ele>
        <time>2022-05-01T08:28:56Z</time>
      </trkpt>
      <trkpt lat="45.05082" lon="0.71286">
        <ele>194.1</ele>
        <time>2022-05-01T08:28:57Z</time>
      </trkpt>
      <trkpt lat="45.05068" lon="0.71274">
        <ele>193.6</ele>
        <time>2022-05-01T08:28:59Z</time>
      </trkpt>
      <trkpt lat="45.05055" lon="0.71263">
        <ele>193.4</ele>
        <time>2022-05-01T08:29:01Z</time>
      </trkpt>
      <trkpt lat="45.05049" lon="0.71258">
        <ele>193.4</ele>
        <time>2022-05-01T08:29:02Z</time>
      </trkpt>
      <trkpt lat="45.05044" lon="0.71253">
        <ele>193.5</ele>
        <time>2022-05-01T08:29:03Z</time>
      </trkpt>
      <trkpt lat="45.05035" lon="0.71248">
        <ele>193.6</ele>
        <time>2022-05-01T08:29:05Z</time>
      </trkpt>
      <trkpt lat="45.05034" lon="0.71231">
        <ele>192.9</ele>
        <time>2022-05-01T08:29:07Z</time>
      </trkpt>
      <trkpt lat="45.05037" lon="0.71224">
        <ele>192.5</ele>
        <time>2022-05-01T08:29:08Z</time>
      </trkpt>
      <trkpt lat="45.0504" lon="0.71217">
        <ele>192</ele>
        <time>2022-05-01T08:29:09Z</time>
      </trkpt>
      <trkpt lat="45.0505" lon="0.71202">
        <ele>191</ele>
        <time>2022-05-01T08:29:11Z</time>
      </trkpt>
      <trkpt lat="45.05055" lon="0.71194">
        <ele>190.5</ele>
        <time>2022-05-01T08:29:12Z</time>
      </trkpt>
      <trkpt lat="45.05059" lon="0.71186">
        <ele>190</ele>
        <time>2022-05-01T08:29:13Z</time>
      </trkpt>
      <trkpt lat="45.05068" lon="0.71168">
        <ele>188.7</ele>
        <time>2022-05-01T08:29:15Z</time>
      </trkpt>
      <trkpt lat="45.05077" lon="0.71148">
        <ele>187.5</ele>
        <time>2022-05-01T08:29:17Z</time>
      </trkpt>
      <trkpt lat="45.05087" lon="0.71131">
        <ele>186.4</ele>
        <time>2022-05-01T08:29:19Z</time>
      </trkpt>
      <trkpt lat="45.05097" lon="0.71114">
        <ele>185.3</ele>
        <time>2022-05-01T08:29:21Z</time>
      </trkpt>
      <trkpt lat="45.05109" lon="0.71097">
        <ele>184.4</ele>
        <time>2022-05-01T08:29:23Z</time>
      </trkpt>
      <trkpt lat="45.05121" lon="0.71079">
        <ele>183.4</ele>
        <time>2022-05-01T08:29:25Z</time>
      </trkpt>
      <trkpt lat="45.05132" lon="0.71061">
        <ele>182.5</ele>
        <time>2022-05-01T08:29:27Z</time>
      </trkpt>
      <trkpt lat="45.05144" lon="0.71044">
        <ele>181.6</ele>
        <time>2022-05-01T08:29:29Z</time>
      </trkpt>
      <trkpt lat="45.05155" lon="0.71026">
        <ele>180.9</ele>
        <time>2022-05-01T08:29:31Z</time>
      </trkpt>
      <trkpt lat="45.05166" lon="0.71008">
        <ele>180.4</ele>
        <time>2022-05-01T08:29:33Z</time>
      </trkpt>
      <trkpt lat="45.05177" lon="0.70991">
        <ele>179.8</ele>
        <time>2022-05-01T08:29:35Z</time>
      </trkpt>
      <trkpt lat="45.05189" lon="0.70976">
        <ele>179.2</ele>
        <time>2022-05-01T08:29:37Z</time>
      </trkpt>
      <trkpt lat="45.05201" lon="0.7096">
        <ele>178.6</ele>
        <time>2022-05-01T08:29:39Z</time>
      </trkpt>
      <trkpt lat="45.05207" lon="0.70952">
        <ele>178.4</ele>
        <time>2022-05-01T08:29:40Z</time>
      </trkpt>
      <trkpt lat="45.05213" lon="0.70944">
        <ele>178.2</ele>
        <time>2022-05-01T08:29:41Z</time>
      </trkpt>
      <trkpt lat="45.05224" lon="0.7093">
        <ele>178</ele>
        <time>2022-05-01T08:29:43Z</time>
      </trkpt>
      <trkpt lat="45.05236" lon="0.70915">
        <ele>177.7</ele>
        <time>2022-05-01T08:29:45Z</time>
      </trkpt>
      <trkpt lat="45.05241" lon="0.70908">
        <ele>177.5</ele>
        <time>2022-05-01T08:29:46Z</time>
      </trkpt>
      <trkpt lat="45.05246" lon="0.70901">
        <ele>177.3</ele>
        <time>2022-05-01T08:29:47Z</time>
      </trkpt>
      <trkpt lat="45.05256" lon="0.70888">
        <ele>176.9</ele>
        <time>2022-05-01T08:29:49Z</time>
      </trkpt>
      <trkpt lat="45.05267" lon="0.70875">
        <ele>176.3</ele>
        <time>2022-05-01T08:29:51Z</time>
      </trkpt>
      <trkpt lat="45.05272" lon="0.70868">
        <ele>175.9</ele>
        <time>2022-05-01T08:29:52Z</time>
      </trkpt>
      <trkpt lat="45.05278" lon="0.70862">
        <ele>175.6</ele>
        <time>2022-05-01T08:29:53Z</time>
      </trkpt>
      <trkpt lat="45.05289" lon="0.70849">
        <ele>174.9</ele>
        <time>2022-05-01T08:29:55Z</time>
      </trkpt>
      <trkpt lat="45.05299" lon="0.70836">
        <ele>174.3</ele>
        <time>2022-05-01T08:29:57Z</time>
      </trkpt>
      <trkpt lat="45.05305" lon="0.7083">
        <ele>174.1</ele>
        <time>2022-05-01T08:29:58Z</time>
      </trkpt>
      <trkpt lat="45.05311" lon="0.70823">
        <ele>173.9</ele>
        <time>2022-05-01T08:29:59Z</time>
      </trkpt>
      <trkpt lat="45.05323" lon="0.70807">
        <ele>173.5</ele>
        <time>2022-05-01T08:30:01Z</time>
      </trkpt>
      <trkpt lat="45.05334" lon="0.70791">
        <ele>173</ele>
        <time>2022-05-01T08:30:03Z</time>
      </trkpt>
      <trkpt lat="45.05344" lon="0.70777">
        <ele>172.5</ele>
        <time>2022-05-01T08:30:05Z</time>
      </trkpt>
      <trkpt lat="45.05354" lon="0.70763">
        <ele>172.1</ele>
        <time>2022-05-01T08:30:07Z</time>
      </trkpt>
      <trkpt lat="45.05363" lon="0.7075">
        <ele>171.6</ele>
        <time>2022-05-01T08:30:09Z</time>
      </trkpt>
      <trkpt lat="45.05372" lon="0.70737">
        <ele>171.2</ele>
        <time>2022-05-01T08:30:11Z</time>
      </trkpt>
      <trkpt lat="45.05376" lon="0.70731">
        <ele>170.9</ele>
        <time>2022-05-01T08:30:12Z</time>
      </trkpt>
      <trkpt lat="45.05381" lon="0.70724">
        <ele>170.7</ele>
        <time>2022-05-01T08:30:13Z</time>
      </trkpt>
      <trkpt lat="45.05389" lon="0.70712">
        <ele>170.3</ele>
        <time>2022-05-01T08:30:15Z</time>
      </trkpt>
      <trkpt lat="45.05396" lon="0.70699">
        <ele>169.9</ele>
        <time>2022-05-01T08:30:17Z</time>
      </trkpt>
      <trkpt lat="45.05399" lon="0.70692">
        <ele>169.8</ele>
        <time>2022-05-01T08:30:18Z</time>
      </trkpt>
      <trkpt lat="45.05402" lon="0.70685">
        <ele>169.8</ele>
        <time>2022-05-01T08:30:19Z</time>
      </trkpt>
      <trkpt lat="45.05407" lon="0.70668">
        <ele>169.7</ele>
        <time>2022-05-01T08:30:21Z</time>
      </trkpt>
      <trkpt lat="45.05406" lon="0.70662">
        <ele>169.7</ele>
        <time>2022-05-01T08:30:22Z</time>
      </trkpt>
      <trkpt lat="45.05406" lon="0.70655">
        <ele>169.5</ele>
        <time>2022-05-01T08:30:23Z</time>
      </trkpt>
      <trkpt lat="45.05401" lon="0.70647">
        <ele>169.2</ele>
        <time>2022-05-01T08:30:25Z</time>
      </trkpt>
      <trkpt lat="45.05398" lon="0.70643">
        <ele>169</ele>
        <time>2022-05-01T08:30:26Z</time>
      </trkpt>
      <trkpt lat="45.05395" lon="0.70638">
        <ele>168.8</ele>
        <time>2022-05-01T08:30:27Z</time>
      </trkpt>
      <trkpt lat="45.0539" lon="0.70627">
        <ele>168.6</ele>
        <time>2022-05-01T08:30:29Z</time>
      </trkpt>
      <trkpt lat="45.05387" lon="0.70622">
        <ele>168.4</ele>
        <time>2022-05-01T08:30:30Z</time>
      </trkpt>
      <trkpt lat="45.05384" lon="0.70616">
        <ele>168.3</ele>
        <time>2022-05-01T08:30:31Z</time>
      </trkpt>
      <trkpt lat="45.05379" lon="0.70603">
        <ele>168.1</ele>
        <time>2022-05-01T08:30:33Z</time>
      </trkpt>
      <trkpt lat="45.05378" lon="0.70596">
        <ele>167.9</ele>
        <time>2022-05-01T08:30:34Z</time>
      </trkpt>
      <trkpt lat="45.05376" lon="0.70589">
        <ele>167.8</ele>
        <time>2022-05-01T08:30:35Z</time>
      </trkpt>
      <trkpt lat="45.05371" lon="0.70575">
        <ele>167.6</ele>
        <time>2022-05-01T08:30:37Z</time>
      </trkpt>
      <trkpt lat="45.05366" lon="0.70561">
        <ele>167.4</ele>
        <time>2022-05-01T08:30:39Z</time>
      </trkpt>
      <trkpt lat="45.05361" lon="0.70547">
        <ele>167.3</ele>
        <time>2022-05-01T08:30:41Z</time>
      </trkpt>
      <trkpt lat="45.05359" lon="0.7054">
        <ele>167.2</ele>
        <time>2022-05-01T08:30:42Z</time>
      </trkpt>
      <trkpt lat="45.05356" lon="0.70533">
        <ele>167.2</ele>
        <time>2022-05-01T08:30:43Z</time>
      </trkpt>
      <trkpt lat="45.05352" lon="0.70519">
        <ele>167</ele>
        <time>2022-05-01T08:30:45Z</time>
      </trkpt>
      <trkpt lat="45.05349" lon="0.70512">
        <ele>167</ele>
        <time>2022-05-01T08:30:47Z</time>
      </trkpt>
      <trkpt lat="45.05345" lon="0.70499">
        <ele>166.9</ele>
        <time>2022-05-01T08:30:48Z</time>
      </trkpt>
      <trkpt lat="45.05342" lon="0.70493">
        <ele>166.8</ele>
        <time>2022-05-01T08:30:49Z</time>
      </trkpt>
      <trkpt lat="45.05338" lon="0.7048">
        <ele>166.7</ele>
        <time>2022-05-01T08:30:51Z</time>
      </trkpt>
      <trkpt lat="45.05335" lon="0.70473">
        <ele>166.7</ele>
        <time>2022-05-01T08:30:52Z</time>
      </trkpt>
      <trkpt lat="45.05332" lon="0.70467">
        <ele>166.7</ele>
        <time>2022-05-01T08:30:53Z</time>
      </trkpt>
      <trkpt lat="45.05323" lon="0.70458">
        <ele>166.7</ele>
        <time>2022-05-01T08:30:55Z</time>
      </trkpt>
      <trkpt lat="45.05319" lon="0.70454">
        <ele>166.7</ele>
        <time>2022-05-01T08:30:56Z</time>
      </trkpt>
      <trkpt lat="45.05315" lon="0.7045">
        <ele>166.7</ele>
        <time>2022-05-01T08:30:57Z</time>
      </trkpt>
      <trkpt lat="45.05312" lon="0.70447">
        <ele>166.7</ele>
        <time>2022-05-01T08:30:58Z</time>
      </trkpt>
      <trkpt lat="45.05308" lon="0.70442">
        <ele>166.7</ele>
        <time>2022-05-01T08:30:59Z</time>
      </trkpt>
      <trkpt lat="45.05298" lon="0.70435">
        <ele>166.8</ele>
        <time>2022-05-01T08:31:01Z</time>
      </trkpt>
      <trkpt lat="45.05289" lon="0.70428">
        <ele>166.9</ele>
        <time>2022-05-01T08:31:03Z</time>
      </trkpt>
      <trkpt lat="45.05285" lon="0.70425">
        <ele>166.9</ele>
        <time>2022-05-01T08:31:04Z</time>
      </trkpt>
      <trkpt lat="45.0528" lon="0.70422">
        <ele>166.8</ele>
        <time>2022-05-01T08:31:05Z</time>
      </trkpt>
      <trkpt lat="45.05271" lon="0.70415">
        <ele>166.6</ele>
        <time>2022-05-01T08:31:07Z</time>
      </trkpt>
      <trkpt lat="45.05261" lon="0.70408">
        <ele>166.4</ele>
        <time>2022-05-01T08:31:09Z</time>
      </trkpt>
      <trkpt lat="45.05256" lon="0.70404">
        <ele>166.3</ele>
        <time>2022-05-01T08:31:10Z</time>
      </trkpt>
      <trkpt lat="45.05249" lon="0.70399">
        <ele>166.2</ele>
        <time>2022-05-01T08:31:11Z</time>
      </trkpt>
      <trkpt lat="45.05242" lon="0.70394">
        <ele>166.1</ele>
        <time>2022-05-01T08:31:13Z</time>
      </trkpt>
      <trkpt lat="45.0524" lon="0.70392">
        <ele>166.1</ele>
        <time>2022-05-01T08:31:14Z</time>
      </trkpt>
      <trkpt lat="45.05238" lon="0.7039">
        <ele>166.1</ele>
        <time>2022-05-01T08:31:15Z</time>
      </trkpt>
      <trkpt lat="45.05235" lon="0.70386">
        <ele>166.1</ele>
        <time>2022-05-01T08:31:17Z</time>
      </trkpt>
      <trkpt lat="45.05234" lon="0.70381">
        <ele>166.1</ele>
        <time>2022-05-01T08:31:18Z</time>
      </trkpt>
      <trkpt lat="45.05234" lon="0.70379">
        <ele>166.1</ele>
        <time>2022-05-01T08:31:19Z</time>
      </trkpt>
      <trkpt lat="45.05234" lon="0.70383">
        <ele>166.1</ele>
        <time>2022-05-01T08:31:21Z</time>
      </trkpt>
      <trkpt lat="45.05234" lon="0.70383">
        <ele>166.1</ele>
        <time>2022-05-01T08:31:22Z</time>
      </trkpt>
      <trkpt lat="45.05237" lon="0.7036">
        <ele>166</ele>
        <time>2022-05-01T08:31:43Z</time>
      </trkpt>
      <trkpt lat="45.05238" lon="0.70357">
        <ele>166</ele>
        <time>2022-05-01T08:31:44Z</time>
      </trkpt>
      <trkpt lat="45.05239" lon="0.70352">
        <ele>166</ele>
        <time>2022-05-01T08:31:45Z</time>
      </trkpt>
      <trkpt lat="45.05241" lon="0.70345">
        <ele>166</ele>
        <time>2022-05-01T08:31:47Z</time>
      </trkpt>
      <trkpt lat="45.05242" lon="0.70341">
        <ele>166</ele>
        <time>2022-05-01T08:31:48Z</time>
      </trkpt>
      <trkpt lat="45.05243" lon="0.70337">
        <ele>166.1</ele>
        <time>2022-05-01T08:31:49Z</time>
      </trkpt>
      <trkpt lat="45.05245" lon="0.7033">
        <ele>166.2</ele>
        <time>2022-05-01T08:31:51Z</time>
      </trkpt>
      <trkpt lat="45.05247" lon="0.70323">
        <ele>166.3</ele>
        <time>2022-05-01T08:31:53Z</time>
      </trkpt>
      <trkpt lat="45.05248" lon="0.7032">
        <ele>166.4</ele>
        <time>2022-05-01T08:31:54Z</time>
      </trkpt>
      <trkpt lat="45.05249" lon="0.70317">
        <ele>166.5</ele>
        <time>2022-05-01T08:31:55Z</time>
      </trkpt>
      <trkpt lat="45.05251" lon="0.70309">
        <ele>166.6</ele>
        <time>2022-05-01T08:31:57Z</time>
      </trkpt>
      <trkpt lat="45.05255" lon="0.70301">
        <ele>166.9</ele>
        <time>2022-05-01T08:31:59Z</time>
      </trkpt>
      <trkpt lat="45.05257" lon="0.70296">
        <ele>167.1</ele>
        <time>2022-05-01T08:32:01Z</time>
      </trkpt>
      <trkpt lat="45.05259" lon="0.70291">
        <ele>167.3</ele>
        <time>2022-05-01T08:32:03Z</time>
      </trkpt>
      <trkpt lat="45.05261" lon="0.70287">
        <ele>167.6</ele>
        <time>2022-05-01T08:32:05Z</time>
      </trkpt>
      <trkpt lat="45.0527" lon="0.70292">
        <ele>168.2</ele>
        <time>2022-05-01T08:32:07Z</time>
      </trkpt>
      <trkpt lat="45.05273" lon="0.70293">
        <ele>168.3</ele>
        <time>2022-05-01T08:32:09Z</time>
      </trkpt>
      <trkpt lat="45.05277" lon="0.70294">
        <ele>168.3</ele>
        <time>2022-05-01T08:32:11Z</time>
      </trkpt>
      <trkpt lat="45.05278" lon="0.70295">
        <ele>168.4</ele>
        <time>2022-05-01T08:32:12Z</time>
      </trkpt>
      <trkpt lat="45.05279" lon="0.70295">
        <ele>169.3</ele>
        <time>2022-05-01T08:32:13Z</time>
      </trkpt>
      <trkpt lat="45.05283" lon="0.70296">
        <ele>169.3</ele>
        <time>2022-05-01T08:32:15Z</time>
      </trkpt>
      <trkpt lat="45.05284" lon="0.70297">
        <ele>169.4</ele>
        <time>2022-05-01T08:32:16Z</time>
      </trkpt>
      <trkpt lat="45.05285" lon="0.70298">
        <ele>169.4</ele>
        <time>2022-05-01T08:32:17Z</time>
      </trkpt>
      <trkpt lat="45.05286" lon="0.703">
        <ele>169.5</ele>
        <time>2022-05-01T08:32:19Z</time>
      </trkpt>
      <trkpt lat="45.05288" lon="0.703">
        <ele>169.5</ele>
        <time>2022-05-01T08:32:21Z</time>
      </trkpt>
      <trkpt lat="45.0529" lon="0.70302">
        <ele>169.6</ele>
        <time>2022-05-01T08:32:22Z</time>
      </trkpt>
      <trkpt lat="45.05291" lon="0.70304">
        <ele>169.7</ele>
        <time>2022-05-01T08:32:23Z</time>
      </trkpt>
      <trkpt lat="45.05292" lon="0.70307">
        <ele>170.4</ele>
        <time>2022-05-01T08:32:25Z</time>
      </trkpt>
      <trkpt lat="45.05293" lon="0.7031">
        <ele>170.5</ele>
        <time>2022-05-01T08:32:27Z</time>
      </trkpt>
      <trkpt lat="45.05297" lon="0.70314">
        <ele>170.5</ele>
        <time>2022-05-01T08:32:29Z</time>
      </trkpt>
      <trkpt lat="45.053" lon="0.70317">
        <ele>170.5</ele>
        <time>2022-05-01T08:32:31Z</time>
      </trkpt>
      <trkpt lat="45.05303" lon="0.70318">
        <ele>170.6</ele>
        <time>2022-05-01T08:32:32Z</time>
      </trkpt>
      <trkpt lat="45.05304" lon="0.70319">
        <ele>171.9</ele>
        <time>2022-05-01T08:32:33Z</time>
      </trkpt>
      <trkpt lat="45.05311" lon="0.7032">
        <ele>172</ele>
        <time>2022-05-01T08:32:35Z</time>
      </trkpt>
      <trkpt lat="45.05317" lon="0.70322">
        <ele>173.4</ele>
        <time>2022-05-01T08:32:37Z</time>
      </trkpt>
      <trkpt lat="45.05321" lon="0.70323">
        <ele>173.4</ele>
        <time>2022-05-01T08:32:38Z</time>
      </trkpt>
      <trkpt lat="45.05324" lon="0.70324">
        <ele>173.5</ele>
        <time>2022-05-01T08:32:39Z</time>
      </trkpt>
      <trkpt lat="45.05329" lon="0.70328">
        <ele>174.9</ele>
        <time>2022-05-01T08:32:41Z</time>
      </trkpt>
      <trkpt lat="45.05334" lon="0.70331">
        <ele>174.9</ele>
        <time>2022-05-01T08:32:43Z</time>
      </trkpt>
      <trkpt lat="45.05339" lon="0.70336">
        <ele>175</ele>
        <time>2022-05-01T08:32:45Z</time>
      </trkpt>
      <trkpt lat="45.05344" lon="0.70339">
        <ele>176.5</ele>
        <time>2022-05-01T08:32:47Z</time>
      </trkpt>
      <trkpt lat="45.05345" lon="0.70341">
        <ele>176.6</ele>
        <time>2022-05-01T08:32:48Z</time>
      </trkpt>
      <trkpt lat="45.05347" lon="0.70343">
        <ele>176.6</ele>
        <time>2022-05-01T08:32:49Z</time>
      </trkpt>
      <trkpt lat="45.0535" lon="0.70345">
        <ele>176.7</ele>
        <time>2022-05-01T08:32:50Z</time>
      </trkpt>
      <trkpt lat="45.05352" lon="0.70347">
        <ele>178.7</ele>
        <time>2022-05-01T08:32:51Z</time>
      </trkpt>
      <trkpt lat="45.05354" lon="0.70348">
        <ele>178.8</ele>
        <time>2022-05-01T08:32:52Z</time>
      </trkpt>
      <trkpt lat="45.05358" lon="0.70349">
        <ele>178.9</ele>
        <time>2022-05-01T08:32:53Z</time>
      </trkpt>
      <trkpt lat="45.05359" lon="0.70352">
        <ele>178.9</ele>
        <time>2022-05-01T08:32:54Z</time>
      </trkpt>
      <trkpt lat="45.05361" lon="0.70355">
        <ele>179</ele>
        <time>2022-05-01T08:32:55Z</time>
      </trkpt>
      <trkpt lat="45.05362" lon="0.70361">
        <ele>179.1</ele>
        <time>2022-05-01T08:32:57Z</time>
      </trkpt>
      <trkpt lat="45.05365" lon="0.70363">
        <ele>181.5</ele>
        <time>2022-05-01T08:32:58Z</time>
      </trkpt>
      <trkpt lat="45.05368" lon="0.70365">
        <ele>181.4</ele>
        <time>2022-05-01T08:32:59Z</time>
      </trkpt>
      <trkpt lat="45.05369" lon="0.70366">
        <ele>181.5</ele>
        <time>2022-05-01T08:33:00Z</time>
      </trkpt>
      <trkpt lat="45.0537" lon="0.70368">
        <ele>181.6</ele>
        <time>2022-05-01T08:33:01Z</time>
      </trkpt>
      <trkpt lat="45.05372" lon="0.70369">
        <ele>181.6</ele>
        <time>2022-05-01T08:33:02Z</time>
      </trkpt>
      <trkpt lat="45.05373" lon="0.70371">
        <ele>181.7</ele>
        <time>2022-05-01T08:33:03Z</time>
      </trkpt>
      <trkpt lat="45.05374" lon="0.70372">
        <ele>181.7</ele>
        <time>2022-05-01T08:33:04Z</time>
      </trkpt>
      <trkpt lat="45.05375" lon="0.70373">
        <ele>181.8</ele>
        <time>2022-05-01T08:33:05Z</time>
      </trkpt>
      <trkpt lat="45.05376" lon="0.70374">
        <ele>183.6</ele>
        <time>2022-05-01T08:33:06Z</time>
      </trkpt>
      <trkpt lat="45.05378" lon="0.70375">
        <ele>183.6</ele>
        <time>2022-05-01T08:33:07Z</time>
      </trkpt>
      <trkpt lat="45.05381" lon="0.70378">
        <ele>183.7</ele>
        <time>2022-05-01T08:33:09Z</time>
      </trkpt>
      <trkpt lat="45.05382" lon="0.70379">
        <ele>183.7</ele>
        <time>2022-05-01T08:33:10Z</time>
      </trkpt>
      <trkpt lat="45.05382" lon="0.7038">
        <ele>183.8</ele>
        <time>2022-05-01T08:33:11Z</time>
      </trkpt>
      <trkpt lat="45.05385" lon="0.70382">
        <ele>183.7</ele>
        <time>2022-05-01T08:33:13Z</time>
      </trkpt>
      <trkpt lat="45.05386" lon="0.70384">
        <ele>183.8</ele>
        <time>2022-05-01T08:33:14Z</time>
      </trkpt>
      <trkpt lat="45.05387" lon="0.70385">
        <ele>183.9</ele>
        <time>2022-05-01T08:33:15Z</time>
      </trkpt>
      <trkpt lat="45.05389" lon="0.70388">
        <ele>185.9</ele>
        <time>2022-05-01T08:33:17Z</time>
      </trkpt>
      <trkpt lat="45.0539" lon="0.70389">
        <ele>185.9</ele>
        <time>2022-05-01T08:33:18Z</time>
      </trkpt>
      <trkpt lat="45.05391" lon="0.70391">
        <ele>186</ele>
        <time>2022-05-01T08:33:19Z</time>
      </trkpt>
      <trkpt lat="45.05393" lon="0.70393">
        <ele>186</ele>
        <time>2022-05-01T08:33:21Z</time>
      </trkpt>
      <trkpt lat="45.05396" lon="0.70394">
        <ele>186.1</ele>
        <time>2022-05-01T08:33:23Z</time>
      </trkpt>
      <trkpt lat="45.05398" lon="0.70395">
        <ele>186.2</ele>
        <time>2022-05-01T08:33:25Z</time>
      </trkpt>
      <trkpt lat="45.05402" lon="0.70397">
        <ele>188.3</ele>
        <time>2022-05-01T08:33:27Z</time>
      </trkpt>
      <trkpt lat="45.05404" lon="0.70398">
        <ele>188.6</ele>
        <time>2022-05-01T08:33:29Z</time>
      </trkpt>
      <trkpt lat="45.05407" lon="0.704">
        <ele>188.6</ele>
        <time>2022-05-01T08:33:31Z</time>
      </trkpt>
      <trkpt lat="45.0541" lon="0.70403">
        <ele>188.7</ele>
        <time>2022-05-01T08:33:33Z</time>
      </trkpt>
      <trkpt lat="45.05411" lon="0.70404">
        <ele>188.7</ele>
        <time>2022-05-01T08:33:34Z</time>
      </trkpt>
      <trkpt lat="45.05412" lon="0.70406">
        <ele>191.3</ele>
        <time>2022-05-01T08:33:35Z</time>
      </trkpt>
      <trkpt lat="45.05414" lon="0.70406">
        <ele>191.4</ele>
        <time>2022-05-01T08:33:36Z</time>
      </trkpt>
      <trkpt lat="45.05415" lon="0.70407">
        <ele>191.4</ele>
        <time>2022-05-01T08:33:37Z</time>
      </trkpt>
      <trkpt lat="45.05418" lon="0.70409">
        <ele>191.5</ele>
        <time>2022-05-01T08:33:39Z</time>
      </trkpt>
      <trkpt lat="45.05419" lon="0.70411">
        <ele>191.6</ele>
        <time>2022-05-01T08:33:40Z</time>
      </trkpt>
      <trkpt lat="45.0542" lon="0.70412">
        <ele>191.6</ele>
        <time>2022-05-01T08:33:41Z</time>
      </trkpt>
      <trkpt lat="45.05421" lon="0.70413">
        <ele>191.7</ele>
        <time>2022-05-01T08:33:42Z</time>
      </trkpt>
      <trkpt lat="45.05423" lon="0.70414">
        <ele>191.7</ele>
        <time>2022-05-01T08:33:43Z</time>
      </trkpt>
      <trkpt lat="45.05425" lon="0.70417">
        <ele>193.8</ele>
        <time>2022-05-01T08:33:45Z</time>
      </trkpt>
      <trkpt lat="45.05428" lon="0.70419">
        <ele>193.8</ele>
        <time>2022-05-01T08:33:47Z</time>
      </trkpt>
      <trkpt lat="45.0543" lon="0.7042">
        <ele>193.9</ele>
        <time>2022-05-01T08:33:48Z</time>
      </trkpt>
      <trkpt lat="45.05432" lon="0.7042">
        <ele>194</ele>
        <time>2022-05-01T08:33:49Z</time>
      </trkpt>
      <trkpt lat="45.05436" lon="0.70421">
        <ele>194</ele>
        <time>2022-05-01T08:33:51Z</time>
      </trkpt>
      <trkpt lat="45.0544" lon="0.70422">
        <ele>195.5</ele>
        <time>2022-05-01T08:33:53Z</time>
      </trkpt>
      <trkpt lat="45.05443" lon="0.70422">
        <ele>195.6</ele>
        <time>2022-05-01T08:33:54Z</time>
      </trkpt>
      <trkpt lat="45.05445" lon="0.70423">
        <ele>195.6</ele>
        <time>2022-05-01T08:33:55Z</time>
      </trkpt>
      <trkpt lat="45.05449" lon="0.70423">
        <ele>196.7</ele>
        <time>2022-05-01T08:33:57Z</time>
      </trkpt>
      <trkpt lat="45.05452" lon="0.70422">
        <ele>196.8</ele>
        <time>2022-05-01T08:33:59Z</time>
      </trkpt>
      <trkpt lat="45.05456" lon="0.70422">
        <ele>196.8</ele>
        <time>2022-05-01T08:34:01Z</time>
      </trkpt>
      <trkpt lat="45.05458" lon="0.70421">
        <ele>196.9</ele>
        <time>2022-05-01T08:34:03Z</time>
      </trkpt>
      <trkpt lat="45.05462" lon="0.70418">
        <ele>197.7</ele>
        <time>2022-05-01T08:34:05Z</time>
      </trkpt>
      <trkpt lat="45.05464" lon="0.70417">
        <ele>197.7</ele>
        <time>2022-05-01T08:34:07Z</time>
      </trkpt>
      <trkpt lat="45.05466" lon="0.70416">
        <ele>197.8</ele>
        <time>2022-05-01T08:34:08Z</time>
      </trkpt>
      <trkpt lat="45.05467" lon="0.70415">
        <ele>197.7</ele>
        <time>2022-05-01T08:34:09Z</time>
      </trkpt>
      <trkpt lat="45.05471" lon="0.70414">
        <ele>197.8</ele>
        <time>2022-05-01T08:34:11Z</time>
      </trkpt>
      <trkpt lat="45.05474" lon="0.70412">
        <ele>198.4</ele>
        <time>2022-05-01T08:34:13Z</time>
      </trkpt>
      <trkpt lat="45.05477" lon="0.7041">
        <ele>198.5</ele>
        <time>2022-05-01T08:34:15Z</time>
      </trkpt>
      <trkpt lat="45.05481" lon="0.70408">
        <ele>198.6</ele>
        <time>2022-05-01T08:34:17Z</time>
      </trkpt>
      <trkpt lat="45.05485" lon="0.70407">
        <ele>198.8</ele>
        <time>2022-05-01T08:34:19Z</time>
      </trkpt>
      <trkpt lat="45.0549" lon="0.70405">
        <ele>198.9</ele>
        <time>2022-05-01T08:34:21Z</time>
      </trkpt>
      <trkpt lat="45.05494" lon="0.70402">
        <ele>198.9</ele>
        <time>2022-05-01T08:34:23Z</time>
      </trkpt>
      <trkpt lat="45.05498" lon="0.704">
        <ele>199</ele>
        <time>2022-05-01T08:34:25Z</time>
      </trkpt>
      <trkpt lat="45.05501" lon="0.70398">
        <ele>198.6</ele>
        <time>2022-05-01T08:34:27Z</time>
      </trkpt>
      <trkpt lat="45.05506" lon="0.70396">
        <ele>198.6</ele>
        <time>2022-05-01T08:34:29Z</time>
      </trkpt>
      <trkpt lat="45.0551" lon="0.70393">
        <ele>198.6</ele>
        <time>2022-05-01T08:34:31Z</time>
      </trkpt>
      <trkpt lat="45.05515" lon="0.70393">
        <ele>198.7</ele>
        <time>2022-05-01T08:34:33Z</time>
      </trkpt>
      <trkpt lat="45.05517" lon="0.70393">
        <ele>198.7</ele>
        <time>2022-05-01T08:34:34Z</time>
      </trkpt>
      <trkpt lat="45.05519" lon="0.70393">
        <ele>198.8</ele>
        <time>2022-05-01T08:34:35Z</time>
      </trkpt>
      <trkpt lat="45.05524" lon="0.70393">
        <ele>198.8</ele>
        <time>2022-05-01T08:34:37Z</time>
      </trkpt>
      <trkpt lat="45.05528" lon="0.70393">
        <ele>198.9</ele>
        <time>2022-05-01T08:34:39Z</time>
      </trkpt>
      <trkpt lat="45.0553" lon="0.70393">
        <ele>198.9</ele>
        <time>2022-05-01T08:34:40Z</time>
      </trkpt>
      <trkpt lat="45.05532" lon="0.70393">
        <ele>199</ele>
        <time>2022-05-01T08:34:41Z</time>
      </trkpt>
      <trkpt lat="45.05536" lon="0.70392">
        <ele>199</ele>
        <time>2022-05-01T08:34:43Z</time>
      </trkpt>
      <trkpt lat="45.05539" lon="0.70392">
        <ele>199.1</ele>
        <time>2022-05-01T08:34:45Z</time>
      </trkpt>
      <trkpt lat="45.05543" lon="0.70391">
        <ele>199.2</ele>
        <time>2022-05-01T08:34:47Z</time>
      </trkpt>
      <trkpt lat="45.05546" lon="0.70389">
        <ele>199.2</ele>
        <time>2022-05-01T08:34:49Z</time>
      </trkpt>
      <trkpt lat="45.0555" lon="0.70388">
        <ele>199.3</ele>
        <time>2022-05-01T08:34:51Z</time>
      </trkpt>
      <trkpt lat="45.05555" lon="0.70385">
        <ele>199.3</ele>
        <time>2022-05-01T08:34:53Z</time>
      </trkpt>
      <trkpt lat="45.05559" lon="0.70382">
        <ele>199.3</ele>
        <time>2022-05-01T08:34:55Z</time>
      </trkpt>
      <trkpt lat="45.05564" lon="0.70383">
        <ele>199.3</ele>
        <time>2022-05-01T08:34:57Z</time>
      </trkpt>
      <trkpt lat="45.05566" lon="0.70384">
        <ele>199.4</ele>
        <time>2022-05-01T08:34:58Z</time>
      </trkpt>
      <trkpt lat="45.05568" lon="0.70386">
        <ele>199.5</ele>
        <time>2022-05-01T08:34:59Z</time>
      </trkpt>
      <trkpt lat="45.05573" lon="0.70392">
        <ele>199.3</ele>
        <time>2022-05-01T08:35:01Z</time>
      </trkpt>
      <trkpt lat="45.05576" lon="0.70396">
        <ele>199.4</ele>
        <time>2022-05-01T08:35:02Z</time>
      </trkpt>
      <trkpt lat="45.0558" lon="0.704">
        <ele>199.8</ele>
        <time>2022-05-01T08:35:03Z</time>
      </trkpt>
      <trkpt lat="45.05589" lon="0.7041">
        <ele>199.4</ele>
        <time>2022-05-01T08:35:05Z</time>
      </trkpt>
      <trkpt lat="45.05595" lon="0.70414">
        <ele>198.8</ele>
        <time>2022-05-01T08:35:06Z</time>
      </trkpt>
      <trkpt lat="45.056" lon="0.70418">
        <ele>199.3</ele>
        <time>2022-05-01T08:35:07Z</time>
      </trkpt>
      <trkpt lat="45.05612" lon="0.70427">
        <ele>198.6</ele>
        <time>2022-05-01T08:35:09Z</time>
      </trkpt>
      <trkpt lat="45.05618" lon="0.70433">
        <ele>199</ele>
        <time>2022-05-01T08:35:10Z</time>
      </trkpt>
      <trkpt lat="45.05623" lon="0.7044">
        <ele>198.2</ele>
        <time>2022-05-01T08:35:11Z</time>
      </trkpt>
      <trkpt lat="45.05627" lon="0.70449">
        <ele>198.3</ele>
        <time>2022-05-01T08:35:12Z</time>
      </trkpt>
      <trkpt lat="45.0563" lon="0.70458">
        <ele>198.5</ele>
        <time>2022-05-01T08:35:13Z</time>
      </trkpt>
      <trkpt lat="45.05637" lon="0.70475">
        <ele>198.1</ele>
        <time>2022-05-01T08:35:15Z</time>
      </trkpt>
      <trkpt lat="45.0565" lon="0.70497">
        <ele>198.1</ele>
        <time>2022-05-01T08:35:17Z</time>
      </trkpt>
      <trkpt lat="45.05653" lon="0.70499">
        <ele>198.3</ele>
        <time>2022-05-01T08:35:18Z</time>
      </trkpt>
      <trkpt lat="45.05655" lon="0.70501">
        <ele>198.5</ele>
        <time>2022-05-01T08:35:19Z</time>
      </trkpt>
      <trkpt lat="45.05662" lon="0.70506">
        <ele>199</ele>
        <time>2022-05-01T08:35:20Z</time>
      </trkpt>
      <trkpt lat="45.05667" lon="0.70511">
        <ele>199.5</ele>
        <time>2022-05-01T08:35:21Z</time>
      </trkpt>
      <trkpt lat="45.05673" lon="0.70514">
        <ele>199.9</ele>
        <time>2022-05-01T08:35:22Z</time>
      </trkpt>
      <trkpt lat="45.05677" lon="0.70517">
        <ele>200.3</ele>
        <time>2022-05-01T08:35:23Z</time>
      </trkpt>
      <trkpt lat="45.05682" lon="0.7052">
        <ele>200.7</ele>
        <time>2022-05-01T08:35:25Z</time>
      </trkpt>
      <trkpt lat="45.05685" lon="0.70522">
        <ele>200.9</ele>
        <time>2022-05-01T08:35:27Z</time>
      </trkpt>
      <trkpt lat="45.05689" lon="0.70524">
        <ele>201.2</ele>
        <time>2022-05-01T08:35:29Z</time>
      </trkpt>
      <trkpt lat="45.05691" lon="0.70524">
        <ele>201.3</ele>
        <time>2022-05-01T08:35:30Z</time>
      </trkpt>
      <trkpt lat="45.05692" lon="0.70525">
        <ele>201.4</ele>
        <time>2022-05-01T08:35:31Z</time>
      </trkpt>
      <trkpt lat="45.05695" lon="0.70526">
        <ele>201.7</ele>
        <time>2022-05-01T08:35:33Z</time>
      </trkpt>
      <trkpt lat="45.05699" lon="0.70527">
        <ele>201.9</ele>
        <time>2022-05-01T08:35:35Z</time>
      </trkpt>
      <trkpt lat="45.057" lon="0.70528">
        <ele>202</ele>
        <time>2022-05-01T08:35:36Z</time>
      </trkpt>
      <trkpt lat="45.05701" lon="0.70529">
        <ele>202.1</ele>
        <time>2022-05-01T08:35:37Z</time>
      </trkpt>
      <trkpt lat="45.05704" lon="0.70531">
        <ele>202.3</ele>
        <time>2022-05-01T08:35:39Z</time>
      </trkpt>
      <trkpt lat="45.05707" lon="0.70532">
        <ele>202.5</ele>
        <time>2022-05-01T08:35:41Z</time>
      </trkpt>
      <trkpt lat="45.05709" lon="0.70534">
        <ele>202.7</ele>
        <time>2022-05-01T08:35:43Z</time>
      </trkpt>
      <trkpt lat="45.05711" lon="0.70536">
        <ele>202.9</ele>
        <time>2022-05-01T08:35:45Z</time>
      </trkpt>
      <trkpt lat="45.05713" lon="0.70537">
        <ele>203.1</ele>
        <time>2022-05-01T08:35:47Z</time>
      </trkpt>
      <trkpt lat="45.05716" lon="0.70538">
        <ele>203.3</ele>
        <time>2022-05-01T08:35:49Z</time>
      </trkpt>
      <trkpt lat="45.05717" lon="0.70539">
        <ele>203.4</ele>
        <time>2022-05-01T08:35:50Z</time>
      </trkpt>
      <trkpt lat="45.05719" lon="0.70539">
        <ele>203.5</ele>
        <time>2022-05-01T08:35:51Z</time>
      </trkpt>
      <trkpt lat="45.05721" lon="0.7054">
        <ele>203.7</ele>
        <time>2022-05-01T08:35:53Z</time>
      </trkpt>
      <trkpt lat="45.05724" lon="0.70541">
        <ele>203.8</ele>
        <time>2022-05-01T08:35:55Z</time>
      </trkpt>
      <trkpt lat="45.05726" lon="0.70542">
        <ele>204</ele>
        <time>2022-05-01T08:35:57Z</time>
      </trkpt>
      <trkpt lat="45.05727" lon="0.70542">
        <ele>204.1</ele>
        <time>2022-05-01T08:35:58Z</time>
      </trkpt>
      <trkpt lat="45.05729" lon="0.70543">
        <ele>204.2</ele>
        <time>2022-05-01T08:35:59Z</time>
      </trkpt>
      <trkpt lat="45.0573" lon="0.70543">
        <ele>204.3</ele>
        <time>2022-05-01T08:36:00Z</time>
      </trkpt>
      <trkpt lat="45.05731" lon="0.70544">
        <ele>204.4</ele>
        <time>2022-05-01T08:36:01Z</time>
      </trkpt>
      <trkpt lat="45.05734" lon="0.70544">
        <ele>204.6</ele>
        <time>2022-05-01T08:36:03Z</time>
      </trkpt>
      <trkpt lat="45.05735" lon="0.70545">
        <ele>204.7</ele>
        <time>2022-05-01T08:36:04Z</time>
      </trkpt>
      <trkpt lat="45.05736" lon="0.70546">
        <ele>204.8</ele>
        <time>2022-05-01T08:36:05Z</time>
      </trkpt>
      <trkpt lat="45.05738" lon="0.70547">
        <ele>204.9</ele>
        <time>2022-05-01T08:36:06Z</time>
      </trkpt>
      <trkpt lat="45.05739" lon="0.70547">
        <ele>205</ele>
        <time>2022-05-01T08:36:07Z</time>
      </trkpt>
      <trkpt lat="45.05741" lon="0.70549">
        <ele>205.2</ele>
        <time>2022-05-01T08:36:09Z</time>
      </trkpt>
      <trkpt lat="45.05744" lon="0.7055">
        <ele>205.4</ele>
        <time>2022-05-01T08:36:11Z</time>
      </trkpt>
      <trkpt lat="45.05745" lon="0.70551">
        <ele>205.5</ele>
        <time>2022-05-01T08:36:12Z</time>
      </trkpt>
      <trkpt lat="45.05747" lon="0.70552">
        <ele>205.6</ele>
        <time>2022-05-01T08:36:13Z</time>
      </trkpt>
      <trkpt lat="45.05749" lon="0.70553">
        <ele>205.8</ele>
        <time>2022-05-01T08:36:15Z</time>
      </trkpt>
      <trkpt lat="45.05753" lon="0.70554">
        <ele>206</ele>
        <time>2022-05-01T08:36:17Z</time>
      </trkpt>
      <trkpt lat="45.05755" lon="0.70554">
        <ele>206.2</ele>
        <time>2022-05-01T08:36:19Z</time>
      </trkpt>
      <trkpt lat="45.05758" lon="0.70555">
        <ele>206.4</ele>
        <time>2022-05-01T08:36:21Z</time>
      </trkpt>
      <trkpt lat="45.05759" lon="0.70555">
        <ele>206.5</ele>
        <time>2022-05-01T08:36:22Z</time>
      </trkpt>
      <trkpt lat="45.05761" lon="0.70556">
        <ele>206.6</ele>
        <time>2022-05-01T08:36:23Z</time>
      </trkpt>
      <trkpt lat="45.05763" lon="0.70557">
        <ele>206.8</ele>
        <time>2022-05-01T08:36:25Z</time>
      </trkpt>
      <trkpt lat="45.05766" lon="0.70558">
        <ele>207</ele>
        <time>2022-05-01T08:36:27Z</time>
      </trkpt>
      <trkpt lat="45.05767" lon="0.70558">
        <ele>207.1</ele>
        <time>2022-05-01T08:36:28Z</time>
      </trkpt>
      <trkpt lat="45.05769" lon="0.70559">
        <ele>207.2</ele>
        <time>2022-05-01T08:36:29Z</time>
      </trkpt>
      <trkpt lat="45.05771" lon="0.7056">
        <ele>207.4</ele>
        <time>2022-05-01T08:36:31Z</time>
      </trkpt>
      <trkpt lat="45.05774" lon="0.70561">
        <ele>207.6</ele>
        <time>2022-05-01T08:36:33Z</time>
      </trkpt>
      <trkpt lat="45.05775" lon="0.70562">
        <ele>207.7</ele>
        <time>2022-05-01T08:36:34Z</time>
      </trkpt>
      <trkpt lat="45.05776" lon="0.70562">
        <ele>207.8</ele>
        <time>2022-05-01T08:36:35Z</time>
      </trkpt>
      <trkpt lat="45.05779" lon="0.70563">
        <ele>208</ele>
        <time>2022-05-01T08:36:37Z</time>
      </trkpt>
      <trkpt lat="45.05782" lon="0.70565">
        <ele>208.3</ele>
        <time>2022-05-01T08:36:39Z</time>
      </trkpt>
      <trkpt lat="45.05786" lon="0.70566">
        <ele>208.5</ele>
        <time>2022-05-01T08:36:41Z</time>
      </trkpt>
      <trkpt lat="45.05789" lon="0.70567">
        <ele>208.7</ele>
        <time>2022-05-01T08:36:43Z</time>
      </trkpt>
      <trkpt lat="45.05792" lon="0.70569">
        <ele>209</ele>
        <time>2022-05-01T08:36:45Z</time>
      </trkpt>
      <trkpt lat="45.05797" lon="0.7057">
        <ele>209.3</ele>
        <time>2022-05-01T08:36:47Z</time>
      </trkpt>
      <trkpt lat="45.05801" lon="0.70569">
        <ele>209.6</ele>
        <time>2022-05-01T08:36:49Z</time>
      </trkpt>
      <trkpt lat="45.05803" lon="0.70569">
        <ele>209.8</ele>
        <time>2022-05-01T08:36:50Z</time>
      </trkpt>
      <trkpt lat="45.05804" lon="0.70569">
        <ele>209.9</ele>
        <time>2022-05-01T08:36:51Z</time>
      </trkpt>
      <trkpt lat="45.05809" lon="0.70568">
        <ele>210.2</ele>
        <time>2022-05-01T08:36:53Z</time>
      </trkpt>
      <trkpt lat="45.05813" lon="0.70567">
        <ele>210.5</ele>
        <time>2022-05-01T08:36:55Z</time>
      </trkpt>
      <trkpt lat="45.05814" lon="0.70567">
        <ele>210.5</ele>
        <time>2022-05-01T08:36:56Z</time>
      </trkpt>
      <trkpt lat="45.05815" lon="0.70567">
        <ele>210.7</ele>
        <time>2022-05-01T08:36:57Z</time>
      </trkpt>
      <trkpt lat="45.05819" lon="0.70566">
        <ele>211</ele>
        <time>2022-05-01T08:36:59Z</time>
      </trkpt>
      <trkpt lat="45.05824" lon="0.70567">
        <ele>211.3</ele>
        <time>2022-05-01T08:37:01Z</time>
      </trkpt>
      <trkpt lat="45.05827" lon="0.70568">
        <ele>211.6</ele>
        <time>2022-05-01T08:37:03Z</time>
      </trkpt>
      <trkpt lat="45.05829" lon="0.70569">
        <ele>211.7</ele>
        <time>2022-05-01T08:37:04Z</time>
      </trkpt>
      <trkpt lat="45.0583" lon="0.7057">
        <ele>211.8</ele>
        <time>2022-05-01T08:37:05Z</time>
      </trkpt>
      <trkpt lat="45.05832" lon="0.7057">
        <ele>211.9</ele>
        <time>2022-05-01T08:37:06Z</time>
      </trkpt>
      <trkpt lat="45.05833" lon="0.70571">
        <ele>212</ele>
        <time>2022-05-01T08:37:07Z</time>
      </trkpt>
      <trkpt lat="45.05836" lon="0.70573">
        <ele>212.2</ele>
        <time>2022-05-01T08:37:09Z</time>
      </trkpt>
      <trkpt lat="45.05839" lon="0.70574">
        <ele>212.4</ele>
        <time>2022-05-01T08:37:11Z</time>
      </trkpt>
      <trkpt lat="45.05843" lon="0.70575">
        <ele>212.7</ele>
        <time>2022-05-01T08:37:13Z</time>
      </trkpt>
      <trkpt lat="45.05847" lon="0.70577">
        <ele>213</ele>
        <time>2022-05-01T08:37:15Z</time>
      </trkpt>
      <trkpt lat="45.0585" lon="0.70579">
        <ele>213.3</ele>
        <time>2022-05-01T08:37:17Z</time>
      </trkpt>
      <trkpt lat="45.05853" lon="0.7058">
        <ele>213.5</ele>
        <time>2022-05-01T08:37:18Z</time>
      </trkpt>
      <trkpt lat="45.05855" lon="0.70581">
        <ele>213.6</ele>
        <time>2022-05-01T08:37:19Z</time>
      </trkpt>
      <trkpt lat="45.05859" lon="0.70583">
        <ele>213.9</ele>
        <time>2022-05-01T08:37:21Z</time>
      </trkpt>
      <trkpt lat="45.05862" lon="0.70584">
        <ele>214.2</ele>
        <time>2022-05-01T08:37:23Z</time>
      </trkpt>
      <trkpt lat="45.05866" lon="0.70586">
        <ele>214.4</ele>
        <time>2022-05-01T08:37:25Z</time>
      </trkpt>
      <trkpt lat="45.05869" lon="0.70587">
        <ele>214.7</ele>
        <time>2022-05-01T08:37:27Z</time>
      </trkpt>
      <trkpt lat="45.0587" lon="0.70587">
        <ele>214.8</ele>
        <time>2022-05-01T08:37:28Z</time>
      </trkpt>
      <trkpt lat="45.05872" lon="0.70587">
        <ele>214.9</ele>
        <time>2022-05-01T08:37:29Z</time>
      </trkpt>
      <trkpt lat="45.05875" lon="0.70587">
        <ele>215.2</ele>
        <time>2022-05-01T08:37:31Z</time>
      </trkpt>
      <trkpt lat="45.05879" lon="0.70586">
        <ele>215.5</ele>
        <time>2022-05-01T08:37:32Z</time>
      </trkpt>
      <trkpt lat="45.05877" lon="0.70587">
        <ele>215.5</ele>
        <time>2022-05-01T08:37:33Z</time>
      </trkpt>
      <trkpt lat="45.05877" lon="0.70587">
        <ele>215.5</ele>
        <time>2022-05-01T08:37:35Z</time>
      </trkpt>
      <trkpt lat="45.05881" lon="0.70571">
        <ele>215.5</ele>
        <time>2022-05-01T08:42:14Z</time>
      </trkpt>
      <trkpt lat="45.05882" lon="0.70568">
        <ele>215.5</ele>
        <time>2022-05-01T08:42:15Z</time>
      </trkpt>
      <trkpt lat="45.05882" lon="0.70565">
        <ele>215.5</ele>
        <time>2022-05-01T08:42:16Z</time>
      </trkpt>
      <trkpt lat="45.05883" lon="0.70561">
        <ele>215.4</ele>
        <time>2022-05-01T08:42:17Z</time>
      </trkpt>
      <trkpt lat="45.05884" lon="0.70557">
        <ele>215.4</ele>
        <time>2022-05-01T08:42:18Z</time>
      </trkpt>
      <trkpt lat="45.05885" lon="0.70552">
        <ele>215.4</ele>
        <time>2022-05-01T08:42:19Z</time>
      </trkpt>
      <trkpt lat="45.05886" lon="0.70542">
        <ele>215.3</ele>
        <time>2022-05-01T08:42:21Z</time>
      </trkpt>
      <trkpt lat="45.05887" lon="0.70537">
        <ele>215.2</ele>
        <time>2022-05-01T08:42:22Z</time>
      </trkpt>
      <trkpt lat="45.05887" lon="0.70531">
        <ele>215.1</ele>
        <time>2022-05-01T08:42:23Z</time>
      </trkpt>
      <trkpt lat="45.05888" lon="0.70519">
        <ele>214.9</ele>
        <time>2022-05-01T08:42:25Z</time>
      </trkpt>
      <trkpt lat="45.0589" lon="0.70505">
        <ele>214.6</ele>
        <time>2022-05-01T08:42:27Z</time>
      </trkpt>
      <trkpt lat="45.05892" lon="0.70493">
        <ele>214.3</ele>
        <time>2022-05-01T08:42:29Z</time>
      </trkpt>
      <trkpt lat="45.05895" lon="0.70478">
        <ele>213.9</ele>
        <time>2022-05-01T08:42:31Z</time>
      </trkpt>
      <trkpt lat="45.05898" lon="0.70463">
        <ele>213.6</ele>
        <time>2022-05-01T08:42:33Z</time>
      </trkpt>
      <trkpt lat="45.05902" lon="0.70449">
        <ele>213.4</ele>
        <time>2022-05-01T08:42:35Z</time>
      </trkpt>
      <trkpt lat="45.05905" lon="0.70442">
        <ele>213.3</ele>
        <time>2022-05-01T08:42:36Z</time>
      </trkpt>
      <trkpt lat="45.05908" lon="0.70436">
        <ele>213.2</ele>
        <time>2022-05-01T08:42:37Z</time>
      </trkpt>
      <trkpt lat="45.05911" lon="0.70431">
        <ele>213.2</ele>
        <time>2022-05-01T08:42:38Z</time>
      </trkpt>
      <trkpt lat="45.05916" lon="0.70427">
        <ele>213.2</ele>
        <time>2022-05-01T08:42:39Z</time>
      </trkpt>
      <trkpt lat="45.05924" lon="0.70419">
        <ele>213.1</ele>
        <time>2022-05-01T08:42:41Z</time>
      </trkpt>
      <trkpt lat="45.0593" lon="0.7041">
        <ele>213</ele>
        <time>2022-05-01T08:42:43Z</time>
      </trkpt>
      <trkpt lat="45.05934" lon="0.70405">
        <ele>213</ele>
        <time>2022-05-01T08:42:44Z</time>
      </trkpt>
      <trkpt lat="45.05937" lon="0.704">
        <ele>212.9</ele>
        <time>2022-05-01T08:42:45Z</time>
      </trkpt>
      <trkpt lat="45.05943" lon="0.70391">
        <ele>212.8</ele>
        <time>2022-05-01T08:42:47Z</time>
      </trkpt>
      <trkpt lat="45.05948" lon="0.70381">
        <ele>212.8</ele>
        <time>2022-05-01T08:42:49Z</time>
      </trkpt>
      <trkpt lat="45.05951" lon="0.70376">
        <ele>212.7</ele>
        <time>2022-05-01T08:42:50Z</time>
      </trkpt>
      <trkpt lat="45.05952" lon="0.7037">
        <ele>212.7</ele>
        <time>2022-05-01T08:42:51Z</time>
      </trkpt>
      <trkpt lat="45.05952" lon="0.7036">
        <ele>212.6</ele>
        <time>2022-05-01T08:42:53Z</time>
      </trkpt>
      <trkpt lat="45.05952" lon="0.7035">
        <ele>212.6</ele>
        <time>2022-05-01T08:42:55Z</time>
      </trkpt>
      <trkpt lat="45.05952" lon="0.7034">
        <ele>212.5</ele>
        <time>2022-05-01T08:42:57Z</time>
      </trkpt>
      <trkpt lat="45.05953" lon="0.70328">
        <ele>212.4</ele>
        <time>2022-05-01T08:42:59Z</time>
      </trkpt>
      <trkpt lat="45.05954" lon="0.70322">
        <ele>212.4</ele>
        <time>2022-05-01T08:43:00Z</time>
      </trkpt>
      <trkpt lat="45.05955" lon="0.70316">
        <ele>212.4</ele>
        <time>2022-05-01T08:43:01Z</time>
      </trkpt>
      <trkpt lat="45.05957" lon="0.70307">
        <ele>212.3</ele>
        <time>2022-05-01T08:43:03Z</time>
      </trkpt>
      <trkpt lat="45.0596" lon="0.70298">
        <ele>212.3</ele>
        <time>2022-05-01T08:43:05Z</time>
      </trkpt>
      <trkpt lat="45.05963" lon="0.70288">
        <ele>212.2</ele>
        <time>2022-05-01T08:43:07Z</time>
      </trkpt>
      <trkpt lat="45.05966" lon="0.70278">
        <ele>212.1</ele>
        <time>2022-05-01T08:43:09Z</time>
      </trkpt>
      <trkpt lat="45.05969" lon="0.70268">
        <ele>212.1</ele>
        <time>2022-05-01T08:43:11Z</time>
      </trkpt>
      <trkpt lat="45.05972" lon="0.70258">
        <ele>212</ele>
        <time>2022-05-01T08:43:13Z</time>
      </trkpt>
      <trkpt lat="45.05974" lon="0.70246">
        <ele>211.9</ele>
        <time>2022-05-01T08:43:15Z</time>
      </trkpt>
      <trkpt lat="45.05975" lon="0.7024">
        <ele>211.9</ele>
        <time>2022-05-01T08:43:16Z</time>
      </trkpt>
      <trkpt lat="45.05977" lon="0.70234">
        <ele>211.9</ele>
        <time>2022-05-01T08:43:17Z</time>
      </trkpt>
      <trkpt lat="45.05978" lon="0.70228">
        <ele>211.8</ele>
        <time>2022-05-01T08:43:18Z</time>
      </trkpt>
      <trkpt lat="45.05978" lon="0.70222">
        <ele>211.8</ele>
        <time>2022-05-01T08:43:19Z</time>
      </trkpt>
      <trkpt lat="45.05978" lon="0.70215">
        <ele>211.7</ele>
        <time>2022-05-01T08:43:20Z</time>
      </trkpt>
      <trkpt lat="45.05977" lon="0.70209">
        <ele>211.7</ele>
        <time>2022-05-01T08:43:21Z</time>
      </trkpt>
      <trkpt lat="45.05975" lon="0.70203">
        <ele>211.7</ele>
        <time>2022-05-01T08:43:22Z</time>
      </trkpt>
      <trkpt lat="45.05973" lon="0.70198">
        <ele>211.6</ele>
        <time>2022-05-01T08:43:23Z</time>
      </trkpt>
      <trkpt lat="45.0597" lon="0.70193">
        <ele>211.6</ele>
        <time>2022-05-01T08:43:24Z</time>
      </trkpt>
      <trkpt lat="45.05968" lon="0.70187">
        <ele>211.5</ele>
        <time>2022-05-01T08:43:25Z</time>
      </trkpt>
      <trkpt lat="45.05962" lon="0.70173">
        <ele>211.5</ele>
        <time>2022-05-01T08:43:27Z</time>
      </trkpt>
      <trkpt lat="45.05958" lon="0.70159">
        <ele>211.4</ele>
        <time>2022-05-01T08:43:29Z</time>
      </trkpt>
      <trkpt lat="45.05956" lon="0.70145">
        <ele>211.3</ele>
        <time>2022-05-01T08:43:31Z</time>
      </trkpt>
      <trkpt lat="45.05951" lon="0.70133">
        <ele>211.2</ele>
        <time>2022-05-01T08:43:33Z</time>
      </trkpt>
      <trkpt lat="45.05944" lon="0.70121">
        <ele>211.1</ele>
        <time>2022-05-01T08:43:35Z</time>
      </trkpt>
      <trkpt lat="45.05938" lon="0.70117">
        <ele>211</ele>
        <time>2022-05-01T08:43:36Z</time>
      </trkpt>
      <trkpt lat="45.05932" lon="0.70114">
        <ele>211</ele>
        <time>2022-05-01T08:43:37Z</time>
      </trkpt>
      <trkpt lat="45.05926" lon="0.70111">
        <ele>210.9</ele>
        <time>2022-05-01T08:43:38Z</time>
      </trkpt>
      <trkpt lat="45.0592" lon="0.70108">
        <ele>210.9</ele>
        <time>2022-05-01T08:43:39Z</time>
      </trkpt>
      <trkpt lat="45.05905" lon="0.70102">
        <ele>210.8</ele>
        <time>2022-05-01T08:43:41Z</time>
      </trkpt>
      <trkpt lat="45.05898" lon="0.70098">
        <ele>210.7</ele>
        <time>2022-05-01T08:43:42Z</time>
      </trkpt>
      <trkpt lat="45.05891" lon="0.70094">
        <ele>210.6</ele>
        <time>2022-05-01T08:43:43Z</time>
      </trkpt>
      <trkpt lat="45.05881" lon="0.7008">
        <ele>210.5</ele>
        <time>2022-05-01T08:43:45Z</time>
      </trkpt>
      <trkpt lat="45.05872" lon="0.70066">
        <ele>210.4</ele>
        <time>2022-05-01T08:43:47Z</time>
      </trkpt>
      <trkpt lat="45.05866" lon="0.7005">
        <ele>210.3</ele>
        <time>2022-05-01T08:43:49Z</time>
      </trkpt>
      <trkpt lat="45.05864" lon="0.70035">
        <ele>210.2</ele>
        <time>2022-05-01T08:43:51Z</time>
      </trkpt>
      <trkpt lat="45.05863" lon="0.70022">
        <ele>210.1</ele>
        <time>2022-05-01T08:43:53Z</time>
      </trkpt>
      <trkpt lat="45.05862" lon="0.70009">
        <ele>210</ele>
        <time>2022-05-01T08:43:55Z</time>
      </trkpt>
      <trkpt lat="45.0586" lon="0.69994">
        <ele>209.9</ele>
        <time>2022-05-01T08:43:57Z</time>
      </trkpt>
      <trkpt lat="45.05861" lon="0.69979">
        <ele>209.9</ele>
        <time>2022-05-01T08:43:59Z</time>
      </trkpt>
      <trkpt lat="45.05863" lon="0.69972">
        <ele>209.8</ele>
        <time>2022-05-01T08:44:00Z</time>
      </trkpt>
      <trkpt lat="45.05866" lon="0.69968">
        <ele>209.8</ele>
        <time>2022-05-01T08:44:01Z</time>
      </trkpt>
      <trkpt lat="45.0587" lon="0.69964">
        <ele>209.7</ele>
        <time>2022-05-01T08:44:03Z</time>
      </trkpt>
      <trkpt lat="45.05874" lon="0.69961">
        <ele>209.7</ele>
        <time>2022-05-01T08:44:05Z</time>
      </trkpt>
      <trkpt lat="45.05875" lon="0.69963">
        <ele>209.7</ele>
        <time>2022-05-01T08:44:07Z</time>
      </trkpt>
      <trkpt lat="45.05872" lon="0.69962">
        <ele>209.7</ele>
        <time>2022-05-01T08:44:09Z</time>
      </trkpt>
      <trkpt lat="45.05867" lon="0.69967">
        <ele>209.6</ele>
        <time>2022-05-01T08:44:11Z</time>
      </trkpt>
      <trkpt lat="45.05865" lon="0.69973">
        <ele>209.6</ele>
        <time>2022-05-01T08:44:13Z</time>
      </trkpt>
      <trkpt lat="45.05866" lon="0.69977">
        <ele>209.5</ele>
        <time>2022-05-01T08:44:14Z</time>
      </trkpt>
      <trkpt lat="45.05866" lon="0.69981">
        <ele>209.5</ele>
        <time>2022-05-01T08:44:15Z</time>
      </trkpt>
      <trkpt lat="45.05878" lon="0.69978">
        <ele>210.8</ele>
        <time>2022-05-01T08:44:17Z</time>
      </trkpt>
      <trkpt lat="45.05881" lon="0.69979">
        <ele>210.8</ele>
        <time>2022-05-01T08:44:18Z</time>
      </trkpt>
      <trkpt lat="45.05883" lon="0.6998">
        <ele>210.7</ele>
        <time>2022-05-01T08:44:19Z</time>
      </trkpt>
      <trkpt lat="45.05889" lon="0.6998">
        <ele>212.3</ele>
        <time>2022-05-01T08:44:21Z</time>
      </trkpt>
      <trkpt lat="45.05895" lon="0.6998">
        <ele>212.3</ele>
        <time>2022-05-01T08:44:23Z</time>
      </trkpt>
      <trkpt lat="45.05898" lon="0.6998">
        <ele>213.6</ele>
        <time>2022-05-01T08:44:24Z</time>
      </trkpt>
      <trkpt lat="45.05901" lon="0.6998">
        <ele>213.6</ele>
        <time>2022-05-01T08:44:25Z</time>
      </trkpt>
      <trkpt lat="45.05907" lon="0.69981">
        <ele>213.6</ele>
        <time>2022-05-01T08:44:27Z</time>
      </trkpt>
      <trkpt lat="45.05911" lon="0.69982">
        <ele>214.6</ele>
        <time>2022-05-01T08:44:29Z</time>
      </trkpt>
      <trkpt lat="45.05914" lon="0.69982">
        <ele>214.6</ele>
        <time>2022-05-01T08:44:30Z</time>
      </trkpt>
      <trkpt lat="45.05916" lon="0.69982">
        <ele>214.6</ele>
        <time>2022-05-01T08:44:31Z</time>
      </trkpt>
      <trkpt lat="45.05922" lon="0.69982">
        <ele>215.4</ele>
        <time>2022-05-01T08:44:33Z</time>
      </trkpt>
      <trkpt lat="45.05924" lon="0.69983">
        <ele>215.4</ele>
        <time>2022-05-01T08:44:34Z</time>
      </trkpt>
      <trkpt lat="45.05926" lon="0.69983">
        <ele>215.3</ele>
        <time>2022-05-01T08:44:35Z</time>
      </trkpt>
      <trkpt lat="45.0593" lon="0.69983">
        <ele>215.3</ele>
        <time>2022-05-01T08:44:37Z</time>
      </trkpt>
      <trkpt lat="45.05934" lon="0.69984">
        <ele>215.9</ele>
        <time>2022-05-01T08:44:39Z</time>
      </trkpt>
      <trkpt lat="45.05938" lon="0.69984">
        <ele>215.9</ele>
        <time>2022-05-01T08:44:41Z</time>
      </trkpt>
      <trkpt lat="45.05943" lon="0.69984">
        <ele>215.9</ele>
        <time>2022-05-01T08:44:43Z</time>
      </trkpt>
      <trkpt lat="45.05944" lon="0.69985">
        <ele>215.8</ele>
        <time>2022-05-01T08:44:44Z</time>
      </trkpt>
      <trkpt lat="45.05946" lon="0.69985">
        <ele>216.5</ele>
        <time>2022-05-01T08:44:45Z</time>
      </trkpt>
      <trkpt lat="45.0595" lon="0.69985">
        <ele>216.4</ele>
        <time>2022-05-01T08:44:47Z</time>
      </trkpt>
      <trkpt lat="45.05953" lon="0.69985">
        <ele>216.4</ele>
        <time>2022-05-01T08:44:49Z</time>
      </trkpt>
      <trkpt lat="45.05956" lon="0.69985">
        <ele>216.4</ele>
        <time>2022-05-01T08:44:51Z</time>
      </trkpt>
      <trkpt lat="45.05959" lon="0.69986">
        <ele>216.8</ele>
        <time>2022-05-01T08:44:53Z</time>
      </trkpt>
      <trkpt lat="45.05962" lon="0.69987">
        <ele>217.1</ele>
        <time>2022-05-01T08:44:55Z</time>
      </trkpt>
      <trkpt lat="45.05964" lon="0.69988">
        <ele>217.1</ele>
        <time>2022-05-01T08:44:56Z</time>
      </trkpt>
      <trkpt lat="45.05967" lon="0.69988">
        <ele>217.1</ele>
        <time>2022-05-01T08:44:57Z</time>
      </trkpt>
      <trkpt lat="45.0597" lon="0.69988">
        <ele>217.8</ele>
        <time>2022-05-01T08:44:59Z</time>
      </trkpt>
      <trkpt lat="45.05974" lon="0.69988">
        <ele>217.8</ele>
        <time>2022-05-01T08:45:01Z</time>
      </trkpt>
      <trkpt lat="45.05978" lon="0.69989">
        <ele>217.7</ele>
        <time>2022-05-01T08:45:03Z</time>
      </trkpt>
      <trkpt lat="45.05981" lon="0.69989">
        <ele>217.7</ele>
        <time>2022-05-01T08:45:05Z</time>
      </trkpt>
      <trkpt lat="45.05986" lon="0.69989">
        <ele>218.4</ele>
        <time>2022-05-01T08:45:07Z</time>
      </trkpt>
      <trkpt lat="45.0599" lon="0.69989">
        <ele>218.4</ele>
        <time>2022-05-01T08:45:09Z</time>
      </trkpt>
      <trkpt lat="45.05994" lon="0.6999">
        <ele>218.4</ele>
        <time>2022-05-01T08:45:11Z</time>
      </trkpt>
      <trkpt lat="45.05997" lon="0.6999">
        <ele>219.2</ele>
        <time>2022-05-01T08:45:13Z</time>
      </trkpt>
      <trkpt lat="45.06001" lon="0.69991">
        <ele>219.2</ele>
        <time>2022-05-01T08:45:15Z</time>
      </trkpt>
      <trkpt lat="45.06004" lon="0.69993">
        <ele>219.2</ele>
        <time>2022-05-01T08:45:17Z</time>
      </trkpt>
      <trkpt lat="45.06006" lon="0.69994">
        <ele>219.1</ele>
        <time>2022-05-01T08:45:18Z</time>
      </trkpt>
      <trkpt lat="45.06007" lon="0.69995">
        <ele>219.8</ele>
        <time>2022-05-01T08:45:19Z</time>
      </trkpt>
      <trkpt lat="45.06007" lon="0.69997">
        <ele>219.8</ele>
        <time>2022-05-01T08:45:20Z</time>
      </trkpt>
      <trkpt lat="45.06008" lon="0.69999">
        <ele>219.8</ele>
        <time>2022-05-01T08:45:21Z</time>
      </trkpt>
      <trkpt lat="45.06011" lon="0.70001">
        <ele>219.8</ele>
        <time>2022-05-01T08:45:23Z</time>
      </trkpt>
      <trkpt lat="45.06012" lon="0.70002">
        <ele>219.7</ele>
        <time>2022-05-01T08:45:24Z</time>
      </trkpt>
      <trkpt lat="45.06013" lon="0.70004">
        <ele>220.4</ele>
        <time>2022-05-01T08:45:25Z</time>
      </trkpt>
      <trkpt lat="45.06016" lon="0.70008">
        <ele>220.3</ele>
        <time>2022-05-01T08:45:27Z</time>
      </trkpt>
      <trkpt lat="45.06019" lon="0.70012">
        <ele>220.8</ele>
        <time>2022-05-01T08:45:29Z</time>
      </trkpt>
      <trkpt lat="45.06021" lon="0.70013">
        <ele>220.8</ele>
        <time>2022-05-01T08:45:30Z</time>
      </trkpt>
      <trkpt lat="45.06022" lon="0.70015">
        <ele>220.8</ele>
        <time>2022-05-01T08:45:31Z</time>
      </trkpt>
      <trkpt lat="45.06024" lon="0.70016">
        <ele>220.8</ele>
        <time>2022-05-01T08:45:32Z</time>
      </trkpt>
      <trkpt lat="45.06025" lon="0.70018">
        <ele>220.7</ele>
        <time>2022-05-01T08:45:33Z</time>
      </trkpt>
      <trkpt lat="45.06028" lon="0.7002">
        <ele>220.7</ele>
        <time>2022-05-01T08:45:35Z</time>
      </trkpt>
      <trkpt lat="45.06029" lon="0.70022">
        <ele>221.3</ele>
        <time>2022-05-01T08:45:36Z</time>
      </trkpt>
      <trkpt lat="45.06031" lon="0.70023">
        <ele>221.8</ele>
        <time>2022-05-01T08:45:37Z</time>
      </trkpt>
      <trkpt lat="45.06033" lon="0.70027">
        <ele>221.8</ele>
        <time>2022-05-01T08:45:39Z</time>
      </trkpt>
      <trkpt lat="45.06034" lon="0.70032">
        <ele>221.8</ele>
        <time>2022-05-01T08:45:41Z</time>
      </trkpt>
      <trkpt lat="45.06037" lon="0.70038">
        <ele>222.2</ele>
        <time>2022-05-01T08:45:43Z</time>
      </trkpt>
      <trkpt lat="45.06039" lon="0.70044">
        <ele>222.2</ele>
        <time>2022-05-01T08:45:45Z</time>
      </trkpt>
      <trkpt lat="45.06041" lon="0.7005">
        <ele>222.2</ele>
        <time>2022-05-01T08:45:47Z</time>
      </trkpt>
      <trkpt lat="45.06044" lon="0.70056">
        <ele>223.5</ele>
        <time>2022-05-01T08:45:49Z</time>
      </trkpt>
      <trkpt lat="45.06046" lon="0.70058">
        <ele>223.5</ele>
        <time>2022-05-01T08:45:50Z</time>
      </trkpt>
      <trkpt lat="45.06047" lon="0.70062">
        <ele>223.4</ele>
        <time>2022-05-01T08:45:51Z</time>
      </trkpt>
      <trkpt lat="45.0605" lon="0.70069">
        <ele>223.4</ele>
        <time>2022-05-01T08:45:53Z</time>
      </trkpt>
      <trkpt lat="45.06052" lon="0.70072">
        <ele>223.4</ele>
        <time>2022-05-01T08:45:54Z</time>
      </trkpt>
      <trkpt lat="45.06054" lon="0.70075">
        <ele>224</ele>
        <time>2022-05-01T08:45:55Z</time>
      </trkpt>
      <trkpt lat="45.06058" lon="0.70081">
        <ele>224.9</ele>
        <time>2022-05-01T08:45:57Z</time>
      </trkpt>
      <trkpt lat="45.06061" lon="0.70086">
        <ele>224.9</ele>
        <time>2022-05-01T08:45:59Z</time>
      </trkpt>
      <trkpt lat="45.06063" lon="0.70091">
        <ele>225.4</ele>
        <time>2022-05-01T08:46:01Z</time>
      </trkpt>
      <trkpt lat="45.06065" lon="0.70093">
        <ele>225.4</ele>
        <time>2022-05-01T08:46:02Z</time>
      </trkpt>
      <trkpt lat="45.06067" lon="0.70096">
        <ele>225.4</ele>
        <time>2022-05-01T08:46:03Z</time>
      </trkpt>
      <trkpt lat="45.06068" lon="0.70098">
        <ele>225.8</ele>
        <time>2022-05-01T08:46:04Z</time>
      </trkpt>
      <trkpt lat="45.0607" lon="0.701">
        <ele>225.8</ele>
        <time>2022-05-01T08:46:05Z</time>
      </trkpt>
      <trkpt lat="45.06072" lon="0.70103">
        <ele>225.7</ele>
        <time>2022-05-01T08:46:06Z</time>
      </trkpt>
      <trkpt lat="45.06074" lon="0.70106">
        <ele>225.7</ele>
        <time>2022-05-01T08:46:07Z</time>
      </trkpt>
      <trkpt lat="45.06074" lon="0.70109">
        <ele>226.1</ele>
        <time>2022-05-01T08:46:08Z</time>
      </trkpt>
      <trkpt lat="45.06076" lon="0.70112">
        <ele>226.1</ele>
        <time>2022-05-01T08:46:09Z</time>
      </trkpt>
      <trkpt lat="45.06077" lon="0.70115">
        <ele>226</ele>
        <time>2022-05-01T08:46:10Z</time>
      </trkpt>
      <trkpt lat="45.06078" lon="0.70119">
        <ele>226</ele>
        <time>2022-05-01T08:46:11Z</time>
      </trkpt>
      <trkpt lat="45.06084" lon="0.70124">
        <ele>226.6</ele>
        <time>2022-05-01T08:46:13Z</time>
      </trkpt>
      <trkpt lat="45.06086" lon="0.70127">
        <ele>226.6</ele>
        <time>2022-05-01T08:46:14Z</time>
      </trkpt>
      <trkpt lat="45.06088" lon="0.7013">
        <ele>226.6</ele>
        <time>2022-05-01T08:46:15Z</time>
      </trkpt>
      <trkpt lat="45.06092" lon="0.70136">
        <ele>226.7</ele>
        <time>2022-05-01T08:46:17Z</time>
      </trkpt>
      <trkpt lat="45.06093" lon="0.70139">
        <ele>226.7</ele>
        <time>2022-05-01T08:46:18Z</time>
      </trkpt>
      <trkpt lat="45.06095" lon="0.70142">
        <ele>227.1</ele>
        <time>2022-05-01T08:46:19Z</time>
      </trkpt>
      <trkpt lat="45.06099" lon="0.70147">
        <ele>227.1</ele>
        <time>2022-05-01T08:46:21Z</time>
      </trkpt>
      <trkpt lat="45.06101" lon="0.7015">
        <ele>227.1</ele>
        <time>2022-05-01T08:46:22Z</time>
      </trkpt>
      <trkpt lat="45.06103" lon="0.70153">
        <ele>227.1</ele>
        <time>2022-05-01T08:46:23Z</time>
      </trkpt>
      <trkpt lat="45.06107" lon="0.70159">
        <ele>227.7</ele>
        <time>2022-05-01T08:46:25Z</time>
      </trkpt>
      <trkpt lat="45.0611" lon="0.70164">
        <ele>227.7</ele>
        <time>2022-05-01T08:46:27Z</time>
      </trkpt>
      <trkpt lat="45.06113" lon="0.70166">
        <ele>227.7</ele>
        <time>2022-05-01T08:46:28Z</time>
      </trkpt>
      <trkpt lat="45.06113" lon="0.70169">
        <ele>227.6</ele>
        <time>2022-05-01T08:46:29Z</time>
      </trkpt>
      <trkpt lat="45.06117" lon="0.70174">
        <ele>227.9</ele>
        <time>2022-05-01T08:46:31Z</time>
      </trkpt>
      <trkpt lat="45.0612" lon="0.70175">
        <ele>228.5</ele>
        <time>2022-05-01T08:46:32Z</time>
      </trkpt>
      <trkpt lat="45.06123" lon="0.70178">
        <ele>228.5</ele>
        <time>2022-05-01T08:46:33Z</time>
      </trkpt>
      <trkpt lat="45.06127" lon="0.70181">
        <ele>228.5</ele>
        <time>2022-05-01T08:46:35Z</time>
      </trkpt>
      <trkpt lat="45.06132" lon="0.70184">
        <ele>228.8</ele>
        <time>2022-05-01T08:46:37Z</time>
      </trkpt>
      <trkpt lat="45.06135" lon="0.70188">
        <ele>228.8</ele>
        <time>2022-05-01T08:46:39Z</time>
      </trkpt>
      <trkpt lat="45.06138" lon="0.70189">
        <ele>228.8</ele>
        <time>2022-05-01T08:46:40Z</time>
      </trkpt>
      <trkpt lat="45.0614" lon="0.7019">
        <ele>229.1</ele>
        <time>2022-05-01T08:46:41Z</time>
      </trkpt>
      <trkpt lat="45.06145" lon="0.70192">
        <ele>230.1</ele>
        <time>2022-05-01T08:46:43Z</time>
      </trkpt>
      <trkpt lat="45.06149" lon="0.70195">
        <ele>230.1</ele>
        <time>2022-05-01T08:46:45Z</time>
      </trkpt>
      <trkpt lat="45.06154" lon="0.70197">
        <ele>230.4</ele>
        <time>2022-05-01T08:46:47Z</time>
      </trkpt>
      <trkpt lat="45.06159" lon="0.70199">
        <ele>230.3</ele>
        <time>2022-05-01T08:46:49Z</time>
      </trkpt>
      <trkpt lat="45.06161" lon="0.70201">
        <ele>230.3</ele>
        <time>2022-05-01T08:46:50Z</time>
      </trkpt>
      <trkpt lat="45.06164" lon="0.70202">
        <ele>230.3</ele>
        <time>2022-05-01T08:46:51Z</time>
      </trkpt>
      <trkpt lat="45.06167" lon="0.70205">
        <ele>230.5</ele>
        <time>2022-05-01T08:46:53Z</time>
      </trkpt>
      <trkpt lat="45.06171" lon="0.70208">
        <ele>230.5</ele>
        <time>2022-05-01T08:46:55Z</time>
      </trkpt>
      <trkpt lat="45.06173" lon="0.7021">
        <ele>231.3</ele>
        <time>2022-05-01T08:46:56Z</time>
      </trkpt>
      <trkpt lat="45.06174" lon="0.70211">
        <ele>231.3</ele>
        <time>2022-05-01T08:46:57Z</time>
      </trkpt>
      <trkpt lat="45.06176" lon="0.70214">
        <ele>231.4</ele>
        <time>2022-05-01T08:46:59Z</time>
      </trkpt>
      <trkpt lat="45.06179" lon="0.70219">
        <ele>231.4</ele>
        <time>2022-05-01T08:47:01Z</time>
      </trkpt>
      <trkpt lat="45.06182" lon="0.70223">
        <ele>231.4</ele>
        <time>2022-05-01T08:47:03Z</time>
      </trkpt>
      <trkpt lat="45.06184" lon="0.70227">
        <ele>232.3</ele>
        <time>2022-05-01T08:47:05Z</time>
      </trkpt>
      <trkpt lat="45.06187" lon="0.70232">
        <ele>232.3</ele>
        <time>2022-05-01T08:47:07Z</time>
      </trkpt>
      <trkpt lat="45.06189" lon="0.70234">
        <ele>232.4</ele>
        <time>2022-05-01T08:47:08Z</time>
      </trkpt>
      <trkpt lat="45.0619" lon="0.70236">
        <ele>232.4</ele>
        <time>2022-05-01T08:47:09Z</time>
      </trkpt>
      <trkpt lat="45.06192" lon="0.70239">
        <ele>232.4</ele>
        <time>2022-05-01T08:47:11Z</time>
      </trkpt>
      <trkpt lat="45.06193" lon="0.70242">
        <ele>232.4</ele>
        <time>2022-05-01T08:47:12Z</time>
      </trkpt>
      <trkpt lat="45.06195" lon="0.70244">
        <ele>232.4</ele>
        <time>2022-05-01T08:47:13Z</time>
      </trkpt>
      <trkpt lat="45.06199" lon="0.70249">
        <ele>233.3</ele>
        <time>2022-05-01T08:47:15Z</time>
      </trkpt>
      <trkpt lat="45.06202" lon="0.70252">
        <ele>233.3</ele>
        <time>2022-05-01T08:47:17Z</time>
      </trkpt>
      <trkpt lat="45.06204" lon="0.70253">
        <ele>233.3</ele>
        <time>2022-05-01T08:47:18Z</time>
      </trkpt>
      <trkpt lat="45.06205" lon="0.70255">
        <ele>233.3</ele>
        <time>2022-05-01T08:47:19Z</time>
      </trkpt>
      <trkpt lat="45.06206" lon="0.70257">
        <ele>233.3</ele>
        <time>2022-05-01T08:47:20Z</time>
      </trkpt>
      <trkpt lat="45.06208" lon="0.70259">
        <ele>233.3</ele>
        <time>2022-05-01T08:47:21Z</time>
      </trkpt>
      <trkpt lat="45.0621" lon="0.70261">
        <ele>234.1</ele>
        <time>2022-05-01T08:47:22Z</time>
      </trkpt>
      <trkpt lat="45.06212" lon="0.70263">
        <ele>234</ele>
        <time>2022-05-01T08:47:23Z</time>
      </trkpt>
      <trkpt lat="45.06216" lon="0.70268">
        <ele>234.1</ele>
        <time>2022-05-01T08:47:25Z</time>
      </trkpt>
      <trkpt lat="45.06218" lon="0.7027">
        <ele>234</ele>
        <time>2022-05-01T08:47:26Z</time>
      </trkpt>
      <trkpt lat="45.0622" lon="0.70272">
        <ele>234</ele>
        <time>2022-05-01T08:47:27Z</time>
      </trkpt>
      <trkpt lat="45.06222" lon="0.70274">
        <ele>234</ele>
        <time>2022-05-01T08:47:28Z</time>
      </trkpt>
      <trkpt lat="45.06223" lon="0.70276">
        <ele>234</ele>
        <time>2022-05-01T08:47:29Z</time>
      </trkpt>
      <trkpt lat="45.06225" lon="0.70278">
        <ele>234.1</ele>
        <time>2022-05-01T08:47:30Z</time>
      </trkpt>
      <trkpt lat="45.06227" lon="0.70279">
        <ele>235.4</ele>
        <time>2022-05-01T08:47:31Z</time>
      </trkpt>
      <trkpt lat="45.0623" lon="0.70283">
        <ele>235.3</ele>
        <time>2022-05-01T08:47:33Z</time>
      </trkpt>
      <trkpt lat="45.06233" lon="0.70287">
        <ele>235.3</ele>
        <time>2022-05-01T08:47:35Z</time>
      </trkpt>
      <trkpt lat="45.06236" lon="0.70293">
        <ele>235.3</ele>
        <time>2022-05-01T08:47:37Z</time>
      </trkpt>
      <trkpt lat="45.06239" lon="0.70298">
        <ele>236.8</ele>
        <time>2022-05-01T08:47:39Z</time>
      </trkpt>
      <trkpt lat="45.06239" lon="0.703">
        <ele>236.8</ele>
        <time>2022-05-01T08:47:40Z</time>
      </trkpt>
      <trkpt lat="45.06237" lon="0.70303">
        <ele>236.8</ele>
        <time>2022-05-01T08:47:41Z</time>
      </trkpt>
      <trkpt lat="45.06241" lon="0.70307">
        <ele>236.8</ele>
        <time>2022-05-01T08:47:42Z</time>
      </trkpt>
      <trkpt lat="45.06244" lon="0.7031">
        <ele>236.8</ele>
        <time>2022-05-01T08:47:43Z</time>
      </trkpt>
      <trkpt lat="45.06247" lon="0.70312">
        <ele>236.7</ele>
        <time>2022-05-01T08:47:44Z</time>
      </trkpt>
      <trkpt lat="45.06248" lon="0.70316">
        <ele>237.7</ele>
        <time>2022-05-01T08:47:45Z</time>
      </trkpt>
      <trkpt lat="45.06251" lon="0.7032">
        <ele>238.2</ele>
        <time>2022-05-01T08:47:47Z</time>
      </trkpt>
      <trkpt lat="45.06251" lon="0.70323">
        <ele>238.2</ele>
        <time>2022-05-01T08:47:48Z</time>
      </trkpt>
      <trkpt lat="45.06252" lon="0.70326">
        <ele>238.2</ele>
        <time>2022-05-01T08:47:49Z</time>
      </trkpt>
      <trkpt lat="45.06253" lon="0.70333">
        <ele>239.1</ele>
        <time>2022-05-01T08:47:51Z</time>
      </trkpt>
      <trkpt lat="45.06256" lon="0.70339">
        <ele>239.1</ele>
        <time>2022-05-01T08:47:53Z</time>
      </trkpt>
      <trkpt lat="45.06258" lon="0.70342">
        <ele>239.1</ele>
        <time>2022-05-01T08:47:54Z</time>
      </trkpt>
      <trkpt lat="45.0626" lon="0.70345">
        <ele>239.1</ele>
        <time>2022-05-01T08:47:55Z</time>
      </trkpt>
      <trkpt lat="45.06264" lon="0.70351">
        <ele>240</ele>
        <time>2022-05-01T08:47:57Z</time>
      </trkpt>
      <trkpt lat="45.06266" lon="0.70353">
        <ele>240</ele>
        <time>2022-05-01T08:47:58Z</time>
      </trkpt>
      <trkpt lat="45.06267" lon="0.70357">
        <ele>239.9</ele>
        <time>2022-05-01T08:47:59Z</time>
      </trkpt>
      <trkpt lat="45.0627" lon="0.70363">
        <ele>239.9</ele>
        <time>2022-05-01T08:48:01Z</time>
      </trkpt>
      <trkpt lat="45.06271" lon="0.70366">
        <ele>240.7</ele>
        <time>2022-05-01T08:48:02Z</time>
      </trkpt>
      <trkpt lat="45.06273" lon="0.7037">
        <ele>240.7</ele>
        <time>2022-05-01T08:48:03Z</time>
      </trkpt>
      <trkpt lat="45.06276" lon="0.70376">
        <ele>240.9</ele>
        <time>2022-05-01T08:48:05Z</time>
      </trkpt>
      <trkpt lat="45.06279" lon="0.70382">
        <ele>241.8</ele>
        <time>2022-05-01T08:48:07Z</time>
      </trkpt>
      <trkpt lat="45.06282" lon="0.70388">
        <ele>241.8</ele>
        <time>2022-05-01T08:48:09Z</time>
      </trkpt>
      <trkpt lat="45.06285" lon="0.70393">
        <ele>241.6</ele>
        <time>2022-05-01T08:48:11Z</time>
      </trkpt>
      <trkpt lat="45.06288" lon="0.70397">
        <ele>241.6</ele>
        <time>2022-05-01T08:48:13Z</time>
      </trkpt>
      <trkpt lat="45.06289" lon="0.70399">
        <ele>242</ele>
        <time>2022-05-01T08:48:14Z</time>
      </trkpt>
      <trkpt lat="45.06291" lon="0.704">
        <ele>242</ele>
        <time>2022-05-01T08:48:15Z</time>
      </trkpt>
      <trkpt lat="45.06292" lon="0.70401">
        <ele>242</ele>
        <time>2022-05-01T08:48:17Z</time>
      </trkpt>
      <trkpt lat="45.06298" lon="0.7041">
        <ele>241.4</ele>
        <time>2022-05-01T08:48:56Z</time>
      </trkpt>
      <trkpt lat="45.063" lon="0.70411">
        <ele>241.4</ele>
        <time>2022-05-01T08:48:57Z</time>
      </trkpt>
      <trkpt lat="45.06301" lon="0.70414">
        <ele>241.3</ele>
        <time>2022-05-01T08:48:58Z</time>
      </trkpt>
      <trkpt lat="45.06303" lon="0.70416">
        <ele>240.8</ele>
        <time>2022-05-01T08:48:59Z</time>
      </trkpt>
      <trkpt lat="45.06304" lon="0.70418">
        <ele>240.8</ele>
        <time>2022-05-01T08:49:00Z</time>
      </trkpt>
      <trkpt lat="45.06306" lon="0.7042">
        <ele>240.8</ele>
        <time>2022-05-01T08:49:01Z</time>
      </trkpt>
      <trkpt lat="45.06307" lon="0.70421">
        <ele>240.8</ele>
        <time>2022-05-01T08:49:02Z</time>
      </trkpt>
      <trkpt lat="45.0631" lon="0.70422">
        <ele>240.1</ele>
        <time>2022-05-01T08:49:03Z</time>
      </trkpt>
      <trkpt lat="45.06313" lon="0.70422">
        <ele>240.1</ele>
        <time>2022-05-01T08:49:05Z</time>
      </trkpt>
      <trkpt lat="45.06313" lon="0.70422">
        <ele>240.1</ele>
        <time>2022-05-01T08:49:06Z</time>
      </trkpt>
      <trkpt lat="45.06318" lon="0.70427">
        <ele>240</ele>
        <time>2022-05-01T08:49:09Z</time>
      </trkpt>
      <trkpt lat="45.06319" lon="0.7043">
        <ele>240</ele>
        <time>2022-05-01T08:49:10Z</time>
      </trkpt>
      <trkpt lat="45.06319" lon="0.70433">
        <ele>239</ele>
        <time>2022-05-01T08:49:11Z</time>
      </trkpt>
      <trkpt lat="45.06319" lon="0.70437">
        <ele>239</ele>
        <time>2022-05-01T08:49:12Z</time>
      </trkpt>
      <trkpt lat="45.0632" lon="0.70441">
        <ele>238.9</ele>
        <time>2022-05-01T08:49:13Z</time>
      </trkpt>
      <trkpt lat="45.06327" lon="0.70447">
        <ele>238.5</ele>
        <time>2022-05-01T08:49:15Z</time>
      </trkpt>
      <trkpt lat="45.06335" lon="0.70452">
        <ele>237.4</ele>
        <time>2022-05-01T08:49:17Z</time>
      </trkpt>
      <trkpt lat="45.0634" lon="0.70457">
        <ele>237.4</ele>
        <time>2022-05-01T08:49:19Z</time>
      </trkpt>
      <trkpt lat="45.06347" lon="0.70471">
        <ele>236.6</ele>
        <time>2022-05-01T08:49:21Z</time>
      </trkpt>
      <trkpt lat="45.06349" lon="0.70466">
        <ele>236.6</ele>
        <time>2022-05-01T08:49:22Z</time>
      </trkpt>
      <trkpt lat="45.06352" lon="0.70461">
        <ele>236.6</ele>
        <time>2022-05-01T08:49:23Z</time>
      </trkpt>
      <trkpt lat="45.06354" lon="0.70457">
        <ele>236.6</ele>
        <time>2022-05-01T08:49:25Z</time>
      </trkpt>
      <trkpt lat="45.06355" lon="0.70454">
        <ele>236.5</ele>
        <time>2022-05-01T08:49:26Z</time>
      </trkpt>
      <trkpt lat="45.06356" lon="0.70451">
        <ele>236.5</ele>
        <time>2022-05-01T08:49:27Z</time>
      </trkpt>
      <trkpt lat="45.06359" lon="0.70445">
        <ele>236.4</ele>
        <time>2022-05-01T08:49:29Z</time>
      </trkpt>
      <trkpt lat="45.06361" lon="0.70441">
        <ele>236.3</ele>
        <time>2022-05-01T08:49:30Z</time>
      </trkpt>
      <trkpt lat="45.06363" lon="0.70436">
        <ele>236.2</ele>
        <time>2022-05-01T08:49:31Z</time>
      </trkpt>
      <trkpt lat="45.06367" lon="0.70428">
        <ele>235.9</ele>
        <time>2022-05-01T08:49:33Z</time>
      </trkpt>
      <trkpt lat="45.06369" lon="0.70423">
        <ele>235.7</ele>
        <time>2022-05-01T08:49:34Z</time>
      </trkpt>
      <trkpt lat="45.06371" lon="0.70418">
        <ele>235.5</ele>
        <time>2022-05-01T08:49:35Z</time>
      </trkpt>
      <trkpt lat="45.06377" lon="0.70406">
        <ele>234.9</ele>
        <time>2022-05-01T08:49:37Z</time>
      </trkpt>
      <trkpt lat="45.06382" lon="0.70394">
        <ele>234.3</ele>
        <time>2022-05-01T08:49:39Z</time>
      </trkpt>
      <trkpt lat="45.06385" lon="0.70387">
        <ele>234.1</ele>
        <time>2022-05-01T08:49:40Z</time>
      </trkpt>
      <trkpt lat="45.06387" lon="0.7038">
        <ele>233.9</ele>
        <time>2022-05-01T08:49:41Z</time>
      </trkpt>
      <trkpt lat="45.0639" lon="0.70367">
        <ele>233.7</ele>
        <time>2022-05-01T08:49:43Z</time>
      </trkpt>
      <trkpt lat="45.06391" lon="0.70362">
        <ele>233.7</ele>
        <time>2022-05-01T08:49:44Z</time>
      </trkpt>
      <trkpt lat="45.06393" lon="0.70357">
        <ele>233.6</ele>
        <time>2022-05-01T08:49:45Z</time>
      </trkpt>
      <trkpt lat="45.06395" lon="0.70346">
        <ele>233.5</ele>
        <time>2022-05-01T08:49:47Z</time>
      </trkpt>
      <trkpt lat="45.06398" lon="0.70334">
        <ele>233.5</ele>
        <time>2022-05-01T08:49:49Z</time>
      </trkpt>
      <trkpt lat="45.06402" lon="0.70322">
        <ele>233.4</ele>
        <time>2022-05-01T08:49:51Z</time>
      </trkpt>
      <trkpt lat="45.06407" lon="0.7031">
        <ele>233.2</ele>
        <time>2022-05-01T08:49:53Z</time>
      </trkpt>
      <trkpt lat="45.06413" lon="0.70298">
        <ele>232.9</ele>
        <time>2022-05-01T08:49:55Z</time>
      </trkpt>
      <trkpt lat="45.06418" lon="0.70287">
        <ele>232.7</ele>
        <time>2022-05-01T08:49:57Z</time>
      </trkpt>
      <trkpt lat="45.06425" lon="0.70275">
        <ele>232.4</ele>
        <time>2022-05-01T08:49:59Z</time>
      </trkpt>
      <trkpt lat="45.06431" lon="0.70263">
        <ele>232.1</ele>
        <time>2022-05-01T08:50:01Z</time>
      </trkpt>
      <trkpt lat="45.06438" lon="0.7025">
        <ele>231.8</ele>
        <time>2022-05-01T08:50:03Z</time>
      </trkpt>
      <trkpt lat="45.06441" lon="0.70244">
        <ele>231.6</ele>
        <time>2022-05-01T08:50:04Z</time>
      </trkpt>
      <trkpt lat="45.06444" lon="0.70238">
        <ele>231.5</ele>
        <time>2022-05-01T08:50:05Z</time>
      </trkpt>
      <trkpt lat="45.0645" lon="0.70226">
        <ele>231.3</ele>
        <time>2022-05-01T08:50:07Z</time>
      </trkpt>
      <trkpt lat="45.06457" lon="0.70214">
        <ele>231.2</ele>
        <time>2022-05-01T08:50:09Z</time>
      </trkpt>
      <trkpt lat="45.0646" lon="0.70208">
        <ele>231.2</ele>
        <time>2022-05-01T08:50:10Z</time>
      </trkpt>
      <trkpt lat="45.06463" lon="0.70202">
        <ele>231.2</ele>
        <time>2022-05-01T08:50:11Z</time>
      </trkpt>
      <trkpt lat="45.06469" lon="0.70191">
        <ele>231.3</ele>
        <time>2022-05-01T08:50:13Z</time>
      </trkpt>
      <trkpt lat="45.06475" lon="0.7018">
        <ele>231.4</ele>
        <time>2022-05-01T08:50:15Z</time>
      </trkpt>
      <trkpt lat="45.06481" lon="0.70169">
        <ele>231.5</ele>
        <time>2022-05-01T08:50:17Z</time>
      </trkpt>
      <trkpt lat="45.06488" lon="0.70158">
        <ele>231.5</ele>
        <time>2022-05-01T08:50:19Z</time>
      </trkpt>
      <trkpt lat="45.06494" lon="0.70147">
        <ele>231.6</ele>
        <time>2022-05-01T08:50:21Z</time>
      </trkpt>
      <trkpt lat="45.065" lon="0.70136">
        <ele>231.6</ele>
        <time>2022-05-01T08:50:23Z</time>
      </trkpt>
      <trkpt lat="45.06507" lon="0.70125">
        <ele>231.6</ele>
        <time>2022-05-01T08:50:25Z</time>
      </trkpt>
      <trkpt lat="45.0651" lon="0.70119">
        <ele>231.6</ele>
        <time>2022-05-01T08:50:26Z</time>
      </trkpt>
      <trkpt lat="45.06513" lon="0.70114">
        <ele>231.7</ele>
        <time>2022-05-01T08:50:27Z</time>
      </trkpt>
      <trkpt lat="45.06519" lon="0.70104">
        <ele>231.8</ele>
        <time>2022-05-01T08:50:29Z</time>
      </trkpt>
      <trkpt lat="45.06522" lon="0.70099">
        <ele>231.9</ele>
        <time>2022-05-01T08:50:30Z</time>
      </trkpt>
      <trkpt lat="45.06524" lon="0.70094">
        <ele>232</ele>
        <time>2022-05-01T08:50:31Z</time>
      </trkpt>
      <trkpt lat="45.06527" lon="0.70089">
        <ele>232.1</ele>
        <time>2022-05-01T08:50:32Z</time>
      </trkpt>
      <trkpt lat="45.0653" lon="0.70084">
        <ele>232.2</ele>
        <time>2022-05-01T08:50:33Z</time>
      </trkpt>
      <trkpt lat="45.06534" lon="0.70079">
        <ele>232.4</ele>
        <time>2022-05-01T08:50:34Z</time>
      </trkpt>
      <trkpt lat="45.06536" lon="0.70074">
        <ele>232.5</ele>
        <time>2022-05-01T08:50:35Z</time>
      </trkpt>
      <trkpt lat="45.06541" lon="0.70065">
        <ele>232.7</ele>
        <time>2022-05-01T08:50:37Z</time>
      </trkpt>
      <trkpt lat="45.06544" lon="0.7006">
        <ele>232.8</ele>
        <time>2022-05-01T08:50:38Z</time>
      </trkpt>
      <trkpt lat="45.06548" lon="0.70056">
        <ele>233</ele>
        <time>2022-05-01T08:50:39Z</time>
      </trkpt>
      <trkpt lat="45.06551" lon="0.70053">
        <ele>233.3</ele>
        <time>2022-05-01T08:50:40Z</time>
      </trkpt>
      <trkpt lat="45.06555" lon="0.7005">
        <ele>233.6</ele>
        <time>2022-05-01T08:50:41Z</time>
      </trkpt>
      <trkpt lat="45.06561" lon="0.70044">
        <ele>234</ele>
        <time>2022-05-01T08:50:43Z</time>
      </trkpt>
      <trkpt lat="45.06564" lon="0.70041">
        <ele>234.1</ele>
        <time>2022-05-01T08:50:44Z</time>
      </trkpt>
      <trkpt lat="45.06568" lon="0.70038">
        <ele>234.3</ele>
        <time>2022-05-01T08:50:45Z</time>
      </trkpt>
      <trkpt lat="45.06573" lon="0.70032">
        <ele>234.5</ele>
        <time>2022-05-01T08:50:47Z</time>
      </trkpt>
      <trkpt lat="45.06579" lon="0.70024">
        <ele>234.6</ele>
        <time>2022-05-01T08:50:49Z</time>
      </trkpt>
      <trkpt lat="45.06584" lon="0.70015">
        <ele>234.7</ele>
        <time>2022-05-01T08:50:51Z</time>
      </trkpt>
      <trkpt lat="45.0659" lon="0.70007">
        <ele>234.8</ele>
        <time>2022-05-01T08:50:53Z</time>
      </trkpt>
      <trkpt lat="45.06593" lon="0.69998">
        <ele>234.8</ele>
        <time>2022-05-01T08:50:55Z</time>
      </trkpt>
      <trkpt lat="45.06594" lon="0.69992">
        <ele>234.7</ele>
        <time>2022-05-01T08:50:56Z</time>
      </trkpt>
      <trkpt lat="45.06595" lon="0.69985">
        <ele>234.6</ele>
        <time>2022-05-01T08:50:57Z</time>
      </trkpt>
      <trkpt lat="45.06597" lon="0.69979">
        <ele>234.5</ele>
        <time>2022-05-01T08:50:58Z</time>
      </trkpt>
      <trkpt lat="45.06598" lon="0.69972">
        <ele>234.4</ele>
        <time>2022-05-01T08:50:59Z</time>
      </trkpt>
      <trkpt lat="45.066" lon="0.69957">
        <ele>233.8</ele>
        <time>2022-05-01T08:51:01Z</time>
      </trkpt>
      <trkpt lat="45.06609" lon="0.69938">
        <ele>233</ele>
        <time>2022-05-01T08:51:03Z</time>
      </trkpt>
      <trkpt lat="45.06614" lon="0.69934">
        <ele>232.8</ele>
        <time>2022-05-01T08:51:04Z</time>
      </trkpt>
      <trkpt lat="45.06619" lon="0.69931">
        <ele>232.5</ele>
        <time>2022-05-01T08:51:05Z</time>
      </trkpt>
      <trkpt lat="45.06628" lon="0.69924">
        <ele>232.1</ele>
        <time>2022-05-01T08:51:07Z</time>
      </trkpt>
      <trkpt lat="45.06638" lon="0.69917">
        <ele>231.7</ele>
        <time>2022-05-01T08:51:09Z</time>
      </trkpt>
      <trkpt lat="45.06641" lon="0.69915">
        <ele>231.6</ele>
        <time>2022-05-01T08:51:11Z</time>
      </trkpt>
      <trkpt lat="45.06641" lon="0.69915">
        <ele>231.6</ele>
        <time>2022-05-01T08:51:12Z</time>
      </trkpt>
      <trkpt lat="45.06645" lon="0.69912">
        <ele>231.5</ele>
        <time>2022-05-01T08:51:20Z</time>
      </trkpt>
      <trkpt lat="45.06647" lon="0.6991">
        <ele>231.4</ele>
        <time>2022-05-01T08:51:21Z</time>
      </trkpt>
      <trkpt lat="45.06653" lon="0.69905">
        <ele>231.2</ele>
        <time>2022-05-01T08:51:23Z</time>
      </trkpt>
      <trkpt lat="45.06657" lon="0.69901">
        <ele>231.1</ele>
        <time>2022-05-01T08:51:24Z</time>
      </trkpt>
      <trkpt lat="45.06661" lon="0.69898">
        <ele>231</ele>
        <time>2022-05-01T08:51:25Z</time>
      </trkpt>
      <trkpt lat="45.06667" lon="0.69892">
        <ele>230.8</ele>
        <time>2022-05-01T08:51:27Z</time>
      </trkpt>
      <trkpt lat="45.06672" lon="0.69888">
        <ele>230.6</ele>
        <time>2022-05-01T08:51:28Z</time>
      </trkpt>
      <trkpt lat="45.06676" lon="0.69884">
        <ele>230.5</ele>
        <time>2022-05-01T08:51:29Z</time>
      </trkpt>
      <trkpt lat="45.0668" lon="0.6988">
        <ele>230.4</ele>
        <time>2022-05-01T08:51:30Z</time>
      </trkpt>
      <trkpt lat="45.06685" lon="0.69876">
        <ele>230.4</ele>
        <time>2022-05-01T08:51:31Z</time>
      </trkpt>
      <trkpt lat="45.06689" lon="0.69872">
        <ele>230.3</ele>
        <time>2022-05-01T08:51:32Z</time>
      </trkpt>
      <trkpt lat="45.06693" lon="0.69868">
        <ele>230.2</ele>
        <time>2022-05-01T08:51:33Z</time>
      </trkpt>
      <trkpt lat="45.06702" lon="0.69861">
        <ele>230</ele>
        <time>2022-05-01T08:51:35Z</time>
      </trkpt>
      <trkpt lat="45.0671" lon="0.69854">
        <ele>229.8</ele>
        <time>2022-05-01T08:51:37Z</time>
      </trkpt>
      <trkpt lat="45.06716" lon="0.69846">
        <ele>229.5</ele>
        <time>2022-05-01T08:51:39Z</time>
      </trkpt>
      <trkpt lat="45.0672" lon="0.69841">
        <ele>229.4</ele>
        <time>2022-05-01T08:51:40Z</time>
      </trkpt>
      <trkpt lat="45.06724" lon="0.69836">
        <ele>229.3</ele>
        <time>2022-05-01T08:51:41Z</time>
      </trkpt>
      <trkpt lat="45.06731" lon="0.69826">
        <ele>229.1</ele>
        <time>2022-05-01T08:51:43Z</time>
      </trkpt>
      <trkpt lat="45.06735" lon="0.69822">
        <ele>229</ele>
        <time>2022-05-01T08:51:44Z</time>
      </trkpt>
      <trkpt lat="45.06738" lon="0.69818">
        <ele>228.9</ele>
        <time>2022-05-01T08:51:45Z</time>
      </trkpt>
      <trkpt lat="45.06744" lon="0.69809">
        <ele>228.7</ele>
        <time>2022-05-01T08:51:47Z</time>
      </trkpt>
      <trkpt lat="45.0675" lon="0.69802">
        <ele>228.6</ele>
        <time>2022-05-01T08:51:49Z</time>
      </trkpt>
      <trkpt lat="45.06754" lon="0.69793">
        <ele>228.6</ele>
        <time>2022-05-01T08:51:51Z</time>
      </trkpt>
      <trkpt lat="45.06758" lon="0.69786">
        <ele>228.6</ele>
        <time>2022-05-01T08:51:53Z</time>
      </trkpt>
      <trkpt lat="45.06763" lon="0.69788">
        <ele>228.6</ele>
        <time>2022-05-01T08:51:54Z</time>
      </trkpt>
      <trkpt lat="45.06768" lon="0.69792">
        <ele>228.8</ele>
        <time>2022-05-01T08:51:55Z</time>
      </trkpt>
      <trkpt lat="45.0677" lon="0.69788">
        <ele>229</ele>
        <time>2022-05-01T08:51:57Z</time>
      </trkpt>
      <trkpt lat="45.06772" lon="0.69787">
        <ele>229.1</ele>
        <time>2022-05-01T08:51:59Z</time>
      </trkpt>
      <trkpt lat="45.06775" lon="0.69787">
        <ele>229.3</ele>
        <time>2022-05-01T08:52:01Z</time>
      </trkpt>
      <trkpt lat="45.06777" lon="0.69789">
        <ele>229.4</ele>
        <time>2022-05-01T08:52:03Z</time>
      </trkpt>
      <trkpt lat="45.06778" lon="0.69793">
        <ele>229.6</ele>
        <time>2022-05-01T08:52:05Z</time>
      </trkpt>
      <trkpt lat="45.0678" lon="0.69796">
        <ele>229.8</ele>
        <time>2022-05-01T08:52:07Z</time>
      </trkpt>
      <trkpt lat="45.06782" lon="0.69801">
        <ele>230.1</ele>
        <time>2022-05-01T08:52:09Z</time>
      </trkpt>
      <trkpt lat="45.06782" lon="0.69803">
        <ele>230.3</ele>
        <time>2022-05-01T08:52:10Z</time>
      </trkpt>
      <trkpt lat="45.06782" lon="0.69806">
        <ele>230.5</ele>
        <time>2022-05-01T08:52:11Z</time>
      </trkpt>
      <trkpt lat="45.0678" lon="0.69813">
        <ele>230.6</ele>
        <time>2022-05-01T08:52:13Z</time>
      </trkpt>
      <trkpt lat="45.06782" lon="0.69817">
        <ele>231</ele>
        <time>2022-05-01T08:52:14Z</time>
      </trkpt>
      <trkpt lat="45.06783" lon="0.6982">
        <ele>231.1</ele>
        <time>2022-05-01T08:52:15Z</time>
      </trkpt>
      <trkpt lat="45.06784" lon="0.69827">
        <ele>231.3</ele>
        <time>2022-05-01T08:52:17Z</time>
      </trkpt>
      <trkpt lat="45.06784" lon="0.69835">
        <ele>231.6</ele>
        <time>2022-05-01T08:52:19Z</time>
      </trkpt>
      <trkpt lat="45.06789" lon="0.69841">
        <ele>231.7</ele>
        <time>2022-05-01T08:52:21Z</time>
      </trkpt>
      <trkpt lat="45.06792" lon="0.69846">
        <ele>231.9</ele>
        <time>2022-05-01T08:52:23Z</time>
      </trkpt>
      <trkpt lat="45.06795" lon="0.6985">
        <ele>232</ele>
        <time>2022-05-01T08:52:25Z</time>
      </trkpt>
      <trkpt lat="45.06797" lon="0.69853">
        <ele>232.2</ele>
        <time>2022-05-01T08:52:26Z</time>
      </trkpt>
      <trkpt lat="45.06801" lon="0.69854">
        <ele>232.3</ele>
        <time>2022-05-01T08:52:27Z</time>
      </trkpt>
      <trkpt lat="45.06802" lon="0.69857">
        <ele>232.5</ele>
        <time>2022-05-01T08:52:28Z</time>
      </trkpt>
      <trkpt lat="45.06802" lon="0.69861">
        <ele>232.6</ele>
        <time>2022-05-01T08:52:29Z</time>
      </trkpt>
      <trkpt lat="45.06805" lon="0.69868">
        <ele>232.7</ele>
        <time>2022-05-01T08:52:31Z</time>
      </trkpt>
      <trkpt lat="45.06808" lon="0.69873">
        <ele>232.7</ele>
        <time>2022-05-01T08:52:33Z</time>
      </trkpt>
      <trkpt lat="45.06813" lon="0.69879">
        <ele>232.9</ele>
        <time>2022-05-01T08:52:35Z</time>
      </trkpt>
      <trkpt lat="45.06819" lon="0.69881">
        <ele>233</ele>
        <time>2022-05-01T08:52:37Z</time>
      </trkpt>
      <trkpt lat="45.06825" lon="0.69884">
        <ele>233</ele>
        <time>2022-05-01T08:52:39Z</time>
      </trkpt>
      <trkpt lat="45.06831" lon="0.69888">
        <ele>233.2</ele>
        <time>2022-05-01T08:52:41Z</time>
      </trkpt>
      <trkpt lat="45.06839" lon="0.6989">
        <ele>233.2</ele>
        <time>2022-05-01T08:52:43Z</time>
      </trkpt>
      <trkpt lat="45.06841" lon="0.69892">
        <ele>233.3</ele>
        <time>2022-05-01T08:52:44Z</time>
      </trkpt>
      <trkpt lat="45.06842" lon="0.69892">
        <ele>233.5</ele>
        <time>2022-05-01T08:52:45Z</time>
      </trkpt>
      <trkpt lat="45.06853" lon="0.69895">
        <ele>233.5</ele>
        <time>2022-05-01T08:52:47Z</time>
      </trkpt>
      <trkpt lat="45.06856" lon="0.69897">
        <ele>233.4</ele>
        <time>2022-05-01T08:52:48Z</time>
      </trkpt>
      <trkpt lat="45.06862" lon="0.69899">
        <ele>233.5</ele>
        <time>2022-05-01T08:52:49Z</time>
      </trkpt>
      <trkpt lat="45.0687" lon="0.69902">
        <ele>233</ele>
        <time>2022-05-01T08:52:51Z</time>
      </trkpt>
      <trkpt lat="45.06872" lon="0.69904">
        <ele>233.2</ele>
        <time>2022-05-01T08:52:52Z</time>
      </trkpt>
      <trkpt lat="45.06876" lon="0.69907">
        <ele>233.4</ele>
        <time>2022-05-01T08:52:53Z</time>
      </trkpt>
      <trkpt lat="45.06883" lon="0.69911">
        <ele>233.1</ele>
        <time>2022-05-01T08:52:55Z</time>
      </trkpt>
      <trkpt lat="45.06885" lon="0.69912">
        <ele>233.3</ele>
        <time>2022-05-01T08:52:56Z</time>
      </trkpt>
      <trkpt lat="45.0689" lon="0.69914">
        <ele>233.4</ele>
        <time>2022-05-01T08:52:57Z</time>
      </trkpt>
      <trkpt lat="45.06896" lon="0.69918">
        <ele>232.5</ele>
        <time>2022-05-01T08:52:59Z</time>
      </trkpt>
      <trkpt lat="45.06902" lon="0.69922">
        <ele>232.7</ele>
        <time>2022-05-01T08:53:01Z</time>
      </trkpt>
      <trkpt lat="45.06906" lon="0.69927">
        <ele>232.4</ele>
        <time>2022-05-01T08:53:02Z</time>
      </trkpt>
      <trkpt lat="45.06909" lon="0.6993">
        <ele>232.5</ele>
        <time>2022-05-01T08:53:03Z</time>
      </trkpt>
      <trkpt lat="45.06911" lon="0.69934">
        <ele>232.7</ele>
        <time>2022-05-01T08:53:04Z</time>
      </trkpt>
      <trkpt lat="45.06912" lon="0.6994">
        <ele>232.4</ele>
        <time>2022-05-01T08:53:05Z</time>
      </trkpt>
      <trkpt lat="45.06916" lon="0.69951">
        <ele>232.1</ele>
        <time>2022-05-01T08:53:07Z</time>
      </trkpt>
      <trkpt lat="45.06923" lon="0.69961">
        <ele>231.8</ele>
        <time>2022-05-01T08:53:09Z</time>
      </trkpt>
      <trkpt lat="45.06922" lon="0.6997">
        <ele>231.6</ele>
        <time>2022-05-01T08:53:11Z</time>
      </trkpt>
      <trkpt lat="45.0692" lon="0.6998">
        <ele>231.5</ele>
        <time>2022-05-01T08:53:13Z</time>
      </trkpt>
      <trkpt lat="45.0692" lon="0.69982">
        <ele>231.4</ele>
        <time>2022-05-01T08:53:14Z</time>
      </trkpt>
      <trkpt lat="45.0692" lon="0.69985">
        <ele>231.4</ele>
        <time>2022-05-01T08:53:15Z</time>
      </trkpt>
      <trkpt lat="45.06918" lon="0.69993">
        <ele>231.2</ele>
        <time>2022-05-01T08:53:17Z</time>
      </trkpt>
      <trkpt lat="45.06917" lon="0.70001">
        <ele>231.1</ele>
        <time>2022-05-01T08:53:19Z</time>
      </trkpt>
      <trkpt lat="45.06917" lon="0.70006">
        <ele>231</ele>
        <time>2022-05-01T08:53:20Z</time>
      </trkpt>
      <trkpt lat="45.06917" lon="0.70011">
        <ele>230.9</ele>
        <time>2022-05-01T08:53:21Z</time>
      </trkpt>
      <trkpt lat="45.06916" lon="0.70022">
        <ele>230.7</ele>
        <time>2022-05-01T08:53:23Z</time>
      </trkpt>
      <trkpt lat="45.06915" lon="0.70027">
        <ele>230.6</ele>
        <time>2022-05-01T08:53:24Z</time>
      </trkpt>
      <trkpt lat="45.06915" lon="0.70031">
        <ele>230.5</ele>
        <time>2022-05-01T08:53:25Z</time>
      </trkpt>
      <trkpt lat="45.06914" lon="0.70042">
        <ele>230.3</ele>
        <time>2022-05-01T08:53:27Z</time>
      </trkpt>
      <trkpt lat="45.06913" lon="0.70052">
        <ele>230.2</ele>
        <time>2022-05-01T08:53:29Z</time>
      </trkpt>
      <trkpt lat="45.06911" lon="0.70062">
        <ele>230.1</ele>
        <time>2022-05-01T08:53:31Z</time>
      </trkpt>
      <trkpt lat="45.0691" lon="0.70068">
        <ele>230.1</ele>
        <time>2022-05-01T08:53:32Z</time>
      </trkpt>
      <trkpt lat="45.06909" lon="0.70074">
        <ele>230.1</ele>
        <time>2022-05-01T08:53:33Z</time>
      </trkpt>
      <trkpt lat="45.06907" lon="0.70085">
        <ele>230.2</ele>
        <time>2022-05-01T08:53:35Z</time>
      </trkpt>
      <trkpt lat="45.06905" lon="0.70095">
        <ele>230.2</ele>
        <time>2022-05-01T08:53:37Z</time>
      </trkpt>
      <trkpt lat="45.06904" lon="0.70101">
        <ele>230.3</ele>
        <time>2022-05-01T08:53:38Z</time>
      </trkpt>
      <trkpt lat="45.06904" lon="0.70107">
        <ele>230.3</ele>
        <time>2022-05-01T08:53:39Z</time>
      </trkpt>
      <trkpt lat="45.06903" lon="0.70118">
        <ele>230.4</ele>
        <time>2022-05-01T08:53:41Z</time>
      </trkpt>
      <trkpt lat="45.06901" lon="0.70128">
        <ele>230.5</ele>
        <time>2022-05-01T08:53:43Z</time>
      </trkpt>
      <trkpt lat="45.069" lon="0.7014">
        <ele>230.6</ele>
        <time>2022-05-01T08:53:45Z</time>
      </trkpt>
      <trkpt lat="45.06899" lon="0.70151">
        <ele>230.7</ele>
        <time>2022-05-01T08:53:47Z</time>
      </trkpt>
      <trkpt lat="45.06897" lon="0.70162">
        <ele>230.8</ele>
        <time>2022-05-01T08:53:49Z</time>
      </trkpt>
      <trkpt lat="45.06897" lon="0.70168">
        <ele>230.9</ele>
        <time>2022-05-01T08:53:50Z</time>
      </trkpt>
      <trkpt lat="45.06896" lon="0.70174">
        <ele>230.9</ele>
        <time>2022-05-01T08:53:51Z</time>
      </trkpt>
      <trkpt lat="45.06895" lon="0.7018">
        <ele>231</ele>
        <time>2022-05-01T08:53:52Z</time>
      </trkpt>
      <trkpt lat="45.06894" lon="0.70186">
        <ele>231.1</ele>
        <time>2022-05-01T08:53:53Z</time>
      </trkpt>
      <trkpt lat="45.06893" lon="0.70192">
        <ele>231.1</ele>
        <time>2022-05-01T08:53:54Z</time>
      </trkpt>
      <trkpt lat="45.06892" lon="0.70197">
        <ele>231.2</ele>
        <time>2022-05-01T08:53:55Z</time>
      </trkpt>
      <trkpt lat="45.0689" lon="0.702">
        <ele>231.2</ele>
        <time>2022-05-01T08:53:56Z</time>
      </trkpt>
      <trkpt lat="45.06888" lon="0.70204">
        <ele>231.3</ele>
        <time>2022-05-01T08:53:57Z</time>
      </trkpt>
      <trkpt lat="45.06883" lon="0.70212">
        <ele>231.3</ele>
        <time>2022-05-01T08:53:59Z</time>
      </trkpt>
      <trkpt lat="45.0688" lon="0.7023">
        <ele>231.3</ele>
        <time>2022-05-01T08:54:01Z</time>
      </trkpt>
      <trkpt lat="45.06881" lon="0.7024">
        <ele>231.4</ele>
        <time>2022-05-01T08:54:03Z</time>
      </trkpt>
      <trkpt lat="45.06882" lon="0.70244">
        <ele>231.4</ele>
        <time>2022-05-01T08:54:05Z</time>
      </trkpt>
      <trkpt lat="45.06882" lon="0.70244">
        <ele>231.2</ele>
        <time>2022-05-01T08:54:07Z</time>
      </trkpt>
      <trkpt lat="45.06879" lon="0.70252">
        <ele>232.5</ele>
        <time>2022-05-01T08:54:09Z</time>
      </trkpt>
      <trkpt lat="45.06913" lon="0.70283">
        <ele>231.9</ele>
        <time>2022-05-01T08:54:11Z</time>
      </trkpt>
      <trkpt lat="45.06915" lon="0.70295">
        <ele>231.7</ele>
        <time>2022-05-01T08:54:13Z</time>
      </trkpt>
      <trkpt lat="45.06916" lon="0.70307">
        <ele>232</ele>
        <time>2022-05-01T08:54:15Z</time>
      </trkpt>
      <trkpt lat="45.06917" lon="0.70313">
        <ele>232.7</ele>
        <time>2022-05-01T08:54:16Z</time>
      </trkpt>
      <trkpt lat="45.06918" lon="0.70319">
        <ele>232.5</ele>
        <time>2022-05-01T08:54:17Z</time>
      </trkpt>
      <trkpt lat="45.06919" lon="0.70326">
        <ele>232.3</ele>
        <time>2022-05-01T08:54:18Z</time>
      </trkpt>
      <trkpt lat="45.0692" lon="0.70332">
        <ele>232.7</ele>
        <time>2022-05-01T08:54:19Z</time>
      </trkpt>
      <trkpt lat="45.06922" lon="0.70339">
        <ele>232.5</ele>
        <time>2022-05-01T08:54:20Z</time>
      </trkpt>
      <trkpt lat="45.06924" lon="0.70345">
        <ele>232.3</ele>
        <time>2022-05-01T08:54:21Z</time>
      </trkpt>
      <trkpt lat="45.06926" lon="0.70359">
        <ele>232.5</ele>
        <time>2022-05-01T08:54:23Z</time>
      </trkpt>
      <trkpt lat="45.06929" lon="0.70365">
        <ele>232.4</ele>
        <time>2022-05-01T08:54:24Z</time>
      </trkpt>
      <trkpt lat="45.06931" lon="0.7037">
        <ele>232.1</ele>
        <time>2022-05-01T08:54:25Z</time>
      </trkpt>
      <trkpt lat="45.06933" lon="0.70381">
        <ele>232.2</ele>
        <time>2022-05-01T08:54:27Z</time>
      </trkpt>
      <trkpt lat="45.06935" lon="0.70385">
        <ele>232</ele>
        <time>2022-05-01T08:54:28Z</time>
      </trkpt>
      <trkpt lat="45.06937" lon="0.7039">
        <ele>231.8</ele>
        <time>2022-05-01T08:54:29Z</time>
      </trkpt>
      <trkpt lat="45.06938" lon="0.70403">
        <ele>231.8</ele>
        <time>2022-05-01T08:54:31Z</time>
      </trkpt>
      <trkpt lat="45.0694" lon="0.70414">
        <ele>231.6</ele>
        <time>2022-05-01T08:54:33Z</time>
      </trkpt>
      <trkpt lat="45.06938" lon="0.70426">
        <ele>231.7</ele>
        <time>2022-05-01T08:54:35Z</time>
      </trkpt>
      <trkpt lat="45.06936" lon="0.70436">
        <ele>231.8</ele>
        <time>2022-05-01T08:54:37Z</time>
      </trkpt>
      <trkpt lat="45.06934" lon="0.70445">
        <ele>231.6</ele>
        <time>2022-05-01T08:54:39Z</time>
      </trkpt>
      <trkpt lat="45.06935" lon="0.70456">
        <ele>231.7</ele>
        <time>2022-05-01T08:54:41Z</time>
      </trkpt>
      <trkpt lat="45.06936" lon="0.70464">
        <ele>231.5</ele>
        <time>2022-05-01T08:54:43Z</time>
      </trkpt>
      <trkpt lat="45.06937" lon="0.70472">
        <ele>231.5</ele>
        <time>2022-05-01T08:54:44Z</time>
      </trkpt>
      <trkpt lat="45.06939" lon="0.70473">
        <ele>231.5</ele>
        <time>2022-05-01T08:54:45Z</time>
      </trkpt>
      <trkpt lat="45.06942" lon="0.70473">
        <ele>231.6</ele>
        <time>2022-05-01T08:54:46Z</time>
      </trkpt>
      <trkpt lat="45.06945" lon="0.70473">
        <ele>231.6</ele>
        <time>2022-05-01T08:54:47Z</time>
      </trkpt>
      <trkpt lat="45.06952" lon="0.70474">
        <ele>231.7</ele>
        <time>2022-05-01T08:54:49Z</time>
      </trkpt>
      <trkpt lat="45.06959" lon="0.70475">
        <ele>231.7</ele>
        <time>2022-05-01T08:54:51Z</time>
      </trkpt>
      <trkpt lat="45.06966" lon="0.70477">
        <ele>231.8</ele>
        <time>2022-05-01T08:54:53Z</time>
      </trkpt>
      <trkpt lat="45.06972" lon="0.70478">
        <ele>231.8</ele>
        <time>2022-05-01T08:54:55Z</time>
      </trkpt>
      <trkpt lat="45.06978" lon="0.70479">
        <ele>231.8</ele>
        <time>2022-05-01T08:54:57Z</time>
      </trkpt>
      <trkpt lat="45.06981" lon="0.7048">
        <ele>231.8</ele>
        <time>2022-05-01T08:54:58Z</time>
      </trkpt>
      <trkpt lat="45.06984" lon="0.7048">
        <ele>231.8</ele>
        <time>2022-05-01T08:54:59Z</time>
      </trkpt>
      <trkpt lat="45.06988" lon="0.7048">
        <ele>231.8</ele>
        <time>2022-05-01T08:55:01Z</time>
      </trkpt>
      <trkpt lat="45.06994" lon="0.70481">
        <ele>231.8</ele>
        <time>2022-05-01T08:55:03Z</time>
      </trkpt>
      <trkpt lat="45.07" lon="0.70481">
        <ele>231.8</ele>
        <time>2022-05-01T08:55:05Z</time>
      </trkpt>
      <trkpt lat="45.07007" lon="0.70482">
        <ele>231.8</ele>
        <time>2022-05-01T08:55:07Z</time>
      </trkpt>
      <trkpt lat="45.07011" lon="0.70482">
        <ele>231.8</ele>
        <time>2022-05-01T08:55:09Z</time>
      </trkpt>
      <trkpt lat="45.07018" lon="0.70483">
        <ele>231.9</ele>
        <time>2022-05-01T08:55:11Z</time>
      </trkpt>
      <trkpt lat="45.07024" lon="0.70483">
        <ele>232</ele>
        <time>2022-05-01T08:55:13Z</time>
      </trkpt>
      <trkpt lat="45.0703" lon="0.70484">
        <ele>232</ele>
        <time>2022-05-01T08:55:15Z</time>
      </trkpt>
      <trkpt lat="45.07035" lon="0.7049">
        <ele>231.9</ele>
        <time>2022-05-01T08:55:16Z</time>
      </trkpt>
      <trkpt lat="45.07036" lon="0.70494">
        <ele>231.8</ele>
        <time>2022-05-01T08:55:17Z</time>
      </trkpt>
      <trkpt lat="45.07039" lon="0.70503">
        <ele>231.6</ele>
        <time>2022-05-01T08:55:19Z</time>
      </trkpt>
      <trkpt lat="45.07041" lon="0.70513">
        <ele>231.3</ele>
        <time>2022-05-01T08:55:21Z</time>
      </trkpt>
      <trkpt lat="45.07042" lon="0.70518">
        <ele>231.2</ele>
        <time>2022-05-01T08:55:22Z</time>
      </trkpt>
      <trkpt lat="45.07044" lon="0.70523">
        <ele>230.9</ele>
        <time>2022-05-01T08:55:23Z</time>
      </trkpt>
      <trkpt lat="45.07046" lon="0.70533">
        <ele>230.6</ele>
        <time>2022-05-01T08:55:25Z</time>
      </trkpt>
      <trkpt lat="45.07048" lon="0.70538">
        <ele>230.4</ele>
        <time>2022-05-01T08:55:26Z</time>
      </trkpt>
      <trkpt lat="45.07049" lon="0.70544">
        <ele>230.1</ele>
        <time>2022-05-01T08:55:27Z</time>
      </trkpt>
      <trkpt lat="45.07052" lon="0.70557">
        <ele>229.7</ele>
        <time>2022-05-01T08:55:29Z</time>
      </trkpt>
      <trkpt lat="45.07054" lon="0.70563">
        <ele>229.5</ele>
        <time>2022-05-01T08:55:30Z</time>
      </trkpt>
      <trkpt lat="45.07055" lon="0.70568">
        <ele>229.4</ele>
        <time>2022-05-01T08:55:31Z</time>
      </trkpt>
      <trkpt lat="45.07058" lon="0.70579">
        <ele>229.1</ele>
        <time>2022-05-01T08:55:33Z</time>
      </trkpt>
      <trkpt lat="45.07061" lon="0.70591">
        <ele>228.9</ele>
        <time>2022-05-01T08:55:35Z</time>
      </trkpt>
      <trkpt lat="45.07062" lon="0.70596">
        <ele>228.8</ele>
        <time>2022-05-01T08:55:36Z</time>
      </trkpt>
      <trkpt lat="45.07064" lon="0.70601">
        <ele>228.7</ele>
        <time>2022-05-01T08:55:37Z</time>
      </trkpt>
      <trkpt lat="45.07067" lon="0.70613">
        <ele>228.5</ele>
        <time>2022-05-01T08:55:39Z</time>
      </trkpt>
      <trkpt lat="45.0707" lon="0.70624">
        <ele>228.4</ele>
        <time>2022-05-01T08:55:41Z</time>
      </trkpt>
      <trkpt lat="45.07073" lon="0.70635">
        <ele>228.3</ele>
        <time>2022-05-01T08:55:43Z</time>
      </trkpt>
      <trkpt lat="45.07075" lon="0.70645">
        <ele>228.2</ele>
        <time>2022-05-01T08:55:45Z</time>
      </trkpt>
      <trkpt lat="45.07077" lon="0.7065">
        <ele>228.2</ele>
        <time>2022-05-01T08:55:46Z</time>
      </trkpt>
      <trkpt lat="45.07079" lon="0.70657">
        <ele>228.1</ele>
        <time>2022-05-01T08:55:47Z</time>
      </trkpt>
      <trkpt lat="45.07082" lon="0.70669">
        <ele>228</ele>
        <time>2022-05-01T08:55:49Z</time>
      </trkpt>
      <trkpt lat="45.07084" lon="0.70674">
        <ele>227.9</ele>
        <time>2022-05-01T08:55:50Z</time>
      </trkpt>
      <trkpt lat="45.07085" lon="0.7068">
        <ele>227.8</ele>
        <time>2022-05-01T08:55:51Z</time>
      </trkpt>
      <trkpt lat="45.07087" lon="0.70686">
        <ele>227.7</ele>
        <time>2022-05-01T08:55:52Z</time>
      </trkpt>
      <trkpt lat="45.07089" lon="0.70691">
        <ele>227.6</ele>
        <time>2022-05-01T08:55:53Z</time>
      </trkpt>
      <trkpt lat="45.0709" lon="0.70697">
        <ele>227.5</ele>
        <time>2022-05-01T08:55:54Z</time>
      </trkpt>
      <trkpt lat="45.07092" lon="0.70703">
        <ele>227.4</ele>
        <time>2022-05-01T08:55:55Z</time>
      </trkpt>
      <trkpt lat="45.07094" lon="0.70709">
        <ele>227.3</ele>
        <time>2022-05-01T08:55:56Z</time>
      </trkpt>
      <trkpt lat="45.07096" lon="0.70716">
        <ele>227.3</ele>
        <time>2022-05-01T08:55:57Z</time>
      </trkpt>
      <trkpt lat="45.07099" lon="0.70729">
        <ele>227.3</ele>
        <time>2022-05-01T08:55:59Z</time>
      </trkpt>
      <trkpt lat="45.07103" lon="0.70741">
        <ele>227.3</ele>
        <time>2022-05-01T08:56:01Z</time>
      </trkpt>
      <trkpt lat="45.07106" lon="0.70752">
        <ele>227.3</ele>
        <time>2022-05-01T08:56:03Z</time>
      </trkpt>
      <trkpt lat="45.07109" lon="0.70762">
        <ele>227.3</ele>
        <time>2022-05-01T08:56:05Z</time>
      </trkpt>
      <trkpt lat="45.07113" lon="0.70774">
        <ele>227.3</ele>
        <time>2022-05-01T08:56:07Z</time>
      </trkpt>
      <trkpt lat="45.07115" lon="0.7078">
        <ele>227.3</ele>
        <time>2022-05-01T08:56:08Z</time>
      </trkpt>
      <trkpt lat="45.07116" lon="0.70785">
        <ele>227.3</ele>
        <time>2022-05-01T08:56:09Z</time>
      </trkpt>
      <trkpt lat="45.0712" lon="0.70794">
        <ele>227.3</ele>
        <time>2022-05-01T08:56:11Z</time>
      </trkpt>
      <trkpt lat="45.07122" lon="0.708">
        <ele>227.3</ele>
        <time>2022-05-01T08:56:12Z</time>
      </trkpt>
      <trkpt lat="45.07124" lon="0.70805">
        <ele>227.3</ele>
        <time>2022-05-01T08:56:13Z</time>
      </trkpt>
      <trkpt lat="45.07126" lon="0.70811">
        <ele>227.3</ele>
        <time>2022-05-01T08:56:14Z</time>
      </trkpt>
      <trkpt lat="45.07128" lon="0.70816">
        <ele>227.4</ele>
        <time>2022-05-01T08:56:15Z</time>
      </trkpt>
      <trkpt lat="45.07129" lon="0.70821">
        <ele>227.4</ele>
        <time>2022-05-01T08:56:16Z</time>
      </trkpt>
      <trkpt lat="45.07131" lon="0.70826">
        <ele>227.5</ele>
        <time>2022-05-01T08:56:17Z</time>
      </trkpt>
      <trkpt lat="45.07135" lon="0.70836">
        <ele>227.6</ele>
        <time>2022-05-01T08:56:19Z</time>
      </trkpt>
      <trkpt lat="45.07138" lon="0.70847">
        <ele>227.8</ele>
        <time>2022-05-01T08:56:21Z</time>
      </trkpt>
      <trkpt lat="45.07142" lon="0.70857">
        <ele>228</ele>
        <time>2022-05-01T08:56:23Z</time>
      </trkpt>
      <trkpt lat="45.07145" lon="0.70865">
        <ele>228.2</ele>
        <time>2022-05-01T08:56:25Z</time>
      </trkpt>
      <trkpt lat="45.07148" lon="0.70873">
        <ele>228.5</ele>
        <time>2022-05-01T08:56:27Z</time>
      </trkpt>
      <trkpt lat="45.07151" lon="0.70883">
        <ele>228.9</ele>
        <time>2022-05-01T08:56:29Z</time>
      </trkpt>
      <trkpt lat="45.07156" lon="0.70892">
        <ele>229.3</ele>
        <time>2022-05-01T08:56:31Z</time>
      </trkpt>
      <trkpt lat="45.07159" lon="0.70898">
        <ele>229.6</ele>
        <time>2022-05-01T08:56:33Z</time>
      </trkpt>
      <trkpt lat="45.07162" lon="0.70902">
        <ele>229.8</ele>
        <time>2022-05-01T08:56:35Z</time>
      </trkpt>
      <trkpt lat="45.07166" lon="0.70909">
        <ele>230.2</ele>
        <time>2022-05-01T08:56:37Z</time>
      </trkpt>
      <trkpt lat="45.07171" lon="0.70917">
        <ele>230.5</ele>
        <time>2022-05-01T08:56:39Z</time>
      </trkpt>
      <trkpt lat="45.07175" lon="0.70924">
        <ele>230.9</ele>
        <time>2022-05-01T08:56:41Z</time>
      </trkpt>
      <trkpt lat="45.07177" lon="0.70928">
        <ele>231</ele>
        <time>2022-05-01T08:56:42Z</time>
      </trkpt>
      <trkpt lat="45.07179" lon="0.70931">
        <ele>231.2</ele>
        <time>2022-05-01T08:56:43Z</time>
      </trkpt>
      <trkpt lat="45.07183" lon="0.70937">
        <ele>231.4</ele>
        <time>2022-05-01T08:56:45Z</time>
      </trkpt>
      <trkpt lat="45.07185" lon="0.7094">
        <ele>231.5</ele>
        <time>2022-05-01T08:56:46Z</time>
      </trkpt>
      <trkpt lat="45.07187" lon="0.70943">
        <ele>231.6</ele>
        <time>2022-05-01T08:56:47Z</time>
      </trkpt>
      <trkpt lat="45.07189" lon="0.70946">
        <ele>231.8</ele>
        <time>2022-05-01T08:56:48Z</time>
      </trkpt>
      <trkpt lat="45.07191" lon="0.7095">
        <ele>231.9</ele>
        <time>2022-05-01T08:56:49Z</time>
      </trkpt>
      <trkpt lat="45.07193" lon="0.70953">
        <ele>232</ele>
        <time>2022-05-01T08:56:50Z</time>
      </trkpt>
      <trkpt lat="45.07196" lon="0.70957">
        <ele>232.1</ele>
        <time>2022-05-01T08:56:51Z</time>
      </trkpt>
      <trkpt lat="45.07198" lon="0.7096">
        <ele>232.2</ele>
        <time>2022-05-01T08:56:52Z</time>
      </trkpt>
      <trkpt lat="45.07201" lon="0.70963">
        <ele>232.2</ele>
        <time>2022-05-01T08:56:53Z</time>
      </trkpt>
      <trkpt lat="45.07206" lon="0.70969">
        <ele>232.4</ele>
        <time>2022-05-01T08:56:55Z</time>
      </trkpt>
      <trkpt lat="45.07212" lon="0.70975">
        <ele>232.5</ele>
        <time>2022-05-01T08:56:57Z</time>
      </trkpt>
      <trkpt lat="45.07215" lon="0.70979">
        <ele>232.6</ele>
        <time>2022-05-01T08:56:58Z</time>
      </trkpt>
      <trkpt lat="45.07217" lon="0.70981">
        <ele>232.6</ele>
        <time>2022-05-01T08:56:59Z</time>
      </trkpt>
      <trkpt lat="45.07224" lon="0.70985">
        <ele>232.8</ele>
        <time>2022-05-01T08:57:01Z</time>
      </trkpt>
      <trkpt lat="45.07231" lon="0.7099">
        <ele>232.9</ele>
        <time>2022-05-01T08:57:03Z</time>
      </trkpt>
      <trkpt lat="45.07234" lon="0.70993">
        <ele>233</ele>
        <time>2022-05-01T08:57:04Z</time>
      </trkpt>
      <trkpt lat="45.07237" lon="0.70996">
        <ele>233.1</ele>
        <time>2022-05-01T08:57:05Z</time>
      </trkpt>
      <trkpt lat="45.07242" lon="0.71001">
        <ele>233.2</ele>
        <time>2022-05-01T08:57:07Z</time>
      </trkpt>
      <trkpt lat="45.07248" lon="0.71006">
        <ele>233.3</ele>
        <time>2022-05-01T08:57:09Z</time>
      </trkpt>
      <trkpt lat="45.07253" lon="0.71011">
        <ele>233.4</ele>
        <time>2022-05-01T08:57:11Z</time>
      </trkpt>
      <trkpt lat="45.07258" lon="0.71016">
        <ele>233.6</ele>
        <time>2022-05-01T08:57:13Z</time>
      </trkpt>
      <trkpt lat="45.07263" lon="0.71021">
        <ele>233.7</ele>
        <time>2022-05-01T08:57:15Z</time>
      </trkpt>
      <trkpt lat="45.07268" lon="0.71025">
        <ele>233.8</ele>
        <time>2022-05-01T08:57:17Z</time>
      </trkpt>
      <trkpt lat="45.07274" lon="0.71031">
        <ele>233.9</ele>
        <time>2022-05-01T08:57:19Z</time>
      </trkpt>
      <trkpt lat="45.07279" lon="0.71035">
        <ele>234</ele>
        <time>2022-05-01T08:57:21Z</time>
      </trkpt>
      <trkpt lat="45.07281" lon="0.71037">
        <ele>234.1</ele>
        <time>2022-05-01T08:57:22Z</time>
      </trkpt>
      <trkpt lat="45.07284" lon="0.7104">
        <ele>234.2</ele>
        <time>2022-05-01T08:57:23Z</time>
      </trkpt>
      <trkpt lat="45.0729" lon="0.71045">
        <ele>234.3</ele>
        <time>2022-05-01T08:57:25Z</time>
      </trkpt>
      <trkpt lat="45.07295" lon="0.7105">
        <ele>234.5</ele>
        <time>2022-05-01T08:57:27Z</time>
      </trkpt>
      <trkpt lat="45.07298" lon="0.71053">
        <ele>234.6</ele>
        <time>2022-05-01T08:57:28Z</time>
      </trkpt>
      <trkpt lat="45.07301" lon="0.71056">
        <ele>234.7</ele>
        <time>2022-05-01T08:57:29Z</time>
      </trkpt>
      <trkpt lat="45.07307" lon="0.71062">
        <ele>234.9</ele>
        <time>2022-05-01T08:57:31Z</time>
      </trkpt>
      <trkpt lat="45.07313" lon="0.71068">
        <ele>235.1</ele>
        <time>2022-05-01T08:57:33Z</time>
      </trkpt>
      <trkpt lat="45.07316" lon="0.7107">
        <ele>235.2</ele>
        <time>2022-05-01T08:57:34Z</time>
      </trkpt>
      <trkpt lat="45.07319" lon="0.71073">
        <ele>235.3</ele>
        <time>2022-05-01T08:57:35Z</time>
      </trkpt>
      <trkpt lat="45.07325" lon="0.71078">
        <ele>235.5</ele>
        <time>2022-05-01T08:57:37Z</time>
      </trkpt>
      <trkpt lat="45.07331" lon="0.71084">
        <ele>235.7</ele>
        <time>2022-05-01T08:57:39Z</time>
      </trkpt>
      <trkpt lat="45.07336" lon="0.71089">
        <ele>235.9</ele>
        <time>2022-05-01T08:57:41Z</time>
      </trkpt>
      <trkpt lat="45.07341" lon="0.71094">
        <ele>236</ele>
        <time>2022-05-01T08:57:43Z</time>
      </trkpt>
      <trkpt lat="45.07345" lon="0.71097">
        <ele>236.1</ele>
        <time>2022-05-01T08:57:44Z</time>
      </trkpt>
      <trkpt lat="45.07348" lon="0.711">
        <ele>236.2</ele>
        <time>2022-05-01T08:57:45Z</time>
      </trkpt>
      <trkpt lat="45.07354" lon="0.71105">
        <ele>236.2</ele>
        <time>2022-05-01T08:57:47Z</time>
      </trkpt>
      <trkpt lat="45.07359" lon="0.71111">
        <ele>236.2</ele>
        <time>2022-05-01T08:57:49Z</time>
      </trkpt>
      <trkpt lat="45.07362" lon="0.71113">
        <ele>236.2</ele>
        <time>2022-05-01T08:57:50Z</time>
      </trkpt>
      <trkpt lat="45.07364" lon="0.71115">
        <ele>236.1</ele>
        <time>2022-05-01T08:57:51Z</time>
      </trkpt>
      <trkpt lat="45.07372" lon="0.71122">
        <ele>236</ele>
        <time>2022-05-01T08:57:53Z</time>
      </trkpt>
      <trkpt lat="45.0738" lon="0.71126">
        <ele>235.7</ele>
        <time>2022-05-01T08:57:55Z</time>
      </trkpt>
      <trkpt lat="45.07389" lon="0.71127">
        <ele>235.4</ele>
        <time>2022-05-01T08:57:57Z</time>
      </trkpt>
      <trkpt lat="45.074" lon="0.71128">
        <ele>234.8</ele>
        <time>2022-05-01T08:57:59Z</time>
      </trkpt>
      <trkpt lat="45.07412" lon="0.71129">
        <ele>233.9</ele>
        <time>2022-05-01T08:58:01Z</time>
      </trkpt>
      <trkpt lat="45.07418" lon="0.71129">
        <ele>233.5</ele>
        <time>2022-05-01T08:58:02Z</time>
      </trkpt>
      <trkpt lat="45.07424" lon="0.7113">
        <ele>233.1</ele>
        <time>2022-05-01T08:58:03Z</time>
      </trkpt>
      <trkpt lat="45.07431" lon="0.71131">
        <ele>232.6</ele>
        <time>2022-05-01T08:58:04Z</time>
      </trkpt>
      <trkpt lat="45.07437" lon="0.71133">
        <ele>232.1</ele>
        <time>2022-05-01T08:58:05Z</time>
      </trkpt>
      <trkpt lat="45.07444" lon="0.71136">
        <ele>231.7</ele>
        <time>2022-05-01T08:58:06Z</time>
      </trkpt>
      <trkpt lat="45.07451" lon="0.71139">
        <ele>231.2</ele>
        <time>2022-05-01T08:58:07Z</time>
      </trkpt>
      <trkpt lat="45.07465" lon="0.71147">
        <ele>230.1</ele>
        <time>2022-05-01T08:58:09Z</time>
      </trkpt>
      <trkpt lat="45.07471" lon="0.71153">
        <ele>229.5</ele>
        <time>2022-05-01T08:58:10Z</time>
      </trkpt>
      <trkpt lat="45.07478" lon="0.71159">
        <ele>229</ele>
        <time>2022-05-01T08:58:11Z</time>
      </trkpt>
      <trkpt lat="45.0749" lon="0.71171">
        <ele>228.1</ele>
        <time>2022-05-01T08:58:13Z</time>
      </trkpt>
      <trkpt lat="45.07503" lon="0.71183">
        <ele>227.3</ele>
        <time>2022-05-01T08:58:15Z</time>
      </trkpt>
      <trkpt lat="45.07509" lon="0.71189">
        <ele>226.9</ele>
        <time>2022-05-01T08:58:16Z</time>
      </trkpt>
      <trkpt lat="45.07515" lon="0.71195">
        <ele>226.5</ele>
        <time>2022-05-01T08:58:17Z</time>
      </trkpt>
      <trkpt lat="45.07528" lon="0.71207">
        <ele>225.9</ele>
        <time>2022-05-01T08:58:19Z</time>
      </trkpt>
      <trkpt lat="45.07539" lon="0.71217">
        <ele>225.4</ele>
        <time>2022-05-01T08:58:21Z</time>
      </trkpt>
      <trkpt lat="45.0755" lon="0.71228">
        <ele>224.9</ele>
        <time>2022-05-01T08:58:23Z</time>
      </trkpt>
      <trkpt lat="45.07561" lon="0.71238">
        <ele>224.4</ele>
        <time>2022-05-01T08:58:25Z</time>
      </trkpt>
      <trkpt lat="45.07566" lon="0.71243">
        <ele>224.2</ele>
        <time>2022-05-01T08:58:26Z</time>
      </trkpt>
      <trkpt lat="45.07572" lon="0.71248">
        <ele>224.1</ele>
        <time>2022-05-01T08:58:27Z</time>
      </trkpt>
      <trkpt lat="45.07583" lon="0.71258">
        <ele>223.8</ele>
        <time>2022-05-01T08:58:29Z</time>
      </trkpt>
      <trkpt lat="45.07593" lon="0.71261">
        <ele>223.6</ele>
        <time>2022-05-01T08:58:31Z</time>
      </trkpt>
      <trkpt lat="45.07598" lon="0.7126">
        <ele>223.6</ele>
        <time>2022-05-01T08:58:32Z</time>
      </trkpt>
      <trkpt lat="45.07603" lon="0.71258">
        <ele>223.5</ele>
        <time>2022-05-01T08:58:33Z</time>
      </trkpt>
      <trkpt lat="45.07613" lon="0.71255">
        <ele>223.4</ele>
        <time>2022-05-01T08:58:35Z</time>
      </trkpt>
      <trkpt lat="45.07623" lon="0.71251">
        <ele>223.2</ele>
        <time>2022-05-01T08:58:37Z</time>
      </trkpt>
      <trkpt lat="45.07629" lon="0.71249">
        <ele>223.1</ele>
        <time>2022-05-01T08:58:38Z</time>
      </trkpt>
      <trkpt lat="45.07634" lon="0.71247">
        <ele>222.9</ele>
        <time>2022-05-01T08:58:39Z</time>
      </trkpt>
      <trkpt lat="45.0764" lon="0.71246">
        <ele>222.7</ele>
        <time>2022-05-01T08:58:40Z</time>
      </trkpt>
      <trkpt lat="45.07646" lon="0.71243">
        <ele>222.4</ele>
        <time>2022-05-01T08:58:41Z</time>
      </trkpt>
      <trkpt lat="45.0765" lon="0.71237">
        <ele>222.2</ele>
        <time>2022-05-01T08:58:42Z</time>
      </trkpt>
      <trkpt lat="45.07654" lon="0.71231">
        <ele>222</ele>
        <time>2022-05-01T08:58:43Z</time>
      </trkpt>
      <trkpt lat="45.07663" lon="0.7122">
        <ele>221.4</ele>
        <time>2022-05-01T08:58:45Z</time>
      </trkpt>
      <trkpt lat="45.07674" lon="0.71211">
        <ele>220.8</ele>
        <time>2022-05-01T08:58:47Z</time>
      </trkpt>
      <trkpt lat="45.07686" lon="0.71202">
        <ele>220</ele>
        <time>2022-05-01T08:58:49Z</time>
      </trkpt>
      <trkpt lat="45.07692" lon="0.71197">
        <ele>219.5</ele>
        <time>2022-05-01T08:58:50Z</time>
      </trkpt>
      <trkpt lat="45.07698" lon="0.71192">
        <ele>219.1</ele>
        <time>2022-05-01T08:58:51Z</time>
      </trkpt>
      <trkpt lat="45.07703" lon="0.71188">
        <ele>218.6</ele>
        <time>2022-05-01T08:58:52Z</time>
      </trkpt>
      <trkpt lat="45.07709" lon="0.71185">
        <ele>218.2</ele>
        <time>2022-05-01T08:58:53Z</time>
      </trkpt>
      <trkpt lat="45.07716" lon="0.71183">
        <ele>217.7</ele>
        <time>2022-05-01T08:58:54Z</time>
      </trkpt>
      <trkpt lat="45.07722" lon="0.71182">
        <ele>217.3</ele>
        <time>2022-05-01T08:58:55Z</time>
      </trkpt>
      <trkpt lat="45.07728" lon="0.71181">
        <ele>216.9</ele>
        <time>2022-05-01T08:58:56Z</time>
      </trkpt>
      <trkpt lat="45.07735" lon="0.71181">
        <ele>216.5</ele>
        <time>2022-05-01T08:58:57Z</time>
      </trkpt>
      <trkpt lat="45.07742" lon="0.71181">
        <ele>216</ele>
        <time>2022-05-01T08:58:58Z</time>
      </trkpt>
      <trkpt lat="45.07749" lon="0.7118">
        <ele>215.6</ele>
        <time>2022-05-01T08:58:59Z</time>
      </trkpt>
      <trkpt lat="45.07756" lon="0.7118">
        <ele>215.2</ele>
        <time>2022-05-01T08:59:00Z</time>
      </trkpt>
      <trkpt lat="45.07763" lon="0.71178">
        <ele>214.9</ele>
        <time>2022-05-01T08:59:01Z</time>
      </trkpt>
      <trkpt lat="45.07769" lon="0.71174">
        <ele>214.6</ele>
        <time>2022-05-01T08:59:02Z</time>
      </trkpt>
      <trkpt lat="45.07775" lon="0.71171">
        <ele>214.4</ele>
        <time>2022-05-01T08:59:03Z</time>
      </trkpt>
      <trkpt lat="45.07787" lon="0.71163">
        <ele>213.9</ele>
        <time>2022-05-01T08:59:05Z</time>
      </trkpt>
      <trkpt lat="45.07793" lon="0.71158">
        <ele>213.7</ele>
        <time>2022-05-01T08:59:06Z</time>
      </trkpt>
      <trkpt lat="45.07799" lon="0.71153">
        <ele>213.5</ele>
        <time>2022-05-01T08:59:07Z</time>
      </trkpt>
      <trkpt lat="45.07809" lon="0.71144">
        <ele>213.1</ele>
        <time>2022-05-01T08:59:09Z</time>
      </trkpt>
      <trkpt lat="45.07814" lon="0.71139">
        <ele>212.9</ele>
        <time>2022-05-01T08:59:10Z</time>
      </trkpt>
      <trkpt lat="45.0782" lon="0.71133">
        <ele>212.6</ele>
        <time>2022-05-01T08:59:11Z</time>
      </trkpt>
      <trkpt lat="45.07825" lon="0.71128">
        <ele>212.3</ele>
        <time>2022-05-01T08:59:12Z</time>
      </trkpt>
      <trkpt lat="45.0783" lon="0.71122">
        <ele>212</ele>
        <time>2022-05-01T08:59:13Z</time>
      </trkpt>
      <trkpt lat="45.07835" lon="0.71117">
        <ele>211.7</ele>
        <time>2022-05-01T08:59:14Z</time>
      </trkpt>
      <trkpt lat="45.0784" lon="0.7111">
        <ele>211.4</ele>
        <time>2022-05-01T08:59:15Z</time>
      </trkpt>
      <trkpt lat="45.07843" lon="0.71102">
        <ele>211.1</ele>
        <time>2022-05-01T08:59:16Z</time>
      </trkpt>
      <trkpt lat="45.07847" lon="0.71095">
        <ele>210.8</ele>
        <time>2022-05-01T08:59:17Z</time>
      </trkpt>
      <trkpt lat="45.07855" lon="0.71081">
        <ele>210.3</ele>
        <time>2022-05-01T08:59:19Z</time>
      </trkpt>
      <trkpt lat="45.07865" lon="0.71068">
        <ele>209.9</ele>
        <time>2022-05-01T08:59:21Z</time>
      </trkpt>
      <trkpt lat="45.07871" lon="0.71062">
        <ele>209.7</ele>
        <time>2022-05-01T08:59:22Z</time>
      </trkpt>
      <trkpt lat="45.07876" lon="0.71058">
        <ele>209.5</ele>
        <time>2022-05-01T08:59:23Z</time>
      </trkpt>
      <trkpt lat="45.07885" lon="0.71051">
        <ele>209.1</ele>
        <time>2022-05-01T08:59:25Z</time>
      </trkpt>
      <trkpt lat="45.07896" lon="0.71044">
        <ele>208.8</ele>
        <time>2022-05-01T08:59:27Z</time>
      </trkpt>
      <trkpt lat="45.07907" lon="0.71038">
        <ele>208.4</ele>
        <time>2022-05-01T08:59:29Z</time>
      </trkpt>
      <trkpt lat="45.07917" lon="0.71033">
        <ele>208</ele>
        <time>2022-05-01T08:59:31Z</time>
      </trkpt>
      <trkpt lat="45.07929" lon="0.7103">
        <ele>207.6</ele>
        <time>2022-05-01T08:59:33Z</time>
      </trkpt>
      <trkpt lat="45.07935" lon="0.71029">
        <ele>207.4</ele>
        <time>2022-05-01T08:59:34Z</time>
      </trkpt>
      <trkpt lat="45.07942" lon="0.71027">
        <ele>207.1</ele>
        <time>2022-05-01T08:59:35Z</time>
      </trkpt>
      <trkpt lat="45.07948" lon="0.71026">
        <ele>206.9</ele>
        <time>2022-05-01T08:59:36Z</time>
      </trkpt>
      <trkpt lat="45.07955" lon="0.71024">
        <ele>206.5</ele>
        <time>2022-05-01T08:59:37Z</time>
      </trkpt>
      <trkpt lat="45.07969" lon="0.71021">
        <ele>205.9</ele>
        <time>2022-05-01T08:59:39Z</time>
      </trkpt>
      <trkpt lat="45.07975" lon="0.71019">
        <ele>205.6</ele>
        <time>2022-05-01T08:59:40Z</time>
      </trkpt>
      <trkpt lat="45.07981" lon="0.71016">
        <ele>205.4</ele>
        <time>2022-05-01T08:59:41Z</time>
      </trkpt>
      <trkpt lat="45.07994" lon="0.71011">
        <ele>204.8</ele>
        <time>2022-05-01T08:59:43Z</time>
      </trkpt>
      <trkpt lat="45.08" lon="0.71008">
        <ele>204.4</ele>
        <time>2022-05-01T08:59:44Z</time>
      </trkpt>
      <trkpt lat="45.08007" lon="0.71005">
        <ele>204.1</ele>
        <time>2022-05-01T08:59:45Z</time>
      </trkpt>
      <trkpt lat="45.08019" lon="0.71001">
        <ele>203.6</ele>
        <time>2022-05-01T08:59:47Z</time>
      </trkpt>
      <trkpt lat="45.08031" lon="0.70997">
        <ele>203.2</ele>
        <time>2022-05-01T08:59:49Z</time>
      </trkpt>
      <trkpt lat="45.08044" lon="0.70992">
        <ele>202.8</ele>
        <time>2022-05-01T08:59:51Z</time>
      </trkpt>
      <trkpt lat="45.0805" lon="0.7099">
        <ele>202.6</ele>
        <time>2022-05-01T08:59:52Z</time>
      </trkpt>
      <trkpt lat="45.08056" lon="0.70987">
        <ele>202.4</ele>
        <time>2022-05-01T08:59:53Z</time>
      </trkpt>
      <trkpt lat="45.08068" lon="0.70984">
        <ele>201.9</ele>
        <time>2022-05-01T08:59:55Z</time>
      </trkpt>
      <trkpt lat="45.08076" lon="0.70986">
        <ele>201.5</ele>
        <time>2022-05-01T08:59:56Z</time>
      </trkpt>
      <trkpt lat="45.08083" lon="0.70989">
        <ele>201.2</ele>
        <time>2022-05-01T08:59:57Z</time>
      </trkpt>
      <trkpt lat="45.08091" lon="0.7099">
        <ele>200.9</ele>
        <time>2022-05-01T08:59:58Z</time>
      </trkpt>
      <trkpt lat="45.08098" lon="0.70989">
        <ele>200.7</ele>
        <time>2022-05-01T08:59:59Z</time>
      </trkpt>
      <trkpt lat="45.08112" lon="0.70986">
        <ele>200.2</ele>
        <time>2022-05-01T09:00:01Z</time>
      </trkpt>
      <trkpt lat="45.08125" lon="0.70982">
        <ele>199.7</ele>
        <time>2022-05-01T09:00:03Z</time>
      </trkpt>
      <trkpt lat="45.08131" lon="0.70979">
        <ele>199.4</ele>
        <time>2022-05-01T09:00:04Z</time>
      </trkpt>
      <trkpt lat="45.08138" lon="0.70976">
        <ele>199</ele>
        <time>2022-05-01T09:00:05Z</time>
      </trkpt>
      <trkpt lat="45.08146" lon="0.70973">
        <ele>198.6</ele>
        <time>2022-05-01T09:00:06Z</time>
      </trkpt>
      <trkpt lat="45.08152" lon="0.70972">
        <ele>198.2</ele>
        <time>2022-05-01T09:00:07Z</time>
      </trkpt>
      <trkpt lat="45.08159" lon="0.70974">
        <ele>197.7</ele>
        <time>2022-05-01T09:00:08Z</time>
      </trkpt>
      <trkpt lat="45.08166" lon="0.70978">
        <ele>197.3</ele>
        <time>2022-05-01T09:00:09Z</time>
      </trkpt>
      <trkpt lat="45.08171" lon="0.70981">
        <ele>196.9</ele>
        <time>2022-05-01T09:00:10Z</time>
      </trkpt>
      <trkpt lat="45.08176" lon="0.70983">
        <ele>196.6</ele>
        <time>2022-05-01T09:00:11Z</time>
      </trkpt>
      <trkpt lat="45.08181" lon="0.70986">
        <ele>196.3</ele>
        <time>2022-05-01T09:00:12Z</time>
      </trkpt>
      <trkpt lat="45.08185" lon="0.70988">
        <ele>196.2</ele>
        <time>2022-05-01T09:00:13Z</time>
      </trkpt>
      <trkpt lat="45.08193" lon="0.70993">
        <ele>195.9</ele>
        <time>2022-05-01T09:00:15Z</time>
      </trkpt>
      <trkpt lat="45.08199" lon="0.70996">
        <ele>196</ele>
        <time>2022-05-01T09:00:17Z</time>
      </trkpt>
      <trkpt lat="45.08205" lon="0.70997">
        <ele>196</ele>
        <time>2022-05-01T09:00:18Z</time>
      </trkpt>
      <trkpt lat="45.08207" lon="0.70997">
        <ele>196.1</ele>
        <time>2022-05-01T09:00:19Z</time>
      </trkpt>
      <trkpt lat="45.08216" lon="0.70995">
        <ele>196.3</ele>
        <time>2022-05-01T09:00:21Z</time>
      </trkpt>
      <trkpt lat="45.08219" lon="0.70993">
        <ele>196.4</ele>
        <time>2022-05-01T09:00:22Z</time>
      </trkpt>
      <trkpt lat="45.08222" lon="0.70992">
        <ele>196.5</ele>
        <time>2022-05-01T09:00:23Z</time>
      </trkpt>
      <trkpt lat="45.08227" lon="0.70989">
        <ele>196.7</ele>
        <time>2022-05-01T09:00:25Z</time>
      </trkpt>
      <trkpt lat="45.0823" lon="0.70987">
        <ele>196.8</ele>
        <time>2022-05-01T09:00:26Z</time>
      </trkpt>
      <trkpt lat="45.08233" lon="0.70986">
        <ele>197</ele>
        <time>2022-05-01T09:00:27Z</time>
      </trkpt>
      <trkpt lat="45.08238" lon="0.70982">
        <ele>197.3</ele>
        <time>2022-05-01T09:00:29Z</time>
      </trkpt>
      <trkpt lat="45.08241" lon="0.7098">
        <ele>197.5</ele>
        <time>2022-05-01T09:00:30Z</time>
      </trkpt>
      <trkpt lat="45.08244" lon="0.70977">
        <ele>197.6</ele>
        <time>2022-05-01T09:00:31Z</time>
      </trkpt>
      <trkpt lat="45.08249" lon="0.70973">
        <ele>197.8</ele>
        <time>2022-05-01T09:00:33Z</time>
      </trkpt>
      <trkpt lat="45.08253" lon="0.70967">
        <ele>197.9</ele>
        <time>2022-05-01T09:00:35Z</time>
      </trkpt>
      <trkpt lat="45.08255" lon="0.70963">
        <ele>197.8</ele>
        <time>2022-05-01T09:00:36Z</time>
      </trkpt>
      <trkpt lat="45.08258" lon="0.70959">
        <ele>197.8</ele>
        <time>2022-05-01T09:00:37Z</time>
      </trkpt>
      <trkpt lat="45.0826" lon="0.70955">
        <ele>197.6</ele>
        <time>2022-05-01T09:00:38Z</time>
      </trkpt>
      <trkpt lat="45.08263" lon="0.7095">
        <ele>197.4</ele>
        <time>2022-05-01T09:00:39Z</time>
      </trkpt>
      <trkpt lat="45.08268" lon="0.70937">
        <ele>196.7</ele>
        <time>2022-05-01T09:00:41Z</time>
      </trkpt>
      <trkpt lat="45.08271" lon="0.70929">
        <ele>196.3</ele>
        <time>2022-05-01T09:00:42Z</time>
      </trkpt>
      <trkpt lat="45.08274" lon="0.7092">
        <ele>195.7</ele>
        <time>2022-05-01T09:00:43Z</time>
      </trkpt>
      <trkpt lat="45.08281" lon="0.709">
        <ele>194.3</ele>
        <time>2022-05-01T09:00:45Z</time>
      </trkpt>
      <trkpt lat="45.08286" lon="0.70875">
        <ele>192.4</ele>
        <time>2022-05-01T09:00:47Z</time>
      </trkpt>
      <trkpt lat="45.08293" lon="0.70847">
        <ele>189.9</ele>
        <time>2022-05-01T09:00:49Z</time>
      </trkpt>
      <trkpt lat="45.083" lon="0.70817">
        <ele>187.7</ele>
        <time>2022-05-01T09:00:51Z</time>
      </trkpt>
      <trkpt lat="45.08303" lon="0.70804">
        <ele>186.8</ele>
        <time>2022-05-01T09:00:52Z</time>
      </trkpt>
      <trkpt lat="45.08305" lon="0.70791">
        <ele>185.9</ele>
        <time>2022-05-01T09:00:53Z</time>
      </trkpt>
      <trkpt lat="45.08311" lon="0.70766">
        <ele>184.6</ele>
        <time>2022-05-01T09:00:55Z</time>
      </trkpt>
      <trkpt lat="45.08313" lon="0.70753">
        <ele>184.2</ele>
        <time>2022-05-01T09:00:56Z</time>
      </trkpt>
      <trkpt lat="45.08316" lon="0.70743">
        <ele>183.9</ele>
        <time>2022-05-01T09:00:57Z</time>
      </trkpt>
      <trkpt lat="45.08317" lon="0.70735">
        <ele>183.8</ele>
        <time>2022-05-01T09:00:58Z</time>
      </trkpt>
      <trkpt lat="45.08319" lon="0.70728">
        <ele>183.6</ele>
        <time>2022-05-01T09:00:59Z</time>
      </trkpt>
      <trkpt lat="45.08321" lon="0.70719">
        <ele>183.4</ele>
        <time>2022-05-01T09:01:01Z</time>
      </trkpt>
      <trkpt lat="45.08323" lon="0.7071">
        <ele>183.2</ele>
        <time>2022-05-01T09:01:03Z</time>
      </trkpt>
      <trkpt lat="45.08325" lon="0.70699">
        <ele>182.9</ele>
        <time>2022-05-01T09:01:05Z</time>
      </trkpt>
      <trkpt lat="45.08326" lon="0.70694">
        <ele>182.7</ele>
        <time>2022-05-01T09:01:06Z</time>
      </trkpt>
      <trkpt lat="45.08327" lon="0.70688">
        <ele>182.5</ele>
        <time>2022-05-01T09:01:07Z</time>
      </trkpt>
      <trkpt lat="45.08329" lon="0.70682">
        <ele>182.4</ele>
        <time>2022-05-01T09:01:08Z</time>
      </trkpt>
      <trkpt lat="45.08332" lon="0.70675">
        <ele>182.4</ele>
        <time>2022-05-01T09:01:09Z</time>
      </trkpt>
      <trkpt lat="45.08342" lon="0.70664">
        <ele>182.1</ele>
        <time>2022-05-01T09:01:11Z</time>
      </trkpt>
      <trkpt lat="45.08351" lon="0.70653">
        <ele>181.7</ele>
        <time>2022-05-01T09:01:13Z</time>
      </trkpt>
      <trkpt lat="45.08356" lon="0.7064">
        <ele>181.3</ele>
        <time>2022-05-01T09:01:15Z</time>
      </trkpt>
      <trkpt lat="45.08361" lon="0.70627">
        <ele>180.9</ele>
        <time>2022-05-01T09:01:17Z</time>
      </trkpt>
      <trkpt lat="45.08364" lon="0.70621">
        <ele>180.7</ele>
        <time>2022-05-01T09:01:18Z</time>
      </trkpt>
      <trkpt lat="45.08367" lon="0.70615">
        <ele>180.5</ele>
        <time>2022-05-01T09:01:19Z</time>
      </trkpt>
      <trkpt lat="45.08373" lon="0.70609">
        <ele>180.5</ele>
        <time>2022-05-01T09:01:20Z</time>
      </trkpt>
      <trkpt lat="45.08377" lon="0.70604">
        <ele>180.4</ele>
        <time>2022-05-01T09:01:21Z</time>
      </trkpt>
      <trkpt lat="45.08387" lon="0.706">
        <ele>180.2</ele>
        <time>2022-05-01T09:01:23Z</time>
      </trkpt>
      <trkpt lat="45.08394" lon="0.70595">
        <ele>180.2</ele>
        <time>2022-05-01T09:01:25Z</time>
      </trkpt>
      <trkpt lat="45.08399" lon="0.70591">
        <ele>180.2</ele>
        <time>2022-05-01T09:01:27Z</time>
      </trkpt>
      <trkpt lat="45.08403" lon="0.70584">
        <ele>180.4</ele>
        <time>2022-05-01T09:01:29Z</time>
      </trkpt>
      <trkpt lat="45.08404" lon="0.7058">
        <ele>180.4</ele>
        <time>2022-05-01T09:01:30Z</time>
      </trkpt>
      <trkpt lat="45.08406" lon="0.70576">
        <ele>180.5</ele>
        <time>2022-05-01T09:01:31Z</time>
      </trkpt>
      <trkpt lat="45.08409" lon="0.70569">
        <ele>180.8</ele>
        <time>2022-05-01T09:01:33Z</time>
      </trkpt>
      <trkpt lat="45.08411" lon="0.70561">
        <ele>181</ele>
        <time>2022-05-01T09:01:35Z</time>
      </trkpt>
      <trkpt lat="45.08412" lon="0.70555">
        <ele>181.2</ele>
        <time>2022-05-01T09:01:37Z</time>
      </trkpt>
      <trkpt lat="45.08412" lon="0.70547">
        <ele>181.5</ele>
        <time>2022-05-01T09:01:39Z</time>
      </trkpt>
      <trkpt lat="45.08413" lon="0.70545">
        <ele>181.7</ele>
        <time>2022-05-01T09:01:40Z</time>
      </trkpt>
      <trkpt lat="45.08413" lon="0.70541">
        <ele>181.8</ele>
        <time>2022-05-01T09:01:41Z</time>
      </trkpt>
      <trkpt lat="45.08413" lon="0.70535">
        <ele>182.1</ele>
        <time>2022-05-01T09:01:43Z</time>
      </trkpt>
      <trkpt lat="45.08414" lon="0.70531">
        <ele>182.4</ele>
        <time>2022-05-01T09:01:44Z</time>
      </trkpt>
      <trkpt lat="45.08414" lon="0.70527">
        <ele>182.6</ele>
        <time>2022-05-01T09:01:45Z</time>
      </trkpt>
      <trkpt lat="45.08414" lon="0.7052">
        <ele>183.1</ele>
        <time>2022-05-01T09:01:47Z</time>
      </trkpt>
      <trkpt lat="45.08415" lon="0.70514">
        <ele>183.5</ele>
        <time>2022-05-01T09:01:49Z</time>
      </trkpt>
      <trkpt lat="45.08415" lon="0.70512">
        <ele>183.6</ele>
        <time>2022-05-01T09:01:50Z</time>
      </trkpt>
      <trkpt lat="45.08415" lon="0.70509">
        <ele>183.9</ele>
        <time>2022-05-01T09:01:51Z</time>
      </trkpt>
      <trkpt lat="45.08416" lon="0.70504">
        <ele>184.3</ele>
        <time>2022-05-01T09:01:53Z</time>
      </trkpt>
      <trkpt lat="45.08417" lon="0.70499">
        <ele>184.7</ele>
        <time>2022-05-01T09:01:55Z</time>
      </trkpt>
      <trkpt lat="45.08418" lon="0.70494">
        <ele>185.2</ele>
        <time>2022-05-01T09:01:57Z</time>
      </trkpt>
      <trkpt lat="45.08419" lon="0.7049">
        <ele>185.5</ele>
        <time>2022-05-01T09:01:59Z</time>
      </trkpt>
      <trkpt lat="45.08419" lon="0.70486">
        <ele>185.9</ele>
        <time>2022-05-01T09:02:01Z</time>
      </trkpt>
      <trkpt lat="45.0842" lon="0.70482">
        <ele>186.3</ele>
        <time>2022-05-01T09:02:03Z</time>
      </trkpt>
      <trkpt lat="45.08421" lon="0.70477">
        <ele>186.8</ele>
        <time>2022-05-01T09:02:05Z</time>
      </trkpt>
      <trkpt lat="45.08423" lon="0.70473">
        <ele>187.3</ele>
        <time>2022-05-01T09:02:07Z</time>
      </trkpt>
      <trkpt lat="45.08424" lon="0.70469">
        <ele>187.9</ele>
        <time>2022-05-01T09:02:09Z</time>
      </trkpt>
      <trkpt lat="45.08426" lon="0.70465">
        <ele>188.4</ele>
        <time>2022-05-01T09:02:11Z</time>
      </trkpt>
      <trkpt lat="45.08427" lon="0.70463">
        <ele>188.7</ele>
        <time>2022-05-01T09:02:12Z</time>
      </trkpt>
      <trkpt lat="45.08428" lon="0.70461">
        <ele>188.9</ele>
        <time>2022-05-01T09:02:13Z</time>
      </trkpt>
      <trkpt lat="45.08428" lon="0.7046">
        <ele>189.2</ele>
        <time>2022-05-01T09:02:14Z</time>
      </trkpt>
      <trkpt lat="45.08429" lon="0.70459">
        <ele>189.4</ele>
        <time>2022-05-01T09:02:15Z</time>
      </trkpt>
      <trkpt lat="45.08431" lon="0.70455">
        <ele>189.9</ele>
        <time>2022-05-01T09:02:17Z</time>
      </trkpt>
      <trkpt lat="45.08431" lon="0.70454">
        <ele>190.2</ele>
        <time>2022-05-01T09:02:18Z</time>
      </trkpt>
      <trkpt lat="45.08432" lon="0.70452">
        <ele>190.4</ele>
        <time>2022-05-01T09:02:19Z</time>
      </trkpt>
      <trkpt lat="45.08433" lon="0.70449">
        <ele>190.8</ele>
        <time>2022-05-01T09:02:21Z</time>
      </trkpt>
      <trkpt lat="45.08434" lon="0.70446">
        <ele>191.2</ele>
        <time>2022-05-01T09:02:23Z</time>
      </trkpt>
      <trkpt lat="45.08435" lon="0.70444">
        <ele>191.6</ele>
        <time>2022-05-01T09:02:24Z</time>
      </trkpt>
      <trkpt lat="45.08436" lon="0.70442">
        <ele>191.9</ele>
        <time>2022-05-01T09:02:25Z</time>
      </trkpt>
      <trkpt lat="45.08437" lon="0.70439">
        <ele>192.3</ele>
        <time>2022-05-01T09:02:27Z</time>
      </trkpt>
      <trkpt lat="45.08438" lon="0.70437">
        <ele>192.5</ele>
        <time>2022-05-01T09:02:28Z</time>
      </trkpt>
      <trkpt lat="45.08438" lon="0.70436">
        <ele>192.7</ele>
        <time>2022-05-01T09:02:29Z</time>
      </trkpt>
      <trkpt lat="45.08439" lon="0.70434">
        <ele>192.9</ele>
        <time>2022-05-01T09:02:30Z</time>
      </trkpt>
      <trkpt lat="45.08439" lon="0.70432">
        <ele>193.1</ele>
        <time>2022-05-01T09:02:31Z</time>
      </trkpt>
      <trkpt lat="45.08441" lon="0.70429">
        <ele>193.5</ele>
        <time>2022-05-01T09:02:33Z</time>
      </trkpt>
      <trkpt lat="45.08441" lon="0.70427">
        <ele>193.8</ele>
        <time>2022-05-01T09:02:35Z</time>
      </trkpt>
      <trkpt lat="45.08443" lon="0.70422">
        <ele>194.3</ele>
        <time>2022-05-01T09:02:37Z</time>
      </trkpt>
      <trkpt lat="45.08445" lon="0.70419">
        <ele>194.7</ele>
        <time>2022-05-01T09:02:39Z</time>
      </trkpt>
      <trkpt lat="45.08446" lon="0.70416">
        <ele>195.1</ele>
        <time>2022-05-01T09:02:41Z</time>
      </trkpt>
      <trkpt lat="45.08448" lon="0.70413">
        <ele>195.5</ele>
        <time>2022-05-01T09:02:43Z</time>
      </trkpt>
      <trkpt lat="45.08449" lon="0.7041">
        <ele>195.8</ele>
        <time>2022-05-01T09:02:45Z</time>
      </trkpt>
      <trkpt lat="45.08451" lon="0.70406">
        <ele>196.2</ele>
        <time>2022-05-01T09:02:47Z</time>
      </trkpt>
      <trkpt lat="45.08452" lon="0.70403">
        <ele>196.6</ele>
        <time>2022-05-01T09:02:49Z</time>
      </trkpt>
      <trkpt lat="45.08454" lon="0.704">
        <ele>197</ele>
        <time>2022-05-01T09:02:51Z</time>
      </trkpt>
      <trkpt lat="45.08454" lon="0.704">
        <ele>197</ele>
        <time>2022-05-01T09:02:52Z</time>
      </trkpt>
      <trkpt lat="45.08455" lon="0.70398">
        <ele>197.3</ele>
        <time>2022-05-01T09:02:53Z</time>
      </trkpt>
      <trkpt lat="45.08456" lon="0.70396">
        <ele>197.5</ele>
        <time>2022-05-01T09:02:54Z</time>
      </trkpt>
      <trkpt lat="45.08456" lon="0.70394">
        <ele>197.7</ele>
        <time>2022-05-01T09:02:55Z</time>
      </trkpt>
      <trkpt lat="45.08458" lon="0.70391">
        <ele>198.1</ele>
        <time>2022-05-01T09:02:57Z</time>
      </trkpt>
      <trkpt lat="45.08459" lon="0.70389">
        <ele>198.3</ele>
        <time>2022-05-01T09:02:58Z</time>
      </trkpt>
      <trkpt lat="45.0846" lon="0.70387">
        <ele>198.5</ele>
        <time>2022-05-01T09:02:59Z</time>
      </trkpt>
      <trkpt lat="45.08462" lon="0.70383">
        <ele>199</ele>
        <time>2022-05-01T09:03:01Z</time>
      </trkpt>
      <trkpt lat="45.08463" lon="0.70379">
        <ele>199.4</ele>
        <time>2022-05-01T09:03:03Z</time>
      </trkpt>
      <trkpt lat="45.08465" lon="0.70376">
        <ele>199.8</ele>
        <time>2022-05-01T09:03:05Z</time>
      </trkpt>
      <trkpt lat="45.08466" lon="0.70373">
        <ele>200.2</ele>
        <time>2022-05-01T09:03:07Z</time>
      </trkpt>
      <trkpt lat="45.08468" lon="0.70369">
        <ele>200.6</ele>
        <time>2022-05-01T09:03:09Z</time>
      </trkpt>
      <trkpt lat="45.08469" lon="0.70367">
        <ele>200.8</ele>
        <time>2022-05-01T09:03:10Z</time>
      </trkpt>
      <trkpt lat="45.0847" lon="0.70365">
        <ele>201.1</ele>
        <time>2022-05-01T09:03:11Z</time>
      </trkpt>
      <trkpt lat="45.08472" lon="0.7036">
        <ele>201.5</ele>
        <time>2022-05-01T09:03:13Z</time>
      </trkpt>
      <trkpt lat="45.08473" lon="0.70359">
        <ele>201.7</ele>
        <time>2022-05-01T09:03:14Z</time>
      </trkpt>
      <trkpt lat="45.08474" lon="0.70357">
        <ele>201.9</ele>
        <time>2022-05-01T09:03:15Z</time>
      </trkpt>
      <trkpt lat="45.08475" lon="0.70353">
        <ele>202.3</ele>
        <time>2022-05-01T09:03:17Z</time>
      </trkpt>
      <trkpt lat="45.08477" lon="0.70351">
        <ele>202.5</ele>
        <time>2022-05-01T09:03:19Z</time>
      </trkpt>
      <trkpt lat="45.08478" lon="0.70347">
        <ele>202.9</ele>
        <time>2022-05-01T09:03:21Z</time>
      </trkpt>
      <trkpt lat="45.0848" lon="0.70344">
        <ele>203.2</ele>
        <time>2022-05-01T09:03:23Z</time>
      </trkpt>
      <trkpt lat="45.08481" lon="0.70342">
        <ele>203.5</ele>
        <time>2022-05-01T09:03:25Z</time>
      </trkpt>
      <trkpt lat="45.08483" lon="0.70337">
        <ele>204</ele>
        <time>2022-05-01T09:03:27Z</time>
      </trkpt>
      <trkpt lat="45.08486" lon="0.70332">
        <ele>204.5</ele>
        <time>2022-05-01T09:03:29Z</time>
      </trkpt>
      <trkpt lat="45.08487" lon="0.70331">
        <ele>204.7</ele>
        <time>2022-05-01T09:03:30Z</time>
      </trkpt>
      <trkpt lat="45.08488" lon="0.70329">
        <ele>204.9</ele>
        <time>2022-05-01T09:03:31Z</time>
      </trkpt>
      <trkpt lat="45.0849" lon="0.70327">
        <ele>205.3</ele>
        <time>2022-05-01T09:03:33Z</time>
      </trkpt>
      <trkpt lat="45.08492" lon="0.70325">
        <ele>205.5</ele>
        <time>2022-05-01T09:03:35Z</time>
      </trkpt>
      <trkpt lat="45.08494" lon="0.70323">
        <ele>205.9</ele>
        <time>2022-05-01T09:03:37Z</time>
      </trkpt>
      <trkpt lat="45.08494" lon="0.70321">
        <ele>206</ele>
        <time>2022-05-01T09:03:38Z</time>
      </trkpt>
      <trkpt lat="45.08496" lon="0.7032">
        <ele>206.2</ele>
        <time>2022-05-01T09:03:39Z</time>
      </trkpt>
      <trkpt lat="45.08498" lon="0.70317">
        <ele>206.7</ele>
        <time>2022-05-01T09:03:41Z</time>
      </trkpt>
      <trkpt lat="45.08502" lon="0.70312">
        <ele>207.4</ele>
        <time>2022-05-01T09:03:43Z</time>
      </trkpt>
      <trkpt lat="45.08503" lon="0.70311">
        <ele>207.7</ele>
        <time>2022-05-01T09:03:44Z</time>
      </trkpt>
      <trkpt lat="45.08504" lon="0.70309">
        <ele>207.9</ele>
        <time>2022-05-01T09:03:45Z</time>
      </trkpt>
      <trkpt lat="45.08506" lon="0.70307">
        <ele>208.3</ele>
        <time>2022-05-01T09:03:47Z</time>
      </trkpt>
      <trkpt lat="45.08508" lon="0.70304">
        <ele>208.7</ele>
        <time>2022-05-01T09:03:49Z</time>
      </trkpt>
      <trkpt lat="45.0851" lon="0.70302">
        <ele>209.1</ele>
        <time>2022-05-01T09:03:51Z</time>
      </trkpt>
      <trkpt lat="45.08512" lon="0.70299">
        <ele>209.5</ele>
        <time>2022-05-01T09:03:53Z</time>
      </trkpt>
      <trkpt lat="45.08514" lon="0.70297">
        <ele>209.9</ele>
        <time>2022-05-01T09:03:55Z</time>
      </trkpt>
      <trkpt lat="45.08516" lon="0.70294">
        <ele>210.3</ele>
        <time>2022-05-01T09:03:57Z</time>
      </trkpt>
      <trkpt lat="45.08518" lon="0.70292">
        <ele>210.7</ele>
        <time>2022-05-01T09:03:59Z</time>
      </trkpt>
      <trkpt lat="45.08519" lon="0.70291">
        <ele>210.9</ele>
        <time>2022-05-01T09:04:00Z</time>
      </trkpt>
      <trkpt lat="45.0852" lon="0.70289">
        <ele>211.1</ele>
        <time>2022-05-01T09:04:01Z</time>
      </trkpt>
      <trkpt lat="45.08522" lon="0.70286">
        <ele>211.4</ele>
        <time>2022-05-01T09:04:03Z</time>
      </trkpt>
      <trkpt lat="45.08524" lon="0.70283">
        <ele>211.8</ele>
        <time>2022-05-01T09:04:05Z</time>
      </trkpt>
      <trkpt lat="45.08526" lon="0.70279">
        <ele>212.2</ele>
        <time>2022-05-01T09:04:07Z</time>
      </trkpt>
      <trkpt lat="45.08529" lon="0.70274">
        <ele>212.7</ele>
        <time>2022-05-01T09:04:09Z</time>
      </trkpt>
      <trkpt lat="45.08531" lon="0.7027">
        <ele>213.1</ele>
        <time>2022-05-01T09:04:11Z</time>
      </trkpt>
      <trkpt lat="45.08534" lon="0.70266">
        <ele>213.4</ele>
        <time>2022-05-01T09:04:13Z</time>
      </trkpt>
      <trkpt lat="45.08535" lon="0.70263">
        <ele>213.6</ele>
        <time>2022-05-01T09:04:14Z</time>
      </trkpt>
      <trkpt lat="45.08536" lon="0.70261">
        <ele>213.7</ele>
        <time>2022-05-01T09:04:15Z</time>
      </trkpt>
      <trkpt lat="45.08538" lon="0.70257">
        <ele>214</ele>
        <time>2022-05-01T09:04:17Z</time>
      </trkpt>
      <trkpt lat="45.08541" lon="0.70253">
        <ele>214.4</ele>
        <time>2022-05-01T09:04:19Z</time>
      </trkpt>
      <trkpt lat="45.08544" lon="0.70249">
        <ele>214.7</ele>
        <time>2022-05-01T09:04:21Z</time>
      </trkpt>
      <trkpt lat="45.08546" lon="0.70245">
        <ele>214.9</ele>
        <time>2022-05-01T09:04:23Z</time>
      </trkpt>
      <trkpt lat="45.08549" lon="0.70242">
        <ele>215.2</ele>
        <time>2022-05-01T09:04:25Z</time>
      </trkpt>
      <trkpt lat="45.08552" lon="0.70239">
        <ele>215.4</ele>
        <time>2022-05-01T09:04:27Z</time>
      </trkpt>
      <trkpt lat="45.08553" lon="0.70237">
        <ele>215.5</ele>
        <time>2022-05-01T09:04:28Z</time>
      </trkpt>
      <trkpt lat="45.08555" lon="0.70235">
        <ele>215.6</ele>
        <time>2022-05-01T09:04:29Z</time>
      </trkpt>
      <trkpt lat="45.08557" lon="0.70233">
        <ele>215.8</ele>
        <time>2022-05-01T09:04:31Z</time>
      </trkpt>
      <trkpt lat="45.08559" lon="0.70231">
        <ele>215.9</ele>
        <time>2022-05-01T09:04:33Z</time>
      </trkpt>
      <trkpt lat="45.08562" lon="0.70234">
        <ele>216.5</ele>
        <time>2022-05-01T09:04:34Z</time>
      </trkpt>
      <trkpt lat="45.08562" lon="0.70236">
        <ele>216.6</ele>
        <time>2022-05-01T09:04:35Z</time>
      </trkpt>
      <trkpt lat="45.08562" lon="0.70238">
        <ele>216.6</ele>
        <time>2022-05-01T09:04:37Z</time>
      </trkpt>
      <trkpt lat="45.08562" lon="0.70238">
        <ele>216.6</ele>
        <time>2022-05-01T09:04:38Z</time>
      </trkpt>
      <trkpt lat="45.08562" lon="0.70242">
        <ele>216.8</ele>
        <time>2022-05-01T09:04:55Z</time>
      </trkpt>
      <trkpt lat="45.08562" lon="0.70245">
        <ele>216.8</ele>
        <time>2022-05-01T09:04:56Z</time>
      </trkpt>
      <trkpt lat="45.08562" lon="0.70248">
        <ele>216.9</ele>
        <time>2022-05-01T09:04:57Z</time>
      </trkpt>
      <trkpt lat="45.08562" lon="0.70254">
        <ele>217.1</ele>
        <time>2022-05-01T09:04:59Z</time>
      </trkpt>
      <trkpt lat="45.08563" lon="0.7026">
        <ele>217.2</ele>
        <time>2022-05-01T09:05:01Z</time>
      </trkpt>
      <trkpt lat="45.08563" lon="0.70266">
        <ele>217.3</ele>
        <time>2022-05-01T09:05:03Z</time>
      </trkpt>
      <trkpt lat="45.08563" lon="0.70272">
        <ele>217.5</ele>
        <time>2022-05-01T09:05:05Z</time>
      </trkpt>
      <trkpt lat="45.08563" lon="0.70279">
        <ele>217.6</ele>
        <time>2022-05-01T09:05:07Z</time>
      </trkpt>
      <trkpt lat="45.08564" lon="0.70286">
        <ele>217.7</ele>
        <time>2022-05-01T09:05:09Z</time>
      </trkpt>
      <trkpt lat="45.08564" lon="0.70292">
        <ele>217.8</ele>
        <time>2022-05-01T09:05:11Z</time>
      </trkpt>
      <trkpt lat="45.08564" lon="0.70299">
        <ele>217.9</ele>
        <time>2022-05-01T09:05:13Z</time>
      </trkpt>
      <trkpt lat="45.08564" lon="0.70303">
        <ele>218</ele>
        <time>2022-05-01T09:05:14Z</time>
      </trkpt>
      <trkpt lat="45.08564" lon="0.70306">
        <ele>218.1</ele>
        <time>2022-05-01T09:05:15Z</time>
      </trkpt>
      <trkpt lat="45.08565" lon="0.70312">
        <ele>218.2</ele>
        <time>2022-05-01T09:05:17Z</time>
      </trkpt>
      <trkpt lat="45.08565" lon="0.70319">
        <ele>218.3</ele>
        <time>2022-05-01T09:05:19Z</time>
      </trkpt>
      <trkpt lat="45.08565" lon="0.70326">
        <ele>218.5</ele>
        <time>2022-05-01T09:05:21Z</time>
      </trkpt>
      <trkpt lat="45.08565" lon="0.70332">
        <ele>218.6</ele>
        <time>2022-05-01T09:05:23Z</time>
      </trkpt>
      <trkpt lat="45.08566" lon="0.70335">
        <ele>218.7</ele>
        <time>2022-05-01T09:05:24Z</time>
      </trkpt>
      <trkpt lat="45.08566" lon="0.70339">
        <ele>218.7</ele>
        <time>2022-05-01T09:05:25Z</time>
      </trkpt>
      <trkpt lat="45.08566" lon="0.70345">
        <ele>218.9</ele>
        <time>2022-05-01T09:05:27Z</time>
      </trkpt>
      <trkpt lat="45.08569" lon="0.70352">
        <ele>219</ele>
        <time>2022-05-01T09:05:29Z</time>
      </trkpt>
      <trkpt lat="45.08571" lon="0.70354">
        <ele>219.1</ele>
        <time>2022-05-01T09:05:30Z</time>
      </trkpt>
      <trkpt lat="45.08573" lon="0.70356">
        <ele>219.1</ele>
        <time>2022-05-01T09:05:31Z</time>
      </trkpt>
      <trkpt lat="45.08576" lon="0.7036">
        <ele>219.2</ele>
        <time>2022-05-01T09:05:33Z</time>
      </trkpt>
      <trkpt lat="45.0858" lon="0.70364">
        <ele>219.3</ele>
        <time>2022-05-01T09:05:35Z</time>
      </trkpt>
      <trkpt lat="45.08583" lon="0.70369">
        <ele>219.3</ele>
        <time>2022-05-01T09:05:37Z</time>
      </trkpt>
      <trkpt lat="45.08585" lon="0.70371">
        <ele>219.4</ele>
        <time>2022-05-01T09:05:38Z</time>
      </trkpt>
      <trkpt lat="45.08587" lon="0.70373">
        <ele>219.4</ele>
        <time>2022-05-01T09:05:39Z</time>
      </trkpt>
      <trkpt lat="45.08591" lon="0.70377">
        <ele>219.4</ele>
        <time>2022-05-01T09:05:41Z</time>
      </trkpt>
      <trkpt lat="45.08594" lon="0.70381">
        <ele>219.4</ele>
        <time>2022-05-01T09:05:43Z</time>
      </trkpt>
      <trkpt lat="45.08596" lon="0.70383">
        <ele>219.5</ele>
        <time>2022-05-01T09:05:44Z</time>
      </trkpt>
      <trkpt lat="45.08598" lon="0.70386">
        <ele>219.5</ele>
        <time>2022-05-01T09:05:45Z</time>
      </trkpt>
      <trkpt lat="45.08603" lon="0.7039">
        <ele>219.5</ele>
        <time>2022-05-01T09:05:47Z</time>
      </trkpt>
      <trkpt lat="45.08605" lon="0.70399">
        <ele>219.7</ele>
        <time>2022-05-01T09:05:49Z</time>
      </trkpt>
      <trkpt lat="45.08606" lon="0.70403">
        <ele>219.8</ele>
        <time>2022-05-01T09:05:50Z</time>
      </trkpt>
      <trkpt lat="45.08606" lon="0.70407">
        <ele>219.9</ele>
        <time>2022-05-01T09:05:51Z</time>
      </trkpt>
      <trkpt lat="45.08607" lon="0.70414">
        <ele>220.1</ele>
        <time>2022-05-01T09:05:53Z</time>
      </trkpt>
      <trkpt lat="45.08607" lon="0.70421">
        <ele>220.2</ele>
        <time>2022-05-01T09:05:55Z</time>
      </trkpt>
      <trkpt lat="45.08608" lon="0.70428">
        <ele>220.4</ele>
        <time>2022-05-01T09:05:57Z</time>
      </trkpt>
      <trkpt lat="45.08609" lon="0.70431">
        <ele>220.4</ele>
        <time>2022-05-01T09:05:58Z</time>
      </trkpt>
      <trkpt lat="45.08609" lon="0.70435">
        <ele>220.5</ele>
        <time>2022-05-01T09:05:59Z</time>
      </trkpt>
      <trkpt lat="45.0861" lon="0.70442">
        <ele>220.6</ele>
        <time>2022-05-01T09:06:01Z</time>
      </trkpt>
      <trkpt lat="45.0861" lon="0.7045">
        <ele>220.7</ele>
        <time>2022-05-01T09:06:03Z</time>
      </trkpt>
      <trkpt lat="45.08611" lon="0.70457">
        <ele>220.8</ele>
        <time>2022-05-01T09:06:05Z</time>
      </trkpt>
      <trkpt lat="45.08612" lon="0.70465">
        <ele>220.9</ele>
        <time>2022-05-01T09:06:07Z</time>
      </trkpt>
      <trkpt lat="45.08613" lon="0.70473">
        <ele>221.1</ele>
        <time>2022-05-01T09:06:09Z</time>
      </trkpt>
      <trkpt lat="45.08613" lon="0.70481">
        <ele>221.2</ele>
        <time>2022-05-01T09:06:11Z</time>
      </trkpt>
      <trkpt lat="45.08614" lon="0.70488">
        <ele>221.4</ele>
        <time>2022-05-01T09:06:13Z</time>
      </trkpt>
      <trkpt lat="45.08614" lon="0.70492">
        <ele>221.5</ele>
        <time>2022-05-01T09:06:14Z</time>
      </trkpt>
      <trkpt lat="45.08614" lon="0.70496">
        <ele>221.7</ele>
        <time>2022-05-01T09:06:15Z</time>
      </trkpt>
      <trkpt lat="45.08615" lon="0.70504">
        <ele>222</ele>
        <time>2022-05-01T09:06:17Z</time>
      </trkpt>
      <trkpt lat="45.08615" lon="0.70512">
        <ele>222.2</ele>
        <time>2022-05-01T09:06:19Z</time>
      </trkpt>
      <trkpt lat="45.08616" lon="0.7052">
        <ele>222.5</ele>
        <time>2022-05-01T09:06:21Z</time>
      </trkpt>
      <trkpt lat="45.08616" lon="0.70524">
        <ele>222.7</ele>
        <time>2022-05-01T09:06:22Z</time>
      </trkpt>
      <trkpt lat="45.08616" lon="0.70528">
        <ele>222.8</ele>
        <time>2022-05-01T09:06:23Z</time>
      </trkpt>
      <trkpt lat="45.08617" lon="0.70536">
        <ele>223.1</ele>
        <time>2022-05-01T09:06:25Z</time>
      </trkpt>
      <trkpt lat="45.08617" lon="0.70544">
        <ele>223.4</ele>
        <time>2022-05-01T09:06:27Z</time>
      </trkpt>
      <trkpt lat="45.08618" lon="0.70553">
        <ele>223.7</ele>
        <time>2022-05-01T09:06:29Z</time>
      </trkpt>
      <trkpt lat="45.08618" lon="0.7056">
        <ele>224</ele>
        <time>2022-05-01T09:06:31Z</time>
      </trkpt>
      <trkpt lat="45.08619" lon="0.70568">
        <ele>224.4</ele>
        <time>2022-05-01T09:06:33Z</time>
      </trkpt>
      <trkpt lat="45.08619" lon="0.70576">
        <ele>224.7</ele>
        <time>2022-05-01T09:06:35Z</time>
      </trkpt>
      <trkpt lat="45.08621" lon="0.70584">
        <ele>225.1</ele>
        <time>2022-05-01T09:06:37Z</time>
      </trkpt>
      <trkpt lat="45.08624" lon="0.70591">
        <ele>225.4</ele>
        <time>2022-05-01T09:06:39Z</time>
      </trkpt>
      <trkpt lat="45.08625" lon="0.70593">
        <ele>225.5</ele>
        <time>2022-05-01T09:06:40Z</time>
      </trkpt>
      <trkpt lat="45.08626" lon="0.70596">
        <ele>225.6</ele>
        <time>2022-05-01T09:06:41Z</time>
      </trkpt>
      <trkpt lat="45.0863" lon="0.70602">
        <ele>225.9</ele>
        <time>2022-05-01T09:06:43Z</time>
      </trkpt>
      <trkpt lat="45.08634" lon="0.70608">
        <ele>226.1</ele>
        <time>2022-05-01T09:06:45Z</time>
      </trkpt>
      <trkpt lat="45.08639" lon="0.70611">
        <ele>226.3</ele>
        <time>2022-05-01T09:06:47Z</time>
      </trkpt>
      <trkpt lat="45.08644" lon="0.70613">
        <ele>226.5</ele>
        <time>2022-05-01T09:06:49Z</time>
      </trkpt>
      <trkpt lat="45.08647" lon="0.70613">
        <ele>226.5</ele>
        <time>2022-05-01T09:06:50Z</time>
      </trkpt>
      <trkpt lat="45.0865" lon="0.70614">
        <ele>226.6</ele>
        <time>2022-05-01T09:06:51Z</time>
      </trkpt>
      <trkpt lat="45.08657" lon="0.70614">
        <ele>226.6</ele>
        <time>2022-05-01T09:06:53Z</time>
      </trkpt>
      <trkpt lat="45.08665" lon="0.70615">
        <ele>226.5</ele>
        <time>2022-05-01T09:06:55Z</time>
      </trkpt>
      <trkpt lat="45.08668" lon="0.70615">
        <ele>226.5</ele>
        <time>2022-05-01T09:06:56Z</time>
      </trkpt>
      <trkpt lat="45.08671" lon="0.70615">
        <ele>226.4</ele>
        <time>2022-05-01T09:06:57Z</time>
      </trkpt>
      <trkpt lat="45.08677" lon="0.70619">
        <ele>226.3</ele>
        <time>2022-05-01T09:06:59Z</time>
      </trkpt>
      <trkpt lat="45.08684" lon="0.70624">
        <ele>226.1</ele>
        <time>2022-05-01T09:07:01Z</time>
      </trkpt>
      <trkpt lat="45.08689" lon="0.70634">
        <ele>225.9</ele>
        <time>2022-05-01T09:07:03Z</time>
      </trkpt>
      <trkpt lat="45.0869" lon="0.70647">
        <ele>225.8</ele>
        <time>2022-05-01T09:07:05Z</time>
      </trkpt>
      <trkpt lat="45.08689" lon="0.70659">
        <ele>225.7</ele>
        <time>2022-05-01T09:07:07Z</time>
      </trkpt>
      <trkpt lat="45.08688" lon="0.7067">
        <ele>225.6</ele>
        <time>2022-05-01T09:07:09Z</time>
      </trkpt>
      <trkpt lat="45.08687" lon="0.70682">
        <ele>225.5</ele>
        <time>2022-05-01T09:07:11Z</time>
      </trkpt>
      <trkpt lat="45.08687" lon="0.70694">
        <ele>225.4</ele>
        <time>2022-05-01T09:07:13Z</time>
      </trkpt>
      <trkpt lat="45.08686" lon="0.70705">
        <ele>225.3</ele>
        <time>2022-05-01T09:07:15Z</time>
      </trkpt>
      <trkpt lat="45.08686" lon="0.70717">
        <ele>225.3</ele>
        <time>2022-05-01T09:07:17Z</time>
      </trkpt>
      <trkpt lat="45.08686" lon="0.70728">
        <ele>225.3</ele>
        <time>2022-05-01T09:07:19Z</time>
      </trkpt>
      <trkpt lat="45.08686" lon="0.7074">
        <ele>225.3</ele>
        <time>2022-05-01T09:07:21Z</time>
      </trkpt>
      <trkpt lat="45.08686" lon="0.70751">
        <ele>225.4</ele>
        <time>2022-05-01T09:07:23Z</time>
      </trkpt>
      <trkpt lat="45.08687" lon="0.70762">
        <ele>225.5</ele>
        <time>2022-05-01T09:07:25Z</time>
      </trkpt>
      <trkpt lat="45.08688" lon="0.70772">
        <ele>225.7</ele>
        <time>2022-05-01T09:07:27Z</time>
      </trkpt>
      <trkpt lat="45.08689" lon="0.70782">
        <ele>225.8</ele>
        <time>2022-05-01T09:07:29Z</time>
      </trkpt>
      <trkpt lat="45.0869" lon="0.70792">
        <ele>226</ele>
        <time>2022-05-01T09:07:31Z</time>
      </trkpt>
      <trkpt lat="45.08691" lon="0.70801">
        <ele>226.2</ele>
        <time>2022-05-01T09:07:33Z</time>
      </trkpt>
      <trkpt lat="45.08693" lon="0.70812">
        <ele>226.4</ele>
        <time>2022-05-01T09:07:35Z</time>
      </trkpt>
      <trkpt lat="45.08694" lon="0.70822">
        <ele>226.7</ele>
        <time>2022-05-01T09:07:37Z</time>
      </trkpt>
      <trkpt lat="45.08695" lon="0.70833">
        <ele>226.9</ele>
        <time>2022-05-01T09:07:39Z</time>
      </trkpt>
      <trkpt lat="45.08695" lon="0.70843">
        <ele>227.1</ele>
        <time>2022-05-01T09:07:41Z</time>
      </trkpt>
      <trkpt lat="45.08696" lon="0.70853">
        <ele>227.4</ele>
        <time>2022-05-01T09:07:43Z</time>
      </trkpt>
      <trkpt lat="45.08696" lon="0.70863">
        <ele>227.7</ele>
        <time>2022-05-01T09:07:45Z</time>
      </trkpt>
      <trkpt lat="45.08696" lon="0.70867">
        <ele>227.8</ele>
        <time>2022-05-01T09:07:46Z</time>
      </trkpt>
      <trkpt lat="45.08697" lon="0.70872">
        <ele>227.9</ele>
        <time>2022-05-01T09:07:47Z</time>
      </trkpt>
      <trkpt lat="45.08698" lon="0.70883">
        <ele>228.2</ele>
        <time>2022-05-01T09:07:49Z</time>
      </trkpt>
      <trkpt lat="45.08701" lon="0.70892">
        <ele>228.5</ele>
        <time>2022-05-01T09:07:51Z</time>
      </trkpt>
      <trkpt lat="45.08702" lon="0.70897">
        <ele>228.6</ele>
        <time>2022-05-01T09:07:52Z</time>
      </trkpt>
      <trkpt lat="45.08704" lon="0.70901">
        <ele>228.8</ele>
        <time>2022-05-01T09:07:53Z</time>
      </trkpt>
      <trkpt lat="45.08707" lon="0.7091">
        <ele>229</ele>
        <time>2022-05-01T09:07:55Z</time>
      </trkpt>
      <trkpt lat="45.08711" lon="0.70919">
        <ele>229.2</ele>
        <time>2022-05-01T09:07:57Z</time>
      </trkpt>
      <trkpt lat="45.08715" lon="0.70929">
        <ele>229.4</ele>
        <time>2022-05-01T09:07:59Z</time>
      </trkpt>
      <trkpt lat="45.08719" lon="0.70938">
        <ele>229.5</ele>
        <time>2022-05-01T09:08:01Z</time>
      </trkpt>
      <trkpt lat="45.08722" lon="0.70948">
        <ele>229.7</ele>
        <time>2022-05-01T09:08:03Z</time>
      </trkpt>
      <trkpt lat="45.08726" lon="0.70957">
        <ele>229.9</ele>
        <time>2022-05-01T09:08:05Z</time>
      </trkpt>
      <trkpt lat="45.08728" lon="0.70962">
        <ele>230</ele>
        <time>2022-05-01T09:08:06Z</time>
      </trkpt>
      <trkpt lat="45.0873" lon="0.70966">
        <ele>230.1</ele>
        <time>2022-05-01T09:08:07Z</time>
      </trkpt>
      <trkpt lat="45.08734" lon="0.70976">
        <ele>230.2</ele>
        <time>2022-05-01T09:08:09Z</time>
      </trkpt>
      <trkpt lat="45.08737" lon="0.70984">
        <ele>230.4</ele>
        <time>2022-05-01T09:08:11Z</time>
      </trkpt>
      <trkpt lat="45.08741" lon="0.70994">
        <ele>230.5</ele>
        <time>2022-05-01T09:08:13Z</time>
      </trkpt>
      <trkpt lat="45.08745" lon="0.71003">
        <ele>230.7</ele>
        <time>2022-05-01T09:08:15Z</time>
      </trkpt>
      <trkpt lat="45.08748" lon="0.71012">
        <ele>230.8</ele>
        <time>2022-05-01T09:08:17Z</time>
      </trkpt>
      <trkpt lat="45.08752" lon="0.7102">
        <ele>231</ele>
        <time>2022-05-01T09:08:19Z</time>
      </trkpt>
      <trkpt lat="45.08756" lon="0.7103">
        <ele>231.1</ele>
        <time>2022-05-01T09:08:21Z</time>
      </trkpt>
      <trkpt lat="45.08758" lon="0.71036">
        <ele>231.2</ele>
        <time>2022-05-01T09:08:23Z</time>
      </trkpt>
      <trkpt lat="45.08761" lon="0.71037">
        <ele>231.3</ele>
        <time>2022-05-01T09:08:24Z</time>
      </trkpt>
      <trkpt lat="45.08764" lon="0.71036">
        <ele>231.4</ele>
        <time>2022-05-01T09:08:25Z</time>
      </trkpt>
      <trkpt lat="45.08768" lon="0.71038">
        <ele>231.4</ele>
        <time>2022-05-01T09:08:27Z</time>
      </trkpt>
      <trkpt lat="45.08776" lon="0.71035">
        <ele>231.5</ele>
        <time>2022-05-01T09:08:29Z</time>
      </trkpt>
      <trkpt lat="45.08784" lon="0.71031">
        <ele>231.1</ele>
        <time>2022-05-01T09:08:31Z</time>
      </trkpt>
      <trkpt lat="45.08785" lon="0.71027">
        <ele>231.1</ele>
        <time>2022-05-01T09:08:32Z</time>
      </trkpt>
      <trkpt lat="45.08786" lon="0.71023">
        <ele>231.1</ele>
        <time>2022-05-01T09:08:33Z</time>
      </trkpt>
      <trkpt lat="45.08789" lon="0.71011">
        <ele>230.6</ele>
        <time>2022-05-01T09:08:35Z</time>
      </trkpt>
      <trkpt lat="45.0879" lon="0.71006">
        <ele>230.6</ele>
        <time>2022-05-01T09:08:36Z</time>
      </trkpt>
      <trkpt lat="45.08791" lon="0.71">
        <ele>230.7</ele>
        <time>2022-05-01T09:08:37Z</time>
      </trkpt>
      <trkpt lat="45.08793" lon="0.70987">
        <ele>229.9</ele>
        <time>2022-05-01T09:08:39Z</time>
      </trkpt>
      <trkpt lat="45.08796" lon="0.7097">
        <ele>229.3</ele>
        <time>2022-05-01T09:08:41Z</time>
      </trkpt>
      <trkpt lat="45.08798" lon="0.70951">
        <ele>228.5</ele>
        <time>2022-05-01T09:08:43Z</time>
      </trkpt>
      <trkpt lat="45.08798" lon="0.70941">
        <ele>227.5</ele>
        <time>2022-05-01T09:08:44Z</time>
      </trkpt>
      <trkpt lat="45.08797" lon="0.7093">
        <ele>226.7</ele>
        <time>2022-05-01T09:08:45Z</time>
      </trkpt>
      <trkpt lat="45.08794" lon="0.70906">
        <ele>225.5</ele>
        <time>2022-05-01T09:08:47Z</time>
      </trkpt>
      <trkpt lat="45.08794" lon="0.70896">
        <ele>224.3</ele>
        <time>2022-05-01T09:08:48Z</time>
      </trkpt>
      <trkpt lat="45.08795" lon="0.70886">
        <ele>224.6</ele>
        <time>2022-05-01T09:08:49Z</time>
      </trkpt>
      <trkpt lat="45.088" lon="0.70869">
        <ele>223.3</ele>
        <time>2022-05-01T09:08:51Z</time>
      </trkpt>
      <trkpt lat="45.08807" lon="0.70863">
        <ele>223.3</ele>
        <time>2022-05-01T09:08:52Z</time>
      </trkpt>
      <trkpt lat="45.08812" lon="0.70856">
        <ele>222</ele>
        <time>2022-05-01T09:08:53Z</time>
      </trkpt>
      <trkpt lat="45.08821" lon="0.70838">
        <ele>221</ele>
        <time>2022-05-01T09:08:55Z</time>
      </trkpt>
      <trkpt lat="45.08824" lon="0.70829">
        <ele>221</ele>
        <time>2022-05-01T09:08:56Z</time>
      </trkpt>
      <trkpt lat="45.08824" lon="0.70821">
        <ele>220</ele>
        <time>2022-05-01T09:08:57Z</time>
      </trkpt>
      <trkpt lat="45.08824" lon="0.70811">
        <ele>220</ele>
        <time>2022-05-01T09:08:58Z</time>
      </trkpt>
      <trkpt lat="45.08826" lon="0.70802">
        <ele>219.2</ele>
        <time>2022-05-01T09:08:59Z</time>
      </trkpt>
      <trkpt lat="45.0883" lon="0.70794">
        <ele>219.2</ele>
        <time>2022-05-01T09:09:00Z</time>
      </trkpt>
      <trkpt lat="45.08835" lon="0.70785">
        <ele>218.7</ele>
        <time>2022-05-01T09:09:01Z</time>
      </trkpt>
      <trkpt lat="45.08841" lon="0.70777">
        <ele>218.8</ele>
        <time>2022-05-01T09:09:02Z</time>
      </trkpt>
      <trkpt lat="45.08846" lon="0.7077">
        <ele>218.3</ele>
        <time>2022-05-01T09:09:03Z</time>
      </trkpt>
      <trkpt lat="45.08852" lon="0.70762">
        <ele>218.3</ele>
        <time>2022-05-01T09:09:04Z</time>
      </trkpt>
      <trkpt lat="45.08858" lon="0.70758">
        <ele>217.7</ele>
        <time>2022-05-01T09:09:05Z</time>
      </trkpt>
      <trkpt lat="45.08869" lon="0.70747">
        <ele>217.6</ele>
        <time>2022-05-01T09:09:07Z</time>
      </trkpt>
      <trkpt lat="45.08878" lon="0.7073">
        <ele>217</ele>
        <time>2022-05-01T09:09:09Z</time>
      </trkpt>
      <trkpt lat="45.08881" lon="0.70722">
        <ele>215.9</ele>
        <time>2022-05-01T09:09:10Z</time>
      </trkpt>
      <trkpt lat="45.08883" lon="0.70713">
        <ele>216</ele>
        <time>2022-05-01T09:09:11Z</time>
      </trkpt>
      <trkpt lat="45.08887" lon="0.70696">
        <ele>215.3</ele>
        <time>2022-05-01T09:09:13Z</time>
      </trkpt>
      <trkpt lat="45.0889" lon="0.70686">
        <ele>214.6</ele>
        <time>2022-05-01T09:09:14Z</time>
      </trkpt>
      <trkpt lat="45.08893" lon="0.70677">
        <ele>214.4</ele>
        <time>2022-05-01T09:09:15Z</time>
      </trkpt>
      <trkpt lat="45.08899" lon="0.70659">
        <ele>213.4</ele>
        <time>2022-05-01T09:09:17Z</time>
      </trkpt>
      <trkpt lat="45.08902" lon="0.70649">
        <ele>212.4</ele>
        <time>2022-05-01T09:09:18Z</time>
      </trkpt>
      <trkpt lat="45.08905" lon="0.70639">
        <ele>211.1</ele>
        <time>2022-05-01T09:09:19Z</time>
      </trkpt>
      <trkpt lat="45.08911" lon="0.70616">
        <ele>209.9</ele>
        <time>2022-05-01T09:09:21Z</time>
      </trkpt>
      <trkpt lat="45.08917" lon="0.70592">
        <ele>209.7</ele>
        <time>2022-05-01T09:09:23Z</time>
      </trkpt>
      <trkpt lat="45.08923" lon="0.70569">
        <ele>209.1</ele>
        <time>2022-05-01T09:09:25Z</time>
      </trkpt>
      <trkpt lat="45.08929" lon="0.70546">
        <ele>209.9</ele>
        <time>2022-05-01T09:09:27Z</time>
      </trkpt>
      <trkpt lat="45.08935" lon="0.70522">
        <ele>209.3</ele>
        <time>2022-05-01T09:09:29Z</time>
      </trkpt>
      <trkpt lat="45.08939" lon="0.70497">
        <ele>208.3</ele>
        <time>2022-05-01T09:09:31Z</time>
      </trkpt>
      <trkpt lat="45.08938" lon="0.70472">
        <ele>208.2</ele>
        <time>2022-05-01T09:09:33Z</time>
      </trkpt>
      <trkpt lat="45.08938" lon="0.70459">
        <ele>208.2</ele>
        <time>2022-05-01T09:09:34Z</time>
      </trkpt>
      <trkpt lat="45.08937" lon="0.70447">
        <ele>208.1</ele>
        <time>2022-05-01T09:09:35Z</time>
      </trkpt>
      <trkpt lat="45.08934" lon="0.70421">
        <ele>207.8</ele>
        <time>2022-05-01T09:09:37Z</time>
      </trkpt>
      <trkpt lat="45.08932" lon="0.70409">
        <ele>207.5</ele>
        <time>2022-05-01T09:09:38Z</time>
      </trkpt>
      <trkpt lat="45.08932" lon="0.70397">
        <ele>207.4</ele>
        <time>2022-05-01T09:09:39Z</time>
      </trkpt>
      <trkpt lat="45.08933" lon="0.70375">
        <ele>207.2</ele>
        <time>2022-05-01T09:09:41Z</time>
      </trkpt>
      <trkpt lat="45.08934" lon="0.70355">
        <ele>206.6</ele>
        <time>2022-05-01T09:09:43Z</time>
      </trkpt>
      <trkpt lat="45.08932" lon="0.70344">
        <ele>206</ele>
        <time>2022-05-01T09:09:44Z</time>
      </trkpt>
      <trkpt lat="45.0893" lon="0.70333">
        <ele>206</ele>
        <time>2022-05-01T09:09:45Z</time>
      </trkpt>
      <trkpt lat="45.08924" lon="0.70312">
        <ele>202.3</ele>
        <time>2022-05-01T09:09:47Z</time>
      </trkpt>
      <trkpt lat="45.08918" lon="0.70293">
        <ele>201.2</ele>
        <time>2022-05-01T09:09:49Z</time>
      </trkpt>
      <trkpt lat="45.08915" lon="0.70282">
        <ele>199.7</ele>
        <time>2022-05-01T09:09:50Z</time>
      </trkpt>
      <trkpt lat="45.08912" lon="0.70271">
        <ele>198.7</ele>
        <time>2022-05-01T09:09:51Z</time>
      </trkpt>
      <trkpt lat="45.08906" lon="0.70252">
        <ele>197.3</ele>
        <time>2022-05-01T09:09:53Z</time>
      </trkpt>
      <trkpt lat="45.08905" lon="0.70242">
        <ele>195.6</ele>
        <time>2022-05-01T09:09:54Z</time>
      </trkpt>
      <trkpt lat="45.08904" lon="0.70231">
        <ele>195.6</ele>
        <time>2022-05-01T09:09:55Z</time>
      </trkpt>
      <trkpt lat="45.08904" lon="0.70219">
        <ele>193.9</ele>
        <time>2022-05-01T09:09:56Z</time>
      </trkpt>
      <trkpt lat="45.08904" lon="0.70211">
        <ele>193.9</ele>
        <time>2022-05-01T09:09:57Z</time>
      </trkpt>
      <trkpt lat="45.08904" lon="0.702">
        <ele>192.7</ele>
        <time>2022-05-01T09:09:58Z</time>
      </trkpt>
      <trkpt lat="45.08902" lon="0.70192">
        <ele>191.1</ele>
        <time>2022-05-01T09:09:59Z</time>
      </trkpt>
      <trkpt lat="45.08902" lon="0.70183">
        <ele>191.2</ele>
        <time>2022-05-01T09:10:00Z</time>
      </trkpt>
      <trkpt lat="45.08904" lon="0.70178">
        <ele>190.6</ele>
        <time>2022-05-01T09:10:01Z</time>
      </trkpt>
      <trkpt lat="45.08908" lon="0.70176">
        <ele>190.6</ele>
        <time>2022-05-01T09:10:02Z</time>
      </trkpt>
      <trkpt lat="45.08913" lon="0.70175">
        <ele>188.7</ele>
        <time>2022-05-01T09:10:03Z</time>
      </trkpt>
      <trkpt lat="45.08921" lon="0.70173">
        <ele>188.3</ele>
        <time>2022-05-01T09:10:05Z</time>
      </trkpt>
      <trkpt lat="45.08925" lon="0.70171">
        <ele>188.3</ele>
        <time>2022-05-01T09:10:06Z</time>
      </trkpt>
      <trkpt lat="45.08929" lon="0.7017">
        <ele>188.3</ele>
        <time>2022-05-01T09:10:07Z</time>
      </trkpt>
      <trkpt lat="45.08934" lon="0.70166">
        <ele>188.4</ele>
        <time>2022-05-01T09:10:09Z</time>
      </trkpt>
      <trkpt lat="45.08935" lon="0.70164">
        <ele>188.4</ele>
        <time>2022-05-01T09:10:10Z</time>
      </trkpt>
      <trkpt lat="45.08937" lon="0.70161">
        <ele>188.4</ele>
        <time>2022-05-01T09:10:11Z</time>
      </trkpt>
      <trkpt lat="45.08941" lon="0.70158">
        <ele>187.1</ele>
        <time>2022-05-01T09:10:13Z</time>
      </trkpt>
      <trkpt lat="45.08946" lon="0.70155">
        <ele>187.1</ele>
        <time>2022-05-01T09:10:15Z</time>
      </trkpt>
      <trkpt lat="45.0895" lon="0.70152">
        <ele>187.2</ele>
        <time>2022-05-01T09:10:16Z</time>
      </trkpt>
      <trkpt lat="45.08951" lon="0.70149">
        <ele>187.2</ele>
        <time>2022-05-01T09:10:17Z</time>
      </trkpt>
      <trkpt lat="45.08954" lon="0.70146">
        <ele>188.3</ele>
        <time>2022-05-01T09:10:18Z</time>
      </trkpt>
      <trkpt lat="45.08957" lon="0.70144">
        <ele>188.3</ele>
        <time>2022-05-01T09:10:19Z</time>
      </trkpt>
      <trkpt lat="45.08963" lon="0.7014">
        <ele>186.6</ele>
        <time>2022-05-01T09:10:21Z</time>
      </trkpt>
      <trkpt lat="45.08969" lon="0.70135">
        <ele>188.2</ele>
        <time>2022-05-01T09:10:23Z</time>
      </trkpt>
      <trkpt lat="45.08974" lon="0.70131">
        <ele>188.2</ele>
        <time>2022-05-01T09:10:25Z</time>
      </trkpt>
      <trkpt lat="45.08979" lon="0.70128">
        <ele>190.7</ele>
        <time>2022-05-01T09:10:27Z</time>
      </trkpt>
      <trkpt lat="45.08985" lon="0.70126">
        <ele>190.8</ele>
        <time>2022-05-01T09:10:29Z</time>
      </trkpt>
      <trkpt lat="45.08988" lon="0.70125">
        <ele>190.8</ele>
        <time>2022-05-01T09:10:30Z</time>
      </trkpt>
      <trkpt lat="45.0899" lon="0.70125">
        <ele>193.7</ele>
        <time>2022-05-01T09:10:31Z</time>
      </trkpt>
      <trkpt lat="45.08997" lon="0.70124">
        <ele>193</ele>
        <time>2022-05-01T09:10:33Z</time>
      </trkpt>
      <trkpt lat="45.09002" lon="0.70121">
        <ele>196.6</ele>
        <time>2022-05-01T09:10:35Z</time>
      </trkpt>
      <trkpt lat="45.09005" lon="0.7012">
        <ele>196.6</ele>
        <time>2022-05-01T09:10:36Z</time>
      </trkpt>
      <trkpt lat="45.09009" lon="0.70119">
        <ele>196.6</ele>
        <time>2022-05-01T09:10:37Z</time>
      </trkpt>
      <trkpt lat="45.09015" lon="0.70117">
        <ele>200</ele>
        <time>2022-05-01T09:10:39Z</time>
      </trkpt>
      <trkpt lat="45.09023" lon="0.70115">
        <ele>200</ele>
        <time>2022-05-01T09:10:41Z</time>
      </trkpt>
      <trkpt lat="45.09029" lon="0.70112">
        <ele>203.5</ele>
        <time>2022-05-01T09:10:43Z</time>
      </trkpt>
      <trkpt lat="45.09036" lon="0.70112">
        <ele>203.5</ele>
        <time>2022-05-01T09:10:45Z</time>
      </trkpt>
      <trkpt lat="45.09041" lon="0.70115">
        <ele>206.2</ele>
        <time>2022-05-01T09:10:47Z</time>
      </trkpt>
      <trkpt lat="45.09047" lon="0.70121">
        <ele>206.2</ele>
        <time>2022-05-01T09:10:49Z</time>
      </trkpt>
      <trkpt lat="45.09051" lon="0.70127">
        <ele>208.7</ele>
        <time>2022-05-01T09:10:51Z</time>
      </trkpt>
      <trkpt lat="45.09056" lon="0.70132">
        <ele>208.7</ele>
        <time>2022-05-01T09:10:53Z</time>
      </trkpt>
      <trkpt lat="45.09059" lon="0.70138">
        <ele>208.7</ele>
        <time>2022-05-01T09:10:55Z</time>
      </trkpt>
      <trkpt lat="45.09064" lon="0.70144">
        <ele>210.6</ele>
        <time>2022-05-01T09:10:57Z</time>
      </trkpt>
      <trkpt lat="45.0907" lon="0.7015">
        <ele>210.7</ele>
        <time>2022-05-01T09:10:59Z</time>
      </trkpt>
      <trkpt lat="45.09075" lon="0.70157">
        <ele>212</ele>
        <time>2022-05-01T09:11:01Z</time>
      </trkpt>
      <trkpt lat="45.09079" lon="0.70161">
        <ele>211.8</ele>
        <time>2022-05-01T09:11:02Z</time>
      </trkpt>
      <trkpt lat="45.09083" lon="0.70164">
        <ele>211.8</ele>
        <time>2022-05-01T09:11:03Z</time>
      </trkpt>
      <trkpt lat="45.09085" lon="0.70167">
        <ele>211.8</ele>
        <time>2022-05-01T09:11:04Z</time>
      </trkpt>
      <trkpt lat="45.09087" lon="0.70171">
        <ele>213.1</ele>
        <time>2022-05-01T09:11:05Z</time>
      </trkpt>
      <trkpt lat="45.09089" lon="0.70175">
        <ele>213.1</ele>
        <time>2022-05-01T09:11:06Z</time>
      </trkpt>
      <trkpt lat="45.09096" lon="0.7018">
        <ele>212.4</ele>
        <time>2022-05-01T09:11:08Z</time>
      </trkpt>
      <trkpt lat="45.09099" lon="0.70182">
        <ele>213</ele>
        <time>2022-05-01T09:11:09Z</time>
      </trkpt>
      <trkpt lat="45.09103" lon="0.70185">
        <ele>213</ele>
        <time>2022-05-01T09:11:10Z</time>
      </trkpt>
      <trkpt lat="45.09108" lon="0.7019">
        <ele>213</ele>
        <time>2022-05-01T09:11:12Z</time>
      </trkpt>
      <trkpt lat="45.09112" lon="0.70198">
        <ele>211.9</ele>
        <time>2022-05-01T09:11:14Z</time>
      </trkpt>
      <trkpt lat="45.09118" lon="0.70205">
        <ele>211.9</ele>
        <time>2022-05-01T09:11:16Z</time>
      </trkpt>
      <trkpt lat="45.09123" lon="0.70208">
        <ele>212</ele>
        <time>2022-05-01T09:11:18Z</time>
      </trkpt>
      <trkpt lat="45.09125" lon="0.7021">
        <ele>210.9</ele>
        <time>2022-05-01T09:11:19Z</time>
      </trkpt>
      <trkpt lat="45.09127" lon="0.70211">
        <ele>210.9</ele>
        <time>2022-05-01T09:11:20Z</time>
      </trkpt>
      <trkpt lat="45.09132" lon="0.70215">
        <ele>210.9</ele>
        <time>2022-05-01T09:11:22Z</time>
      </trkpt>
      <trkpt lat="45.09137" lon="0.70216">
        <ele>211.2</ele>
        <time>2022-05-01T09:11:24Z</time>
      </trkpt>
      <trkpt lat="45.09139" lon="0.70217">
        <ele>211.3</ele>
        <time>2022-05-01T09:11:25Z</time>
      </trkpt>
      <trkpt lat="45.09141" lon="0.70217">
        <ele>211.3</ele>
        <time>2022-05-01T09:11:26Z</time>
      </trkpt>
      <trkpt lat="45.09145" lon="0.70218">
        <ele>211.3</ele>
        <time>2022-05-01T09:11:28Z</time>
      </trkpt>
      <trkpt lat="45.09151" lon="0.70218">
        <ele>211.7</ele>
        <time>2022-05-01T09:11:30Z</time>
      </trkpt>
      <trkpt lat="45.09156" lon="0.70217">
        <ele>211.7</ele>
        <time>2022-05-01T09:11:32Z</time>
      </trkpt>
      <trkpt lat="45.0916" lon="0.70216">
        <ele>212.3</ele>
        <time>2022-05-01T09:11:34Z</time>
      </trkpt>
      <trkpt lat="45.09162" lon="0.70215">
        <ele>212.3</ele>
        <time>2022-05-01T09:11:35Z</time>
      </trkpt>
      <trkpt lat="45.09164" lon="0.70216">
        <ele>212.3</ele>
        <time>2022-05-01T09:11:36Z</time>
      </trkpt>
      <trkpt lat="45.09169" lon="0.70214">
        <ele>212.3</ele>
        <time>2022-05-01T09:11:38Z</time>
      </trkpt>
      <trkpt lat="45.09173" lon="0.70214">
        <ele>212.9</ele>
        <time>2022-05-01T09:11:40Z</time>
      </trkpt>
      <trkpt lat="45.09178" lon="0.70214">
        <ele>213</ele>
        <time>2022-05-01T09:11:42Z</time>
      </trkpt>
      <trkpt lat="45.09183" lon="0.70213">
        <ele>213.4</ele>
        <time>2022-05-01T09:11:44Z</time>
      </trkpt>
      <trkpt lat="45.09185" lon="0.70213">
        <ele>213.5</ele>
        <time>2022-05-01T09:11:45Z</time>
      </trkpt>
      <trkpt lat="45.09188" lon="0.70212">
        <ele>213.5</ele>
        <time>2022-05-01T09:11:46Z</time>
      </trkpt>
      <trkpt lat="45.09193" lon="0.70212">
        <ele>213.5</ele>
        <time>2022-05-01T09:11:48Z</time>
      </trkpt>
      <trkpt lat="45.09198" lon="0.70211">
        <ele>214</ele>
        <time>2022-05-01T09:11:50Z</time>
      </trkpt>
      <trkpt lat="45.092" lon="0.70211">
        <ele>214</ele>
        <time>2022-05-01T09:11:51Z</time>
      </trkpt>
      <trkpt lat="45.09202" lon="0.7021">
        <ele>214.1</ele>
        <time>2022-05-01T09:11:52Z</time>
      </trkpt>
      <trkpt lat="45.09206" lon="0.7021">
        <ele>214.7</ele>
        <time>2022-05-01T09:11:54Z</time>
      </trkpt>
      <trkpt lat="45.0921" lon="0.70208">
        <ele>215.3</ele>
        <time>2022-05-01T09:11:56Z</time>
      </trkpt>
      <trkpt lat="45.09213" lon="0.70208">
        <ele>215.3</ele>
        <time>2022-05-01T09:11:58Z</time>
      </trkpt>
      <trkpt lat="45.09216" lon="0.70208">
        <ele>215.3</ele>
        <time>2022-05-01T09:12:00Z</time>
      </trkpt>
      <trkpt lat="45.0922" lon="0.70207">
        <ele>216.1</ele>
        <time>2022-05-01T09:12:02Z</time>
      </trkpt>
      <trkpt lat="45.09224" lon="0.70207">
        <ele>216.1</ele>
        <time>2022-05-01T09:12:04Z</time>
      </trkpt>
      <trkpt lat="45.09229" lon="0.70206">
        <ele>216.1</ele>
        <time>2022-05-01T09:12:06Z</time>
      </trkpt>
      <trkpt lat="45.09233" lon="0.70205">
        <ele>216.9</ele>
        <time>2022-05-01T09:12:08Z</time>
      </trkpt>
      <trkpt lat="45.09237" lon="0.70205">
        <ele>216.9</ele>
        <time>2022-05-01T09:12:10Z</time>
      </trkpt>
      <trkpt lat="45.09241" lon="0.70204">
        <ele>216.9</ele>
        <time>2022-05-01T09:12:12Z</time>
      </trkpt>
      <trkpt lat="45.09245" lon="0.70203">
        <ele>217.5</ele>
        <time>2022-05-01T09:12:14Z</time>
      </trkpt>
      <trkpt lat="45.09249" lon="0.70202">
        <ele>217.6</ele>
        <time>2022-05-01T09:12:16Z</time>
      </trkpt>
      <trkpt lat="45.09254" lon="0.70203">
        <ele>217.6</ele>
        <time>2022-05-01T09:12:18Z</time>
      </trkpt>
      <trkpt lat="45.09258" lon="0.70202">
        <ele>218</ele>
        <time>2022-05-01T09:12:20Z</time>
      </trkpt>
      <trkpt lat="45.09261" lon="0.70202">
        <ele>218.1</ele>
        <time>2022-05-01T09:12:22Z</time>
      </trkpt>
      <trkpt lat="45.09266" lon="0.70202">
        <ele>218.1</ele>
        <time>2022-05-01T09:12:24Z</time>
      </trkpt>
      <trkpt lat="45.09269" lon="0.70202">
        <ele>218.4</ele>
        <time>2022-05-01T09:12:26Z</time>
      </trkpt>
      <trkpt lat="45.09273" lon="0.70202">
        <ele>218.4</ele>
        <time>2022-05-01T09:12:28Z</time>
      </trkpt>
      <trkpt lat="45.09275" lon="0.70203">
        <ele>218.4</ele>
        <time>2022-05-01T09:12:29Z</time>
      </trkpt>
      <trkpt lat="45.09278" lon="0.70203">
        <ele>218.5</ele>
        <time>2022-05-01T09:12:30Z</time>
      </trkpt>
      <trkpt lat="45.09283" lon="0.70203">
        <ele>218.7</ele>
        <time>2022-05-01T09:12:32Z</time>
      </trkpt>
      <trkpt lat="45.09287" lon="0.70203">
        <ele>218.8</ele>
        <time>2022-05-01T09:12:34Z</time>
      </trkpt>
      <trkpt lat="45.09289" lon="0.70203">
        <ele>218.8</ele>
        <time>2022-05-01T09:12:35Z</time>
      </trkpt>
      <trkpt lat="45.09291" lon="0.70204">
        <ele>218.8</ele>
        <time>2022-05-01T09:12:36Z</time>
      </trkpt>
      <trkpt lat="45.09295" lon="0.70206">
        <ele>218.9</ele>
        <time>2022-05-01T09:12:38Z</time>
      </trkpt>
      <trkpt lat="45.09297" lon="0.70205">
        <ele>219</ele>
        <time>2022-05-01T09:12:39Z</time>
      </trkpt>
      <trkpt lat="45.09299" lon="0.70205">
        <ele>219</ele>
        <time>2022-05-01T09:12:40Z</time>
      </trkpt>
      <trkpt lat="45.09303" lon="0.70205">
        <ele>219</ele>
        <time>2022-05-01T09:12:42Z</time>
      </trkpt>
      <trkpt lat="45.09308" lon="0.70205">
        <ele>219.2</ele>
        <time>2022-05-01T09:12:44Z</time>
      </trkpt>
      <trkpt lat="45.0931" lon="0.70205">
        <ele>219.2</ele>
        <time>2022-05-01T09:12:45Z</time>
      </trkpt>
      <trkpt lat="45.09313" lon="0.70205">
        <ele>219.2</ele>
        <time>2022-05-01T09:12:46Z</time>
      </trkpt>
      <trkpt lat="45.09317" lon="0.70206">
        <ele>219.4</ele>
        <time>2022-05-01T09:12:48Z</time>
      </trkpt>
      <trkpt lat="45.09321" lon="0.70208">
        <ele>219.4</ele>
        <time>2022-05-01T09:12:50Z</time>
      </trkpt>
      <trkpt lat="45.09323" lon="0.70209">
        <ele>219.4</ele>
        <time>2022-05-01T09:12:51Z</time>
      </trkpt>
      <trkpt lat="45.09325" lon="0.7021">
        <ele>219.4</ele>
        <time>2022-05-01T09:12:52Z</time>
      </trkpt>
      <trkpt lat="45.0933" lon="0.7021">
        <ele>219.5</ele>
        <time>2022-05-01T09:12:54Z</time>
      </trkpt>
      <trkpt lat="45.09334" lon="0.70212">
        <ele>219.5</ele>
        <time>2022-05-01T09:12:56Z</time>
      </trkpt>
      <trkpt lat="45.09335" lon="0.70213">
        <ele>219.5</ele>
        <time>2022-05-01T09:12:57Z</time>
      </trkpt>
      <trkpt lat="45.09337" lon="0.70213">
        <ele>219.6</ele>
        <time>2022-05-01T09:12:58Z</time>
      </trkpt>
      <trkpt lat="45.0934" lon="0.70214">
        <ele>219.8</ele>
        <time>2022-05-01T09:13:00Z</time>
      </trkpt>
      <trkpt lat="45.09344" lon="0.70215">
        <ele>219.8</ele>
        <time>2022-05-01T09:13:02Z</time>
      </trkpt>
      <trkpt lat="45.09347" lon="0.70215">
        <ele>219.9</ele>
        <time>2022-05-01T09:13:03Z</time>
      </trkpt>
      <trkpt lat="45.09349" lon="0.70216">
        <ele>219.9</ele>
        <time>2022-05-01T09:13:04Z</time>
      </trkpt>
      <trkpt lat="45.09352" lon="0.70218">
        <ele>220.1</ele>
        <time>2022-05-01T09:13:06Z</time>
      </trkpt>
      <trkpt lat="45.09355" lon="0.70218">
        <ele>220.2</ele>
        <time>2022-05-01T09:13:07Z</time>
      </trkpt>
      <trkpt lat="45.09357" lon="0.70219">
        <ele>220.2</ele>
        <time>2022-05-01T09:13:08Z</time>
      </trkpt>
      <trkpt lat="45.09361" lon="0.70218">
        <ele>220.2</ele>
        <time>2022-05-01T09:13:10Z</time>
      </trkpt>
      <trkpt lat="45.09365" lon="0.70219">
        <ele>220.5</ele>
        <time>2022-05-01T09:13:12Z</time>
      </trkpt>
      <trkpt lat="45.09369" lon="0.7022">
        <ele>220.5</ele>
        <time>2022-05-01T09:13:14Z</time>
      </trkpt>
      <trkpt lat="45.09375" lon="0.70234">
        <ele>220.9</ele>
        <time>2022-05-01T09:13:16Z</time>
      </trkpt>
      <trkpt lat="45.09377" lon="0.70233">
        <ele>220.9</ele>
        <time>2022-05-01T09:13:18Z</time>
      </trkpt>
      <trkpt lat="45.09379" lon="0.70233">
        <ele>220.9</ele>
        <time>2022-05-01T09:13:19Z</time>
      </trkpt>
      <trkpt lat="45.0938" lon="0.70232">
        <ele>221</ele>
        <time>2022-05-01T09:13:20Z</time>
      </trkpt>
      <trkpt lat="45.09383" lon="0.70232">
        <ele>221</ele>
        <time>2022-05-01T09:13:22Z</time>
      </trkpt>
      <trkpt lat="45.09388" lon="0.70232">
        <ele>221.1</ele>
        <time>2022-05-01T09:13:24Z</time>
      </trkpt>
      <trkpt lat="45.0939" lon="0.70232">
        <ele>221.1</ele>
        <time>2022-05-01T09:13:25Z</time>
      </trkpt>
      <trkpt lat="45.09392" lon="0.70233">
        <ele>221.1</ele>
        <time>2022-05-01T09:13:26Z</time>
      </trkpt>
      <trkpt lat="45.09396" lon="0.70236">
        <ele>221.1</ele>
        <time>2022-05-01T09:13:28Z</time>
      </trkpt>
      <trkpt lat="45.094" lon="0.70238">
        <ele>221.2</ele>
        <time>2022-05-01T09:13:30Z</time>
      </trkpt>
      <trkpt lat="45.09401" lon="0.70239">
        <ele>221.2</ele>
        <time>2022-05-01T09:13:31Z</time>
      </trkpt>
      <trkpt lat="45.09403" lon="0.7024">
        <ele>221.2</ele>
        <time>2022-05-01T09:13:32Z</time>
      </trkpt>
      <trkpt lat="45.09406" lon="0.70243">
        <ele>221.2</ele>
        <time>2022-05-01T09:13:34Z</time>
      </trkpt>
      <trkpt lat="45.0941" lon="0.70245">
        <ele>221.2</ele>
        <time>2022-05-01T09:13:36Z</time>
      </trkpt>
      <trkpt lat="45.09414" lon="0.70248">
        <ele>221.2</ele>
        <time>2022-05-01T09:13:38Z</time>
      </trkpt>
      <trkpt lat="45.09415" lon="0.7025">
        <ele>221.2</ele>
        <time>2022-05-01T09:13:39Z</time>
      </trkpt>
      <trkpt lat="45.09417" lon="0.70251">
        <ele>221.2</ele>
        <time>2022-05-01T09:13:40Z</time>
      </trkpt>
      <trkpt lat="45.0942" lon="0.70254">
        <ele>221.2</ele>
        <time>2022-05-01T09:13:42Z</time>
      </trkpt>
      <trkpt lat="45.09423" lon="0.70257">
        <ele>221.2</ele>
        <time>2022-05-01T09:13:44Z</time>
      </trkpt>
      <trkpt lat="45.09424" lon="0.70259">
        <ele>221.3</ele>
        <time>2022-05-01T09:13:45Z</time>
      </trkpt>
      <trkpt lat="45.09425" lon="0.7026">
        <ele>221.3</ele>
        <time>2022-05-01T09:13:46Z</time>
      </trkpt>
      <trkpt lat="45.09428" lon="0.70263">
        <ele>221.3</ele>
        <time>2022-05-01T09:13:48Z</time>
      </trkpt>
      <trkpt lat="45.09431" lon="0.70266">
        <ele>221.4</ele>
        <time>2022-05-01T09:13:50Z</time>
      </trkpt>
      <trkpt lat="45.09433" lon="0.70267">
        <ele>221.5</ele>
        <time>2022-05-01T09:13:51Z</time>
      </trkpt>
      <trkpt lat="45.09434" lon="0.70269">
        <ele>221.5</ele>
        <time>2022-05-01T09:13:52Z</time>
      </trkpt>
      <trkpt lat="45.09438" lon="0.70273">
        <ele>221.6</ele>
        <time>2022-05-01T09:13:54Z</time>
      </trkpt>
      <trkpt lat="45.09439" lon="0.70274">
        <ele>221.7</ele>
        <time>2022-05-01T09:13:55Z</time>
      </trkpt>
      <trkpt lat="45.09441" lon="0.70276">
        <ele>221.7</ele>
        <time>2022-05-01T09:13:56Z</time>
      </trkpt>
      <trkpt lat="45.09444" lon="0.70279">
        <ele>221.9</ele>
        <time>2022-05-01T09:13:58Z</time>
      </trkpt>
      <trkpt lat="45.09448" lon="0.70282">
        <ele>222</ele>
        <time>2022-05-01T09:14:00Z</time>
      </trkpt>
      <trkpt lat="45.09452" lon="0.70284">
        <ele>222.2</ele>
        <time>2022-05-01T09:14:02Z</time>
      </trkpt>
      <trkpt lat="45.09453" lon="0.70285">
        <ele>222.3</ele>
        <time>2022-05-01T09:14:03Z</time>
      </trkpt>
      <trkpt lat="45.09455" lon="0.70286">
        <ele>222.4</ele>
        <time>2022-05-01T09:14:04Z</time>
      </trkpt>
      <trkpt lat="45.09458" lon="0.70289">
        <ele>222.6</ele>
        <time>2022-05-01T09:14:06Z</time>
      </trkpt>
      <trkpt lat="45.09462" lon="0.70289">
        <ele>222.9</ele>
        <time>2022-05-01T09:14:08Z</time>
      </trkpt>
      <trkpt lat="45.09466" lon="0.70289">
        <ele>223.1</ele>
        <time>2022-05-01T09:14:10Z</time>
      </trkpt>
      <trkpt lat="45.0947" lon="0.70289">
        <ele>223.4</ele>
        <time>2022-05-01T09:14:12Z</time>
      </trkpt>
      <trkpt lat="45.09473" lon="0.70287">
        <ele>223.6</ele>
        <time>2022-05-01T09:14:14Z</time>
      </trkpt>
      <trkpt lat="45.09477" lon="0.70286">
        <ele>223.7</ele>
        <time>2022-05-01T09:14:16Z</time>
      </trkpt>
      <trkpt lat="45.0948" lon="0.70284">
        <ele>223.9</ele>
        <time>2022-05-01T09:14:18Z</time>
      </trkpt>
      <trkpt lat="45.09482" lon="0.70283">
        <ele>224</ele>
        <time>2022-05-01T09:14:19Z</time>
      </trkpt>
      <trkpt lat="45.09484" lon="0.70282">
        <ele>224.1</ele>
        <time>2022-05-01T09:14:20Z</time>
      </trkpt>
      <trkpt lat="45.09488" lon="0.7028">
        <ele>224.3</ele>
        <time>2022-05-01T09:14:22Z</time>
      </trkpt>
      <trkpt lat="45.0949" lon="0.70279">
        <ele>224.4</ele>
        <time>2022-05-01T09:14:23Z</time>
      </trkpt>
      <trkpt lat="45.09491" lon="0.70279">
        <ele>224.4</ele>
        <time>2022-05-01T09:14:24Z</time>
      </trkpt>
      <trkpt lat="45.09495" lon="0.70277">
        <ele>224.6</ele>
        <time>2022-05-01T09:14:26Z</time>
      </trkpt>
      <trkpt lat="45.09499" lon="0.70275">
        <ele>224.8</ele>
        <time>2022-05-01T09:14:28Z</time>
      </trkpt>
      <trkpt lat="45.09502" lon="0.70273">
        <ele>224.9</ele>
        <time>2022-05-01T09:14:30Z</time>
      </trkpt>
      <trkpt lat="45.09506" lon="0.70272">
        <ele>225</ele>
        <time>2022-05-01T09:14:32Z</time>
      </trkpt>
      <trkpt lat="45.0951" lon="0.7027">
        <ele>225.2</ele>
        <time>2022-05-01T09:14:34Z</time>
      </trkpt>
      <trkpt lat="45.09512" lon="0.70269">
        <ele>225.2</ele>
        <time>2022-05-01T09:14:35Z</time>
      </trkpt>
      <trkpt lat="45.09515" lon="0.70267">
        <ele>225.3</ele>
        <time>2022-05-01T09:14:36Z</time>
      </trkpt>
      <trkpt lat="45.09519" lon="0.70265">
        <ele>225.4</ele>
        <time>2022-05-01T09:14:38Z</time>
      </trkpt>
      <trkpt lat="45.09523" lon="0.70263">
        <ele>225.5</ele>
        <time>2022-05-01T09:14:40Z</time>
      </trkpt>
      <trkpt lat="45.09525" lon="0.70263">
        <ele>225.6</ele>
        <time>2022-05-01T09:14:41Z</time>
      </trkpt>
      <trkpt lat="45.09528" lon="0.70261">
        <ele>225.6</ele>
        <time>2022-05-01T09:14:42Z</time>
      </trkpt>
      <trkpt lat="45.09532" lon="0.70259">
        <ele>225.7</ele>
        <time>2022-05-01T09:14:44Z</time>
      </trkpt>
      <trkpt lat="45.09537" lon="0.70257">
        <ele>225.8</ele>
        <time>2022-05-01T09:14:46Z</time>
      </trkpt>
      <trkpt lat="45.09542" lon="0.70255">
        <ele>225.9</ele>
        <time>2022-05-01T09:14:48Z</time>
      </trkpt>
      <trkpt lat="45.09544" lon="0.70254">
        <ele>225.9</ele>
        <time>2022-05-01T09:14:49Z</time>
      </trkpt>
      <trkpt lat="45.09546" lon="0.70253">
        <ele>226</ele>
        <time>2022-05-01T09:14:50Z</time>
      </trkpt>
      <trkpt lat="45.0955" lon="0.70249">
        <ele>226.1</ele>
        <time>2022-05-01T09:14:52Z</time>
      </trkpt>
      <trkpt lat="45.09554" lon="0.70245">
        <ele>226.2</ele>
        <time>2022-05-01T09:14:54Z</time>
      </trkpt>
      <trkpt lat="45.09561" lon="0.70239">
        <ele>226.7</ele>
        <time>2022-05-01T09:14:56Z</time>
      </trkpt>
      <trkpt lat="45.09564" lon="0.70236">
        <ele>226.7</ele>
        <time>2022-05-01T09:14:58Z</time>
      </trkpt>
      <trkpt lat="45.09567" lon="0.70233">
        <ele>226.6</ele>
        <time>2022-05-01T09:15:00Z</time>
      </trkpt>
      <trkpt lat="45.09571" lon="0.70231">
        <ele>226.9</ele>
        <time>2022-05-01T09:15:01Z</time>
      </trkpt>
      <trkpt lat="45.09574" lon="0.70228">
        <ele>226.9</ele>
        <time>2022-05-01T09:15:02Z</time>
      </trkpt>
      <trkpt lat="45.09578" lon="0.70225">
        <ele>227.1</ele>
        <time>2022-05-01T09:15:05Z</time>
      </trkpt>
      <trkpt lat="45.09581" lon="0.70222">
        <ele>227.1</ele>
        <time>2022-05-01T09:15:07Z</time>
      </trkpt>
      <trkpt lat="45.09583" lon="0.70219">
        <ele>227.2</ele>
        <time>2022-05-01T09:15:08Z</time>
      </trkpt>
      <trkpt lat="45.09588" lon="0.70212">
        <ele>227.2</ele>
        <time>2022-05-01T09:15:11Z</time>
      </trkpt>
      <trkpt lat="45.09591" lon="0.70206">
        <ele>227.4</ele>
        <time>2022-05-01T09:15:13Z</time>
      </trkpt>
      <trkpt lat="45.09592" lon="0.70202">
        <ele>227.4</ele>
        <time>2022-05-01T09:15:14Z</time>
      </trkpt>
      <trkpt lat="45.09593" lon="0.702">
        <ele>227.4</ele>
        <time>2022-05-01T09:15:15Z</time>
      </trkpt>
      <trkpt lat="45.09596" lon="0.70194">
        <ele>227.3</ele>
        <time>2022-05-01T09:15:17Z</time>
      </trkpt>
      <trkpt lat="45.09599" lon="0.7019">
        <ele>227.5</ele>
        <time>2022-05-01T09:15:19Z</time>
      </trkpt>
      <trkpt lat="45.09603" lon="0.70185">
        <ele>227.5</ele>
        <time>2022-05-01T09:15:21Z</time>
      </trkpt>
      <trkpt lat="45.09605" lon="0.70182">
        <ele>227.5</ele>
        <time>2022-05-01T09:15:22Z</time>
      </trkpt>
      <trkpt lat="45.09607" lon="0.70179">
        <ele>227.5</ele>
        <time>2022-05-01T09:15:23Z</time>
      </trkpt>
      <trkpt lat="45.09611" lon="0.70175">
        <ele>227.6</ele>
        <time>2022-05-01T09:15:25Z</time>
      </trkpt>
      <trkpt lat="45.09616" lon="0.7017">
        <ele>227.6</ele>
        <time>2022-05-01T09:15:27Z</time>
      </trkpt>
      <trkpt lat="45.09621" lon="0.70165">
        <ele>227.6</ele>
        <time>2022-05-01T09:15:29Z</time>
      </trkpt>
      <trkpt lat="45.09626" lon="0.70164">
        <ele>227.6</ele>
        <time>2022-05-01T09:15:31Z</time>
      </trkpt>
      <trkpt lat="45.09633" lon="0.70165">
        <ele>227.6</ele>
        <time>2022-05-01T09:15:34Z</time>
      </trkpt>
      <trkpt lat="45.09637" lon="0.70165">
        <ele>227.6</ele>
        <time>2022-05-01T09:15:35Z</time>
      </trkpt>
      <trkpt lat="45.09644" lon="0.70166">
        <ele>227.7</ele>
        <time>2022-05-01T09:15:37Z</time>
      </trkpt>
      <trkpt lat="45.09651" lon="0.70167">
        <ele>227.7</ele>
        <time>2022-05-01T09:15:39Z</time>
      </trkpt>
      <trkpt lat="45.09659" lon="0.70168">
        <ele>227.8</ele>
        <time>2022-05-01T09:15:41Z</time>
      </trkpt>
      <trkpt lat="45.09667" lon="0.7017">
        <ele>227.9</ele>
        <time>2022-05-01T09:15:43Z</time>
      </trkpt>
      <trkpt lat="45.09676" lon="0.70174">
        <ele>227.9</ele>
        <time>2022-05-01T09:15:45Z</time>
      </trkpt>
      <trkpt lat="45.09685" lon="0.70179">
        <ele>227.8</ele>
        <time>2022-05-01T09:15:47Z</time>
      </trkpt>
      <trkpt lat="45.0969" lon="0.70182">
        <ele>227.8</ele>
        <time>2022-05-01T09:15:48Z</time>
      </trkpt>
      <trkpt lat="45.09705" lon="0.70189">
        <ele>228</ele>
        <time>2022-05-01T09:15:51Z</time>
      </trkpt>
      <trkpt lat="45.09715" lon="0.70196">
        <ele>227.7</ele>
        <time>2022-05-01T09:15:53Z</time>
      </trkpt>
      <trkpt lat="45.09723" lon="0.70207">
        <ele>227.6</ele>
        <time>2022-05-01T09:15:55Z</time>
      </trkpt>
      <trkpt lat="45.09731" lon="0.70218">
        <ele>227.1</ele>
        <time>2022-05-01T09:15:57Z</time>
      </trkpt>
      <trkpt lat="45.09738" lon="0.70232">
        <ele>226.7</ele>
        <time>2022-05-01T09:15:59Z</time>
      </trkpt>
      <trkpt lat="45.09745" lon="0.70248">
        <ele>226.2</ele>
        <time>2022-05-01T09:16:01Z</time>
      </trkpt>
      <trkpt lat="45.09752" lon="0.70265">
        <ele>225.5</ele>
        <time>2022-05-01T09:16:03Z</time>
      </trkpt>
      <trkpt lat="45.09759" lon="0.70285">
        <ele>225.1</ele>
        <time>2022-05-01T09:16:05Z</time>
      </trkpt>
      <trkpt lat="45.09761" lon="0.70296">
        <ele>224.9</ele>
        <time>2022-05-01T09:16:06Z</time>
      </trkpt>
      <trkpt lat="45.09762" lon="0.70306">
        <ele>224.9</ele>
        <time>2022-05-01T09:16:07Z</time>
      </trkpt>
      <trkpt lat="45.09764" lon="0.70323">
        <ele>224.1</ele>
        <time>2022-05-01T09:16:09Z</time>
      </trkpt>
      <trkpt lat="45.09767" lon="0.70331">
        <ele>224.1</ele>
        <time>2022-05-01T09:16:10Z</time>
      </trkpt>
      <trkpt lat="45.09769" lon="0.7034">
        <ele>224.1</ele>
        <time>2022-05-01T09:16:11Z</time>
      </trkpt>
      <trkpt lat="45.09774" lon="0.70355">
        <ele>224.2</ele>
        <time>2022-05-01T09:16:13Z</time>
      </trkpt>
      <trkpt lat="45.09777" lon="0.7036">
        <ele>223.5</ele>
        <time>2022-05-01T09:16:14Z</time>
      </trkpt>
      <trkpt lat="45.09782" lon="0.70361">
        <ele>223.5</ele>
        <time>2022-05-01T09:16:15Z</time>
      </trkpt>
      <trkpt lat="45.09794" lon="0.70358">
        <ele>222.9</ele>
        <time>2022-05-01T09:16:17Z</time>
      </trkpt>
      <trkpt lat="45.09806" lon="0.70349">
        <ele>222.1</ele>
        <time>2022-05-01T09:16:19Z</time>
      </trkpt>
      <trkpt lat="45.09821" lon="0.70341">
        <ele>221.1</ele>
        <time>2022-05-01T09:16:21Z</time>
      </trkpt>
      <trkpt lat="45.09828" lon="0.70335">
        <ele>220.5</ele>
        <time>2022-05-01T09:16:22Z</time>
      </trkpt>
      <trkpt lat="45.09834" lon="0.70328">
        <ele>220.1</ele>
        <time>2022-05-01T09:16:23Z</time>
      </trkpt>
      <trkpt lat="45.09848" lon="0.70314">
        <ele>219.4</ele>
        <time>2022-05-01T09:16:25Z</time>
      </trkpt>
      <trkpt lat="45.09856" lon="0.70306">
        <ele>218.6</ele>
        <time>2022-05-01T09:16:26Z</time>
      </trkpt>
      <trkpt lat="45.09862" lon="0.70297">
        <ele>218</ele>
        <time>2022-05-01T09:16:27Z</time>
      </trkpt>
      <trkpt lat="45.09875" lon="0.70282">
        <ele>217.2</ele>
        <time>2022-05-01T09:16:29Z</time>
      </trkpt>
      <trkpt lat="45.09882" lon="0.70275">
        <ele>217</ele>
        <time>2022-05-01T09:16:30Z</time>
      </trkpt>
      <trkpt lat="45.09889" lon="0.7027">
        <ele>216.4</ele>
        <time>2022-05-01T09:16:31Z</time>
      </trkpt>
      <trkpt lat="45.09902" lon="0.7026">
        <ele>216.1</ele>
        <time>2022-05-01T09:16:33Z</time>
      </trkpt>
      <trkpt lat="45.09908" lon="0.70256">
        <ele>216.1</ele>
        <time>2022-05-01T09:16:34Z</time>
      </trkpt>
      <trkpt lat="45.09914" lon="0.70253">
        <ele>215.8</ele>
        <time>2022-05-01T09:16:35Z</time>
      </trkpt>
      <trkpt lat="45.09921" lon="0.70249">
        <ele>215.8</ele>
        <time>2022-05-01T09:16:36Z</time>
      </trkpt>
      <trkpt lat="45.09927" lon="0.70245">
        <ele>215.6</ele>
        <time>2022-05-01T09:16:37Z</time>
      </trkpt>
      <trkpt lat="45.09934" lon="0.70243">
        <ele>215.7</ele>
        <time>2022-05-01T09:16:38Z</time>
      </trkpt>
      <trkpt lat="45.0994" lon="0.7024">
        <ele>215.7</ele>
        <time>2022-05-01T09:16:39Z</time>
      </trkpt>
      <trkpt lat="45.09953" lon="0.70234">
        <ele>215.6</ele>
        <time>2022-05-01T09:16:41Z</time>
      </trkpt>
      <trkpt lat="45.0996" lon="0.70231">
        <ele>215.6</ele>
        <time>2022-05-01T09:16:42Z</time>
      </trkpt>
      <trkpt lat="45.09967" lon="0.7023">
        <ele>215.6</ele>
        <time>2022-05-01T09:16:43Z</time>
      </trkpt>
      <trkpt lat="45.09973" lon="0.70227">
        <ele>215.5</ele>
        <time>2022-05-01T09:16:44Z</time>
      </trkpt>
      <trkpt lat="45.09979" lon="0.70225">
        <ele>215.7</ele>
        <time>2022-05-01T09:16:45Z</time>
      </trkpt>
      <trkpt lat="45.09991" lon="0.70221">
        <ele>215.7</ele>
        <time>2022-05-01T09:16:47Z</time>
      </trkpt>
      <trkpt lat="45.10002" lon="0.70217">
        <ele>215.6</ele>
        <time>2022-05-01T09:16:49Z</time>
      </trkpt>
      <trkpt lat="45.10008" lon="0.70215">
        <ele>215.6</ele>
        <time>2022-05-01T09:16:50Z</time>
      </trkpt>
      <trkpt lat="45.10014" lon="0.70213">
        <ele>215.6</ele>
        <time>2022-05-01T09:16:51Z</time>
      </trkpt>
      <trkpt lat="45.1002" lon="0.70212">
        <ele>215.5</ele>
        <time>2022-05-01T09:16:52Z</time>
      </trkpt>
      <trkpt lat="45.10026" lon="0.70211">
        <ele>215.5</ele>
        <time>2022-05-01T09:16:53Z</time>
      </trkpt>
      <trkpt lat="45.10041" lon="0.70207">
        <ele>216.1</ele>
        <time>2022-05-01T09:16:55Z</time>
      </trkpt>
      <trkpt lat="45.10054" lon="0.70206">
        <ele>216.1</ele>
        <time>2022-05-01T09:16:57Z</time>
      </trkpt>
      <trkpt lat="45.1006" lon="0.70207">
        <ele>216</ele>
        <time>2022-05-01T09:16:58Z</time>
      </trkpt>
      <trkpt lat="45.10066" lon="0.70209">
        <ele>216</ele>
        <time>2022-05-01T09:16:59Z</time>
      </trkpt>
      <trkpt lat="45.10073" lon="0.7021">
        <ele>215.9</ele>
        <time>2022-05-01T09:17:00Z</time>
      </trkpt>
      <trkpt lat="45.10079" lon="0.70209">
        <ele>215.7</ele>
        <time>2022-05-01T09:17:01Z</time>
      </trkpt>
      <trkpt lat="45.10092" lon="0.7021">
        <ele>215</ele>
        <time>2022-05-01T09:17:03Z</time>
      </trkpt>
      <trkpt lat="45.10107" lon="0.70209">
        <ele>215.2</ele>
        <time>2022-05-01T09:17:05Z</time>
      </trkpt>
      <trkpt lat="45.10114" lon="0.70208">
        <ele>215.2</ele>
        <time>2022-05-01T09:17:06Z</time>
      </trkpt>
      <trkpt lat="45.10121" lon="0.70209">
        <ele>214.9</ele>
        <time>2022-05-01T09:17:07Z</time>
      </trkpt>
      <trkpt lat="45.10136" lon="0.70209">
        <ele>214.7</ele>
        <time>2022-05-01T09:17:09Z</time>
      </trkpt>
      <trkpt lat="45.1015" lon="0.70209">
        <ele>214.3</ele>
        <time>2022-05-01T09:17:11Z</time>
      </trkpt>
      <trkpt lat="45.10157" lon="0.70207">
        <ele>213.8</ele>
        <time>2022-05-01T09:17:12Z</time>
      </trkpt>
      <trkpt lat="45.10163" lon="0.70206">
        <ele>213.8</ele>
        <time>2022-05-01T09:17:13Z</time>
      </trkpt>
      <trkpt lat="45.10173" lon="0.70203">
        <ele>213.5</ele>
        <time>2022-05-01T09:17:15Z</time>
      </trkpt>
      <trkpt lat="45.10176" lon="0.70187">
        <ele>213.2</ele>
        <time>2022-05-01T09:17:16Z</time>
      </trkpt>
      <trkpt lat="45.1018" lon="0.70188">
        <ele>213.1</ele>
        <time>2022-05-01T09:17:17Z</time>
      </trkpt>
      <trkpt lat="45.10182" lon="0.70188">
        <ele>213.1</ele>
        <time>2022-05-01T09:17:19Z</time>
      </trkpt>
      <trkpt lat="45.10193" lon="0.70202">
        <ele>212.4</ele>
        <time>2022-05-01T09:17:20Z</time>
      </trkpt>
      <trkpt lat="45.10198" lon="0.70205">
        <ele>212.2</ele>
        <time>2022-05-01T09:17:21Z</time>
      </trkpt>
      <trkpt lat="45.10208" lon="0.70213">
        <ele>211.6</ele>
        <time>2022-05-01T09:17:23Z</time>
      </trkpt>
      <trkpt lat="45.10213" lon="0.70217">
        <ele>211.2</ele>
        <time>2022-05-01T09:17:24Z</time>
      </trkpt>
      <trkpt lat="45.10218" lon="0.70221">
        <ele>210.9</ele>
        <time>2022-05-01T09:17:25Z</time>
      </trkpt>
      <trkpt lat="45.1022" lon="0.70222">
        <ele>210.7</ele>
        <time>2022-05-01T09:17:26Z</time>
      </trkpt>
      <trkpt lat="45.10222" lon="0.70226">
        <ele>210.4</ele>
        <time>2022-05-01T09:17:27Z</time>
      </trkpt>
      <trkpt lat="45.10225" lon="0.70229">
        <ele>210.2</ele>
        <time>2022-05-01T09:17:28Z</time>
      </trkpt>
      <trkpt lat="45.10227" lon="0.70233">
        <ele>210</ele>
        <time>2022-05-01T09:17:29Z</time>
      </trkpt>
      <trkpt lat="45.10235" lon="0.70245">
        <ele>209.4</ele>
        <time>2022-05-01T09:17:31Z</time>
      </trkpt>
      <trkpt lat="45.10239" lon="0.70252">
        <ele>209.1</ele>
        <time>2022-05-01T09:17:32Z</time>
      </trkpt>
      <trkpt lat="45.10243" lon="0.70259">
        <ele>208.8</ele>
        <time>2022-05-01T09:17:33Z</time>
      </trkpt>
      <trkpt lat="45.10249" lon="0.70269">
        <ele>208.6</ele>
        <time>2022-05-01T09:17:35Z</time>
      </trkpt>
      <trkpt lat="45.10256" lon="0.70285">
        <ele>208.5</ele>
        <time>2022-05-01T09:17:37Z</time>
      </trkpt>
      <trkpt lat="45.10259" lon="0.70292">
        <ele>208.6</ele>
        <time>2022-05-01T09:17:38Z</time>
      </trkpt>
      <trkpt lat="45.10263" lon="0.70299">
        <ele>208.8</ele>
        <time>2022-05-01T09:17:39Z</time>
      </trkpt>
      <trkpt lat="45.10265" lon="0.70305">
        <ele>209</ele>
        <time>2022-05-01T09:17:40Z</time>
      </trkpt>
      <trkpt lat="45.10268" lon="0.70311">
        <ele>209.2</ele>
        <time>2022-05-01T09:17:41Z</time>
      </trkpt>
      <trkpt lat="45.10309" lon="0.7028">
        <ele>207.3</ele>
        <time>2022-05-01T09:17:42Z</time>
      </trkpt>
      <trkpt lat="45.1035" lon="0.7025">
        <ele>205</ele>
        <time>2022-05-01T09:17:43Z</time>
      </trkpt>
      <trkpt lat="45.10356" lon="0.70246">
        <ele>205</ele>
        <time>2022-05-01T09:17:44Z</time>
      </trkpt>
      <trkpt lat="45.10362" lon="0.70242">
        <ele>204.8</ele>
        <time>2022-05-01T09:17:45Z</time>
      </trkpt>
      <trkpt lat="45.10377" lon="0.70235">
        <ele>204.6</ele>
        <time>2022-05-01T09:17:47Z</time>
      </trkpt>
      <trkpt lat="45.10383" lon="0.70233">
        <ele>204.3</ele>
        <time>2022-05-01T09:17:48Z</time>
      </trkpt>
      <trkpt lat="45.10389" lon="0.7023">
        <ele>204.3</ele>
        <time>2022-05-01T09:17:49Z</time>
      </trkpt>
      <trkpt lat="45.10397" lon="0.70225">
        <ele>203.1</ele>
        <time>2022-05-01T09:17:50Z</time>
      </trkpt>
      <trkpt lat="45.10404" lon="0.7022">
        <ele>203.1</ele>
        <time>2022-05-01T09:17:51Z</time>
      </trkpt>
      <trkpt lat="45.1041" lon="0.70216">
        <ele>202</ele>
        <time>2022-05-01T09:17:52Z</time>
      </trkpt>
      <trkpt lat="45.10416" lon="0.7021">
        <ele>202</ele>
        <time>2022-05-01T09:17:53Z</time>
      </trkpt>
      <trkpt lat="45.10425" lon="0.70196">
        <ele>199.9</ele>
        <time>2022-05-01T09:17:55Z</time>
      </trkpt>
      <trkpt lat="45.10429" lon="0.70189">
        <ele>199.5</ele>
        <time>2022-05-01T09:17:56Z</time>
      </trkpt>
      <trkpt lat="45.10433" lon="0.70182">
        <ele>198</ele>
        <time>2022-05-01T09:17:57Z</time>
      </trkpt>
      <trkpt lat="45.10436" lon="0.70175">
        <ele>198</ele>
        <time>2022-05-01T09:17:58Z</time>
      </trkpt>
      <trkpt lat="45.10439" lon="0.70169">
        <ele>197.9</ele>
        <time>2022-05-01T09:17:59Z</time>
      </trkpt>
      <trkpt lat="45.10441" lon="0.70162">
        <ele>197.9</ele>
        <time>2022-05-01T09:18:00Z</time>
      </trkpt>
      <trkpt lat="45.10445" lon="0.70154">
        <ele>196.6</ele>
        <time>2022-05-01T09:18:01Z</time>
      </trkpt>
      <trkpt lat="45.10455" lon="0.70139">
        <ele>197.7</ele>
        <time>2022-05-01T09:18:03Z</time>
      </trkpt>
      <trkpt lat="45.10459" lon="0.70132">
        <ele>196.2</ele>
        <time>2022-05-01T09:18:04Z</time>
      </trkpt>
      <trkpt lat="45.10462" lon="0.70124">
        <ele>198.2</ele>
        <time>2022-05-01T09:18:05Z</time>
      </trkpt>
      <trkpt lat="45.10462" lon="0.7011">
        <ele>198.2</ele>
        <time>2022-05-01T09:18:07Z</time>
      </trkpt>
      <trkpt lat="45.10458" lon="0.70103">
        <ele>201</ele>
        <time>2022-05-01T09:18:09Z</time>
      </trkpt>
      <trkpt lat="45.10455" lon="0.70096">
        <ele>201</ele>
        <time>2022-05-01T09:18:11Z</time>
      </trkpt>
      <trkpt lat="45.10452" lon="0.70089">
        <ele>202</ele>
        <time>2022-05-01T09:18:13Z</time>
      </trkpt>
      <trkpt lat="45.1045" lon="0.70084">
        <ele>204.2</ele>
        <time>2022-05-01T09:18:15Z</time>
      </trkpt>
      <trkpt lat="45.10447" lon="0.7008">
        <ele>204.2</ele>
        <time>2022-05-01T09:18:17Z</time>
      </trkpt>
      <trkpt lat="45.10446" lon="0.70076">
        <ele>204.2</ele>
        <time>2022-05-01T09:18:18Z</time>
      </trkpt>
      <trkpt lat="45.10445" lon="0.70073">
        <ele>204.2</ele>
        <time>2022-05-01T09:18:19Z</time>
      </trkpt>
      <trkpt lat="45.10443" lon="0.70071">
        <ele>206</ele>
        <time>2022-05-01T09:18:20Z</time>
      </trkpt>
      <trkpt lat="45.10441" lon="0.70067">
        <ele>206.3</ele>
        <time>2022-05-01T09:18:21Z</time>
      </trkpt>
      <trkpt lat="45.10438" lon="0.70061">
        <ele>206.3</ele>
        <time>2022-05-01T09:18:23Z</time>
      </trkpt>
      <trkpt lat="45.10434" lon="0.70052">
        <ele>207.9</ele>
        <time>2022-05-01T09:18:25Z</time>
      </trkpt>
      <trkpt lat="45.10433" lon="0.70045">
        <ele>207.9</ele>
        <time>2022-05-01T09:18:27Z</time>
      </trkpt>
      <trkpt lat="45.1043" lon="0.70038">
        <ele>208.1</ele>
        <time>2022-05-01T09:18:29Z</time>
      </trkpt>
      <trkpt lat="45.10427" lon="0.70032">
        <ele>209.5</ele>
        <time>2022-05-01T09:18:31Z</time>
      </trkpt>
      <trkpt lat="45.10426" lon="0.70029">
        <ele>209.5</ele>
        <time>2022-05-01T09:18:32Z</time>
      </trkpt>
      <trkpt lat="45.10425" lon="0.70027">
        <ele>209.5</ele>
        <time>2022-05-01T09:18:33Z</time>
      </trkpt>
      <trkpt lat="45.10423" lon="0.70022">
        <ele>209.5</ele>
        <time>2022-05-01T09:18:35Z</time>
      </trkpt>
      <trkpt lat="45.10421" lon="0.70015">
        <ele>211</ele>
        <time>2022-05-01T09:18:37Z</time>
      </trkpt>
      <trkpt lat="45.10419" lon="0.7001">
        <ele>211</ele>
        <time>2022-05-01T09:18:39Z</time>
      </trkpt>
      <trkpt lat="45.10417" lon="0.70004">
        <ele>210.8</ele>
        <time>2022-05-01T09:18:41Z</time>
      </trkpt>
      <trkpt lat="45.10414" lon="0.69997">
        <ele>212.2</ele>
        <time>2022-05-01T09:18:43Z</time>
      </trkpt>
      <trkpt lat="45.10412" lon="0.69992">
        <ele>212.2</ele>
        <time>2022-05-01T09:18:45Z</time>
      </trkpt>
      <trkpt lat="45.10409" lon="0.69985">
        <ele>213.5</ele>
        <time>2022-05-01T09:18:47Z</time>
      </trkpt>
      <trkpt lat="45.10408" lon="0.6998">
        <ele>213.5</ele>
        <time>2022-05-01T09:18:48Z</time>
      </trkpt>
      <trkpt lat="45.10406" lon="0.69978">
        <ele>213.1</ele>
        <time>2022-05-01T09:18:49Z</time>
      </trkpt>
      <trkpt lat="45.10403" lon="0.69972">
        <ele>213.1</ele>
        <time>2022-05-01T09:18:51Z</time>
      </trkpt>
      <trkpt lat="45.104" lon="0.69966">
        <ele>214.4</ele>
        <time>2022-05-01T09:18:53Z</time>
      </trkpt>
      <trkpt lat="45.10398" lon="0.69962">
        <ele>214.4</ele>
        <time>2022-05-01T09:18:54Z</time>
      </trkpt>
      <trkpt lat="45.10396" lon="0.69959">
        <ele>214.4</ele>
        <time>2022-05-01T09:18:55Z</time>
      </trkpt>
      <trkpt lat="45.10393" lon="0.69952">
        <ele>215.1</ele>
        <time>2022-05-01T09:18:57Z</time>
      </trkpt>
      <trkpt lat="45.10391" lon="0.69947">
        <ele>215.1</ele>
        <time>2022-05-01T09:18:59Z</time>
      </trkpt>
      <trkpt lat="45.1039" lon="0.69945">
        <ele>215.1</ele>
        <time>2022-05-01T09:19:00Z</time>
      </trkpt>
      <trkpt lat="45.10388" lon="0.69941">
        <ele>215.1</ele>
        <time>2022-05-01T09:19:01Z</time>
      </trkpt>
      <trkpt lat="45.10385" lon="0.69935">
        <ele>215.1</ele>
        <time>2022-05-01T09:19:03Z</time>
      </trkpt>
      <trkpt lat="45.10382" lon="0.6993">
        <ele>215.8</ele>
        <time>2022-05-01T09:19:05Z</time>
      </trkpt>
      <trkpt lat="45.1038" lon="0.69928">
        <ele>215.1</ele>
        <time>2022-05-01T09:19:07Z</time>
      </trkpt>
      <trkpt lat="45.10377" lon="0.69921">
        <ele>215.1</ele>
        <time>2022-05-01T09:19:09Z</time>
      </trkpt>
      <trkpt lat="45.10376" lon="0.69919">
        <ele>215.1</ele>
        <time>2022-05-01T09:19:10Z</time>
      </trkpt>
      <trkpt lat="45.10374" lon="0.69918">
        <ele>215.1</ele>
        <time>2022-05-01T09:19:11Z</time>
      </trkpt>
      <trkpt lat="45.10371" lon="0.69911">
        <ele>215.6</ele>
        <time>2022-05-01T09:19:13Z</time>
      </trkpt>
      <trkpt lat="45.10367" lon="0.69904">
        <ele>214.9</ele>
        <time>2022-05-01T09:19:15Z</time>
      </trkpt>
      <trkpt lat="45.10365" lon="0.69899">
        <ele>215.4</ele>
        <time>2022-05-01T09:19:16Z</time>
      </trkpt>
      <trkpt lat="45.10363" lon="0.69896">
        <ele>215.4</ele>
        <time>2022-05-01T09:19:17Z</time>
      </trkpt>
      <trkpt lat="45.10359" lon="0.69892">
        <ele>215.4</ele>
        <time>2022-05-01T09:19:19Z</time>
      </trkpt>
      <trkpt lat="45.10357" lon="0.69888">
        <ele>214.4</ele>
        <time>2022-05-01T09:19:21Z</time>
      </trkpt>
      <trkpt lat="45.10354" lon="0.69884">
        <ele>214.4</ele>
        <time>2022-05-01T09:19:23Z</time>
      </trkpt>
      <trkpt lat="45.10351" lon="0.6988">
        <ele>214.6</ele>
        <time>2022-05-01T09:19:25Z</time>
      </trkpt>
      <trkpt lat="45.1035" lon="0.69877">
        <ele>214.6</ele>
        <time>2022-05-01T09:19:26Z</time>
      </trkpt>
      <trkpt lat="45.10348" lon="0.69875">
        <ele>214.6</ele>
        <time>2022-05-01T09:19:27Z</time>
      </trkpt>
      <trkpt lat="45.10347" lon="0.69873">
        <ele>214.6</ele>
        <time>2022-05-01T09:19:28Z</time>
      </trkpt>
      <trkpt lat="45.10346" lon="0.6987">
        <ele>214.6</ele>
        <time>2022-05-01T09:19:29Z</time>
      </trkpt>
      <trkpt lat="45.10345" lon="0.69867">
        <ele>213.3</ele>
        <time>2022-05-01T09:19:30Z</time>
      </trkpt>
      <trkpt lat="45.10345" lon="0.69863">
        <ele>213.4</ele>
        <time>2022-05-01T09:19:31Z</time>
      </trkpt>
      <trkpt lat="45.10343" lon="0.69858">
        <ele>213.4</ele>
        <time>2022-05-01T09:19:33Z</time>
      </trkpt>
      <trkpt lat="45.10341" lon="0.69853">
        <ele>213.4</ele>
        <time>2022-05-01T09:19:35Z</time>
      </trkpt>
      <trkpt lat="45.1034" lon="0.69847">
        <ele>213.4</ele>
        <time>2022-05-01T09:19:37Z</time>
      </trkpt>
      <trkpt lat="45.10341" lon="0.69845">
        <ele>213.4</ele>
        <time>2022-05-01T09:19:38Z</time>
      </trkpt>
      <trkpt lat="45.1034" lon="0.69843">
        <ele>213.4</ele>
        <time>2022-05-01T09:19:39Z</time>
      </trkpt>
      <trkpt lat="45.10339" lon="0.69835">
        <ele>213.4</ele>
        <time>2022-05-01T09:19:41Z</time>
      </trkpt>
      <trkpt lat="45.10338" lon="0.69829">
        <ele>213.4</ele>
        <time>2022-05-01T09:19:43Z</time>
      </trkpt>
      <trkpt lat="45.10337" lon="0.69821">
        <ele>213.4</ele>
        <time>2022-05-01T09:19:45Z</time>
      </trkpt>
      <trkpt lat="45.10337" lon="0.69814">
        <ele>213.6</ele>
        <time>2022-05-01T09:19:47Z</time>
      </trkpt>
      <trkpt lat="45.10337" lon="0.6981">
        <ele>213.6</ele>
        <time>2022-05-01T09:19:48Z</time>
      </trkpt>
      <trkpt lat="45.10337" lon="0.69806">
        <ele>213.6</ele>
        <time>2022-05-01T09:19:49Z</time>
      </trkpt>
      <trkpt lat="45.10337" lon="0.69804">
        <ele>213.6</ele>
        <time>2022-05-01T09:19:51Z</time>
      </trkpt>
      <trkpt lat="45.10336" lon="0.69799">
        <ele>213.6</ele>
        <time>2022-05-01T09:19:53Z</time>
      </trkpt>
      <trkpt lat="45.10336" lon="0.69796">
        <ele>213.9</ele>
        <time>2022-05-01T09:19:54Z</time>
      </trkpt>
      <trkpt lat="45.10336" lon="0.69791">
        <ele>213.9</ele>
        <time>2022-05-01T09:19:55Z</time>
      </trkpt>
      <trkpt lat="45.10335" lon="0.69783">
        <ele>213.9</ele>
        <time>2022-05-01T09:19:57Z</time>
      </trkpt>
      <trkpt lat="45.10335" lon="0.69778">
        <ele>214.3</ele>
        <time>2022-05-01T09:19:58Z</time>
      </trkpt>
      <trkpt lat="45.10335" lon="0.69774">
        <ele>214.3</ele>
        <time>2022-05-01T09:19:59Z</time>
      </trkpt>
      <trkpt lat="45.10334" lon="0.69771">
        <ele>214.3</ele>
        <time>2022-05-01T09:20:00Z</time>
      </trkpt>
      <trkpt lat="45.10334" lon="0.69769">
        <ele>214.3</ele>
        <time>2022-05-01T09:20:01Z</time>
      </trkpt>
      <trkpt lat="45.10334" lon="0.69764">
        <ele>214.3</ele>
        <time>2022-05-01T09:20:03Z</time>
      </trkpt>
      <trkpt lat="45.10333" lon="0.69758">
        <ele>214.1</ele>
        <time>2022-05-01T09:20:05Z</time>
      </trkpt>
      <trkpt lat="45.10334" lon="0.69754">
        <ele>214.9</ele>
        <time>2022-05-01T09:20:07Z</time>
      </trkpt>
      <trkpt lat="45.10333" lon="0.69746">
        <ele>214.8</ele>
        <time>2022-05-01T09:20:09Z</time>
      </trkpt>
      <trkpt lat="45.10332" lon="0.69738">
        <ele>214.8</ele>
        <time>2022-05-01T09:20:11Z</time>
      </trkpt>
      <trkpt lat="45.10332" lon="0.69731">
        <ele>214.8</ele>
        <time>2022-05-01T09:20:13Z</time>
      </trkpt>
      <trkpt lat="45.10331" lon="0.69726">
        <ele>215.4</ele>
        <time>2022-05-01T09:20:15Z</time>
      </trkpt>
      <trkpt lat="45.1033" lon="0.69722">
        <ele>215.4</ele>
        <time>2022-05-01T09:20:17Z</time>
      </trkpt>
      <trkpt lat="45.10329" lon="0.69714">
        <ele>215.4</ele>
        <time>2022-05-01T09:20:19Z</time>
      </trkpt>
      <trkpt lat="45.1033" lon="0.69708">
        <ele>216.1</ele>
        <time>2022-05-01T09:20:21Z</time>
      </trkpt>
      <trkpt lat="45.10328" lon="0.69704">
        <ele>216.1</ele>
        <time>2022-05-01T09:20:22Z</time>
      </trkpt>
      <trkpt lat="45.10327" lon="0.69699">
        <ele>216.1</ele>
        <time>2022-05-01T09:20:23Z</time>
      </trkpt>
      <trkpt lat="45.10326" lon="0.69693">
        <ele>216.8</ele>
        <time>2022-05-01T09:20:25Z</time>
      </trkpt>
      <trkpt lat="45.10325" lon="0.6969">
        <ele>216.8</ele>
        <time>2022-05-01T09:20:26Z</time>
      </trkpt>
      <trkpt lat="45.10325" lon="0.69687">
        <ele>216.8</ele>
        <time>2022-05-01T09:20:27Z</time>
      </trkpt>
      <trkpt lat="45.10323" lon="0.6968">
        <ele>216.8</ele>
        <time>2022-05-01T09:20:29Z</time>
      </trkpt>
      <trkpt lat="45.10323" lon="0.69673">
        <ele>217.5</ele>
        <time>2022-05-01T09:20:31Z</time>
      </trkpt>
      <trkpt lat="45.10323" lon="0.6967">
        <ele>217.5</ele>
        <time>2022-05-01T09:20:32Z</time>
      </trkpt>
      <trkpt lat="45.10323" lon="0.69667">
        <ele>217.5</ele>
        <time>2022-05-01T09:20:33Z</time>
      </trkpt>
      <trkpt lat="45.10324" lon="0.69663">
        <ele>217.5</ele>
        <time>2022-05-01T09:20:35Z</time>
      </trkpt>
      <trkpt lat="45.10324" lon="0.69659">
        <ele>218.4</ele>
        <time>2022-05-01T09:20:37Z</time>
      </trkpt>
      <trkpt lat="45.10323" lon="0.69652">
        <ele>218.4</ele>
        <time>2022-05-01T09:20:39Z</time>
      </trkpt>
      <trkpt lat="45.10323" lon="0.69648">
        <ele>218.4</ele>
        <time>2022-05-01T09:20:41Z</time>
      </trkpt>
      <trkpt lat="45.10323" lon="0.69646">
        <ele>218.4</ele>
        <time>2022-05-01T09:20:42Z</time>
      </trkpt>
      <trkpt lat="45.10323" lon="0.69643">
        <ele>218.4</ele>
        <time>2022-05-01T09:20:43Z</time>
      </trkpt>
      <trkpt lat="45.10322" lon="0.6964">
        <ele>219.2</ele>
        <time>2022-05-01T09:20:45Z</time>
      </trkpt>
      <trkpt lat="45.10322" lon="0.69635">
        <ele>219.2</ele>
        <time>2022-05-01T09:20:47Z</time>
      </trkpt>
      <trkpt lat="45.10322" lon="0.69632">
        <ele>219.2</ele>
        <time>2022-05-01T09:20:48Z</time>
      </trkpt>
      <trkpt lat="45.10321" lon="0.69629">
        <ele>218.7</ele>
        <time>2022-05-01T09:20:49Z</time>
      </trkpt>
      <trkpt lat="45.10319" lon="0.69625">
        <ele>219.5</ele>
        <time>2022-05-01T09:20:51Z</time>
      </trkpt>
      <trkpt lat="45.10319" lon="0.69622">
        <ele>219.5</ele>
        <time>2022-05-01T09:20:52Z</time>
      </trkpt>
      <trkpt lat="45.10318" lon="0.6962">
        <ele>219.5</ele>
        <time>2022-05-01T09:20:53Z</time>
      </trkpt>
      <trkpt lat="45.10317" lon="0.69615">
        <ele>219.5</ele>
        <time>2022-05-01T09:20:55Z</time>
      </trkpt>
      <trkpt lat="45.10316" lon="0.69611">
        <ele>219.5</ele>
        <time>2022-05-01T09:20:57Z</time>
      </trkpt>
      <trkpt lat="45.10316" lon="0.69608">
        <ele>220.3</ele>
        <time>2022-05-01T09:20:59Z</time>
      </trkpt>
      <trkpt lat="45.10316" lon="0.69602">
        <ele>220.3</ele>
        <time>2022-05-01T09:21:01Z</time>
      </trkpt>
      <trkpt lat="45.10315" lon="0.69596">
        <ele>220.3</ele>
        <time>2022-05-01T09:21:03Z</time>
      </trkpt>
      <trkpt lat="45.10314" lon="0.69593">
        <ele>220.3</ele>
        <time>2022-05-01T09:21:04Z</time>
      </trkpt>
      <trkpt lat="45.10314" lon="0.69588">
        <ele>220.9</ele>
        <time>2022-05-01T09:21:05Z</time>
      </trkpt>
      <trkpt lat="45.10315" lon="0.69576">
        <ele>220.9</ele>
        <time>2022-05-01T09:21:07Z</time>
      </trkpt>
      <trkpt lat="45.10316" lon="0.69571">
        <ele>221.4</ele>
        <time>2022-05-01T09:21:09Z</time>
      </trkpt>
      <trkpt lat="45.10316" lon="0.69568">
        <ele>221.4</ele>
        <time>2022-05-01T09:21:10Z</time>
      </trkpt>
      <trkpt lat="45.10315" lon="0.69565">
        <ele>221.4</ele>
        <time>2022-05-01T09:21:11Z</time>
      </trkpt>
      <trkpt lat="45.10314" lon="0.69564">
        <ele>221.4</ele>
        <time>2022-05-01T09:21:13Z</time>
      </trkpt>
      <trkpt lat="45.10313" lon="0.69563">
        <ele>221.4</ele>
        <time>2022-05-01T09:21:14Z</time>
      </trkpt>
      <trkpt lat="45.10313" lon="0.69562">
        <ele>221.4</ele>
        <time>2022-05-01T09:21:15Z</time>
      </trkpt>
      <trkpt lat="45.10314" lon="0.69552">
        <ele>221.8</ele>
        <time>2022-05-01T09:21:17Z</time>
      </trkpt>
      <trkpt lat="45.10314" lon="0.69544">
        <ele>221.8</ele>
        <time>2022-05-01T09:21:19Z</time>
      </trkpt>
      <trkpt lat="45.10315" lon="0.69537">
        <ele>222.2</ele>
        <time>2022-05-01T09:21:21Z</time>
      </trkpt>
      <trkpt lat="45.10315" lon="0.69532">
        <ele>222.2</ele>
        <time>2022-05-01T09:21:23Z</time>
      </trkpt>
      <trkpt lat="45.10314" lon="0.69523">
        <ele>222.2</ele>
        <time>2022-05-01T09:21:25Z</time>
      </trkpt>
      <trkpt lat="45.10314" lon="0.69516">
        <ele>222.6</ele>
        <time>2022-05-01T09:21:27Z</time>
      </trkpt>
      <trkpt lat="45.10314" lon="0.6951">
        <ele>222.6</ele>
        <time>2022-05-01T09:21:29Z</time>
      </trkpt>
      <trkpt lat="45.10315" lon="0.69504">
        <ele>223.1</ele>
        <time>2022-05-01T09:21:31Z</time>
      </trkpt>
      <trkpt lat="45.10315" lon="0.69497">
        <ele>223.1</ele>
        <time>2022-05-01T09:21:33Z</time>
      </trkpt>
      <trkpt lat="45.10316" lon="0.69492">
        <ele>223.1</ele>
        <time>2022-05-01T09:21:35Z</time>
      </trkpt>
      <trkpt lat="45.10316" lon="0.69488">
        <ele>223.6</ele>
        <time>2022-05-01T09:21:37Z</time>
      </trkpt>
      <trkpt lat="45.10316" lon="0.69485">
        <ele>223.6</ele>
        <time>2022-05-01T09:21:38Z</time>
      </trkpt>
      <trkpt lat="45.10316" lon="0.69483">
        <ele>223.6</ele>
        <time>2022-05-01T09:21:39Z</time>
      </trkpt>
      <trkpt lat="45.10317" lon="0.69478">
        <ele>223.6</ele>
        <time>2022-05-01T09:21:41Z</time>
      </trkpt>
      <trkpt lat="45.10317" lon="0.69472">
        <ele>223.6</ele>
        <time>2022-05-01T09:21:43Z</time>
      </trkpt>
      <trkpt lat="45.10317" lon="0.69467">
        <ele>224.1</ele>
        <time>2022-05-01T09:21:45Z</time>
      </trkpt>
      <trkpt lat="45.10318" lon="0.69462">
        <ele>224.1</ele>
        <time>2022-05-01T09:21:47Z</time>
      </trkpt>
      <trkpt lat="45.10319" lon="0.69458">
        <ele>224.1</ele>
        <time>2022-05-01T09:21:49Z</time>
      </trkpt>
      <trkpt lat="45.10324" lon="0.69446">
        <ele>224.7</ele>
        <time>2022-05-01T09:21:51Z</time>
      </trkpt>
      <trkpt lat="45.10325" lon="0.69447">
        <ele>224.7</ele>
        <time>2022-05-01T09:21:52Z</time>
      </trkpt>
      <trkpt lat="45.10326" lon="0.69447">
        <ele>224.7</ele>
        <time>2022-05-01T09:21:53Z</time>
      </trkpt>
      <trkpt lat="45.10328" lon="0.6945">
        <ele>224.6</ele>
        <time>2022-05-01T09:21:55Z</time>
      </trkpt>
      <trkpt lat="45.10329" lon="0.69451">
        <ele>224.6</ele>
        <time>2022-05-01T09:21:56Z</time>
      </trkpt>
      <trkpt lat="45.1033" lon="0.69452">
        <ele>224.6</ele>
        <time>2022-05-01T09:21:57Z</time>
      </trkpt>
      <trkpt lat="45.10334" lon="0.69455">
        <ele>224.5</ele>
        <time>2022-05-01T09:21:59Z</time>
      </trkpt>
      <trkpt lat="45.10338" lon="0.69458">
        <ele>224.4</ele>
        <time>2022-05-01T09:22:01Z</time>
      </trkpt>
      <trkpt lat="45.1034" lon="0.6946">
        <ele>224.4</ele>
        <time>2022-05-01T09:22:02Z</time>
      </trkpt>
      <trkpt lat="45.10342" lon="0.69462">
        <ele>224.3</ele>
        <time>2022-05-01T09:22:03Z</time>
      </trkpt>
      <trkpt lat="45.10346" lon="0.69466">
        <ele>224.2</ele>
        <time>2022-05-01T09:22:05Z</time>
      </trkpt>
      <trkpt lat="45.1035" lon="0.6947">
        <ele>224.1</ele>
        <time>2022-05-01T09:22:07Z</time>
      </trkpt>
      <trkpt lat="45.10352" lon="0.69472">
        <ele>224.1</ele>
        <time>2022-05-01T09:22:08Z</time>
      </trkpt>
      <trkpt lat="45.10353" lon="0.69474">
        <ele>224</ele>
        <time>2022-05-01T09:22:09Z</time>
      </trkpt>
      <trkpt lat="45.10357" lon="0.69477">
        <ele>223.9</ele>
        <time>2022-05-01T09:22:11Z</time>
      </trkpt>
      <trkpt lat="45.10362" lon="0.69482">
        <ele>223.8</ele>
        <time>2022-05-01T09:22:13Z</time>
      </trkpt>
      <trkpt lat="45.10367" lon="0.69487">
        <ele>223.7</ele>
        <time>2022-05-01T09:22:15Z</time>
      </trkpt>
      <trkpt lat="45.10371" lon="0.69491">
        <ele>223.6</ele>
        <time>2022-05-01T09:22:17Z</time>
      </trkpt>
      <trkpt lat="45.10373" lon="0.69494">
        <ele>223.5</ele>
        <time>2022-05-01T09:22:18Z</time>
      </trkpt>
      <trkpt lat="45.10375" lon="0.69496">
        <ele>223.4</ele>
        <time>2022-05-01T09:22:19Z</time>
      </trkpt>
      <trkpt lat="45.10379" lon="0.69501">
        <ele>223.3</ele>
        <time>2022-05-01T09:22:21Z</time>
      </trkpt>
      <trkpt lat="45.10382" lon="0.69505">
        <ele>223.2</ele>
        <time>2022-05-01T09:22:23Z</time>
      </trkpt>
      <trkpt lat="45.10384" lon="0.69508">
        <ele>223.1</ele>
        <time>2022-05-01T09:22:24Z</time>
      </trkpt>
      <trkpt lat="45.10387" lon="0.69511">
        <ele>223</ele>
        <time>2022-05-01T09:22:25Z</time>
      </trkpt>
      <trkpt lat="45.10391" lon="0.69516">
        <ele>222.8</ele>
        <time>2022-05-01T09:22:27Z</time>
      </trkpt>
      <trkpt lat="45.10396" lon="0.69522">
        <ele>222.6</ele>
        <time>2022-05-01T09:22:29Z</time>
      </trkpt>
      <trkpt lat="45.10401" lon="0.69528">
        <ele>222.3</ele>
        <time>2022-05-01T09:22:31Z</time>
      </trkpt>
      <trkpt lat="45.10405" lon="0.69534">
        <ele>222.1</ele>
        <time>2022-05-01T09:22:33Z</time>
      </trkpt>
      <trkpt lat="45.1041" lon="0.69542">
        <ele>221.9</ele>
        <time>2022-05-01T09:22:35Z</time>
      </trkpt>
      <trkpt lat="45.10412" lon="0.69545">
        <ele>221.8</ele>
        <time>2022-05-01T09:22:36Z</time>
      </trkpt>
      <trkpt lat="45.10414" lon="0.69549">
        <ele>221.6</ele>
        <time>2022-05-01T09:22:37Z</time>
      </trkpt>
      <trkpt lat="45.10418" lon="0.69558">
        <ele>221.4</ele>
        <time>2022-05-01T09:22:39Z</time>
      </trkpt>
      <trkpt lat="45.10422" lon="0.69566">
        <ele>221.1</ele>
        <time>2022-05-01T09:22:41Z</time>
      </trkpt>
      <trkpt lat="45.10426" lon="0.69575">
        <ele>220.9</ele>
        <time>2022-05-01T09:22:43Z</time>
      </trkpt>
      <trkpt lat="45.10431" lon="0.69584">
        <ele>220.6</ele>
        <time>2022-05-01T09:22:45Z</time>
      </trkpt>
      <trkpt lat="45.10435" lon="0.69592">
        <ele>220.2</ele>
        <time>2022-05-01T09:22:47Z</time>
      </trkpt>
      <trkpt lat="45.10438" lon="0.69597">
        <ele>220.1</ele>
        <time>2022-05-01T09:22:48Z</time>
      </trkpt>
      <trkpt lat="45.1044" lon="0.69602">
        <ele>219.9</ele>
        <time>2022-05-01T09:22:49Z</time>
      </trkpt>
      <trkpt lat="45.10445" lon="0.69611">
        <ele>219.6</ele>
        <time>2022-05-01T09:22:51Z</time>
      </trkpt>
      <trkpt lat="45.10447" lon="0.69616">
        <ele>219.4</ele>
        <time>2022-05-01T09:22:52Z</time>
      </trkpt>
      <trkpt lat="45.1045" lon="0.69622">
        <ele>219.1</ele>
        <time>2022-05-01T09:22:53Z</time>
      </trkpt>
      <trkpt lat="45.10453" lon="0.69627">
        <ele>218.9</ele>
        <time>2022-05-01T09:22:54Z</time>
      </trkpt>
      <trkpt lat="45.10457" lon="0.69632">
        <ele>218.7</ele>
        <time>2022-05-01T09:22:55Z</time>
      </trkpt>
      <trkpt lat="45.10463" lon="0.6964">
        <ele>218.2</ele>
        <time>2022-05-01T09:22:57Z</time>
      </trkpt>
      <trkpt lat="45.1047" lon="0.69649">
        <ele>217.7</ele>
        <time>2022-05-01T09:22:59Z</time>
      </trkpt>
      <trkpt lat="45.10474" lon="0.69654">
        <ele>217.4</ele>
        <time>2022-05-01T09:23:00Z</time>
      </trkpt>
      <trkpt lat="45.10477" lon="0.69659">
        <ele>217.2</ele>
        <time>2022-05-01T09:23:01Z</time>
      </trkpt>
      <trkpt lat="45.1048" lon="0.69672">
        <ele>216.7</ele>
        <time>2022-05-01T09:23:03Z</time>
      </trkpt>
      <trkpt lat="45.10484" lon="0.69685">
        <ele>216.1</ele>
        <time>2022-05-01T09:23:05Z</time>
      </trkpt>
      <trkpt lat="45.10488" lon="0.69699">
        <ele>215.7</ele>
        <time>2022-05-01T09:23:07Z</time>
      </trkpt>
      <trkpt lat="45.10492" lon="0.69712">
        <ele>215.3</ele>
        <time>2022-05-01T09:23:09Z</time>
      </trkpt>
      <trkpt lat="45.10496" lon="0.69724">
        <ele>215.1</ele>
        <time>2022-05-01T09:23:11Z</time>
      </trkpt>
      <trkpt lat="45.105" lon="0.69736">
        <ele>215</ele>
        <time>2022-05-01T09:23:13Z</time>
      </trkpt>
      <trkpt lat="45.10504" lon="0.69748">
        <ele>214.9</ele>
        <time>2022-05-01T09:23:15Z</time>
      </trkpt>
      <trkpt lat="45.10508" lon="0.6976">
        <ele>214.8</ele>
        <time>2022-05-01T09:23:17Z</time>
      </trkpt>
      <trkpt lat="45.10512" lon="0.69772">
        <ele>214.6</ele>
        <time>2022-05-01T09:23:19Z</time>
      </trkpt>
      <trkpt lat="45.10514" lon="0.69779">
        <ele>214.6</ele>
        <time>2022-05-01T09:23:20Z</time>
      </trkpt>
      <trkpt lat="45.10516" lon="0.69785">
        <ele>214.5</ele>
        <time>2022-05-01T09:23:21Z</time>
      </trkpt>
      <trkpt lat="45.10519" lon="0.69797">
        <ele>214.4</ele>
        <time>2022-05-01T09:23:23Z</time>
      </trkpt>
      <trkpt lat="45.10523" lon="0.69808">
        <ele>214.3</ele>
        <time>2022-05-01T09:23:25Z</time>
      </trkpt>
      <trkpt lat="45.10527" lon="0.69821">
        <ele>214</ele>
        <time>2022-05-01T09:23:27Z</time>
      </trkpt>
      <trkpt lat="45.1053" lon="0.69828">
        <ele>213.8</ele>
        <time>2022-05-01T09:23:28Z</time>
      </trkpt>
      <trkpt lat="45.10532" lon="0.69835">
        <ele>213.6</ele>
        <time>2022-05-01T09:23:29Z</time>
      </trkpt>
      <trkpt lat="45.10538" lon="0.69849">
        <ele>213.1</ele>
        <time>2022-05-01T09:23:31Z</time>
      </trkpt>
      <trkpt lat="45.10541" lon="0.69857">
        <ele>212.8</ele>
        <time>2022-05-01T09:23:32Z</time>
      </trkpt>
      <trkpt lat="45.10545" lon="0.69862">
        <ele>212.5</ele>
        <time>2022-05-01T09:23:33Z</time>
      </trkpt>
      <trkpt lat="45.1055" lon="0.69868">
        <ele>212.2</ele>
        <time>2022-05-01T09:23:34Z</time>
      </trkpt>
      <trkpt lat="45.10555" lon="0.69874">
        <ele>211.9</ele>
        <time>2022-05-01T09:23:35Z</time>
      </trkpt>
      <trkpt lat="45.10566" lon="0.69888">
        <ele>211.1</ele>
        <time>2022-05-01T09:23:37Z</time>
      </trkpt>
      <trkpt lat="45.10572" lon="0.69894">
        <ele>210.9</ele>
        <time>2022-05-01T09:23:38Z</time>
      </trkpt>
      <trkpt lat="45.10577" lon="0.69904">
        <ele>210.7</ele>
        <time>2022-05-01T09:23:39Z</time>
      </trkpt>
      <trkpt lat="45.1058" lon="0.69923">
        <ele>210.6</ele>
        <time>2022-05-01T09:23:41Z</time>
      </trkpt>
      <trkpt lat="45.10584" lon="0.69932">
        <ele>210.6</ele>
        <time>2022-05-01T09:23:42Z</time>
      </trkpt>
      <trkpt lat="45.10589" lon="0.6994">
        <ele>210.5</ele>
        <time>2022-05-01T09:23:43Z</time>
      </trkpt>
      <trkpt lat="45.10598" lon="0.69954">
        <ele>210.3</ele>
        <time>2022-05-01T09:23:45Z</time>
      </trkpt>
      <trkpt lat="45.10609" lon="0.69966">
        <ele>210.1</ele>
        <time>2022-05-01T09:23:47Z</time>
      </trkpt>
      <trkpt lat="45.1062" lon="0.69978">
        <ele>209.8</ele>
        <time>2022-05-01T09:23:49Z</time>
      </trkpt>
      <trkpt lat="45.10625" lon="0.69983">
        <ele>209.5</ele>
        <time>2022-05-01T09:23:50Z</time>
      </trkpt>
      <trkpt lat="45.10631" lon="0.69989">
        <ele>209.3</ele>
        <time>2022-05-01T09:23:51Z</time>
      </trkpt>
      <trkpt lat="45.1064" lon="0.70003">
        <ele>208.9</ele>
        <time>2022-05-01T09:23:53Z</time>
      </trkpt>
      <trkpt lat="45.10649" lon="0.70019">
        <ele>208.4</ele>
        <time>2022-05-01T09:23:55Z</time>
      </trkpt>
      <trkpt lat="45.10657" lon="0.70035">
        <ele>207.8</ele>
        <time>2022-05-01T09:23:57Z</time>
      </trkpt>
      <trkpt lat="45.10662" lon="0.70043">
        <ele>207.4</ele>
        <time>2022-05-01T09:23:58Z</time>
      </trkpt>
      <trkpt lat="45.10666" lon="0.70051">
        <ele>207</ele>
        <time>2022-05-01T09:23:59Z</time>
      </trkpt>
      <trkpt lat="45.1067" lon="0.70059">
        <ele>206.5</ele>
        <time>2022-05-01T09:24:00Z</time>
      </trkpt>
      <trkpt lat="45.10675" lon="0.70067">
        <ele>206</ele>
        <time>2022-05-01T09:24:01Z</time>
      </trkpt>
      <trkpt lat="45.10684" lon="0.70085">
        <ele>205</ele>
        <time>2022-05-01T09:24:03Z</time>
      </trkpt>
      <trkpt lat="45.10695" lon="0.70104">
        <ele>203.8</ele>
        <time>2022-05-01T09:24:05Z</time>
      </trkpt>
      <trkpt lat="45.10706" lon="0.70122">
        <ele>202.5</ele>
        <time>2022-05-01T09:24:07Z</time>
      </trkpt>
      <trkpt lat="45.10717" lon="0.7014">
        <ele>201.3</ele>
        <time>2022-05-01T09:24:09Z</time>
      </trkpt>
      <trkpt lat="45.10723" lon="0.70149">
        <ele>200.7</ele>
        <time>2022-05-01T09:24:10Z</time>
      </trkpt>
      <trkpt lat="45.10729" lon="0.70159">
        <ele>200</ele>
        <time>2022-05-01T09:24:11Z</time>
      </trkpt>
      <trkpt lat="45.1074" lon="0.70177">
        <ele>198.8</ele>
        <time>2022-05-01T09:24:13Z</time>
      </trkpt>
      <trkpt lat="45.10753" lon="0.70197">
        <ele>197</ele>
        <time>2022-05-01T09:24:15Z</time>
      </trkpt>
      <trkpt lat="45.1076" lon="0.70208">
        <ele>196.1</ele>
        <time>2022-05-01T09:24:16Z</time>
      </trkpt>
      <trkpt lat="45.10766" lon="0.70219">
        <ele>195.4</ele>
        <time>2022-05-01T09:24:17Z</time>
      </trkpt>
      <trkpt lat="45.10774" lon="0.70229">
        <ele>195</ele>
        <time>2022-05-01T09:24:18Z</time>
      </trkpt>
      <trkpt lat="45.10782" lon="0.70237">
        <ele>194.7</ele>
        <time>2022-05-01T09:24:19Z</time>
      </trkpt>
      <trkpt lat="45.1079" lon="0.70245">
        <ele>194.4</ele>
        <time>2022-05-01T09:24:20Z</time>
      </trkpt>
      <trkpt lat="45.10798" lon="0.70253">
        <ele>194.1</ele>
        <time>2022-05-01T09:24:21Z</time>
      </trkpt>
      <trkpt lat="45.10813" lon="0.70268">
        <ele>193.6</ele>
        <time>2022-05-01T09:24:23Z</time>
      </trkpt>
      <trkpt lat="45.10828" lon="0.70283">
        <ele>193.3</ele>
        <time>2022-05-01T09:24:25Z</time>
      </trkpt>
      <trkpt lat="45.10835" lon="0.7029">
        <ele>193.1</ele>
        <time>2022-05-01T09:24:26Z</time>
      </trkpt>
      <trkpt lat="45.10842" lon="0.70298">
        <ele>192.9</ele>
        <time>2022-05-01T09:24:27Z</time>
      </trkpt>
      <trkpt lat="45.10856" lon="0.70312">
        <ele>192.7</ele>
        <time>2022-05-01T09:24:29Z</time>
      </trkpt>
      <trkpt lat="45.10869" lon="0.70325">
        <ele>192.8</ele>
        <time>2022-05-01T09:24:31Z</time>
      </trkpt>
      <trkpt lat="45.10876" lon="0.70332">
        <ele>192.8</ele>
        <time>2022-05-01T09:24:32Z</time>
      </trkpt>
      <trkpt lat="45.10882" lon="0.70339">
        <ele>192.7</ele>
        <time>2022-05-01T09:24:33Z</time>
      </trkpt>
      <trkpt lat="45.10889" lon="0.70346">
        <ele>192.5</ele>
        <time>2022-05-01T09:24:34Z</time>
      </trkpt>
      <trkpt lat="45.10896" lon="0.70353">
        <ele>192.3</ele>
        <time>2022-05-01T09:24:35Z</time>
      </trkpt>
      <trkpt lat="45.10902" lon="0.70359">
        <ele>192.1</ele>
        <time>2022-05-01T09:24:36Z</time>
      </trkpt>
      <trkpt lat="45.10908" lon="0.70364">
        <ele>191.8</ele>
        <time>2022-05-01T09:24:37Z</time>
      </trkpt>
      <trkpt lat="45.10921" lon="0.70377">
        <ele>190.9</ele>
        <time>2022-05-01T09:24:39Z</time>
      </trkpt>
      <trkpt lat="45.10935" lon="0.7039">
        <ele>189.2</ele>
        <time>2022-05-01T09:24:41Z</time>
      </trkpt>
      <trkpt lat="45.10943" lon="0.70397">
        <ele>187.8</ele>
        <time>2022-05-01T09:24:42Z</time>
      </trkpt>
      <trkpt lat="45.1095" lon="0.70404">
        <ele>186.3</ele>
        <time>2022-05-01T09:24:43Z</time>
      </trkpt>
      <trkpt lat="45.10958" lon="0.70411">
        <ele>184.6</ele>
        <time>2022-05-01T09:24:44Z</time>
      </trkpt>
      <trkpt lat="45.10966" lon="0.70419">
        <ele>182.9</ele>
        <time>2022-05-01T09:24:45Z</time>
      </trkpt>
      <trkpt lat="45.10983" lon="0.70436">
        <ele>179.4</ele>
        <time>2022-05-01T09:24:47Z</time>
      </trkpt>
      <trkpt lat="45.11" lon="0.70456">
        <ele>175.9</ele>
        <time>2022-05-01T09:24:49Z</time>
      </trkpt>
      <trkpt lat="45.11008" lon="0.70465">
        <ele>174.3</ele>
        <time>2022-05-01T09:24:50Z</time>
      </trkpt>
      <trkpt lat="45.11015" lon="0.70473">
        <ele>172.8</ele>
        <time>2022-05-01T09:24:51Z</time>
      </trkpt>
      <trkpt lat="45.11021" lon="0.7048">
        <ele>171.5</ele>
        <time>2022-05-01T09:24:52Z</time>
      </trkpt>
      <trkpt lat="45.11026" lon="0.70485">
        <ele>170.6</ele>
        <time>2022-05-01T09:24:53Z</time>
      </trkpt>
      <trkpt lat="45.11034" lon="0.70491">
        <ele>169.1</ele>
        <time>2022-05-01T09:24:55Z</time>
      </trkpt>
      <trkpt lat="45.11037" lon="0.70493">
        <ele>168.6</ele>
        <time>2022-05-01T09:24:56Z</time>
      </trkpt>
      <trkpt lat="45.11039" lon="0.70494">
        <ele>168.2</ele>
        <time>2022-05-01T09:24:57Z</time>
      </trkpt>
      <trkpt lat="45.11042" lon="0.70496">
        <ele>167.6</ele>
        <time>2022-05-01T09:24:59Z</time>
      </trkpt>
      <trkpt lat="45.11042" lon="0.70496">
        <ele>167.6</ele>
        <time>2022-05-01T09:25:00Z</time>
      </trkpt>
      <trkpt lat="45.11042" lon="0.70496">
        <ele>167.6</ele>
        <time>2022-05-01T09:25:01Z</time>
      </trkpt>
      <trkpt lat="45.11046" lon="0.70499">
        <ele>166.8</ele>
        <time>2022-05-01T09:30:43Z</time>
      </trkpt>
      <trkpt lat="45.11046" lon="0.70499">
        <ele>166.8</ele>
        <time>2022-05-01T09:30:44Z</time>
      </trkpt>
      <trkpt lat="45.11045" lon="0.70502">
        <ele>166.7</ele>
        <time>2022-05-01T09:30:45Z</time>
      </trkpt>
      <trkpt lat="45.11043" lon="0.70507">
        <ele>166.6</ele>
        <time>2022-05-01T09:30:47Z</time>
      </trkpt>
      <trkpt lat="45.11041" lon="0.70512">
        <ele>166.4</ele>
        <time>2022-05-01T09:30:49Z</time>
      </trkpt>
      <trkpt lat="45.11038" lon="0.70516">
        <ele>166.3</ele>
        <time>2022-05-01T09:30:51Z</time>
      </trkpt>
      <trkpt lat="45.11035" lon="0.70521">
        <ele>166.2</ele>
        <time>2022-05-01T09:30:53Z</time>
      </trkpt>
      <trkpt lat="45.11031" lon="0.70527">
        <ele>166.1</ele>
        <time>2022-05-01T09:30:55Z</time>
      </trkpt>
      <trkpt lat="45.11026" lon="0.70534">
        <ele>166</ele>
        <time>2022-05-01T09:30:57Z</time>
      </trkpt>
      <trkpt lat="45.11022" lon="0.70542">
        <ele>165.9</ele>
        <time>2022-05-01T09:30:59Z</time>
      </trkpt>
      <trkpt lat="45.11016" lon="0.70551">
        <ele>165.7</ele>
        <time>2022-05-01T09:31:01Z</time>
      </trkpt>
      <trkpt lat="45.11011" lon="0.70559">
        <ele>165.6</ele>
        <time>2022-05-01T09:31:03Z</time>
      </trkpt>
      <trkpt lat="45.11006" lon="0.70567">
        <ele>165.5</ele>
        <time>2022-05-01T09:31:05Z</time>
      </trkpt>
      <trkpt lat="45.11001" lon="0.70574">
        <ele>165.4</ele>
        <time>2022-05-01T09:31:07Z</time>
      </trkpt>
      <trkpt lat="45.10995" lon="0.70581">
        <ele>165.3</ele>
        <time>2022-05-01T09:31:09Z</time>
      </trkpt>
      <trkpt lat="45.10989" lon="0.70589">
        <ele>165.2</ele>
        <time>2022-05-01T09:31:11Z</time>
      </trkpt>
      <trkpt lat="45.10983" lon="0.70596">
        <ele>165.1</ele>
        <time>2022-05-01T09:31:13Z</time>
      </trkpt>
      <trkpt lat="45.1098" lon="0.706">
        <ele>165</ele>
        <time>2022-05-01T09:31:14Z</time>
      </trkpt>
      <trkpt lat="45.10977" lon="0.70604">
        <ele>165</ele>
        <time>2022-05-01T09:31:15Z</time>
      </trkpt>
      <trkpt lat="45.1097" lon="0.70611">
        <ele>164.8</ele>
        <time>2022-05-01T09:31:17Z</time>
      </trkpt>
      <trkpt lat="45.10966" lon="0.70615">
        <ele>164.7</ele>
        <time>2022-05-01T09:31:18Z</time>
      </trkpt>
      <trkpt lat="45.10962" lon="0.70617">
        <ele>164.6</ele>
        <time>2022-05-01T09:31:19Z</time>
      </trkpt>
      <trkpt lat="45.10954" lon="0.7062">
        <ele>164.5</ele>
        <time>2022-05-01T09:31:21Z</time>
      </trkpt>
      <trkpt lat="45.10946" lon="0.70624">
        <ele>164.3</ele>
        <time>2022-05-01T09:31:23Z</time>
      </trkpt>
      <trkpt lat="45.10938" lon="0.70627">
        <ele>164.2</ele>
        <time>2022-05-01T09:31:25Z</time>
      </trkpt>
      <trkpt lat="45.10929" lon="0.7063">
        <ele>164.1</ele>
        <time>2022-05-01T09:31:27Z</time>
      </trkpt>
      <trkpt lat="45.10925" lon="0.70631">
        <ele>164.1</ele>
        <time>2022-05-01T09:31:28Z</time>
      </trkpt>
      <trkpt lat="45.10921" lon="0.70633">
        <ele>164.1</ele>
        <time>2022-05-01T09:31:29Z</time>
      </trkpt>
      <trkpt lat="45.10914" lon="0.70635">
        <ele>164.1</ele>
        <time>2022-05-01T09:31:31Z</time>
      </trkpt>
      <trkpt lat="45.10906" lon="0.70644">
        <ele>164.7</ele>
        <time>2022-05-01T09:31:33Z</time>
      </trkpt>
      <trkpt lat="45.10905" lon="0.70655">
        <ele>165.3</ele>
        <time>2022-05-01T09:31:35Z</time>
      </trkpt>
      <trkpt lat="45.10903" lon="0.70667">
        <ele>165.9</ele>
        <time>2022-05-01T09:31:37Z</time>
      </trkpt>
      <trkpt lat="45.10901" lon="0.70676">
        <ele>166.4</ele>
        <time>2022-05-01T09:31:39Z</time>
      </trkpt>
      <trkpt lat="45.10898" lon="0.70687">
        <ele>167</ele>
        <time>2022-05-01T09:31:41Z</time>
      </trkpt>
      <trkpt lat="45.10896" lon="0.70695">
        <ele>167.4</ele>
        <time>2022-05-01T09:31:43Z</time>
      </trkpt>
      <trkpt lat="45.10894" lon="0.70704">
        <ele>167.9</ele>
        <time>2022-05-01T09:31:45Z</time>
      </trkpt>
      <trkpt lat="45.10892" lon="0.70714">
        <ele>168.4</ele>
        <time>2022-05-01T09:31:47Z</time>
      </trkpt>
      <trkpt lat="45.10891" lon="0.70719">
        <ele>168.7</ele>
        <time>2022-05-01T09:31:48Z</time>
      </trkpt>
      <trkpt lat="45.10889" lon="0.70723">
        <ele>169</ele>
        <time>2022-05-01T09:31:49Z</time>
      </trkpt>
      <trkpt lat="45.10887" lon="0.70731">
        <ele>169.5</ele>
        <time>2022-05-01T09:31:51Z</time>
      </trkpt>
      <trkpt lat="45.10886" lon="0.70735">
        <ele>169.7</ele>
        <time>2022-05-01T09:31:52Z</time>
      </trkpt>
      <trkpt lat="45.10885" lon="0.70739">
        <ele>170</ele>
        <time>2022-05-01T09:31:53Z</time>
      </trkpt>
      <trkpt lat="45.10883" lon="0.70745">
        <ele>170.4</ele>
        <time>2022-05-01T09:31:55Z</time>
      </trkpt>
      <trkpt lat="45.10881" lon="0.70752">
        <ele>170.9</ele>
        <time>2022-05-01T09:31:56Z</time>
      </trkpt>
      <trkpt lat="45.10879" lon="0.70757">
        <ele>171.3</ele>
        <time>2022-05-01T09:31:57Z</time>
      </trkpt>
      <trkpt lat="45.10877" lon="0.70766">
        <ele>172</ele>
        <time>2022-05-01T09:31:59Z</time>
      </trkpt>
      <trkpt lat="45.10875" lon="0.70773">
        <ele>172.4</ele>
        <time>2022-05-01T09:32:00Z</time>
      </trkpt>
      <trkpt lat="45.10874" lon="0.70779">
        <ele>172.8</ele>
        <time>2022-05-01T09:32:01Z</time>
      </trkpt>
      <trkpt lat="45.10872" lon="0.70789">
        <ele>173.4</ele>
        <time>2022-05-01T09:32:03Z</time>
      </trkpt>
      <trkpt lat="45.10871" lon="0.70794">
        <ele>173.7</ele>
        <time>2022-05-01T09:32:04Z</time>
      </trkpt>
      <trkpt lat="45.1087" lon="0.70798">
        <ele>173.9</ele>
        <time>2022-05-01T09:32:05Z</time>
      </trkpt>
      <trkpt lat="45.10869" lon="0.70807">
        <ele>174.4</ele>
        <time>2022-05-01T09:32:07Z</time>
      </trkpt>
      <trkpt lat="45.10867" lon="0.70816">
        <ele>174.9</ele>
        <time>2022-05-01T09:32:09Z</time>
      </trkpt>
      <trkpt lat="45.10867" lon="0.70819">
        <ele>175</ele>
        <time>2022-05-01T09:32:10Z</time>
      </trkpt>
      <trkpt lat="45.10866" lon="0.70821">
        <ele>175.2</ele>
        <time>2022-05-01T09:32:11Z</time>
      </trkpt>
      <trkpt lat="45.10865" lon="0.70828">
        <ele>175.6</ele>
        <time>2022-05-01T09:32:13Z</time>
      </trkpt>
      <trkpt lat="45.10865" lon="0.70828">
        <ele>175.6</ele>
        <time>2022-05-01T09:32:14Z</time>
      </trkpt>
      <trkpt lat="45.10864" lon="0.70832">
        <ele>175.9</ele>
        <time>2022-05-01T09:32:15Z</time>
      </trkpt>
      <trkpt lat="45.10863" lon="0.70837">
        <ele>176.2</ele>
        <time>2022-05-01T09:32:17Z</time>
      </trkpt>
      <trkpt lat="45.10863" lon="0.70837">
        <ele>176.2</ele>
        <time>2022-05-01T09:32:18Z</time>
      </trkpt>
      <trkpt lat="45.10861" lon="0.70844">
        <ele>176.6</ele>
        <time>2022-05-01T09:32:19Z</time>
      </trkpt>
      <trkpt lat="45.10857" lon="0.70851">
        <ele>177.3</ele>
        <time>2022-05-01T09:32:21Z</time>
      </trkpt>
      <trkpt lat="45.10855" lon="0.70856">
        <ele>177.7</ele>
        <time>2022-05-01T09:32:22Z</time>
      </trkpt>
      <trkpt lat="45.10853" lon="0.7086">
        <ele>178.1</ele>
        <time>2022-05-01T09:32:23Z</time>
      </trkpt>
      <trkpt lat="45.1085" lon="0.70866">
        <ele>178.6</ele>
        <time>2022-05-01T09:32:25Z</time>
      </trkpt>
      <trkpt lat="45.10849" lon="0.70868">
        <ele>178.8</ele>
        <time>2022-05-01T09:32:26Z</time>
      </trkpt>
      <trkpt lat="45.10848" lon="0.7087">
        <ele>179</ele>
        <time>2022-05-01T09:32:27Z</time>
      </trkpt>
      <trkpt lat="45.10844" lon="0.70876">
        <ele>179.5</ele>
        <time>2022-05-01T09:32:29Z</time>
      </trkpt>
      <trkpt lat="45.10842" lon="0.70878">
        <ele>179.6</ele>
        <time>2022-05-01T09:32:30Z</time>
      </trkpt>
      <trkpt lat="45.10842" lon="0.70878">
        <ele>179.6</ele>
        <time>2022-05-01T09:32:31Z</time>
      </trkpt>
      <trkpt lat="45.10839" lon="0.70882">
        <ele>179.9</ele>
        <time>2022-05-01T09:32:33Z</time>
      </trkpt>
      <trkpt lat="45.10838" lon="0.70884">
        <ele>180.1</ele>
        <time>2022-05-01T09:32:34Z</time>
      </trkpt>
      <trkpt lat="45.10836" lon="0.70886">
        <ele>180.2</ele>
        <time>2022-05-01T09:32:35Z</time>
      </trkpt>
      <trkpt lat="45.10835" lon="0.70889">
        <ele>180.3</ele>
        <time>2022-05-01T09:32:37Z</time>
      </trkpt>
      <trkpt lat="45.10833" lon="0.70891">
        <ele>180.4</ele>
        <time>2022-05-01T09:32:39Z</time>
      </trkpt>
      <trkpt lat="45.10829" lon="0.70895">
        <ele>180.5</ele>
        <time>2022-05-01T09:32:40Z</time>
      </trkpt>
      <trkpt lat="45.10828" lon="0.70896">
        <ele>180.6</ele>
        <time>2022-05-01T09:32:41Z</time>
      </trkpt>
      <trkpt lat="45.10826" lon="0.70899">
        <ele>180.6</ele>
        <time>2022-05-01T09:32:43Z</time>
      </trkpt>
      <trkpt lat="45.10823" lon="0.70902">
        <ele>180.6</ele>
        <time>2022-05-01T09:32:44Z</time>
      </trkpt>
      <trkpt lat="45.10816" lon="0.7091">
        <ele>180.4</ele>
        <time>2022-05-01T09:32:45Z</time>
      </trkpt>
      <trkpt lat="45.10806" lon="0.70926">
        <ele>179.8</ele>
        <time>2022-05-01T09:32:47Z</time>
      </trkpt>
      <trkpt lat="45.10797" lon="0.70948">
        <ele>179.5</ele>
        <time>2022-05-01T09:32:49Z</time>
      </trkpt>
      <trkpt lat="45.10794" lon="0.70963">
        <ele>179.7</ele>
        <time>2022-05-01T09:32:51Z</time>
      </trkpt>
      <trkpt lat="45.10791" lon="0.70978">
        <ele>180</ele>
        <time>2022-05-01T09:32:53Z</time>
      </trkpt>
      <trkpt lat="45.10789" lon="0.70996">
        <ele>180.7</ele>
        <time>2022-05-01T09:32:55Z</time>
      </trkpt>
      <trkpt lat="45.1079" lon="0.71004">
        <ele>180.9</ele>
        <time>2022-05-01T09:32:56Z</time>
      </trkpt>
      <trkpt lat="45.1079" lon="0.71011">
        <ele>181.1</ele>
        <time>2022-05-01T09:32:57Z</time>
      </trkpt>
      <trkpt lat="45.10791" lon="0.71023">
        <ele>181.5</ele>
        <time>2022-05-01T09:32:59Z</time>
      </trkpt>
      <trkpt lat="45.10791" lon="0.71028">
        <ele>181.7</ele>
        <time>2022-05-01T09:33:00Z</time>
      </trkpt>
      <trkpt lat="45.10791" lon="0.71033">
        <ele>181.8</ele>
        <time>2022-05-01T09:33:01Z</time>
      </trkpt>
      <trkpt lat="45.10791" lon="0.71044">
        <ele>182</ele>
        <time>2022-05-01T09:33:03Z</time>
      </trkpt>
      <trkpt lat="45.10791" lon="0.71055">
        <ele>182.3</ele>
        <time>2022-05-01T09:33:05Z</time>
      </trkpt>
      <trkpt lat="45.10791" lon="0.71059">
        <ele>182.4</ele>
        <time>2022-05-01T09:33:06Z</time>
      </trkpt>
      <trkpt lat="45.10791" lon="0.71063">
        <ele>182.5</ele>
        <time>2022-05-01T09:33:07Z</time>
      </trkpt>
      <trkpt lat="45.1079" lon="0.71068">
        <ele>182.6</ele>
        <time>2022-05-01T09:33:08Z</time>
      </trkpt>
      <trkpt lat="45.1079" lon="0.71074">
        <ele>182.7</ele>
        <time>2022-05-01T09:33:09Z</time>
      </trkpt>
      <trkpt lat="45.1079" lon="0.71078">
        <ele>182.8</ele>
        <time>2022-05-01T09:33:10Z</time>
      </trkpt>
      <trkpt lat="45.1079" lon="0.71082">
        <ele>182.9</ele>
        <time>2022-05-01T09:33:11Z</time>
      </trkpt>
      <trkpt lat="45.10789" lon="0.71086">
        <ele>183</ele>
        <time>2022-05-01T09:33:12Z</time>
      </trkpt>
      <trkpt lat="45.10789" lon="0.71091">
        <ele>183.1</ele>
        <time>2022-05-01T09:33:13Z</time>
      </trkpt>
      <trkpt lat="45.10788" lon="0.71098">
        <ele>183.3</ele>
        <time>2022-05-01T09:33:14Z</time>
      </trkpt>
      <trkpt lat="45.10787" lon="0.71104">
        <ele>183.5</ele>
        <time>2022-05-01T09:33:15Z</time>
      </trkpt>
      <trkpt lat="45.10785" lon="0.71113">
        <ele>183.7</ele>
        <time>2022-05-01T09:33:17Z</time>
      </trkpt>
      <trkpt lat="45.10783" lon="0.71122">
        <ele>183.9</ele>
        <time>2022-05-01T09:33:19Z</time>
      </trkpt>
      <trkpt lat="45.10782" lon="0.71125">
        <ele>184</ele>
        <time>2022-05-01T09:33:20Z</time>
      </trkpt>
      <trkpt lat="45.10781" lon="0.7113">
        <ele>184</ele>
        <time>2022-05-01T09:33:21Z</time>
      </trkpt>
      <trkpt lat="45.10776" lon="0.71142">
        <ele>184.3</ele>
        <time>2022-05-01T09:33:23Z</time>
      </trkpt>
      <trkpt lat="45.10773" lon="0.71152">
        <ele>184.5</ele>
        <time>2022-05-01T09:33:24Z</time>
      </trkpt>
      <trkpt lat="45.10771" lon="0.7116">
        <ele>184.6</ele>
        <time>2022-05-01T09:33:25Z</time>
      </trkpt>
      <trkpt lat="45.10768" lon="0.71167">
        <ele>184.8</ele>
        <time>2022-05-01T09:33:26Z</time>
      </trkpt>
      <trkpt lat="45.10766" lon="0.71171">
        <ele>184.9</ele>
        <time>2022-05-01T09:33:27Z</time>
      </trkpt>
      <trkpt lat="45.10765" lon="0.71174">
        <ele>184.9</ele>
        <time>2022-05-01T09:33:29Z</time>
      </trkpt>
      <trkpt lat="45.10764" lon="0.71178">
        <ele>184.9</ele>
        <time>2022-05-01T09:33:30Z</time>
      </trkpt>
      <trkpt lat="45.10752" lon="0.71184">
        <ele>184.4</ele>
        <time>2022-05-01T09:33:31Z</time>
      </trkpt>
      <trkpt lat="45.1074" lon="0.71188">
        <ele>184.3</ele>
        <time>2022-05-01T09:33:33Z</time>
      </trkpt>
      <trkpt lat="45.10728" lon="0.71192">
        <ele>184.4</ele>
        <time>2022-05-01T09:33:35Z</time>
      </trkpt>
      <trkpt lat="45.10719" lon="0.71197">
        <ele>184.7</ele>
        <time>2022-05-01T09:33:37Z</time>
      </trkpt>
      <trkpt lat="45.1071" lon="0.712">
        <ele>184.7</ele>
        <time>2022-05-01T09:33:39Z</time>
      </trkpt>
      <trkpt lat="45.10701" lon="0.712">
        <ele>185.6</ele>
        <time>2022-05-01T09:33:41Z</time>
      </trkpt>
      <trkpt lat="45.10696" lon="0.71198">
        <ele>186.9</ele>
        <time>2022-05-01T09:33:42Z</time>
      </trkpt>
      <trkpt lat="45.10692" lon="0.71197">
        <ele>186.9</ele>
        <time>2022-05-01T09:33:43Z</time>
      </trkpt>
      <trkpt lat="45.10685" lon="0.71193">
        <ele>186.9</ele>
        <time>2022-05-01T09:33:45Z</time>
      </trkpt>
      <trkpt lat="45.10678" lon="0.71191">
        <ele>188</ele>
        <time>2022-05-01T09:33:47Z</time>
      </trkpt>
      <trkpt lat="45.10675" lon="0.7119">
        <ele>188</ele>
        <time>2022-05-01T09:33:48Z</time>
      </trkpt>
      <trkpt lat="45.10671" lon="0.7119">
        <ele>188.6</ele>
        <time>2022-05-01T09:33:49Z</time>
      </trkpt>
      <trkpt lat="45.10664" lon="0.71191">
        <ele>188.6</ele>
        <time>2022-05-01T09:33:51Z</time>
      </trkpt>
      <trkpt lat="45.10661" lon="0.71191">
        <ele>188.6</ele>
        <time>2022-05-01T09:33:52Z</time>
      </trkpt>
      <trkpt lat="45.10658" lon="0.71188">
        <ele>188.8</ele>
        <time>2022-05-01T09:33:53Z</time>
      </trkpt>
      <trkpt lat="45.10656" lon="0.71185">
        <ele>189.1</ele>
        <time>2022-05-01T09:33:54Z</time>
      </trkpt>
      <trkpt lat="45.10652" lon="0.71181">
        <ele>189.1</ele>
        <time>2022-05-01T09:33:55Z</time>
      </trkpt>
      <trkpt lat="45.10646" lon="0.71175">
        <ele>189.1</ele>
        <time>2022-05-01T09:33:57Z</time>
      </trkpt>
      <trkpt lat="45.1064" lon="0.71171">
        <ele>189.1</ele>
        <time>2022-05-01T09:33:59Z</time>
      </trkpt>
      <trkpt lat="45.10637" lon="0.71167">
        <ele>189.8</ele>
        <time>2022-05-01T09:34:01Z</time>
      </trkpt>
      <trkpt lat="45.10632" lon="0.71162">
        <ele>189.8</ele>
        <time>2022-05-01T09:34:03Z</time>
      </trkpt>
      <trkpt lat="45.10627" lon="0.71157">
        <ele>189.8</ele>
        <time>2022-05-01T09:34:05Z</time>
      </trkpt>
      <trkpt lat="45.10622" lon="0.71152">
        <ele>190.7</ele>
        <time>2022-05-01T09:34:07Z</time>
      </trkpt>
      <trkpt lat="45.10618" lon="0.71148">
        <ele>190.7</ele>
        <time>2022-05-01T09:34:09Z</time>
      </trkpt>
      <trkpt lat="45.10615" lon="0.71143">
        <ele>190.7</ele>
        <time>2022-05-01T09:34:11Z</time>
      </trkpt>
      <trkpt lat="45.10611" lon="0.71139">
        <ele>190.6</ele>
        <time>2022-05-01T09:34:13Z</time>
      </trkpt>
      <trkpt lat="45.10607" lon="0.71134">
        <ele>191.7</ele>
        <time>2022-05-01T09:34:15Z</time>
      </trkpt>
      <trkpt lat="45.10603" lon="0.71128">
        <ele>191.7</ele>
        <time>2022-05-01T09:34:17Z</time>
      </trkpt>
      <trkpt lat="45.10598" lon="0.71122">
        <ele>191.6</ele>
        <time>2022-05-01T09:34:19Z</time>
      </trkpt>
      <trkpt lat="45.10594" lon="0.71116">
        <ele>192.5</ele>
        <time>2022-05-01T09:34:21Z</time>
      </trkpt>
      <trkpt lat="45.10592" lon="0.7111">
        <ele>192.5</ele>
        <time>2022-05-01T09:34:23Z</time>
      </trkpt>
      <trkpt lat="45.10591" lon="0.71107">
        <ele>192.5</ele>
        <time>2022-05-01T09:34:24Z</time>
      </trkpt>
      <trkpt lat="45.10589" lon="0.71105">
        <ele>192.5</ele>
        <time>2022-05-01T09:34:25Z</time>
      </trkpt>
      <trkpt lat="45.10586" lon="0.71098">
        <ele>193.2</ele>
        <time>2022-05-01T09:34:27Z</time>
      </trkpt>
      <trkpt lat="45.10584" lon="0.71095">
        <ele>193.2</ele>
        <time>2022-05-01T09:34:28Z</time>
      </trkpt>
      <trkpt lat="45.10582" lon="0.71093">
        <ele>193.2</ele>
        <time>2022-05-01T09:34:29Z</time>
      </trkpt>
      <trkpt lat="45.10579" lon="0.71088">
        <ele>193.2</ele>
        <time>2022-05-01T09:34:31Z</time>
      </trkpt>
      <trkpt lat="45.10577" lon="0.71081">
        <ele>194</ele>
        <time>2022-05-01T09:34:33Z</time>
      </trkpt>
      <trkpt lat="45.10575" lon="0.71074">
        <ele>194.1</ele>
        <time>2022-05-01T09:34:35Z</time>
      </trkpt>
      <trkpt lat="45.10572" lon="0.71066">
        <ele>194.7</ele>
        <time>2022-05-01T09:34:37Z</time>
      </trkpt>
      <trkpt lat="45.1057" lon="0.7106">
        <ele>194.7</ele>
        <time>2022-05-01T09:34:39Z</time>
      </trkpt>
      <trkpt lat="45.10568" lon="0.71054">
        <ele>194.7</ele>
        <time>2022-05-01T09:34:41Z</time>
      </trkpt>
      <trkpt lat="45.10564" lon="0.71048">
        <ele>195.5</ele>
        <time>2022-05-01T09:34:43Z</time>
      </trkpt>
      <trkpt lat="45.10562" lon="0.71045">
        <ele>195.6</ele>
        <time>2022-05-01T09:34:44Z</time>
      </trkpt>
      <trkpt lat="45.10562" lon="0.71043">
        <ele>195.6</ele>
        <time>2022-05-01T09:34:45Z</time>
      </trkpt>
      <trkpt lat="45.10558" lon="0.71037">
        <ele>195.6</ele>
        <time>2022-05-01T09:34:47Z</time>
      </trkpt>
      <trkpt lat="45.10555" lon="0.7103">
        <ele>196.5</ele>
        <time>2022-05-01T09:34:49Z</time>
      </trkpt>
      <trkpt lat="45.10552" lon="0.71024">
        <ele>196.5</ele>
        <time>2022-05-01T09:34:51Z</time>
      </trkpt>
      <trkpt lat="45.10551" lon="0.71021">
        <ele>196.6</ele>
        <time>2022-05-01T09:34:52Z</time>
      </trkpt>
      <trkpt lat="45.10549" lon="0.71018">
        <ele>196.6</ele>
        <time>2022-05-01T09:34:53Z</time>
      </trkpt>
      <trkpt lat="45.10547" lon="0.71011">
        <ele>197.6</ele>
        <time>2022-05-01T09:34:55Z</time>
      </trkpt>
      <trkpt lat="45.10543" lon="0.71004">
        <ele>197.6</ele>
        <time>2022-05-01T09:34:57Z</time>
      </trkpt>
      <trkpt lat="45.1054" lon="0.71">
        <ele>197.6</ele>
        <time>2022-05-01T09:34:59Z</time>
      </trkpt>
      <trkpt lat="45.10536" lon="0.70996">
        <ele>198.6</ele>
        <time>2022-05-01T09:35:01Z</time>
      </trkpt>
      <trkpt lat="45.10534" lon="0.70993">
        <ele>198.6</ele>
        <time>2022-05-01T09:35:02Z</time>
      </trkpt>
      <trkpt lat="45.10532" lon="0.7099">
        <ele>198.6</ele>
        <time>2022-05-01T09:35:03Z</time>
      </trkpt>
      <trkpt lat="45.10527" lon="0.70984">
        <ele>198.7</ele>
        <time>2022-05-01T09:35:05Z</time>
      </trkpt>
      <trkpt lat="45.10525" lon="0.70981">
        <ele>199.8</ele>
        <time>2022-05-01T09:35:06Z</time>
      </trkpt>
      <trkpt lat="45.10523" lon="0.70978">
        <ele>199.8</ele>
        <time>2022-05-01T09:35:07Z</time>
      </trkpt>
      <trkpt lat="45.10518" lon="0.70974">
        <ele>199.8</ele>
        <time>2022-05-01T09:35:09Z</time>
      </trkpt>
      <trkpt lat="45.10516" lon="0.70972">
        <ele>199.8</ele>
        <time>2022-05-01T09:35:10Z</time>
      </trkpt>
      <trkpt lat="45.10515" lon="0.7097">
        <ele>199.9</ele>
        <time>2022-05-01T09:35:11Z</time>
      </trkpt>
      <trkpt lat="45.10512" lon="0.70965">
        <ele>199.9</ele>
        <time>2022-05-01T09:35:13Z</time>
      </trkpt>
      <trkpt lat="45.10508" lon="0.70961">
        <ele>201.2</ele>
        <time>2022-05-01T09:35:15Z</time>
      </trkpt>
      <trkpt lat="45.10504" lon="0.70956">
        <ele>201.2</ele>
        <time>2022-05-01T09:35:17Z</time>
      </trkpt>
      <trkpt lat="45.10499" lon="0.7095">
        <ele>201.5</ele>
        <time>2022-05-01T09:35:19Z</time>
      </trkpt>
      <trkpt lat="45.10496" lon="0.70944">
        <ele>202.6</ele>
        <time>2022-05-01T09:35:21Z</time>
      </trkpt>
      <trkpt lat="45.10491" lon="0.7094">
        <ele>202.6</ele>
        <time>2022-05-01T09:35:23Z</time>
      </trkpt>
      <trkpt lat="45.10489" lon="0.70938">
        <ele>203</ele>
        <time>2022-05-01T09:35:24Z</time>
      </trkpt>
      <trkpt lat="45.10487" lon="0.70935">
        <ele>203</ele>
        <time>2022-05-01T09:35:25Z</time>
      </trkpt>
      <trkpt lat="45.10483" lon="0.7093">
        <ele>204</ele>
        <time>2022-05-01T09:35:27Z</time>
      </trkpt>
      <trkpt lat="45.1048" lon="0.70927">
        <ele>204</ele>
        <time>2022-05-01T09:35:28Z</time>
      </trkpt>
      <trkpt lat="45.10478" lon="0.70924">
        <ele>204.5</ele>
        <time>2022-05-01T09:35:29Z</time>
      </trkpt>
      <trkpt lat="45.10474" lon="0.70917">
        <ele>204.5</ele>
        <time>2022-05-01T09:35:31Z</time>
      </trkpt>
      <trkpt lat="45.1047" lon="0.7091">
        <ele>205.4</ele>
        <time>2022-05-01T09:35:33Z</time>
      </trkpt>
      <trkpt lat="45.10466" lon="0.70905">
        <ele>206.1</ele>
        <time>2022-05-01T09:35:35Z</time>
      </trkpt>
      <trkpt lat="45.10462" lon="0.709">
        <ele>206.1</ele>
        <time>2022-05-01T09:35:37Z</time>
      </trkpt>
      <trkpt lat="45.10458" lon="0.70895">
        <ele>206.9</ele>
        <time>2022-05-01T09:35:39Z</time>
      </trkpt>
      <trkpt lat="45.10456" lon="0.70891">
        <ele>206.9</ele>
        <time>2022-05-01T09:35:40Z</time>
      </trkpt>
      <trkpt lat="45.10455" lon="0.70888">
        <ele>207.5</ele>
        <time>2022-05-01T09:35:41Z</time>
      </trkpt>
      <trkpt lat="45.1045" lon="0.70884">
        <ele>207.5</ele>
        <time>2022-05-01T09:35:43Z</time>
      </trkpt>
      <trkpt lat="45.10446" lon="0.7088">
        <ele>207.5</ele>
        <time>2022-05-01T09:35:45Z</time>
      </trkpt>
      <trkpt lat="45.10443" lon="0.70875">
        <ele>208.2</ele>
        <time>2022-05-01T09:35:47Z</time>
      </trkpt>
      <trkpt lat="45.1044" lon="0.7087">
        <ele>208.8</ele>
        <time>2022-05-01T09:35:49Z</time>
      </trkpt>
      <trkpt lat="45.10438" lon="0.70868">
        <ele>208.8</ele>
        <time>2022-05-01T09:35:50Z</time>
      </trkpt>
      <trkpt lat="45.10437" lon="0.70866">
        <ele>208.8</ele>
        <time>2022-05-01T09:35:51Z</time>
      </trkpt>
      <trkpt lat="45.10434" lon="0.70862">
        <ele>208.8</ele>
        <time>2022-05-01T09:35:53Z</time>
      </trkpt>
      <trkpt lat="45.10431" lon="0.70857">
        <ele>209.2</ele>
        <time>2022-05-01T09:35:55Z</time>
      </trkpt>
      <trkpt lat="45.10427" lon="0.70852">
        <ele>209.8</ele>
        <time>2022-05-01T09:35:57Z</time>
      </trkpt>
      <trkpt lat="45.10423" lon="0.70847">
        <ele>209.8</ele>
        <time>2022-05-01T09:35:59Z</time>
      </trkpt>
      <trkpt lat="45.10421" lon="0.70844">
        <ele>210.3</ele>
        <time>2022-05-01T09:36:00Z</time>
      </trkpt>
      <trkpt lat="45.10419" lon="0.70843">
        <ele>210.3</ele>
        <time>2022-05-01T09:36:01Z</time>
      </trkpt>
      <trkpt lat="45.10414" lon="0.7084">
        <ele>211</ele>
        <time>2022-05-01T09:36:03Z</time>
      </trkpt>
      <trkpt lat="45.1041" lon="0.70839">
        <ele>211</ele>
        <time>2022-05-01T09:36:05Z</time>
      </trkpt>
      <trkpt lat="45.10405" lon="0.70837">
        <ele>211.4</ele>
        <time>2022-05-01T09:36:07Z</time>
      </trkpt>
      <trkpt lat="45.10402" lon="0.70834">
        <ele>211.4</ele>
        <time>2022-05-01T09:36:09Z</time>
      </trkpt>
      <trkpt lat="45.10398" lon="0.70832">
        <ele>211.4</ele>
        <time>2022-05-01T09:36:11Z</time>
      </trkpt>
      <trkpt lat="45.10393" lon="0.70829">
        <ele>211.5</ele>
        <time>2022-05-01T09:36:13Z</time>
      </trkpt>
      <trkpt lat="45.10388" lon="0.70829">
        <ele>211.5</ele>
        <time>2022-05-01T09:36:15Z</time>
      </trkpt>
      <trkpt lat="45.10383" lon="0.70829">
        <ele>211.5</ele>
        <time>2022-05-01T09:36:17Z</time>
      </trkpt>
      <trkpt lat="45.10378" lon="0.70829">
        <ele>211.4</ele>
        <time>2022-05-01T09:36:19Z</time>
      </trkpt>
      <trkpt lat="45.10374" lon="0.70828">
        <ele>211.4</ele>
        <time>2022-05-01T09:36:21Z</time>
      </trkpt>
      <trkpt lat="45.10368" lon="0.70828">
        <ele>211.2</ele>
        <time>2022-05-01T09:36:23Z</time>
      </trkpt>
      <trkpt lat="45.10364" lon="0.70829">
        <ele>211.2</ele>
        <time>2022-05-01T09:36:25Z</time>
      </trkpt>
      <trkpt lat="45.10362" lon="0.70829">
        <ele>211.2</ele>
        <time>2022-05-01T09:36:26Z</time>
      </trkpt>
      <trkpt lat="45.10359" lon="0.70828">
        <ele>211.2</ele>
        <time>2022-05-01T09:36:27Z</time>
      </trkpt>
      <trkpt lat="45.10355" lon="0.70827">
        <ele>211.6</ele>
        <time>2022-05-01T09:36:29Z</time>
      </trkpt>
      <trkpt lat="45.10351" lon="0.70826">
        <ele>211.6</ele>
        <time>2022-05-01T09:36:31Z</time>
      </trkpt>
      <trkpt lat="45.10348" lon="0.70825">
        <ele>211.6</ele>
        <time>2022-05-01T09:36:32Z</time>
      </trkpt>
      <trkpt lat="45.10346" lon="0.70825">
        <ele>211.6</ele>
        <time>2022-05-01T09:36:33Z</time>
      </trkpt>
      <trkpt lat="45.10341" lon="0.70825">
        <ele>211.6</ele>
        <time>2022-05-01T09:36:35Z</time>
      </trkpt>
      <trkpt lat="45.10339" lon="0.70825">
        <ele>211.6</ele>
        <time>2022-05-01T09:36:36Z</time>
      </trkpt>
      <trkpt lat="45.10336" lon="0.70825">
        <ele>211.6</ele>
        <time>2022-05-01T09:36:37Z</time>
      </trkpt>
      <trkpt lat="45.10331" lon="0.70824">
        <ele>211.6</ele>
        <time>2022-05-01T09:36:39Z</time>
      </trkpt>
      <trkpt lat="45.10326" lon="0.70824">
        <ele>211.6</ele>
        <time>2022-05-01T09:36:41Z</time>
      </trkpt>
      <trkpt lat="45.10323" lon="0.70825">
        <ele>211.6</ele>
        <time>2022-05-01T09:36:42Z</time>
      </trkpt>
      <trkpt lat="45.10321" lon="0.70825">
        <ele>211.5</ele>
        <time>2022-05-01T09:36:43Z</time>
      </trkpt>
      <trkpt lat="45.10317" lon="0.70824">
        <ele>211.5</ele>
        <time>2022-05-01T09:36:45Z</time>
      </trkpt>
      <trkpt lat="45.10312" lon="0.70823">
        <ele>211.5</ele>
        <time>2022-05-01T09:36:47Z</time>
      </trkpt>
      <trkpt lat="45.10309" lon="0.70822">
        <ele>211.2</ele>
        <time>2022-05-01T09:36:48Z</time>
      </trkpt>
      <trkpt lat="45.10307" lon="0.70821">
        <ele>211.2</ele>
        <time>2022-05-01T09:36:49Z</time>
      </trkpt>
      <trkpt lat="45.10303" lon="0.70819">
        <ele>211.2</ele>
        <time>2022-05-01T09:36:51Z</time>
      </trkpt>
      <trkpt lat="45.10299" lon="0.70818">
        <ele>211.3</ele>
        <time>2022-05-01T09:36:53Z</time>
      </trkpt>
      <trkpt lat="45.10297" lon="0.70819">
        <ele>211.3</ele>
        <time>2022-05-01T09:36:55Z</time>
      </trkpt>
      <trkpt lat="45.10297" lon="0.70821">
        <ele>210.9</ele>
        <time>2022-05-01T09:36:57Z</time>
      </trkpt>
      <trkpt lat="45.10293" lon="0.70819">
        <ele>210.9</ele>
        <time>2022-05-01T09:37:00Z</time>
      </trkpt>
      <trkpt lat="45.10291" lon="0.70818">
        <ele>210.9</ele>
        <time>2022-05-01T09:37:01Z</time>
      </trkpt>
      <trkpt lat="45.10287" lon="0.70817">
        <ele>210.9</ele>
        <time>2022-05-01T09:37:03Z</time>
      </trkpt>
      <trkpt lat="45.10283" lon="0.70817">
        <ele>210.4</ele>
        <time>2022-05-01T09:37:05Z</time>
      </trkpt>
      <trkpt lat="45.10279" lon="0.70819">
        <ele>210.4</ele>
        <time>2022-05-01T09:37:07Z</time>
      </trkpt>
      <trkpt lat="45.10275" lon="0.70817">
        <ele>210.4</ele>
        <time>2022-05-01T09:37:09Z</time>
      </trkpt>
      <trkpt lat="45.10269" lon="0.70819">
        <ele>210</ele>
        <time>2022-05-01T09:37:11Z</time>
      </trkpt>
      <trkpt lat="45.10265" lon="0.70818">
        <ele>210</ele>
        <time>2022-05-01T09:37:12Z</time>
      </trkpt>
      <trkpt lat="45.10263" lon="0.70817">
        <ele>210</ele>
        <time>2022-05-01T09:37:13Z</time>
      </trkpt>
      <trkpt lat="45.10261" lon="0.70819">
        <ele>210</ele>
        <time>2022-05-01T09:37:14Z</time>
      </trkpt>
      <trkpt lat="45.10258" lon="0.70818">
        <ele>209.8</ele>
        <time>2022-05-01T09:37:15Z</time>
      </trkpt>
      <trkpt lat="45.10256" lon="0.70817">
        <ele>209.8</ele>
        <time>2022-05-01T09:37:16Z</time>
      </trkpt>
      <trkpt lat="45.10253" lon="0.70816">
        <ele>209.8</ele>
        <time>2022-05-01T09:37:17Z</time>
      </trkpt>
      <trkpt lat="45.10251" lon="0.70817">
        <ele>209.8</ele>
        <time>2022-05-01T09:37:18Z</time>
      </trkpt>
      <trkpt lat="45.10248" lon="0.70816">
        <ele>209.6</ele>
        <time>2022-05-01T09:37:19Z</time>
      </trkpt>
      <trkpt lat="45.10244" lon="0.70814">
        <ele>209.6</ele>
        <time>2022-05-01T09:37:21Z</time>
      </trkpt>
      <trkpt lat="45.10239" lon="0.70814">
        <ele>209.6</ele>
        <time>2022-05-01T09:37:23Z</time>
      </trkpt>
      <trkpt lat="45.10234" lon="0.70813">
        <ele>209.5</ele>
        <time>2022-05-01T09:37:25Z</time>
      </trkpt>
      <trkpt lat="45.10229" lon="0.70813">
        <ele>209.5</ele>
        <time>2022-05-01T09:37:27Z</time>
      </trkpt>
      <trkpt lat="45.10227" lon="0.70813">
        <ele>209.5</ele>
        <time>2022-05-01T09:37:28Z</time>
      </trkpt>
      <trkpt lat="45.10224" lon="0.70813">
        <ele>209.4</ele>
        <time>2022-05-01T09:37:29Z</time>
      </trkpt>
      <trkpt lat="45.1022" lon="0.70815">
        <ele>209.4</ele>
        <time>2022-05-01T09:37:31Z</time>
      </trkpt>
      <trkpt lat="45.10215" lon="0.70815">
        <ele>209.4</ele>
        <time>2022-05-01T09:37:33Z</time>
      </trkpt>
      <trkpt lat="45.10211" lon="0.70814">
        <ele>209.4</ele>
        <time>2022-05-01T09:37:35Z</time>
      </trkpt>
      <trkpt lat="45.10206" lon="0.70815">
        <ele>209.4</ele>
        <time>2022-05-01T09:37:37Z</time>
      </trkpt>
      <trkpt lat="45.10201" lon="0.70814">
        <ele>209.4</ele>
        <time>2022-05-01T09:37:39Z</time>
      </trkpt>
      <trkpt lat="45.10196" lon="0.70813">
        <ele>209.4</ele>
        <time>2022-05-01T09:37:41Z</time>
      </trkpt>
      <trkpt lat="45.10191" lon="0.70813">
        <ele>209.4</ele>
        <time>2022-05-01T09:37:43Z</time>
      </trkpt>
      <trkpt lat="45.10186" lon="0.70814">
        <ele>209.6</ele>
        <time>2022-05-01T09:37:45Z</time>
      </trkpt>
      <trkpt lat="45.10183" lon="0.70814">
        <ele>209.6</ele>
        <time>2022-05-01T09:37:46Z</time>
      </trkpt>
      <trkpt lat="45.1018" lon="0.70814">
        <ele>209.6</ele>
        <time>2022-05-01T09:37:47Z</time>
      </trkpt>
      <trkpt lat="45.10177" lon="0.70813">
        <ele>209.6</ele>
        <time>2022-05-01T09:37:48Z</time>
      </trkpt>
      <trkpt lat="45.10175" lon="0.70813">
        <ele>209.7</ele>
        <time>2022-05-01T09:37:49Z</time>
      </trkpt>
      <trkpt lat="45.10171" lon="0.70813">
        <ele>209.7</ele>
        <time>2022-05-01T09:37:51Z</time>
      </trkpt>
      <trkpt lat="45.1017" lon="0.70812">
        <ele>209.7</ele>
        <time>2022-05-01T09:37:52Z</time>
      </trkpt>
      <trkpt lat="45.10168" lon="0.70811">
        <ele>209.7</ele>
        <time>2022-05-01T09:37:53Z</time>
      </trkpt>
      <trkpt lat="45.10166" lon="0.70811">
        <ele>209.7</ele>
        <time>2022-05-01T09:37:54Z</time>
      </trkpt>
      <trkpt lat="45.10163" lon="0.70811">
        <ele>209.9</ele>
        <time>2022-05-01T09:37:55Z</time>
      </trkpt>
      <trkpt lat="45.10158" lon="0.70812">
        <ele>209.9</ele>
        <time>2022-05-01T09:37:57Z</time>
      </trkpt>
      <trkpt lat="45.10153" lon="0.70813">
        <ele>209.9</ele>
        <time>2022-05-01T09:37:59Z</time>
      </trkpt>
      <trkpt lat="45.10148" lon="0.70816">
        <ele>209.9</ele>
        <time>2022-05-01T09:38:01Z</time>
      </trkpt>
      <trkpt lat="45.10146" lon="0.70816">
        <ele>209.9</ele>
        <time>2022-05-01T09:38:02Z</time>
      </trkpt>
      <trkpt lat="45.10144" lon="0.70818">
        <ele>209.9</ele>
        <time>2022-05-01T09:38:03Z</time>
      </trkpt>
      <trkpt lat="45.1014" lon="0.70819">
        <ele>209.9</ele>
        <time>2022-05-01T09:38:05Z</time>
      </trkpt>
      <trkpt lat="45.10138" lon="0.70819">
        <ele>210</ele>
        <time>2022-05-01T09:38:06Z</time>
      </trkpt>
      <trkpt lat="45.10135" lon="0.7082">
        <ele>210</ele>
        <time>2022-05-01T09:38:07Z</time>
      </trkpt>
      <trkpt lat="45.10129" lon="0.70821">
        <ele>210</ele>
        <time>2022-05-01T09:38:09Z</time>
      </trkpt>
      <trkpt lat="45.10123" lon="0.7082">
        <ele>210.1</ele>
        <time>2022-05-01T09:38:11Z</time>
      </trkpt>
      <trkpt lat="45.10117" lon="0.70821">
        <ele>210.1</ele>
        <time>2022-05-01T09:38:13Z</time>
      </trkpt>
      <trkpt lat="45.10113" lon="0.7082">
        <ele>210.3</ele>
        <time>2022-05-01T09:38:15Z</time>
      </trkpt>
      <trkpt lat="45.1011" lon="0.70819">
        <ele>210.3</ele>
        <time>2022-05-01T09:38:16Z</time>
      </trkpt>
      <trkpt lat="45.10107" lon="0.70818">
        <ele>210.3</ele>
        <time>2022-05-01T09:38:17Z</time>
      </trkpt>
      <trkpt lat="45.10102" lon="0.70817">
        <ele>210.5</ele>
        <time>2022-05-01T09:38:19Z</time>
      </trkpt>
      <trkpt lat="45.10097" lon="0.70815">
        <ele>210.5</ele>
        <time>2022-05-01T09:38:21Z</time>
      </trkpt>
      <trkpt lat="45.10092" lon="0.70814">
        <ele>210.5</ele>
        <time>2022-05-01T09:38:23Z</time>
      </trkpt>
      <trkpt lat="45.10088" lon="0.70811">
        <ele>210.8</ele>
        <time>2022-05-01T09:38:25Z</time>
      </trkpt>
      <trkpt lat="45.10083" lon="0.70808">
        <ele>210.9</ele>
        <time>2022-05-01T09:38:27Z</time>
      </trkpt>
      <trkpt lat="45.10077" lon="0.70804">
        <ele>211.1</ele>
        <time>2022-05-01T09:38:29Z</time>
      </trkpt>
      <trkpt lat="45.10072" lon="0.708">
        <ele>211.1</ele>
        <time>2022-05-01T09:38:31Z</time>
      </trkpt>
      <trkpt lat="45.10068" lon="0.70797">
        <ele>211.1</ele>
        <time>2022-05-01T09:38:33Z</time>
      </trkpt>
      <trkpt lat="45.10063" lon="0.70795">
        <ele>211.3</ele>
        <time>2022-05-01T09:38:35Z</time>
      </trkpt>
      <trkpt lat="45.10056" lon="0.70794">
        <ele>211.3</ele>
        <time>2022-05-01T09:38:37Z</time>
      </trkpt>
      <trkpt lat="45.10048" lon="0.70792">
        <ele>211.8</ele>
        <time>2022-05-01T09:38:39Z</time>
      </trkpt>
      <trkpt lat="45.10045" lon="0.70792">
        <ele>211.8</ele>
        <time>2022-05-01T09:38:40Z</time>
      </trkpt>
      <trkpt lat="45.10043" lon="0.70792">
        <ele>212</ele>
        <time>2022-05-01T09:38:41Z</time>
      </trkpt>
      <trkpt lat="45.10041" lon="0.70793">
        <ele>212</ele>
        <time>2022-05-01T09:38:43Z</time>
      </trkpt>
      <trkpt lat="45.10037" lon="0.70795">
        <ele>211.9</ele>
        <time>2022-05-01T09:38:44Z</time>
      </trkpt>
      <trkpt lat="45.10035" lon="0.70798">
        <ele>211.9</ele>
        <time>2022-05-01T09:38:45Z</time>
      </trkpt>
      <trkpt lat="45.10031" lon="0.70803">
        <ele>211.9</ele>
        <time>2022-05-01T09:38:47Z</time>
      </trkpt>
      <trkpt lat="45.10028" lon="0.70805">
        <ele>212.3</ele>
        <time>2022-05-01T09:38:48Z</time>
      </trkpt>
      <trkpt lat="45.10024" lon="0.70809">
        <ele>212.3</ele>
        <time>2022-05-01T09:38:49Z</time>
      </trkpt>
      <trkpt lat="45.1002" lon="0.70813">
        <ele>212.4</ele>
        <time>2022-05-01T09:38:51Z</time>
      </trkpt>
      <trkpt lat="45.10015" lon="0.70819">
        <ele>212.7</ele>
        <time>2022-05-01T09:38:52Z</time>
      </trkpt>
      <trkpt lat="45.10012" lon="0.70821">
        <ele>212.7</ele>
        <time>2022-05-01T09:38:53Z</time>
      </trkpt>
      <trkpt lat="45.10005" lon="0.70826">
        <ele>213.1</ele>
        <time>2022-05-01T09:38:55Z</time>
      </trkpt>
      <trkpt lat="45.09999" lon="0.70834">
        <ele>213.4</ele>
        <time>2022-05-01T09:38:57Z</time>
      </trkpt>
      <trkpt lat="45.09993" lon="0.70838">
        <ele>213.7</ele>
        <time>2022-05-01T09:38:59Z</time>
      </trkpt>
      <trkpt lat="45.09986" lon="0.70842">
        <ele>213.7</ele>
        <time>2022-05-01T09:39:01Z</time>
      </trkpt>
      <trkpt lat="45.09981" lon="0.70848">
        <ele>214.5</ele>
        <time>2022-05-01T09:39:03Z</time>
      </trkpt>
      <trkpt lat="45.09976" lon="0.70853">
        <ele>214.5</ele>
        <time>2022-05-01T09:39:05Z</time>
      </trkpt>
      <trkpt lat="45.09973" lon="0.70855">
        <ele>214.5</ele>
        <time>2022-05-01T09:39:06Z</time>
      </trkpt>
      <trkpt lat="45.0997" lon="0.70858">
        <ele>214.9</ele>
        <time>2022-05-01T09:39:07Z</time>
      </trkpt>
      <trkpt lat="45.09965" lon="0.70864">
        <ele>215.5</ele>
        <time>2022-05-01T09:39:09Z</time>
      </trkpt>
      <trkpt lat="45.0996" lon="0.70871">
        <ele>215.5</ele>
        <time>2022-05-01T09:39:11Z</time>
      </trkpt>
      <trkpt lat="45.09956" lon="0.70875">
        <ele>215.8</ele>
        <time>2022-05-01T09:39:13Z</time>
      </trkpt>
      <trkpt lat="45.09953" lon="0.70878">
        <ele>215.8</ele>
        <time>2022-05-01T09:39:15Z</time>
      </trkpt>
      <trkpt lat="45.09948" lon="0.70882">
        <ele>216.4</ele>
        <time>2022-05-01T09:39:17Z</time>
      </trkpt>
      <trkpt lat="45.09943" lon="0.70886">
        <ele>216.7</ele>
        <time>2022-05-01T09:39:19Z</time>
      </trkpt>
      <trkpt lat="45.0994" lon="0.70888">
        <ele>216.7</ele>
        <time>2022-05-01T09:39:20Z</time>
      </trkpt>
      <trkpt lat="45.09938" lon="0.7089">
        <ele>216.7</ele>
        <time>2022-05-01T09:39:21Z</time>
      </trkpt>
      <trkpt lat="45.09935" lon="0.70892">
        <ele>216.7</ele>
        <time>2022-05-01T09:39:22Z</time>
      </trkpt>
      <trkpt lat="45.09933" lon="0.70893">
        <ele>217</ele>
        <time>2022-05-01T09:39:23Z</time>
      </trkpt>
      <trkpt lat="45.09931" lon="0.70894">
        <ele>217</ele>
        <time>2022-05-01T09:39:24Z</time>
      </trkpt>
      <trkpt lat="45.09928" lon="0.70897">
        <ele>217.4</ele>
        <time>2022-05-01T09:39:25Z</time>
      </trkpt>
      <trkpt lat="45.09923" lon="0.70901">
        <ele>217.4</ele>
        <time>2022-05-01T09:39:27Z</time>
      </trkpt>
      <trkpt lat="45.09921" lon="0.70902">
        <ele>217.7</ele>
        <time>2022-05-01T09:39:28Z</time>
      </trkpt>
      <trkpt lat="45.0992" lon="0.70903">
        <ele>217.7</ele>
        <time>2022-05-01T09:39:29Z</time>
      </trkpt>
      <trkpt lat="45.09918" lon="0.70905">
        <ele>217.7</ele>
        <time>2022-05-01T09:39:30Z</time>
      </trkpt>
      <trkpt lat="45.09916" lon="0.70908">
        <ele>217.7</ele>
        <time>2022-05-01T09:39:31Z</time>
      </trkpt>
      <trkpt lat="45.09914" lon="0.7091">
        <ele>217.7</ele>
        <time>2022-05-01T09:39:32Z</time>
      </trkpt>
      <trkpt lat="45.09912" lon="0.70911">
        <ele>217.7</ele>
        <time>2022-05-01T09:39:33Z</time>
      </trkpt>
      <trkpt lat="45.09906" lon="0.70915">
        <ele>218.4</ele>
        <time>2022-05-01T09:39:35Z</time>
      </trkpt>
      <trkpt lat="45.099" lon="0.70919">
        <ele>218.4</ele>
        <time>2022-05-01T09:39:37Z</time>
      </trkpt>
      <trkpt lat="45.09894" lon="0.70923">
        <ele>218.6</ele>
        <time>2022-05-01T09:39:39Z</time>
      </trkpt>
      <trkpt lat="45.09892" lon="0.70924">
        <ele>218.6</ele>
        <time>2022-05-01T09:39:40Z</time>
      </trkpt>
      <trkpt lat="45.0989" lon="0.70927">
        <ele>218.6</ele>
        <time>2022-05-01T09:39:41Z</time>
      </trkpt>
      <trkpt lat="45.09888" lon="0.70933">
        <ele>218.9</ele>
        <time>2022-05-01T09:39:43Z</time>
      </trkpt>
      <trkpt lat="45.09887" lon="0.70937">
        <ele>218.9</ele>
        <time>2022-05-01T09:39:44Z</time>
      </trkpt>
      <trkpt lat="45.09887" lon="0.70937">
        <ele>218.9</ele>
        <time>2022-05-01T09:39:45Z</time>
      </trkpt>
      <trkpt lat="45.09879" lon="0.70944">
        <ele>219</ele>
        <time>2022-05-01T09:39:49Z</time>
      </trkpt>
      <trkpt lat="45.09875" lon="0.70948">
        <ele>219.4</ele>
        <time>2022-05-01T09:39:51Z</time>
      </trkpt>
      <trkpt lat="45.09871" lon="0.70955">
        <ele>219.4</ele>
        <time>2022-05-01T09:39:53Z</time>
      </trkpt>
      <trkpt lat="45.09868" lon="0.70956">
        <ele>219.4</ele>
        <time>2022-05-01T09:39:54Z</time>
      </trkpt>
      <trkpt lat="45.09864" lon="0.70956">
        <ele>219.4</ele>
        <time>2022-05-01T09:39:58Z</time>
      </trkpt>
      <trkpt lat="45.09861" lon="0.70956">
        <ele>219.4</ele>
        <time>2022-05-01T09:39:59Z</time>
      </trkpt>
      <trkpt lat="45.09858" lon="0.70956">
        <ele>219.4</ele>
        <time>2022-05-01T09:40:00Z</time>
      </trkpt>
      <trkpt lat="45.09853" lon="0.70963">
        <ele>219.4</ele>
        <time>2022-05-01T09:40:01Z</time>
      </trkpt>
      <trkpt lat="45.09852" lon="0.70965">
        <ele>219.5</ele>
        <time>2022-05-01T09:40:02Z</time>
      </trkpt>
      <trkpt lat="45.0985" lon="0.70967">
        <ele>219.6</ele>
        <time>2022-05-01T09:40:03Z</time>
      </trkpt>
      <trkpt lat="45.09846" lon="0.70969">
        <ele>219.5</ele>
        <time>2022-05-01T09:40:05Z</time>
      </trkpt>
      <trkpt lat="45.09846" lon="0.70969">
        <ele>219.5</ele>
        <time>2022-05-01T09:40:06Z</time>
      </trkpt>
      <trkpt lat="45.09845" lon="0.70971">
        <ele>219.5</ele>
        <time>2022-05-01T09:40:07Z</time>
      </trkpt>
      <trkpt lat="45.09822" lon="0.70993">
        <ele>219.7</ele>
        <time>2022-05-01T09:40:19Z</time>
      </trkpt>
      <trkpt lat="45.0982" lon="0.70994">
        <ele>219.7</ele>
        <time>2022-05-01T09:40:20Z</time>
      </trkpt>
      <trkpt lat="45.09817" lon="0.70996">
        <ele>219.7</ele>
        <time>2022-05-01T09:40:21Z</time>
      </trkpt>
      <trkpt lat="45.09813" lon="0.70999">
        <ele>219.7</ele>
        <time>2022-05-01T09:40:23Z</time>
      </trkpt>
      <trkpt lat="45.0981" lon="0.71002">
        <ele>219.7</ele>
        <time>2022-05-01T09:40:25Z</time>
      </trkpt>
      <trkpt lat="45.09808" lon="0.71004">
        <ele>219.7</ele>
        <time>2022-05-01T09:40:27Z</time>
      </trkpt>
      <trkpt lat="45.09803" lon="0.71007">
        <ele>219.7</ele>
        <time>2022-05-01T09:40:29Z</time>
      </trkpt>
      <trkpt lat="45.09801" lon="0.71009">
        <ele>219.7</ele>
        <time>2022-05-01T09:40:30Z</time>
      </trkpt>
      <trkpt lat="45.09799" lon="0.71011">
        <ele>220</ele>
        <time>2022-05-01T09:40:31Z</time>
      </trkpt>
      <trkpt lat="45.09796" lon="0.71014">
        <ele>220</ele>
        <time>2022-05-01T09:40:33Z</time>
      </trkpt>
      <trkpt lat="45.09792" lon="0.71019">
        <ele>219.9</ele>
        <time>2022-05-01T09:40:35Z</time>
      </trkpt>
      <trkpt lat="45.09789" lon="0.71021">
        <ele>219.9</ele>
        <time>2022-05-01T09:40:36Z</time>
      </trkpt>
      <trkpt lat="45.09787" lon="0.71023">
        <ele>220.2</ele>
        <time>2022-05-01T09:40:37Z</time>
      </trkpt>
      <trkpt lat="45.09784" lon="0.71027">
        <ele>220.2</ele>
        <time>2022-05-01T09:40:39Z</time>
      </trkpt>
      <trkpt lat="45.09783" lon="0.71029">
        <ele>220.2</ele>
        <time>2022-05-01T09:40:40Z</time>
      </trkpt>
      <trkpt lat="45.09781" lon="0.7103">
        <ele>220.2</ele>
        <time>2022-05-01T09:40:41Z</time>
      </trkpt>
      <trkpt lat="45.09777" lon="0.71034">
        <ele>220.3</ele>
        <time>2022-05-01T09:40:43Z</time>
      </trkpt>
      <trkpt lat="45.09772" lon="0.71037">
        <ele>220.5</ele>
        <time>2022-05-01T09:40:45Z</time>
      </trkpt>
      <trkpt lat="45.09769" lon="0.71041">
        <ele>220.5</ele>
        <time>2022-05-01T09:40:47Z</time>
      </trkpt>
      <trkpt lat="45.09766" lon="0.71044">
        <ele>220.5</ele>
        <time>2022-05-01T09:40:49Z</time>
      </trkpt>
      <trkpt lat="45.09762" lon="0.71047">
        <ele>220.7</ele>
        <time>2022-05-01T09:40:51Z</time>
      </trkpt>
      <trkpt lat="45.0976" lon="0.71049">
        <ele>220.7</ele>
        <time>2022-05-01T09:40:52Z</time>
      </trkpt>
      <trkpt lat="45.09759" lon="0.71051">
        <ele>220.8</ele>
        <time>2022-05-01T09:40:53Z</time>
      </trkpt>
      <trkpt lat="45.09756" lon="0.71056">
        <ele>220.8</ele>
        <time>2022-05-01T09:40:55Z</time>
      </trkpt>
      <trkpt lat="45.09754" lon="0.71058">
        <ele>220.8</ele>
        <time>2022-05-01T09:40:56Z</time>
      </trkpt>
      <trkpt lat="45.09754" lon="0.7106">
        <ele>220.8</ele>
        <time>2022-05-01T09:40:57Z</time>
      </trkpt>
      <trkpt lat="45.09751" lon="0.71066">
        <ele>221</ele>
        <time>2022-05-01T09:40:59Z</time>
      </trkpt>
      <trkpt lat="45.09751" lon="0.71069">
        <ele>221.1</ele>
        <time>2022-05-01T09:41:00Z</time>
      </trkpt>
      <trkpt lat="45.09749" lon="0.71073">
        <ele>221.1</ele>
        <time>2022-05-01T09:41:01Z</time>
      </trkpt>
      <trkpt lat="45.09747" lon="0.71083">
        <ele>221.1</ele>
        <time>2022-05-01T09:41:03Z</time>
      </trkpt>
      <trkpt lat="45.09748" lon="0.71089">
        <ele>221.1</ele>
        <time>2022-05-01T09:41:04Z</time>
      </trkpt>
      <trkpt lat="45.09748" lon="0.71094">
        <ele>221.1</ele>
        <time>2022-05-01T09:41:05Z</time>
      </trkpt>
      <trkpt lat="45.0975" lon="0.7111">
        <ele>221.1</ele>
        <time>2022-05-01T09:41:07Z</time>
      </trkpt>
      <trkpt lat="45.09751" lon="0.71118">
        <ele>221.1</ele>
        <time>2022-05-01T09:41:08Z</time>
      </trkpt>
      <trkpt lat="45.09753" lon="0.71127">
        <ele>221.1</ele>
        <time>2022-05-01T09:41:09Z</time>
      </trkpt>
      <trkpt lat="45.09753" lon="0.71136">
        <ele>221.1</ele>
        <time>2022-05-01T09:41:10Z</time>
      </trkpt>
      <trkpt lat="45.09753" lon="0.71146">
        <ele>221.1</ele>
        <time>2022-05-01T09:41:11Z</time>
      </trkpt>
      <trkpt lat="45.09753" lon="0.71156">
        <ele>221.1</ele>
        <time>2022-05-01T09:41:12Z</time>
      </trkpt>
      <trkpt lat="45.09755" lon="0.71165">
        <ele>221.1</ele>
        <time>2022-05-01T09:41:13Z</time>
      </trkpt>
      <trkpt lat="45.09758" lon="0.71174">
        <ele>221</ele>
        <time>2022-05-01T09:41:14Z</time>
      </trkpt>
      <trkpt lat="45.09761" lon="0.71183">
        <ele>221</ele>
        <time>2022-05-01T09:41:15Z</time>
      </trkpt>
      <trkpt lat="45.09764" lon="0.71192">
        <ele>220.9</ele>
        <time>2022-05-01T09:41:16Z</time>
      </trkpt>
      <trkpt lat="45.09765" lon="0.71202">
        <ele>220.8</ele>
        <time>2022-05-01T09:41:17Z</time>
      </trkpt>
      <trkpt lat="45.09765" lon="0.71212">
        <ele>220.6</ele>
        <time>2022-05-01T09:41:18Z</time>
      </trkpt>
      <trkpt lat="45.09765" lon="0.71222">
        <ele>220.6</ele>
        <time>2022-05-01T09:41:19Z</time>
      </trkpt>
      <trkpt lat="45.09767" lon="0.71244">
        <ele>220.3</ele>
        <time>2022-05-01T09:41:21Z</time>
      </trkpt>
      <trkpt lat="45.09769" lon="0.71255">
        <ele>220.3</ele>
        <time>2022-05-01T09:41:22Z</time>
      </trkpt>
      <trkpt lat="45.09772" lon="0.71267">
        <ele>220.2</ele>
        <time>2022-05-01T09:41:23Z</time>
      </trkpt>
      <trkpt lat="45.0978" lon="0.71289">
        <ele>219.8</ele>
        <time>2022-05-01T09:41:25Z</time>
      </trkpt>
      <trkpt lat="45.0979" lon="0.71309">
        <ele>218.8</ele>
        <time>2022-05-01T09:41:27Z</time>
      </trkpt>
      <trkpt lat="45.09796" lon="0.71317">
        <ele>218.8</ele>
        <time>2022-05-01T09:41:28Z</time>
      </trkpt>
      <trkpt lat="45.09802" lon="0.7132">
        <ele>218.3</ele>
        <time>2022-05-01T09:41:29Z</time>
      </trkpt>
      <trkpt lat="45.0981" lon="0.71323">
        <ele>218.3</ele>
        <time>2022-05-01T09:41:30Z</time>
      </trkpt>
      <trkpt lat="45.09817" lon="0.71328">
        <ele>216.9</ele>
        <time>2022-05-01T09:41:31Z</time>
      </trkpt>
      <trkpt lat="45.09823" lon="0.71332">
        <ele>216.9</ele>
        <time>2022-05-01T09:41:32Z</time>
      </trkpt>
      <trkpt lat="45.09831" lon="0.71336">
        <ele>216.4</ele>
        <time>2022-05-01T09:41:33Z</time>
      </trkpt>
      <trkpt lat="45.09844" lon="0.71343">
        <ele>215.1</ele>
        <time>2022-05-01T09:41:35Z</time>
      </trkpt>
      <trkpt lat="45.0985" lon="0.71345">
        <ele>214.5</ele>
        <time>2022-05-01T09:41:36Z</time>
      </trkpt>
      <trkpt lat="45.09856" lon="0.71348">
        <ele>214.5</ele>
        <time>2022-05-01T09:41:37Z</time>
      </trkpt>
      <trkpt lat="45.0986" lon="0.71351">
        <ele>214.5</ele>
        <time>2022-05-01T09:41:38Z</time>
      </trkpt>
      <trkpt lat="45.09861" lon="0.71355">
        <ele>213.8</ele>
        <time>2022-05-01T09:41:39Z</time>
      </trkpt>
      <trkpt lat="45.09863" lon="0.71365">
        <ele>213.4</ele>
        <time>2022-05-01T09:41:41Z</time>
      </trkpt>
      <trkpt lat="45.09862" lon="0.71371">
        <ele>213.4</ele>
        <time>2022-05-01T09:41:42Z</time>
      </trkpt>
      <trkpt lat="45.09869" lon="0.71378">
        <ele>213.5</ele>
        <time>2022-05-01T09:41:43Z</time>
      </trkpt>
      <trkpt lat="45.09878" lon="0.71384">
        <ele>212.5</ele>
        <time>2022-05-01T09:41:44Z</time>
      </trkpt>
      <trkpt lat="45.0989" lon="0.71387">
        <ele>211.5</ele>
        <time>2022-05-01T09:41:45Z</time>
      </trkpt>
      <trkpt lat="45.099" lon="0.71387">
        <ele>210.7</ele>
        <time>2022-05-01T09:41:46Z</time>
      </trkpt>
      <trkpt lat="45.09908" lon="0.7139">
        <ele>210.7</ele>
        <time>2022-05-01T09:41:47Z</time>
      </trkpt>
      <trkpt lat="45.09925" lon="0.71394">
        <ele>209.7</ele>
        <time>2022-05-01T09:41:49Z</time>
      </trkpt>
      <trkpt lat="45.09933" lon="0.71397">
        <ele>209.7</ele>
        <time>2022-05-01T09:41:50Z</time>
      </trkpt>
      <trkpt lat="45.09944" lon="0.714">
        <ele>209.5</ele>
        <time>2022-05-01T09:41:51Z</time>
      </trkpt>
      <trkpt lat="45.09953" lon="0.71402">
        <ele>209.3</ele>
        <time>2022-05-01T09:41:52Z</time>
      </trkpt>
      <trkpt lat="45.0996" lon="0.71406">
        <ele>209.3</ele>
        <time>2022-05-01T09:41:53Z</time>
      </trkpt>
      <trkpt lat="45.09967" lon="0.71411">
        <ele>208.7</ele>
        <time>2022-05-01T09:41:54Z</time>
      </trkpt>
      <trkpt lat="45.09973" lon="0.71418">
        <ele>208.9</ele>
        <time>2022-05-01T09:41:55Z</time>
      </trkpt>
      <trkpt lat="45.09984" lon="0.71434">
        <ele>208.6</ele>
        <time>2022-05-01T09:41:57Z</time>
      </trkpt>
      <trkpt lat="45.09994" lon="0.71453">
        <ele>208</ele>
        <time>2022-05-01T09:41:59Z</time>
      </trkpt>
      <trkpt lat="45.10002" lon="0.71473">
        <ele>207.1</ele>
        <time>2022-05-01T09:42:01Z</time>
      </trkpt>
      <trkpt lat="45.10009" lon="0.71495">
        <ele>206.6</ele>
        <time>2022-05-01T09:42:03Z</time>
      </trkpt>
      <trkpt lat="45.10018" lon="0.71517">
        <ele>204.3</ele>
        <time>2022-05-01T09:42:05Z</time>
      </trkpt>
      <trkpt lat="45.10022" lon="0.71527">
        <ele>205</ele>
        <time>2022-05-01T09:42:06Z</time>
      </trkpt>
      <trkpt lat="45.10028" lon="0.71538">
        <ele>203.9</ele>
        <time>2022-05-01T09:42:07Z</time>
      </trkpt>
      <trkpt lat="45.10037" lon="0.71559">
        <ele>202.9</ele>
        <time>2022-05-01T09:42:09Z</time>
      </trkpt>
      <trkpt lat="45.10041" lon="0.71571">
        <ele>201.5</ele>
        <time>2022-05-01T09:42:10Z</time>
      </trkpt>
      <trkpt lat="45.10045" lon="0.71581">
        <ele>201.6</ele>
        <time>2022-05-01T09:42:11Z</time>
      </trkpt>
      <trkpt lat="45.10054" lon="0.71601">
        <ele>199.5</ele>
        <time>2022-05-01T09:42:13Z</time>
      </trkpt>
      <trkpt lat="45.10062" lon="0.71617">
        <ele>199.5</ele>
        <time>2022-05-01T09:42:15Z</time>
      </trkpt>
      <trkpt lat="45.10072" lon="0.71633">
        <ele>198.4</ele>
        <time>2022-05-01T09:42:17Z</time>
      </trkpt>
      <trkpt lat="45.10078" lon="0.71642">
        <ele>197.2</ele>
        <time>2022-05-01T09:42:18Z</time>
      </trkpt>
      <trkpt lat="45.10083" lon="0.71648">
        <ele>197.1</ele>
        <time>2022-05-01T09:42:19Z</time>
      </trkpt>
      <trkpt lat="45.10095" lon="0.71662">
        <ele>196</ele>
        <time>2022-05-01T09:42:21Z</time>
      </trkpt>
      <trkpt lat="45.101" lon="0.7167">
        <ele>194.8</ele>
        <time>2022-05-01T09:42:22Z</time>
      </trkpt>
      <trkpt lat="45.10105" lon="0.71678">
        <ele>194.3</ele>
        <time>2022-05-01T09:42:23Z</time>
      </trkpt>
      <trkpt lat="45.10112" lon="0.71684">
        <ele>194.3</ele>
        <time>2022-05-01T09:42:24Z</time>
      </trkpt>
      <trkpt lat="45.10119" lon="0.71689">
        <ele>192.5</ele>
        <time>2022-05-01T09:42:25Z</time>
      </trkpt>
      <trkpt lat="45.10125" lon="0.71696">
        <ele>192.5</ele>
        <time>2022-05-01T09:42:26Z</time>
      </trkpt>
      <trkpt lat="45.10132" lon="0.71703">
        <ele>191.1</ele>
        <time>2022-05-01T09:42:27Z</time>
      </trkpt>
      <trkpt lat="45.10145" lon="0.71716">
        <ele>191.4</ele>
        <time>2022-05-01T09:42:29Z</time>
      </trkpt>
      <trkpt lat="45.1015" lon="0.71726">
        <ele>189.4</ele>
        <time>2022-05-01T09:42:30Z</time>
      </trkpt>
      <trkpt lat="45.10152" lon="0.71737">
        <ele>190</ele>
        <time>2022-05-01T09:42:31Z</time>
      </trkpt>
      <trkpt lat="45.10161" lon="0.71759">
        <ele>187.2</ele>
        <time>2022-05-01T09:42:33Z</time>
      </trkpt>
      <trkpt lat="45.10165" lon="0.71767">
        <ele>188.4</ele>
        <time>2022-05-01T09:42:34Z</time>
      </trkpt>
      <trkpt lat="45.10169" lon="0.71777">
        <ele>187.5</ele>
        <time>2022-05-01T09:42:35Z</time>
      </trkpt>
      <trkpt lat="45.10174" lon="0.71785">
        <ele>187.5</ele>
        <time>2022-05-01T09:42:36Z</time>
      </trkpt>
      <trkpt lat="45.10179" lon="0.71794">
        <ele>187.7</ele>
        <time>2022-05-01T09:42:37Z</time>
      </trkpt>
      <trkpt lat="45.10182" lon="0.71804">
        <ele>187.7</ele>
        <time>2022-05-01T09:42:38Z</time>
      </trkpt>
      <trkpt lat="45.10185" lon="0.71814">
        <ele>186.4</ele>
        <time>2022-05-01T09:42:39Z</time>
      </trkpt>
      <trkpt lat="45.10192" lon="0.71834">
        <ele>186.4</ele>
        <time>2022-05-01T09:42:41Z</time>
      </trkpt>
      <trkpt lat="45.10197" lon="0.71853">
        <ele>185.7</ele>
        <time>2022-05-01T09:42:43Z</time>
      </trkpt>
      <trkpt lat="45.10199" lon="0.7186">
        <ele>184.7</ele>
        <time>2022-05-01T09:42:44Z</time>
      </trkpt>
      <trkpt lat="45.102" lon="0.71865">
        <ele>184.7</ele>
        <time>2022-05-01T09:42:45Z</time>
      </trkpt>
      <trkpt lat="45.10199" lon="0.71871">
        <ele>184.7</ele>
        <time>2022-05-01T09:42:47Z</time>
      </trkpt>
      <trkpt lat="45.10201" lon="0.71875">
        <ele>185.1</ele>
        <time>2022-05-01T09:42:48Z</time>
      </trkpt>
      <trkpt lat="45.10201" lon="0.71876">
        <ele>185.1</ele>
        <time>2022-05-01T09:42:49Z</time>
      </trkpt>
      <trkpt lat="45.10202" lon="0.71877">
        <ele>185.1</ele>
        <time>2022-05-01T09:42:51Z</time>
      </trkpt>
      <trkpt lat="45.10202" lon="0.71877">
        <ele>185.1</ele>
        <time>2022-05-01T09:42:53Z</time>
      </trkpt>
      <trkpt lat="45.10202" lon="0.71878">
        <ele>185.1</ele>
        <time>2022-05-01T09:42:55Z</time>
      </trkpt>
      <trkpt lat="45.10203" lon="0.71879">
        <ele>185.1</ele>
        <time>2022-05-01T09:42:57Z</time>
      </trkpt>
      <trkpt lat="45.10203" lon="0.71879">
        <ele>185.1</ele>
        <time>2022-05-01T09:42:59Z</time>
      </trkpt>
      <trkpt lat="45.10203" lon="0.7188">
        <ele>185.1</ele>
        <time>2022-05-01T09:43:00Z</time>
      </trkpt>
      <trkpt lat="45.10203" lon="0.71881">
        <ele>185.1</ele>
        <time>2022-05-01T09:43:12Z</time>
      </trkpt>
      <trkpt lat="45.10204" lon="0.71881">
        <ele>185.1</ele>
        <time>2022-05-01T09:43:13Z</time>
      </trkpt>
      <trkpt lat="45.10207" lon="0.71884">
        <ele>185.1</ele>
        <time>2022-05-01T09:43:14Z</time>
      </trkpt>
      <trkpt lat="45.10211" lon="0.71889">
        <ele>185.1</ele>
        <time>2022-05-01T09:43:15Z</time>
      </trkpt>
      <trkpt lat="45.10213" lon="0.71894">
        <ele>185.5</ele>
        <time>2022-05-01T09:43:16Z</time>
      </trkpt>
      <trkpt lat="45.10215" lon="0.71898">
        <ele>185.5</ele>
        <time>2022-05-01T09:43:17Z</time>
      </trkpt>
      <trkpt lat="45.10217" lon="0.71906">
        <ele>185.5</ele>
        <time>2022-05-01T09:43:19Z</time>
      </trkpt>
      <trkpt lat="45.10219" lon="0.71909">
        <ele>185.5</ele>
        <time>2022-05-01T09:43:20Z</time>
      </trkpt>
      <trkpt lat="45.10218" lon="0.71912">
        <ele>184.5</ele>
        <time>2022-05-01T09:43:21Z</time>
      </trkpt>
      <trkpt lat="45.10215" lon="0.71917">
        <ele>184.5</ele>
        <time>2022-05-01T09:43:23Z</time>
      </trkpt>
      <trkpt lat="45.10213" lon="0.71917">
        <ele>184.5</ele>
        <time>2022-05-01T09:43:24Z</time>
      </trkpt>
      <trkpt lat="45.10211" lon="0.71918">
        <ele>183</ele>
        <time>2022-05-01T09:43:25Z</time>
      </trkpt>
      <trkpt lat="45.10206" lon="0.71919">
        <ele>183</ele>
        <time>2022-05-01T09:43:27Z</time>
      </trkpt>
      <trkpt lat="45.10203" lon="0.71921">
        <ele>183</ele>
        <time>2022-05-01T09:43:29Z</time>
      </trkpt>
      <trkpt lat="45.10199" lon="0.71923">
        <ele>181.6</ele>
        <time>2022-05-01T09:43:31Z</time>
      </trkpt>
      <trkpt lat="45.10193" lon="0.71925">
        <ele>181.6</ele>
        <time>2022-05-01T09:43:33Z</time>
      </trkpt>
      <trkpt lat="45.10189" lon="0.71927">
        <ele>180.6</ele>
        <time>2022-05-01T09:43:35Z</time>
      </trkpt>
      <trkpt lat="45.10184" lon="0.71931">
        <ele>179.9</ele>
        <time>2022-05-01T09:43:37Z</time>
      </trkpt>
      <trkpt lat="45.10181" lon="0.71932">
        <ele>179.9</ele>
        <time>2022-05-01T09:43:38Z</time>
      </trkpt>
      <trkpt lat="45.10179" lon="0.71933">
        <ele>179.9</ele>
        <time>2022-05-01T09:43:39Z</time>
      </trkpt>
      <trkpt lat="45.10173" lon="0.71935">
        <ele>179.5</ele>
        <time>2022-05-01T09:43:41Z</time>
      </trkpt>
      <trkpt lat="45.10168" lon="0.71936">
        <ele>179.5</ele>
        <time>2022-05-01T09:43:43Z</time>
      </trkpt>
      <trkpt lat="45.10162" lon="0.71938">
        <ele>179.5</ele>
        <time>2022-05-01T09:43:45Z</time>
      </trkpt>
      <trkpt lat="45.10157" lon="0.71942">
        <ele>179.5</ele>
        <time>2022-05-01T09:43:47Z</time>
      </trkpt>
      <trkpt lat="45.10152" lon="0.71946">
        <ele>180.1</ele>
        <time>2022-05-01T09:43:49Z</time>
      </trkpt>
      <trkpt lat="45.10145" lon="0.71948">
        <ele>180.3</ele>
        <time>2022-05-01T09:43:51Z</time>
      </trkpt>
      <trkpt lat="45.10141" lon="0.7195">
        <ele>180.3</ele>
        <time>2022-05-01T09:43:52Z</time>
      </trkpt>
      <trkpt lat="45.10138" lon="0.7195">
        <ele>180.5</ele>
        <time>2022-05-01T09:43:53Z</time>
      </trkpt>
      <trkpt lat="45.10131" lon="0.71954">
        <ele>180.5</ele>
        <time>2022-05-01T09:43:55Z</time>
      </trkpt>
      <trkpt lat="45.10128" lon="0.71955">
        <ele>180.5</ele>
        <time>2022-05-01T09:43:56Z</time>
      </trkpt>
      <trkpt lat="45.10125" lon="0.71957">
        <ele>180.8</ele>
        <time>2022-05-01T09:43:57Z</time>
      </trkpt>
      <trkpt lat="45.10119" lon="0.71961">
        <ele>181.2</ele>
        <time>2022-05-01T09:43:59Z</time>
      </trkpt>
      <trkpt lat="45.10112" lon="0.71964">
        <ele>181.5</ele>
        <time>2022-05-01T09:44:01Z</time>
      </trkpt>
      <trkpt lat="45.10107" lon="0.71967">
        <ele>181.5</ele>
        <time>2022-05-01T09:44:03Z</time>
      </trkpt>
      <trkpt lat="45.10101" lon="0.71971">
        <ele>182</ele>
        <time>2022-05-01T09:44:05Z</time>
      </trkpt>
      <trkpt lat="45.10096" lon="0.71974">
        <ele>182</ele>
        <time>2022-05-01T09:44:07Z</time>
      </trkpt>
      <trkpt lat="45.1009" lon="0.71976">
        <ele>182.4</ele>
        <time>2022-05-01T09:44:09Z</time>
      </trkpt>
      <trkpt lat="45.10084" lon="0.71978">
        <ele>182.4</ele>
        <time>2022-05-01T09:44:11Z</time>
      </trkpt>
      <trkpt lat="45.10078" lon="0.71981">
        <ele>182.8</ele>
        <time>2022-05-01T09:44:13Z</time>
      </trkpt>
      <trkpt lat="45.10073" lon="0.71984">
        <ele>182.8</ele>
        <time>2022-05-01T09:44:15Z</time>
      </trkpt>
      <trkpt lat="45.10068" lon="0.71986">
        <ele>182.8</ele>
        <time>2022-05-01T09:44:17Z</time>
      </trkpt>
      <trkpt lat="45.10065" lon="0.71987">
        <ele>183.1</ele>
        <time>2022-05-01T09:44:18Z</time>
      </trkpt>
      <trkpt lat="45.10063" lon="0.71988">
        <ele>183.1</ele>
        <time>2022-05-01T09:44:19Z</time>
      </trkpt>
      <trkpt lat="45.10058" lon="0.7199">
        <ele>183.1</ele>
        <time>2022-05-01T09:44:21Z</time>
      </trkpt>
      <trkpt lat="45.10055" lon="0.71991">
        <ele>183.1</ele>
        <time>2022-05-01T09:44:22Z</time>
      </trkpt>
      <trkpt lat="45.10052" lon="0.71992">
        <ele>183.3</ele>
        <time>2022-05-01T09:44:23Z</time>
      </trkpt>
      <trkpt lat="45.10049" lon="0.71995">
        <ele>183.3</ele>
        <time>2022-05-01T09:44:25Z</time>
      </trkpt>
      <trkpt lat="45.1004" lon="0.71995">
        <ele>183.6</ele>
        <time>2022-05-01T09:44:27Z</time>
      </trkpt>
      <trkpt lat="45.10036" lon="0.71996">
        <ele>183.6</ele>
        <time>2022-05-01T09:44:28Z</time>
      </trkpt>
      <trkpt lat="45.10034" lon="0.71995">
        <ele>183.6</ele>
        <time>2022-05-01T09:44:29Z</time>
      </trkpt>
      <trkpt lat="45.10027" lon="0.71995">
        <ele>183.8</ele>
        <time>2022-05-01T09:44:31Z</time>
      </trkpt>
      <trkpt lat="45.10019" lon="0.71996">
        <ele>183.8</ele>
        <time>2022-05-01T09:44:33Z</time>
      </trkpt>
      <trkpt lat="45.10012" lon="0.71995">
        <ele>183.9</ele>
        <time>2022-05-01T09:44:35Z</time>
      </trkpt>
      <trkpt lat="45.1001" lon="0.71995">
        <ele>183.9</ele>
        <time>2022-05-01T09:44:36Z</time>
      </trkpt>
      <trkpt lat="45.10006" lon="0.71995">
        <ele>183.9</ele>
        <time>2022-05-01T09:44:37Z</time>
      </trkpt>
      <trkpt lat="45.1" lon="0.71994">
        <ele>184</ele>
        <time>2022-05-01T09:44:39Z</time>
      </trkpt>
      <trkpt lat="45.09993" lon="0.71991">
        <ele>184</ele>
        <time>2022-05-01T09:44:41Z</time>
      </trkpt>
      <trkpt lat="45.09987" lon="0.71988">
        <ele>184</ele>
        <time>2022-05-01T09:44:43Z</time>
      </trkpt>
      <trkpt lat="45.09981" lon="0.71985">
        <ele>184.1</ele>
        <time>2022-05-01T09:44:45Z</time>
      </trkpt>
      <trkpt lat="45.09978" lon="0.71983">
        <ele>184.1</ele>
        <time>2022-05-01T09:44:46Z</time>
      </trkpt>
      <trkpt lat="45.09975" lon="0.71981">
        <ele>184.1</ele>
        <time>2022-05-01T09:44:47Z</time>
      </trkpt>
      <trkpt lat="45.0997" lon="0.71977">
        <ele>185.1</ele>
        <time>2022-05-01T09:44:49Z</time>
      </trkpt>
      <trkpt lat="45.09968" lon="0.71976">
        <ele>185</ele>
        <time>2022-05-01T09:44:50Z</time>
      </trkpt>
      <trkpt lat="45.09965" lon="0.71974">
        <ele>185</ele>
        <time>2022-05-01T09:44:51Z</time>
      </trkpt>
      <trkpt lat="45.09961" lon="0.71973">
        <ele>185</ele>
        <time>2022-05-01T09:44:53Z</time>
      </trkpt>
      <trkpt lat="45.09955" lon="0.71967">
        <ele>184.8</ele>
        <time>2022-05-01T09:44:55Z</time>
      </trkpt>
      <trkpt lat="45.09947" lon="0.71961">
        <ele>184.8</ele>
        <time>2022-05-01T09:44:57Z</time>
      </trkpt>
      <trkpt lat="45.09944" lon="0.71959">
        <ele>184.8</ele>
        <time>2022-05-01T09:44:58Z</time>
      </trkpt>
      <trkpt lat="45.09941" lon="0.71955">
        <ele>184.8</ele>
        <time>2022-05-01T09:44:59Z</time>
      </trkpt>
      <trkpt lat="45.09937" lon="0.71949">
        <ele>184.8</ele>
        <time>2022-05-01T09:45:01Z</time>
      </trkpt>
      <trkpt lat="45.09933" lon="0.71943">
        <ele>184.3</ele>
        <time>2022-05-01T09:45:03Z</time>
      </trkpt>
      <trkpt lat="45.09927" lon="0.71939">
        <ele>184.3</ele>
        <time>2022-05-01T09:45:05Z</time>
      </trkpt>
      <trkpt lat="45.0992" lon="0.71934">
        <ele>184.1</ele>
        <time>2022-05-01T09:45:07Z</time>
      </trkpt>
      <trkpt lat="45.09914" lon="0.71932">
        <ele>184.1</ele>
        <time>2022-05-01T09:45:09Z</time>
      </trkpt>
      <trkpt lat="45.09908" lon="0.71929">
        <ele>184.2</ele>
        <time>2022-05-01T09:45:11Z</time>
      </trkpt>
      <trkpt lat="45.09905" lon="0.71927">
        <ele>184.2</ele>
        <time>2022-05-01T09:45:12Z</time>
      </trkpt>
      <trkpt lat="45.09902" lon="0.71927">
        <ele>184.2</ele>
        <time>2022-05-01T09:45:13Z</time>
      </trkpt>
      <trkpt lat="45.09895" lon="0.71922">
        <ele>185</ele>
        <time>2022-05-01T09:45:15Z</time>
      </trkpt>
      <trkpt lat="45.09893" lon="0.7192">
        <ele>185</ele>
        <time>2022-05-01T09:45:16Z</time>
      </trkpt>
      <trkpt lat="45.0989" lon="0.71919">
        <ele>185</ele>
        <time>2022-05-01T09:45:17Z</time>
      </trkpt>
      <trkpt lat="45.09884" lon="0.71917">
        <ele>185.4</ele>
        <time>2022-05-01T09:45:19Z</time>
      </trkpt>
      <trkpt lat="45.0988" lon="0.71915">
        <ele>185.4</ele>
        <time>2022-05-01T09:45:20Z</time>
      </trkpt>
      <trkpt lat="45.09877" lon="0.71915">
        <ele>185.4</ele>
        <time>2022-05-01T09:45:21Z</time>
      </trkpt>
      <trkpt lat="45.0987" lon="0.71912">
        <ele>185.8</ele>
        <time>2022-05-01T09:45:23Z</time>
      </trkpt>
      <trkpt lat="45.09864" lon="0.71909">
        <ele>185.8</ele>
        <time>2022-05-01T09:45:25Z</time>
      </trkpt>
      <trkpt lat="45.09862" lon="0.71907">
        <ele>186.9</ele>
        <time>2022-05-01T09:45:26Z</time>
      </trkpt>
      <trkpt lat="45.0986" lon="0.71907">
        <ele>187.3</ele>
        <time>2022-05-01T09:45:27Z</time>
      </trkpt>
      <trkpt lat="45.09857" lon="0.71904">
        <ele>187.3</ele>
        <time>2022-05-01T09:45:28Z</time>
      </trkpt>
      <trkpt lat="45.09854" lon="0.71902">
        <ele>187.3</ele>
        <time>2022-05-01T09:45:29Z</time>
      </trkpt>
      <trkpt lat="45.09849" lon="0.71897">
        <ele>187.4</ele>
        <time>2022-05-01T09:45:31Z</time>
      </trkpt>
      <trkpt lat="45.09842" lon="0.71893">
        <ele>187.4</ele>
        <time>2022-05-01T09:45:33Z</time>
      </trkpt>
      <trkpt lat="45.09836" lon="0.71889">
        <ele>188.5</ele>
        <time>2022-05-01T09:45:35Z</time>
      </trkpt>
      <trkpt lat="45.09833" lon="0.71885">
        <ele>188.5</ele>
        <time>2022-05-01T09:45:36Z</time>
      </trkpt>
      <trkpt lat="45.0983" lon="0.71884">
        <ele>188.5</ele>
        <time>2022-05-01T09:45:37Z</time>
      </trkpt>
      <trkpt lat="45.09827" lon="0.71882">
        <ele>188.5</ele>
        <time>2022-05-01T09:45:38Z</time>
      </trkpt>
      <trkpt lat="45.09825" lon="0.7188">
        <ele>188.5</ele>
        <time>2022-05-01T09:45:39Z</time>
      </trkpt>
      <trkpt lat="45.09818" lon="0.71877">
        <ele>188.5</ele>
        <time>2022-05-01T09:45:41Z</time>
      </trkpt>
      <trkpt lat="45.09812" lon="0.71873">
        <ele>190.2</ele>
        <time>2022-05-01T09:45:43Z</time>
      </trkpt>
      <trkpt lat="45.09809" lon="0.71872">
        <ele>190.2</ele>
        <time>2022-05-01T09:45:44Z</time>
      </trkpt>
      <trkpt lat="45.09807" lon="0.7187">
        <ele>190.2</ele>
        <time>2022-05-01T09:45:45Z</time>
      </trkpt>
      <trkpt lat="45.09802" lon="0.71865">
        <ele>190.2</ele>
        <time>2022-05-01T09:45:47Z</time>
      </trkpt>
      <trkpt lat="45.09799" lon="0.71863">
        <ele>190.9</ele>
        <time>2022-05-01T09:45:48Z</time>
      </trkpt>
      <trkpt lat="45.09796" lon="0.71862">
        <ele>190.9</ele>
        <time>2022-05-01T09:45:49Z</time>
      </trkpt>
      <trkpt lat="45.09789" lon="0.7186">
        <ele>190.9</ele>
        <time>2022-05-01T09:45:51Z</time>
      </trkpt>
      <trkpt lat="45.09782" lon="0.71859">
        <ele>191.4</ele>
        <time>2022-05-01T09:45:53Z</time>
      </trkpt>
      <trkpt lat="45.09776" lon="0.71857">
        <ele>193.4</ele>
        <time>2022-05-01T09:45:55Z</time>
      </trkpt>
      <trkpt lat="45.09769" lon="0.71857">
        <ele>193.4</ele>
        <time>2022-05-01T09:45:57Z</time>
      </trkpt>
      <trkpt lat="45.09766" lon="0.71856">
        <ele>193.4</ele>
        <time>2022-05-01T09:45:58Z</time>
      </trkpt>
      <trkpt lat="45.09763" lon="0.71855">
        <ele>193.9</ele>
        <time>2022-05-01T09:45:59Z</time>
      </trkpt>
      <trkpt lat="45.09761" lon="0.71853">
        <ele>193.9</ele>
        <time>2022-05-01T09:46:00Z</time>
      </trkpt>
      <trkpt lat="45.09757" lon="0.71853">
        <ele>193.9</ele>
        <time>2022-05-01T09:46:01Z</time>
      </trkpt>
      <trkpt lat="45.09754" lon="0.71853">
        <ele>193.9</ele>
        <time>2022-05-01T09:46:02Z</time>
      </trkpt>
      <trkpt lat="45.0975" lon="0.71853">
        <ele>194.7</ele>
        <time>2022-05-01T09:46:03Z</time>
      </trkpt>
      <trkpt lat="45.09744" lon="0.71853">
        <ele>194.7</ele>
        <time>2022-05-01T09:46:05Z</time>
      </trkpt>
      <trkpt lat="45.09741" lon="0.71852">
        <ele>194.7</ele>
        <time>2022-05-01T09:46:06Z</time>
      </trkpt>
      <trkpt lat="45.09737" lon="0.71852">
        <ele>195.4</ele>
        <time>2022-05-01T09:46:07Z</time>
      </trkpt>
      <trkpt lat="45.09732" lon="0.71849">
        <ele>195.4</ele>
        <time>2022-05-01T09:46:09Z</time>
      </trkpt>
      <trkpt lat="45.09727" lon="0.7185">
        <ele>195.7</ele>
        <time>2022-05-01T09:46:11Z</time>
      </trkpt>
      <trkpt lat="45.09725" lon="0.7185">
        <ele>195.7</ele>
        <time>2022-05-01T09:46:12Z</time>
      </trkpt>
      <trkpt lat="45.09722" lon="0.7185">
        <ele>195.7</ele>
        <time>2022-05-01T09:46:13Z</time>
      </trkpt>
      <trkpt lat="45.09718" lon="0.71849">
        <ele>195.7</ele>
        <time>2022-05-01T09:46:15Z</time>
      </trkpt>
      <trkpt lat="45.09714" lon="0.71848">
        <ele>195.8</ele>
        <time>2022-05-01T09:46:17Z</time>
      </trkpt>
      <trkpt lat="45.09711" lon="0.71848">
        <ele>195.8</ele>
        <time>2022-05-01T09:46:19Z</time>
      </trkpt>
      <trkpt lat="45.09708" lon="0.71846">
        <ele>195.8</ele>
        <time>2022-05-01T09:46:21Z</time>
      </trkpt>
      <trkpt lat="45.09706" lon="0.71844">
        <ele>195.8</ele>
        <time>2022-05-01T09:46:23Z</time>
      </trkpt>
      <trkpt lat="45.09703" lon="0.71842">
        <ele>195.8</ele>
        <time>2022-05-01T09:46:25Z</time>
      </trkpt>
      <trkpt lat="45.09701" lon="0.71842">
        <ele>195.8</ele>
        <time>2022-05-01T09:46:27Z</time>
      </trkpt>
      <trkpt lat="45.09699" lon="0.71841">
        <ele>195.8</ele>
        <time>2022-05-01T09:46:28Z</time>
      </trkpt>
      <trkpt lat="45.09698" lon="0.71841">
        <ele>195.8</ele>
        <time>2022-05-01T09:46:29Z</time>
      </trkpt>
      <trkpt lat="45.09695" lon="0.71841">
        <ele>195.8</ele>
        <time>2022-05-01T09:46:31Z</time>
      </trkpt>
      <trkpt lat="45.09693" lon="0.71841">
        <ele>195.8</ele>
        <time>2022-05-01T09:46:33Z</time>
      </trkpt>
      <trkpt lat="45.0969" lon="0.7184">
        <ele>196</ele>
        <time>2022-05-01T09:46:35Z</time>
      </trkpt>
      <trkpt lat="45.09687" lon="0.7184">
        <ele>197.1</ele>
        <time>2022-05-01T09:46:37Z</time>
      </trkpt>
      <trkpt lat="45.09684" lon="0.71839">
        <ele>197.1</ele>
        <time>2022-05-01T09:46:39Z</time>
      </trkpt>
      <trkpt lat="45.0968" lon="0.71838">
        <ele>197.1</ele>
        <time>2022-05-01T09:46:41Z</time>
      </trkpt>
      <trkpt lat="45.09678" lon="0.71837">
        <ele>196.9</ele>
        <time>2022-05-01T09:46:43Z</time>
      </trkpt>
      <trkpt lat="45.09674" lon="0.71836">
        <ele>196.9</ele>
        <time>2022-05-01T09:46:45Z</time>
      </trkpt>
      <trkpt lat="45.09673" lon="0.71835">
        <ele>196.9</ele>
        <time>2022-05-01T09:46:46Z</time>
      </trkpt>
      <trkpt lat="45.09671" lon="0.71834">
        <ele>196.9</ele>
        <time>2022-05-01T09:46:47Z</time>
      </trkpt>
      <trkpt lat="45.09668" lon="0.71832">
        <ele>196.9</ele>
        <time>2022-05-01T09:46:49Z</time>
      </trkpt>
      <trkpt lat="45.09665" lon="0.7183">
        <ele>197</ele>
        <time>2022-05-01T09:46:51Z</time>
      </trkpt>
      <trkpt lat="45.09664" lon="0.71829">
        <ele>197</ele>
        <time>2022-05-01T09:46:52Z</time>
      </trkpt>
      <trkpt lat="45.09663" lon="0.7183">
        <ele>197</ele>
        <time>2022-05-01T09:46:53Z</time>
      </trkpt>
      <trkpt lat="45.09662" lon="0.7183">
        <ele>197</ele>
        <time>2022-05-01T09:46:55Z</time>
      </trkpt>
      <trkpt lat="45.0966" lon="0.7183">
        <ele>197</ele>
        <time>2022-05-01T09:46:56Z</time>
      </trkpt>
      <trkpt lat="45.09659" lon="0.7183">
        <ele>197</ele>
        <time>2022-05-01T09:46:57Z</time>
      </trkpt>
      <trkpt lat="45.09656" lon="0.71828">
        <ele>197</ele>
        <time>2022-05-01T09:46:59Z</time>
      </trkpt>
      <trkpt lat="45.09654" lon="0.71827">
        <ele>197.3</ele>
        <time>2022-05-01T09:47:01Z</time>
      </trkpt>
      <trkpt lat="45.09653" lon="0.71826">
        <ele>197.3</ele>
        <time>2022-05-01T09:47:02Z</time>
      </trkpt>
      <trkpt lat="45.09651" lon="0.71826">
        <ele>197.3</ele>
        <time>2022-05-01T09:47:03Z</time>
      </trkpt>
      <trkpt lat="45.09648" lon="0.71825">
        <ele>197.3</ele>
        <time>2022-05-01T09:47:05Z</time>
      </trkpt>
      <trkpt lat="45.09646" lon="0.71825">
        <ele>197.3</ele>
        <time>2022-05-01T09:47:07Z</time>
      </trkpt>
      <trkpt lat="45.09642" lon="0.71824">
        <ele>197.6</ele>
        <time>2022-05-01T09:47:09Z</time>
      </trkpt>
      <trkpt lat="45.09639" lon="0.71823">
        <ele>197.7</ele>
        <time>2022-05-01T09:47:11Z</time>
      </trkpt>
      <trkpt lat="45.09637" lon="0.71821">
        <ele>197.7</ele>
        <time>2022-05-01T09:47:13Z</time>
      </trkpt>
      <trkpt lat="45.09636" lon="0.7182">
        <ele>197.7</ele>
        <time>2022-05-01T09:47:14Z</time>
      </trkpt>
      <trkpt lat="45.09634" lon="0.71819">
        <ele>197.7</ele>
        <time>2022-05-01T09:47:15Z</time>
      </trkpt>
      <trkpt lat="45.09631" lon="0.71816">
        <ele>197.7</ele>
        <time>2022-05-01T09:47:17Z</time>
      </trkpt>
      <trkpt lat="45.0963" lon="0.71815">
        <ele>197.9</ele>
        <time>2022-05-01T09:47:18Z</time>
      </trkpt>
      <trkpt lat="45.09629" lon="0.71814">
        <ele>197.9</ele>
        <time>2022-05-01T09:47:19Z</time>
      </trkpt>
      <trkpt lat="45.09625" lon="0.71811">
        <ele>197.9</ele>
        <time>2022-05-01T09:47:21Z</time>
      </trkpt>
      <trkpt lat="45.09622" lon="0.71809">
        <ele>197.9</ele>
        <time>2022-05-01T09:47:23Z</time>
      </trkpt>
      <trkpt lat="45.09619" lon="0.71807">
        <ele>197.9</ele>
        <time>2022-05-01T09:47:25Z</time>
      </trkpt>
      <trkpt lat="45.09617" lon="0.71805">
        <ele>198</ele>
        <time>2022-05-01T09:47:27Z</time>
      </trkpt>
      <trkpt lat="45.09615" lon="0.71803">
        <ele>198</ele>
        <time>2022-05-01T09:47:28Z</time>
      </trkpt>
      <trkpt lat="45.09613" lon="0.71802">
        <ele>198</ele>
        <time>2022-05-01T09:47:29Z</time>
      </trkpt>
      <trkpt lat="45.09609" lon="0.71799">
        <ele>198</ele>
        <time>2022-05-01T09:47:31Z</time>
      </trkpt>
      <trkpt lat="45.09605" lon="0.71797">
        <ele>197.9</ele>
        <time>2022-05-01T09:47:33Z</time>
      </trkpt>
      <trkpt lat="45.09601" lon="0.71795">
        <ele>197.9</ele>
        <time>2022-05-01T09:47:35Z</time>
      </trkpt>
      <trkpt lat="45.09599" lon="0.71794">
        <ele>197.9</ele>
        <time>2022-05-01T09:47:36Z</time>
      </trkpt>
      <trkpt lat="45.09597" lon="0.71793">
        <ele>197.9</ele>
        <time>2022-05-01T09:47:37Z</time>
      </trkpt>
      <trkpt lat="45.09593" lon="0.71791">
        <ele>198</ele>
        <time>2022-05-01T09:47:39Z</time>
      </trkpt>
      <trkpt lat="45.09592" lon="0.71789">
        <ele>198</ele>
        <time>2022-05-01T09:47:40Z</time>
      </trkpt>
      <trkpt lat="45.09591" lon="0.71788">
        <ele>198.1</ele>
        <time>2022-05-01T09:47:41Z</time>
      </trkpt>
      <trkpt lat="45.09587" lon="0.71787">
        <ele>198.1</ele>
        <time>2022-05-01T09:47:43Z</time>
      </trkpt>
      <trkpt lat="45.09583" lon="0.71784">
        <ele>198.1</ele>
        <time>2022-05-01T09:47:45Z</time>
      </trkpt>
      <trkpt lat="45.09582" lon="0.71784">
        <ele>198.4</ele>
        <time>2022-05-01T09:47:46Z</time>
      </trkpt>
      <trkpt lat="45.0958" lon="0.71783">
        <ele>198.4</ele>
        <time>2022-05-01T09:47:47Z</time>
      </trkpt>
      <trkpt lat="45.09577" lon="0.71781">
        <ele>198.4</ele>
        <time>2022-05-01T09:47:49Z</time>
      </trkpt>
      <trkpt lat="45.09573" lon="0.71779">
        <ele>198.4</ele>
        <time>2022-05-01T09:47:51Z</time>
      </trkpt>
      <trkpt lat="45.0957" lon="0.71777">
        <ele>198.6</ele>
        <time>2022-05-01T09:47:53Z</time>
      </trkpt>
      <trkpt lat="45.09567" lon="0.71774">
        <ele>198.6</ele>
        <time>2022-05-01T09:47:55Z</time>
      </trkpt>
      <trkpt lat="45.09565" lon="0.71772">
        <ele>198.6</ele>
        <time>2022-05-01T09:47:57Z</time>
      </trkpt>
      <trkpt lat="45.09561" lon="0.71769">
        <ele>198.7</ele>
        <time>2022-05-01T09:47:59Z</time>
      </trkpt>
      <trkpt lat="45.09557" lon="0.71767">
        <ele>198.7</ele>
        <time>2022-05-01T09:48:01Z</time>
      </trkpt>
      <trkpt lat="45.09554" lon="0.71765">
        <ele>198.7</ele>
        <time>2022-05-01T09:48:03Z</time>
      </trkpt>
      <trkpt lat="45.09551" lon="0.71764">
        <ele>198.7</ele>
        <time>2022-05-01T09:48:05Z</time>
      </trkpt>
      <trkpt lat="45.09546" lon="0.71762">
        <ele>198.7</ele>
        <time>2022-05-01T09:48:07Z</time>
      </trkpt>
      <trkpt lat="45.09544" lon="0.71761">
        <ele>198.9</ele>
        <time>2022-05-01T09:48:09Z</time>
      </trkpt>
      <trkpt lat="45.09542" lon="0.71759">
        <ele>198.9</ele>
        <time>2022-05-01T09:48:11Z</time>
      </trkpt>
      <trkpt lat="45.09539" lon="0.71757">
        <ele>198.9</ele>
        <time>2022-05-01T09:48:13Z</time>
      </trkpt>
      <trkpt lat="45.09537" lon="0.71755">
        <ele>198.9</ele>
        <time>2022-05-01T09:48:14Z</time>
      </trkpt>
      <trkpt lat="45.09536" lon="0.71755">
        <ele>198.9</ele>
        <time>2022-05-01T09:48:15Z</time>
      </trkpt>
      <trkpt lat="45.09534" lon="0.71754">
        <ele>199.2</ele>
        <time>2022-05-01T09:48:16Z</time>
      </trkpt>
      <trkpt lat="45.09532" lon="0.71755">
        <ele>199.4</ele>
        <time>2022-05-01T09:48:17Z</time>
      </trkpt>
      <trkpt lat="45.09529" lon="0.71754">
        <ele>199.6</ele>
        <time>2022-05-01T09:48:19Z</time>
      </trkpt>
      <trkpt lat="45.09528" lon="0.71754">
        <ele>199.6</ele>
        <time>2022-05-01T09:48:20Z</time>
      </trkpt>
      <trkpt lat="45.09526" lon="0.71753">
        <ele>199.6</ele>
        <time>2022-05-01T09:48:21Z</time>
      </trkpt>
      <trkpt lat="45.09524" lon="0.71752">
        <ele>199.6</ele>
        <time>2022-05-01T09:48:23Z</time>
      </trkpt>
      <trkpt lat="45.09521" lon="0.7175">
        <ele>200.4</ele>
        <time>2022-05-01T09:48:25Z</time>
      </trkpt>
      <trkpt lat="45.0952" lon="0.7175">
        <ele>200.4</ele>
        <time>2022-05-01T09:48:26Z</time>
      </trkpt>
      <trkpt lat="45.09519" lon="0.71749">
        <ele>200.4</ele>
        <time>2022-05-01T09:48:27Z</time>
      </trkpt>
      <trkpt lat="45.09517" lon="0.71747">
        <ele>200.4</ele>
        <time>2022-05-01T09:48:29Z</time>
      </trkpt>
      <trkpt lat="45.09514" lon="0.71745">
        <ele>200.4</ele>
        <time>2022-05-01T09:48:31Z</time>
      </trkpt>
      <trkpt lat="45.09513" lon="0.71745">
        <ele>200.4</ele>
        <time>2022-05-01T09:48:32Z</time>
      </trkpt>
      <trkpt lat="45.09512" lon="0.71744">
        <ele>200.4</ele>
        <time>2022-05-01T09:48:33Z</time>
      </trkpt>
      <trkpt lat="45.09509" lon="0.71742">
        <ele>201.6</ele>
        <time>2022-05-01T09:48:35Z</time>
      </trkpt>
      <trkpt lat="45.09506" lon="0.71741">
        <ele>201.6</ele>
        <time>2022-05-01T09:48:37Z</time>
      </trkpt>
      <trkpt lat="45.09504" lon="0.7174">
        <ele>201.6</ele>
        <time>2022-05-01T09:48:39Z</time>
      </trkpt>
      <trkpt lat="45.09502" lon="0.71739">
        <ele>201.6</ele>
        <time>2022-05-01T09:48:41Z</time>
      </trkpt>
      <trkpt lat="45.095" lon="0.71738">
        <ele>201.6</ele>
        <time>2022-05-01T09:48:42Z</time>
      </trkpt>
      <trkpt lat="45.09499" lon="0.71737">
        <ele>201.6</ele>
        <time>2022-05-01T09:48:43Z</time>
      </trkpt>
      <trkpt lat="45.09496" lon="0.71735">
        <ele>203.4</ele>
        <time>2022-05-01T09:48:45Z</time>
      </trkpt>
      <trkpt lat="45.09492" lon="0.71734">
        <ele>203.4</ele>
        <time>2022-05-01T09:48:47Z</time>
      </trkpt>
      <trkpt lat="45.09491" lon="0.71733">
        <ele>203.4</ele>
        <time>2022-05-01T09:48:48Z</time>
      </trkpt>
      <trkpt lat="45.0949" lon="0.71731">
        <ele>203.4</ele>
        <time>2022-05-01T09:48:49Z</time>
      </trkpt>
      <trkpt lat="45.09486" lon="0.71729">
        <ele>203.4</ele>
        <time>2022-05-01T09:48:51Z</time>
      </trkpt>
      <trkpt lat="45.09483" lon="0.71726">
        <ele>204.8</ele>
        <time>2022-05-01T09:48:53Z</time>
      </trkpt>
      <trkpt lat="45.09481" lon="0.71725">
        <ele>204.8</ele>
        <time>2022-05-01T09:48:54Z</time>
      </trkpt>
      <trkpt lat="45.09481" lon="0.71725">
        <ele>204.8</ele>
        <time>2022-05-01T09:48:55Z</time>
      </trkpt>
      <trkpt lat="45.09478" lon="0.71723">
        <ele>204.8</ele>
        <time>2022-05-01T09:48:57Z</time>
      </trkpt>
      <trkpt lat="45.09476" lon="0.71721">
        <ele>204.8</ele>
        <time>2022-05-01T09:48:58Z</time>
      </trkpt>
      <trkpt lat="45.09475" lon="0.7172">
        <ele>204.9</ele>
        <time>2022-05-01T09:48:59Z</time>
      </trkpt>
      <trkpt lat="45.09471" lon="0.71717">
        <ele>206.4</ele>
        <time>2022-05-01T09:49:01Z</time>
      </trkpt>
      <trkpt lat="45.09468" lon="0.71716">
        <ele>206.4</ele>
        <time>2022-05-01T09:49:03Z</time>
      </trkpt>
      <trkpt lat="45.09465" lon="0.71714">
        <ele>206.4</ele>
        <time>2022-05-01T09:49:05Z</time>
      </trkpt>
      <trkpt lat="45.09463" lon="0.71713">
        <ele>206.4</ele>
        <time>2022-05-01T09:49:07Z</time>
      </trkpt>
      <trkpt lat="45.09462" lon="0.71712">
        <ele>206.4</ele>
        <time>2022-05-01T09:49:08Z</time>
      </trkpt>
      <trkpt lat="45.09461" lon="0.71711">
        <ele>207.5</ele>
        <time>2022-05-01T09:49:09Z</time>
      </trkpt>
      <trkpt lat="45.0946" lon="0.71709">
        <ele>207.5</ele>
        <time>2022-05-01T09:49:11Z</time>
      </trkpt>
      <trkpt lat="45.09458" lon="0.71705">
        <ele>207.5</ele>
        <time>2022-05-01T09:49:13Z</time>
      </trkpt>
      <trkpt lat="45.09458" lon="0.71704">
        <ele>207.5</ele>
        <time>2022-05-01T09:49:14Z</time>
      </trkpt>
      <trkpt lat="45.09458" lon="0.71702">
        <ele>207.5</ele>
        <time>2022-05-01T09:49:15Z</time>
      </trkpt>
      <trkpt lat="45.09457" lon="0.71698">
        <ele>207.5</ele>
        <time>2022-05-01T09:49:17Z</time>
      </trkpt>
      <trkpt lat="45.09457" lon="0.71696">
        <ele>207.5</ele>
        <time>2022-05-01T09:49:18Z</time>
      </trkpt>
      <trkpt lat="45.09456" lon="0.71695">
        <ele>207.5</ele>
        <time>2022-05-01T09:49:19Z</time>
      </trkpt>
      <trkpt lat="45.09455" lon="0.71691">
        <ele>207.5</ele>
        <time>2022-05-01T09:49:21Z</time>
      </trkpt>
      <trkpt lat="45.09455" lon="0.71689">
        <ele>207.5</ele>
        <time>2022-05-01T09:49:23Z</time>
      </trkpt>
      <trkpt lat="45.09455" lon="0.71689">
        <ele>207.5</ele>
        <time>2022-05-01T09:49:24Z</time>
      </trkpt>
      <trkpt lat="45.09451" lon="0.71684">
        <ele>207.4</ele>
        <time>2022-05-01T09:49:36Z</time>
      </trkpt>
      <trkpt lat="45.09451" lon="0.71683">
        <ele>207.4</ele>
        <time>2022-05-01T09:49:37Z</time>
      </trkpt>
      <trkpt lat="45.09447" lon="0.71679">
        <ele>208.4</ele>
        <time>2022-05-01T09:49:39Z</time>
      </trkpt>
      <trkpt lat="45.09443" lon="0.71674">
        <ele>208.4</ele>
        <time>2022-05-01T09:49:41Z</time>
      </trkpt>
      <trkpt lat="45.09437" lon="0.71667">
        <ele>208.3</ele>
        <time>2022-05-01T09:49:43Z</time>
      </trkpt>
      <trkpt lat="45.0943" lon="0.71659">
        <ele>209.2</ele>
        <time>2022-05-01T09:49:45Z</time>
      </trkpt>
      <trkpt lat="45.09424" lon="0.71653">
        <ele>210.1</ele>
        <time>2022-05-01T09:49:47Z</time>
      </trkpt>
      <trkpt lat="45.09419" lon="0.71648">
        <ele>209.5</ele>
        <time>2022-05-01T09:49:49Z</time>
      </trkpt>
      <trkpt lat="45.09412" lon="0.71644">
        <ele>210.3</ele>
        <time>2022-05-01T09:49:51Z</time>
      </trkpt>
      <trkpt lat="45.09406" lon="0.71638">
        <ele>210.3</ele>
        <time>2022-05-01T09:49:53Z</time>
      </trkpt>
      <trkpt lat="45.09399" lon="0.71633">
        <ele>209.5</ele>
        <time>2022-05-01T09:49:55Z</time>
      </trkpt>
      <trkpt lat="45.09393" lon="0.71628">
        <ele>209.6</ele>
        <time>2022-05-01T09:49:57Z</time>
      </trkpt>
      <trkpt lat="45.09387" lon="0.71622">
        <ele>209.9</ele>
        <time>2022-05-01T09:49:59Z</time>
      </trkpt>
      <trkpt lat="45.0938" lon="0.71617">
        <ele>208.5</ele>
        <time>2022-05-01T09:50:01Z</time>
      </trkpt>
      <trkpt lat="45.09374" lon="0.71614">
        <ele>209</ele>
        <time>2022-05-01T09:50:03Z</time>
      </trkpt>
      <trkpt lat="45.0937" lon="0.71613">
        <ele>209</ele>
        <time>2022-05-01T09:50:04Z</time>
      </trkpt>
      <trkpt lat="45.09367" lon="0.71613">
        <ele>209</ele>
        <time>2022-05-01T09:50:05Z</time>
      </trkpt>
      <trkpt lat="45.09361" lon="0.71611">
        <ele>209.5</ele>
        <time>2022-05-01T09:50:07Z</time>
      </trkpt>
      <trkpt lat="45.09355" lon="0.71608">
        <ele>209.5</ele>
        <time>2022-05-01T09:50:09Z</time>
      </trkpt>
      <trkpt lat="45.09349" lon="0.71605">
        <ele>210</ele>
        <time>2022-05-01T09:50:11Z</time>
      </trkpt>
      <trkpt lat="45.09343" lon="0.71603">
        <ele>210</ele>
        <time>2022-05-01T09:50:13Z</time>
      </trkpt>
      <trkpt lat="45.0934" lon="0.71602">
        <ele>210.4</ele>
        <time>2022-05-01T09:50:14Z</time>
      </trkpt>
      <trkpt lat="45.09337" lon="0.71602">
        <ele>210.4</ele>
        <time>2022-05-01T09:50:15Z</time>
      </trkpt>
      <trkpt lat="45.09331" lon="0.71598">
        <ele>209.3</ele>
        <time>2022-05-01T09:50:17Z</time>
      </trkpt>
      <trkpt lat="45.09325" lon="0.71593">
        <ele>209.8</ele>
        <time>2022-05-01T09:50:19Z</time>
      </trkpt>
      <trkpt lat="45.09318" lon="0.71586">
        <ele>209.8</ele>
        <time>2022-05-01T09:50:21Z</time>
      </trkpt>
      <trkpt lat="45.09308" lon="0.71581">
        <ele>209</ele>
        <time>2022-05-01T09:50:23Z</time>
      </trkpt>
      <trkpt lat="45.09302" lon="0.71576">
        <ele>209.2</ele>
        <time>2022-05-01T09:50:25Z</time>
      </trkpt>
      <trkpt lat="45.09299" lon="0.71574">
        <ele>209.2</ele>
        <time>2022-05-01T09:50:26Z</time>
      </trkpt>
      <trkpt lat="45.09294" lon="0.71574">
        <ele>209.2</ele>
        <time>2022-05-01T09:50:27Z</time>
      </trkpt>
      <trkpt lat="45.09284" lon="0.71575">
        <ele>209.3</ele>
        <time>2022-05-01T09:50:29Z</time>
      </trkpt>
      <trkpt lat="45.09273" lon="0.71577">
        <ele>209.3</ele>
        <time>2022-05-01T09:50:31Z</time>
      </trkpt>
      <trkpt lat="45.09268" lon="0.7158">
        <ele>209.3</ele>
        <time>2022-05-01T09:50:32Z</time>
      </trkpt>
      <trkpt lat="45.09262" lon="0.71583">
        <ele>210.2</ele>
        <time>2022-05-01T09:50:33Z</time>
      </trkpt>
      <trkpt lat="45.09253" lon="0.71587">
        <ele>210.3</ele>
        <time>2022-05-01T09:50:35Z</time>
      </trkpt>
      <trkpt lat="45.09245" lon="0.7159">
        <ele>210.3</ele>
        <time>2022-05-01T09:50:37Z</time>
      </trkpt>
      <trkpt lat="45.09241" lon="0.71592">
        <ele>210.3</ele>
        <time>2022-05-01T09:50:38Z</time>
      </trkpt>
      <trkpt lat="45.09238" lon="0.71593">
        <ele>210.3</ele>
        <time>2022-05-01T09:50:39Z</time>
      </trkpt>
      <trkpt lat="45.0923" lon="0.71597">
        <ele>210.4</ele>
        <time>2022-05-01T09:50:41Z</time>
      </trkpt>
      <trkpt lat="45.09223" lon="0.716">
        <ele>211.3</ele>
        <time>2022-05-01T09:50:43Z</time>
      </trkpt>
      <trkpt lat="45.09217" lon="0.71603">
        <ele>211.4</ele>
        <time>2022-05-01T09:50:45Z</time>
      </trkpt>
      <trkpt lat="45.09214" lon="0.71605">
        <ele>211.4</ele>
        <time>2022-05-01T09:50:46Z</time>
      </trkpt>
      <trkpt lat="45.09211" lon="0.71607">
        <ele>211.4</ele>
        <time>2022-05-01T09:50:47Z</time>
      </trkpt>
      <trkpt lat="45.09206" lon="0.7161">
        <ele>211.3</ele>
        <time>2022-05-01T09:50:49Z</time>
      </trkpt>
      <trkpt lat="45.092" lon="0.71614">
        <ele>211.3</ele>
        <time>2022-05-01T09:50:51Z</time>
      </trkpt>
      <trkpt lat="45.09194" lon="0.71618">
        <ele>212.2</ele>
        <time>2022-05-01T09:50:53Z</time>
      </trkpt>
      <trkpt lat="45.09189" lon="0.7162">
        <ele>212.2</ele>
        <time>2022-05-01T09:50:55Z</time>
      </trkpt>
      <trkpt lat="45.09185" lon="0.71623">
        <ele>212.2</ele>
        <time>2022-05-01T09:50:57Z</time>
      </trkpt>
      <trkpt lat="45.09179" lon="0.71627">
        <ele>212.2</ele>
        <time>2022-05-01T09:50:59Z</time>
      </trkpt>
      <trkpt lat="45.09174" lon="0.7163">
        <ele>212.2</ele>
        <time>2022-05-01T09:51:01Z</time>
      </trkpt>
      <trkpt lat="45.09171" lon="0.71632">
        <ele>212.3</ele>
        <time>2022-05-01T09:51:02Z</time>
      </trkpt>
      <trkpt lat="45.09169" lon="0.71634">
        <ele>212.6</ele>
        <time>2022-05-01T09:51:03Z</time>
      </trkpt>
      <trkpt lat="45.09163" lon="0.71637">
        <ele>213.3</ele>
        <time>2022-05-01T09:51:05Z</time>
      </trkpt>
      <trkpt lat="45.09158" lon="0.71641">
        <ele>213.3</ele>
        <time>2022-05-01T09:51:07Z</time>
      </trkpt>
      <trkpt lat="45.09156" lon="0.71643">
        <ele>213.6</ele>
        <time>2022-05-01T09:51:08Z</time>
      </trkpt>
      <trkpt lat="45.09153" lon="0.71645">
        <ele>213.6</ele>
        <time>2022-05-01T09:51:09Z</time>
      </trkpt>
      <trkpt lat="45.09149" lon="0.71651">
        <ele>213.6</ele>
        <time>2022-05-01T09:51:11Z</time>
      </trkpt>
      <trkpt lat="45.09145" lon="0.71655">
        <ele>214.6</ele>
        <time>2022-05-01T09:51:13Z</time>
      </trkpt>
      <trkpt lat="45.0914" lon="0.7166">
        <ele>214.6</ele>
        <time>2022-05-01T09:51:15Z</time>
      </trkpt>
      <trkpt lat="45.09135" lon="0.71664">
        <ele>214.6</ele>
        <time>2022-05-01T09:51:17Z</time>
      </trkpt>
      <trkpt lat="45.09131" lon="0.71669">
        <ele>215.6</ele>
        <time>2022-05-01T09:51:19Z</time>
      </trkpt>
      <trkpt lat="45.09128" lon="0.71672">
        <ele>215.6</ele>
        <time>2022-05-01T09:51:20Z</time>
      </trkpt>
      <trkpt lat="45.09126" lon="0.71675">
        <ele>215.6</ele>
        <time>2022-05-01T09:51:21Z</time>
      </trkpt>
      <trkpt lat="45.09122" lon="0.7168">
        <ele>215.6</ele>
        <time>2022-05-01T09:51:23Z</time>
      </trkpt>
      <trkpt lat="45.09118" lon="0.71686">
        <ele>216.6</ele>
        <time>2022-05-01T09:51:25Z</time>
      </trkpt>
      <trkpt lat="45.09117" lon="0.71691">
        <ele>216.6</ele>
        <time>2022-05-01T09:51:27Z</time>
      </trkpt>
      <trkpt lat="45.09114" lon="0.71697">
        <ele>216.6</ele>
        <time>2022-05-01T09:51:29Z</time>
      </trkpt>
      <trkpt lat="45.09111" lon="0.71702">
        <ele>216.6</ele>
        <time>2022-05-01T09:51:31Z</time>
      </trkpt>
      <trkpt lat="45.09108" lon="0.71707">
        <ele>217.6</ele>
        <time>2022-05-01T09:51:33Z</time>
      </trkpt>
      <trkpt lat="45.09105" lon="0.71711">
        <ele>217.6</ele>
        <time>2022-05-01T09:51:35Z</time>
      </trkpt>
      <trkpt lat="45.09101" lon="0.71716">
        <ele>217.6</ele>
        <time>2022-05-01T09:51:37Z</time>
      </trkpt>
      <trkpt lat="45.09098" lon="0.71721">
        <ele>218.2</ele>
        <time>2022-05-01T09:51:39Z</time>
      </trkpt>
      <trkpt lat="45.09095" lon="0.71725">
        <ele>218.5</ele>
        <time>2022-05-01T09:51:41Z</time>
      </trkpt>
      <trkpt lat="45.09092" lon="0.7173">
        <ele>218.5</ele>
        <time>2022-05-01T09:51:43Z</time>
      </trkpt>
      <trkpt lat="45.0909" lon="0.71732">
        <ele>218.5</ele>
        <time>2022-05-01T09:51:44Z</time>
      </trkpt>
      <trkpt lat="45.09089" lon="0.71734">
        <ele>218.5</ele>
        <time>2022-05-01T09:51:45Z</time>
      </trkpt>
      <trkpt lat="45.09087" lon="0.71737">
        <ele>218.5</ele>
        <time>2022-05-01T09:51:46Z</time>
      </trkpt>
      <trkpt lat="45.09085" lon="0.71739">
        <ele>219</ele>
        <time>2022-05-01T09:51:47Z</time>
      </trkpt>
      <trkpt lat="45.09081" lon="0.71743">
        <ele>219</ele>
        <time>2022-05-01T09:51:49Z</time>
      </trkpt>
      <trkpt lat="45.09078" lon="0.71747">
        <ele>219</ele>
        <time>2022-05-01T09:51:51Z</time>
      </trkpt>
      <trkpt lat="45.09075" lon="0.7175">
        <ele>219</ele>
        <time>2022-05-01T09:51:53Z</time>
      </trkpt>
      <trkpt lat="45.09073" lon="0.71752">
        <ele>219.2</ele>
        <time>2022-05-01T09:51:54Z</time>
      </trkpt>
      <trkpt lat="45.09071" lon="0.71754">
        <ele>219.2</ele>
        <time>2022-05-01T09:51:55Z</time>
      </trkpt>
      <trkpt lat="45.09067" lon="0.71756">
        <ele>219.4</ele>
        <time>2022-05-01T09:51:57Z</time>
      </trkpt>
      <trkpt lat="45.09063" lon="0.71758">
        <ele>219.4</ele>
        <time>2022-05-01T09:51:59Z</time>
      </trkpt>
      <trkpt lat="45.0906" lon="0.71759">
        <ele>219.7</ele>
        <time>2022-05-01T09:52:00Z</time>
      </trkpt>
      <trkpt lat="45.09058" lon="0.7176">
        <ele>219.7</ele>
        <time>2022-05-01T09:52:01Z</time>
      </trkpt>
      <trkpt lat="45.09053" lon="0.71762">
        <ele>219.7</ele>
        <time>2022-05-01T09:52:03Z</time>
      </trkpt>
      <trkpt lat="45.09049" lon="0.71764">
        <ele>219.7</ele>
        <time>2022-05-01T09:52:05Z</time>
      </trkpt>
      <trkpt lat="45.09045" lon="0.71766">
        <ele>220.2</ele>
        <time>2022-05-01T09:52:07Z</time>
      </trkpt>
      <trkpt lat="45.09043" lon="0.71767">
        <ele>220.2</ele>
        <time>2022-05-01T09:52:08Z</time>
      </trkpt>
      <trkpt lat="45.0904" lon="0.71768">
        <ele>220.2</ele>
        <time>2022-05-01T09:52:09Z</time>
      </trkpt>
      <trkpt lat="45.09035" lon="0.7177">
        <ele>220.7</ele>
        <time>2022-05-01T09:52:11Z</time>
      </trkpt>
      <trkpt lat="45.09031" lon="0.71772">
        <ele>220.7</ele>
        <time>2022-05-01T09:52:13Z</time>
      </trkpt>
      <trkpt lat="45.09028" lon="0.71772">
        <ele>220.7</ele>
        <time>2022-05-01T09:52:15Z</time>
      </trkpt>
      <trkpt lat="45.09023" lon="0.71772">
        <ele>221.3</ele>
        <time>2022-05-01T09:52:17Z</time>
      </trkpt>
      <trkpt lat="45.09018" lon="0.71773">
        <ele>221.3</ele>
        <time>2022-05-01T09:52:19Z</time>
      </trkpt>
      <trkpt lat="45.09013" lon="0.71774">
        <ele>221.3</ele>
        <time>2022-05-01T09:52:21Z</time>
      </trkpt>
      <trkpt lat="45.09007" lon="0.71774">
        <ele>222</ele>
        <time>2022-05-01T09:52:23Z</time>
      </trkpt>
      <trkpt lat="45.09002" lon="0.71775">
        <ele>222</ele>
        <time>2022-05-01T09:52:25Z</time>
      </trkpt>
      <trkpt lat="45.08997" lon="0.71775">
        <ele>222.9</ele>
        <time>2022-05-01T09:52:27Z</time>
      </trkpt>
      <trkpt lat="45.08992" lon="0.71776">
        <ele>222.9</ele>
        <time>2022-05-01T09:52:29Z</time>
      </trkpt>
      <trkpt lat="45.08987" lon="0.71778">
        <ele>224</ele>
        <time>2022-05-01T09:52:31Z</time>
      </trkpt>
      <trkpt lat="45.08985" lon="0.71777">
        <ele>224</ele>
        <time>2022-05-01T09:52:32Z</time>
      </trkpt>
      <trkpt lat="45.08983" lon="0.71778">
        <ele>224</ele>
        <time>2022-05-01T09:52:33Z</time>
      </trkpt>
      <trkpt lat="45.08979" lon="0.71779">
        <ele>224</ele>
        <time>2022-05-01T09:52:35Z</time>
      </trkpt>
      <trkpt lat="45.08978" lon="0.7178">
        <ele>224</ele>
        <time>2022-05-01T09:52:36Z</time>
      </trkpt>
      <trkpt lat="45.08975" lon="0.71781">
        <ele>225.4</ele>
        <time>2022-05-01T09:52:37Z</time>
      </trkpt>
      <trkpt lat="45.08973" lon="0.71781">
        <ele>225.4</ele>
        <time>2022-05-01T09:52:38Z</time>
      </trkpt>
      <trkpt lat="45.08971" lon="0.71781">
        <ele>225.4</ele>
        <time>2022-05-01T09:52:39Z</time>
      </trkpt>
      <trkpt lat="45.08967" lon="0.71781">
        <ele>225.4</ele>
        <time>2022-05-01T09:52:41Z</time>
      </trkpt>
      <trkpt lat="45.08962" lon="0.71782">
        <ele>226.8</ele>
        <time>2022-05-01T09:52:43Z</time>
      </trkpt>
      <trkpt lat="45.08958" lon="0.71783">
        <ele>226.8</ele>
        <time>2022-05-01T09:52:45Z</time>
      </trkpt>
      <trkpt lat="45.08953" lon="0.71784">
        <ele>226.8</ele>
        <time>2022-05-01T09:52:47Z</time>
      </trkpt>
      <trkpt lat="45.08949" lon="0.71786">
        <ele>228.2</ele>
        <time>2022-05-01T09:52:49Z</time>
      </trkpt>
      <trkpt lat="45.08945" lon="0.71787">
        <ele>228.2</ele>
        <time>2022-05-01T09:52:51Z</time>
      </trkpt>
      <trkpt lat="45.08942" lon="0.71787">
        <ele>228.2</ele>
        <time>2022-05-01T09:52:53Z</time>
      </trkpt>
      <trkpt lat="45.08941" lon="0.71786">
        <ele>228.2</ele>
        <time>2022-05-01T09:52:54Z</time>
      </trkpt>
      <trkpt lat="45.0894" lon="0.71785">
        <ele>229.5</ele>
        <time>2022-05-01T09:52:55Z</time>
      </trkpt>
      <trkpt lat="45.08936" lon="0.71785">
        <ele>229.5</ele>
        <time>2022-05-01T09:52:57Z</time>
      </trkpt>
      <trkpt lat="45.08934" lon="0.71786">
        <ele>229.5</ele>
        <time>2022-05-01T09:52:58Z</time>
      </trkpt>
      <trkpt lat="45.08932" lon="0.71786">
        <ele>229.5</ele>
        <time>2022-05-01T09:52:59Z</time>
      </trkpt>
      <trkpt lat="45.08928" lon="0.71787">
        <ele>230.6</ele>
        <time>2022-05-01T09:53:01Z</time>
      </trkpt>
      <trkpt lat="45.08923" lon="0.71788">
        <ele>230.6</ele>
        <time>2022-05-01T09:53:03Z</time>
      </trkpt>
      <trkpt lat="45.08921" lon="0.71789">
        <ele>230</ele>
        <time>2022-05-01T09:53:04Z</time>
      </trkpt>
      <trkpt lat="45.08919" lon="0.7179">
        <ele>230</ele>
        <time>2022-05-01T09:53:05Z</time>
      </trkpt>
      <trkpt lat="45.08914" lon="0.71792">
        <ele>231.2</ele>
        <time>2022-05-01T09:53:07Z</time>
      </trkpt>
      <trkpt lat="45.0891" lon="0.71793">
        <ele>231.2</ele>
        <time>2022-05-01T09:53:09Z</time>
      </trkpt>
      <trkpt lat="45.08908" lon="0.71793">
        <ele>231.2</ele>
        <time>2022-05-01T09:53:10Z</time>
      </trkpt>
      <trkpt lat="45.08907" lon="0.71793">
        <ele>231.2</ele>
        <time>2022-05-01T09:53:11Z</time>
      </trkpt>
      <trkpt lat="45.08904" lon="0.71795">
        <ele>231.2</ele>
        <time>2022-05-01T09:53:13Z</time>
      </trkpt>
      <trkpt lat="45.08901" lon="0.71795">
        <ele>231.9</ele>
        <time>2022-05-01T09:53:15Z</time>
      </trkpt>
      <trkpt lat="45.08897" lon="0.71797">
        <ele>231.9</ele>
        <time>2022-05-01T09:53:17Z</time>
      </trkpt>
      <trkpt lat="45.08892" lon="0.71799">
        <ele>231.9</ele>
        <time>2022-05-01T09:53:19Z</time>
      </trkpt>
      <trkpt lat="45.08889" lon="0.718">
        <ele>232.3</ele>
        <time>2022-05-01T09:53:20Z</time>
      </trkpt>
      <trkpt lat="45.08886" lon="0.71801">
        <ele>232.3</ele>
        <time>2022-05-01T09:53:21Z</time>
      </trkpt>
      <trkpt lat="45.08881" lon="0.71804">
        <ele>232.3</ele>
        <time>2022-05-01T09:53:23Z</time>
      </trkpt>
      <trkpt lat="45.08876" lon="0.71808">
        <ele>232.1</ele>
        <time>2022-05-01T09:53:25Z</time>
      </trkpt>
      <trkpt lat="45.08874" lon="0.71809">
        <ele>232.1</ele>
        <time>2022-05-01T09:53:26Z</time>
      </trkpt>
      <trkpt lat="45.08872" lon="0.7181">
        <ele>232.1</ele>
        <time>2022-05-01T09:53:27Z</time>
      </trkpt>
      <trkpt lat="45.08866" lon="0.71812">
        <ele>232.4</ele>
        <time>2022-05-01T09:53:29Z</time>
      </trkpt>
      <trkpt lat="45.0886" lon="0.71819">
        <ele>232.4</ele>
        <time>2022-05-01T09:53:31Z</time>
      </trkpt>
      <trkpt lat="45.0886" lon="0.71819">
        <ele>232.4</ele>
        <time>2022-05-01T09:53:32Z</time>
      </trkpt>
      <trkpt lat="45.08859" lon="0.71819">
        <ele>232.4</ele>
        <time>2022-05-01T09:53:33Z</time>
      </trkpt>
      <trkpt lat="45.08854" lon="0.71821">
        <ele>232.6</ele>
        <time>2022-05-01T09:53:35Z</time>
      </trkpt>
      <trkpt lat="45.08849" lon="0.71823">
        <ele>232.7</ele>
        <time>2022-05-01T09:53:37Z</time>
      </trkpt>
      <trkpt lat="45.08844" lon="0.71825">
        <ele>232.8</ele>
        <time>2022-05-01T09:53:39Z</time>
      </trkpt>
      <trkpt lat="45.08839" lon="0.71827">
        <ele>232.9</ele>
        <time>2022-05-01T09:53:41Z</time>
      </trkpt>
      <trkpt lat="45.08834" lon="0.71829">
        <ele>233.1</ele>
        <time>2022-05-01T09:53:43Z</time>
      </trkpt>
      <trkpt lat="45.08829" lon="0.71831">
        <ele>233.2</ele>
        <time>2022-05-01T09:53:45Z</time>
      </trkpt>
      <trkpt lat="45.08824" lon="0.71833">
        <ele>233.3</ele>
        <time>2022-05-01T09:53:47Z</time>
      </trkpt>
      <trkpt lat="45.08819" lon="0.71835">
        <ele>233.4</ele>
        <time>2022-05-01T09:53:49Z</time>
      </trkpt>
      <trkpt lat="45.08816" lon="0.71836">
        <ele>233.5</ele>
        <time>2022-05-01T09:53:50Z</time>
      </trkpt>
      <trkpt lat="45.08813" lon="0.71837">
        <ele>233.5</ele>
        <time>2022-05-01T09:53:51Z</time>
      </trkpt>
      <trkpt lat="45.08807" lon="0.71839">
        <ele>233.5</ele>
        <time>2022-05-01T09:53:53Z</time>
      </trkpt>
      <trkpt lat="45.08799" lon="0.71842">
        <ele>233.4</ele>
        <time>2022-05-01T09:53:55Z</time>
      </trkpt>
      <trkpt lat="45.08792" lon="0.71842">
        <ele>233.1</ele>
        <time>2022-05-01T09:53:57Z</time>
      </trkpt>
      <trkpt lat="45.08786" lon="0.71842">
        <ele>232.7</ele>
        <time>2022-05-01T09:53:59Z</time>
      </trkpt>
      <trkpt lat="45.08781" lon="0.71841">
        <ele>232.4</ele>
        <time>2022-05-01T09:54:01Z</time>
      </trkpt>
      <trkpt lat="45.08781" lon="0.71841">
        <ele>232.4</ele>
        <time>2022-05-01T09:54:02Z</time>
      </trkpt>
      <trkpt lat="45.08781" lon="0.71841">
        <ele>232.4</ele>
        <time>2022-05-01T09:54:03Z</time>
      </trkpt>
      <trkpt lat="45.08776" lon="0.71839">
        <ele>232</ele>
        <time>2022-05-01T09:54:24Z</time>
      </trkpt>
      <trkpt lat="45.08775" lon="0.71838">
        <ele>231.9</ele>
        <time>2022-05-01T09:54:25Z</time>
      </trkpt>
      <trkpt lat="45.0877" lon="0.71837">
        <ele>231.5</ele>
        <time>2022-05-01T09:54:27Z</time>
      </trkpt>
      <trkpt lat="45.08767" lon="0.71836">
        <ele>231.2</ele>
        <time>2022-05-01T09:54:28Z</time>
      </trkpt>
      <trkpt lat="45.08764" lon="0.71835">
        <ele>230.9</ele>
        <time>2022-05-01T09:54:29Z</time>
      </trkpt>
      <trkpt lat="45.08756" lon="0.71833">
        <ele>230.1</ele>
        <time>2022-05-01T09:54:31Z</time>
      </trkpt>
      <trkpt lat="45.08749" lon="0.7183">
        <ele>229.3</ele>
        <time>2022-05-01T09:54:33Z</time>
      </trkpt>
      <trkpt lat="45.08745" lon="0.71829">
        <ele>228.9</ele>
        <time>2022-05-01T09:54:34Z</time>
      </trkpt>
      <trkpt lat="45.08741" lon="0.71828">
        <ele>228.5</ele>
        <time>2022-05-01T09:54:35Z</time>
      </trkpt>
      <trkpt lat="45.08734" lon="0.71826">
        <ele>227.7</ele>
        <time>2022-05-01T09:54:37Z</time>
      </trkpt>
      <trkpt lat="45.08727" lon="0.71824">
        <ele>227</ele>
        <time>2022-05-01T09:54:39Z</time>
      </trkpt>
      <trkpt lat="45.0872" lon="0.71823">
        <ele>226.1</ele>
        <time>2022-05-01T09:54:41Z</time>
      </trkpt>
      <trkpt lat="45.08715" lon="0.71823">
        <ele>225.6</ele>
        <time>2022-05-01T09:54:42Z</time>
      </trkpt>
      <trkpt lat="45.08711" lon="0.71824">
        <ele>225</ele>
        <time>2022-05-01T09:54:43Z</time>
      </trkpt>
      <trkpt lat="45.08705" lon="0.71825">
        <ele>224.1</ele>
        <time>2022-05-01T09:54:45Z</time>
      </trkpt>
      <trkpt lat="45.08698" lon="0.71826">
        <ele>223</ele>
        <time>2022-05-01T09:54:47Z</time>
      </trkpt>
      <trkpt lat="45.08688" lon="0.7183">
        <ele>221.5</ele>
        <time>2022-05-01T09:54:49Z</time>
      </trkpt>
      <trkpt lat="45.08684" lon="0.71831">
        <ele>220.8</ele>
        <time>2022-05-01T09:54:50Z</time>
      </trkpt>
      <trkpt lat="45.08679" lon="0.71833">
        <ele>220.1</ele>
        <time>2022-05-01T09:54:51Z</time>
      </trkpt>
      <trkpt lat="45.08671" lon="0.71835">
        <ele>218.6</ele>
        <time>2022-05-01T09:54:53Z</time>
      </trkpt>
      <trkpt lat="45.08662" lon="0.71838">
        <ele>217.1</ele>
        <time>2022-05-01T09:54:55Z</time>
      </trkpt>
      <trkpt lat="45.08658" lon="0.7184">
        <ele>216.4</ele>
        <time>2022-05-01T09:54:56Z</time>
      </trkpt>
      <trkpt lat="45.08654" lon="0.71841">
        <ele>215.7</ele>
        <time>2022-05-01T09:54:57Z</time>
      </trkpt>
      <trkpt lat="45.08645" lon="0.71844">
        <ele>214.3</ele>
        <time>2022-05-01T09:54:59Z</time>
      </trkpt>
      <trkpt lat="45.08635" lon="0.71845">
        <ele>212.7</ele>
        <time>2022-05-01T09:55:01Z</time>
      </trkpt>
      <trkpt lat="45.0863" lon="0.71846">
        <ele>211.7</ele>
        <time>2022-05-01T09:55:02Z</time>
      </trkpt>
      <trkpt lat="45.08624" lon="0.71847">
        <ele>210.6</ele>
        <time>2022-05-01T09:55:03Z</time>
      </trkpt>
      <trkpt lat="45.08608" lon="0.71845">
        <ele>207.9</ele>
        <time>2022-05-01T09:55:05Z</time>
      </trkpt>
      <trkpt lat="45.08593" lon="0.71841">
        <ele>205.2</ele>
        <time>2022-05-01T09:55:07Z</time>
      </trkpt>
      <trkpt lat="45.08574" lon="0.71836">
        <ele>202.7</ele>
        <time>2022-05-01T09:55:09Z</time>
      </trkpt>
      <trkpt lat="45.08556" lon="0.71829">
        <ele>200.8</ele>
        <time>2022-05-01T09:55:11Z</time>
      </trkpt>
      <trkpt lat="45.08541" lon="0.71824">
        <ele>199.4</ele>
        <time>2022-05-01T09:55:13Z</time>
      </trkpt>
      <trkpt lat="45.08536" lon="0.71822">
        <ele>198.9</ele>
        <time>2022-05-01T09:55:14Z</time>
      </trkpt>
      <trkpt lat="45.08531" lon="0.71821">
        <ele>198.4</ele>
        <time>2022-05-01T09:55:15Z</time>
      </trkpt>
      <trkpt lat="45.08527" lon="0.71822">
        <ele>198.3</ele>
        <time>2022-05-01T09:55:16Z</time>
      </trkpt>
      <trkpt lat="45.08523" lon="0.71828">
        <ele>198.1</ele>
        <time>2022-05-01T09:55:17Z</time>
      </trkpt>
      <trkpt lat="45.08521" lon="0.71834">
        <ele>197.9</ele>
        <time>2022-05-01T09:55:18Z</time>
      </trkpt>
      <trkpt lat="45.0852" lon="0.71841">
        <ele>197.8</ele>
        <time>2022-05-01T09:55:19Z</time>
      </trkpt>
      <trkpt lat="45.08518" lon="0.71847">
        <ele>197.7</ele>
        <time>2022-05-01T09:55:20Z</time>
      </trkpt>
      <trkpt lat="45.08517" lon="0.71854">
        <ele>197.7</ele>
        <time>2022-05-01T09:55:21Z</time>
      </trkpt>
      <trkpt lat="45.08514" lon="0.71867">
        <ele>197.7</ele>
        <time>2022-05-01T09:55:23Z</time>
      </trkpt>
      <trkpt lat="45.08512" lon="0.7188">
        <ele>197.7</ele>
        <time>2022-05-01T09:55:25Z</time>
      </trkpt>
      <trkpt lat="45.0851" lon="0.71891">
        <ele>197.9</ele>
        <time>2022-05-01T09:55:27Z</time>
      </trkpt>
      <trkpt lat="45.08507" lon="0.71901">
        <ele>198.1</ele>
        <time>2022-05-01T09:55:29Z</time>
      </trkpt>
      <trkpt lat="45.08505" lon="0.71906">
        <ele>198.2</ele>
        <time>2022-05-01T09:55:30Z</time>
      </trkpt>
      <trkpt lat="45.08503" lon="0.71909">
        <ele>198.3</ele>
        <time>2022-05-01T09:55:31Z</time>
      </trkpt>
      <trkpt lat="45.08499" lon="0.71917">
        <ele>198.5</ele>
        <time>2022-05-01T09:55:33Z</time>
      </trkpt>
      <trkpt lat="45.08496" lon="0.71923">
        <ele>198.7</ele>
        <time>2022-05-01T09:55:35Z</time>
      </trkpt>
      <trkpt lat="45.08493" lon="0.71929">
        <ele>198.9</ele>
        <time>2022-05-01T09:55:37Z</time>
      </trkpt>
      <trkpt lat="45.08489" lon="0.71938">
        <ele>199.3</ele>
        <time>2022-05-01T09:55:39Z</time>
      </trkpt>
      <trkpt lat="45.08487" lon="0.71943">
        <ele>199.7</ele>
        <time>2022-05-01T09:55:40Z</time>
      </trkpt>
      <trkpt lat="45.08486" lon="0.71948">
        <ele>200</ele>
        <time>2022-05-01T09:55:41Z</time>
      </trkpt>
      <trkpt lat="45.08485" lon="0.71958">
        <ele>200.6</ele>
        <time>2022-05-01T09:55:43Z</time>
      </trkpt>
      <trkpt lat="45.08483" lon="0.71968">
        <ele>201.3</ele>
        <time>2022-05-01T09:55:45Z</time>
      </trkpt>
      <trkpt lat="45.08482" lon="0.71978">
        <ele>202</ele>
        <time>2022-05-01T09:55:47Z</time>
      </trkpt>
      <trkpt lat="45.0848" lon="0.71988">
        <ele>202.8</ele>
        <time>2022-05-01T09:55:49Z</time>
      </trkpt>
      <trkpt lat="45.08479" lon="0.71992">
        <ele>203.2</ele>
        <time>2022-05-01T09:55:50Z</time>
      </trkpt>
      <trkpt lat="45.08478" lon="0.71997">
        <ele>203.5</ele>
        <time>2022-05-01T09:55:51Z</time>
      </trkpt>
      <trkpt lat="45.08476" lon="0.72005">
        <ele>204.3</ele>
        <time>2022-05-01T09:55:53Z</time>
      </trkpt>
      <trkpt lat="45.08473" lon="0.72014">
        <ele>205.1</ele>
        <time>2022-05-01T09:55:55Z</time>
      </trkpt>
      <trkpt lat="45.08471" lon="0.7202">
        <ele>205.5</ele>
        <time>2022-05-01T09:55:57Z</time>
      </trkpt>
      <trkpt lat="45.0847" lon="0.72022">
        <ele>205.8</ele>
        <time>2022-05-01T09:55:59Z</time>
      </trkpt>
      <trkpt lat="45.08467" lon="0.72027">
        <ele>206.2</ele>
        <time>2022-05-01T09:56:01Z</time>
      </trkpt>
      <trkpt lat="45.08465" lon="0.72031">
        <ele>206.6</ele>
        <time>2022-05-01T09:56:02Z</time>
      </trkpt>
      <trkpt lat="45.08463" lon="0.72035">
        <ele>206.9</ele>
        <time>2022-05-01T09:56:03Z</time>
      </trkpt>
      <trkpt lat="45.08459" lon="0.72043">
        <ele>207.4</ele>
        <time>2022-05-01T09:56:05Z</time>
      </trkpt>
      <trkpt lat="45.08454" lon="0.72051">
        <ele>207.4</ele>
        <time>2022-05-01T09:56:07Z</time>
      </trkpt>
      <trkpt lat="45.08449" lon="0.7206">
        <ele>207.3</ele>
        <time>2022-05-01T09:56:09Z</time>
      </trkpt>
      <trkpt lat="45.08444" lon="0.72069">
        <ele>207.3</ele>
        <time>2022-05-01T09:56:11Z</time>
      </trkpt>
      <trkpt lat="45.0844" lon="0.72078">
        <ele>207.2</ele>
        <time>2022-05-01T09:56:13Z</time>
      </trkpt>
      <trkpt lat="45.08436" lon="0.72087">
        <ele>207.2</ele>
        <time>2022-05-01T09:56:15Z</time>
      </trkpt>
      <trkpt lat="45.08432" lon="0.72097">
        <ele>207.2</ele>
        <time>2022-05-01T09:56:17Z</time>
      </trkpt>
      <trkpt lat="45.08428" lon="0.72107">
        <ele>207.1</ele>
        <time>2022-05-01T09:56:19Z</time>
      </trkpt>
      <trkpt lat="45.08425" lon="0.72117">
        <ele>207.1</ele>
        <time>2022-05-01T09:56:21Z</time>
      </trkpt>
      <trkpt lat="45.08422" lon="0.72126">
        <ele>207</ele>
        <time>2022-05-01T09:56:23Z</time>
      </trkpt>
      <trkpt lat="45.08418" lon="0.72136">
        <ele>207</ele>
        <time>2022-05-01T09:56:25Z</time>
      </trkpt>
      <trkpt lat="45.08415" lon="0.72145">
        <ele>206.9</ele>
        <time>2022-05-01T09:56:27Z</time>
      </trkpt>
      <trkpt lat="45.08412" lon="0.72155">
        <ele>206.9</ele>
        <time>2022-05-01T09:56:29Z</time>
      </trkpt>
      <trkpt lat="45.08408" lon="0.72165">
        <ele>206.8</ele>
        <time>2022-05-01T09:56:31Z</time>
      </trkpt>
      <trkpt lat="45.08405" lon="0.72175">
        <ele>206.8</ele>
        <time>2022-05-01T09:56:33Z</time>
      </trkpt>
      <trkpt lat="45.08401" lon="0.72185">
        <ele>206.7</ele>
        <time>2022-05-01T09:56:35Z</time>
      </trkpt>
      <trkpt lat="45.08398" lon="0.72195">
        <ele>206.8</ele>
        <time>2022-05-01T09:56:37Z</time>
      </trkpt>
      <trkpt lat="45.08395" lon="0.72205">
        <ele>206.8</ele>
        <time>2022-05-01T09:56:39Z</time>
      </trkpt>
      <trkpt lat="45.08391" lon="0.72214">
        <ele>207</ele>
        <time>2022-05-01T09:56:41Z</time>
      </trkpt>
      <trkpt lat="45.08387" lon="0.72223">
        <ele>207.2</ele>
        <time>2022-05-01T09:56:43Z</time>
      </trkpt>
      <trkpt lat="45.08383" lon="0.72232">
        <ele>207.4</ele>
        <time>2022-05-01T09:56:45Z</time>
      </trkpt>
      <trkpt lat="45.08377" lon="0.72238">
        <ele>207.5</ele>
        <time>2022-05-01T09:56:47Z</time>
      </trkpt>
      <trkpt lat="45.0837" lon="0.72243">
        <ele>207.6</ele>
        <time>2022-05-01T09:56:49Z</time>
      </trkpt>
      <trkpt lat="45.08364" lon="0.72249">
        <ele>207.5</ele>
        <time>2022-05-01T09:56:51Z</time>
      </trkpt>
      <trkpt lat="45.08358" lon="0.72255">
        <ele>207.4</ele>
        <time>2022-05-01T09:56:53Z</time>
      </trkpt>
      <trkpt lat="45.08355" lon="0.72258">
        <ele>207.4</ele>
        <time>2022-05-01T09:56:54Z</time>
      </trkpt>
      <trkpt lat="45.08351" lon="0.72261">
        <ele>207.3</ele>
        <time>2022-05-01T09:56:55Z</time>
      </trkpt>
      <trkpt lat="45.08346" lon="0.72268">
        <ele>207.2</ele>
        <time>2022-05-01T09:56:57Z</time>
      </trkpt>
      <trkpt lat="45.0834" lon="0.72277">
        <ele>207.1</ele>
        <time>2022-05-01T09:56:59Z</time>
      </trkpt>
      <trkpt lat="45.08335" lon="0.72286">
        <ele>207.1</ele>
        <time>2022-05-01T09:57:01Z</time>
      </trkpt>
      <trkpt lat="45.0833" lon="0.72296">
        <ele>207.1</ele>
        <time>2022-05-01T09:57:03Z</time>
      </trkpt>
      <trkpt lat="45.08325" lon="0.72305">
        <ele>207.1</ele>
        <time>2022-05-01T09:57:05Z</time>
      </trkpt>
      <trkpt lat="45.08323" lon="0.7231">
        <ele>207.1</ele>
        <time>2022-05-01T09:57:06Z</time>
      </trkpt>
      <trkpt lat="45.08321" lon="0.72313">
        <ele>207.1</ele>
        <time>2022-05-01T09:57:07Z</time>
      </trkpt>
      <trkpt lat="45.08318" lon="0.7232">
        <ele>207.1</ele>
        <time>2022-05-01T09:57:09Z</time>
      </trkpt>
      <trkpt lat="45.08314" lon="0.72329">
        <ele>207.1</ele>
        <time>2022-05-01T09:57:11Z</time>
      </trkpt>
      <trkpt lat="45.08309" lon="0.72338">
        <ele>207</ele>
        <time>2022-05-01T09:57:13Z</time>
      </trkpt>
      <trkpt lat="45.08308" lon="0.72341">
        <ele>207</ele>
        <time>2022-05-01T09:57:14Z</time>
      </trkpt>
      <trkpt lat="45.08306" lon="0.72345">
        <ele>207</ele>
        <time>2022-05-01T09:57:15Z</time>
      </trkpt>
      <trkpt lat="45.08302" lon="0.72353">
        <ele>207.1</ele>
        <time>2022-05-01T09:57:17Z</time>
      </trkpt>
      <trkpt lat="45.08299" lon="0.72358">
        <ele>207.1</ele>
        <time>2022-05-01T09:57:18Z</time>
      </trkpt>
      <trkpt lat="45.08297" lon="0.72363">
        <ele>207.1</ele>
        <time>2022-05-01T09:57:19Z</time>
      </trkpt>
      <trkpt lat="45.08292" lon="0.72373">
        <ele>207.3</ele>
        <time>2022-05-01T09:57:21Z</time>
      </trkpt>
      <trkpt lat="45.0829" lon="0.72378">
        <ele>207.4</ele>
        <time>2022-05-01T09:57:22Z</time>
      </trkpt>
      <trkpt lat="45.08289" lon="0.72382">
        <ele>207.4</ele>
        <time>2022-05-01T09:57:23Z</time>
      </trkpt>
      <trkpt lat="45.08286" lon="0.72392">
        <ele>207.5</ele>
        <time>2022-05-01T09:57:25Z</time>
      </trkpt>
      <trkpt lat="45.08284" lon="0.72397">
        <ele>207.5</ele>
        <time>2022-05-01T09:57:26Z</time>
      </trkpt>
      <trkpt lat="45.08283" lon="0.72401">
        <ele>207.6</ele>
        <time>2022-05-01T09:57:27Z</time>
      </trkpt>
      <trkpt lat="45.08281" lon="0.72409">
        <ele>207.6</ele>
        <time>2022-05-01T09:57:29Z</time>
      </trkpt>
      <trkpt lat="45.0828" lon="0.72414">
        <ele>207.6</ele>
        <time>2022-05-01T09:57:30Z</time>
      </trkpt>
      <trkpt lat="45.08279" lon="0.72418">
        <ele>207.7</ele>
        <time>2022-05-01T09:57:31Z</time>
      </trkpt>
      <trkpt lat="45.08276" lon="0.72428">
        <ele>207.8</ele>
        <time>2022-05-01T09:57:33Z</time>
      </trkpt>
      <trkpt lat="45.08275" lon="0.72438">
        <ele>208.5</ele>
        <time>2022-05-01T09:57:35Z</time>
      </trkpt>
      <trkpt lat="45.08274" lon="0.72449">
        <ele>209.2</ele>
        <time>2022-05-01T09:57:37Z</time>
      </trkpt>
      <trkpt lat="45.08273" lon="0.72454">
        <ele>209.6</ele>
        <time>2022-05-01T09:57:38Z</time>
      </trkpt>
      <trkpt lat="45.08273" lon="0.72459">
        <ele>209.9</ele>
        <time>2022-05-01T09:57:39Z</time>
      </trkpt>
      <trkpt lat="45.08272" lon="0.72469">
        <ele>210.5</ele>
        <time>2022-05-01T09:57:41Z</time>
      </trkpt>
      <trkpt lat="45.08272" lon="0.72474">
        <ele>210.8</ele>
        <time>2022-05-01T09:57:42Z</time>
      </trkpt>
      <trkpt lat="45.08272" lon="0.72479">
        <ele>211.2</ele>
        <time>2022-05-01T09:57:43Z</time>
      </trkpt>
      <trkpt lat="45.08272" lon="0.7249">
        <ele>211.8</ele>
        <time>2022-05-01T09:57:45Z</time>
      </trkpt>
      <trkpt lat="45.08272" lon="0.72495">
        <ele>212.2</ele>
        <time>2022-05-01T09:57:46Z</time>
      </trkpt>
      <trkpt lat="45.08273" lon="0.725">
        <ele>212.5</ele>
        <time>2022-05-01T09:57:47Z</time>
      </trkpt>
      <trkpt lat="45.08276" lon="0.7251">
        <ele>213.1</ele>
        <time>2022-05-01T09:57:49Z</time>
      </trkpt>
      <trkpt lat="45.08277" lon="0.72515">
        <ele>213.5</ele>
        <time>2022-05-01T09:57:50Z</time>
      </trkpt>
      <trkpt lat="45.08278" lon="0.7252">
        <ele>213.8</ele>
        <time>2022-05-01T09:57:51Z</time>
      </trkpt>
      <trkpt lat="45.08281" lon="0.7253">
        <ele>214.4</ele>
        <time>2022-05-01T09:57:53Z</time>
      </trkpt>
      <trkpt lat="45.08283" lon="0.72535">
        <ele>214.8</ele>
        <time>2022-05-01T09:57:54Z</time>
      </trkpt>
      <trkpt lat="45.08284" lon="0.72539">
        <ele>215.1</ele>
        <time>2022-05-01T09:57:55Z</time>
      </trkpt>
      <trkpt lat="45.08288" lon="0.72549">
        <ele>215.8</ele>
        <time>2022-05-01T09:57:57Z</time>
      </trkpt>
      <trkpt lat="45.08292" lon="0.72559">
        <ele>216.7</ele>
        <time>2022-05-01T09:57:59Z</time>
      </trkpt>
      <trkpt lat="45.08296" lon="0.7257">
        <ele>217.6</ele>
        <time>2022-05-01T09:58:01Z</time>
      </trkpt>
      <trkpt lat="45.08298" lon="0.72574">
        <ele>218</ele>
        <time>2022-05-01T09:58:02Z</time>
      </trkpt>
      <trkpt lat="45.08299" lon="0.72579">
        <ele>218.4</ele>
        <time>2022-05-01T09:58:03Z</time>
      </trkpt>
      <trkpt lat="45.08301" lon="0.72584">
        <ele>218.8</ele>
        <time>2022-05-01T09:58:04Z</time>
      </trkpt>
      <trkpt lat="45.08303" lon="0.72588">
        <ele>219.2</ele>
        <time>2022-05-01T09:58:05Z</time>
      </trkpt>
      <trkpt lat="45.08306" lon="0.72596">
        <ele>220.1</ele>
        <time>2022-05-01T09:58:07Z</time>
      </trkpt>
      <trkpt lat="45.0831" lon="0.72608">
        <ele>221.2</ele>
        <time>2022-05-01T09:58:09Z</time>
      </trkpt>
      <trkpt lat="45.08313" lon="0.72616">
        <ele>221.4</ele>
        <time>2022-05-01T09:58:11Z</time>
      </trkpt>
      <trkpt lat="45.08315" lon="0.72625">
        <ele>221.4</ele>
        <time>2022-05-01T09:58:13Z</time>
      </trkpt>
      <trkpt lat="45.08318" lon="0.72636">
        <ele>221.5</ele>
        <time>2022-05-01T09:58:15Z</time>
      </trkpt>
      <trkpt lat="45.0832" lon="0.72645">
        <ele>221.5</ele>
        <time>2022-05-01T09:58:17Z</time>
      </trkpt>
      <trkpt lat="45.08321" lon="0.72648">
        <ele>221.5</ele>
        <time>2022-05-01T09:58:18Z</time>
      </trkpt>
      <trkpt lat="45.08322" lon="0.72653">
        <ele>221.4</ele>
        <time>2022-05-01T09:58:19Z</time>
      </trkpt>
      <trkpt lat="45.08323" lon="0.72658">
        <ele>221.4</ele>
        <time>2022-05-01T09:58:20Z</time>
      </trkpt>
      <trkpt lat="45.08324" lon="0.72664">
        <ele>221.4</ele>
        <time>2022-05-01T09:58:21Z</time>
      </trkpt>
      <trkpt lat="45.08326" lon="0.72675">
        <ele>221.3</ele>
        <time>2022-05-01T09:58:23Z</time>
      </trkpt>
      <trkpt lat="45.08327" lon="0.72686">
        <ele>221.2</ele>
        <time>2022-05-01T09:58:25Z</time>
      </trkpt>
      <trkpt lat="45.08328" lon="0.72696">
        <ele>221.1</ele>
        <time>2022-05-01T09:58:27Z</time>
      </trkpt>
      <trkpt lat="45.08328" lon="0.72706">
        <ele>221.1</ele>
        <time>2022-05-01T09:58:29Z</time>
      </trkpt>
      <trkpt lat="45.08326" lon="0.72715">
        <ele>221</ele>
        <time>2022-05-01T09:58:31Z</time>
      </trkpt>
      <trkpt lat="45.08324" lon="0.72723">
        <ele>221</ele>
        <time>2022-05-01T09:58:33Z</time>
      </trkpt>
      <trkpt lat="45.08322" lon="0.72732">
        <ele>220.9</ele>
        <time>2022-05-01T09:58:35Z</time>
      </trkpt>
      <trkpt lat="45.0832" lon="0.72741">
        <ele>220.9</ele>
        <time>2022-05-01T09:58:37Z</time>
      </trkpt>
      <trkpt lat="45.08317" lon="0.72752">
        <ele>220.9</ele>
        <time>2022-05-01T09:58:39Z</time>
      </trkpt>
      <trkpt lat="45.08316" lon="0.72763">
        <ele>220.9</ele>
        <time>2022-05-01T09:58:41Z</time>
      </trkpt>
      <trkpt lat="45.08316" lon="0.72772">
        <ele>220.9</ele>
        <time>2022-05-01T09:58:43Z</time>
      </trkpt>
      <trkpt lat="45.08315" lon="0.7278">
        <ele>220.9</ele>
        <time>2022-05-01T09:58:45Z</time>
      </trkpt>
      <trkpt lat="45.08315" lon="0.72789">
        <ele>221</ele>
        <time>2022-05-01T09:58:47Z</time>
      </trkpt>
      <trkpt lat="45.08314" lon="0.72794">
        <ele>221.1</ele>
        <time>2022-05-01T09:58:48Z</time>
      </trkpt>
      <trkpt lat="45.08314" lon="0.72798">
        <ele>221.1</ele>
        <time>2022-05-01T09:58:49Z</time>
      </trkpt>
      <trkpt lat="45.08314" lon="0.72802">
        <ele>221.2</ele>
        <time>2022-05-01T09:58:50Z</time>
      </trkpt>
      <trkpt lat="45.08314" lon="0.72806">
        <ele>221.3</ele>
        <time>2022-05-01T09:58:51Z</time>
      </trkpt>
      <trkpt lat="45.08313" lon="0.72814">
        <ele>221.4</ele>
        <time>2022-05-01T09:58:53Z</time>
      </trkpt>
      <trkpt lat="45.08313" lon="0.72819">
        <ele>221.4</ele>
        <time>2022-05-01T09:58:54Z</time>
      </trkpt>
      <trkpt lat="45.08312" lon="0.72824">
        <ele>221.5</ele>
        <time>2022-05-01T09:58:55Z</time>
      </trkpt>
      <trkpt lat="45.08309" lon="0.72831">
        <ele>221.6</ele>
        <time>2022-05-01T09:58:57Z</time>
      </trkpt>
      <trkpt lat="45.08307" lon="0.72837">
        <ele>221.7</ele>
        <time>2022-05-01T09:58:59Z</time>
      </trkpt>
      <trkpt lat="45.08304" lon="0.72844">
        <ele>221.8</ele>
        <time>2022-05-01T09:59:01Z</time>
      </trkpt>
      <trkpt lat="45.08301" lon="0.72851">
        <ele>221.9</ele>
        <time>2022-05-01T09:59:03Z</time>
      </trkpt>
      <trkpt lat="45.083" lon="0.72856">
        <ele>221.9</ele>
        <time>2022-05-01T09:59:05Z</time>
      </trkpt>
      <trkpt lat="45.08297" lon="0.7286">
        <ele>221.9</ele>
        <time>2022-05-01T09:59:07Z</time>
      </trkpt>
      <trkpt lat="45.08295" lon="0.72863">
        <ele>222</ele>
        <time>2022-05-01T09:59:08Z</time>
      </trkpt>
      <trkpt lat="45.08293" lon="0.72867">
        <ele>222</ele>
        <time>2022-05-01T09:59:09Z</time>
      </trkpt>
      <trkpt lat="45.08289" lon="0.72874">
        <ele>222</ele>
        <time>2022-05-01T09:59:11Z</time>
      </trkpt>
      <trkpt lat="45.08285" lon="0.7288">
        <ele>222</ele>
        <time>2022-05-01T09:59:13Z</time>
      </trkpt>
      <trkpt lat="45.08281" lon="0.72887">
        <ele>222</ele>
        <time>2022-05-01T09:59:15Z</time>
      </trkpt>
      <trkpt lat="45.08278" lon="0.72894">
        <ele>222.1</ele>
        <time>2022-05-01T09:59:17Z</time>
      </trkpt>
      <trkpt lat="45.08276" lon="0.72902">
        <ele>222.1</ele>
        <time>2022-05-01T09:59:19Z</time>
      </trkpt>
      <trkpt lat="45.08273" lon="0.7291">
        <ele>222.2</ele>
        <time>2022-05-01T09:59:21Z</time>
      </trkpt>
      <trkpt lat="45.0827" lon="0.72918">
        <ele>222.3</ele>
        <time>2022-05-01T09:59:23Z</time>
      </trkpt>
      <trkpt lat="45.08268" lon="0.72925">
        <ele>222.4</ele>
        <time>2022-05-01T09:59:25Z</time>
      </trkpt>
      <trkpt lat="45.08265" lon="0.72932">
        <ele>222.5</ele>
        <time>2022-05-01T09:59:27Z</time>
      </trkpt>
      <trkpt lat="45.08264" lon="0.72937">
        <ele>222.6</ele>
        <time>2022-05-01T09:59:28Z</time>
      </trkpt>
      <trkpt lat="45.08262" lon="0.72941">
        <ele>222.7</ele>
        <time>2022-05-01T09:59:29Z</time>
      </trkpt>
      <trkpt lat="45.0826" lon="0.72947">
        <ele>222.9</ele>
        <time>2022-05-01T09:59:31Z</time>
      </trkpt>
      <trkpt lat="45.08257" lon="0.72956">
        <ele>223.1</ele>
        <time>2022-05-01T09:59:33Z</time>
      </trkpt>
      <trkpt lat="45.08255" lon="0.72964">
        <ele>223.3</ele>
        <time>2022-05-01T09:59:35Z</time>
      </trkpt>
      <trkpt lat="45.08254" lon="0.72967">
        <ele>223.4</ele>
        <time>2022-05-01T09:59:36Z</time>
      </trkpt>
      <trkpt lat="45.08253" lon="0.7297">
        <ele>223.5</ele>
        <time>2022-05-01T09:59:37Z</time>
      </trkpt>
      <trkpt lat="45.08251" lon="0.72976">
        <ele>223.6</ele>
        <time>2022-05-01T09:59:39Z</time>
      </trkpt>
      <trkpt lat="45.0825" lon="0.72979">
        <ele>223.7</ele>
        <time>2022-05-01T09:59:40Z</time>
      </trkpt>
      <trkpt lat="45.08248" lon="0.72983">
        <ele>223.8</ele>
        <time>2022-05-01T09:59:41Z</time>
      </trkpt>
      <trkpt lat="45.08245" lon="0.7299">
        <ele>224</ele>
        <time>2022-05-01T09:59:43Z</time>
      </trkpt>
      <trkpt lat="45.08242" lon="0.72997">
        <ele>224.2</ele>
        <time>2022-05-01T09:59:45Z</time>
      </trkpt>
      <trkpt lat="45.08241" lon="0.73">
        <ele>224.3</ele>
        <time>2022-05-01T09:59:46Z</time>
      </trkpt>
      <trkpt lat="45.0824" lon="0.73004">
        <ele>224.3</ele>
        <time>2022-05-01T09:59:47Z</time>
      </trkpt>
      <trkpt lat="45.08238" lon="0.73011">
        <ele>224.4</ele>
        <time>2022-05-01T09:59:49Z</time>
      </trkpt>
      <trkpt lat="45.08237" lon="0.73015">
        <ele>224.4</ele>
        <time>2022-05-01T09:59:50Z</time>
      </trkpt>
      <trkpt lat="45.08236" lon="0.73018">
        <ele>224.5</ele>
        <time>2022-05-01T09:59:51Z</time>
      </trkpt>
      <trkpt lat="45.08235" lon="0.73021">
        <ele>224.5</ele>
        <time>2022-05-01T09:59:52Z</time>
      </trkpt>
      <trkpt lat="45.08234" lon="0.73024">
        <ele>224.5</ele>
        <time>2022-05-01T09:59:53Z</time>
      </trkpt>
      <trkpt lat="45.08233" lon="0.73027">
        <ele>224.5</ele>
        <time>2022-05-01T09:59:54Z</time>
      </trkpt>
      <trkpt lat="45.08232" lon="0.7303">
        <ele>224.6</ele>
        <time>2022-05-01T09:59:55Z</time>
      </trkpt>
      <trkpt lat="45.0823" lon="0.73039">
        <ele>224.7</ele>
        <time>2022-05-01T09:59:57Z</time>
      </trkpt>
      <trkpt lat="45.08229" lon="0.73046">
        <ele>224.7</ele>
        <time>2022-05-01T09:59:59Z</time>
      </trkpt>
      <trkpt lat="45.08228" lon="0.73054">
        <ele>224.9</ele>
        <time>2022-05-01T10:00:01Z</time>
      </trkpt>
      <trkpt lat="45.08226" lon="0.73061">
        <ele>225</ele>
        <time>2022-05-01T10:00:03Z</time>
      </trkpt>
      <trkpt lat="45.08223" lon="0.73068">
        <ele>225.1</ele>
        <time>2022-05-01T10:00:05Z</time>
      </trkpt>
      <trkpt lat="45.0822" lon="0.73075">
        <ele>225.4</ele>
        <time>2022-05-01T10:00:07Z</time>
      </trkpt>
      <trkpt lat="45.08218" lon="0.73081">
        <ele>225.6</ele>
        <time>2022-05-01T10:00:09Z</time>
      </trkpt>
      <trkpt lat="45.08215" lon="0.73087">
        <ele>225.8</ele>
        <time>2022-05-01T10:00:11Z</time>
      </trkpt>
      <trkpt lat="45.08212" lon="0.73094">
        <ele>226.1</ele>
        <time>2022-05-01T10:00:13Z</time>
      </trkpt>
      <trkpt lat="45.08211" lon="0.73097">
        <ele>226.2</ele>
        <time>2022-05-01T10:00:14Z</time>
      </trkpt>
      <trkpt lat="45.08209" lon="0.731">
        <ele>226.3</ele>
        <time>2022-05-01T10:00:15Z</time>
      </trkpt>
      <trkpt lat="45.08207" lon="0.73106">
        <ele>226.6</ele>
        <time>2022-05-01T10:00:17Z</time>
      </trkpt>
      <trkpt lat="45.08205" lon="0.73111">
        <ele>226.8</ele>
        <time>2022-05-01T10:00:19Z</time>
      </trkpt>
      <trkpt lat="45.08206" lon="0.73116">
        <ele>226.9</ele>
        <time>2022-05-01T10:00:20Z</time>
      </trkpt>
      <trkpt lat="45.08208" lon="0.73119">
        <ele>226.8</ele>
        <time>2022-05-01T10:00:21Z</time>
      </trkpt>
      <trkpt lat="45.08212" lon="0.73124">
        <ele>226.6</ele>
        <time>2022-05-01T10:00:23Z</time>
      </trkpt>
      <trkpt lat="45.08217" lon="0.73129">
        <ele>226.3</ele>
        <time>2022-05-01T10:00:25Z</time>
      </trkpt>
      <trkpt lat="45.08223" lon="0.73135">
        <ele>226</ele>
        <time>2022-05-01T10:00:27Z</time>
      </trkpt>
      <trkpt lat="45.08229" lon="0.73141">
        <ele>225.8</ele>
        <time>2022-05-01T10:00:29Z</time>
      </trkpt>
      <trkpt lat="45.08235" lon="0.73147">
        <ele>225.7</ele>
        <time>2022-05-01T10:00:31Z</time>
      </trkpt>
      <trkpt lat="45.0824" lon="0.73151">
        <ele>225.8</ele>
        <time>2022-05-01T10:00:33Z</time>
      </trkpt>
      <trkpt lat="45.08242" lon="0.73153">
        <ele>225.8</ele>
        <time>2022-05-01T10:00:34Z</time>
      </trkpt>
      <trkpt lat="45.08244" lon="0.73155">
        <ele>225.9</ele>
        <time>2022-05-01T10:00:35Z</time>
      </trkpt>
      <trkpt lat="45.08247" lon="0.73158">
        <ele>226.1</ele>
        <time>2022-05-01T10:00:37Z</time>
      </trkpt>
      <trkpt lat="45.08249" lon="0.73161">
        <ele>226.3</ele>
        <time>2022-05-01T10:00:39Z</time>
      </trkpt>
      <trkpt lat="45.08251" lon="0.73162">
        <ele>226.4</ele>
        <time>2022-05-01T10:00:40Z</time>
      </trkpt>
      <trkpt lat="45.08252" lon="0.73164">
        <ele>226.5</ele>
        <time>2022-05-01T10:00:41Z</time>
      </trkpt>
      <trkpt lat="45.08255" lon="0.73169">
        <ele>226.9</ele>
        <time>2022-05-01T10:00:43Z</time>
      </trkpt>
      <trkpt lat="45.08255" lon="0.73172">
        <ele>227.1</ele>
        <time>2022-05-01T10:00:45Z</time>
      </trkpt>
      <trkpt lat="45.08256" lon="0.73175">
        <ele>227.3</ele>
        <time>2022-05-01T10:00:47Z</time>
      </trkpt>
      <trkpt lat="45.08256" lon="0.73178">
        <ele>227.5</ele>
        <time>2022-05-01T10:00:49Z</time>
      </trkpt>
      <trkpt lat="45.08256" lon="0.7318">
        <ele>227.8</ele>
        <time>2022-05-01T10:00:51Z</time>
      </trkpt>
      <trkpt lat="45.08257" lon="0.73183">
        <ele>229.6</ele>
        <time>2022-05-01T10:00:53Z</time>
      </trkpt>
      <trkpt lat="45.08257" lon="0.73186">
        <ele>229.9</ele>
        <time>2022-05-01T10:00:54Z</time>
      </trkpt>
      <trkpt lat="45.08257" lon="0.73189">
        <ele>230.2</ele>
        <time>2022-05-01T10:00:55Z</time>
      </trkpt>
      <trkpt lat="45.08258" lon="0.73191">
        <ele>230.6</ele>
        <time>2022-05-01T10:00:57Z</time>
      </trkpt>
      <trkpt lat="45.08258" lon="0.73194">
        <ele>230.9</ele>
        <time>2022-05-01T10:00:59Z</time>
      </trkpt>
      <trkpt lat="45.08258" lon="0.73197">
        <ele>231.1</ele>
        <time>2022-05-01T10:01:01Z</time>
      </trkpt>
      <trkpt lat="45.08258" lon="0.732">
        <ele>231.4</ele>
        <time>2022-05-01T10:01:03Z</time>
      </trkpt>
      <trkpt lat="45.08259" lon="0.73202">
        <ele>231.7</ele>
        <time>2022-05-01T10:01:05Z</time>
      </trkpt>
      <trkpt lat="45.08259" lon="0.73205">
        <ele>231.9</ele>
        <time>2022-05-01T10:01:06Z</time>
      </trkpt>
      <trkpt lat="45.08259" lon="0.73208">
        <ele>232.2</ele>
        <time>2022-05-01T10:01:07Z</time>
      </trkpt>
      <trkpt lat="45.0826" lon="0.73211">
        <ele>232.4</ele>
        <time>2022-05-01T10:01:09Z</time>
      </trkpt>
      <trkpt lat="45.0826" lon="0.73213">
        <ele>232.6</ele>
        <time>2022-05-01T10:01:10Z</time>
      </trkpt>
      <trkpt lat="45.0826" lon="0.73216">
        <ele>232.9</ele>
        <time>2022-05-01T10:01:11Z</time>
      </trkpt>
      <trkpt lat="45.0826" lon="0.73219">
        <ele>233.1</ele>
        <time>2022-05-01T10:01:13Z</time>
      </trkpt>
      <trkpt lat="45.08261" lon="0.73222">
        <ele>233.4</ele>
        <time>2022-05-01T10:01:14Z</time>
      </trkpt>
      <trkpt lat="45.08261" lon="0.73222">
        <ele>233.5</ele>
        <time>2022-05-01T10:01:15Z</time>
      </trkpt>
      <trkpt lat="45.08263" lon="0.73224">
        <ele>233.9</ele>
        <time>2022-05-01T10:01:17Z</time>
      </trkpt>
      <trkpt lat="45.08264" lon="0.73225">
        <ele>234</ele>
        <time>2022-05-01T10:01:18Z</time>
      </trkpt>
      <trkpt lat="45.08265" lon="0.73226">
        <ele>234.1</ele>
        <time>2022-05-01T10:01:19Z</time>
      </trkpt>
      <trkpt lat="45.08266" lon="0.73227">
        <ele>234.4</ele>
        <time>2022-05-01T10:01:20Z</time>
      </trkpt>
      <trkpt lat="45.08268" lon="0.73229">
        <ele>234.6</ele>
        <time>2022-05-01T10:01:21Z</time>
      </trkpt>
      <trkpt lat="45.08271" lon="0.73232">
        <ele>235</ele>
        <time>2022-05-01T10:01:23Z</time>
      </trkpt>
      <trkpt lat="45.08273" lon="0.73234">
        <ele>235.3</ele>
        <time>2022-05-01T10:01:25Z</time>
      </trkpt>
      <trkpt lat="45.08274" lon="0.73237">
        <ele>235.6</ele>
        <time>2022-05-01T10:01:27Z</time>
      </trkpt>
      <trkpt lat="45.08274" lon="0.73252">
        <ele>236.3</ele>
        <time>2022-05-01T10:01:29Z</time>
      </trkpt>
      <trkpt lat="45.08273" lon="0.73254">
        <ele>236.4</ele>
        <time>2022-05-01T10:01:30Z</time>
      </trkpt>
      <trkpt lat="45.08272" lon="0.73256">
        <ele>236.5</ele>
        <time>2022-05-01T10:01:31Z</time>
      </trkpt>
      <trkpt lat="45.0827" lon="0.7326">
        <ele>236.6</ele>
        <time>2022-05-01T10:01:33Z</time>
      </trkpt>
      <trkpt lat="45.08268" lon="0.73264">
        <ele>236.6</ele>
        <time>2022-05-01T10:01:35Z</time>
      </trkpt>
      <trkpt lat="45.08267" lon="0.73266">
        <ele>236.6</ele>
        <time>2022-05-01T10:01:36Z</time>
      </trkpt>
      <trkpt lat="45.08267" lon="0.73267">
        <ele>236.6</ele>
        <time>2022-05-01T10:01:37Z</time>
      </trkpt>
      <trkpt lat="45.08265" lon="0.7327">
        <ele>236.7</ele>
        <time>2022-05-01T10:01:39Z</time>
      </trkpt>
      <trkpt lat="45.08264" lon="0.73273">
        <ele>236.7</ele>
        <time>2022-05-01T10:01:41Z</time>
      </trkpt>
      <trkpt lat="45.08262" lon="0.73276">
        <ele>236.7</ele>
        <time>2022-05-01T10:01:43Z</time>
      </trkpt>
      <trkpt lat="45.08266" lon="0.73283">
        <ele>236.7</ele>
        <time>2022-05-01T10:01:45Z</time>
      </trkpt>
      <trkpt lat="45.08269" lon="0.73287">
        <ele>236.7</ele>
        <time>2022-05-01T10:01:47Z</time>
      </trkpt>
      <trkpt lat="45.08269" lon="0.73294">
        <ele>236.7</ele>
        <time>2022-05-01T10:01:49Z</time>
      </trkpt>
      <trkpt lat="45.08266" lon="0.73297">
        <ele>236.6</ele>
        <time>2022-05-01T10:01:51Z</time>
      </trkpt>
      <trkpt lat="45.08262" lon="0.733">
        <ele>236.5</ele>
        <time>2022-05-01T10:01:53Z</time>
      </trkpt>
      <trkpt lat="45.08259" lon="0.73304">
        <ele>236.5</ele>
        <time>2022-05-01T10:01:55Z</time>
      </trkpt>
      <trkpt lat="45.08255" lon="0.73308">
        <ele>236.4</ele>
        <time>2022-05-01T10:01:57Z</time>
      </trkpt>
      <trkpt lat="45.0825" lon="0.73312">
        <ele>236.3</ele>
        <time>2022-05-01T10:01:59Z</time>
      </trkpt>
      <trkpt lat="45.08246" lon="0.73314">
        <ele>236.2</ele>
        <time>2022-05-01T10:02:01Z</time>
      </trkpt>
      <trkpt lat="45.08242" lon="0.73316">
        <ele>236.1</ele>
        <time>2022-05-01T10:02:03Z</time>
      </trkpt>
      <trkpt lat="45.08239" lon="0.73318">
        <ele>236.1</ele>
        <time>2022-05-01T10:02:05Z</time>
      </trkpt>
      <trkpt lat="45.08236" lon="0.73319">
        <ele>236</ele>
        <time>2022-05-01T10:02:07Z</time>
      </trkpt>
      <trkpt lat="45.08234" lon="0.7332">
        <ele>236</ele>
        <time>2022-05-01T10:02:09Z</time>
      </trkpt>
      <trkpt lat="45.0823" lon="0.73322">
        <ele>235.9</ele>
        <time>2022-05-01T10:02:11Z</time>
      </trkpt>
      <trkpt lat="45.08225" lon="0.73325">
        <ele>235.8</ele>
        <time>2022-05-01T10:02:13Z</time>
      </trkpt>
      <trkpt lat="45.08219" lon="0.73328">
        <ele>235.7</ele>
        <time>2022-05-01T10:02:15Z</time>
      </trkpt>
      <trkpt lat="45.08212" lon="0.73332">
        <ele>235.6</ele>
        <time>2022-05-01T10:02:17Z</time>
      </trkpt>
      <trkpt lat="45.08206" lon="0.73334">
        <ele>235.5</ele>
        <time>2022-05-01T10:02:19Z</time>
      </trkpt>
      <trkpt lat="45.08207" lon="0.73346">
        <ele>234.2</ele>
        <time>2022-05-01T10:02:20Z</time>
      </trkpt>
      <trkpt lat="45.0821" lon="0.73349">
        <ele>233.9</ele>
        <time>2022-05-01T10:02:21Z</time>
      </trkpt>
      <trkpt lat="45.08213" lon="0.73352">
        <ele>233.5</ele>
        <time>2022-05-01T10:02:22Z</time>
      </trkpt>
      <trkpt lat="45.08217" lon="0.73356">
        <ele>233</ele>
        <time>2022-05-01T10:02:23Z</time>
      </trkpt>
      <trkpt lat="45.08226" lon="0.73365">
        <ele>231.8</ele>
        <time>2022-05-01T10:02:25Z</time>
      </trkpt>
      <trkpt lat="45.08237" lon="0.73376">
        <ele>230.5</ele>
        <time>2022-05-01T10:02:27Z</time>
      </trkpt>
      <trkpt lat="45.0825" lon="0.73389">
        <ele>229</ele>
        <time>2022-05-01T10:02:29Z</time>
      </trkpt>
      <trkpt lat="45.08264" lon="0.73402">
        <ele>227.5</ele>
        <time>2022-05-01T10:02:31Z</time>
      </trkpt>
      <trkpt lat="45.08278" lon="0.73415">
        <ele>226.1</ele>
        <time>2022-05-01T10:02:33Z</time>
      </trkpt>
      <trkpt lat="45.08294" lon="0.7343">
        <ele>224.8</ele>
        <time>2022-05-01T10:02:35Z</time>
      </trkpt>
      <trkpt lat="45.08309" lon="0.73445">
        <ele>223.7</ele>
        <time>2022-05-01T10:02:37Z</time>
      </trkpt>
      <trkpt lat="45.08317" lon="0.73452">
        <ele>223.2</ele>
        <time>2022-05-01T10:02:38Z</time>
      </trkpt>
      <trkpt lat="45.08324" lon="0.73459">
        <ele>222.8</ele>
        <time>2022-05-01T10:02:39Z</time>
      </trkpt>
      <trkpt lat="45.08338" lon="0.73473">
        <ele>222.1</ele>
        <time>2022-05-01T10:02:41Z</time>
      </trkpt>
      <trkpt lat="45.08352" lon="0.73487">
        <ele>221.6</ele>
        <time>2022-05-01T10:02:43Z</time>
      </trkpt>
      <trkpt lat="45.08365" lon="0.73499">
        <ele>221.2</ele>
        <time>2022-05-01T10:02:45Z</time>
      </trkpt>
      <trkpt lat="45.08377" lon="0.73511">
        <ele>221</ele>
        <time>2022-05-01T10:02:47Z</time>
      </trkpt>
      <trkpt lat="45.08388" lon="0.73522">
        <ele>220.7</ele>
        <time>2022-05-01T10:02:49Z</time>
      </trkpt>
      <trkpt lat="45.08399" lon="0.73532">
        <ele>220.6</ele>
        <time>2022-05-01T10:02:51Z</time>
      </trkpt>
      <trkpt lat="45.08405" lon="0.73537">
        <ele>220.5</ele>
        <time>2022-05-01T10:02:52Z</time>
      </trkpt>
      <trkpt lat="45.0841" lon="0.73542">
        <ele>220.5</ele>
        <time>2022-05-01T10:02:53Z</time>
      </trkpt>
      <trkpt lat="45.08419" lon="0.73553">
        <ele>220.4</ele>
        <time>2022-05-01T10:02:55Z</time>
      </trkpt>
      <trkpt lat="45.08428" lon="0.73564">
        <ele>220.5</ele>
        <time>2022-05-01T10:02:57Z</time>
      </trkpt>
      <trkpt lat="45.08435" lon="0.73576">
        <ele>220.6</ele>
        <time>2022-05-01T10:02:59Z</time>
      </trkpt>
      <trkpt lat="45.08438" lon="0.73582">
        <ele>220.6</ele>
        <time>2022-05-01T10:03:00Z</time>
      </trkpt>
      <trkpt lat="45.0844" lon="0.73588">
        <ele>220.6</ele>
        <time>2022-05-01T10:03:01Z</time>
      </trkpt>
      <trkpt lat="45.08453" lon="0.73582">
        <ele>221.3</ele>
        <time>2022-05-01T10:03:02Z</time>
      </trkpt>
      <trkpt lat="45.08455" lon="0.73586">
        <ele>221.5</ele>
        <time>2022-05-01T10:03:03Z</time>
      </trkpt>
      <trkpt lat="45.08458" lon="0.73591">
        <ele>221.6</ele>
        <time>2022-05-01T10:03:04Z</time>
      </trkpt>
      <trkpt lat="45.08463" lon="0.73598">
        <ele>221.9</ele>
        <time>2022-05-01T10:03:05Z</time>
      </trkpt>
      <trkpt lat="45.08467" lon="0.73605">
        <ele>222.1</ele>
        <time>2022-05-01T10:03:06Z</time>
      </trkpt>
      <trkpt lat="45.08474" lon="0.73611">
        <ele>222.6</ele>
        <time>2022-05-01T10:03:07Z</time>
      </trkpt>
      <trkpt lat="45.08484" lon="0.73615">
        <ele>223.4</ele>
        <time>2022-05-01T10:03:09Z</time>
      </trkpt>
      <trkpt lat="45.08493" lon="0.73618">
        <ele>224.1</ele>
        <time>2022-05-01T10:03:11Z</time>
      </trkpt>
      <trkpt lat="45.085" lon="0.73619">
        <ele>224.7</ele>
        <time>2022-05-01T10:03:13Z</time>
      </trkpt>
      <trkpt lat="45.08508" lon="0.73618">
        <ele>225.3</ele>
        <time>2022-05-01T10:03:15Z</time>
      </trkpt>
      <trkpt lat="45.08513" lon="0.73618">
        <ele>225.6</ele>
        <time>2022-05-01T10:03:16Z</time>
      </trkpt>
      <trkpt lat="45.08518" lon="0.73617">
        <ele>225.8</ele>
        <time>2022-05-01T10:03:17Z</time>
      </trkpt>
      <trkpt lat="45.08526" lon="0.73614">
        <ele>226.1</ele>
        <time>2022-05-01T10:03:19Z</time>
      </trkpt>
      <trkpt lat="45.08537" lon="0.73607">
        <ele>226.5</ele>
        <time>2022-05-01T10:03:21Z</time>
      </trkpt>
      <trkpt lat="45.08545" lon="0.73603">
        <ele>226.7</ele>
        <time>2022-05-01T10:03:23Z</time>
      </trkpt>
      <trkpt lat="45.08555" lon="0.736">
        <ele>227</ele>
        <time>2022-05-01T10:03:25Z</time>
      </trkpt>
      <trkpt lat="45.08564" lon="0.73599">
        <ele>227.2</ele>
        <time>2022-05-01T10:03:27Z</time>
      </trkpt>
      <trkpt lat="45.08574" lon="0.73599">
        <ele>227.2</ele>
        <time>2022-05-01T10:03:29Z</time>
      </trkpt>
      <trkpt lat="45.08585" lon="0.73598">
        <ele>227.1</ele>
        <time>2022-05-01T10:03:31Z</time>
      </trkpt>
      <trkpt lat="45.08596" lon="0.73598">
        <ele>226.8</ele>
        <time>2022-05-01T10:03:33Z</time>
      </trkpt>
      <trkpt lat="45.08609" lon="0.73595">
        <ele>226.3</ele>
        <time>2022-05-01T10:03:35Z</time>
      </trkpt>
      <trkpt lat="45.08615" lon="0.73593">
        <ele>226.1</ele>
        <time>2022-05-01T10:03:36Z</time>
      </trkpt>
      <trkpt lat="45.08622" lon="0.73589">
        <ele>225.9</ele>
        <time>2022-05-01T10:03:37Z</time>
      </trkpt>
      <trkpt lat="45.08628" lon="0.73585">
        <ele>225.7</ele>
        <time>2022-05-01T10:03:38Z</time>
      </trkpt>
      <trkpt lat="45.08633" lon="0.73581">
        <ele>225.7</ele>
        <time>2022-05-01T10:03:39Z</time>
      </trkpt>
      <trkpt lat="45.08642" lon="0.73574">
        <ele>225.6</ele>
        <time>2022-05-01T10:03:41Z</time>
      </trkpt>
      <trkpt lat="45.08646" lon="0.7357">
        <ele>225.6</ele>
        <time>2022-05-01T10:03:42Z</time>
      </trkpt>
      <trkpt lat="45.08651" lon="0.73567">
        <ele>225.5</ele>
        <time>2022-05-01T10:03:43Z</time>
      </trkpt>
      <trkpt lat="45.08659" lon="0.7356">
        <ele>225.5</ele>
        <time>2022-05-01T10:03:45Z</time>
      </trkpt>
      <trkpt lat="45.08667" lon="0.73554">
        <ele>225.6</ele>
        <time>2022-05-01T10:03:47Z</time>
      </trkpt>
      <trkpt lat="45.08677" lon="0.73553">
        <ele>225.7</ele>
        <time>2022-05-01T10:03:49Z</time>
      </trkpt>
      <trkpt lat="45.08685" lon="0.73551">
        <ele>225.9</ele>
        <time>2022-05-01T10:03:51Z</time>
      </trkpt>
      <trkpt lat="45.08689" lon="0.73551">
        <ele>226</ele>
        <time>2022-05-01T10:03:52Z</time>
      </trkpt>
      <trkpt lat="45.08693" lon="0.73551">
        <ele>226</ele>
        <time>2022-05-01T10:03:53Z</time>
      </trkpt>
      <trkpt lat="45.08701" lon="0.73551">
        <ele>226.2</ele>
        <time>2022-05-01T10:03:55Z</time>
      </trkpt>
      <trkpt lat="45.08706" lon="0.73551">
        <ele>226.3</ele>
        <time>2022-05-01T10:03:56Z</time>
      </trkpt>
      <trkpt lat="45.0871" lon="0.73552">
        <ele>226.3</ele>
        <time>2022-05-01T10:03:57Z</time>
      </trkpt>
      <trkpt lat="45.08715" lon="0.73553">
        <ele>226.4</ele>
        <time>2022-05-01T10:03:59Z</time>
      </trkpt>
      <trkpt lat="45.08722" lon="0.73556">
        <ele>226.5</ele>
        <time>2022-05-01T10:04:01Z</time>
      </trkpt>
      <trkpt lat="45.08728" lon="0.7356">
        <ele>226.6</ele>
        <time>2022-05-01T10:04:03Z</time>
      </trkpt>
      <trkpt lat="45.08734" lon="0.73565">
        <ele>226.7</ele>
        <time>2022-05-01T10:04:05Z</time>
      </trkpt>
      <trkpt lat="45.08739" lon="0.73569">
        <ele>226.8</ele>
        <time>2022-05-01T10:04:07Z</time>
      </trkpt>
      <trkpt lat="45.08741" lon="0.73572">
        <ele>226.9</ele>
        <time>2022-05-01T10:04:08Z</time>
      </trkpt>
      <trkpt lat="45.08744" lon="0.73574">
        <ele>226.9</ele>
        <time>2022-05-01T10:04:09Z</time>
      </trkpt>
      <trkpt lat="45.08748" lon="0.73577">
        <ele>227</ele>
        <time>2022-05-01T10:04:10Z</time>
      </trkpt>
      <trkpt lat="45.08751" lon="0.7358">
        <ele>227</ele>
        <time>2022-05-01T10:04:11Z</time>
      </trkpt>
      <trkpt lat="45.08755" lon="0.73583">
        <ele>227</ele>
        <time>2022-05-01T10:04:12Z</time>
      </trkpt>
      <trkpt lat="45.08758" lon="0.73586">
        <ele>227</ele>
        <time>2022-05-01T10:04:13Z</time>
      </trkpt>
      <trkpt lat="45.08767" lon="0.73589">
        <ele>226.9</ele>
        <time>2022-05-01T10:04:15Z</time>
      </trkpt>
      <trkpt lat="45.08776" lon="0.73591">
        <ele>226.7</ele>
        <time>2022-05-01T10:04:17Z</time>
      </trkpt>
      <trkpt lat="45.08781" lon="0.73592">
        <ele>226.6</ele>
        <time>2022-05-01T10:04:18Z</time>
      </trkpt>
      <trkpt lat="45.08785" lon="0.73592">
        <ele>226.5</ele>
        <time>2022-05-01T10:04:19Z</time>
      </trkpt>
      <trkpt lat="45.08793" lon="0.73594">
        <ele>226.2</ele>
        <time>2022-05-01T10:04:21Z</time>
      </trkpt>
      <trkpt lat="45.08798" lon="0.73595">
        <ele>226.1</ele>
        <time>2022-05-01T10:04:22Z</time>
      </trkpt>
      <trkpt lat="45.08802" lon="0.73596">
        <ele>225.9</ele>
        <time>2022-05-01T10:04:23Z</time>
      </trkpt>
      <trkpt lat="45.08804" lon="0.73597">
        <ele>225.8</ele>
        <time>2022-05-01T10:04:24Z</time>
      </trkpt>
      <trkpt lat="45.08809" lon="0.73598">
        <ele>225.6</ele>
        <time>2022-05-01T10:04:25Z</time>
      </trkpt>
      <trkpt lat="45.08815" lon="0.736">
        <ele>225.3</ele>
        <time>2022-05-01T10:04:26Z</time>
      </trkpt>
      <trkpt lat="45.08819" lon="0.73601">
        <ele>225.1</ele>
        <time>2022-05-01T10:04:27Z</time>
      </trkpt>
      <trkpt lat="45.08827" lon="0.73604">
        <ele>224.6</ele>
        <time>2022-05-01T10:04:29Z</time>
      </trkpt>
      <trkpt lat="45.08835" lon="0.73606">
        <ele>224.3</ele>
        <time>2022-05-01T10:04:31Z</time>
      </trkpt>
      <trkpt lat="45.08843" lon="0.73609">
        <ele>224</ele>
        <time>2022-05-01T10:04:33Z</time>
      </trkpt>
      <trkpt lat="45.08851" lon="0.7361">
        <ele>223.8</ele>
        <time>2022-05-01T10:04:35Z</time>
      </trkpt>
      <trkpt lat="45.08854" lon="0.7361">
        <ele>223.8</ele>
        <time>2022-05-01T10:04:36Z</time>
      </trkpt>
      <trkpt lat="45.08857" lon="0.73609">
        <ele>223.8</ele>
        <time>2022-05-01T10:04:37Z</time>
      </trkpt>
      <trkpt lat="45.08864" lon="0.73607">
        <ele>223.7</ele>
        <time>2022-05-01T10:04:39Z</time>
      </trkpt>
      <trkpt lat="45.0887" lon="0.73604">
        <ele>223.8</ele>
        <time>2022-05-01T10:04:41Z</time>
      </trkpt>
      <trkpt lat="45.08874" lon="0.73602">
        <ele>223.8</ele>
        <time>2022-05-01T10:04:43Z</time>
      </trkpt>
      <trkpt lat="45.08877" lon="0.736">
        <ele>223.8</ele>
        <time>2022-05-01T10:04:44Z</time>
      </trkpt>
      <trkpt lat="45.08881" lon="0.73598">
        <ele>223.8</ele>
        <time>2022-05-01T10:04:45Z</time>
      </trkpt>
      <trkpt lat="45.08888" lon="0.73595">
        <ele>223.9</ele>
        <time>2022-05-01T10:04:47Z</time>
      </trkpt>
      <trkpt lat="45.08896" lon="0.73589">
        <ele>224</ele>
        <time>2022-05-01T10:04:49Z</time>
      </trkpt>
      <trkpt lat="45.08898" lon="0.73586">
        <ele>224</ele>
        <time>2022-05-01T10:04:50Z</time>
      </trkpt>
      <trkpt lat="45.08901" lon="0.73585">
        <ele>224.1</ele>
        <time>2022-05-01T10:04:51Z</time>
      </trkpt>
      <trkpt lat="45.08906" lon="0.73585">
        <ele>224.2</ele>
        <time>2022-05-01T10:04:53Z</time>
      </trkpt>
      <trkpt lat="45.0891" lon="0.73584">
        <ele>224.3</ele>
        <time>2022-05-01T10:04:55Z</time>
      </trkpt>
      <trkpt lat="45.08913" lon="0.73583">
        <ele>224.3</ele>
        <time>2022-05-01T10:04:56Z</time>
      </trkpt>
      <trkpt lat="45.08915" lon="0.73583">
        <ele>224.2</ele>
        <time>2022-05-01T10:04:57Z</time>
      </trkpt>
      <trkpt lat="45.08919" lon="0.73597">
        <ele>223.6</ele>
        <time>2022-05-01T10:04:59Z</time>
      </trkpt>
      <trkpt lat="45.0892" lon="0.736">
        <ele>223.6</ele>
        <time>2022-05-01T10:05:00Z</time>
      </trkpt>
      <trkpt lat="45.08921" lon="0.73604">
        <ele>223.6</ele>
        <time>2022-05-01T10:05:01Z</time>
      </trkpt>
      <trkpt lat="45.08925" lon="0.73609">
        <ele>223.1</ele>
        <time>2022-05-01T10:05:03Z</time>
      </trkpt>
      <trkpt lat="45.0893" lon="0.7361">
        <ele>222.9</ele>
        <time>2022-05-01T10:05:04Z</time>
      </trkpt>
      <trkpt lat="45.08933" lon="0.73611">
        <ele>222.9</ele>
        <time>2022-05-01T10:05:05Z</time>
      </trkpt>
      <trkpt lat="45.08938" lon="0.73617">
        <ele>222.9</ele>
        <time>2022-05-01T10:05:07Z</time>
      </trkpt>
      <trkpt lat="45.08939" lon="0.7362">
        <ele>222.8</ele>
        <time>2022-05-01T10:05:08Z</time>
      </trkpt>
      <trkpt lat="45.08941" lon="0.73625">
        <ele>222.7</ele>
        <time>2022-05-01T10:05:09Z</time>
      </trkpt>
      <trkpt lat="45.0894" lon="0.73628">
        <ele>222</ele>
        <time>2022-05-01T10:05:10Z</time>
      </trkpt>
      <trkpt lat="45.08942" lon="0.73633">
        <ele>222</ele>
        <time>2022-05-01T10:05:11Z</time>
      </trkpt>
      <trkpt lat="45.08944" lon="0.73638">
        <ele>222</ele>
        <time>2022-05-01T10:05:13Z</time>
      </trkpt>
      <trkpt lat="45.08943" lon="0.73641">
        <ele>222</ele>
        <time>2022-05-01T10:05:14Z</time>
      </trkpt>
      <trkpt lat="45.08942" lon="0.73643">
        <ele>221.1</ele>
        <time>2022-05-01T10:05:15Z</time>
      </trkpt>
      <trkpt lat="45.08942" lon="0.73649">
        <ele>221</ele>
        <time>2022-05-01T10:05:17Z</time>
      </trkpt>
      <trkpt lat="45.08943" lon="0.73652">
        <ele>221</ele>
        <time>2022-05-01T10:05:18Z</time>
      </trkpt>
      <trkpt lat="45.08942" lon="0.73655">
        <ele>221</ele>
        <time>2022-05-01T10:05:19Z</time>
      </trkpt>
      <trkpt lat="45.08946" lon="0.73663">
        <ele>220</ele>
        <time>2022-05-01T10:05:21Z</time>
      </trkpt>
      <trkpt lat="45.08955" lon="0.73668">
        <ele>219.5</ele>
        <time>2022-05-01T10:05:23Z</time>
      </trkpt>
      <trkpt lat="45.0896" lon="0.73672">
        <ele>219.4</ele>
        <time>2022-05-01T10:05:24Z</time>
      </trkpt>
      <trkpt lat="45.08966" lon="0.73675">
        <ele>218.8</ele>
        <time>2022-05-01T10:05:25Z</time>
      </trkpt>
      <trkpt lat="45.08972" lon="0.73679">
        <ele>217.6</ele>
        <time>2022-05-01T10:05:26Z</time>
      </trkpt>
      <trkpt lat="45.08981" lon="0.73681">
        <ele>217</ele>
        <time>2022-05-01T10:05:27Z</time>
      </trkpt>
      <trkpt lat="45.08988" lon="0.73685">
        <ele>216.9</ele>
        <time>2022-05-01T10:05:28Z</time>
      </trkpt>
      <trkpt lat="45.08996" lon="0.73688">
        <ele>216.3</ele>
        <time>2022-05-01T10:05:29Z</time>
      </trkpt>
      <trkpt lat="45.09003" lon="0.73692">
        <ele>215.3</ele>
        <time>2022-05-01T10:05:30Z</time>
      </trkpt>
      <trkpt lat="45.0901" lon="0.73697">
        <ele>214.1</ele>
        <time>2022-05-01T10:05:31Z</time>
      </trkpt>
      <trkpt lat="45.09024" lon="0.73702">
        <ele>212.9</ele>
        <time>2022-05-01T10:05:33Z</time>
      </trkpt>
      <trkpt lat="45.09036" lon="0.73709">
        <ele>211</ele>
        <time>2022-05-01T10:05:35Z</time>
      </trkpt>
      <trkpt lat="45.09037" lon="0.73713">
        <ele>207.8</ele>
        <time>2022-05-01T10:05:36Z</time>
      </trkpt>
      <trkpt lat="45.09038" lon="0.73716">
        <ele>207.8</ele>
        <time>2022-05-01T10:05:37Z</time>
      </trkpt>
      <trkpt lat="45.09038" lon="0.73719">
        <ele>207.8</ele>
        <time>2022-05-01T10:05:38Z</time>
      </trkpt>
      <trkpt lat="45.09036" lon="0.7372">
        <ele>209.7</ele>
        <time>2022-05-01T10:05:39Z</time>
      </trkpt>
      <trkpt lat="45.09036" lon="0.73723">
        <ele>209.7</ele>
        <time>2022-05-01T10:05:41Z</time>
      </trkpt>
      <trkpt lat="45.09037" lon="0.73722">
        <ele>209.6</ele>
        <time>2022-05-01T10:05:42Z</time>
      </trkpt>
      <trkpt lat="45.09037" lon="0.73723">
        <ele>207.7</ele>
        <time>2022-05-01T10:05:43Z</time>
      </trkpt>
      <trkpt lat="45.09039" lon="0.73724">
        <ele>207.7</ele>
        <time>2022-05-01T10:05:45Z</time>
      </trkpt>
      <trkpt lat="45.09039" lon="0.73724">
        <ele>207.6</ele>
        <time>2022-05-01T10:05:46Z</time>
      </trkpt>
      <trkpt lat="45.09042" lon="0.73728">
        <ele>207.6</ele>
        <time>2022-05-01T10:06:03Z</time>
      </trkpt>
      <trkpt lat="45.0905" lon="0.73729">
        <ele>204.4</ele>
        <time>2022-05-01T10:06:05Z</time>
      </trkpt>
      <trkpt lat="45.09063" lon="0.73727">
        <ele>203</ele>
        <time>2022-05-01T10:06:07Z</time>
      </trkpt>
      <trkpt lat="45.0907" lon="0.73726">
        <ele>203</ele>
        <time>2022-05-01T10:06:08Z</time>
      </trkpt>
      <trkpt lat="45.09079" lon="0.73725">
        <ele>201.4</ele>
        <time>2022-05-01T10:06:09Z</time>
      </trkpt>
      <trkpt lat="45.09085" lon="0.73723">
        <ele>201.4</ele>
        <time>2022-05-01T10:06:10Z</time>
      </trkpt>
      <trkpt lat="45.09091" lon="0.73721">
        <ele>200</ele>
        <time>2022-05-01T10:06:11Z</time>
      </trkpt>
      <trkpt lat="45.09104" lon="0.7372">
        <ele>198.8</ele>
        <time>2022-05-01T10:06:13Z</time>
      </trkpt>
      <trkpt lat="45.09111" lon="0.73721">
        <ele>197.3</ele>
        <time>2022-05-01T10:06:14Z</time>
      </trkpt>
      <trkpt lat="45.09118" lon="0.73723">
        <ele>197.3</ele>
        <time>2022-05-01T10:06:15Z</time>
      </trkpt>
      <trkpt lat="45.09129" lon="0.73726">
        <ele>196.2</ele>
        <time>2022-05-01T10:06:17Z</time>
      </trkpt>
      <trkpt lat="45.09141" lon="0.73729">
        <ele>195</ele>
        <time>2022-05-01T10:06:19Z</time>
      </trkpt>
      <trkpt lat="45.09156" lon="0.73733">
        <ele>193.9</ele>
        <time>2022-05-01T10:06:21Z</time>
      </trkpt>
      <trkpt lat="45.09172" lon="0.73737">
        <ele>192.2</ele>
        <time>2022-05-01T10:06:23Z</time>
      </trkpt>
      <trkpt lat="45.09179" lon="0.73739">
        <ele>192.2</ele>
        <time>2022-05-01T10:06:24Z</time>
      </trkpt>
      <trkpt lat="45.09185" lon="0.73742">
        <ele>191.6</ele>
        <time>2022-05-01T10:06:25Z</time>
      </trkpt>
      <trkpt lat="45.09192" lon="0.73742">
        <ele>191.6</ele>
        <time>2022-05-01T10:06:26Z</time>
      </trkpt>
      <trkpt lat="45.09199" lon="0.73743">
        <ele>191.4</ele>
        <time>2022-05-01T10:06:27Z</time>
      </trkpt>
      <trkpt lat="45.09207" lon="0.73743">
        <ele>191.5</ele>
        <time>2022-05-01T10:06:28Z</time>
      </trkpt>
      <trkpt lat="45.09217" lon="0.73744">
        <ele>191.5</ele>
        <time>2022-05-01T10:06:29Z</time>
      </trkpt>
      <trkpt lat="45.09232" lon="0.73749">
        <ele>194.2</ele>
        <time>2022-05-01T10:06:31Z</time>
      </trkpt>
      <trkpt lat="45.09236" lon="0.73752">
        <ele>194.2</ele>
        <time>2022-05-01T10:06:32Z</time>
      </trkpt>
      <trkpt lat="45.0924" lon="0.73753">
        <ele>194.2</ele>
        <time>2022-05-01T10:06:33Z</time>
      </trkpt>
      <trkpt lat="45.09246" lon="0.73758">
        <ele>196.2</ele>
        <time>2022-05-01T10:06:35Z</time>
      </trkpt>
      <trkpt lat="45.0926" lon="0.7376">
        <ele>198</ele>
        <time>2022-05-01T10:06:37Z</time>
      </trkpt>
      <trkpt lat="45.0927" lon="0.73763">
        <ele>198.7</ele>
        <time>2022-05-01T10:06:39Z</time>
      </trkpt>
      <trkpt lat="45.09273" lon="0.73764">
        <ele>198.7</ele>
        <time>2022-05-01T10:06:40Z</time>
      </trkpt>
      <trkpt lat="45.09275" lon="0.73764">
        <ele>198.7</ele>
        <time>2022-05-01T10:06:41Z</time>
      </trkpt>
      <trkpt lat="45.09278" lon="0.73766">
        <ele>198.7</ele>
        <time>2022-05-01T10:06:42Z</time>
      </trkpt>
      <trkpt lat="45.09281" lon="0.73767">
        <ele>199.7</ele>
        <time>2022-05-01T10:06:43Z</time>
      </trkpt>
      <trkpt lat="45.09287" lon="0.73769">
        <ele>199.7</ele>
        <time>2022-05-01T10:06:45Z</time>
      </trkpt>
      <trkpt lat="45.09291" lon="0.7377">
        <ele>199.7</ele>
        <time>2022-05-01T10:06:47Z</time>
      </trkpt>
      <trkpt lat="45.09294" lon="0.7377">
        <ele>200.6</ele>
        <time>2022-05-01T10:06:49Z</time>
      </trkpt>
      <trkpt lat="45.09295" lon="0.73775">
        <ele>200.5</ele>
        <time>2022-05-01T10:06:53Z</time>
      </trkpt>
      <trkpt lat="45.09296" lon="0.7378">
        <ele>200.5</ele>
        <time>2022-05-01T10:06:55Z</time>
      </trkpt>
      <trkpt lat="45.09294" lon="0.73784">
        <ele>200.7</ele>
        <time>2022-05-01T10:06:57Z</time>
      </trkpt>
      <trkpt lat="45.09294" lon="0.73787">
        <ele>200.6</ele>
        <time>2022-05-01T10:06:58Z</time>
      </trkpt>
      <trkpt lat="45.09292" lon="0.7379">
        <ele>200.6</ele>
        <time>2022-05-01T10:06:59Z</time>
      </trkpt>
      <trkpt lat="45.09291" lon="0.73795">
        <ele>199.4</ele>
        <time>2022-05-01T10:07:01Z</time>
      </trkpt>
      <trkpt lat="45.09289" lon="0.73797">
        <ele>199.3</ele>
        <time>2022-05-01T10:07:02Z</time>
      </trkpt>
      <trkpt lat="45.09289" lon="0.73798">
        <ele>199</ele>
        <time>2022-05-01T10:07:03Z</time>
      </trkpt>
      <trkpt lat="45.09287" lon="0.73802">
        <ele>199</ele>
        <time>2022-05-01T10:07:05Z</time>
      </trkpt>
      <trkpt lat="45.09286" lon="0.73808">
        <ele>199</ele>
        <time>2022-05-01T10:07:07Z</time>
      </trkpt>
      <trkpt lat="45.09285" lon="0.73811">
        <ele>199</ele>
        <time>2022-05-01T10:07:08Z</time>
      </trkpt>
      <trkpt lat="45.09284" lon="0.73813">
        <ele>198.9</ele>
        <time>2022-05-01T10:07:09Z</time>
      </trkpt>
      <trkpt lat="45.09285" lon="0.73817">
        <ele>199.1</ele>
        <time>2022-05-01T10:07:10Z</time>
      </trkpt>
      <trkpt lat="45.09284" lon="0.73819">
        <ele>199</ele>
        <time>2022-05-01T10:07:11Z</time>
      </trkpt>
      <trkpt lat="45.09281" lon="0.73821">
        <ele>199</ele>
        <time>2022-05-01T10:07:12Z</time>
      </trkpt>
      <trkpt lat="45.09282" lon="0.73823">
        <ele>199</ele>
        <time>2022-05-01T10:07:13Z</time>
      </trkpt>
      <trkpt lat="45.09282" lon="0.73827">
        <ele>199</ele>
        <time>2022-05-01T10:07:15Z</time>
      </trkpt>
      <trkpt lat="45.09281" lon="0.73831">
        <ele>199</ele>
        <time>2022-05-01T10:07:17Z</time>
      </trkpt>
      <trkpt lat="45.09279" lon="0.73836">
        <ele>197.9</ele>
        <time>2022-05-01T10:07:19Z</time>
      </trkpt>
      <trkpt lat="45.09279" lon="0.73837">
        <ele>197.9</ele>
        <time>2022-05-01T10:07:20Z</time>
      </trkpt>
      <trkpt lat="45.09277" lon="0.73839">
        <ele>197.9</ele>
        <time>2022-05-01T10:07:21Z</time>
      </trkpt>
      <trkpt lat="45.09273" lon="0.73842">
        <ele>197.9</ele>
        <time>2022-05-01T10:07:23Z</time>
      </trkpt>
      <trkpt lat="45.09271" lon="0.73844">
        <ele>197.8</ele>
        <time>2022-05-01T10:07:24Z</time>
      </trkpt>
      <trkpt lat="45.0927" lon="0.73847">
        <ele>198</ele>
        <time>2022-05-01T10:07:25Z</time>
      </trkpt>
      <trkpt lat="45.09269" lon="0.73853">
        <ele>198.2</ele>
        <time>2022-05-01T10:07:26Z</time>
      </trkpt>
      <trkpt lat="45.0927" lon="0.73854">
        <ele>198.3</ele>
        <time>2022-05-01T10:07:27Z</time>
      </trkpt>
      <trkpt lat="45.09272" lon="0.73859">
        <ele>198.5</ele>
        <time>2022-05-01T10:07:29Z</time>
      </trkpt>
      <trkpt lat="45.09273" lon="0.73862">
        <ele>198.7</ele>
        <time>2022-05-01T10:07:30Z</time>
      </trkpt>
      <trkpt lat="45.09275" lon="0.73864">
        <ele>198.9</ele>
        <time>2022-05-01T10:07:31Z</time>
      </trkpt>
      <trkpt lat="45.09274" lon="0.73869">
        <ele>199.2</ele>
        <time>2022-05-01T10:07:33Z</time>
      </trkpt>
      <trkpt lat="45.09274" lon="0.73874">
        <ele>199.5</ele>
        <time>2022-05-01T10:07:35Z</time>
      </trkpt>
      <trkpt lat="45.09273" lon="0.73879">
        <ele>199.7</ele>
        <time>2022-05-01T10:07:37Z</time>
      </trkpt>
      <trkpt lat="45.09273" lon="0.73881">
        <ele>199.9</ele>
        <time>2022-05-01T10:07:38Z</time>
      </trkpt>
      <trkpt lat="45.09272" lon="0.73884">
        <ele>200</ele>
        <time>2022-05-01T10:07:39Z</time>
      </trkpt>
      <trkpt lat="45.09271" lon="0.73888">
        <ele>200.3</ele>
        <time>2022-05-01T10:07:41Z</time>
      </trkpt>
      <trkpt lat="45.0927" lon="0.73893">
        <ele>200.5</ele>
        <time>2022-05-01T10:07:43Z</time>
      </trkpt>
      <trkpt lat="45.09268" lon="0.73898">
        <ele>200.8</ele>
        <time>2022-05-01T10:07:45Z</time>
      </trkpt>
      <trkpt lat="45.09268" lon="0.73901">
        <ele>201</ele>
        <time>2022-05-01T10:07:46Z</time>
      </trkpt>
      <trkpt lat="45.09267" lon="0.73903">
        <ele>201.1</ele>
        <time>2022-05-01T10:07:47Z</time>
      </trkpt>
      <trkpt lat="45.09265" lon="0.73909">
        <ele>201.4</ele>
        <time>2022-05-01T10:07:49Z</time>
      </trkpt>
      <trkpt lat="45.09264" lon="0.73912">
        <ele>201.6</ele>
        <time>2022-05-01T10:07:50Z</time>
      </trkpt>
      <trkpt lat="45.09263" lon="0.73914">
        <ele>201.7</ele>
        <time>2022-05-01T10:07:51Z</time>
      </trkpt>
      <trkpt lat="45.09261" lon="0.7392">
        <ele>202.1</ele>
        <time>2022-05-01T10:07:53Z</time>
      </trkpt>
      <trkpt lat="45.0926" lon="0.73924">
        <ele>202.3</ele>
        <time>2022-05-01T10:07:55Z</time>
      </trkpt>
      <trkpt lat="45.09258" lon="0.73929">
        <ele>202.6</ele>
        <time>2022-05-01T10:07:57Z</time>
      </trkpt>
      <trkpt lat="45.09257" lon="0.73931">
        <ele>202.8</ele>
        <time>2022-05-01T10:07:58Z</time>
      </trkpt>
      <trkpt lat="45.09256" lon="0.73934">
        <ele>202.9</ele>
        <time>2022-05-01T10:07:59Z</time>
      </trkpt>
      <trkpt lat="45.09255" lon="0.73939">
        <ele>203.3</ele>
        <time>2022-05-01T10:08:01Z</time>
      </trkpt>
      <trkpt lat="45.09253" lon="0.73944">
        <ele>203.6</ele>
        <time>2022-05-01T10:08:03Z</time>
      </trkpt>
      <trkpt lat="45.09251" lon="0.73949">
        <ele>203.9</ele>
        <time>2022-05-01T10:08:05Z</time>
      </trkpt>
      <trkpt lat="45.0925" lon="0.73954">
        <ele>204.2</ele>
        <time>2022-05-01T10:08:07Z</time>
      </trkpt>
      <trkpt lat="45.09249" lon="0.73957">
        <ele>204.4</ele>
        <time>2022-05-01T10:08:08Z</time>
      </trkpt>
      <trkpt lat="45.09248" lon="0.7396">
        <ele>204.6</ele>
        <time>2022-05-01T10:08:09Z</time>
      </trkpt>
      <trkpt lat="45.09247" lon="0.73964">
        <ele>204.8</ele>
        <time>2022-05-01T10:08:11Z</time>
      </trkpt>
      <trkpt lat="45.09246" lon="0.7397">
        <ele>205.1</ele>
        <time>2022-05-01T10:08:13Z</time>
      </trkpt>
      <trkpt lat="45.09245" lon="0.73976">
        <ele>205.4</ele>
        <time>2022-05-01T10:08:15Z</time>
      </trkpt>
      <trkpt lat="45.09244" lon="0.73979">
        <ele>205.6</ele>
        <time>2022-05-01T10:08:16Z</time>
      </trkpt>
      <trkpt lat="45.09243" lon="0.73982">
        <ele>205.8</ele>
        <time>2022-05-01T10:08:17Z</time>
      </trkpt>
      <trkpt lat="45.09243" lon="0.73984">
        <ele>205.9</ele>
        <time>2022-05-01T10:08:18Z</time>
      </trkpt>
      <trkpt lat="45.09242" lon="0.73987">
        <ele>206</ele>
        <time>2022-05-01T10:08:19Z</time>
      </trkpt>
      <trkpt lat="45.09242" lon="0.73989">
        <ele>206.2</ele>
        <time>2022-05-01T10:08:20Z</time>
      </trkpt>
      <trkpt lat="45.09241" lon="0.73992">
        <ele>206.3</ele>
        <time>2022-05-01T10:08:21Z</time>
      </trkpt>
      <trkpt lat="45.0924" lon="0.73997">
        <ele>206.6</ele>
        <time>2022-05-01T10:08:23Z</time>
      </trkpt>
      <trkpt lat="45.09239" lon="0.74001">
        <ele>206.7</ele>
        <time>2022-05-01T10:08:24Z</time>
      </trkpt>
      <trkpt lat="45.09239" lon="0.74004">
        <ele>206.9</ele>
        <time>2022-05-01T10:08:25Z</time>
      </trkpt>
      <trkpt lat="45.09237" lon="0.74011">
        <ele>207.3</ele>
        <time>2022-05-01T10:08:27Z</time>
      </trkpt>
      <trkpt lat="45.09235" lon="0.74018">
        <ele>207.7</ele>
        <time>2022-05-01T10:08:29Z</time>
      </trkpt>
      <trkpt lat="45.09235" lon="0.74022">
        <ele>207.8</ele>
        <time>2022-05-01T10:08:30Z</time>
      </trkpt>
      <trkpt lat="45.09234" lon="0.74025">
        <ele>208</ele>
        <time>2022-05-01T10:08:31Z</time>
      </trkpt>
      <trkpt lat="45.09233" lon="0.74031">
        <ele>208.3</ele>
        <time>2022-05-01T10:08:33Z</time>
      </trkpt>
      <trkpt lat="45.09233" lon="0.74037">
        <ele>208.5</ele>
        <time>2022-05-01T10:08:35Z</time>
      </trkpt>
      <trkpt lat="45.09232" lon="0.74042">
        <ele>208.8</ele>
        <time>2022-05-01T10:08:37Z</time>
      </trkpt>
      <trkpt lat="45.09231" lon="0.74048">
        <ele>209</ele>
        <time>2022-05-01T10:08:39Z</time>
      </trkpt>
      <trkpt lat="45.0923" lon="0.74053">
        <ele>209.2</ele>
        <time>2022-05-01T10:08:41Z</time>
      </trkpt>
      <trkpt lat="45.09229" lon="0.74059">
        <ele>209.5</ele>
        <time>2022-05-01T10:08:43Z</time>
      </trkpt>
      <trkpt lat="45.09228" lon="0.74065">
        <ele>209.7</ele>
        <time>2022-05-01T10:08:45Z</time>
      </trkpt>
      <trkpt lat="45.09227" lon="0.74071">
        <ele>210</ele>
        <time>2022-05-01T10:08:47Z</time>
      </trkpt>
      <trkpt lat="45.09226" lon="0.74076">
        <ele>210.2</ele>
        <time>2022-05-01T10:08:49Z</time>
      </trkpt>
      <trkpt lat="45.09225" lon="0.74082">
        <ele>210.4</ele>
        <time>2022-05-01T10:08:51Z</time>
      </trkpt>
      <trkpt lat="45.09225" lon="0.74088">
        <ele>210.7</ele>
        <time>2022-05-01T10:08:53Z</time>
      </trkpt>
      <trkpt lat="45.09224" lon="0.74094">
        <ele>210.9</ele>
        <time>2022-05-01T10:08:55Z</time>
      </trkpt>
      <trkpt lat="45.09223" lon="0.741">
        <ele>211.2</ele>
        <time>2022-05-01T10:08:57Z</time>
      </trkpt>
      <trkpt lat="45.09222" lon="0.74106">
        <ele>211.5</ele>
        <time>2022-05-01T10:08:59Z</time>
      </trkpt>
      <trkpt lat="45.09221" lon="0.74111">
        <ele>211.8</ele>
        <time>2022-05-01T10:09:01Z</time>
      </trkpt>
      <trkpt lat="45.0922" lon="0.74115">
        <ele>212</ele>
        <time>2022-05-01T10:09:03Z</time>
      </trkpt>
      <trkpt lat="45.0922" lon="0.74118">
        <ele>212.1</ele>
        <time>2022-05-01T10:09:04Z</time>
      </trkpt>
      <trkpt lat="45.0922" lon="0.74121">
        <ele>212.2</ele>
        <time>2022-05-01T10:09:05Z</time>
      </trkpt>
      <trkpt lat="45.0922" lon="0.74127">
        <ele>212.5</ele>
        <time>2022-05-01T10:09:07Z</time>
      </trkpt>
      <trkpt lat="45.09219" lon="0.74133">
        <ele>212.8</ele>
        <time>2022-05-01T10:09:09Z</time>
      </trkpt>
      <trkpt lat="45.09219" lon="0.74139">
        <ele>213.1</ele>
        <time>2022-05-01T10:09:11Z</time>
      </trkpt>
      <trkpt lat="45.09219" lon="0.74145">
        <ele>213.3</ele>
        <time>2022-05-01T10:09:13Z</time>
      </trkpt>
      <trkpt lat="45.09219" lon="0.74152">
        <ele>213.6</ele>
        <time>2022-05-01T10:09:15Z</time>
      </trkpt>
      <trkpt lat="45.0922" lon="0.74158">
        <ele>213.9</ele>
        <time>2022-05-01T10:09:17Z</time>
      </trkpt>
      <trkpt lat="45.09221" lon="0.74164">
        <ele>214.2</ele>
        <time>2022-05-01T10:09:19Z</time>
      </trkpt>
      <trkpt lat="45.09221" lon="0.74169">
        <ele>214.5</ele>
        <time>2022-05-01T10:09:21Z</time>
      </trkpt>
      <trkpt lat="45.09222" lon="0.74175">
        <ele>214.8</ele>
        <time>2022-05-01T10:09:23Z</time>
      </trkpt>
      <trkpt lat="45.09223" lon="0.74177">
        <ele>214.9</ele>
        <time>2022-05-01T10:09:24Z</time>
      </trkpt>
      <trkpt lat="45.09223" lon="0.7418">
        <ele>215</ele>
        <time>2022-05-01T10:09:25Z</time>
      </trkpt>
      <trkpt lat="45.09223" lon="0.74177">
        <ele>215.2</ele>
        <time>2022-05-01T10:09:27Z</time>
      </trkpt>
      <trkpt lat="45.09223" lon="0.74177">
        <ele>215.2</ele>
        <time>2022-05-01T10:09:28Z</time>
      </trkpt>
      <trkpt lat="45.09226" lon="0.74187">
        <ele>215.8</ele>
        <time>2022-05-01T10:09:29Z</time>
      </trkpt>
      <trkpt lat="45.09227" lon="0.7419">
        <ele>216</ele>
        <time>2022-05-01T10:09:30Z</time>
      </trkpt>
      <trkpt lat="45.09228" lon="0.74193">
        <ele>216.1</ele>
        <time>2022-05-01T10:09:31Z</time>
      </trkpt>
      <trkpt lat="45.09228" lon="0.74197">
        <ele>216.3</ele>
        <time>2022-05-01T10:09:32Z</time>
      </trkpt>
      <trkpt lat="45.09229" lon="0.74199">
        <ele>216.5</ele>
        <time>2022-05-01T10:09:33Z</time>
      </trkpt>
      <trkpt lat="45.09231" lon="0.74205">
        <ele>216.8</ele>
        <time>2022-05-01T10:09:35Z</time>
      </trkpt>
      <trkpt lat="45.09233" lon="0.7421">
        <ele>217.1</ele>
        <time>2022-05-01T10:09:37Z</time>
      </trkpt>
      <trkpt lat="45.09234" lon="0.74213">
        <ele>217.3</ele>
        <time>2022-05-01T10:09:38Z</time>
      </trkpt>
      <trkpt lat="45.09234" lon="0.74216">
        <ele>217.4</ele>
        <time>2022-05-01T10:09:39Z</time>
      </trkpt>
      <trkpt lat="45.09236" lon="0.74221">
        <ele>217.7</ele>
        <time>2022-05-01T10:09:41Z</time>
      </trkpt>
      <trkpt lat="45.09237" lon="0.74224">
        <ele>217.9</ele>
        <time>2022-05-01T10:09:42Z</time>
      </trkpt>
      <trkpt lat="45.09237" lon="0.74226">
        <ele>218</ele>
        <time>2022-05-01T10:09:43Z</time>
      </trkpt>
      <trkpt lat="45.09238" lon="0.74228">
        <ele>218.1</ele>
        <time>2022-05-01T10:09:44Z</time>
      </trkpt>
      <trkpt lat="45.09239" lon="0.74231">
        <ele>218.3</ele>
        <time>2022-05-01T10:09:45Z</time>
      </trkpt>
      <trkpt lat="45.09241" lon="0.74237">
        <ele>218.6</ele>
        <time>2022-05-01T10:09:47Z</time>
      </trkpt>
      <trkpt lat="45.09243" lon="0.74243">
        <ele>219</ele>
        <time>2022-05-01T10:09:49Z</time>
      </trkpt>
      <trkpt lat="45.09244" lon="0.74246">
        <ele>219.2</ele>
        <time>2022-05-01T10:09:50Z</time>
      </trkpt>
      <trkpt lat="45.09244" lon="0.74249">
        <ele>219.3</ele>
        <time>2022-05-01T10:09:51Z</time>
      </trkpt>
      <trkpt lat="45.09246" lon="0.74255">
        <ele>219.6</ele>
        <time>2022-05-01T10:09:53Z</time>
      </trkpt>
      <trkpt lat="45.09248" lon="0.74261">
        <ele>219.9</ele>
        <time>2022-05-01T10:09:55Z</time>
      </trkpt>
      <trkpt lat="45.09249" lon="0.74263">
        <ele>220</ele>
        <time>2022-05-01T10:09:56Z</time>
      </trkpt>
      <trkpt lat="45.0925" lon="0.74266">
        <ele>220.2</ele>
        <time>2022-05-01T10:09:57Z</time>
      </trkpt>
      <trkpt lat="45.09251" lon="0.74271">
        <ele>220.5</ele>
        <time>2022-05-01T10:09:59Z</time>
      </trkpt>
      <trkpt lat="45.09253" lon="0.74277">
        <ele>220.8</ele>
        <time>2022-05-01T10:10:01Z</time>
      </trkpt>
      <trkpt lat="45.09255" lon="0.74283">
        <ele>221.1</ele>
        <time>2022-05-01T10:10:03Z</time>
      </trkpt>
      <trkpt lat="45.09256" lon="0.74286">
        <ele>221.3</ele>
        <time>2022-05-01T10:10:04Z</time>
      </trkpt>
      <trkpt lat="45.09256" lon="0.74288">
        <ele>221.4</ele>
        <time>2022-05-01T10:10:05Z</time>
      </trkpt>
      <trkpt lat="45.09248" lon="0.74294">
        <ele>222.1</ele>
        <time>2022-05-01T10:10:07Z</time>
      </trkpt>
      <trkpt lat="45.09257" lon="0.7429">
        <ele>222.8</ele>
        <time>2022-05-01T10:10:08Z</time>
      </trkpt>
      <trkpt lat="45.09258" lon="0.74294">
        <ele>223</ele>
        <time>2022-05-01T10:10:09Z</time>
      </trkpt>
      <trkpt lat="45.09261" lon="0.74302">
        <ele>223.4</ele>
        <time>2022-05-01T10:10:11Z</time>
      </trkpt>
      <trkpt lat="45.0926" lon="0.74307">
        <ele>223.7</ele>
        <time>2022-05-01T10:10:13Z</time>
      </trkpt>
      <trkpt lat="45.09263" lon="0.74311">
        <ele>224.1</ele>
        <time>2022-05-01T10:10:15Z</time>
      </trkpt>
      <trkpt lat="45.09266" lon="0.74319">
        <ele>224.5</ele>
        <time>2022-05-01T10:10:17Z</time>
      </trkpt>
      <trkpt lat="45.09268" lon="0.74327">
        <ele>225</ele>
        <time>2022-05-01T10:10:19Z</time>
      </trkpt>
      <trkpt lat="45.0927" lon="0.74333">
        <ele>225.4</ele>
        <time>2022-05-01T10:10:21Z</time>
      </trkpt>
      <trkpt lat="45.09271" lon="0.74336">
        <ele>225.5</ele>
        <time>2022-05-01T10:10:22Z</time>
      </trkpt>
      <trkpt lat="45.09272" lon="0.74339">
        <ele>225.7</ele>
        <time>2022-05-01T10:10:23Z</time>
      </trkpt>
      <trkpt lat="45.09273" lon="0.74342">
        <ele>225.8</ele>
        <time>2022-05-01T10:10:24Z</time>
      </trkpt>
      <trkpt lat="45.09276" lon="0.74353">
        <ele>226.4</ele>
        <time>2022-05-01T10:10:25Z</time>
      </trkpt>
      <trkpt lat="45.09275" lon="0.7435">
        <ele>226.6</ele>
        <time>2022-05-01T10:10:27Z</time>
      </trkpt>
      <trkpt lat="45.09276" lon="0.74353">
        <ele>226.8</ele>
        <time>2022-05-01T10:10:28Z</time>
      </trkpt>
      <trkpt lat="45.09276" lon="0.74355">
        <ele>226.9</ele>
        <time>2022-05-01T10:10:29Z</time>
      </trkpt>
      <trkpt lat="45.09275" lon="0.74362">
        <ele>227.1</ele>
        <time>2022-05-01T10:10:31Z</time>
      </trkpt>
      <trkpt lat="45.09275" lon="0.74365">
        <ele>227.3</ele>
        <time>2022-05-01T10:10:32Z</time>
      </trkpt>
      <trkpt lat="45.09275" lon="0.74368">
        <ele>227.4</ele>
        <time>2022-05-01T10:10:33Z</time>
      </trkpt>
      <trkpt lat="45.09274" lon="0.74373">
        <ele>227.5</ele>
        <time>2022-05-01T10:10:35Z</time>
      </trkpt>
      <trkpt lat="45.09274" lon="0.74376">
        <ele>227.6</ele>
        <time>2022-05-01T10:10:37Z</time>
      </trkpt>
      <trkpt lat="45.09273" lon="0.74378">
        <ele>227.7</ele>
        <time>2022-05-01T10:10:38Z</time>
      </trkpt>
      <trkpt lat="45.09273" lon="0.7438">
        <ele>227.7</ele>
        <time>2022-05-01T10:10:39Z</time>
      </trkpt>
      <trkpt lat="45.09271" lon="0.74383">
        <ele>227.8</ele>
        <time>2022-05-01T10:10:41Z</time>
      </trkpt>
      <trkpt lat="45.0927" lon="0.74387">
        <ele>227.8</ele>
        <time>2022-05-01T10:10:43Z</time>
      </trkpt>
      <trkpt lat="45.0927" lon="0.74389">
        <ele>227.8</ele>
        <time>2022-05-01T10:10:44Z</time>
      </trkpt>
      <trkpt lat="45.09269" lon="0.7439">
        <ele>227.9</ele>
        <time>2022-05-01T10:10:45Z</time>
      </trkpt>
      <trkpt lat="45.09268" lon="0.74393">
        <ele>227.9</ele>
        <time>2022-05-01T10:10:47Z</time>
      </trkpt>
      <trkpt lat="45.09267" lon="0.74397">
        <ele>227.9</ele>
        <time>2022-05-01T10:10:49Z</time>
      </trkpt>
      <trkpt lat="45.09265" lon="0.74399">
        <ele>228</ele>
        <time>2022-05-01T10:10:51Z</time>
      </trkpt>
      <trkpt lat="45.09263" lon="0.74401">
        <ele>228.1</ele>
        <time>2022-05-01T10:10:53Z</time>
      </trkpt>
      <trkpt lat="45.09262" lon="0.74403">
        <ele>228.1</ele>
        <time>2022-05-01T10:10:55Z</time>
      </trkpt>
      <trkpt lat="45.09261" lon="0.74405">
        <ele>228.2</ele>
        <time>2022-05-01T10:10:56Z</time>
      </trkpt>
      <trkpt lat="45.0926" lon="0.74406">
        <ele>228.2</ele>
        <time>2022-05-01T10:10:57Z</time>
      </trkpt>
      <trkpt lat="45.09259" lon="0.74407">
        <ele>228.3</ele>
        <time>2022-05-01T10:10:58Z</time>
      </trkpt>
      <trkpt lat="45.09258" lon="0.74407">
        <ele>228.3</ele>
        <time>2022-05-01T10:10:59Z</time>
      </trkpt>
      <trkpt lat="45.09256" lon="0.74408">
        <ele>228.4</ele>
        <time>2022-05-01T10:11:01Z</time>
      </trkpt>
      <trkpt lat="45.09254" lon="0.74409">
        <ele>228.5</ele>
        <time>2022-05-01T10:11:03Z</time>
      </trkpt>
      <trkpt lat="45.09251" lon="0.74411">
        <ele>228.6</ele>
        <time>2022-05-01T10:11:05Z</time>
      </trkpt>
      <trkpt lat="45.09249" lon="0.74412">
        <ele>228.7</ele>
        <time>2022-05-01T10:11:07Z</time>
      </trkpt>
      <trkpt lat="45.09246" lon="0.74413">
        <ele>228.8</ele>
        <time>2022-05-01T10:11:09Z</time>
      </trkpt>
      <trkpt lat="45.09244" lon="0.74413">
        <ele>228.9</ele>
        <time>2022-05-01T10:11:11Z</time>
      </trkpt>
      <trkpt lat="45.09242" lon="0.74413">
        <ele>229</ele>
        <time>2022-05-01T10:11:13Z</time>
      </trkpt>
      <trkpt lat="45.0924" lon="0.74412">
        <ele>229.1</ele>
        <time>2022-05-01T10:11:15Z</time>
      </trkpt>
      <trkpt lat="45.09236" lon="0.74412">
        <ele>229.2</ele>
        <time>2022-05-01T10:11:17Z</time>
      </trkpt>
      <trkpt lat="45.09234" lon="0.74412">
        <ele>229.4</ele>
        <time>2022-05-01T10:11:19Z</time>
      </trkpt>
      <trkpt lat="45.09231" lon="0.74411">
        <ele>229.5</ele>
        <time>2022-05-01T10:11:21Z</time>
      </trkpt>
      <trkpt lat="45.09227" lon="0.7441">
        <ele>229.7</ele>
        <time>2022-05-01T10:11:23Z</time>
      </trkpt>
      <trkpt lat="45.09226" lon="0.7441">
        <ele>229.8</ele>
        <time>2022-05-01T10:11:24Z</time>
      </trkpt>
      <trkpt lat="45.09224" lon="0.74409">
        <ele>229.9</ele>
        <time>2022-05-01T10:11:25Z</time>
      </trkpt>
      <trkpt lat="45.09221" lon="0.74407">
        <ele>230.1</ele>
        <time>2022-05-01T10:11:27Z</time>
      </trkpt>
      <trkpt lat="45.09219" lon="0.74407">
        <ele>230.2</ele>
        <time>2022-05-01T10:11:28Z</time>
      </trkpt>
      <trkpt lat="45.09218" lon="0.74406">
        <ele>230.3</ele>
        <time>2022-05-01T10:11:29Z</time>
      </trkpt>
      <trkpt lat="45.09215" lon="0.74405">
        <ele>230.5</ele>
        <time>2022-05-01T10:11:31Z</time>
      </trkpt>
      <trkpt lat="45.09212" lon="0.74403">
        <ele>230.7</ele>
        <time>2022-05-01T10:11:33Z</time>
      </trkpt>
      <trkpt lat="45.09211" lon="0.74403">
        <ele>230.8</ele>
        <time>2022-05-01T10:11:34Z</time>
      </trkpt>
      <trkpt lat="45.09209" lon="0.74402">
        <ele>230.9</ele>
        <time>2022-05-01T10:11:35Z</time>
      </trkpt>
      <trkpt lat="45.09206" lon="0.74401">
        <ele>231.1</ele>
        <time>2022-05-01T10:11:37Z</time>
      </trkpt>
      <trkpt lat="45.09203" lon="0.744">
        <ele>231.3</ele>
        <time>2022-05-01T10:11:39Z</time>
      </trkpt>
      <trkpt lat="45.092" lon="0.744">
        <ele>231.5</ele>
        <time>2022-05-01T10:11:41Z</time>
      </trkpt>
      <trkpt lat="45.09198" lon="0.744">
        <ele>231.6</ele>
        <time>2022-05-01T10:11:42Z</time>
      </trkpt>
      <trkpt lat="45.09196" lon="0.744">
        <ele>231.8</ele>
        <time>2022-05-01T10:11:43Z</time>
      </trkpt>
      <trkpt lat="45.09193" lon="0.74399">
        <ele>232.1</ele>
        <time>2022-05-01T10:11:45Z</time>
      </trkpt>
      <trkpt lat="45.0919" lon="0.74399">
        <ele>232.3</ele>
        <time>2022-05-01T10:11:47Z</time>
      </trkpt>
      <trkpt lat="45.09188" lon="0.74399">
        <ele>232.4</ele>
        <time>2022-05-01T10:11:48Z</time>
      </trkpt>
      <trkpt lat="45.09186" lon="0.74399">
        <ele>232.6</ele>
        <time>2022-05-01T10:11:49Z</time>
      </trkpt>
      <trkpt lat="45.09184" lon="0.74399">
        <ele>232.7</ele>
        <time>2022-05-01T10:11:51Z</time>
      </trkpt>
      <trkpt lat="45.09181" lon="0.74398">
        <ele>233</ele>
        <time>2022-05-01T10:11:53Z</time>
      </trkpt>
      <trkpt lat="45.0918" lon="0.74398">
        <ele>233.1</ele>
        <time>2022-05-01T10:11:55Z</time>
      </trkpt>
      <trkpt lat="45.09179" lon="0.74398">
        <ele>233.2</ele>
        <time>2022-05-01T10:11:56Z</time>
      </trkpt>
      <trkpt lat="45.09176" lon="0.74401">
        <ele>233.4</ele>
        <time>2022-05-01T10:11:57Z</time>
      </trkpt>
      <trkpt lat="45.09173" lon="0.74407">
        <ele>233.7</ele>
        <time>2022-05-01T10:11:59Z</time>
      </trkpt>
      <trkpt lat="45.09173" lon="0.7441">
        <ele>233.7</ele>
        <time>2022-05-01T10:12:01Z</time>
      </trkpt>
      <trkpt lat="45.09173" lon="0.74412">
        <ele>233.8</ele>
        <time>2022-05-01T10:12:02Z</time>
      </trkpt>
      <trkpt lat="45.09172" lon="0.74415">
        <ele>233.8</ele>
        <time>2022-05-01T10:12:03Z</time>
      </trkpt>
      <trkpt lat="45.09172" lon="0.74418">
        <ele>233.8</ele>
        <time>2022-05-01T10:12:05Z</time>
      </trkpt>
      <trkpt lat="45.09172" lon="0.74421">
        <ele>233.8</ele>
        <time>2022-05-01T10:12:07Z</time>
      </trkpt>
      <trkpt lat="45.09172" lon="0.74424">
        <ele>233.8</ele>
        <time>2022-05-01T10:12:08Z</time>
      </trkpt>
      <trkpt lat="45.09173" lon="0.74426">
        <ele>233.8</ele>
        <time>2022-05-01T10:12:09Z</time>
      </trkpt>
      <trkpt lat="45.09174" lon="0.74429">
        <ele>233.8</ele>
        <time>2022-05-01T10:12:10Z</time>
      </trkpt>
      <trkpt lat="45.09175" lon="0.74431">
        <ele>233.8</ele>
        <time>2022-05-01T10:12:11Z</time>
      </trkpt>
      <trkpt lat="45.09176" lon="0.74434">
        <ele>233.7</ele>
        <time>2022-05-01T10:12:12Z</time>
      </trkpt>
      <trkpt lat="45.09177" lon="0.74436">
        <ele>233.7</ele>
        <time>2022-05-01T10:12:13Z</time>
      </trkpt>
      <trkpt lat="45.09178" lon="0.74439">
        <ele>233.6</ele>
        <time>2022-05-01T10:12:14Z</time>
      </trkpt>
      <trkpt lat="45.09179" lon="0.74442">
        <ele>233.5</ele>
        <time>2022-05-01T10:12:15Z</time>
      </trkpt>
      <trkpt lat="45.09183" lon="0.74451">
        <ele>233.3</ele>
        <time>2022-05-01T10:12:17Z</time>
      </trkpt>
      <trkpt lat="45.09185" lon="0.74455">
        <ele>233.2</ele>
        <time>2022-05-01T10:12:18Z</time>
      </trkpt>
      <trkpt lat="45.09188" lon="0.74461">
        <ele>233.2</ele>
        <time>2022-05-01T10:12:19Z</time>
      </trkpt>
      <trkpt lat="45.09192" lon="0.74472">
        <ele>233.1</ele>
        <time>2022-05-01T10:12:21Z</time>
      </trkpt>
      <trkpt lat="45.09193" lon="0.74477">
        <ele>233</ele>
        <time>2022-05-01T10:12:22Z</time>
      </trkpt>
      <trkpt lat="45.09195" lon="0.74481">
        <ele>233</ele>
        <time>2022-05-01T10:12:23Z</time>
      </trkpt>
      <trkpt lat="45.09198" lon="0.74491">
        <ele>233.1</ele>
        <time>2022-05-01T10:12:25Z</time>
      </trkpt>
      <trkpt lat="45.09199" lon="0.74495">
        <ele>233.2</ele>
        <time>2022-05-01T10:12:26Z</time>
      </trkpt>
      <trkpt lat="45.092" lon="0.74499">
        <ele>233.2</ele>
        <time>2022-05-01T10:12:27Z</time>
      </trkpt>
      <trkpt lat="45.09201" lon="0.74502">
        <ele>233.3</ele>
        <time>2022-05-01T10:12:28Z</time>
      </trkpt>
      <trkpt lat="45.09201" lon="0.74505">
        <ele>233.3</ele>
        <time>2022-05-01T10:12:29Z</time>
      </trkpt>
      <trkpt lat="45.09202" lon="0.74509">
        <ele>233.4</ele>
        <time>2022-05-01T10:12:30Z</time>
      </trkpt>
      <trkpt lat="45.09203" lon="0.74512">
        <ele>233.4</ele>
        <time>2022-05-01T10:12:31Z</time>
      </trkpt>
      <trkpt lat="45.09205" lon="0.7452">
        <ele>233.6</ele>
        <time>2022-05-01T10:12:33Z</time>
      </trkpt>
      <trkpt lat="45.09206" lon="0.74528">
        <ele>233.7</ele>
        <time>2022-05-01T10:12:35Z</time>
      </trkpt>
      <trkpt lat="45.09207" lon="0.74532">
        <ele>233.8</ele>
        <time>2022-05-01T10:12:36Z</time>
      </trkpt>
      <trkpt lat="45.09208" lon="0.74536">
        <ele>233.8</ele>
        <time>2022-05-01T10:12:37Z</time>
      </trkpt>
      <trkpt lat="45.09209" lon="0.74544">
        <ele>233.9</ele>
        <time>2022-05-01T10:12:39Z</time>
      </trkpt>
      <trkpt lat="45.09211" lon="0.74551">
        <ele>234</ele>
        <time>2022-05-01T10:12:41Z</time>
      </trkpt>
      <trkpt lat="45.09212" lon="0.7456">
        <ele>234.2</ele>
        <time>2022-05-01T10:12:43Z</time>
      </trkpt>
      <trkpt lat="45.09213" lon="0.74568">
        <ele>234.3</ele>
        <time>2022-05-01T10:12:45Z</time>
      </trkpt>
      <trkpt lat="45.09214" lon="0.74576">
        <ele>234.5</ele>
        <time>2022-05-01T10:12:47Z</time>
      </trkpt>
      <trkpt lat="45.09214" lon="0.7458">
        <ele>234.6</ele>
        <time>2022-05-01T10:12:48Z</time>
      </trkpt>
      <trkpt lat="45.09215" lon="0.74584">
        <ele>234.7</ele>
        <time>2022-05-01T10:12:49Z</time>
      </trkpt>
      <trkpt lat="45.09217" lon="0.74593">
        <ele>235</ele>
        <time>2022-05-01T10:12:51Z</time>
      </trkpt>
      <trkpt lat="45.0922" lon="0.746">
        <ele>235.2</ele>
        <time>2022-05-01T10:12:53Z</time>
      </trkpt>
      <trkpt lat="45.09221" lon="0.74603">
        <ele>235.3</ele>
        <time>2022-05-01T10:12:54Z</time>
      </trkpt>
      <trkpt lat="45.09223" lon="0.74606">
        <ele>235.4</ele>
        <time>2022-05-01T10:12:55Z</time>
      </trkpt>
      <trkpt lat="45.09227" lon="0.74613">
        <ele>235.7</ele>
        <time>2022-05-01T10:12:57Z</time>
      </trkpt>
      <trkpt lat="45.09228" lon="0.7462">
        <ele>235.9</ele>
        <time>2022-05-01T10:12:59Z</time>
      </trkpt>
      <trkpt lat="45.09235" lon="0.74624">
        <ele>236.2</ele>
        <time>2022-05-01T10:13:01Z</time>
      </trkpt>
      <trkpt lat="45.09241" lon="0.74625">
        <ele>236.2</ele>
        <time>2022-05-01T10:13:03Z</time>
      </trkpt>
      <trkpt lat="45.09247" lon="0.74626">
        <ele>236.1</ele>
        <time>2022-05-01T10:13:05Z</time>
      </trkpt>
      <trkpt lat="45.09253" lon="0.74627">
        <ele>236.2</ele>
        <time>2022-05-01T10:13:07Z</time>
      </trkpt>
      <trkpt lat="45.0926" lon="0.74625">
        <ele>236.1</ele>
        <time>2022-05-01T10:13:09Z</time>
      </trkpt>
      <trkpt lat="45.09268" lon="0.74624">
        <ele>236.1</ele>
        <time>2022-05-01T10:13:11Z</time>
      </trkpt>
      <trkpt lat="45.09274" lon="0.74623">
        <ele>236.2</ele>
        <time>2022-05-01T10:13:13Z</time>
      </trkpt>
      <trkpt lat="45.09282" lon="0.74622">
        <ele>236.2</ele>
        <time>2022-05-01T10:13:15Z</time>
      </trkpt>
      <trkpt lat="45.09287" lon="0.74621">
        <ele>235.6</ele>
        <time>2022-05-01T10:13:16Z</time>
      </trkpt>
      <trkpt lat="45.0929" lon="0.7462">
        <ele>235.6</ele>
        <time>2022-05-01T10:13:17Z</time>
      </trkpt>
      <trkpt lat="45.09295" lon="0.74616">
        <ele>235.7</ele>
        <time>2022-05-01T10:13:19Z</time>
      </trkpt>
      <trkpt lat="45.09299" lon="0.74616">
        <ele>235.7</ele>
        <time>2022-05-01T10:13:20Z</time>
      </trkpt>
      <trkpt lat="45.09304" lon="0.74615">
        <ele>235.9</ele>
        <time>2022-05-01T10:13:21Z</time>
      </trkpt>
      <trkpt lat="45.09313" lon="0.74613">
        <ele>235.9</ele>
        <time>2022-05-01T10:13:23Z</time>
      </trkpt>
      <trkpt lat="45.09322" lon="0.74611">
        <ele>236.2</ele>
        <time>2022-05-01T10:13:25Z</time>
      </trkpt>
      <trkpt lat="45.09327" lon="0.7461">
        <ele>236.2</ele>
        <time>2022-05-01T10:13:26Z</time>
      </trkpt>
      <trkpt lat="45.09332" lon="0.7461">
        <ele>236.5</ele>
        <time>2022-05-01T10:13:27Z</time>
      </trkpt>
      <trkpt lat="45.0934" lon="0.74609">
        <ele>236.8</ele>
        <time>2022-05-01T10:13:29Z</time>
      </trkpt>
      <trkpt lat="45.09349" lon="0.74608">
        <ele>236.8</ele>
        <time>2022-05-01T10:13:31Z</time>
      </trkpt>
      <trkpt lat="45.09357" lon="0.74608">
        <ele>237.2</ele>
        <time>2022-05-01T10:13:33Z</time>
      </trkpt>
      <trkpt lat="45.09366" lon="0.74607">
        <ele>237.5</ele>
        <time>2022-05-01T10:13:35Z</time>
      </trkpt>
      <trkpt lat="45.09369" lon="0.74606">
        <ele>237.5</ele>
        <time>2022-05-01T10:13:37Z</time>
      </trkpt>
      <trkpt lat="45.09369" lon="0.74605">
        <ele>237.5</ele>
        <time>2022-05-01T10:13:38Z</time>
      </trkpt>
      <trkpt lat="45.0937" lon="0.74605">
        <ele>237.5</ele>
        <time>2022-05-01T10:13:39Z</time>
      </trkpt>
      <trkpt lat="45.09385" lon="0.74605">
        <ele>237.7</ele>
        <time>2022-05-01T10:13:41Z</time>
      </trkpt>
      <trkpt lat="45.09399" lon="0.74604">
        <ele>237.8</ele>
        <time>2022-05-01T10:13:43Z</time>
      </trkpt>
      <trkpt lat="45.09404" lon="0.74606">
        <ele>237.8</ele>
        <time>2022-05-01T10:13:44Z</time>
      </trkpt>
      <trkpt lat="45.0941" lon="0.74605">
        <ele>237.9</ele>
        <time>2022-05-01T10:13:45Z</time>
      </trkpt>
      <trkpt lat="45.09415" lon="0.74604">
        <ele>237.8</ele>
        <time>2022-05-01T10:13:46Z</time>
      </trkpt>
      <trkpt lat="45.09421" lon="0.74604">
        <ele>237.1</ele>
        <time>2022-05-01T10:13:47Z</time>
      </trkpt>
      <trkpt lat="45.09434" lon="0.74603">
        <ele>237</ele>
        <time>2022-05-01T10:13:49Z</time>
      </trkpt>
      <trkpt lat="45.09446" lon="0.74602">
        <ele>236.9</ele>
        <time>2022-05-01T10:13:51Z</time>
      </trkpt>
      <trkpt lat="45.09458" lon="0.74603">
        <ele>236.9</ele>
        <time>2022-05-01T10:13:53Z</time>
      </trkpt>
      <trkpt lat="45.0946" lon="0.74601">
        <ele>236.9</ele>
        <time>2022-05-01T10:13:54Z</time>
      </trkpt>
      <trkpt lat="45.09466" lon="0.74602">
        <ele>236.9</ele>
        <time>2022-05-01T10:13:55Z</time>
      </trkpt>
      <trkpt lat="45.09479" lon="0.74603">
        <ele>236.8</ele>
        <time>2022-05-01T10:13:57Z</time>
      </trkpt>
      <trkpt lat="45.09491" lon="0.74603">
        <ele>236.9</ele>
        <time>2022-05-01T10:13:59Z</time>
      </trkpt>
      <trkpt lat="45.09499" lon="0.74599">
        <ele>237</ele>
        <time>2022-05-01T10:14:01Z</time>
      </trkpt>
      <trkpt lat="45.0951" lon="0.74597">
        <ele>237.1</ele>
        <time>2022-05-01T10:14:03Z</time>
      </trkpt>
      <trkpt lat="45.09521" lon="0.74594">
        <ele>237.1</ele>
        <time>2022-05-01T10:14:05Z</time>
      </trkpt>
      <trkpt lat="45.09533" lon="0.74591">
        <ele>237.2</ele>
        <time>2022-05-01T10:14:07Z</time>
      </trkpt>
      <trkpt lat="45.09543" lon="0.74587">
        <ele>237.1</ele>
        <time>2022-05-01T10:14:09Z</time>
      </trkpt>
      <trkpt lat="45.09548" lon="0.74584">
        <ele>236.7</ele>
        <time>2022-05-01T10:14:10Z</time>
      </trkpt>
      <trkpt lat="45.09551" lon="0.74581">
        <ele>236.7</ele>
        <time>2022-05-01T10:14:11Z</time>
      </trkpt>
      <trkpt lat="45.09557" lon="0.74579">
        <ele>236.7</ele>
        <time>2022-05-01T10:14:12Z</time>
      </trkpt>
      <trkpt lat="45.09561" lon="0.74577">
        <ele>236.8</ele>
        <time>2022-05-01T10:14:13Z</time>
      </trkpt>
      <trkpt lat="45.09571" lon="0.74571">
        <ele>236.9</ele>
        <time>2022-05-01T10:14:15Z</time>
      </trkpt>
      <trkpt lat="45.09578" lon="0.7457">
        <ele>236.6</ele>
        <time>2022-05-01T10:14:16Z</time>
      </trkpt>
      <trkpt lat="45.09582" lon="0.74567">
        <ele>236.8</ele>
        <time>2022-05-01T10:14:17Z</time>
      </trkpt>
      <trkpt lat="45.09588" lon="0.74566">
        <ele>236.8</ele>
        <time>2022-05-01T10:14:18Z</time>
      </trkpt>
      <trkpt lat="45.09593" lon="0.74564">
        <ele>236.8</ele>
        <time>2022-05-01T10:14:19Z</time>
      </trkpt>
      <trkpt lat="45.09603" lon="0.74558">
        <ele>237</ele>
        <time>2022-05-01T10:14:21Z</time>
      </trkpt>
      <trkpt lat="45.09607" lon="0.74555">
        <ele>237.3</ele>
        <time>2022-05-01T10:14:22Z</time>
      </trkpt>
      <trkpt lat="45.0961" lon="0.74552">
        <ele>237.1</ele>
        <time>2022-05-01T10:14:23Z</time>
      </trkpt>
      <trkpt lat="45.09615" lon="0.7455">
        <ele>237.1</ele>
        <time>2022-05-01T10:14:25Z</time>
      </trkpt>
      <trkpt lat="45.09619" lon="0.74551">
        <ele>237.4</ele>
        <time>2022-05-01T10:14:26Z</time>
      </trkpt>
      <trkpt lat="45.09622" lon="0.74553">
        <ele>237.7</ele>
        <time>2022-05-01T10:14:27Z</time>
      </trkpt>
      <trkpt lat="45.0963" lon="0.74547">
        <ele>237.5</ele>
        <time>2022-05-01T10:14:28Z</time>
      </trkpt>
      <trkpt lat="45.09631" lon="0.74549">
        <ele>237.5</ele>
        <time>2022-05-01T10:14:29Z</time>
      </trkpt>
      <trkpt lat="45.09634" lon="0.74556">
        <ele>237.7</ele>
        <time>2022-05-01T10:14:31Z</time>
      </trkpt>
      <trkpt lat="45.09637" lon="0.74563">
        <ele>237.9</ele>
        <time>2022-05-01T10:14:33Z</time>
      </trkpt>
      <trkpt lat="45.09641" lon="0.7457">
        <ele>238.1</ele>
        <time>2022-05-01T10:14:35Z</time>
      </trkpt>
      <trkpt lat="45.09642" lon="0.74573">
        <ele>238.2</ele>
        <time>2022-05-01T10:14:36Z</time>
      </trkpt>
      <trkpt lat="45.09644" lon="0.74576">
        <ele>238.2</ele>
        <time>2022-05-01T10:14:37Z</time>
      </trkpt>
      <trkpt lat="45.09647" lon="0.74582">
        <ele>238.4</ele>
        <time>2022-05-01T10:14:39Z</time>
      </trkpt>
      <trkpt lat="45.0965" lon="0.74589">
        <ele>238.5</ele>
        <time>2022-05-01T10:14:41Z</time>
      </trkpt>
      <trkpt lat="45.09654" lon="0.74597">
        <ele>238.7</ele>
        <time>2022-05-01T10:14:43Z</time>
      </trkpt>
      <trkpt lat="45.09657" lon="0.74603">
        <ele>238.8</ele>
        <time>2022-05-01T10:14:45Z</time>
      </trkpt>
      <trkpt lat="45.09661" lon="0.74611">
        <ele>238.9</ele>
        <time>2022-05-01T10:14:47Z</time>
      </trkpt>
      <trkpt lat="45.09664" lon="0.74618">
        <ele>238.9</ele>
        <time>2022-05-01T10:14:49Z</time>
      </trkpt>
      <trkpt lat="45.09668" lon="0.74625">
        <ele>239</ele>
        <time>2022-05-01T10:14:51Z</time>
      </trkpt>
      <trkpt lat="45.09671" lon="0.74632">
        <ele>239</ele>
        <time>2022-05-01T10:14:53Z</time>
      </trkpt>
      <trkpt lat="45.09675" lon="0.74639">
        <ele>238.9</ele>
        <time>2022-05-01T10:14:55Z</time>
      </trkpt>
      <trkpt lat="45.09678" lon="0.74645">
        <ele>238.9</ele>
        <time>2022-05-01T10:14:57Z</time>
      </trkpt>
      <trkpt lat="45.09681" lon="0.74652">
        <ele>238.8</ele>
        <time>2022-05-01T10:14:59Z</time>
      </trkpt>
      <trkpt lat="45.09684" lon="0.74659">
        <ele>238.7</ele>
        <time>2022-05-01T10:15:01Z</time>
      </trkpt>
      <trkpt lat="45.09686" lon="0.74662">
        <ele>238.6</ele>
        <time>2022-05-01T10:15:02Z</time>
      </trkpt>
      <trkpt lat="45.09688" lon="0.74665">
        <ele>238.5</ele>
        <time>2022-05-01T10:15:03Z</time>
      </trkpt>
      <trkpt lat="45.09693" lon="0.74671">
        <ele>238.3</ele>
        <time>2022-05-01T10:15:05Z</time>
      </trkpt>
      <trkpt lat="45.09697" lon="0.74677">
        <ele>238.1</ele>
        <time>2022-05-01T10:15:07Z</time>
      </trkpt>
      <trkpt lat="45.097" lon="0.7468">
        <ele>237.9</ele>
        <time>2022-05-01T10:15:08Z</time>
      </trkpt>
      <trkpt lat="45.09702" lon="0.74684">
        <ele>237.8</ele>
        <time>2022-05-01T10:15:09Z</time>
      </trkpt>
      <trkpt lat="45.09708" lon="0.74691">
        <ele>237.4</ele>
        <time>2022-05-01T10:15:11Z</time>
      </trkpt>
      <trkpt lat="45.09714" lon="0.74698">
        <ele>237.1</ele>
        <time>2022-05-01T10:15:13Z</time>
      </trkpt>
      <trkpt lat="45.09722" lon="0.74705">
        <ele>236.7</ele>
        <time>2022-05-01T10:15:15Z</time>
      </trkpt>
      <trkpt lat="45.09731" lon="0.74712">
        <ele>236.3</ele>
        <time>2022-05-01T10:15:17Z</time>
      </trkpt>
      <trkpt lat="45.09735" lon="0.74715">
        <ele>236.2</ele>
        <time>2022-05-01T10:15:18Z</time>
      </trkpt>
      <trkpt lat="45.09739" lon="0.74718">
        <ele>236</ele>
        <time>2022-05-01T10:15:19Z</time>
      </trkpt>
      <trkpt lat="45.09747" lon="0.74725">
        <ele>235.8</ele>
        <time>2022-05-01T10:15:21Z</time>
      </trkpt>
      <trkpt lat="45.09754" lon="0.7473">
        <ele>235.6</ele>
        <time>2022-05-01T10:15:23Z</time>
      </trkpt>
      <trkpt lat="45.09761" lon="0.74736">
        <ele>235.4</ele>
        <time>2022-05-01T10:15:25Z</time>
      </trkpt>
      <trkpt lat="45.09765" lon="0.74739">
        <ele>235.3</ele>
        <time>2022-05-01T10:15:26Z</time>
      </trkpt>
      <trkpt lat="45.09768" lon="0.74742">
        <ele>235.2</ele>
        <time>2022-05-01T10:15:27Z</time>
      </trkpt>
      <trkpt lat="45.09775" lon="0.74748">
        <ele>235</ele>
        <time>2022-05-01T10:15:29Z</time>
      </trkpt>
      <trkpt lat="45.09783" lon="0.74755">
        <ele>234.9</ele>
        <time>2022-05-01T10:15:31Z</time>
      </trkpt>
      <trkpt lat="45.09786" lon="0.74758">
        <ele>234.8</ele>
        <time>2022-05-01T10:15:32Z</time>
      </trkpt>
      <trkpt lat="45.0979" lon="0.74761">
        <ele>234.7</ele>
        <time>2022-05-01T10:15:33Z</time>
      </trkpt>
      <trkpt lat="45.09798" lon="0.74768">
        <ele>234.5</ele>
        <time>2022-05-01T10:15:35Z</time>
      </trkpt>
      <trkpt lat="45.09805" lon="0.74775">
        <ele>234.3</ele>
        <time>2022-05-01T10:15:37Z</time>
      </trkpt>
      <trkpt lat="45.09808" lon="0.74778">
        <ele>234.3</ele>
        <time>2022-05-01T10:15:38Z</time>
      </trkpt>
      <trkpt lat="45.09811" lon="0.74781">
        <ele>234.2</ele>
        <time>2022-05-01T10:15:39Z</time>
      </trkpt>
      <trkpt lat="45.09819" lon="0.74788">
        <ele>234</ele>
        <time>2022-05-01T10:15:41Z</time>
      </trkpt>
      <trkpt lat="45.09826" lon="0.74795">
        <ele>233.8</ele>
        <time>2022-05-01T10:15:43Z</time>
      </trkpt>
      <trkpt lat="45.09833" lon="0.74802">
        <ele>233.7</ele>
        <time>2022-05-01T10:15:45Z</time>
      </trkpt>
      <trkpt lat="45.09839" lon="0.74808">
        <ele>233.5</ele>
        <time>2022-05-01T10:15:47Z</time>
      </trkpt>
      <trkpt lat="45.09847" lon="0.74815">
        <ele>233.4</ele>
        <time>2022-05-01T10:15:49Z</time>
      </trkpt>
      <trkpt lat="45.0985" lon="0.74819">
        <ele>233.3</ele>
        <time>2022-05-01T10:15:50Z</time>
      </trkpt>
      <trkpt lat="45.09854" lon="0.74822">
        <ele>233.2</ele>
        <time>2022-05-01T10:15:51Z</time>
      </trkpt>
      <trkpt lat="45.09862" lon="0.7483">
        <ele>233</ele>
        <time>2022-05-01T10:15:53Z</time>
      </trkpt>
      <trkpt lat="45.09869" lon="0.74837">
        <ele>232.8</ele>
        <time>2022-05-01T10:15:55Z</time>
      </trkpt>
      <trkpt lat="45.09876" lon="0.74844">
        <ele>232.5</ele>
        <time>2022-05-01T10:15:57Z</time>
      </trkpt>
      <trkpt lat="45.09884" lon="0.74851">
        <ele>232.3</ele>
        <time>2022-05-01T10:15:59Z</time>
      </trkpt>
      <trkpt lat="45.09891" lon="0.74859">
        <ele>232.1</ele>
        <time>2022-05-01T10:16:01Z</time>
      </trkpt>
      <trkpt lat="45.09899" lon="0.74866">
        <ele>231.9</ele>
        <time>2022-05-01T10:16:03Z</time>
      </trkpt>
      <trkpt lat="45.09902" lon="0.7488">
        <ele>231.5</ele>
        <time>2022-05-01T10:16:05Z</time>
      </trkpt>
      <trkpt lat="45.099" lon="0.74884">
        <ele>231.3</ele>
        <time>2022-05-01T10:16:06Z</time>
      </trkpt>
      <trkpt lat="45.09898" lon="0.74889">
        <ele>231.1</ele>
        <time>2022-05-01T10:16:07Z</time>
      </trkpt>
      <trkpt lat="45.09896" lon="0.74894">
        <ele>230.8</ele>
        <time>2022-05-01T10:16:08Z</time>
      </trkpt>
      <trkpt lat="45.09893" lon="0.749">
        <ele>230.5</ele>
        <time>2022-05-01T10:16:09Z</time>
      </trkpt>
      <trkpt lat="45.09888" lon="0.74913">
        <ele>229.8</ele>
        <time>2022-05-01T10:16:11Z</time>
      </trkpt>
      <trkpt lat="45.09882" lon="0.74927">
        <ele>228.9</ele>
        <time>2022-05-01T10:16:13Z</time>
      </trkpt>
      <trkpt lat="45.09878" lon="0.74935">
        <ele>228.4</ele>
        <time>2022-05-01T10:16:14Z</time>
      </trkpt>
      <trkpt lat="45.09874" lon="0.74944">
        <ele>227.8</ele>
        <time>2022-05-01T10:16:15Z</time>
      </trkpt>
      <trkpt lat="45.09865" lon="0.74962">
        <ele>226.6</ele>
        <time>2022-05-01T10:16:17Z</time>
      </trkpt>
      <trkpt lat="45.09855" lon="0.74982">
        <ele>225.1</ele>
        <time>2022-05-01T10:16:19Z</time>
      </trkpt>
      <trkpt lat="45.09842" lon="0.75005">
        <ele>223.4</ele>
        <time>2022-05-01T10:16:21Z</time>
      </trkpt>
      <trkpt lat="45.09828" lon="0.75028">
        <ele>221.8</ele>
        <time>2022-05-01T10:16:23Z</time>
      </trkpt>
      <trkpt lat="45.09816" lon="0.75053">
        <ele>220.1</ele>
        <time>2022-05-01T10:16:25Z</time>
      </trkpt>
      <trkpt lat="45.09811" lon="0.75066">
        <ele>219.3</ele>
        <time>2022-05-01T10:16:26Z</time>
      </trkpt>
      <trkpt lat="45.09806" lon="0.75079">
        <ele>218.6</ele>
        <time>2022-05-01T10:16:27Z</time>
      </trkpt>
      <trkpt lat="45.09803" lon="0.75094">
        <ele>217.9</ele>
        <time>2022-05-01T10:16:28Z</time>
      </trkpt>
      <trkpt lat="45.09801" lon="0.75107">
        <ele>217.2</ele>
        <time>2022-05-01T10:16:29Z</time>
      </trkpt>
      <trkpt lat="45.09795" lon="0.75136">
        <ele>216</ele>
        <time>2022-05-01T10:16:31Z</time>
      </trkpt>
      <trkpt lat="45.09793" lon="0.7515">
        <ele>215.6</ele>
        <time>2022-05-01T10:16:32Z</time>
      </trkpt>
      <trkpt lat="45.0979" lon="0.75164">
        <ele>215.1</ele>
        <time>2022-05-01T10:16:33Z</time>
      </trkpt>
      <trkpt lat="45.09785" lon="0.75193">
        <ele>214.3</ele>
        <time>2022-05-01T10:16:35Z</time>
      </trkpt>
      <trkpt lat="45.09785" lon="0.75207">
        <ele>213.9</ele>
        <time>2022-05-01T10:16:36Z</time>
      </trkpt>
      <trkpt lat="45.09785" lon="0.75221">
        <ele>213.4</ele>
        <time>2022-05-01T10:16:37Z</time>
      </trkpt>
      <trkpt lat="45.09787" lon="0.75234">
        <ele>212.9</ele>
        <time>2022-05-01T10:16:38Z</time>
      </trkpt>
      <trkpt lat="45.09789" lon="0.75247">
        <ele>212.4</ele>
        <time>2022-05-01T10:16:39Z</time>
      </trkpt>
      <trkpt lat="45.09791" lon="0.75261">
        <ele>212</ele>
        <time>2022-05-01T10:16:40Z</time>
      </trkpt>
      <trkpt lat="45.0979" lon="0.75274">
        <ele>211.5</ele>
        <time>2022-05-01T10:16:41Z</time>
      </trkpt>
      <trkpt lat="45.09787" lon="0.75287">
        <ele>211</ele>
        <time>2022-05-01T10:16:42Z</time>
      </trkpt>
      <trkpt lat="45.09783" lon="0.75298">
        <ele>210.5</ele>
        <time>2022-05-01T10:16:43Z</time>
      </trkpt>
      <trkpt lat="45.09779" lon="0.7531">
        <ele>209.8</ele>
        <time>2022-05-01T10:16:44Z</time>
      </trkpt>
      <trkpt lat="45.09774" lon="0.75323">
        <ele>209.2</ele>
        <time>2022-05-01T10:16:45Z</time>
      </trkpt>
      <trkpt lat="45.09769" lon="0.75335">
        <ele>208.5</ele>
        <time>2022-05-01T10:16:46Z</time>
      </trkpt>
      <trkpt lat="45.09764" lon="0.75348">
        <ele>207.9</ele>
        <time>2022-05-01T10:16:47Z</time>
      </trkpt>
      <trkpt lat="45.09756" lon="0.75374">
        <ele>206.6</ele>
        <time>2022-05-01T10:16:49Z</time>
      </trkpt>
      <trkpt lat="45.09755" lon="0.75387">
        <ele>206</ele>
        <time>2022-05-01T10:16:50Z</time>
      </trkpt>
      <trkpt lat="45.09755" lon="0.75401">
        <ele>205.5</ele>
        <time>2022-05-01T10:16:51Z</time>
      </trkpt>
      <trkpt lat="45.09757" lon="0.75425">
        <ele>204.7</ele>
        <time>2022-05-01T10:16:53Z</time>
      </trkpt>
      <trkpt lat="45.09761" lon="0.7545">
        <ele>203.8</ele>
        <time>2022-05-01T10:16:55Z</time>
      </trkpt>
      <trkpt lat="45.09762" lon="0.75464">
        <ele>203.2</ele>
        <time>2022-05-01T10:16:56Z</time>
      </trkpt>
      <trkpt lat="45.09764" lon="0.75479">
        <ele>202.7</ele>
        <time>2022-05-01T10:16:57Z</time>
      </trkpt>
      <trkpt lat="45.09768" lon="0.75504">
        <ele>201.8</ele>
        <time>2022-05-01T10:16:59Z</time>
      </trkpt>
      <trkpt lat="45.09771" lon="0.75528">
        <ele>201.2</ele>
        <time>2022-05-01T10:17:01Z</time>
      </trkpt>
      <trkpt lat="45.09776" lon="0.75555">
        <ele>200.7</ele>
        <time>2022-05-01T10:17:03Z</time>
      </trkpt>
      <trkpt lat="45.09783" lon="0.75576">
        <ele>200.6</ele>
        <time>2022-05-01T10:17:05Z</time>
      </trkpt>
      <trkpt lat="45.0979" lon="0.75594">
        <ele>200.9</ele>
        <time>2022-05-01T10:17:07Z</time>
      </trkpt>
      <trkpt lat="45.09793" lon="0.7561">
        <ele>201.5</ele>
        <time>2022-05-01T10:17:09Z</time>
      </trkpt>
      <trkpt lat="45.09794" lon="0.75616">
        <ele>201.7</ele>
        <time>2022-05-01T10:17:10Z</time>
      </trkpt>
      <trkpt lat="45.09795" lon="0.75621">
        <ele>202</ele>
        <time>2022-05-01T10:17:11Z</time>
      </trkpt>
      <trkpt lat="45.09797" lon="0.7563">
        <ele>202.6</ele>
        <time>2022-05-01T10:17:13Z</time>
      </trkpt>
      <trkpt lat="45.09798" lon="0.75633">
        <ele>202.9</ele>
        <time>2022-05-01T10:17:14Z</time>
      </trkpt>
      <trkpt lat="45.09799" lon="0.75637">
        <ele>203.2</ele>
        <time>2022-05-01T10:17:15Z</time>
      </trkpt>
      <trkpt lat="45.098" lon="0.75642">
        <ele>203.6</ele>
        <time>2022-05-01T10:17:17Z</time>
      </trkpt>
      <trkpt lat="45.098" lon="0.75645">
        <ele>203.9</ele>
        <time>2022-05-01T10:17:18Z</time>
      </trkpt>
      <trkpt lat="45.09801" lon="0.75648">
        <ele>204.2</ele>
        <time>2022-05-01T10:17:19Z</time>
      </trkpt>
      <trkpt lat="45.09802" lon="0.75654">
        <ele>204.7</ele>
        <time>2022-05-01T10:17:21Z</time>
      </trkpt>
      <trkpt lat="45.09804" lon="0.7566">
        <ele>205.2</ele>
        <time>2022-05-01T10:17:23Z</time>
      </trkpt>
      <trkpt lat="45.09804" lon="0.75663">
        <ele>205.4</ele>
        <time>2022-05-01T10:17:24Z</time>
      </trkpt>
      <trkpt lat="45.09805" lon="0.75665">
        <ele>205.7</ele>
        <time>2022-05-01T10:17:25Z</time>
      </trkpt>
      <trkpt lat="45.09806" lon="0.7567">
        <ele>206.1</ele>
        <time>2022-05-01T10:17:27Z</time>
      </trkpt>
      <trkpt lat="45.09806" lon="0.75672">
        <ele>206.3</ele>
        <time>2022-05-01T10:17:28Z</time>
      </trkpt>
      <trkpt lat="45.09806" lon="0.75673">
        <ele>206.4</ele>
        <time>2022-05-01T10:17:29Z</time>
      </trkpt>
      <trkpt lat="45.09809" lon="0.75679">
        <ele>207.1</ele>
        <time>2022-05-01T10:17:31Z</time>
      </trkpt>
      <trkpt lat="45.0981" lon="0.75683">
        <ele>207.6</ele>
        <time>2022-05-01T10:17:33Z</time>
      </trkpt>
      <trkpt lat="45.09811" lon="0.75685">
        <ele>207.7</ele>
        <time>2022-05-01T10:17:34Z</time>
      </trkpt>
      <trkpt lat="45.09812" lon="0.75687">
        <ele>208</ele>
        <time>2022-05-01T10:17:35Z</time>
      </trkpt>
      <trkpt lat="45.09813" lon="0.7569">
        <ele>208.3</ele>
        <time>2022-05-01T10:17:37Z</time>
      </trkpt>
      <trkpt lat="45.09814" lon="0.75692">
        <ele>208.5</ele>
        <time>2022-05-01T10:17:38Z</time>
      </trkpt>
      <trkpt lat="45.09815" lon="0.75694">
        <ele>208.7</ele>
        <time>2022-05-01T10:17:39Z</time>
      </trkpt>
      <trkpt lat="45.09815" lon="0.75696">
        <ele>208.8</ele>
        <time>2022-05-01T10:17:40Z</time>
      </trkpt>
      <trkpt lat="45.09816" lon="0.75697">
        <ele>209</ele>
        <time>2022-05-01T10:17:41Z</time>
      </trkpt>
      <trkpt lat="45.09818" lon="0.75701">
        <ele>209.4</ele>
        <time>2022-05-01T10:17:43Z</time>
      </trkpt>
      <trkpt lat="45.09819" lon="0.75705">
        <ele>209.7</ele>
        <time>2022-05-01T10:17:45Z</time>
      </trkpt>
      <trkpt lat="45.0982" lon="0.75707">
        <ele>209.9</ele>
        <time>2022-05-01T10:17:47Z</time>
      </trkpt>
      <trkpt lat="45.09821" lon="0.7571">
        <ele>210.1</ele>
        <time>2022-05-01T10:17:49Z</time>
      </trkpt>
      <trkpt lat="45.09826" lon="0.75717">
        <ele>210.9</ele>
        <time>2022-05-01T10:17:51Z</time>
      </trkpt>
      <trkpt lat="45.09825" lon="0.75719">
        <ele>211.1</ele>
        <time>2022-05-01T10:17:52Z</time>
      </trkpt>
      <trkpt lat="45.09825" lon="0.75721">
        <ele>211.2</ele>
        <time>2022-05-01T10:17:53Z</time>
      </trkpt>
      <trkpt lat="45.09826" lon="0.75723">
        <ele>211.4</ele>
        <time>2022-05-01T10:17:54Z</time>
      </trkpt>
      <trkpt lat="45.09827" lon="0.75725">
        <ele>211.6</ele>
        <time>2022-05-01T10:17:55Z</time>
      </trkpt>
      <trkpt lat="45.09829" lon="0.75726">
        <ele>211.9</ele>
        <time>2022-05-01T10:17:56Z</time>
      </trkpt>
      <trkpt lat="45.0983" lon="0.75728">
        <ele>212.1</ele>
        <time>2022-05-01T10:17:57Z</time>
      </trkpt>
      <trkpt lat="45.09829" lon="0.75731">
        <ele>212.3</ele>
        <time>2022-05-01T10:17:58Z</time>
      </trkpt>
      <trkpt lat="45.09829" lon="0.75732">
        <ele>212.5</ele>
        <time>2022-05-01T10:17:59Z</time>
      </trkpt>
      <trkpt lat="45.0983" lon="0.75735">
        <ele>212.7</ele>
        <time>2022-05-01T10:18:00Z</time>
      </trkpt>
      <trkpt lat="45.09831" lon="0.75737">
        <ele>213</ele>
        <time>2022-05-01T10:18:01Z</time>
      </trkpt>
      <trkpt lat="45.09832" lon="0.75739">
        <ele>213.2</ele>
        <time>2022-05-01T10:18:02Z</time>
      </trkpt>
      <trkpt lat="45.09833" lon="0.75741">
        <ele>213.4</ele>
        <time>2022-05-01T10:18:03Z</time>
      </trkpt>
      <trkpt lat="45.09833" lon="0.75744">
        <ele>213.7</ele>
        <time>2022-05-01T10:18:04Z</time>
      </trkpt>
      <trkpt lat="45.09838" lon="0.75759">
        <ele>215.4</ele>
        <time>2022-05-01T10:18:05Z</time>
      </trkpt>
      <trkpt lat="45.09835" lon="0.7575">
        <ele>216.6</ele>
        <time>2022-05-01T10:18:07Z</time>
      </trkpt>
      <trkpt lat="45.09838" lon="0.75757">
        <ele>217.6</ele>
        <time>2022-05-01T10:18:09Z</time>
      </trkpt>
      <trkpt lat="45.09839" lon="0.75761">
        <ele>218.1</ele>
        <time>2022-05-01T10:18:11Z</time>
      </trkpt>
      <trkpt lat="45.09839" lon="0.75764">
        <ele>218.5</ele>
        <time>2022-05-01T10:18:12Z</time>
      </trkpt>
      <trkpt lat="45.0984" lon="0.75766">
        <ele>218.8</ele>
        <time>2022-05-01T10:18:13Z</time>
      </trkpt>
      <trkpt lat="45.09841" lon="0.75771">
        <ele>219.3</ele>
        <time>2022-05-01T10:18:15Z</time>
      </trkpt>
      <trkpt lat="45.09841" lon="0.75775">
        <ele>219.9</ele>
        <time>2022-05-01T10:18:17Z</time>
      </trkpt>
      <trkpt lat="45.09842" lon="0.75778">
        <ele>220.2</ele>
        <time>2022-05-01T10:18:18Z</time>
      </trkpt>
      <trkpt lat="45.09842" lon="0.75781">
        <ele>220.5</ele>
        <time>2022-05-01T10:18:19Z</time>
      </trkpt>
      <trkpt lat="45.09843" lon="0.75785">
        <ele>221</ele>
        <time>2022-05-01T10:18:21Z</time>
      </trkpt>
      <trkpt lat="45.09843" lon="0.75789">
        <ele>221.5</ele>
        <time>2022-05-01T10:18:23Z</time>
      </trkpt>
      <trkpt lat="45.09843" lon="0.75791">
        <ele>221.7</ele>
        <time>2022-05-01T10:18:24Z</time>
      </trkpt>
      <trkpt lat="45.09843" lon="0.75793">
        <ele>222</ele>
        <time>2022-05-01T10:18:25Z</time>
      </trkpt>
      <trkpt lat="45.09843" lon="0.75795">
        <ele>222.1</ele>
        <time>2022-05-01T10:18:26Z</time>
      </trkpt>
      <trkpt lat="45.09843" lon="0.75797">
        <ele>222.3</ele>
        <time>2022-05-01T10:18:27Z</time>
      </trkpt>
      <trkpt lat="45.09843" lon="0.75799">
        <ele>222.6</ele>
        <time>2022-05-01T10:18:28Z</time>
      </trkpt>
      <trkpt lat="45.09843" lon="0.758">
        <ele>222.7</ele>
        <time>2022-05-01T10:18:29Z</time>
      </trkpt>
      <trkpt lat="45.09843" lon="0.75804">
        <ele>223.2</ele>
        <time>2022-05-01T10:18:31Z</time>
      </trkpt>
      <trkpt lat="45.09842" lon="0.75808">
        <ele>223.6</ele>
        <time>2022-05-01T10:18:33Z</time>
      </trkpt>
      <trkpt lat="45.09842" lon="0.7581">
        <ele>223.8</ele>
        <time>2022-05-01T10:18:34Z</time>
      </trkpt>
      <trkpt lat="45.09841" lon="0.75812">
        <ele>224</ele>
        <time>2022-05-01T10:18:35Z</time>
      </trkpt>
      <trkpt lat="45.09841" lon="0.75814">
        <ele>224.2</ele>
        <time>2022-05-01T10:18:36Z</time>
      </trkpt>
      <trkpt lat="45.0984" lon="0.75816">
        <ele>224.4</ele>
        <time>2022-05-01T10:18:37Z</time>
      </trkpt>
      <trkpt lat="45.0984" lon="0.75821">
        <ele>224.9</ele>
        <time>2022-05-01T10:18:39Z</time>
      </trkpt>
      <trkpt lat="45.09839" lon="0.75825">
        <ele>225.3</ele>
        <time>2022-05-01T10:18:41Z</time>
      </trkpt>
      <trkpt lat="45.09838" lon="0.75829">
        <ele>225.7</ele>
        <time>2022-05-01T10:18:43Z</time>
      </trkpt>
      <trkpt lat="45.09837" lon="0.75833">
        <ele>226.1</ele>
        <time>2022-05-01T10:18:45Z</time>
      </trkpt>
      <trkpt lat="45.09837" lon="0.75838">
        <ele>226.4</ele>
        <time>2022-05-01T10:18:47Z</time>
      </trkpt>
      <trkpt lat="45.09836" lon="0.75842">
        <ele>226.8</ele>
        <time>2022-05-01T10:18:49Z</time>
      </trkpt>
      <trkpt lat="45.09835" lon="0.75847">
        <ele>227.2</ele>
        <time>2022-05-01T10:18:51Z</time>
      </trkpt>
      <trkpt lat="45.09835" lon="0.75849">
        <ele>227.4</ele>
        <time>2022-05-01T10:18:52Z</time>
      </trkpt>
      <trkpt lat="45.09834" lon="0.75851">
        <ele>227.5</ele>
        <time>2022-05-01T10:18:53Z</time>
      </trkpt>
      <trkpt lat="45.09834" lon="0.75854">
        <ele>227.7</ele>
        <time>2022-05-01T10:18:55Z</time>
      </trkpt>
      <trkpt lat="45.09833" lon="0.75859">
        <ele>228</ele>
        <time>2022-05-01T10:18:57Z</time>
      </trkpt>
      <trkpt lat="45.09832" lon="0.75864">
        <ele>228.3</ele>
        <time>2022-05-01T10:18:59Z</time>
      </trkpt>
      <trkpt lat="45.09831" lon="0.75869">
        <ele>228.5</ele>
        <time>2022-05-01T10:19:01Z</time>
      </trkpt>
      <trkpt lat="45.09831" lon="0.75873">
        <ele>228.7</ele>
        <time>2022-05-01T10:19:03Z</time>
      </trkpt>
      <trkpt lat="45.0983" lon="0.75878">
        <ele>228.9</ele>
        <time>2022-05-01T10:19:05Z</time>
      </trkpt>
      <trkpt lat="45.09829" lon="0.75883">
        <ele>229.1</ele>
        <time>2022-05-01T10:19:07Z</time>
      </trkpt>
      <trkpt lat="45.09828" lon="0.75885">
        <ele>229.2</ele>
        <time>2022-05-01T10:19:08Z</time>
      </trkpt>
      <trkpt lat="45.09828" lon="0.75888">
        <ele>229.3</ele>
        <time>2022-05-01T10:19:09Z</time>
      </trkpt>
      <trkpt lat="45.09827" lon="0.75892">
        <ele>229.5</ele>
        <time>2022-05-01T10:19:11Z</time>
      </trkpt>
      <trkpt lat="45.09825" lon="0.75897">
        <ele>229.6</ele>
        <time>2022-05-01T10:19:13Z</time>
      </trkpt>
      <trkpt lat="45.09824" lon="0.75902">
        <ele>229.7</ele>
        <time>2022-05-01T10:19:15Z</time>
      </trkpt>
      <trkpt lat="45.09823" lon="0.75906">
        <ele>229.8</ele>
        <time>2022-05-01T10:19:17Z</time>
      </trkpt>
      <trkpt lat="45.09823" lon="0.75906">
        <ele>229.8</ele>
        <time>2022-05-01T10:19:19Z</time>
      </trkpt>
      <trkpt lat="45.09818" lon="0.75918">
        <ele>230</ele>
        <time>2022-05-01T10:22:46Z</time>
      </trkpt>
      <trkpt lat="45.09817" lon="0.7592">
        <ele>230.1</ele>
        <time>2022-05-01T10:22:47Z</time>
      </trkpt>
      <trkpt lat="45.09814" lon="0.75924">
        <ele>230.1</ele>
        <time>2022-05-01T10:22:49Z</time>
      </trkpt>
      <trkpt lat="45.09811" lon="0.75928">
        <ele>230.1</ele>
        <time>2022-05-01T10:22:51Z</time>
      </trkpt>
      <trkpt lat="45.0981" lon="0.7593">
        <ele>230.1</ele>
        <time>2022-05-01T10:22:52Z</time>
      </trkpt>
      <trkpt lat="45.09809" lon="0.75931">
        <ele>230.1</ele>
        <time>2022-05-01T10:22:53Z</time>
      </trkpt>
      <trkpt lat="45.09806" lon="0.75933">
        <ele>230.1</ele>
        <time>2022-05-01T10:22:55Z</time>
      </trkpt>
      <trkpt lat="45.09805" lon="0.75935">
        <ele>230.1</ele>
        <time>2022-05-01T10:22:56Z</time>
      </trkpt>
      <trkpt lat="45.09803" lon="0.75937">
        <ele>230.1</ele>
        <time>2022-05-01T10:22:57Z</time>
      </trkpt>
      <trkpt lat="45.09799" lon="0.75942">
        <ele>230.1</ele>
        <time>2022-05-01T10:22:59Z</time>
      </trkpt>
      <trkpt lat="45.09797" lon="0.75944">
        <ele>230.1</ele>
        <time>2022-05-01T10:23:00Z</time>
      </trkpt>
      <trkpt lat="45.09794" lon="0.75946">
        <ele>230.1</ele>
        <time>2022-05-01T10:23:01Z</time>
      </trkpt>
      <trkpt lat="45.0979" lon="0.75949">
        <ele>230.1</ele>
        <time>2022-05-01T10:23:03Z</time>
      </trkpt>
      <trkpt lat="45.09784" lon="0.75953">
        <ele>230.1</ele>
        <time>2022-05-01T10:23:05Z</time>
      </trkpt>
      <trkpt lat="45.0978" lon="0.75956">
        <ele>230</ele>
        <time>2022-05-01T10:23:07Z</time>
      </trkpt>
      <trkpt lat="45.09775" lon="0.7596">
        <ele>230</ele>
        <time>2022-05-01T10:23:09Z</time>
      </trkpt>
      <trkpt lat="45.0977" lon="0.75963">
        <ele>229.9</ele>
        <time>2022-05-01T10:23:11Z</time>
      </trkpt>
      <trkpt lat="45.09766" lon="0.75967">
        <ele>229.9</ele>
        <time>2022-05-01T10:23:13Z</time>
      </trkpt>
      <trkpt lat="45.09763" lon="0.75968">
        <ele>229.8</ele>
        <time>2022-05-01T10:23:14Z</time>
      </trkpt>
      <trkpt lat="45.09761" lon="0.7597">
        <ele>229.8</ele>
        <time>2022-05-01T10:23:15Z</time>
      </trkpt>
      <trkpt lat="45.09757" lon="0.75973">
        <ele>229.7</ele>
        <time>2022-05-01T10:23:17Z</time>
      </trkpt>
      <trkpt lat="45.09755" lon="0.75974">
        <ele>229.6</ele>
        <time>2022-05-01T10:23:18Z</time>
      </trkpt>
      <trkpt lat="45.09753" lon="0.75976">
        <ele>229.5</ele>
        <time>2022-05-01T10:23:19Z</time>
      </trkpt>
      <trkpt lat="45.09747" lon="0.7598">
        <ele>229.3</ele>
        <time>2022-05-01T10:23:21Z</time>
      </trkpt>
      <trkpt lat="45.09742" lon="0.75984">
        <ele>229.1</ele>
        <time>2022-05-01T10:23:23Z</time>
      </trkpt>
      <trkpt lat="45.09738" lon="0.75987">
        <ele>228.9</ele>
        <time>2022-05-01T10:23:24Z</time>
      </trkpt>
      <trkpt lat="45.09736" lon="0.75989">
        <ele>228.8</ele>
        <time>2022-05-01T10:23:25Z</time>
      </trkpt>
      <trkpt lat="45.09729" lon="0.75994">
        <ele>228.3</ele>
        <time>2022-05-01T10:23:27Z</time>
      </trkpt>
      <trkpt lat="45.09724" lon="0.75997">
        <ele>228</ele>
        <time>2022-05-01T10:23:28Z</time>
      </trkpt>
      <trkpt lat="45.0972" lon="0.75999">
        <ele>227.7</ele>
        <time>2022-05-01T10:23:29Z</time>
      </trkpt>
      <trkpt lat="45.09711" lon="0.76001">
        <ele>227.1</ele>
        <time>2022-05-01T10:23:31Z</time>
      </trkpt>
      <trkpt lat="45.09707" lon="0.76001">
        <ele>226.8</ele>
        <time>2022-05-01T10:23:32Z</time>
      </trkpt>
      <trkpt lat="45.09702" lon="0.76001">
        <ele>226.6</ele>
        <time>2022-05-01T10:23:33Z</time>
      </trkpt>
      <trkpt lat="45.09696" lon="0.76001">
        <ele>226.3</ele>
        <time>2022-05-01T10:23:34Z</time>
      </trkpt>
      <trkpt lat="45.09691" lon="0.76001">
        <ele>226.1</ele>
        <time>2022-05-01T10:23:35Z</time>
      </trkpt>
      <trkpt lat="45.09681" lon="0.76002">
        <ele>225.9</ele>
        <time>2022-05-01T10:23:37Z</time>
      </trkpt>
      <trkpt lat="45.09672" lon="0.76003">
        <ele>225.8</ele>
        <time>2022-05-01T10:23:39Z</time>
      </trkpt>
      <trkpt lat="45.09667" lon="0.76004">
        <ele>225.8</ele>
        <time>2022-05-01T10:23:40Z</time>
      </trkpt>
      <trkpt lat="45.09663" lon="0.76005">
        <ele>225.9</ele>
        <time>2022-05-01T10:23:41Z</time>
      </trkpt>
      <trkpt lat="45.09655" lon="0.76006">
        <ele>226</ele>
        <time>2022-05-01T10:23:43Z</time>
      </trkpt>
      <trkpt lat="45.0965" lon="0.76006">
        <ele>226.1</ele>
        <time>2022-05-01T10:23:44Z</time>
      </trkpt>
      <trkpt lat="45.09646" lon="0.76007">
        <ele>226.3</ele>
        <time>2022-05-01T10:23:45Z</time>
      </trkpt>
      <trkpt lat="45.09638" lon="0.7601">
        <ele>226.6</ele>
        <time>2022-05-01T10:23:47Z</time>
      </trkpt>
      <trkpt lat="45.09632" lon="0.76013">
        <ele>226.9</ele>
        <time>2022-05-01T10:23:49Z</time>
      </trkpt>
      <trkpt lat="45.09624" lon="0.76018">
        <ele>227.4</ele>
        <time>2022-05-01T10:23:51Z</time>
      </trkpt>
      <trkpt lat="45.09621" lon="0.76021">
        <ele>227.7</ele>
        <time>2022-05-01T10:23:52Z</time>
      </trkpt>
      <trkpt lat="45.09617" lon="0.76024">
        <ele>227.9</ele>
        <time>2022-05-01T10:23:53Z</time>
      </trkpt>
      <trkpt lat="45.09609" lon="0.7603">
        <ele>228.5</ele>
        <time>2022-05-01T10:23:55Z</time>
      </trkpt>
      <trkpt lat="45.096" lon="0.76034">
        <ele>229.2</ele>
        <time>2022-05-01T10:23:57Z</time>
      </trkpt>
      <trkpt lat="45.09595" lon="0.76036">
        <ele>229.6</ele>
        <time>2022-05-01T10:23:58Z</time>
      </trkpt>
      <trkpt lat="45.09591" lon="0.76038">
        <ele>229.9</ele>
        <time>2022-05-01T10:23:59Z</time>
      </trkpt>
      <trkpt lat="45.09583" lon="0.76041">
        <ele>230.3</ele>
        <time>2022-05-01T10:24:01Z</time>
      </trkpt>
      <trkpt lat="45.09575" lon="0.76042">
        <ele>230.7</ele>
        <time>2022-05-01T10:24:03Z</time>
      </trkpt>
      <trkpt lat="45.09568" lon="0.76044">
        <ele>231</ele>
        <time>2022-05-01T10:24:05Z</time>
      </trkpt>
      <trkpt lat="45.0956" lon="0.76045">
        <ele>231.3</ele>
        <time>2022-05-01T10:24:07Z</time>
      </trkpt>
      <trkpt lat="45.09551" lon="0.76048">
        <ele>231.6</ele>
        <time>2022-05-01T10:24:09Z</time>
      </trkpt>
      <trkpt lat="45.09547" lon="0.7605">
        <ele>231.7</ele>
        <time>2022-05-01T10:24:10Z</time>
      </trkpt>
      <trkpt lat="45.09543" lon="0.76052">
        <ele>231.7</ele>
        <time>2022-05-01T10:24:11Z</time>
      </trkpt>
      <trkpt lat="45.09539" lon="0.76053">
        <ele>231.8</ele>
        <time>2022-05-01T10:24:12Z</time>
      </trkpt>
      <trkpt lat="45.09535" lon="0.76055">
        <ele>231.8</ele>
        <time>2022-05-01T10:24:13Z</time>
      </trkpt>
      <trkpt lat="45.09527" lon="0.76061">
        <ele>231.9</ele>
        <time>2022-05-01T10:24:15Z</time>
      </trkpt>
      <trkpt lat="45.09519" lon="0.76067">
        <ele>232</ele>
        <time>2022-05-01T10:24:17Z</time>
      </trkpt>
      <trkpt lat="45.0951" lon="0.76074">
        <ele>232.1</ele>
        <time>2022-05-01T10:24:19Z</time>
      </trkpt>
      <trkpt lat="45.09506" lon="0.76078">
        <ele>232.1</ele>
        <time>2022-05-01T10:24:20Z</time>
      </trkpt>
      <trkpt lat="45.09502" lon="0.76082">
        <ele>232.3</ele>
        <time>2022-05-01T10:24:21Z</time>
      </trkpt>
      <trkpt lat="45.09496" lon="0.76088">
        <ele>232.6</ele>
        <time>2022-05-01T10:24:23Z</time>
      </trkpt>
      <trkpt lat="45.09492" lon="0.76092">
        <ele>232.7</ele>
        <time>2022-05-01T10:24:24Z</time>
      </trkpt>
      <trkpt lat="45.09489" lon="0.76095">
        <ele>232.8</ele>
        <time>2022-05-01T10:24:25Z</time>
      </trkpt>
      <trkpt lat="45.09481" lon="0.761">
        <ele>233.2</ele>
        <time>2022-05-01T10:24:27Z</time>
      </trkpt>
      <trkpt lat="45.09478" lon="0.76102">
        <ele>233.3</ele>
        <time>2022-05-01T10:24:28Z</time>
      </trkpt>
      <trkpt lat="45.09475" lon="0.76104">
        <ele>233.5</ele>
        <time>2022-05-01T10:24:29Z</time>
      </trkpt>
      <trkpt lat="45.09469" lon="0.76108">
        <ele>233.9</ele>
        <time>2022-05-01T10:24:31Z</time>
      </trkpt>
      <trkpt lat="45.09463" lon="0.76111">
        <ele>234.3</ele>
        <time>2022-05-01T10:24:33Z</time>
      </trkpt>
      <trkpt lat="45.09458" lon="0.76113">
        <ele>234.6</ele>
        <time>2022-05-01T10:24:35Z</time>
      </trkpt>
      <trkpt lat="45.09454" lon="0.76116">
        <ele>234.9</ele>
        <time>2022-05-01T10:24:37Z</time>
      </trkpt>
      <trkpt lat="45.09449" lon="0.76119">
        <ele>235.3</ele>
        <time>2022-05-01T10:24:39Z</time>
      </trkpt>
      <trkpt lat="45.09444" lon="0.76122">
        <ele>235.6</ele>
        <time>2022-05-01T10:24:41Z</time>
      </trkpt>
      <trkpt lat="45.09439" lon="0.76124">
        <ele>235.9</ele>
        <time>2022-05-01T10:24:43Z</time>
      </trkpt>
      <trkpt lat="45.09435" lon="0.76127">
        <ele>236.2</ele>
        <time>2022-05-01T10:24:45Z</time>
      </trkpt>
      <trkpt lat="45.09431" lon="0.7613">
        <ele>236.5</ele>
        <time>2022-05-01T10:24:47Z</time>
      </trkpt>
      <trkpt lat="45.09427" lon="0.76133">
        <ele>236.7</ele>
        <time>2022-05-01T10:24:49Z</time>
      </trkpt>
      <trkpt lat="45.09422" lon="0.76136">
        <ele>237</ele>
        <time>2022-05-01T10:24:51Z</time>
      </trkpt>
      <trkpt lat="45.09419" lon="0.76138">
        <ele>237.2</ele>
        <time>2022-05-01T10:24:52Z</time>
      </trkpt>
      <trkpt lat="45.09417" lon="0.7614">
        <ele>237.4</ele>
        <time>2022-05-01T10:24:53Z</time>
      </trkpt>
      <trkpt lat="45.09412" lon="0.76143">
        <ele>237.8</ele>
        <time>2022-05-01T10:24:55Z</time>
      </trkpt>
      <trkpt lat="45.09408" lon="0.76146">
        <ele>238.1</ele>
        <time>2022-05-01T10:24:57Z</time>
      </trkpt>
      <trkpt lat="45.09406" lon="0.76148">
        <ele>238.3</ele>
        <time>2022-05-01T10:24:58Z</time>
      </trkpt>
      <trkpt lat="45.09403" lon="0.76149">
        <ele>238.4</ele>
        <time>2022-05-01T10:24:59Z</time>
      </trkpt>
      <trkpt lat="45.09399" lon="0.76153">
        <ele>238.8</ele>
        <time>2022-05-01T10:25:01Z</time>
      </trkpt>
      <trkpt lat="45.09397" lon="0.76154">
        <ele>239</ele>
        <time>2022-05-01T10:25:02Z</time>
      </trkpt>
      <trkpt lat="45.09394" lon="0.76156">
        <ele>239.1</ele>
        <time>2022-05-01T10:25:03Z</time>
      </trkpt>
      <trkpt lat="45.09389" lon="0.76159">
        <ele>239.5</ele>
        <time>2022-05-01T10:25:05Z</time>
      </trkpt>
      <trkpt lat="45.09385" lon="0.76163">
        <ele>239.8</ele>
        <time>2022-05-01T10:25:07Z</time>
      </trkpt>
      <trkpt lat="45.09382" lon="0.76164">
        <ele>240</ele>
        <time>2022-05-01T10:25:08Z</time>
      </trkpt>
      <trkpt lat="45.09379" lon="0.76167">
        <ele>240.2</ele>
        <time>2022-05-01T10:25:09Z</time>
      </trkpt>
      <trkpt lat="45.09374" lon="0.7617">
        <ele>240.5</ele>
        <time>2022-05-01T10:25:11Z</time>
      </trkpt>
      <trkpt lat="45.0937" lon="0.76173">
        <ele>240.8</ele>
        <time>2022-05-01T10:25:13Z</time>
      </trkpt>
      <trkpt lat="45.09368" lon="0.76175">
        <ele>241</ele>
        <time>2022-05-01T10:25:14Z</time>
      </trkpt>
      <trkpt lat="45.09365" lon="0.76177">
        <ele>241.1</ele>
        <time>2022-05-01T10:25:15Z</time>
      </trkpt>
      <trkpt lat="45.09363" lon="0.76179">
        <ele>241.3</ele>
        <time>2022-05-01T10:25:16Z</time>
      </trkpt>
      <trkpt lat="45.09361" lon="0.76181">
        <ele>241.4</ele>
        <time>2022-05-01T10:25:17Z</time>
      </trkpt>
      <trkpt lat="45.09358" lon="0.76183">
        <ele>241.6</ele>
        <time>2022-05-01T10:25:18Z</time>
      </trkpt>
      <trkpt lat="45.09357" lon="0.76185">
        <ele>241.7</ele>
        <time>2022-05-01T10:25:19Z</time>
      </trkpt>
      <trkpt lat="45.09353" lon="0.76191">
        <ele>242</ele>
        <time>2022-05-01T10:25:21Z</time>
      </trkpt>
      <trkpt lat="45.09352" lon="0.76194">
        <ele>242.1</ele>
        <time>2022-05-01T10:25:22Z</time>
      </trkpt>
      <trkpt lat="45.0935" lon="0.76196">
        <ele>242.2</ele>
        <time>2022-05-01T10:25:23Z</time>
      </trkpt>
      <trkpt lat="45.09348" lon="0.76203">
        <ele>242.4</ele>
        <time>2022-05-01T10:25:25Z</time>
      </trkpt>
      <trkpt lat="45.09346" lon="0.76206">
        <ele>242.6</ele>
        <time>2022-05-01T10:25:26Z</time>
      </trkpt>
      <trkpt lat="45.09345" lon="0.7621">
        <ele>242.7</ele>
        <time>2022-05-01T10:25:27Z</time>
      </trkpt>
      <trkpt lat="45.09343" lon="0.76217">
        <ele>243</ele>
        <time>2022-05-01T10:25:29Z</time>
      </trkpt>
      <trkpt lat="45.09341" lon="0.76222">
        <ele>243.2</ele>
        <time>2022-05-01T10:25:31Z</time>
      </trkpt>
      <trkpt lat="45.09339" lon="0.76226">
        <ele>243.3</ele>
        <time>2022-05-01T10:25:32Z</time>
      </trkpt>
      <trkpt lat="45.09338" lon="0.7623">
        <ele>243.5</ele>
        <time>2022-05-01T10:25:33Z</time>
      </trkpt>
      <trkpt lat="45.09337" lon="0.76238">
        <ele>243.8</ele>
        <time>2022-05-01T10:25:35Z</time>
      </trkpt>
      <trkpt lat="45.09336" lon="0.76246">
        <ele>244</ele>
        <time>2022-05-01T10:25:37Z</time>
      </trkpt>
      <trkpt lat="45.09335" lon="0.7625">
        <ele>244.2</ele>
        <time>2022-05-01T10:25:38Z</time>
      </trkpt>
      <trkpt lat="45.09334" lon="0.76255">
        <ele>244.3</ele>
        <time>2022-05-01T10:25:39Z</time>
      </trkpt>
      <trkpt lat="45.0933" lon="0.76262">
        <ele>244.6</ele>
        <time>2022-05-01T10:25:41Z</time>
      </trkpt>
      <trkpt lat="45.09327" lon="0.7627">
        <ele>244.9</ele>
        <time>2022-05-01T10:25:43Z</time>
      </trkpt>
      <trkpt lat="45.09326" lon="0.76274">
        <ele>245</ele>
        <time>2022-05-01T10:25:44Z</time>
      </trkpt>
      <trkpt lat="45.09324" lon="0.76277">
        <ele>245.1</ele>
        <time>2022-05-01T10:25:45Z</time>
      </trkpt>
      <trkpt lat="45.09321" lon="0.76284">
        <ele>245.3</ele>
        <time>2022-05-01T10:25:47Z</time>
      </trkpt>
      <trkpt lat="45.09317" lon="0.76291">
        <ele>245.5</ele>
        <time>2022-05-01T10:25:49Z</time>
      </trkpt>
      <trkpt lat="45.09315" lon="0.76297">
        <ele>245.7</ele>
        <time>2022-05-01T10:25:51Z</time>
      </trkpt>
      <trkpt lat="45.09312" lon="0.76304">
        <ele>245.8</ele>
        <time>2022-05-01T10:25:53Z</time>
      </trkpt>
      <trkpt lat="45.09308" lon="0.76311">
        <ele>246</ele>
        <time>2022-05-01T10:25:55Z</time>
      </trkpt>
      <trkpt lat="45.09305" lon="0.76318">
        <ele>246.1</ele>
        <time>2022-05-01T10:25:57Z</time>
      </trkpt>
      <trkpt lat="45.09303" lon="0.76322">
        <ele>246.2</ele>
        <time>2022-05-01T10:25:58Z</time>
      </trkpt>
      <trkpt lat="45.09301" lon="0.76326">
        <ele>246.2</ele>
        <time>2022-05-01T10:25:59Z</time>
      </trkpt>
      <trkpt lat="45.09297" lon="0.76335">
        <ele>246.3</ele>
        <time>2022-05-01T10:26:01Z</time>
      </trkpt>
      <trkpt lat="45.09293" lon="0.76343">
        <ele>246.5</ele>
        <time>2022-05-01T10:26:03Z</time>
      </trkpt>
      <trkpt lat="45.09288" lon="0.76348">
        <ele>246.7</ele>
        <time>2022-05-01T10:26:05Z</time>
      </trkpt>
      <trkpt lat="45.09283" lon="0.76354">
        <ele>246.8</ele>
        <time>2022-05-01T10:26:07Z</time>
      </trkpt>
      <trkpt lat="45.09278" lon="0.76359">
        <ele>247</ele>
        <time>2022-05-01T10:26:09Z</time>
      </trkpt>
      <trkpt lat="45.09273" lon="0.76362">
        <ele>247.2</ele>
        <time>2022-05-01T10:26:11Z</time>
      </trkpt>
      <trkpt lat="45.09271" lon="0.76364">
        <ele>247.2</ele>
        <time>2022-05-01T10:26:12Z</time>
      </trkpt>
      <trkpt lat="45.09268" lon="0.76366">
        <ele>247.3</ele>
        <time>2022-05-01T10:26:13Z</time>
      </trkpt>
      <trkpt lat="45.09266" lon="0.76367">
        <ele>247.4</ele>
        <time>2022-05-01T10:26:14Z</time>
      </trkpt>
      <trkpt lat="45.09263" lon="0.76369">
        <ele>247.5</ele>
        <time>2022-05-01T10:26:15Z</time>
      </trkpt>
      <trkpt lat="45.0926" lon="0.76371">
        <ele>247.6</ele>
        <time>2022-05-01T10:26:16Z</time>
      </trkpt>
      <trkpt lat="45.09257" lon="0.76373">
        <ele>247.7</ele>
        <time>2022-05-01T10:26:17Z</time>
      </trkpt>
      <trkpt lat="45.09251" lon="0.76378">
        <ele>247.9</ele>
        <time>2022-05-01T10:26:19Z</time>
      </trkpt>
      <trkpt lat="45.09247" lon="0.7638">
        <ele>248</ele>
        <time>2022-05-01T10:26:21Z</time>
      </trkpt>
      <trkpt lat="45.09245" lon="0.76382">
        <ele>248</ele>
        <time>2022-05-01T10:26:22Z</time>
      </trkpt>
      <trkpt lat="45.09241" lon="0.76384">
        <ele>248.1</ele>
        <time>2022-05-01T10:26:23Z</time>
      </trkpt>
      <trkpt lat="45.09234" lon="0.7639">
        <ele>248.2</ele>
        <time>2022-05-01T10:26:25Z</time>
      </trkpt>
      <trkpt lat="45.0923" lon="0.76392">
        <ele>248.2</ele>
        <time>2022-05-01T10:26:26Z</time>
      </trkpt>
      <trkpt lat="45.09227" lon="0.76394">
        <ele>248.2</ele>
        <time>2022-05-01T10:26:27Z</time>
      </trkpt>
      <trkpt lat="45.0922" lon="0.76398">
        <ele>248.3</ele>
        <time>2022-05-01T10:26:29Z</time>
      </trkpt>
      <trkpt lat="45.09214" lon="0.76403">
        <ele>248.3</ele>
        <time>2022-05-01T10:26:31Z</time>
      </trkpt>
      <trkpt lat="45.09207" lon="0.76407">
        <ele>248.3</ele>
        <time>2022-05-01T10:26:33Z</time>
      </trkpt>
      <trkpt lat="45.09201" lon="0.76411">
        <ele>248.4</ele>
        <time>2022-05-01T10:26:35Z</time>
      </trkpt>
      <trkpt lat="45.09198" lon="0.76414">
        <ele>248.4</ele>
        <time>2022-05-01T10:26:36Z</time>
      </trkpt>
      <trkpt lat="45.09195" lon="0.76416">
        <ele>248.4</ele>
        <time>2022-05-01T10:26:37Z</time>
      </trkpt>
      <trkpt lat="45.09188" lon="0.76421">
        <ele>248.5</ele>
        <time>2022-05-01T10:26:39Z</time>
      </trkpt>
      <trkpt lat="45.09179" lon="0.76427">
        <ele>248.6</ele>
        <time>2022-05-01T10:26:41Z</time>
      </trkpt>
      <trkpt lat="45.09172" lon="0.76432">
        <ele>248.6</ele>
        <time>2022-05-01T10:26:43Z</time>
      </trkpt>
      <trkpt lat="45.09168" lon="0.76435">
        <ele>248.6</ele>
        <time>2022-05-01T10:26:44Z</time>
      </trkpt>
      <trkpt lat="45.09164" lon="0.76437">
        <ele>248.6</ele>
        <time>2022-05-01T10:26:45Z</time>
      </trkpt>
      <trkpt lat="45.09158" lon="0.76442">
        <ele>248.6</ele>
        <time>2022-05-01T10:26:47Z</time>
      </trkpt>
      <trkpt lat="45.09154" lon="0.76446">
        <ele>248.5</ele>
        <time>2022-05-01T10:26:48Z</time>
      </trkpt>
      <trkpt lat="45.0915" lon="0.76451">
        <ele>248.4</ele>
        <time>2022-05-01T10:26:49Z</time>
      </trkpt>
      <trkpt lat="45.09147" lon="0.7646">
        <ele>248.3</ele>
        <time>2022-05-01T10:26:51Z</time>
      </trkpt>
      <trkpt lat="45.09145" lon="0.76472">
        <ele>248.1</ele>
        <time>2022-05-01T10:26:53Z</time>
      </trkpt>
      <trkpt lat="45.09144" lon="0.76483">
        <ele>247.9</ele>
        <time>2022-05-01T10:26:55Z</time>
      </trkpt>
      <trkpt lat="45.09143" lon="0.76489">
        <ele>247.8</ele>
        <time>2022-05-01T10:26:56Z</time>
      </trkpt>
      <trkpt lat="45.09142" lon="0.76494">
        <ele>247.7</ele>
        <time>2022-05-01T10:26:57Z</time>
      </trkpt>
      <trkpt lat="45.0914" lon="0.76506">
        <ele>247.5</ele>
        <time>2022-05-01T10:26:59Z</time>
      </trkpt>
      <trkpt lat="45.09138" lon="0.76518">
        <ele>247.3</ele>
        <time>2022-05-01T10:27:01Z</time>
      </trkpt>
      <trkpt lat="45.09137" lon="0.76522">
        <ele>247.3</ele>
        <time>2022-05-01T10:27:02Z</time>
      </trkpt>
      <trkpt lat="45.09136" lon="0.76525">
        <ele>247.2</ele>
        <time>2022-05-01T10:27:03Z</time>
      </trkpt>
      <trkpt lat="45.09136" lon="0.76528">
        <ele>247.1</ele>
        <time>2022-05-01T10:27:04Z</time>
      </trkpt>
      <trkpt lat="45.09135" lon="0.76532">
        <ele>247.1</ele>
        <time>2022-05-01T10:27:05Z</time>
      </trkpt>
      <trkpt lat="45.09133" lon="0.76543">
        <ele>246.9</ele>
        <time>2022-05-01T10:27:07Z</time>
      </trkpt>
      <trkpt lat="45.09132" lon="0.76548">
        <ele>246.9</ele>
        <time>2022-05-01T10:27:08Z</time>
      </trkpt>
      <trkpt lat="45.09131" lon="0.76555">
        <ele>246.8</ele>
        <time>2022-05-01T10:27:09Z</time>
      </trkpt>
      <trkpt lat="45.09129" lon="0.76567">
        <ele>246.8</ele>
        <time>2022-05-01T10:27:11Z</time>
      </trkpt>
      <trkpt lat="45.09127" lon="0.76578">
        <ele>246.7</ele>
        <time>2022-05-01T10:27:13Z</time>
      </trkpt>
      <trkpt lat="45.09126" lon="0.76582">
        <ele>246.7</ele>
        <time>2022-05-01T10:27:15Z</time>
      </trkpt>
      <trkpt lat="45.09122" lon="0.76587">
        <ele>246.7</ele>
        <time>2022-05-01T10:27:17Z</time>
      </trkpt>
      <trkpt lat="45.09124" lon="0.76594">
        <ele>246.7</ele>
        <time>2022-05-01T10:27:18Z</time>
      </trkpt>
      <trkpt lat="45.09127" lon="0.76601">
        <ele>246.7</ele>
        <time>2022-05-01T10:27:19Z</time>
      </trkpt>
      <trkpt lat="45.09129" lon="0.76607">
        <ele>246.8</ele>
        <time>2022-05-01T10:27:21Z</time>
      </trkpt>
      <trkpt lat="45.09132" lon="0.76614">
        <ele>246.8</ele>
        <time>2022-05-01T10:27:23Z</time>
      </trkpt>
      <trkpt lat="45.09126" lon="0.76628">
        <ele>246.8</ele>
        <time>2022-05-01T10:27:25Z</time>
      </trkpt>
      <trkpt lat="45.09119" lon="0.76639">
        <ele>246.1</ele>
        <time>2022-05-01T10:27:27Z</time>
      </trkpt>
      <trkpt lat="45.09113" lon="0.7665">
        <ele>245.7</ele>
        <time>2022-05-01T10:27:29Z</time>
      </trkpt>
      <trkpt lat="45.09094" lon="0.76684">
        <ele>243.9</ele>
        <time>2022-05-01T10:27:31Z</time>
      </trkpt>
      <trkpt lat="45.09089" lon="0.76696">
        <ele>243.9</ele>
        <time>2022-05-01T10:27:33Z</time>
      </trkpt>
      <trkpt lat="45.09085" lon="0.76709">
        <ele>243.1</ele>
        <time>2022-05-01T10:27:35Z</time>
      </trkpt>
      <trkpt lat="45.0908" lon="0.76721">
        <ele>243.1</ele>
        <time>2022-05-01T10:27:37Z</time>
      </trkpt>
      <trkpt lat="45.09077" lon="0.76738">
        <ele>243.1</ele>
        <time>2022-05-01T10:27:39Z</time>
      </trkpt>
      <trkpt lat="45.09072" lon="0.76754">
        <ele>242.8</ele>
        <time>2022-05-01T10:27:41Z</time>
      </trkpt>
      <trkpt lat="45.09066" lon="0.76768">
        <ele>242.9</ele>
        <time>2022-05-01T10:27:43Z</time>
      </trkpt>
      <trkpt lat="45.09058" lon="0.76781">
        <ele>242.5</ele>
        <time>2022-05-01T10:27:45Z</time>
      </trkpt>
      <trkpt lat="45.09051" lon="0.76794">
        <ele>242.7</ele>
        <time>2022-05-01T10:27:47Z</time>
      </trkpt>
      <trkpt lat="45.09044" lon="0.76807">
        <ele>242.6</ele>
        <time>2022-05-01T10:27:49Z</time>
      </trkpt>
      <trkpt lat="45.09036" lon="0.76819">
        <ele>242.4</ele>
        <time>2022-05-01T10:27:51Z</time>
      </trkpt>
      <trkpt lat="45.0903" lon="0.76831">
        <ele>242.4</ele>
        <time>2022-05-01T10:27:53Z</time>
      </trkpt>
      <trkpt lat="45.09028" lon="0.76838">
        <ele>242.7</ele>
        <time>2022-05-01T10:27:54Z</time>
      </trkpt>
      <trkpt lat="45.09025" lon="0.76842">
        <ele>242.3</ele>
        <time>2022-05-01T10:27:55Z</time>
      </trkpt>
      <trkpt lat="45.09019" lon="0.76846">
        <ele>242.3</ele>
        <time>2022-05-01T10:27:56Z</time>
      </trkpt>
      <trkpt lat="45.09012" lon="0.7685">
        <ele>242</ele>
        <time>2022-05-01T10:27:57Z</time>
      </trkpt>
      <trkpt lat="45.09007" lon="0.76854">
        <ele>242.4</ele>
        <time>2022-05-01T10:27:58Z</time>
      </trkpt>
      <trkpt lat="45.09002" lon="0.76858">
        <ele>242.4</ele>
        <time>2022-05-01T10:27:59Z</time>
      </trkpt>
      <trkpt lat="45.08994" lon="0.76866">
        <ele>241.9</ele>
        <time>2022-05-01T10:28:01Z</time>
      </trkpt>
      <trkpt lat="45.08984" lon="0.76874">
        <ele>241.6</ele>
        <time>2022-05-01T10:28:03Z</time>
      </trkpt>
      <trkpt lat="45.08975" lon="0.76884">
        <ele>240.9</ele>
        <time>2022-05-01T10:28:05Z</time>
      </trkpt>
      <trkpt lat="45.08966" lon="0.76898">
        <ele>241.1</ele>
        <time>2022-05-01T10:28:07Z</time>
      </trkpt>
      <trkpt lat="45.0896" lon="0.76912">
        <ele>240.2</ele>
        <time>2022-05-01T10:28:09Z</time>
      </trkpt>
      <trkpt lat="45.08957" lon="0.76928">
        <ele>240.5</ele>
        <time>2022-05-01T10:28:11Z</time>
      </trkpt>
      <trkpt lat="45.08956" lon="0.76941">
        <ele>240.9</ele>
        <time>2022-05-01T10:28:13Z</time>
      </trkpt>
      <trkpt lat="45.08955" lon="0.76953">
        <ele>240.9</ele>
        <time>2022-05-01T10:28:15Z</time>
      </trkpt>
      <trkpt lat="45.08954" lon="0.76959">
        <ele>241.3</ele>
        <time>2022-05-01T10:28:16Z</time>
      </trkpt>
      <trkpt lat="45.08951" lon="0.76964">
        <ele>239.7</ele>
        <time>2022-05-01T10:28:17Z</time>
      </trkpt>
      <trkpt lat="45.0895" lon="0.76971">
        <ele>239.7</ele>
        <time>2022-05-01T10:28:18Z</time>
      </trkpt>
      <trkpt lat="45.0895" lon="0.76977">
        <ele>240.3</ele>
        <time>2022-05-01T10:28:19Z</time>
      </trkpt>
      <trkpt lat="45.08947" lon="0.76988">
        <ele>240.3</ele>
        <time>2022-05-01T10:28:21Z</time>
      </trkpt>
      <trkpt lat="45.08947" lon="0.76995">
        <ele>240.9</ele>
        <time>2022-05-01T10:28:22Z</time>
      </trkpt>
      <trkpt lat="45.08948" lon="0.77">
        <ele>240.9</ele>
        <time>2022-05-01T10:28:23Z</time>
      </trkpt>
      <trkpt lat="45.08948" lon="0.77012">
        <ele>241.6</ele>
        <time>2022-05-01T10:28:25Z</time>
      </trkpt>
      <trkpt lat="45.08949" lon="0.77019">
        <ele>241.6</ele>
        <time>2022-05-01T10:28:26Z</time>
      </trkpt>
      <trkpt lat="45.08949" lon="0.77027">
        <ele>242.5</ele>
        <time>2022-05-01T10:28:27Z</time>
      </trkpt>
      <trkpt lat="45.0895" lon="0.77041">
        <ele>242.5</ele>
        <time>2022-05-01T10:28:29Z</time>
      </trkpt>
      <trkpt lat="45.0895" lon="0.77055">
        <ele>243.2</ele>
        <time>2022-05-01T10:28:31Z</time>
      </trkpt>
      <trkpt lat="45.0895" lon="0.77071">
        <ele>243.9</ele>
        <time>2022-05-01T10:28:33Z</time>
      </trkpt>
      <trkpt lat="45.0895" lon="0.77079">
        <ele>244.4</ele>
        <time>2022-05-01T10:28:34Z</time>
      </trkpt>
      <trkpt lat="45.08951" lon="0.77087">
        <ele>244.4</ele>
        <time>2022-05-01T10:28:35Z</time>
      </trkpt>
      <trkpt lat="45.08953" lon="0.77102">
        <ele>245.4</ele>
        <time>2022-05-01T10:28:37Z</time>
      </trkpt>
      <trkpt lat="45.08954" lon="0.7711">
        <ele>245.4</ele>
        <time>2022-05-01T10:28:38Z</time>
      </trkpt>
      <trkpt lat="45.08956" lon="0.77117">
        <ele>245.5</ele>
        <time>2022-05-01T10:28:39Z</time>
      </trkpt>
      <trkpt lat="45.08957" lon="0.77124">
        <ele>245.5</ele>
        <time>2022-05-01T10:28:40Z</time>
      </trkpt>
      <trkpt lat="45.08957" lon="0.77131">
        <ele>245.4</ele>
        <time>2022-05-01T10:28:41Z</time>
      </trkpt>
      <trkpt lat="45.08957" lon="0.77138">
        <ele>245.3</ele>
        <time>2022-05-01T10:28:42Z</time>
      </trkpt>
      <trkpt lat="45.08958" lon="0.77145">
        <ele>245.2</ele>
        <time>2022-05-01T10:28:43Z</time>
      </trkpt>
      <trkpt lat="45.08958" lon="0.77159">
        <ele>245.2</ele>
        <time>2022-05-01T10:28:45Z</time>
      </trkpt>
      <trkpt lat="45.08958" lon="0.77165">
        <ele>245.1</ele>
        <time>2022-05-01T10:28:46Z</time>
      </trkpt>
      <trkpt lat="45.0896" lon="0.77171">
        <ele>245.1</ele>
        <time>2022-05-01T10:28:47Z</time>
      </trkpt>
      <trkpt lat="45.0896" lon="0.77182">
        <ele>245.1</ele>
        <time>2022-05-01T10:28:49Z</time>
      </trkpt>
      <trkpt lat="45.08961" lon="0.77188">
        <ele>245.1</ele>
        <time>2022-05-01T10:28:50Z</time>
      </trkpt>
      <trkpt lat="45.08961" lon="0.77195">
        <ele>245.1</ele>
        <time>2022-05-01T10:28:51Z</time>
      </trkpt>
      <trkpt lat="45.08962" lon="0.772">
        <ele>245.2</ele>
        <time>2022-05-01T10:28:52Z</time>
      </trkpt>
      <trkpt lat="45.08963" lon="0.77206">
        <ele>245.2</ele>
        <time>2022-05-01T10:28:53Z</time>
      </trkpt>
      <trkpt lat="45.08962" lon="0.7722">
        <ele>245.4</ele>
        <time>2022-05-01T10:28:55Z</time>
      </trkpt>
      <trkpt lat="45.08962" lon="0.7723">
        <ele>245.4</ele>
        <time>2022-05-01T10:28:57Z</time>
      </trkpt>
      <trkpt lat="45.0896" lon="0.77237">
        <ele>245.5</ele>
        <time>2022-05-01T10:28:58Z</time>
      </trkpt>
      <trkpt lat="45.08957" lon="0.77242">
        <ele>245.5</ele>
        <time>2022-05-01T10:28:59Z</time>
      </trkpt>
      <trkpt lat="45.0895" lon="0.77251">
        <ele>245.5</ele>
        <time>2022-05-01T10:29:01Z</time>
      </trkpt>
      <trkpt lat="45.08943" lon="0.77259">
        <ele>245.5</ele>
        <time>2022-05-01T10:29:03Z</time>
      </trkpt>
      <trkpt lat="45.08937" lon="0.77269">
        <ele>245.7</ele>
        <time>2022-05-01T10:29:05Z</time>
      </trkpt>
      <trkpt lat="45.08932" lon="0.77279">
        <ele>245.7</ele>
        <time>2022-05-01T10:29:07Z</time>
      </trkpt>
      <trkpt lat="45.08926" lon="0.77291">
        <ele>246.2</ele>
        <time>2022-05-01T10:29:09Z</time>
      </trkpt>
      <trkpt lat="45.08923" lon="0.77296">
        <ele>246.2</ele>
        <time>2022-05-01T10:29:10Z</time>
      </trkpt>
      <trkpt lat="45.08921" lon="0.77301">
        <ele>246.6</ele>
        <time>2022-05-01T10:29:11Z</time>
      </trkpt>
      <trkpt lat="45.08916" lon="0.77311">
        <ele>246.6</ele>
        <time>2022-05-01T10:29:13Z</time>
      </trkpt>
      <trkpt lat="45.08911" lon="0.77321">
        <ele>247.2</ele>
        <time>2022-05-01T10:29:15Z</time>
      </trkpt>
      <trkpt lat="45.0891" lon="0.7733">
        <ele>247.2</ele>
        <time>2022-05-01T10:29:17Z</time>
      </trkpt>
      <trkpt lat="45.0891" lon="0.77333">
        <ele>247.2</ele>
        <time>2022-05-01T10:29:18Z</time>
      </trkpt>
      <trkpt lat="45.08909" lon="0.7734">
        <ele>247.7</ele>
        <time>2022-05-01T10:29:19Z</time>
      </trkpt>
      <trkpt lat="45.08909" lon="0.77345">
        <ele>247.7</ele>
        <time>2022-05-01T10:29:20Z</time>
      </trkpt>
      <trkpt lat="45.08907" lon="0.77345">
        <ele>247.7</ele>
        <time>2022-05-01T10:29:21Z</time>
      </trkpt>
      <trkpt lat="45.08906" lon="0.7734">
        <ele>247.7</ele>
        <time>2022-05-01T10:29:22Z</time>
      </trkpt>
      <trkpt lat="45.08907" lon="0.77343">
        <ele>247.7</ele>
        <time>2022-05-01T10:29:23Z</time>
      </trkpt>
      <trkpt lat="45.08907" lon="0.77346">
        <ele>247.6</ele>
        <time>2022-05-01T10:29:24Z</time>
      </trkpt>
      <trkpt lat="45.08907" lon="0.77345">
        <ele>247.6</ele>
        <time>2022-05-01T10:29:25Z</time>
      </trkpt>
      <trkpt lat="45.08908" lon="0.77345">
        <ele>247.6</ele>
        <time>2022-05-01T10:29:27Z</time>
      </trkpt>
      <trkpt lat="45.08909" lon="0.77346">
        <ele>247.6</ele>
        <time>2022-05-01T10:29:29Z</time>
      </trkpt>
      <trkpt lat="45.08909" lon="0.77363">
        <ele>247.9</ele>
        <time>2022-05-01T10:29:31Z</time>
      </trkpt>
      <trkpt lat="45.08908" lon="0.77365">
        <ele>247.9</ele>
        <time>2022-05-01T10:29:33Z</time>
      </trkpt>
      <trkpt lat="45.08911" lon="0.77369">
        <ele>248.2</ele>
        <time>2022-05-01T10:29:35Z</time>
      </trkpt>
      <trkpt lat="45.08911" lon="0.77377">
        <ele>248.2</ele>
        <time>2022-05-01T10:29:37Z</time>
      </trkpt>
      <trkpt lat="45.08913" lon="0.7738">
        <ele>248.2</ele>
        <time>2022-05-01T10:29:39Z</time>
      </trkpt>
      <trkpt lat="45.08915" lon="0.77384">
        <ele>248.2</ele>
        <time>2022-05-01T10:29:40Z</time>
      </trkpt>
      <trkpt lat="45.08916" lon="0.77387">
        <ele>248.2</ele>
        <time>2022-05-01T10:29:43Z</time>
      </trkpt>
      <trkpt lat="45.08918" lon="0.77391">
        <ele>248.1</ele>
        <time>2022-05-01T10:29:44Z</time>
      </trkpt>
      <trkpt lat="45.08919" lon="0.77393">
        <ele>248.1</ele>
        <time>2022-05-01T10:29:45Z</time>
      </trkpt>
      <trkpt lat="45.0892" lon="0.77398">
        <ele>248.1</ele>
        <time>2022-05-01T10:29:46Z</time>
      </trkpt>
      <trkpt lat="45.08921" lon="0.77403">
        <ele>248.3</ele>
        <time>2022-05-01T10:29:47Z</time>
      </trkpt>
      <trkpt lat="45.08922" lon="0.77407">
        <ele>248.3</ele>
        <time>2022-05-01T10:29:48Z</time>
      </trkpt>
      <trkpt lat="45.08923" lon="0.77414">
        <ele>248.3</ele>
        <time>2022-05-01T10:29:49Z</time>
      </trkpt>
      <trkpt lat="45.08921" lon="0.77426">
        <ele>248</ele>
        <time>2022-05-01T10:29:51Z</time>
      </trkpt>
      <trkpt lat="45.08919" lon="0.77433">
        <ele>248</ele>
        <time>2022-05-01T10:29:52Z</time>
      </trkpt>
      <trkpt lat="45.08916" lon="0.77441">
        <ele>248.1</ele>
        <time>2022-05-01T10:29:53Z</time>
      </trkpt>
      <trkpt lat="45.08914" lon="0.77448">
        <ele>248.1</ele>
        <time>2022-05-01T10:29:54Z</time>
      </trkpt>
      <trkpt lat="45.08912" lon="0.77455">
        <ele>247.4</ele>
        <time>2022-05-01T10:29:55Z</time>
      </trkpt>
      <trkpt lat="45.0891" lon="0.77461">
        <ele>247.4</ele>
        <time>2022-05-01T10:29:56Z</time>
      </trkpt>
      <trkpt lat="45.08908" lon="0.7747">
        <ele>247.4</ele>
        <time>2022-05-01T10:29:57Z</time>
      </trkpt>
      <trkpt lat="45.08906" lon="0.77485">
        <ele>246.8</ele>
        <time>2022-05-01T10:29:59Z</time>
      </trkpt>
      <trkpt lat="45.08907" lon="0.77498">
        <ele>246.5</ele>
        <time>2022-05-01T10:30:01Z</time>
      </trkpt>
      <trkpt lat="45.08907" lon="0.77504">
        <ele>246.5</ele>
        <time>2022-05-01T10:30:02Z</time>
      </trkpt>
      <trkpt lat="45.08908" lon="0.7751">
        <ele>246.5</ele>
        <time>2022-05-01T10:30:03Z</time>
      </trkpt>
      <trkpt lat="45.08913" lon="0.77519">
        <ele>246.5</ele>
        <time>2022-05-01T10:30:05Z</time>
      </trkpt>
      <trkpt lat="45.08918" lon="0.77528">
        <ele>245.9</ele>
        <time>2022-05-01T10:30:07Z</time>
      </trkpt>
      <trkpt lat="45.08915" lon="0.77534">
        <ele>246.7</ele>
        <time>2022-05-01T10:30:09Z</time>
      </trkpt>
      <trkpt lat="45.08912" lon="0.7754">
        <ele>247.1</ele>
        <time>2022-05-01T10:30:11Z</time>
      </trkpt>
      <trkpt lat="45.0891" lon="0.77545">
        <ele>247.4</ele>
        <time>2022-05-01T10:30:13Z</time>
      </trkpt>
      <trkpt lat="45.08908" lon="0.7755">
        <ele>247.7</ele>
        <time>2022-05-01T10:30:15Z</time>
      </trkpt>
      <trkpt lat="45.08907" lon="0.77553">
        <ele>247.9</ele>
        <time>2022-05-01T10:30:16Z</time>
      </trkpt>
      <trkpt lat="45.08905" lon="0.77557">
        <ele>248</ele>
        <time>2022-05-01T10:30:17Z</time>
      </trkpt>
      <trkpt lat="45.08904" lon="0.77559">
        <ele>248.2</ele>
        <time>2022-05-01T10:30:18Z</time>
      </trkpt>
      <trkpt lat="45.08903" lon="0.77562">
        <ele>248.3</ele>
        <time>2022-05-01T10:30:19Z</time>
      </trkpt>
      <trkpt lat="45.08901" lon="0.77568">
        <ele>248.5</ele>
        <time>2022-05-01T10:30:21Z</time>
      </trkpt>
      <trkpt lat="45.089" lon="0.77571">
        <ele>248.6</ele>
        <time>2022-05-01T10:30:22Z</time>
      </trkpt>
      <trkpt lat="45.08899" lon="0.77574">
        <ele>248.7</ele>
        <time>2022-05-01T10:30:23Z</time>
      </trkpt>
      <trkpt lat="45.08896" lon="0.7758">
        <ele>249</ele>
        <time>2022-05-01T10:30:25Z</time>
      </trkpt>
      <trkpt lat="45.08894" lon="0.77588">
        <ele>249.2</ele>
        <time>2022-05-01T10:30:27Z</time>
      </trkpt>
      <trkpt lat="45.08892" lon="0.77596">
        <ele>249.5</ele>
        <time>2022-05-01T10:30:29Z</time>
      </trkpt>
      <trkpt lat="45.0889" lon="0.77604">
        <ele>249.7</ele>
        <time>2022-05-01T10:30:31Z</time>
      </trkpt>
      <trkpt lat="45.08889" lon="0.77608">
        <ele>249.8</ele>
        <time>2022-05-01T10:30:32Z</time>
      </trkpt>
      <trkpt lat="45.08888" lon="0.77612">
        <ele>249.9</ele>
        <time>2022-05-01T10:30:33Z</time>
      </trkpt>
      <trkpt lat="45.08885" lon="0.7762">
        <ele>250</ele>
        <time>2022-05-01T10:30:35Z</time>
      </trkpt>
      <trkpt lat="45.08883" lon="0.77629">
        <ele>250</ele>
        <time>2022-05-01T10:30:37Z</time>
      </trkpt>
      <trkpt lat="45.08882" lon="0.77633">
        <ele>250.1</ele>
        <time>2022-05-01T10:30:38Z</time>
      </trkpt>
      <trkpt lat="45.0888" lon="0.77638">
        <ele>250.1</ele>
        <time>2022-05-01T10:30:39Z</time>
      </trkpt>
      <trkpt lat="45.08878" lon="0.77647">
        <ele>250.1</ele>
        <time>2022-05-01T10:30:41Z</time>
      </trkpt>
      <trkpt lat="45.08875" lon="0.77657">
        <ele>250</ele>
        <time>2022-05-01T10:30:43Z</time>
      </trkpt>
      <trkpt lat="45.08872" lon="0.77665">
        <ele>250</ele>
        <time>2022-05-01T10:30:45Z</time>
      </trkpt>
      <trkpt lat="45.08868" lon="0.77673">
        <ele>250</ele>
        <time>2022-05-01T10:30:47Z</time>
      </trkpt>
      <trkpt lat="45.08865" lon="0.77681">
        <ele>250</ele>
        <time>2022-05-01T10:30:49Z</time>
      </trkpt>
      <trkpt lat="45.08863" lon="0.77685">
        <ele>249.9</ele>
        <time>2022-05-01T10:30:50Z</time>
      </trkpt>
      <trkpt lat="45.08861" lon="0.77689">
        <ele>249.9</ele>
        <time>2022-05-01T10:30:51Z</time>
      </trkpt>
      <trkpt lat="45.08858" lon="0.77697">
        <ele>249.8</ele>
        <time>2022-05-01T10:30:53Z</time>
      </trkpt>
      <trkpt lat="45.08856" lon="0.77701">
        <ele>249.8</ele>
        <time>2022-05-01T10:30:54Z</time>
      </trkpt>
      <trkpt lat="45.08854" lon="0.77705">
        <ele>249.8</ele>
        <time>2022-05-01T10:30:55Z</time>
      </trkpt>
      <trkpt lat="45.0885" lon="0.77713">
        <ele>249.7</ele>
        <time>2022-05-01T10:30:57Z</time>
      </trkpt>
      <trkpt lat="45.08845" lon="0.77721">
        <ele>249.7</ele>
        <time>2022-05-01T10:30:59Z</time>
      </trkpt>
      <trkpt lat="45.08841" lon="0.77729">
        <ele>249.7</ele>
        <time>2022-05-01T10:31:01Z</time>
      </trkpt>
      <trkpt lat="45.08841" lon="0.77743">
        <ele>249.5</ele>
        <time>2022-05-01T10:31:03Z</time>
      </trkpt>
      <trkpt lat="45.08844" lon="0.77746">
        <ele>249.4</ele>
        <time>2022-05-01T10:31:04Z</time>
      </trkpt>
      <trkpt lat="45.08847" lon="0.77752">
        <ele>249.2</ele>
        <time>2022-05-01T10:31:05Z</time>
      </trkpt>
      <trkpt lat="45.08851" lon="0.77766">
        <ele>248.8</ele>
        <time>2022-05-01T10:31:07Z</time>
      </trkpt>
      <trkpt lat="45.08853" lon="0.77779">
        <ele>248.4</ele>
        <time>2022-05-01T10:31:09Z</time>
      </trkpt>
      <trkpt lat="45.08855" lon="0.77795">
        <ele>247.9</ele>
        <time>2022-05-01T10:31:11Z</time>
      </trkpt>
      <trkpt lat="45.08856" lon="0.77811">
        <ele>247.3</ele>
        <time>2022-05-01T10:31:13Z</time>
      </trkpt>
      <trkpt lat="45.08857" lon="0.77819">
        <ele>247</ele>
        <time>2022-05-01T10:31:14Z</time>
      </trkpt>
      <trkpt lat="45.08858" lon="0.77828">
        <ele>246.7</ele>
        <time>2022-05-01T10:31:15Z</time>
      </trkpt>
      <trkpt lat="45.08858" lon="0.77837">
        <ele>246.3</ele>
        <time>2022-05-01T10:31:16Z</time>
      </trkpt>
      <trkpt lat="45.08859" lon="0.77845">
        <ele>246.1</ele>
        <time>2022-05-01T10:31:17Z</time>
      </trkpt>
      <trkpt lat="45.08861" lon="0.77862">
        <ele>245.5</ele>
        <time>2022-05-01T10:31:19Z</time>
      </trkpt>
      <trkpt lat="45.08863" lon="0.7787">
        <ele>245.3</ele>
        <time>2022-05-01T10:31:20Z</time>
      </trkpt>
      <trkpt lat="45.08865" lon="0.77879">
        <ele>245.1</ele>
        <time>2022-05-01T10:31:21Z</time>
      </trkpt>
      <trkpt lat="45.08866" lon="0.77887">
        <ele>245</ele>
        <time>2022-05-01T10:31:22Z</time>
      </trkpt>
      <trkpt lat="45.08869" lon="0.77895">
        <ele>244.8</ele>
        <time>2022-05-01T10:31:23Z</time>
      </trkpt>
      <trkpt lat="45.08871" lon="0.77902">
        <ele>244.6</ele>
        <time>2022-05-01T10:31:24Z</time>
      </trkpt>
      <trkpt lat="45.08873" lon="0.77909">
        <ele>244.4</ele>
        <time>2022-05-01T10:31:25Z</time>
      </trkpt>
      <trkpt lat="45.08878" lon="0.77922">
        <ele>244.1</ele>
        <time>2022-05-01T10:31:27Z</time>
      </trkpt>
      <trkpt lat="45.08883" lon="0.77934">
        <ele>243.9</ele>
        <time>2022-05-01T10:31:29Z</time>
      </trkpt>
      <trkpt lat="45.08886" lon="0.7794">
        <ele>243.9</ele>
        <time>2022-05-01T10:31:30Z</time>
      </trkpt>
      <trkpt lat="45.08889" lon="0.77946">
        <ele>243.9</ele>
        <time>2022-05-01T10:31:31Z</time>
      </trkpt>
      <trkpt lat="45.08895" lon="0.77958">
        <ele>243.9</ele>
        <time>2022-05-01T10:31:33Z</time>
      </trkpt>
      <trkpt lat="45.089" lon="0.77971">
        <ele>244</ele>
        <time>2022-05-01T10:31:35Z</time>
      </trkpt>
      <trkpt lat="45.08903" lon="0.77977">
        <ele>244.1</ele>
        <time>2022-05-01T10:31:36Z</time>
      </trkpt>
      <trkpt lat="45.08906" lon="0.77983">
        <ele>244.2</ele>
        <time>2022-05-01T10:31:37Z</time>
      </trkpt>
      <trkpt lat="45.08908" lon="0.77988">
        <ele>244.2</ele>
        <time>2022-05-01T10:31:38Z</time>
      </trkpt>
      <trkpt lat="45.08915" lon="0.77989">
        <ele>244.2</ele>
        <time>2022-05-01T10:31:39Z</time>
      </trkpt>
      <trkpt lat="45.08923" lon="0.77979">
        <ele>244</ele>
        <time>2022-05-01T10:31:41Z</time>
      </trkpt>
      <trkpt lat="45.0893" lon="0.77976">
        <ele>243.9</ele>
        <time>2022-05-01T10:31:42Z</time>
      </trkpt>
      <trkpt lat="45.08937" lon="0.77973">
        <ele>243.8</ele>
        <time>2022-05-01T10:31:43Z</time>
      </trkpt>
      <trkpt lat="45.08951" lon="0.77971">
        <ele>243.6</ele>
        <time>2022-05-01T10:31:45Z</time>
      </trkpt>
      <trkpt lat="45.08958" lon="0.7797">
        <ele>243.5</ele>
        <time>2022-05-01T10:31:46Z</time>
      </trkpt>
      <trkpt lat="45.08965" lon="0.77969">
        <ele>243.4</ele>
        <time>2022-05-01T10:31:47Z</time>
      </trkpt>
      <trkpt lat="45.08976" lon="0.77964">
        <ele>243.2</ele>
        <time>2022-05-01T10:31:49Z</time>
      </trkpt>
      <trkpt lat="45.08979" lon="0.77967">
        <ele>242.8</ele>
        <time>2022-05-01T10:31:50Z</time>
      </trkpt>
      <trkpt lat="45.08983" lon="0.77969">
        <ele>243.1</ele>
        <time>2022-05-01T10:31:51Z</time>
      </trkpt>
      <trkpt lat="45.08986" lon="0.77972">
        <ele>243</ele>
        <time>2022-05-01T10:31:53Z</time>
      </trkpt>
      <trkpt lat="45.08989" lon="0.77974">
        <ele>242.6</ele>
        <time>2022-05-01T10:31:54Z</time>
      </trkpt>
      <trkpt lat="45.08993" lon="0.77977">
        <ele>242.6</ele>
        <time>2022-05-01T10:31:55Z</time>
      </trkpt>
      <trkpt lat="45.09027" lon="0.78002">
        <ele>241.5</ele>
        <time>2022-05-01T10:31:57Z</time>
      </trkpt>
      <trkpt lat="45.09035" lon="0.78004">
        <ele>242</ele>
        <time>2022-05-01T10:31:58Z</time>
      </trkpt>
      <trkpt lat="45.09043" lon="0.78007">
        <ele>241.4</ele>
        <time>2022-05-01T10:31:59Z</time>
      </trkpt>
      <trkpt lat="45.0906" lon="0.78012">
        <ele>240.7</ele>
        <time>2022-05-01T10:32:01Z</time>
      </trkpt>
      <trkpt lat="45.09078" lon="0.78017">
        <ele>239.3</ele>
        <time>2022-05-01T10:32:03Z</time>
      </trkpt>
      <trkpt lat="45.09096" lon="0.7802">
        <ele>238.5</ele>
        <time>2022-05-01T10:32:05Z</time>
      </trkpt>
      <trkpt lat="45.09105" lon="0.78021">
        <ele>237.9</ele>
        <time>2022-05-01T10:32:06Z</time>
      </trkpt>
      <trkpt lat="45.09112" lon="0.78022">
        <ele>237.3</ele>
        <time>2022-05-01T10:32:07Z</time>
      </trkpt>
      <trkpt lat="45.09128" lon="0.78024">
        <ele>236.9</ele>
        <time>2022-05-01T10:32:09Z</time>
      </trkpt>
      <trkpt lat="45.09143" lon="0.78025">
        <ele>236.4</ele>
        <time>2022-05-01T10:32:11Z</time>
      </trkpt>
      <trkpt lat="45.0915" lon="0.78024">
        <ele>236.1</ele>
        <time>2022-05-01T10:32:12Z</time>
      </trkpt>
      <trkpt lat="45.09157" lon="0.78023">
        <ele>236</ele>
        <time>2022-05-01T10:32:13Z</time>
      </trkpt>
      <trkpt lat="45.09172" lon="0.78021">
        <ele>235.4</ele>
        <time>2022-05-01T10:32:15Z</time>
      </trkpt>
      <trkpt lat="45.09185" lon="0.78022">
        <ele>235.2</ele>
        <time>2022-05-01T10:32:17Z</time>
      </trkpt>
      <trkpt lat="45.09191" lon="0.78022">
        <ele>235.1</ele>
        <time>2022-05-01T10:32:18Z</time>
      </trkpt>
      <trkpt lat="45.09197" lon="0.78023">
        <ele>234.9</ele>
        <time>2022-05-01T10:32:19Z</time>
      </trkpt>
      <trkpt lat="45.09205" lon="0.78025">
        <ele>234.8</ele>
        <time>2022-05-01T10:32:21Z</time>
      </trkpt>
      <trkpt lat="45.0921" lon="0.78028">
        <ele>234.7</ele>
        <time>2022-05-01T10:32:22Z</time>
      </trkpt>
      <trkpt lat="45.09215" lon="0.78031">
        <ele>234.6</ele>
        <time>2022-05-01T10:32:23Z</time>
      </trkpt>
      <trkpt lat="45.09226" lon="0.78037">
        <ele>234.4</ele>
        <time>2022-05-01T10:32:25Z</time>
      </trkpt>
      <trkpt lat="45.09232" lon="0.78044">
        <ele>234.1</ele>
        <time>2022-05-01T10:32:27Z</time>
      </trkpt>
      <trkpt lat="45.09237" lon="0.78044">
        <ele>233.9</ele>
        <time>2022-05-01T10:32:28Z</time>
      </trkpt>
      <trkpt lat="45.09242" lon="0.78044">
        <ele>233.7</ele>
        <time>2022-05-01T10:32:29Z</time>
      </trkpt>
      <trkpt lat="45.09256" lon="0.78049">
        <ele>233.2</ele>
        <time>2022-05-01T10:32:31Z</time>
      </trkpt>
      <trkpt lat="45.09261" lon="0.78052">
        <ele>233</ele>
        <time>2022-05-01T10:32:32Z</time>
      </trkpt>
      <trkpt lat="45.09267" lon="0.78055">
        <ele>232.8</ele>
        <time>2022-05-01T10:32:33Z</time>
      </trkpt>
      <trkpt lat="45.09278" lon="0.78062">
        <ele>232.3</ele>
        <time>2022-05-01T10:32:35Z</time>
      </trkpt>
      <trkpt lat="45.09289" lon="0.78069">
        <ele>231.8</ele>
        <time>2022-05-01T10:32:37Z</time>
      </trkpt>
      <trkpt lat="45.093" lon="0.78076">
        <ele>231.4</ele>
        <time>2022-05-01T10:32:39Z</time>
      </trkpt>
      <trkpt lat="45.09311" lon="0.78083">
        <ele>231</ele>
        <time>2022-05-01T10:32:41Z</time>
      </trkpt>
      <trkpt lat="45.09316" lon="0.78087">
        <ele>230.7</ele>
        <time>2022-05-01T10:32:42Z</time>
      </trkpt>
      <trkpt lat="45.09321" lon="0.7809">
        <ele>230.5</ele>
        <time>2022-05-01T10:32:43Z</time>
      </trkpt>
      <trkpt lat="45.09333" lon="0.78098">
        <ele>230</ele>
        <time>2022-05-01T10:32:45Z</time>
      </trkpt>
      <trkpt lat="45.09346" lon="0.78105">
        <ele>229.5</ele>
        <time>2022-05-01T10:32:47Z</time>
      </trkpt>
      <trkpt lat="45.09352" lon="0.78109">
        <ele>229.3</ele>
        <time>2022-05-01T10:32:48Z</time>
      </trkpt>
      <trkpt lat="45.09359" lon="0.78112">
        <ele>229</ele>
        <time>2022-05-01T10:32:49Z</time>
      </trkpt>
      <trkpt lat="45.09373" lon="0.7812">
        <ele>228.4</ele>
        <time>2022-05-01T10:32:51Z</time>
      </trkpt>
      <trkpt lat="45.09387" lon="0.78126">
        <ele>227.9</ele>
        <time>2022-05-01T10:32:53Z</time>
      </trkpt>
      <trkpt lat="45.09394" lon="0.7813">
        <ele>227.6</ele>
        <time>2022-05-01T10:32:54Z</time>
      </trkpt>
      <trkpt lat="45.09402" lon="0.78133">
        <ele>227.3</ele>
        <time>2022-05-01T10:32:55Z</time>
      </trkpt>
      <trkpt lat="45.09408" lon="0.78135">
        <ele>227.1</ele>
        <time>2022-05-01T10:32:56Z</time>
      </trkpt>
      <trkpt lat="45.09415" lon="0.78138">
        <ele>226.8</ele>
        <time>2022-05-01T10:32:57Z</time>
      </trkpt>
      <trkpt lat="45.0942" lon="0.78142">
        <ele>226.6</ele>
        <time>2022-05-01T10:32:58Z</time>
      </trkpt>
      <trkpt lat="45.09426" lon="0.78146">
        <ele>226.4</ele>
        <time>2022-05-01T10:32:59Z</time>
      </trkpt>
      <trkpt lat="45.09431" lon="0.78151">
        <ele>226.1</ele>
        <time>2022-05-01T10:33:00Z</time>
      </trkpt>
      <trkpt lat="45.09436" lon="0.78155">
        <ele>225.9</ele>
        <time>2022-05-01T10:33:01Z</time>
      </trkpt>
      <trkpt lat="45.09445" lon="0.78164">
        <ele>225.5</ele>
        <time>2022-05-01T10:33:03Z</time>
      </trkpt>
      <trkpt lat="45.09449" lon="0.78169">
        <ele>225.3</ele>
        <time>2022-05-01T10:33:04Z</time>
      </trkpt>
      <trkpt lat="45.09453" lon="0.78173">
        <ele>225.1</ele>
        <time>2022-05-01T10:33:05Z</time>
      </trkpt>
      <trkpt lat="45.09457" lon="0.78177">
        <ele>224.9</ele>
        <time>2022-05-01T10:33:06Z</time>
      </trkpt>
      <trkpt lat="45.0946" lon="0.7818">
        <ele>224.8</ele>
        <time>2022-05-01T10:33:07Z</time>
      </trkpt>
      <trkpt lat="45.09457" lon="0.78191">
        <ele>224.5</ele>
        <time>2022-05-01T10:33:08Z</time>
      </trkpt>
      <trkpt lat="45.09455" lon="0.78196">
        <ele>223.8</ele>
        <time>2022-05-01T10:33:09Z</time>
      </trkpt>
      <trkpt lat="45.09452" lon="0.78201">
        <ele>223.5</ele>
        <time>2022-05-01T10:33:10Z</time>
      </trkpt>
      <trkpt lat="45.09446" lon="0.78206">
        <ele>223.3</ele>
        <time>2022-05-01T10:33:11Z</time>
      </trkpt>
      <trkpt lat="45.09442" lon="0.78214">
        <ele>222</ele>
        <time>2022-05-01T10:33:12Z</time>
      </trkpt>
      <trkpt lat="45.09443" lon="0.78217">
        <ele>221.7</ele>
        <time>2022-05-01T10:33:13Z</time>
      </trkpt>
      <trkpt lat="45.0944" lon="0.78227">
        <ele>220.2</ele>
        <time>2022-05-01T10:33:14Z</time>
      </trkpt>
      <trkpt lat="45.09437" lon="0.78235">
        <ele>220</ele>
        <time>2022-05-01T10:33:15Z</time>
      </trkpt>
      <trkpt lat="45.09436" lon="0.78254">
        <ele>218.6</ele>
        <time>2022-05-01T10:33:17Z</time>
      </trkpt>
      <trkpt lat="45.09443" lon="0.78267">
        <ele>217.1</ele>
        <time>2022-05-01T10:33:18Z</time>
      </trkpt>
      <trkpt lat="45.09449" lon="0.78278">
        <ele>216.8</ele>
        <time>2022-05-01T10:33:19Z</time>
      </trkpt>
      <trkpt lat="45.09462" lon="0.78298">
        <ele>214.1</ele>
        <time>2022-05-01T10:33:21Z</time>
      </trkpt>
      <trkpt lat="45.09467" lon="0.78308">
        <ele>213.8</ele>
        <time>2022-05-01T10:33:22Z</time>
      </trkpt>
      <trkpt lat="45.0947" lon="0.78319">
        <ele>212.7</ele>
        <time>2022-05-01T10:33:23Z</time>
      </trkpt>
      <trkpt lat="45.09473" lon="0.7833">
        <ele>211.7</ele>
        <time>2022-05-01T10:33:24Z</time>
      </trkpt>
      <trkpt lat="45.09476" lon="0.78342">
        <ele>211.5</ele>
        <time>2022-05-01T10:33:25Z</time>
      </trkpt>
      <trkpt lat="45.09481" lon="0.78352">
        <ele>210.9</ele>
        <time>2022-05-01T10:33:26Z</time>
      </trkpt>
      <trkpt lat="45.09485" lon="0.78358">
        <ele>210.6</ele>
        <time>2022-05-01T10:33:27Z</time>
      </trkpt>
      <trkpt lat="45.0949" lon="0.78362">
        <ele>210.7</ele>
        <time>2022-05-01T10:33:28Z</time>
      </trkpt>
      <trkpt lat="45.09494" lon="0.78366">
        <ele>210.9</ele>
        <time>2022-05-01T10:33:29Z</time>
      </trkpt>
      <trkpt lat="45.095" lon="0.78369">
        <ele>211.1</ele>
        <time>2022-05-01T10:33:30Z</time>
      </trkpt>
      <trkpt lat="45.09503" lon="0.78373">
        <ele>211.3</ele>
        <time>2022-05-01T10:33:31Z</time>
      </trkpt>
      <trkpt lat="45.09511" lon="0.78379">
        <ele>211.7</ele>
        <time>2022-05-01T10:33:33Z</time>
      </trkpt>
      <trkpt lat="45.09519" lon="0.78383">
        <ele>212</ele>
        <time>2022-05-01T10:33:35Z</time>
      </trkpt>
      <trkpt lat="45.09518" lon="0.78386">
        <ele>212.1</ele>
        <time>2022-05-01T10:33:36Z</time>
      </trkpt>
      <trkpt lat="45.09519" lon="0.78389">
        <ele>212.2</ele>
        <time>2022-05-01T10:33:37Z</time>
      </trkpt>
      <trkpt lat="45.09516" lon="0.78412">
        <ele>212.8</ele>
        <time>2022-05-01T10:33:39Z</time>
      </trkpt>
      <trkpt lat="45.09517" lon="0.78412">
        <ele>212.9</ele>
        <time>2022-05-01T10:33:40Z</time>
      </trkpt>
      <trkpt lat="45.0952" lon="0.78414">
        <ele>213</ele>
        <time>2022-05-01T10:33:41Z</time>
      </trkpt>
      <trkpt lat="45.09523" lon="0.78416">
        <ele>213.2</ele>
        <time>2022-05-01T10:33:43Z</time>
      </trkpt>
      <trkpt lat="45.09526" lon="0.78417">
        <ele>213.3</ele>
        <time>2022-05-01T10:33:44Z</time>
      </trkpt>
      <trkpt lat="45.09529" lon="0.78418">
        <ele>213.4</ele>
        <time>2022-05-01T10:33:45Z</time>
      </trkpt>
      <trkpt lat="45.09534" lon="0.78421">
        <ele>213.6</ele>
        <time>2022-05-01T10:33:47Z</time>
      </trkpt>
      <trkpt lat="45.09539" lon="0.78424">
        <ele>213.9</ele>
        <time>2022-05-01T10:33:49Z</time>
      </trkpt>
      <trkpt lat="45.09544" lon="0.78427">
        <ele>214.1</ele>
        <time>2022-05-01T10:33:51Z</time>
      </trkpt>
      <trkpt lat="45.09548" lon="0.7843">
        <ele>214.3</ele>
        <time>2022-05-01T10:33:53Z</time>
      </trkpt>
      <trkpt lat="45.0955" lon="0.78431">
        <ele>214.4</ele>
        <time>2022-05-01T10:33:54Z</time>
      </trkpt>
      <trkpt lat="45.09553" lon="0.78433">
        <ele>214.5</ele>
        <time>2022-05-01T10:33:55Z</time>
      </trkpt>
      <trkpt lat="45.09559" lon="0.78437">
        <ele>214.8</ele>
        <time>2022-05-01T10:33:57Z</time>
      </trkpt>
      <trkpt lat="45.09564" lon="0.7844">
        <ele>215</ele>
        <time>2022-05-01T10:33:59Z</time>
      </trkpt>
      <trkpt lat="45.09569" lon="0.78443">
        <ele>215.2</ele>
        <time>2022-05-01T10:34:01Z</time>
      </trkpt>
      <trkpt lat="45.09574" lon="0.78446">
        <ele>215.4</ele>
        <time>2022-05-01T10:34:03Z</time>
      </trkpt>
      <trkpt lat="45.09578" lon="0.78448">
        <ele>215.6</ele>
        <time>2022-05-01T10:34:04Z</time>
      </trkpt>
      <trkpt lat="45.09581" lon="0.78451">
        <ele>215.7</ele>
        <time>2022-05-01T10:34:05Z</time>
      </trkpt>
      <trkpt lat="45.09587" lon="0.78454">
        <ele>215.8</ele>
        <time>2022-05-01T10:34:07Z</time>
      </trkpt>
      <trkpt lat="45.09591" lon="0.78456">
        <ele>215.9</ele>
        <time>2022-05-01T10:34:08Z</time>
      </trkpt>
      <trkpt lat="45.09594" lon="0.78458">
        <ele>216</ele>
        <time>2022-05-01T10:34:09Z</time>
      </trkpt>
      <trkpt lat="45.09599" lon="0.78462">
        <ele>216.1</ele>
        <time>2022-05-01T10:34:11Z</time>
      </trkpt>
      <trkpt lat="45.09602" lon="0.78463">
        <ele>216.1</ele>
        <time>2022-05-01T10:34:12Z</time>
      </trkpt>
      <trkpt lat="45.09605" lon="0.78465">
        <ele>216.2</ele>
        <time>2022-05-01T10:34:13Z</time>
      </trkpt>
      <trkpt lat="45.09611" lon="0.78469">
        <ele>216.3</ele>
        <time>2022-05-01T10:34:15Z</time>
      </trkpt>
      <trkpt lat="45.09617" lon="0.78473">
        <ele>216.3</ele>
        <time>2022-05-01T10:34:17Z</time>
      </trkpt>
      <trkpt lat="45.09621" lon="0.78475">
        <ele>216.3</ele>
        <time>2022-05-01T10:34:18Z</time>
      </trkpt>
      <trkpt lat="45.09624" lon="0.78477">
        <ele>216.3</ele>
        <time>2022-05-01T10:34:19Z</time>
      </trkpt>
      <trkpt lat="45.09631" lon="0.78481">
        <ele>216.3</ele>
        <time>2022-05-01T10:34:21Z</time>
      </trkpt>
      <trkpt lat="45.09638" lon="0.78483">
        <ele>216.4</ele>
        <time>2022-05-01T10:34:23Z</time>
      </trkpt>
      <trkpt lat="45.09645" lon="0.78486">
        <ele>216.4</ele>
        <time>2022-05-01T10:34:25Z</time>
      </trkpt>
      <trkpt lat="45.09652" lon="0.78488">
        <ele>216.4</ele>
        <time>2022-05-01T10:34:27Z</time>
      </trkpt>
      <trkpt lat="45.0966" lon="0.7849">
        <ele>216.5</ele>
        <time>2022-05-01T10:34:29Z</time>
      </trkpt>
      <trkpt lat="45.09667" lon="0.78491">
        <ele>216.5</ele>
        <time>2022-05-01T10:34:31Z</time>
      </trkpt>
      <trkpt lat="45.09674" lon="0.78493">
        <ele>216.4</ele>
        <time>2022-05-01T10:34:33Z</time>
      </trkpt>
      <trkpt lat="45.09681" lon="0.78495">
        <ele>216.4</ele>
        <time>2022-05-01T10:34:35Z</time>
      </trkpt>
      <trkpt lat="45.09685" lon="0.78495">
        <ele>216.4</ele>
        <time>2022-05-01T10:34:36Z</time>
      </trkpt>
      <trkpt lat="45.09688" lon="0.78496">
        <ele>216.3</ele>
        <time>2022-05-01T10:34:37Z</time>
      </trkpt>
      <trkpt lat="45.09696" lon="0.78498">
        <ele>216.3</ele>
        <time>2022-05-01T10:34:39Z</time>
      </trkpt>
      <trkpt lat="45.09704" lon="0.785">
        <ele>216.2</ele>
        <time>2022-05-01T10:34:41Z</time>
      </trkpt>
      <trkpt lat="45.09713" lon="0.78499">
        <ele>216</ele>
        <time>2022-05-01T10:34:43Z</time>
      </trkpt>
      <trkpt lat="45.09721" lon="0.78494">
        <ele>215.8</ele>
        <time>2022-05-01T10:34:45Z</time>
      </trkpt>
      <trkpt lat="45.09729" lon="0.78489">
        <ele>215.5</ele>
        <time>2022-05-01T10:34:47Z</time>
      </trkpt>
      <trkpt lat="45.09737" lon="0.78484">
        <ele>215.3</ele>
        <time>2022-05-01T10:34:49Z</time>
      </trkpt>
      <trkpt lat="45.09742" lon="0.78482">
        <ele>215.1</ele>
        <time>2022-05-01T10:34:50Z</time>
      </trkpt>
      <trkpt lat="45.09745" lon="0.78479">
        <ele>215</ele>
        <time>2022-05-01T10:34:51Z</time>
      </trkpt>
      <trkpt lat="45.09754" lon="0.78474">
        <ele>214.8</ele>
        <time>2022-05-01T10:34:53Z</time>
      </trkpt>
      <trkpt lat="45.09761" lon="0.78469">
        <ele>214.6</ele>
        <time>2022-05-01T10:34:55Z</time>
      </trkpt>
      <trkpt lat="45.09757" lon="0.78456">
        <ele>214.5</ele>
        <time>2022-05-01T10:34:56Z</time>
      </trkpt>
      <trkpt lat="45.0976" lon="0.7845">
        <ele>214.4</ele>
        <time>2022-05-01T10:34:57Z</time>
      </trkpt>
      <trkpt lat="45.09768" lon="0.78441">
        <ele>214.2</ele>
        <time>2022-05-01T10:34:59Z</time>
      </trkpt>
      <trkpt lat="45.09772" lon="0.78437">
        <ele>214.1</ele>
        <time>2022-05-01T10:35:00Z</time>
      </trkpt>
      <trkpt lat="45.09776" lon="0.78434">
        <ele>214</ele>
        <time>2022-05-01T10:35:01Z</time>
      </trkpt>
      <trkpt lat="45.09784" lon="0.78427">
        <ele>213.8</ele>
        <time>2022-05-01T10:35:03Z</time>
      </trkpt>
      <trkpt lat="45.09791" lon="0.7842">
        <ele>213.7</ele>
        <time>2022-05-01T10:35:05Z</time>
      </trkpt>
      <trkpt lat="45.09799" lon="0.78413">
        <ele>213.5</ele>
        <time>2022-05-01T10:35:07Z</time>
      </trkpt>
      <trkpt lat="45.09807" lon="0.78406">
        <ele>213.4</ele>
        <time>2022-05-01T10:35:09Z</time>
      </trkpt>
      <trkpt lat="45.09814" lon="0.78401">
        <ele>213.2</ele>
        <time>2022-05-01T10:35:11Z</time>
      </trkpt>
      <trkpt lat="45.09817" lon="0.784">
        <ele>213.1</ele>
        <time>2022-05-01T10:35:12Z</time>
      </trkpt>
      <trkpt lat="45.09821" lon="0.784">
        <ele>213.1</ele>
        <time>2022-05-01T10:35:13Z</time>
      </trkpt>
      <trkpt lat="45.09821" lon="0.784">
        <ele>213.1</ele>
        <time>2022-05-01T10:35:14Z</time>
      </trkpt>
      <trkpt lat="45.09823" lon="0.78402">
        <ele>213</ele>
        <time>2022-05-01T10:35:15Z</time>
      </trkpt>
      <trkpt lat="45.09834" lon="0.784">
        <ele>212.9</ele>
        <time>2022-05-01T10:35:16Z</time>
      </trkpt>
      <trkpt lat="45.09836" lon="0.78398">
        <ele>212.9</ele>
        <time>2022-05-01T10:35:17Z</time>
      </trkpt>
      <trkpt lat="45.09834" lon="0.78383">
        <ele>212.9</ele>
        <time>2022-05-01T10:35:19Z</time>
      </trkpt>
      <trkpt lat="45.09841" lon="0.78375">
        <ele>212.8</ele>
        <time>2022-05-01T10:35:21Z</time>
      </trkpt>
      <trkpt lat="45.09844" lon="0.78372">
        <ele>212.8</ele>
        <time>2022-05-01T10:35:23Z</time>
      </trkpt>
      <trkpt lat="45.09844" lon="0.78372">
        <ele>212.8</ele>
        <time>2022-05-01T10:35:25Z</time>
      </trkpt>
    </trkseg>
  </trk>
</gpx>